<?xml version="1.0" encoding="UTF-8" standalone="no" ?>
<gpx xmlns="http://www.topografix.com/GPX/1/1" xmlns:xsi="http://www.w3.org/2001/XMLSchema-instance" xsi:schemaLocation="http://www.topografix.com/GPX/1/1 http://www.topografix.com/GPX/1/1/gpx.xsd" version="1.1" creator="VisuGPX - https://www.visugpx.com">
  <metadata>
    <name>St Jeannet Coursegoule Vence</name>
    <desc><![CDATA[Belle rando automnale avec de la montée dure et des descentes techniques, de quoi régaler les aficionados... env 43km et D+1400 car le chrono n'à été déclenché au début.
Le départ se fait des 4 chemins, montée classique vers le baous de St Jeannet.]]></desc>
  </metadata>
  <trk>
    <name><![CDATA[20181209103846-y98is]]></name>
    <trkseg>
      <trkpt lat="43.75136" lon="7.14192">
        <ele>523.20001220703</ele>
        <time>2018-12-08T09:02:42.000Z</time>
      </trkpt>
      <trkpt lat="43.75144" lon="7.14195">
        <ele>523.59997558594</ele>
        <time>2018-12-08T09:02:47.000Z</time>
      </trkpt>
      <trkpt lat="43.75146" lon="7.14196">
        <ele>523.59997558594</ele>
        <time>2018-12-08T09:02:48.000Z</time>
      </trkpt>
      <trkpt lat="43.75156" lon="7.14202">
        <ele>523.79998779297</ele>
        <time>2018-12-08T09:02:55.000Z</time>
      </trkpt>
      <trkpt lat="43.7516" lon="7.14205">
        <ele>524.20001220703</ele>
        <time>2018-12-08T09:02:58.000Z</time>
      </trkpt>
      <trkpt lat="43.75168" lon="7.14209">
        <ele>524.79998779297</ele>
        <time>2018-12-08T09:03:03.000Z</time>
      </trkpt>
      <trkpt lat="43.75176" lon="7.14213">
        <ele>525.40002441406</ele>
        <time>2018-12-08T09:03:08.000Z</time>
      </trkpt>
      <trkpt lat="43.75177" lon="7.14214">
        <ele>525.40002441406</ele>
        <time>2018-12-08T09:03:09.000Z</time>
      </trkpt>
      <trkpt lat="43.75184" lon="7.14214">
        <ele>526.59997558594</ele>
        <time>2018-12-08T09:03:14.000Z</time>
      </trkpt>
      <trkpt lat="43.75186" lon="7.14214">
        <ele>527</ele>
        <time>2018-12-08T09:03:15.000Z</time>
      </trkpt>
      <trkpt lat="43.7519" lon="7.14216">
        <ele>527.79998779297</ele>
        <time>2018-12-08T09:03:18.000Z</time>
      </trkpt>
      <trkpt lat="43.75193" lon="7.14219">
        <ele>528</ele>
        <time>2018-12-08T09:03:20.000Z</time>
      </trkpt>
      <trkpt lat="43.75202" lon="7.14225">
        <ele>529</ele>
        <time>2018-12-08T09:03:26.000Z</time>
      </trkpt>
      <trkpt lat="43.75204" lon="7.14226">
        <ele>529</ele>
        <time>2018-12-08T09:03:27.000Z</time>
      </trkpt>
      <trkpt lat="43.75209" lon="7.14233">
        <ele>529.59997558594</ele>
        <time>2018-12-08T09:03:32.000Z</time>
      </trkpt>
      <trkpt lat="43.75212" lon="7.14237">
        <ele>530</ele>
        <time>2018-12-08T09:03:35.000Z</time>
      </trkpt>
      <trkpt lat="43.75214" lon="7.14237">
        <ele>530.20001220703</ele>
        <time>2018-12-08T09:03:36.000Z</time>
      </trkpt>
      <trkpt lat="43.75217" lon="7.14238">
        <ele>530.40002441406</ele>
        <time>2018-12-08T09:03:38.000Z</time>
      </trkpt>
      <trkpt lat="43.75221" lon="7.1424">
        <ele>531</ele>
        <time>2018-12-08T09:03:41.000Z</time>
      </trkpt>
      <trkpt lat="43.75224" lon="7.14241">
        <ele>532</ele>
        <time>2018-12-08T09:03:44.000Z</time>
      </trkpt>
      <trkpt lat="43.75229" lon="7.14243">
        <ele>533.20001220703</ele>
        <time>2018-12-08T09:03:49.000Z</time>
      </trkpt>
      <trkpt lat="43.75233" lon="7.14244">
        <ele>533.79998779297</ele>
        <time>2018-12-08T09:03:52.000Z</time>
      </trkpt>
      <trkpt lat="43.75237" lon="7.14246">
        <ele>534.40002441406</ele>
        <time>2018-12-08T09:03:55.000Z</time>
      </trkpt>
      <trkpt lat="43.75238" lon="7.14246">
        <ele>534.59997558594</ele>
        <time>2018-12-08T09:03:56.000Z</time>
      </trkpt>
      <trkpt lat="43.75241" lon="7.14247">
        <ele>534.79998779297</ele>
        <time>2018-12-08T09:03:58.000Z</time>
      </trkpt>
      <trkpt lat="43.75244" lon="7.14247">
        <ele>535.20001220703</ele>
        <time>2018-12-08T09:04:01.000Z</time>
      </trkpt>
      <trkpt lat="43.75245" lon="7.14247">
        <ele>535.40002441406</ele>
        <time>2018-12-08T09:04:02.000Z</time>
      </trkpt>
      <trkpt lat="43.75249" lon="7.14248">
        <ele>536</ele>
        <time>2018-12-08T09:04:05.000Z</time>
      </trkpt>
      <trkpt lat="43.75251" lon="7.14248">
        <ele>536.40002441406</ele>
        <time>2018-12-08T09:04:07.000Z</time>
      </trkpt>
      <trkpt lat="43.75256" lon="7.14249">
        <ele>537.40002441406</ele>
        <time>2018-12-08T09:04:11.000Z</time>
      </trkpt>
      <trkpt lat="43.75258" lon="7.14249">
        <ele>537.79998779297</ele>
        <time>2018-12-08T09:04:12.000Z</time>
      </trkpt>
      <trkpt lat="43.75261" lon="7.14249">
        <ele>538.59997558594</ele>
        <time>2018-12-08T09:04:15.000Z</time>
      </trkpt>
      <trkpt lat="43.75265" lon="7.14249">
        <ele>539.59997558594</ele>
        <time>2018-12-08T09:04:18.000Z</time>
      </trkpt>
      <trkpt lat="43.75266" lon="7.14249">
        <ele>539.59997558594</ele>
        <time>2018-12-08T09:04:19.000Z</time>
      </trkpt>
      <trkpt lat="43.75272" lon="7.1425">
        <ele>540.59997558594</ele>
        <time>2018-12-08T09:04:25.000Z</time>
      </trkpt>
      <trkpt lat="43.75273" lon="7.14251">
        <ele>540.79998779297</ele>
        <time>2018-12-08T09:04:26.000Z</time>
      </trkpt>
      <trkpt lat="43.75278" lon="7.14252">
        <ele>541.79998779297</ele>
        <time>2018-12-08T09:04:30.000Z</time>
      </trkpt>
      <trkpt lat="43.75281" lon="7.14253">
        <ele>542</ele>
        <time>2018-12-08T09:04:32.000Z</time>
      </trkpt>
      <trkpt lat="43.75285" lon="7.14253">
        <ele>543</ele>
        <time>2018-12-08T09:04:36.000Z</time>
      </trkpt>
      <trkpt lat="43.75287" lon="7.14254">
        <ele>543.40002441406</ele>
        <time>2018-12-08T09:04:38.000Z</time>
      </trkpt>
      <trkpt lat="43.75292" lon="7.14256">
        <ele>544</ele>
        <time>2018-12-08T09:04:43.000Z</time>
      </trkpt>
      <trkpt lat="43.75295" lon="7.14257">
        <ele>544.40002441406</ele>
        <time>2018-12-08T09:04:46.000Z</time>
      </trkpt>
      <trkpt lat="43.75301" lon="7.14261">
        <ele>545.20001220703</ele>
        <time>2018-12-08T09:04:52.000Z</time>
      </trkpt>
      <trkpt lat="43.75302" lon="7.14262">
        <ele>545.40002441406</ele>
        <time>2018-12-08T09:04:53.000Z</time>
      </trkpt>
      <trkpt lat="43.75308" lon="7.14269">
        <ele>546</ele>
        <time>2018-12-08T09:05:00.000Z</time>
      </trkpt>
      <trkpt lat="43.75314" lon="7.14276">
        <ele>546.20001220703</ele>
        <time>2018-12-08T09:05:06.000Z</time>
      </trkpt>
      <trkpt lat="43.75315" lon="7.14277">
        <ele>546.40002441406</ele>
        <time>2018-12-08T09:05:07.000Z</time>
      </trkpt>
      <trkpt lat="43.75321" lon="7.14281">
        <ele>547.20001220703</ele>
        <time>2018-12-08T09:05:12.000Z</time>
      </trkpt>
      <trkpt lat="43.75324" lon="7.14282">
        <ele>547.40002441406</ele>
        <time>2018-12-08T09:05:14.000Z</time>
      </trkpt>
      <trkpt lat="43.7533" lon="7.14284">
        <ele>548</ele>
        <time>2018-12-08T09:05:19.000Z</time>
      </trkpt>
      <trkpt lat="43.75333" lon="7.14285">
        <ele>548.40002441406</ele>
        <time>2018-12-08T09:05:21.000Z</time>
      </trkpt>
      <trkpt lat="43.75338" lon="7.14286">
        <ele>549.40002441406</ele>
        <time>2018-12-08T09:05:26.000Z</time>
      </trkpt>
      <trkpt lat="43.75341" lon="7.14286">
        <ele>549.59997558594</ele>
        <time>2018-12-08T09:05:28.000Z</time>
      </trkpt>
      <trkpt lat="43.75346" lon="7.14289">
        <ele>550.40002441406</ele>
        <time>2018-12-08T09:05:33.000Z</time>
      </trkpt>
      <trkpt lat="43.75346" lon="7.1429">
        <ele>550.79998779297</ele>
        <time>2018-12-08T09:05:34.000Z</time>
      </trkpt>
      <trkpt lat="43.75351" lon="7.14291">
        <ele>551.79998779297</ele>
        <time>2018-12-08T09:05:38.000Z</time>
      </trkpt>
      <trkpt lat="43.75352" lon="7.14292">
        <ele>552</ele>
        <time>2018-12-08T09:05:39.000Z</time>
      </trkpt>
      <trkpt lat="43.75355" lon="7.14293">
        <ele>552.79998779297</ele>
        <time>2018-12-08T09:05:42.000Z</time>
      </trkpt>
      <trkpt lat="43.75359" lon="7.14294">
        <ele>553.40002441406</ele>
        <time>2018-12-08T09:05:45.000Z</time>
      </trkpt>
      <trkpt lat="43.75363" lon="7.14296">
        <ele>553.79998779297</ele>
        <time>2018-12-08T09:05:49.000Z</time>
      </trkpt>
      <trkpt lat="43.75366" lon="7.14298">
        <ele>554.40002441406</ele>
        <time>2018-12-08T09:05:52.000Z</time>
      </trkpt>
      <trkpt lat="43.7537" lon="7.143">
        <ele>554.79998779297</ele>
        <time>2018-12-08T09:05:55.000Z</time>
      </trkpt>
      <trkpt lat="43.75372" lon="7.14301">
        <ele>555.40002441406</ele>
        <time>2018-12-08T09:05:57.000Z</time>
      </trkpt>
      <trkpt lat="43.75375" lon="7.14303">
        <ele>556</ele>
        <time>2018-12-08T09:05:59.000Z</time>
      </trkpt>
      <trkpt lat="43.75377" lon="7.14304">
        <ele>556.40002441406</ele>
        <time>2018-12-08T09:06:01.000Z</time>
      </trkpt>
      <trkpt lat="43.75378" lon="7.14304">
        <ele>556.40002441406</ele>
        <time>2018-12-08T09:06:02.000Z</time>
      </trkpt>
      <trkpt lat="43.75381" lon="7.14306">
        <ele>557.20001220703</ele>
        <time>2018-12-08T09:06:05.000Z</time>
      </trkpt>
      <trkpt lat="43.75384" lon="7.14306">
        <ele>558.40002441406</ele>
        <time>2018-12-08T09:06:08.000Z</time>
      </trkpt>
      <trkpt lat="43.75385" lon="7.14306">
        <ele>558.40002441406</ele>
        <time>2018-12-08T09:06:09.000Z</time>
      </trkpt>
      <trkpt lat="43.75386" lon="7.14303">
        <ele>559.20001220703</ele>
        <time>2018-12-08T09:06:12.000Z</time>
      </trkpt>
      <trkpt lat="43.75387" lon="7.14301">
        <ele>559.40002441406</ele>
        <time>2018-12-08T09:06:13.000Z</time>
      </trkpt>
      <trkpt lat="43.75386" lon="7.143">
        <ele>559.59997558594</ele>
        <time>2018-12-08T09:06:14.000Z</time>
      </trkpt>
      <trkpt lat="43.75382" lon="7.14296">
        <ele>560.20001220703</ele>
        <time>2018-12-08T09:06:18.000Z</time>
      </trkpt>
      <trkpt lat="43.7538" lon="7.14295">
        <ele>560.40002441406</ele>
        <time>2018-12-08T09:06:20.000Z</time>
      </trkpt>
      <trkpt lat="43.75378" lon="7.14295">
        <ele>560.59997558594</ele>
        <time>2018-12-08T09:06:21.000Z</time>
      </trkpt>
      <trkpt lat="43.75374" lon="7.14293">
        <ele>561.20001220703</ele>
        <time>2018-12-08T09:06:25.000Z</time>
      </trkpt>
      <trkpt lat="43.75372" lon="7.14291">
        <ele>561.40002441406</ele>
        <time>2018-12-08T09:06:27.000Z</time>
      </trkpt>
      <trkpt lat="43.75371" lon="7.1429">
        <ele>561.79998779297</ele>
        <time>2018-12-08T09:06:28.000Z</time>
      </trkpt>
      <trkpt lat="43.75369" lon="7.14287">
        <ele>562.20001220703</ele>
        <time>2018-12-08T09:06:30.000Z</time>
      </trkpt>
      <trkpt lat="43.75367" lon="7.14285">
        <ele>563</ele>
        <time>2018-12-08T09:06:33.000Z</time>
      </trkpt>
      <trkpt lat="43.75365" lon="7.14282">
        <ele>563.79998779297</ele>
        <time>2018-12-08T09:06:36.000Z</time>
      </trkpt>
      <trkpt lat="43.75364" lon="7.14281">
        <ele>564</ele>
        <time>2018-12-08T09:06:37.000Z</time>
      </trkpt>
      <trkpt lat="43.7536" lon="7.14278">
        <ele>564.59997558594</ele>
        <time>2018-12-08T09:06:41.000Z</time>
      </trkpt>
      <trkpt lat="43.7536" lon="7.14277">
        <ele>564.79998779297</ele>
        <time>2018-12-08T09:06:42.000Z</time>
      </trkpt>
      <trkpt lat="43.75358" lon="7.14274">
        <ele>565</ele>
        <time>2018-12-08T09:06:44.000Z</time>
      </trkpt>
      <trkpt lat="43.75357" lon="7.14272">
        <ele>565.40002441406</ele>
        <time>2018-12-08T09:06:46.000Z</time>
      </trkpt>
      <trkpt lat="43.75355" lon="7.14269">
        <ele>566.20001220703</ele>
        <time>2018-12-08T09:06:49.000Z</time>
      </trkpt>
      <trkpt lat="43.75356" lon="7.14264">
        <ele>567.59997558594</ele>
        <time>2018-12-08T09:06:53.000Z</time>
      </trkpt>
      <trkpt lat="43.75358" lon="7.14262">
        <ele>568.20001220703</ele>
        <time>2018-12-08T09:06:55.000Z</time>
      </trkpt>
      <trkpt lat="43.7536" lon="7.14262">
        <ele>568.79998779297</ele>
        <time>2018-12-08T09:06:57.000Z</time>
      </trkpt>
      <trkpt lat="43.75361" lon="7.14263">
        <ele>569</ele>
        <time>2018-12-08T09:06:58.000Z</time>
      </trkpt>
      <trkpt lat="43.75367" lon="7.14264">
        <ele>569.59997558594</ele>
        <time>2018-12-08T09:07:04.000Z</time>
      </trkpt>
      <trkpt lat="43.75369" lon="7.14264">
        <ele>570</ele>
        <time>2018-12-08T09:07:06.000Z</time>
      </trkpt>
      <trkpt lat="43.75372" lon="7.14266">
        <ele>570.40002441406</ele>
        <time>2018-12-08T09:07:09.000Z</time>
      </trkpt>
      <trkpt lat="43.75374" lon="7.14266">
        <ele>571.20001220703</ele>
        <time>2018-12-08T09:07:11.000Z</time>
      </trkpt>
      <trkpt lat="43.7538" lon="7.14267">
        <ele>572.40002441406</ele>
        <time>2018-12-08T09:07:16.000Z</time>
      </trkpt>
      <trkpt lat="43.75384" lon="7.14266">
        <ele>573</ele>
        <time>2018-12-08T09:07:20.000Z</time>
      </trkpt>
      <trkpt lat="43.75387" lon="7.14267">
        <ele>573.59997558594</ele>
        <time>2018-12-08T09:07:23.000Z</time>
      </trkpt>
      <trkpt lat="43.7539" lon="7.14267">
        <ele>574.40002441406</ele>
        <time>2018-12-08T09:07:26.000Z</time>
      </trkpt>
      <trkpt lat="43.75391" lon="7.14267">
        <ele>574.59997558594</ele>
        <time>2018-12-08T09:07:27.000Z</time>
      </trkpt>
      <trkpt lat="43.75395" lon="7.14268">
        <ele>575.59997558594</ele>
        <time>2018-12-08T09:07:31.000Z</time>
      </trkpt>
      <trkpt lat="43.75396" lon="7.14268">
        <ele>575.59997558594</ele>
        <time>2018-12-08T09:07:32.000Z</time>
      </trkpt>
      <trkpt lat="43.75402" lon="7.14274">
        <ele>576.40002441406</ele>
        <time>2018-12-08T09:07:39.000Z</time>
      </trkpt>
      <trkpt lat="43.75402" lon="7.14274">
        <ele>576.79998779297</ele>
        <time>2018-12-08T09:07:41.000Z</time>
      </trkpt>
      <trkpt lat="43.75402" lon="7.14274">
        <ele>577.20001220703</ele>
        <time>2018-12-08T09:07:44.000Z</time>
      </trkpt>
      <trkpt lat="43.75404" lon="7.14275">
        <ele>577.59997558594</ele>
        <time>2018-12-08T09:07:50.000Z</time>
      </trkpt>
      <trkpt lat="43.75404" lon="7.14275">
        <ele>577.79998779297</ele>
        <time>2018-12-08T09:07:53.000Z</time>
      </trkpt>
      <trkpt lat="43.75404" lon="7.14275">
        <ele>578</ele>
        <time>2018-12-08T09:08:03.000Z</time>
      </trkpt>
      <trkpt lat="43.75406" lon="7.14277">
        <ele>577.79998779297</ele>
        <time>2018-12-08T09:08:07.000Z</time>
      </trkpt>
      <trkpt lat="43.75407" lon="7.14278">
        <ele>577.79998779297</ele>
        <time>2018-12-08T09:08:08.000Z</time>
      </trkpt>
      <trkpt lat="43.75412" lon="7.14281">
        <ele>578</ele>
        <time>2018-12-08T09:08:12.000Z</time>
      </trkpt>
      <trkpt lat="43.75415" lon="7.14282">
        <ele>578.40002441406</ele>
        <time>2018-12-08T09:08:14.000Z</time>
      </trkpt>
      <trkpt lat="43.75419" lon="7.14285">
        <ele>579</ele>
        <time>2018-12-08T09:08:18.000Z</time>
      </trkpt>
      <trkpt lat="43.7542" lon="7.14286">
        <ele>579.20001220703</ele>
        <time>2018-12-08T09:08:19.000Z</time>
      </trkpt>
      <trkpt lat="43.75428" lon="7.14291">
        <ele>580.20001220703</ele>
        <time>2018-12-08T09:08:25.000Z</time>
      </trkpt>
      <trkpt lat="43.75436" lon="7.14293">
        <ele>581.20001220703</ele>
        <time>2018-12-08T09:08:31.000Z</time>
      </trkpt>
      <trkpt lat="43.75437" lon="7.14294">
        <ele>581.20001220703</ele>
        <time>2018-12-08T09:08:32.000Z</time>
      </trkpt>
      <trkpt lat="43.75441" lon="7.14299">
        <ele>582</ele>
        <time>2018-12-08T09:08:36.000Z</time>
      </trkpt>
      <trkpt lat="43.75442" lon="7.143">
        <ele>582.40002441406</ele>
        <time>2018-12-08T09:08:37.000Z</time>
      </trkpt>
      <trkpt lat="43.75443" lon="7.143">
        <ele>582.59997558594</ele>
        <time>2018-12-08T09:08:38.000Z</time>
      </trkpt>
      <trkpt lat="43.75448" lon="7.14303">
        <ele>583.40002441406</ele>
        <time>2018-12-08T09:08:42.000Z</time>
      </trkpt>
      <trkpt lat="43.75449" lon="7.14304">
        <ele>583.40002441406</ele>
        <time>2018-12-08T09:08:43.000Z</time>
      </trkpt>
      <trkpt lat="43.75455" lon="7.14308">
        <ele>583.79998779297</ele>
        <time>2018-12-08T09:08:48.000Z</time>
      </trkpt>
      <trkpt lat="43.75462" lon="7.14314">
        <ele>584.40002441406</ele>
        <time>2018-12-08T09:08:54.000Z</time>
      </trkpt>
      <trkpt lat="43.75463" lon="7.14315">
        <ele>584.59997558594</ele>
        <time>2018-12-08T09:08:55.000Z</time>
      </trkpt>
      <trkpt lat="43.75468" lon="7.14319">
        <ele>585.20001220703</ele>
        <time>2018-12-08T09:09:00.000Z</time>
      </trkpt>
      <trkpt lat="43.7547" lon="7.1432">
        <ele>585.40002441406</ele>
        <time>2018-12-08T09:09:01.000Z</time>
      </trkpt>
      <trkpt lat="43.75472" lon="7.1432">
        <ele>585.79998779297</ele>
        <time>2018-12-08T09:09:02.000Z</time>
      </trkpt>
      <trkpt lat="43.75478" lon="7.14321">
        <ele>587</ele>
        <time>2018-12-08T09:09:07.000Z</time>
      </trkpt>
      <trkpt lat="43.75484" lon="7.14324">
        <ele>588</ele>
        <time>2018-12-08T09:09:13.000Z</time>
      </trkpt>
      <trkpt lat="43.75486" lon="7.14324">
        <ele>588</ele>
        <time>2018-12-08T09:09:14.000Z</time>
      </trkpt>
      <trkpt lat="43.75491" lon="7.14328">
        <ele>589</ele>
        <time>2018-12-08T09:09:19.000Z</time>
      </trkpt>
      <trkpt lat="43.75493" lon="7.14328">
        <ele>589.20001220703</ele>
        <time>2018-12-08T09:09:20.000Z</time>
      </trkpt>
      <trkpt lat="43.75499" lon="7.1433">
        <ele>589.79998779297</ele>
        <time>2018-12-08T09:09:25.000Z</time>
      </trkpt>
      <trkpt lat="43.75503" lon="7.14331">
        <ele>590.20001220703</ele>
        <time>2018-12-08T09:09:28.000Z</time>
      </trkpt>
      <trkpt lat="43.75508" lon="7.14334">
        <ele>591</ele>
        <time>2018-12-08T09:09:32.000Z</time>
      </trkpt>
      <trkpt lat="43.75509" lon="7.14334">
        <ele>591.40002441406</ele>
        <time>2018-12-08T09:09:33.000Z</time>
      </trkpt>
      <trkpt lat="43.75511" lon="7.14335">
        <ele>592</ele>
        <time>2018-12-08T09:09:35.000Z</time>
      </trkpt>
      <trkpt lat="43.75512" lon="7.14336">
        <ele>592.40002441406</ele>
        <time>2018-12-08T09:09:36.000Z</time>
      </trkpt>
      <trkpt lat="43.75512" lon="7.14336">
        <ele>592.59997558594</ele>
        <time>2018-12-08T09:09:37.000Z</time>
      </trkpt>
      <trkpt lat="43.75513" lon="7.14335">
        <ele>592.79998779297</ele>
        <time>2018-12-08T09:09:42.000Z</time>
      </trkpt>
      <trkpt lat="43.75515" lon="7.14336">
        <ele>593.20001220703</ele>
        <time>2018-12-08T09:09:51.000Z</time>
      </trkpt>
      <trkpt lat="43.75523" lon="7.14335">
        <ele>593.59997558594</ele>
        <time>2018-12-08T09:09:58.000Z</time>
      </trkpt>
      <trkpt lat="43.75524" lon="7.14335">
        <ele>593.59997558594</ele>
        <time>2018-12-08T09:09:59.000Z</time>
      </trkpt>
      <trkpt lat="43.75526" lon="7.14337">
        <ele>594.20001220703</ele>
        <time>2018-12-08T09:10:02.000Z</time>
      </trkpt>
      <trkpt lat="43.75528" lon="7.14338">
        <ele>594.59997558594</ele>
        <time>2018-12-08T09:10:04.000Z</time>
      </trkpt>
      <trkpt lat="43.75529" lon="7.14337">
        <ele>594.79998779297</ele>
        <time>2018-12-08T09:10:05.000Z</time>
      </trkpt>
      <trkpt lat="43.75532" lon="7.14336">
        <ele>595.20001220703</ele>
        <time>2018-12-08T09:10:07.000Z</time>
      </trkpt>
      <trkpt lat="43.75534" lon="7.14334">
        <ele>596</ele>
        <time>2018-12-08T09:10:10.000Z</time>
      </trkpt>
      <trkpt lat="43.75537" lon="7.14333">
        <ele>596.40002441406</ele>
        <time>2018-12-08T09:10:12.000Z</time>
      </trkpt>
      <trkpt lat="43.75538" lon="7.14332">
        <ele>597.20001220703</ele>
        <time>2018-12-08T09:10:14.000Z</time>
      </trkpt>
      <trkpt lat="43.75539" lon="7.14332">
        <ele>597.40002441406</ele>
        <time>2018-12-08T09:10:15.000Z</time>
      </trkpt>
      <trkpt lat="43.75541" lon="7.14333">
        <ele>598.20001220703</ele>
        <time>2018-12-08T09:10:17.000Z</time>
      </trkpt>
      <trkpt lat="43.75548" lon="7.14333">
        <ele>599.40002441406</ele>
        <time>2018-12-08T09:10:24.000Z</time>
      </trkpt>
      <trkpt lat="43.75552" lon="7.14332">
        <ele>600.40002441406</ele>
        <time>2018-12-08T09:10:28.000Z</time>
      </trkpt>
      <trkpt lat="43.75553" lon="7.14332">
        <ele>600.59997558594</ele>
        <time>2018-12-08T09:10:29.000Z</time>
      </trkpt>
      <trkpt lat="43.75557" lon="7.14333">
        <ele>601.20001220703</ele>
        <time>2018-12-08T09:10:32.000Z</time>
      </trkpt>
      <trkpt lat="43.75562" lon="7.14333">
        <ele>601.59997558594</ele>
        <time>2018-12-08T09:10:36.000Z</time>
      </trkpt>
      <trkpt lat="43.75568" lon="7.14333">
        <ele>602.20001220703</ele>
        <time>2018-12-08T09:10:42.000Z</time>
      </trkpt>
      <trkpt lat="43.75572" lon="7.14333">
        <ele>602.79998779297</ele>
        <time>2018-12-08T09:10:45.000Z</time>
      </trkpt>
      <trkpt lat="43.75575" lon="7.14333">
        <ele>603.40002441406</ele>
        <time>2018-12-08T09:10:48.000Z</time>
      </trkpt>
      <trkpt lat="43.75578" lon="7.14334">
        <ele>603.79998779297</ele>
        <time>2018-12-08T09:10:51.000Z</time>
      </trkpt>
      <trkpt lat="43.75581" lon="7.14334">
        <ele>604.20001220703</ele>
        <time>2018-12-08T09:10:54.000Z</time>
      </trkpt>
      <trkpt lat="43.75583" lon="7.14333">
        <ele>604.59997558594</ele>
        <time>2018-12-08T09:10:56.000Z</time>
      </trkpt>
      <trkpt lat="43.75585" lon="7.14333">
        <ele>604.79998779297</ele>
        <time>2018-12-08T09:10:58.000Z</time>
      </trkpt>
      <trkpt lat="43.75586" lon="7.14333">
        <ele>605</ele>
        <time>2018-12-08T09:10:59.000Z</time>
      </trkpt>
      <trkpt lat="43.75588" lon="7.14333">
        <ele>605</ele>
        <time>2018-12-08T09:11:01.000Z</time>
      </trkpt>
      <trkpt lat="43.75594" lon="7.14334">
        <ele>606</ele>
        <time>2018-12-08T09:11:06.000Z</time>
      </trkpt>
      <trkpt lat="43.75594" lon="7.14334">
        <ele>606</ele>
        <time>2018-12-08T09:11:07.000Z</time>
      </trkpt>
      <trkpt lat="43.75595" lon="7.14333">
        <ele>606</ele>
        <time>2018-12-08T09:11:08.000Z</time>
      </trkpt>
      <trkpt lat="43.756" lon="7.14332">
        <ele>606.40002441406</ele>
        <time>2018-12-08T09:11:12.000Z</time>
      </trkpt>
      <trkpt lat="43.75602" lon="7.14332">
        <ele>607</ele>
        <time>2018-12-08T09:11:14.000Z</time>
      </trkpt>
      <trkpt lat="43.75606" lon="7.14331">
        <ele>608.20001220703</ele>
        <time>2018-12-08T09:11:17.000Z</time>
      </trkpt>
      <trkpt lat="43.75607" lon="7.1433">
        <ele>608.59997558594</ele>
        <time>2018-12-08T09:11:18.000Z</time>
      </trkpt>
      <trkpt lat="43.7561" lon="7.14328">
        <ele>609.40002441406</ele>
        <time>2018-12-08T09:11:21.000Z</time>
      </trkpt>
      <trkpt lat="43.75612" lon="7.14328">
        <ele>609.79998779297</ele>
        <time>2018-12-08T09:11:24.000Z</time>
      </trkpt>
      <trkpt lat="43.75616" lon="7.14327">
        <ele>610.40002441406</ele>
        <time>2018-12-08T09:11:27.000Z</time>
      </trkpt>
      <trkpt lat="43.75618" lon="7.14327">
        <ele>610.79998779297</ele>
        <time>2018-12-08T09:11:30.000Z</time>
      </trkpt>
      <trkpt lat="43.75622" lon="7.14326">
        <ele>611.59997558594</ele>
        <time>2018-12-08T09:11:34.000Z</time>
      </trkpt>
      <trkpt lat="43.75624" lon="7.14326">
        <ele>612.20001220703</ele>
        <time>2018-12-08T09:11:36.000Z</time>
      </trkpt>
      <trkpt lat="43.75627" lon="7.14325">
        <ele>612.79998779297</ele>
        <time>2018-12-08T09:11:39.000Z</time>
      </trkpt>
      <trkpt lat="43.7563" lon="7.14323">
        <ele>613.20001220703</ele>
        <time>2018-12-08T09:11:41.000Z</time>
      </trkpt>
      <trkpt lat="43.75632" lon="7.14322">
        <ele>613.79998779297</ele>
        <time>2018-12-08T09:11:44.000Z</time>
      </trkpt>
      <trkpt lat="43.75637" lon="7.1432">
        <ele>614.59997558594</ele>
        <time>2018-12-08T09:11:48.000Z</time>
      </trkpt>
      <trkpt lat="43.75638" lon="7.1432">
        <ele>615</ele>
        <time>2018-12-08T09:11:49.000Z</time>
      </trkpt>
      <trkpt lat="43.75642" lon="7.14321">
        <ele>615.79998779297</ele>
        <time>2018-12-08T09:11:53.000Z</time>
      </trkpt>
      <trkpt lat="43.75645" lon="7.14321">
        <ele>616</ele>
        <time>2018-12-08T09:11:55.000Z</time>
      </trkpt>
      <trkpt lat="43.75648" lon="7.14321">
        <ele>616.40002441406</ele>
        <time>2018-12-08T09:11:57.000Z</time>
      </trkpt>
      <trkpt lat="43.75647" lon="7.14321">
        <ele>617</ele>
        <time>2018-12-08T09:11:59.000Z</time>
      </trkpt>
      <trkpt lat="43.75647" lon="7.14321">
        <ele>617.20001220703</ele>
        <time>2018-12-08T09:12:00.000Z</time>
      </trkpt>
      <trkpt lat="43.75649" lon="7.1432">
        <ele>617.59997558594</ele>
        <time>2018-12-08T09:12:04.000Z</time>
      </trkpt>
      <trkpt lat="43.75654" lon="7.1432">
        <ele>618.40002441406</ele>
        <time>2018-12-08T09:12:13.000Z</time>
      </trkpt>
      <trkpt lat="43.75654" lon="7.1432">
        <ele>618.59997558594</ele>
        <time>2018-12-08T09:12:14.000Z</time>
      </trkpt>
      <trkpt lat="43.75657" lon="7.1432">
        <ele>618.59997558594</ele>
        <time>2018-12-08T09:12:23.000Z</time>
      </trkpt>
      <trkpt lat="43.75664" lon="7.14319">
        <ele>618.79998779297</ele>
        <time>2018-12-08T09:12:28.000Z</time>
      </trkpt>
      <trkpt lat="43.75665" lon="7.14319">
        <ele>619.20001220703</ele>
        <time>2018-12-08T09:12:29.000Z</time>
      </trkpt>
      <trkpt lat="43.75667" lon="7.14318">
        <ele>619.59997558594</ele>
        <time>2018-12-08T09:12:30.000Z</time>
      </trkpt>
      <trkpt lat="43.75671" lon="7.14317">
        <ele>620.79998779297</ele>
        <time>2018-12-08T09:12:33.000Z</time>
      </trkpt>
      <trkpt lat="43.75676" lon="7.14318">
        <ele>621.79998779297</ele>
        <time>2018-12-08T09:12:37.000Z</time>
      </trkpt>
      <trkpt lat="43.75677" lon="7.14318">
        <ele>622</ele>
        <time>2018-12-08T09:12:38.000Z</time>
      </trkpt>
      <trkpt lat="43.75682" lon="7.14315">
        <ele>622.59997558594</ele>
        <time>2018-12-08T09:12:42.000Z</time>
      </trkpt>
      <trkpt lat="43.75686" lon="7.14314">
        <ele>623.20001220703</ele>
        <time>2018-12-08T09:12:45.000Z</time>
      </trkpt>
      <trkpt lat="43.75687" lon="7.14314">
        <ele>623.79998779297</ele>
        <time>2018-12-08T09:12:47.000Z</time>
      </trkpt>
      <trkpt lat="43.75687" lon="7.14314">
        <ele>624.20001220703</ele>
        <time>2018-12-08T09:12:48.000Z</time>
      </trkpt>
      <trkpt lat="43.75689" lon="7.14313">
        <ele>624.79998779297</ele>
        <time>2018-12-08T09:12:53.000Z</time>
      </trkpt>
      <trkpt lat="43.75692" lon="7.14313">
        <ele>625.40002441406</ele>
        <time>2018-12-08T09:12:58.000Z</time>
      </trkpt>
      <trkpt lat="43.75692" lon="7.14313">
        <ele>625.59997558594</ele>
        <time>2018-12-08T09:13:01.000Z</time>
      </trkpt>
      <trkpt lat="43.75696" lon="7.14314">
        <ele>625.59997558594</ele>
        <time>2018-12-08T09:13:07.000Z</time>
      </trkpt>
      <trkpt lat="43.75704" lon="7.14316">
        <ele>626.40002441406</ele>
        <time>2018-12-08T09:13:13.000Z</time>
      </trkpt>
      <trkpt lat="43.75705" lon="7.14316">
        <ele>626.59997558594</ele>
        <time>2018-12-08T09:13:14.000Z</time>
      </trkpt>
      <trkpt lat="43.75712" lon="7.14319">
        <ele>627.59997558594</ele>
        <time>2018-12-08T09:13:20.000Z</time>
      </trkpt>
      <trkpt lat="43.75719" lon="7.14322">
        <ele>628.40002441406</ele>
        <time>2018-12-08T09:13:26.000Z</time>
      </trkpt>
      <trkpt lat="43.75725" lon="7.14323">
        <ele>628.59997558594</ele>
        <time>2018-12-08T09:13:30.000Z</time>
      </trkpt>
      <trkpt lat="43.75726" lon="7.14325">
        <ele>628.79998779297</ele>
        <time>2018-12-08T09:13:31.000Z</time>
      </trkpt>
      <trkpt lat="43.75731" lon="7.14327">
        <ele>629.20001220703</ele>
        <time>2018-12-08T09:13:35.000Z</time>
      </trkpt>
      <trkpt lat="43.75732" lon="7.14327">
        <ele>629.40002441406</ele>
        <time>2018-12-08T09:13:36.000Z</time>
      </trkpt>
      <trkpt lat="43.75735" lon="7.14328">
        <ele>629.79998779297</ele>
        <time>2018-12-08T09:13:38.000Z</time>
      </trkpt>
      <trkpt lat="43.75742" lon="7.14329">
        <ele>630.40002441406</ele>
        <time>2018-12-08T09:13:44.000Z</time>
      </trkpt>
      <trkpt lat="43.75745" lon="7.14329">
        <ele>630.59997558594</ele>
        <time>2018-12-08T09:13:49.000Z</time>
      </trkpt>
      <trkpt lat="43.75745" lon="7.1433">
        <ele>630.79998779297</ele>
        <time>2018-12-08T09:13:54.000Z</time>
      </trkpt>
      <trkpt lat="43.75745" lon="7.1433">
        <ele>630.79998779297</ele>
        <time>2018-12-08T09:13:56.000Z</time>
      </trkpt>
      <trkpt lat="43.75745" lon="7.14329">
        <ele>630.79998779297</ele>
        <time>2018-12-08T09:14:14.000Z</time>
      </trkpt>
      <trkpt lat="43.75745" lon="7.14328">
        <ele>630.79998779297</ele>
        <time>2018-12-08T09:14:32.000Z</time>
      </trkpt>
      <trkpt lat="43.75745" lon="7.14326">
        <ele>630.59997558594</ele>
        <time>2018-12-08T09:15:00.000Z</time>
      </trkpt>
      <trkpt lat="43.75745" lon="7.14325">
        <ele>630.40002441406</ele>
        <time>2018-12-08T09:15:26.000Z</time>
      </trkpt>
      <trkpt lat="43.75744" lon="7.14325">
        <ele>630.20001220703</ele>
        <time>2018-12-08T09:15:45.000Z</time>
      </trkpt>
      <trkpt lat="43.75744" lon="7.14326">
        <ele>630.20001220703</ele>
        <time>2018-12-08T09:15:58.000Z</time>
      </trkpt>
      <trkpt lat="43.75745" lon="7.14327">
        <ele>629.79998779297</ele>
        <time>2018-12-08T09:16:23.000Z</time>
      </trkpt>
      <trkpt lat="43.75745" lon="7.14327">
        <ele>629.79998779297</ele>
        <time>2018-12-08T09:16:24.000Z</time>
      </trkpt>
      <trkpt lat="43.75745" lon="7.14327">
        <ele>630</ele>
        <time>2018-12-08T09:16:31.000Z</time>
      </trkpt>
      <trkpt lat="43.75746" lon="7.14328">
        <ele>629.79998779297</ele>
        <time>2018-12-08T09:16:40.000Z</time>
      </trkpt>
      <trkpt lat="43.75747" lon="7.14329">
        <ele>629.79998779297</ele>
        <time>2018-12-08T09:16:55.000Z</time>
      </trkpt>
      <trkpt lat="43.75749" lon="7.1433">
        <ele>629.79998779297</ele>
        <time>2018-12-08T09:17:03.000Z</time>
      </trkpt>
      <trkpt lat="43.75761" lon="7.14332">
        <ele>629.59997558594</ele>
        <time>2018-12-08T09:17:10.000Z</time>
      </trkpt>
      <trkpt lat="43.75777" lon="7.14332">
        <ele>630.59997558594</ele>
        <time>2018-12-08T09:17:19.000Z</time>
      </trkpt>
      <trkpt lat="43.75779" lon="7.14332">
        <ele>630.79998779297</ele>
        <time>2018-12-08T09:17:20.000Z</time>
      </trkpt>
      <trkpt lat="43.75787" lon="7.14329">
        <ele>631.20001220703</ele>
        <time>2018-12-08T09:17:25.000Z</time>
      </trkpt>
      <trkpt lat="43.75798" lon="7.14325">
        <ele>631.59997558594</ele>
        <time>2018-12-08T09:17:31.000Z</time>
      </trkpt>
      <trkpt lat="43.75801" lon="7.14323">
        <ele>632</ele>
        <time>2018-12-08T09:17:33.000Z</time>
      </trkpt>
      <trkpt lat="43.75808" lon="7.14318">
        <ele>633</ele>
        <time>2018-12-08T09:17:38.000Z</time>
      </trkpt>
      <trkpt lat="43.75811" lon="7.14314">
        <ele>633</ele>
        <time>2018-12-08T09:17:40.000Z</time>
      </trkpt>
      <trkpt lat="43.75815" lon="7.14312">
        <ele>633</ele>
        <time>2018-12-08T09:17:42.000Z</time>
      </trkpt>
      <trkpt lat="43.75819" lon="7.14311">
        <ele>633.20001220703</ele>
        <time>2018-12-08T09:17:44.000Z</time>
      </trkpt>
      <trkpt lat="43.75829" lon="7.14308">
        <ele>633.40002441406</ele>
        <time>2018-12-08T09:17:49.000Z</time>
      </trkpt>
      <trkpt lat="43.75837" lon="7.14305">
        <ele>634</ele>
        <time>2018-12-08T09:17:54.000Z</time>
      </trkpt>
      <trkpt lat="43.7584" lon="7.14304">
        <ele>634.59997558594</ele>
        <time>2018-12-08T09:17:56.000Z</time>
      </trkpt>
      <trkpt lat="43.75847" lon="7.14303">
        <ele>635.20001220703</ele>
        <time>2018-12-08T09:18:00.000Z</time>
      </trkpt>
      <trkpt lat="43.75855" lon="7.14302">
        <ele>635.59997558594</ele>
        <time>2018-12-08T09:18:04.000Z</time>
      </trkpt>
      <trkpt lat="43.75867" lon="7.143">
        <ele>636</ele>
        <time>2018-12-08T09:18:10.000Z</time>
      </trkpt>
      <trkpt lat="43.75868" lon="7.14299">
        <ele>636.40002441406</ele>
        <time>2018-12-08T09:18:11.000Z</time>
      </trkpt>
      <trkpt lat="43.75875" lon="7.14298">
        <ele>637.40002441406</ele>
        <time>2018-12-08T09:18:15.000Z</time>
      </trkpt>
      <trkpt lat="43.75883" lon="7.14297">
        <ele>637.79998779297</ele>
        <time>2018-12-08T09:18:19.000Z</time>
      </trkpt>
      <trkpt lat="43.75888" lon="7.14301">
        <ele>637.79998779297</ele>
        <time>2018-12-08T09:18:21.000Z</time>
      </trkpt>
      <trkpt lat="43.75893" lon="7.14306">
        <ele>637.79998779297</ele>
        <time>2018-12-08T09:18:23.000Z</time>
      </trkpt>
      <trkpt lat="43.75899" lon="7.14308">
        <ele>637</ele>
        <time>2018-12-08T09:18:26.000Z</time>
      </trkpt>
      <trkpt lat="43.75901" lon="7.14307">
        <ele>636.79998779297</ele>
        <time>2018-12-08T09:18:27.000Z</time>
      </trkpt>
      <trkpt lat="43.75908" lon="7.14307">
        <ele>637.79998779297</ele>
        <time>2018-12-08T09:18:32.000Z</time>
      </trkpt>
      <trkpt lat="43.75912" lon="7.14308">
        <ele>638.40002441406</ele>
        <time>2018-12-08T09:18:35.000Z</time>
      </trkpt>
      <trkpt lat="43.75913" lon="7.14309">
        <ele>638.59997558594</ele>
        <time>2018-12-08T09:18:36.000Z</time>
      </trkpt>
      <trkpt lat="43.75916" lon="7.14311">
        <ele>638.79998779297</ele>
        <time>2018-12-08T09:18:38.000Z</time>
      </trkpt>
      <trkpt lat="43.75925" lon="7.14314">
        <ele>639.59997558594</ele>
        <time>2018-12-08T09:18:44.000Z</time>
      </trkpt>
      <trkpt lat="43.75928" lon="7.14314">
        <ele>639.79998779297</ele>
        <time>2018-12-08T09:18:46.000Z</time>
      </trkpt>
      <trkpt lat="43.75934" lon="7.14317">
        <ele>640.59997558594</ele>
        <time>2018-12-08T09:18:50.000Z</time>
      </trkpt>
      <trkpt lat="43.75938" lon="7.14316">
        <ele>641.40002441406</ele>
        <time>2018-12-08T09:18:53.000Z</time>
      </trkpt>
      <trkpt lat="43.75942" lon="7.14316">
        <ele>641.59997558594</ele>
        <time>2018-12-08T09:18:55.000Z</time>
      </trkpt>
      <trkpt lat="43.75947" lon="7.14315">
        <ele>642.40002441406</ele>
        <time>2018-12-08T09:18:59.000Z</time>
      </trkpt>
      <trkpt lat="43.75953" lon="7.14314">
        <ele>642.79998779297</ele>
        <time>2018-12-08T09:19:04.000Z</time>
      </trkpt>
      <trkpt lat="43.75957" lon="7.14314">
        <ele>643</ele>
        <time>2018-12-08T09:19:06.000Z</time>
      </trkpt>
      <trkpt lat="43.75964" lon="7.14315">
        <ele>644</ele>
        <time>2018-12-08T09:19:11.000Z</time>
      </trkpt>
      <trkpt lat="43.75966" lon="7.14315">
        <ele>644.40002441406</ele>
        <time>2018-12-08T09:19:13.000Z</time>
      </trkpt>
      <trkpt lat="43.75972" lon="7.14317">
        <ele>645</ele>
        <time>2018-12-08T09:19:17.000Z</time>
      </trkpt>
      <trkpt lat="43.75978" lon="7.14317">
        <ele>645.40002441406</ele>
        <time>2018-12-08T09:19:21.000Z</time>
      </trkpt>
      <trkpt lat="43.75988" lon="7.14315">
        <ele>646</ele>
        <time>2018-12-08T09:19:27.000Z</time>
      </trkpt>
      <trkpt lat="43.75992" lon="7.14316">
        <ele>646.20001220703</ele>
        <time>2018-12-08T09:19:29.000Z</time>
      </trkpt>
      <trkpt lat="43.76002" lon="7.14317">
        <ele>647</ele>
        <time>2018-12-08T09:19:35.000Z</time>
      </trkpt>
      <trkpt lat="43.76004" lon="7.14317">
        <ele>647.40002441406</ele>
        <time>2018-12-08T09:19:36.000Z</time>
      </trkpt>
      <trkpt lat="43.76018" lon="7.1432">
        <ele>648</ele>
        <time>2018-12-08T09:19:44.000Z</time>
      </trkpt>
      <trkpt lat="43.7602" lon="7.14321">
        <ele>648</ele>
        <time>2018-12-08T09:19:45.000Z</time>
      </trkpt>
      <trkpt lat="43.76033" lon="7.14327">
        <ele>648.79998779297</ele>
        <time>2018-12-08T09:19:52.000Z</time>
      </trkpt>
      <trkpt lat="43.76037" lon="7.1433">
        <ele>649.20001220703</ele>
        <time>2018-12-08T09:19:54.000Z</time>
      </trkpt>
      <trkpt lat="43.76047" lon="7.14337">
        <ele>649.59997558594</ele>
        <time>2018-12-08T09:20:00.000Z</time>
      </trkpt>
      <trkpt lat="43.76056" lon="7.14343">
        <ele>650.20001220703</ele>
        <time>2018-12-08T09:20:05.000Z</time>
      </trkpt>
      <trkpt lat="43.76061" lon="7.14346">
        <ele>650.59997558594</ele>
        <time>2018-12-08T09:20:08.000Z</time>
      </trkpt>
      <trkpt lat="43.76072" lon="7.14353">
        <ele>651.40002441406</ele>
        <time>2018-12-08T09:20:14.000Z</time>
      </trkpt>
      <trkpt lat="43.76076" lon="7.14356">
        <ele>651.59997558594</ele>
        <time>2018-12-08T09:20:17.000Z</time>
      </trkpt>
      <trkpt lat="43.76084" lon="7.14362">
        <ele>652.40002441406</ele>
        <time>2018-12-08T09:20:22.000Z</time>
      </trkpt>
      <trkpt lat="43.76086" lon="7.14364">
        <ele>652.40002441406</ele>
        <time>2018-12-08T09:20:23.000Z</time>
      </trkpt>
      <trkpt lat="43.76097" lon="7.14374">
        <ele>653.20001220703</ele>
        <time>2018-12-08T09:20:30.000Z</time>
      </trkpt>
      <trkpt lat="43.761" lon="7.14377">
        <ele>653.40002441406</ele>
        <time>2018-12-08T09:20:32.000Z</time>
      </trkpt>
      <trkpt lat="43.76111" lon="7.14384">
        <ele>654.40002441406</ele>
        <time>2018-12-08T09:20:38.000Z</time>
      </trkpt>
      <trkpt lat="43.76112" lon="7.14384">
        <ele>654.59997558594</ele>
        <time>2018-12-08T09:20:39.000Z</time>
      </trkpt>
      <trkpt lat="43.76128" lon="7.14392">
        <ele>655.40002441406</ele>
        <time>2018-12-08T09:20:47.000Z</time>
      </trkpt>
      <trkpt lat="43.7613" lon="7.14393">
        <ele>655.59997558594</ele>
        <time>2018-12-08T09:20:48.000Z</time>
      </trkpt>
      <trkpt lat="43.76144" lon="7.14403">
        <ele>656.40002441406</ele>
        <time>2018-12-08T09:20:56.000Z</time>
      </trkpt>
      <trkpt lat="43.76145" lon="7.14405">
        <ele>656.59997558594</ele>
        <time>2018-12-08T09:20:57.000Z</time>
      </trkpt>
      <trkpt lat="43.76153" lon="7.1441">
        <ele>657.20001220703</ele>
        <time>2018-12-08T09:21:02.000Z</time>
      </trkpt>
      <trkpt lat="43.76158" lon="7.14412">
        <ele>657.79998779297</ele>
        <time>2018-12-08T09:21:05.000Z</time>
      </trkpt>
      <trkpt lat="43.76165" lon="7.14413">
        <ele>658.40002441406</ele>
        <time>2018-12-08T09:21:09.000Z</time>
      </trkpt>
      <trkpt lat="43.76183" lon="7.14418">
        <ele>658.79998779297</ele>
        <time>2018-12-08T09:21:17.000Z</time>
      </trkpt>
      <trkpt lat="43.76185" lon="7.14418">
        <ele>659</ele>
        <time>2018-12-08T09:21:18.000Z</time>
      </trkpt>
      <trkpt lat="43.76195" lon="7.1442">
        <ele>659.59997558594</ele>
        <time>2018-12-08T09:21:23.000Z</time>
      </trkpt>
      <trkpt lat="43.76201" lon="7.14421">
        <ele>660</ele>
        <time>2018-12-08T09:21:26.000Z</time>
      </trkpt>
      <trkpt lat="43.76214" lon="7.14424">
        <ele>660.40002441406</ele>
        <time>2018-12-08T09:21:32.000Z</time>
      </trkpt>
      <trkpt lat="43.76224" lon="7.1443">
        <ele>661</ele>
        <time>2018-12-08T09:21:37.000Z</time>
      </trkpt>
      <trkpt lat="43.76226" lon="7.14431">
        <ele>661.20001220703</ele>
        <time>2018-12-08T09:21:38.000Z</time>
      </trkpt>
      <trkpt lat="43.76242" lon="7.14437">
        <ele>662</ele>
        <time>2018-12-08T09:21:46.000Z</time>
      </trkpt>
      <trkpt lat="43.76246" lon="7.14438">
        <ele>662.20001220703</ele>
        <time>2018-12-08T09:21:48.000Z</time>
      </trkpt>
      <trkpt lat="43.76262" lon="7.1444">
        <ele>662.79998779297</ele>
        <time>2018-12-08T09:21:55.000Z</time>
      </trkpt>
      <trkpt lat="43.76268" lon="7.14442">
        <ele>663.20001220703</ele>
        <time>2018-12-08T09:21:58.000Z</time>
      </trkpt>
      <trkpt lat="43.76277" lon="7.14443">
        <ele>664</ele>
        <time>2018-12-08T09:22:02.000Z</time>
      </trkpt>
      <trkpt lat="43.76283" lon="7.14445">
        <ele>664.20001220703</ele>
        <time>2018-12-08T09:22:05.000Z</time>
      </trkpt>
      <trkpt lat="43.76293" lon="7.14449">
        <ele>664.79998779297</ele>
        <time>2018-12-08T09:22:10.000Z</time>
      </trkpt>
      <trkpt lat="43.76304" lon="7.14454">
        <ele>665.40002441406</ele>
        <time>2018-12-08T09:22:16.000Z</time>
      </trkpt>
      <trkpt lat="43.76307" lon="7.14456">
        <ele>665.59997558594</ele>
        <time>2018-12-08T09:22:17.000Z</time>
      </trkpt>
      <trkpt lat="43.76315" lon="7.14458">
        <ele>666.40002441406</ele>
        <time>2018-12-08T09:22:22.000Z</time>
      </trkpt>
      <trkpt lat="43.76331" lon="7.14458">
        <ele>667.40002441406</ele>
        <time>2018-12-08T09:22:29.000Z</time>
      </trkpt>
      <trkpt lat="43.76337" lon="7.14457">
        <ele>667.59997558594</ele>
        <time>2018-12-08T09:22:32.000Z</time>
      </trkpt>
      <trkpt lat="43.7635" lon="7.14454">
        <ele>667.79998779297</ele>
        <time>2018-12-08T09:22:38.000Z</time>
      </trkpt>
      <trkpt lat="43.76369" lon="7.14448">
        <ele>668.40002441406</ele>
        <time>2018-12-08T09:22:46.000Z</time>
      </trkpt>
      <trkpt lat="43.76371" lon="7.14449">
        <ele>668.59997558594</ele>
        <time>2018-12-08T09:22:47.000Z</time>
      </trkpt>
      <trkpt lat="43.76382" lon="7.14453">
        <ele>669.20001220703</ele>
        <time>2018-12-08T09:22:52.000Z</time>
      </trkpt>
      <trkpt lat="43.76388" lon="7.14454">
        <ele>669.79998779297</ele>
        <time>2018-12-08T09:22:55.000Z</time>
      </trkpt>
      <trkpt lat="43.76398" lon="7.14454">
        <ele>670.79998779297</ele>
        <time>2018-12-08T09:23:00.000Z</time>
      </trkpt>
      <trkpt lat="43.76409" lon="7.14454">
        <ele>671.79998779297</ele>
        <time>2018-12-08T09:23:05.000Z</time>
      </trkpt>
      <trkpt lat="43.76417" lon="7.14453">
        <ele>672.40002441406</ele>
        <time>2018-12-08T09:23:09.000Z</time>
      </trkpt>
      <trkpt lat="43.76423" lon="7.14454">
        <ele>673</ele>
        <time>2018-12-08T09:23:12.000Z</time>
      </trkpt>
      <trkpt lat="43.76427" lon="7.14455">
        <ele>673.20001220703</ele>
        <time>2018-12-08T09:23:15.000Z</time>
      </trkpt>
      <trkpt lat="43.76431" lon="7.14459">
        <ele>673.79998779297</ele>
        <time>2018-12-08T09:23:18.000Z</time>
      </trkpt>
      <trkpt lat="43.76433" lon="7.14459">
        <ele>674</ele>
        <time>2018-12-08T09:23:19.000Z</time>
      </trkpt>
      <trkpt lat="43.76435" lon="7.14459">
        <ele>674.59997558594</ele>
        <time>2018-12-08T09:23:21.000Z</time>
      </trkpt>
      <trkpt lat="43.76441" lon="7.14461">
        <ele>675.20001220703</ele>
        <time>2018-12-08T09:23:25.000Z</time>
      </trkpt>
      <trkpt lat="43.76445" lon="7.14463">
        <ele>675.59997558594</ele>
        <time>2018-12-08T09:23:28.000Z</time>
      </trkpt>
      <trkpt lat="43.76453" lon="7.14464">
        <ele>676.40002441406</ele>
        <time>2018-12-08T09:23:33.000Z</time>
      </trkpt>
      <trkpt lat="43.76456" lon="7.14465">
        <ele>676.59997558594</ele>
        <time>2018-12-08T09:23:35.000Z</time>
      </trkpt>
      <trkpt lat="43.76464" lon="7.14466">
        <ele>677.59997558594</ele>
        <time>2018-12-08T09:23:40.000Z</time>
      </trkpt>
      <trkpt lat="43.76468" lon="7.14465">
        <ele>678.20001220703</ele>
        <time>2018-12-08T09:23:43.000Z</time>
      </trkpt>
      <trkpt lat="43.76472" lon="7.14463">
        <ele>678.59997558594</ele>
        <time>2018-12-08T09:23:46.000Z</time>
      </trkpt>
      <trkpt lat="43.76478" lon="7.14462">
        <ele>679.40002441406</ele>
        <time>2018-12-08T09:23:50.000Z</time>
      </trkpt>
      <trkpt lat="43.76484" lon="7.14461">
        <ele>679.79998779297</ele>
        <time>2018-12-08T09:23:54.000Z</time>
      </trkpt>
      <trkpt lat="43.76487" lon="7.1446">
        <ele>680.40002441406</ele>
        <time>2018-12-08T09:23:57.000Z</time>
      </trkpt>
      <trkpt lat="43.7649" lon="7.1446">
        <ele>681</ele>
        <time>2018-12-08T09:23:59.000Z</time>
      </trkpt>
      <trkpt lat="43.76494" lon="7.14459">
        <ele>681.79998779297</ele>
        <time>2018-12-08T09:24:02.000Z</time>
      </trkpt>
      <trkpt lat="43.76497" lon="7.14458">
        <ele>682.20001220703</ele>
        <time>2018-12-08T09:24:04.000Z</time>
      </trkpt>
      <trkpt lat="43.76501" lon="7.14456">
        <ele>683</ele>
        <time>2018-12-08T09:24:08.000Z</time>
      </trkpt>
      <trkpt lat="43.76504" lon="7.14455">
        <ele>683.20001220703</ele>
        <time>2018-12-08T09:24:10.000Z</time>
      </trkpt>
      <trkpt lat="43.76507" lon="7.14453">
        <ele>683.59997558594</ele>
        <time>2018-12-08T09:24:13.000Z</time>
      </trkpt>
      <trkpt lat="43.7651" lon="7.14451">
        <ele>684.40002441406</ele>
        <time>2018-12-08T09:24:16.000Z</time>
      </trkpt>
      <trkpt lat="43.76512" lon="7.1445">
        <ele>685</ele>
        <time>2018-12-08T09:24:18.000Z</time>
      </trkpt>
      <trkpt lat="43.76513" lon="7.1445">
        <ele>685.20001220703</ele>
        <time>2018-12-08T09:24:19.000Z</time>
      </trkpt>
      <trkpt lat="43.76515" lon="7.1445">
        <ele>685.40002441406</ele>
        <time>2018-12-08T09:24:20.000Z</time>
      </trkpt>
      <trkpt lat="43.7652" lon="7.14447">
        <ele>686.40002441406</ele>
        <time>2018-12-08T09:24:26.000Z</time>
      </trkpt>
      <trkpt lat="43.76522" lon="7.14445">
        <ele>686.40002441406</ele>
        <time>2018-12-08T09:24:28.000Z</time>
      </trkpt>
      <trkpt lat="43.76529" lon="7.14442">
        <ele>687.20001220703</ele>
        <time>2018-12-08T09:24:34.000Z</time>
      </trkpt>
      <trkpt lat="43.76532" lon="7.14441">
        <ele>687.59997558594</ele>
        <time>2018-12-08T09:24:36.000Z</time>
      </trkpt>
      <trkpt lat="43.76538" lon="7.14439">
        <ele>688.40002441406</ele>
        <time>2018-12-08T09:24:41.000Z</time>
      </trkpt>
      <trkpt lat="43.76546" lon="7.14439">
        <ele>688.59997558594</ele>
        <time>2018-12-08T09:24:47.000Z</time>
      </trkpt>
      <trkpt lat="43.7655" lon="7.14439">
        <ele>688.79998779297</ele>
        <time>2018-12-08T09:24:49.000Z</time>
      </trkpt>
      <trkpt lat="43.76559" lon="7.1444">
        <ele>689.59997558594</ele>
        <time>2018-12-08T09:24:55.000Z</time>
      </trkpt>
      <trkpt lat="43.76563" lon="7.1444">
        <ele>689.79998779297</ele>
        <time>2018-12-08T09:24:57.000Z</time>
      </trkpt>
      <trkpt lat="43.76575" lon="7.1444">
        <ele>690.20001220703</ele>
        <time>2018-12-08T09:25:04.000Z</time>
      </trkpt>
      <trkpt lat="43.76588" lon="7.14438">
        <ele>690.79998779297</ele>
        <time>2018-12-08T09:25:11.000Z</time>
      </trkpt>
      <trkpt lat="43.76592" lon="7.14437">
        <ele>691.20001220703</ele>
        <time>2018-12-08T09:25:13.000Z</time>
      </trkpt>
      <trkpt lat="43.76598" lon="7.14434">
        <ele>692</ele>
        <time>2018-12-08T09:25:17.000Z</time>
      </trkpt>
      <trkpt lat="43.76604" lon="7.14434">
        <ele>692.59997558594</ele>
        <time>2018-12-08T09:25:21.000Z</time>
      </trkpt>
      <trkpt lat="43.76609" lon="7.14434">
        <ele>693</ele>
        <time>2018-12-08T09:25:24.000Z</time>
      </trkpt>
      <trkpt lat="43.76614" lon="7.14434">
        <ele>693.20001220703</ele>
        <time>2018-12-08T09:25:27.000Z</time>
      </trkpt>
      <trkpt lat="43.7662" lon="7.14435">
        <ele>694.20001220703</ele>
        <time>2018-12-08T09:25:31.000Z</time>
      </trkpt>
      <trkpt lat="43.76624" lon="7.14435">
        <ele>694.40002441406</ele>
        <time>2018-12-08T09:25:33.000Z</time>
      </trkpt>
      <trkpt lat="43.76628" lon="7.14435">
        <ele>695.20001220703</ele>
        <time>2018-12-08T09:25:36.000Z</time>
      </trkpt>
      <trkpt lat="43.76632" lon="7.14435">
        <ele>696</ele>
        <time>2018-12-08T09:25:39.000Z</time>
      </trkpt>
      <trkpt lat="43.76637" lon="7.14435">
        <ele>696.40002441406</ele>
        <time>2018-12-08T09:25:42.000Z</time>
      </trkpt>
      <trkpt lat="43.76646" lon="7.14436">
        <ele>697.20001220703</ele>
        <time>2018-12-08T09:25:48.000Z</time>
      </trkpt>
      <trkpt lat="43.76647" lon="7.14436">
        <ele>697.40002441406</ele>
        <time>2018-12-08T09:25:49.000Z</time>
      </trkpt>
      <trkpt lat="43.76648" lon="7.14436">
        <ele>697.59997558594</ele>
        <time>2018-12-08T09:25:50.000Z</time>
      </trkpt>
      <trkpt lat="43.76652" lon="7.14437">
        <ele>698.59997558594</ele>
        <time>2018-12-08T09:25:53.000Z</time>
      </trkpt>
      <trkpt lat="43.76653" lon="7.14437">
        <ele>698.79998779297</ele>
        <time>2018-12-08T09:25:54.000Z</time>
      </trkpt>
      <trkpt lat="43.76659" lon="7.14438">
        <ele>699.59997558594</ele>
        <time>2018-12-08T09:25:59.000Z</time>
      </trkpt>
      <trkpt lat="43.76663" lon="7.14439">
        <ele>700.20001220703</ele>
        <time>2018-12-08T09:26:02.000Z</time>
      </trkpt>
      <trkpt lat="43.76668" lon="7.1444">
        <ele>700.59997558594</ele>
        <time>2018-12-08T09:26:06.000Z</time>
      </trkpt>
      <trkpt lat="43.76669" lon="7.1444">
        <ele>700.59997558594</ele>
        <time>2018-12-08T09:26:07.000Z</time>
      </trkpt>
      <trkpt lat="43.7667" lon="7.1444">
        <ele>700.79998779297</ele>
        <time>2018-12-08T09:26:08.000Z</time>
      </trkpt>
      <trkpt lat="43.76674" lon="7.14441">
        <ele>701.79998779297</ele>
        <time>2018-12-08T09:26:12.000Z</time>
      </trkpt>
      <trkpt lat="43.76678" lon="7.14443">
        <ele>702.59997558594</ele>
        <time>2018-12-08T09:26:16.000Z</time>
      </trkpt>
      <trkpt lat="43.76679" lon="7.14443">
        <ele>702.79998779297</ele>
        <time>2018-12-08T09:26:17.000Z</time>
      </trkpt>
      <trkpt lat="43.76686" lon="7.14446">
        <ele>703.79998779297</ele>
        <time>2018-12-08T09:26:23.000Z</time>
      </trkpt>
      <trkpt lat="43.76687" lon="7.14446">
        <ele>704</ele>
        <time>2018-12-08T09:26:24.000Z</time>
      </trkpt>
      <trkpt lat="43.7669" lon="7.14447">
        <ele>704.79998779297</ele>
        <time>2018-12-08T09:26:28.000Z</time>
      </trkpt>
      <trkpt lat="43.7669" lon="7.14446">
        <ele>705</ele>
        <time>2018-12-08T09:26:30.000Z</time>
      </trkpt>
      <trkpt lat="43.76691" lon="7.14446">
        <ele>704.79998779297</ele>
        <time>2018-12-08T09:26:35.000Z</time>
      </trkpt>
      <trkpt lat="43.76693" lon="7.14446">
        <ele>705</ele>
        <time>2018-12-08T09:26:44.000Z</time>
      </trkpt>
      <trkpt lat="43.76699" lon="7.14449">
        <ele>705.59997558594</ele>
        <time>2018-12-08T09:26:50.000Z</time>
      </trkpt>
      <trkpt lat="43.76701" lon="7.1445">
        <ele>706</ele>
        <time>2018-12-08T09:26:52.000Z</time>
      </trkpt>
      <trkpt lat="43.76704" lon="7.1445">
        <ele>706.59997558594</ele>
        <time>2018-12-08T09:26:54.000Z</time>
      </trkpt>
      <trkpt lat="43.76706" lon="7.1445">
        <ele>706.59997558594</ele>
        <time>2018-12-08T09:26:55.000Z</time>
      </trkpt>
      <trkpt lat="43.7671" lon="7.14451">
        <ele>707.20001220703</ele>
        <time>2018-12-08T09:26:58.000Z</time>
      </trkpt>
      <trkpt lat="43.76712" lon="7.14453">
        <ele>707.79998779297</ele>
        <time>2018-12-08T09:27:00.000Z</time>
      </trkpt>
      <trkpt lat="43.76714" lon="7.14454">
        <ele>708.40002441406</ele>
        <time>2018-12-08T09:27:02.000Z</time>
      </trkpt>
      <trkpt lat="43.76717" lon="7.14455">
        <ele>708.40002441406</ele>
        <time>2018-12-08T09:27:04.000Z</time>
      </trkpt>
      <trkpt lat="43.7672" lon="7.14456">
        <ele>709.20001220703</ele>
        <time>2018-12-08T09:27:07.000Z</time>
      </trkpt>
      <trkpt lat="43.76721" lon="7.14457">
        <ele>709.59997558594</ele>
        <time>2018-12-08T09:27:08.000Z</time>
      </trkpt>
      <trkpt lat="43.76728" lon="7.14461">
        <ele>710.20001220703</ele>
        <time>2018-12-08T09:27:14.000Z</time>
      </trkpt>
      <trkpt lat="43.76733" lon="7.14464">
        <ele>710.59997558594</ele>
        <time>2018-12-08T09:27:18.000Z</time>
      </trkpt>
      <trkpt lat="43.76734" lon="7.14464">
        <ele>710.79998779297</ele>
        <time>2018-12-08T09:27:19.000Z</time>
      </trkpt>
      <trkpt lat="43.76742" lon="7.14469">
        <ele>711.59997558594</ele>
        <time>2018-12-08T09:27:26.000Z</time>
      </trkpt>
      <trkpt lat="43.76743" lon="7.1447">
        <ele>711.59997558594</ele>
        <time>2018-12-08T09:27:27.000Z</time>
      </trkpt>
      <trkpt lat="43.76749" lon="7.1447">
        <ele>712.59997558594</ele>
        <time>2018-12-08T09:27:32.000Z</time>
      </trkpt>
      <trkpt lat="43.7675" lon="7.14469">
        <ele>712.59997558594</ele>
        <time>2018-12-08T09:27:33.000Z</time>
      </trkpt>
      <trkpt lat="43.76755" lon="7.14463">
        <ele>712.40002441406</ele>
        <time>2018-12-08T09:27:37.000Z</time>
      </trkpt>
      <trkpt lat="43.76757" lon="7.14462">
        <ele>712.59997558594</ele>
        <time>2018-12-08T09:27:39.000Z</time>
      </trkpt>
      <trkpt lat="43.76761" lon="7.14464">
        <ele>713.79998779297</ele>
        <time>2018-12-08T09:27:43.000Z</time>
      </trkpt>
      <trkpt lat="43.76764" lon="7.14464">
        <ele>715</ele>
        <time>2018-12-08T09:27:46.000Z</time>
      </trkpt>
      <trkpt lat="43.76768" lon="7.14465">
        <ele>715.79998779297</ele>
        <time>2018-12-08T09:27:50.000Z</time>
      </trkpt>
      <trkpt lat="43.76769" lon="7.14466">
        <ele>715.79998779297</ele>
        <time>2018-12-08T09:27:51.000Z</time>
      </trkpt>
      <trkpt lat="43.76772" lon="7.14468">
        <ele>716.20001220703</ele>
        <time>2018-12-08T09:27:54.000Z</time>
      </trkpt>
      <trkpt lat="43.76776" lon="7.14471">
        <ele>716.20001220703</ele>
        <time>2018-12-08T09:27:57.000Z</time>
      </trkpt>
      <trkpt lat="43.76782" lon="7.14474">
        <ele>716.59997558594</ele>
        <time>2018-12-08T09:28:02.000Z</time>
      </trkpt>
      <trkpt lat="43.76786" lon="7.14475">
        <ele>717.20001220703</ele>
        <time>2018-12-08T09:28:05.000Z</time>
      </trkpt>
      <trkpt lat="43.7679" lon="7.14477">
        <ele>717.79998779297</ele>
        <time>2018-12-08T09:28:09.000Z</time>
      </trkpt>
      <trkpt lat="43.76791" lon="7.14478">
        <ele>718.20001220703</ele>
        <time>2018-12-08T09:28:10.000Z</time>
      </trkpt>
      <trkpt lat="43.76797" lon="7.14479">
        <ele>719.20001220703</ele>
        <time>2018-12-08T09:28:15.000Z</time>
      </trkpt>
      <trkpt lat="43.768" lon="7.14479">
        <ele>719.59997558594</ele>
        <time>2018-12-08T09:28:18.000Z</time>
      </trkpt>
      <trkpt lat="43.76803" lon="7.14479">
        <ele>720</ele>
        <time>2018-12-08T09:28:21.000Z</time>
      </trkpt>
      <trkpt lat="43.76806" lon="7.14479">
        <ele>720</ele>
        <time>2018-12-08T09:28:23.000Z</time>
      </trkpt>
      <trkpt lat="43.76807" lon="7.14479">
        <ele>720.20001220703</ele>
        <time>2018-12-08T09:28:24.000Z</time>
      </trkpt>
      <trkpt lat="43.76809" lon="7.1448">
        <ele>720.40002441406</ele>
        <time>2018-12-08T09:28:26.000Z</time>
      </trkpt>
      <trkpt lat="43.76814" lon="7.1448">
        <ele>721.40002441406</ele>
        <time>2018-12-08T09:28:30.000Z</time>
      </trkpt>
      <trkpt lat="43.76817" lon="7.14479">
        <ele>721.79998779297</ele>
        <time>2018-12-08T09:28:33.000Z</time>
      </trkpt>
      <trkpt lat="43.76821" lon="7.1448">
        <ele>722.79998779297</ele>
        <time>2018-12-08T09:28:37.000Z</time>
      </trkpt>
      <trkpt lat="43.76825" lon="7.14482">
        <ele>723.40002441406</ele>
        <time>2018-12-08T09:28:40.000Z</time>
      </trkpt>
      <trkpt lat="43.76828" lon="7.14483">
        <ele>723.79998779297</ele>
        <time>2018-12-08T09:28:43.000Z</time>
      </trkpt>
      <trkpt lat="43.76831" lon="7.14483">
        <ele>724.40002441406</ele>
        <time>2018-12-08T09:28:46.000Z</time>
      </trkpt>
      <trkpt lat="43.76834" lon="7.14484">
        <ele>725</ele>
        <time>2018-12-08T09:28:49.000Z</time>
      </trkpt>
      <trkpt lat="43.7684" lon="7.14484">
        <ele>725.20001220703</ele>
        <time>2018-12-08T09:28:53.000Z</time>
      </trkpt>
      <trkpt lat="43.76847" lon="7.14485">
        <ele>726</ele>
        <time>2018-12-08T09:28:59.000Z</time>
      </trkpt>
      <trkpt lat="43.76848" lon="7.14485">
        <ele>726.20001220703</ele>
        <time>2018-12-08T09:29:00.000Z</time>
      </trkpt>
      <trkpt lat="43.76856" lon="7.14488">
        <ele>727.20001220703</ele>
        <time>2018-12-08T09:29:07.000Z</time>
      </trkpt>
      <trkpt lat="43.76858" lon="7.14488">
        <ele>727.40002441406</ele>
        <time>2018-12-08T09:29:08.000Z</time>
      </trkpt>
      <trkpt lat="43.76867" lon="7.1449">
        <ele>728.20001220703</ele>
        <time>2018-12-08T09:29:15.000Z</time>
      </trkpt>
      <trkpt lat="43.76874" lon="7.1449">
        <ele>728.79998779297</ele>
        <time>2018-12-08T09:29:20.000Z</time>
      </trkpt>
      <trkpt lat="43.76881" lon="7.14491">
        <ele>729.40002441406</ele>
        <time>2018-12-08T09:29:25.000Z</time>
      </trkpt>
      <trkpt lat="43.76888" lon="7.1449">
        <ele>730</ele>
        <time>2018-12-08T09:29:30.000Z</time>
      </trkpt>
      <trkpt lat="43.76894" lon="7.1449">
        <ele>730.40002441406</ele>
        <time>2018-12-08T09:29:34.000Z</time>
      </trkpt>
      <trkpt lat="43.769" lon="7.1449">
        <ele>730.59997558594</ele>
        <time>2018-12-08T09:29:37.000Z</time>
      </trkpt>
      <trkpt lat="43.76909" lon="7.14488">
        <ele>730.59997558594</ele>
        <time>2018-12-08T09:29:42.000Z</time>
      </trkpt>
      <trkpt lat="43.76919" lon="7.14485">
        <ele>731.40002441406</ele>
        <time>2018-12-08T09:29:47.000Z</time>
      </trkpt>
      <trkpt lat="43.7692" lon="7.14484">
        <ele>731.59997558594</ele>
        <time>2018-12-08T09:29:48.000Z</time>
      </trkpt>
      <trkpt lat="43.76929" lon="7.14484">
        <ele>732.40002441406</ele>
        <time>2018-12-08T09:29:54.000Z</time>
      </trkpt>
      <trkpt lat="43.7693" lon="7.14483">
        <ele>732.79998779297</ele>
        <time>2018-12-08T09:29:55.000Z</time>
      </trkpt>
      <trkpt lat="43.76933" lon="7.14483">
        <ele>733</ele>
        <time>2018-12-08T09:29:57.000Z</time>
      </trkpt>
      <trkpt lat="43.76937" lon="7.14482">
        <ele>733.40002441406</ele>
        <time>2018-12-08T09:30:00.000Z</time>
      </trkpt>
      <trkpt lat="43.7694" lon="7.1448">
        <ele>733.79998779297</ele>
        <time>2018-12-08T09:30:03.000Z</time>
      </trkpt>
      <trkpt lat="43.76941" lon="7.1448">
        <ele>734</ele>
        <time>2018-12-08T09:30:04.000Z</time>
      </trkpt>
      <trkpt lat="43.76943" lon="7.14479">
        <ele>734.40002441406</ele>
        <time>2018-12-08T09:30:06.000Z</time>
      </trkpt>
      <trkpt lat="43.76946" lon="7.14478">
        <ele>734.79998779297</ele>
        <time>2018-12-08T09:30:08.000Z</time>
      </trkpt>
      <trkpt lat="43.76953" lon="7.14477">
        <ele>735.59997558594</ele>
        <time>2018-12-08T09:30:14.000Z</time>
      </trkpt>
      <trkpt lat="43.76957" lon="7.14477">
        <ele>736</ele>
        <time>2018-12-08T09:30:17.000Z</time>
      </trkpt>
      <trkpt lat="43.76965" lon="7.14476">
        <ele>736.20001220703</ele>
        <time>2018-12-08T09:30:22.000Z</time>
      </trkpt>
      <trkpt lat="43.76978" lon="7.14476">
        <ele>736.40002441406</ele>
        <time>2018-12-08T09:30:30.000Z</time>
      </trkpt>
      <trkpt lat="43.76988" lon="7.14472">
        <ele>737</ele>
        <time>2018-12-08T09:30:36.000Z</time>
      </trkpt>
      <trkpt lat="43.76992" lon="7.1447">
        <ele>737.20001220703</ele>
        <time>2018-12-08T09:30:38.000Z</time>
      </trkpt>
      <trkpt lat="43.77001" lon="7.14462">
        <ele>737.79998779297</ele>
        <time>2018-12-08T09:30:44.000Z</time>
      </trkpt>
      <trkpt lat="43.77005" lon="7.14462">
        <ele>738.20001220703</ele>
        <time>2018-12-08T09:30:46.000Z</time>
      </trkpt>
      <trkpt lat="43.77008" lon="7.14461">
        <ele>739</ele>
        <time>2018-12-08T09:30:48.000Z</time>
      </trkpt>
      <trkpt lat="43.77011" lon="7.1446">
        <ele>739.40002441406</ele>
        <time>2018-12-08T09:30:50.000Z</time>
      </trkpt>
      <trkpt lat="43.77013" lon="7.14458">
        <ele>739.59997558594</ele>
        <time>2018-12-08T09:30:52.000Z</time>
      </trkpt>
      <trkpt lat="43.77017" lon="7.14453">
        <ele>740</ele>
        <time>2018-12-08T09:30:55.000Z</time>
      </trkpt>
      <trkpt lat="43.77027" lon="7.14446">
        <ele>740.40002441406</ele>
        <time>2018-12-08T09:31:02.000Z</time>
      </trkpt>
      <trkpt lat="43.77031" lon="7.14442">
        <ele>740.40002441406</ele>
        <time>2018-12-08T09:31:05.000Z</time>
      </trkpt>
      <trkpt lat="43.77038" lon="7.14436">
        <ele>740.79998779297</ele>
        <time>2018-12-08T09:31:09.000Z</time>
      </trkpt>
      <trkpt lat="43.7705" lon="7.14429">
        <ele>741.20001220703</ele>
        <time>2018-12-08T09:31:16.000Z</time>
      </trkpt>
      <trkpt lat="43.77058" lon="7.1442">
        <ele>741.59997558594</ele>
        <time>2018-12-08T09:31:21.000Z</time>
      </trkpt>
      <trkpt lat="43.77059" lon="7.14418">
        <ele>741.79998779297</ele>
        <time>2018-12-08T09:31:22.000Z</time>
      </trkpt>
      <trkpt lat="43.77066" lon="7.14411">
        <ele>742.79998779297</ele>
        <time>2018-12-08T09:31:26.000Z</time>
      </trkpt>
      <trkpt lat="43.77077" lon="7.14405">
        <ele>743.20001220703</ele>
        <time>2018-12-08T09:31:31.000Z</time>
      </trkpt>
      <trkpt lat="43.77093" lon="7.14395">
        <ele>743.79998779297</ele>
        <time>2018-12-08T09:31:39.000Z</time>
      </trkpt>
      <trkpt lat="43.77095" lon="7.14394">
        <ele>743.79998779297</ele>
        <time>2018-12-08T09:31:40.000Z</time>
      </trkpt>
      <trkpt lat="43.77106" lon="7.14382">
        <ele>744</ele>
        <time>2018-12-08T09:31:46.000Z</time>
      </trkpt>
      <trkpt lat="43.77123" lon="7.14359">
        <ele>744.40002441406</ele>
        <time>2018-12-08T09:31:56.000Z</time>
      </trkpt>
      <trkpt lat="43.77129" lon="7.14352">
        <ele>745</ele>
        <time>2018-12-08T09:31:59.000Z</time>
      </trkpt>
      <trkpt lat="43.77138" lon="7.14342">
        <ele>745.79998779297</ele>
        <time>2018-12-08T09:32:04.000Z</time>
      </trkpt>
      <trkpt lat="43.77142" lon="7.14338">
        <ele>746.20001220703</ele>
        <time>2018-12-08T09:32:06.000Z</time>
      </trkpt>
      <trkpt lat="43.7715" lon="7.14329">
        <ele>746.79998779297</ele>
        <time>2018-12-08T09:32:10.000Z</time>
      </trkpt>
      <trkpt lat="43.77154" lon="7.14324">
        <ele>747.20001220703</ele>
        <time>2018-12-08T09:32:12.000Z</time>
      </trkpt>
      <trkpt lat="43.77163" lon="7.14312">
        <ele>748</ele>
        <time>2018-12-08T09:32:17.000Z</time>
      </trkpt>
      <trkpt lat="43.77167" lon="7.14306">
        <ele>748.20001220703</ele>
        <time>2018-12-08T09:32:19.000Z</time>
      </trkpt>
      <trkpt lat="43.77177" lon="7.14288">
        <ele>748</ele>
        <time>2018-12-08T09:32:26.000Z</time>
      </trkpt>
      <trkpt lat="43.77192" lon="7.14273">
        <ele>748.40002441406</ele>
        <time>2018-12-08T09:32:34.000Z</time>
      </trkpt>
      <trkpt lat="43.77202" lon="7.14266">
        <ele>749.40002441406</ele>
        <time>2018-12-08T09:32:39.000Z</time>
      </trkpt>
      <trkpt lat="43.77208" lon="7.14262">
        <ele>750</ele>
        <time>2018-12-08T09:32:42.000Z</time>
      </trkpt>
      <trkpt lat="43.77213" lon="7.14255">
        <ele>750.40002441406</ele>
        <time>2018-12-08T09:32:45.000Z</time>
      </trkpt>
      <trkpt lat="43.77222" lon="7.14247">
        <ele>750.79998779297</ele>
        <time>2018-12-08T09:32:49.000Z</time>
      </trkpt>
      <trkpt lat="43.77231" lon="7.14235">
        <ele>751.20001220703</ele>
        <time>2018-12-08T09:32:54.000Z</time>
      </trkpt>
      <trkpt lat="43.77237" lon="7.14228">
        <ele>751.40002441406</ele>
        <time>2018-12-08T09:32:57.000Z</time>
      </trkpt>
      <trkpt lat="43.77242" lon="7.14219">
        <ele>752.59997558594</ele>
        <time>2018-12-08T09:33:01.000Z</time>
      </trkpt>
      <trkpt lat="43.77247" lon="7.14197">
        <ele>753.59997558594</ele>
        <time>2018-12-08T09:33:08.000Z</time>
      </trkpt>
      <trkpt lat="43.77244" lon="7.14179">
        <ele>754</ele>
        <time>2018-12-08T09:33:13.000Z</time>
      </trkpt>
      <trkpt lat="43.77245" lon="7.14176">
        <ele>754.20001220703</ele>
        <time>2018-12-08T09:33:14.000Z</time>
      </trkpt>
      <trkpt lat="43.7725" lon="7.14169">
        <ele>754.79998779297</ele>
        <time>2018-12-08T09:33:17.000Z</time>
      </trkpt>
      <trkpt lat="43.77254" lon="7.14165">
        <ele>755.20001220703</ele>
        <time>2018-12-08T09:33:19.000Z</time>
      </trkpt>
      <trkpt lat="43.77255" lon="7.14163">
        <ele>755.40002441406</ele>
        <time>2018-12-08T09:33:20.000Z</time>
      </trkpt>
      <trkpt lat="43.7726" lon="7.14156">
        <ele>755.79998779297</ele>
        <time>2018-12-08T09:33:23.000Z</time>
      </trkpt>
      <trkpt lat="43.77269" lon="7.14143">
        <ele>756.79998779297</ele>
        <time>2018-12-08T09:33:29.000Z</time>
      </trkpt>
      <trkpt lat="43.7727" lon="7.14141">
        <ele>757</ele>
        <time>2018-12-08T09:33:30.000Z</time>
      </trkpt>
      <trkpt lat="43.77276" lon="7.14128">
        <ele>758</ele>
        <time>2018-12-08T09:33:36.000Z</time>
      </trkpt>
      <trkpt lat="43.77282" lon="7.14117">
        <ele>759.20001220703</ele>
        <time>2018-12-08T09:33:41.000Z</time>
      </trkpt>
      <trkpt lat="43.77285" lon="7.1411">
        <ele>759.59997558594</ele>
        <time>2018-12-08T09:33:44.000Z</time>
      </trkpt>
      <trkpt lat="43.77289" lon="7.14102">
        <ele>760.20001220703</ele>
        <time>2018-12-08T09:33:48.000Z</time>
      </trkpt>
      <trkpt lat="43.77293" lon="7.14092">
        <ele>760.79998779297</ele>
        <time>2018-12-08T09:33:53.000Z</time>
      </trkpt>
      <trkpt lat="43.77295" lon="7.14088">
        <ele>761.40002441406</ele>
        <time>2018-12-08T09:33:55.000Z</time>
      </trkpt>
      <trkpt lat="43.77301" lon="7.1408">
        <ele>762.40002441406</ele>
        <time>2018-12-08T09:34:00.000Z</time>
      </trkpt>
      <trkpt lat="43.77302" lon="7.14079">
        <ele>762.59997558594</ele>
        <time>2018-12-08T09:34:01.000Z</time>
      </trkpt>
      <trkpt lat="43.77309" lon="7.14072">
        <ele>763.59997558594</ele>
        <time>2018-12-08T09:34:07.000Z</time>
      </trkpt>
      <trkpt lat="43.7731" lon="7.14071">
        <ele>763.59997558594</ele>
        <time>2018-12-08T09:34:08.000Z</time>
      </trkpt>
      <trkpt lat="43.77319" lon="7.14061">
        <ele>764.40002441406</ele>
        <time>2018-12-08T09:34:15.000Z</time>
      </trkpt>
      <trkpt lat="43.77322" lon="7.14059">
        <ele>764.79998779297</ele>
        <time>2018-12-08T09:34:17.000Z</time>
      </trkpt>
      <trkpt lat="43.7733" lon="7.14054">
        <ele>765.59997558594</ele>
        <time>2018-12-08T09:34:22.000Z</time>
      </trkpt>
      <trkpt lat="43.77333" lon="7.14053">
        <ele>765.79998779297</ele>
        <time>2018-12-08T09:34:24.000Z</time>
      </trkpt>
      <trkpt lat="43.77339" lon="7.14049">
        <ele>766.40002441406</ele>
        <time>2018-12-08T09:34:29.000Z</time>
      </trkpt>
      <trkpt lat="43.77344" lon="7.14047">
        <ele>767</ele>
        <time>2018-12-08T09:34:32.000Z</time>
      </trkpt>
      <trkpt lat="43.77348" lon="7.14046">
        <ele>767.59997558594</ele>
        <time>2018-12-08T09:34:35.000Z</time>
      </trkpt>
      <trkpt lat="43.7735" lon="7.14045">
        <ele>768.40002441406</ele>
        <time>2018-12-08T09:34:37.000Z</time>
      </trkpt>
      <trkpt lat="43.77351" lon="7.14045">
        <ele>768.59997558594</ele>
        <time>2018-12-08T09:34:38.000Z</time>
      </trkpt>
      <trkpt lat="43.77353" lon="7.14044">
        <ele>769</ele>
        <time>2018-12-08T09:34:40.000Z</time>
      </trkpt>
      <trkpt lat="43.77354" lon="7.14043">
        <ele>769.20001220703</ele>
        <time>2018-12-08T09:34:41.000Z</time>
      </trkpt>
      <trkpt lat="43.77356" lon="7.14043">
        <ele>769.40002441406</ele>
        <time>2018-12-08T09:34:43.000Z</time>
      </trkpt>
      <trkpt lat="43.77358" lon="7.14042">
        <ele>769.59997558594</ele>
        <time>2018-12-08T09:34:45.000Z</time>
      </trkpt>
      <trkpt lat="43.77362" lon="7.14042">
        <ele>770.59997558594</ele>
        <time>2018-12-08T09:34:49.000Z</time>
      </trkpt>
      <trkpt lat="43.77364" lon="7.14041">
        <ele>771</ele>
        <time>2018-12-08T09:34:51.000Z</time>
      </trkpt>
      <trkpt lat="43.77365" lon="7.14039">
        <ele>771.79998779297</ele>
        <time>2018-12-08T09:34:53.000Z</time>
      </trkpt>
      <trkpt lat="43.77368" lon="7.14035">
        <ele>772.40002441406</ele>
        <time>2018-12-08T09:34:56.000Z</time>
      </trkpt>
      <trkpt lat="43.77371" lon="7.14021">
        <ele>772.59997558594</ele>
        <time>2018-12-08T09:35:03.000Z</time>
      </trkpt>
      <trkpt lat="43.77377" lon="7.14013">
        <ele>772.79998779297</ele>
        <time>2018-12-08T09:35:08.000Z</time>
      </trkpt>
      <trkpt lat="43.77379" lon="7.14012">
        <ele>772.79998779297</ele>
        <time>2018-12-08T09:35:09.000Z</time>
      </trkpt>
      <trkpt lat="43.7739" lon="7.14013">
        <ele>774</ele>
        <time>2018-12-08T09:35:15.000Z</time>
      </trkpt>
      <trkpt lat="43.77392" lon="7.14013">
        <ele>774.20001220703</ele>
        <time>2018-12-08T09:35:16.000Z</time>
      </trkpt>
      <trkpt lat="43.77399" lon="7.14013">
        <ele>775.20001220703</ele>
        <time>2018-12-08T09:35:20.000Z</time>
      </trkpt>
      <trkpt lat="43.77402" lon="7.14013">
        <ele>775.40002441406</ele>
        <time>2018-12-08T09:35:22.000Z</time>
      </trkpt>
      <trkpt lat="43.77413" lon="7.14007">
        <ele>775.79998779297</ele>
        <time>2018-12-08T09:35:29.000Z</time>
      </trkpt>
      <trkpt lat="43.77416" lon="7.14005">
        <ele>776.20001220703</ele>
        <time>2018-12-08T09:35:31.000Z</time>
      </trkpt>
      <trkpt lat="43.77431" lon="7.13995">
        <ele>777.20001220703</ele>
        <time>2018-12-08T09:35:40.000Z</time>
      </trkpt>
      <trkpt lat="43.7744" lon="7.13985">
        <ele>777.59997558594</ele>
        <time>2018-12-08T09:35:46.000Z</time>
      </trkpt>
      <trkpt lat="43.77444" lon="7.13971">
        <ele>778.20001220703</ele>
        <time>2018-12-08T09:35:52.000Z</time>
      </trkpt>
      <trkpt lat="43.77451" lon="7.1396">
        <ele>778.79998779297</ele>
        <time>2018-12-08T09:35:58.000Z</time>
      </trkpt>
      <trkpt lat="43.77453" lon="7.13952">
        <ele>779.40002441406</ele>
        <time>2018-12-08T09:36:02.000Z</time>
      </trkpt>
      <trkpt lat="43.77454" lon="7.13948">
        <ele>779.79998779297</ele>
        <time>2018-12-08T09:36:04.000Z</time>
      </trkpt>
      <trkpt lat="43.7746" lon="7.13948">
        <ele>780.59997558594</ele>
        <time>2018-12-08T09:36:08.000Z</time>
      </trkpt>
      <trkpt lat="43.77463" lon="7.13949">
        <ele>781.79998779297</ele>
        <time>2018-12-08T09:36:11.000Z</time>
      </trkpt>
      <trkpt lat="43.77467" lon="7.13952">
        <ele>782</ele>
        <time>2018-12-08T09:36:14.000Z</time>
      </trkpt>
      <trkpt lat="43.77468" lon="7.13954">
        <ele>782.20001220703</ele>
        <time>2018-12-08T09:36:15.000Z</time>
      </trkpt>
      <trkpt lat="43.77467" lon="7.13961">
        <ele>782.40002441406</ele>
        <time>2018-12-08T09:36:18.000Z</time>
      </trkpt>
      <trkpt lat="43.77467" lon="7.13963">
        <ele>782.59997558594</ele>
        <time>2018-12-08T09:36:19.000Z</time>
      </trkpt>
      <trkpt lat="43.77466" lon="7.13964">
        <ele>782.79998779297</ele>
        <time>2018-12-08T09:36:20.000Z</time>
      </trkpt>
      <trkpt lat="43.77467" lon="7.1397">
        <ele>783.40002441406</ele>
        <time>2018-12-08T09:36:23.000Z</time>
      </trkpt>
      <trkpt lat="43.77469" lon="7.13973">
        <ele>783.59997558594</ele>
        <time>2018-12-08T09:36:25.000Z</time>
      </trkpt>
      <trkpt lat="43.77474" lon="7.13976">
        <ele>783.79998779297</ele>
        <time>2018-12-08T09:36:29.000Z</time>
      </trkpt>
      <trkpt lat="43.77475" lon="7.13976">
        <ele>784</ele>
        <time>2018-12-08T09:36:30.000Z</time>
      </trkpt>
      <trkpt lat="43.77476" lon="7.13976">
        <ele>784.20001220703</ele>
        <time>2018-12-08T09:36:31.000Z</time>
      </trkpt>
      <trkpt lat="43.77483" lon="7.13975">
        <ele>785</ele>
        <time>2018-12-08T09:36:37.000Z</time>
      </trkpt>
      <trkpt lat="43.77485" lon="7.13976">
        <ele>785.79998779297</ele>
        <time>2018-12-08T09:36:42.000Z</time>
      </trkpt>
      <trkpt lat="43.77486" lon="7.13976">
        <ele>785.59997558594</ele>
        <time>2018-12-08T09:36:48.000Z</time>
      </trkpt>
      <trkpt lat="43.77486" lon="7.13976">
        <ele>785.79998779297</ele>
        <time>2018-12-08T09:36:52.000Z</time>
      </trkpt>
      <trkpt lat="43.77486" lon="7.13976">
        <ele>785.79998779297</ele>
        <time>2018-12-08T09:36:57.000Z</time>
      </trkpt>
      <trkpt lat="43.77486" lon="7.13975">
        <ele>785.79998779297</ele>
        <time>2018-12-08T09:37:04.000Z</time>
      </trkpt>
      <trkpt lat="43.77486" lon="7.13975">
        <ele>785.79998779297</ele>
        <time>2018-12-08T09:37:12.000Z</time>
      </trkpt>
      <trkpt lat="43.77487" lon="7.13974">
        <ele>786</ele>
        <time>2018-12-08T09:37:17.000Z</time>
      </trkpt>
      <trkpt lat="43.77487" lon="7.13973">
        <ele>786</ele>
        <time>2018-12-08T09:37:22.000Z</time>
      </trkpt>
      <trkpt lat="43.77487" lon="7.13973">
        <ele>785.79998779297</ele>
        <time>2018-12-08T09:37:30.000Z</time>
      </trkpt>
      <trkpt lat="43.77487" lon="7.1397">
        <ele>785.59997558594</ele>
        <time>2018-12-08T09:37:36.000Z</time>
      </trkpt>
      <trkpt lat="43.77487" lon="7.1397">
        <ele>785.59997558594</ele>
        <time>2018-12-08T09:37:37.000Z</time>
      </trkpt>
      <trkpt lat="43.77487" lon="7.13969">
        <ele>785.79998779297</ele>
        <time>2018-12-08T09:37:44.000Z</time>
      </trkpt>
      <trkpt lat="43.77487" lon="7.13968">
        <ele>785.79998779297</ele>
        <time>2018-12-08T09:37:49.000Z</time>
      </trkpt>
      <trkpt lat="43.77487" lon="7.13968">
        <ele>785.59997558594</ele>
        <time>2018-12-08T09:38:01.000Z</time>
      </trkpt>
      <trkpt lat="43.77487" lon="7.13968">
        <ele>785.59997558594</ele>
        <time>2018-12-08T09:38:09.000Z</time>
      </trkpt>
      <trkpt lat="43.77488" lon="7.13968">
        <ele>785.40002441406</ele>
        <time>2018-12-08T09:38:21.000Z</time>
      </trkpt>
      <trkpt lat="43.77489" lon="7.13968">
        <ele>784.79998779297</ele>
        <time>2018-12-08T09:38:26.000Z</time>
      </trkpt>
      <trkpt lat="43.77489" lon="7.13968">
        <ele>784.59997558594</ele>
        <time>2018-12-08T09:38:32.000Z</time>
      </trkpt>
      <trkpt lat="43.77489" lon="7.13968">
        <ele>785.79998779297</ele>
        <time>2018-12-08T09:38:40.000Z</time>
      </trkpt>
      <trkpt lat="43.77489" lon="7.13968">
        <ele>786</ele>
        <time>2018-12-08T09:38:41.000Z</time>
      </trkpt>
      <trkpt lat="43.77489" lon="7.13968">
        <ele>786.40002441406</ele>
        <time>2018-12-08T09:38:56.000Z</time>
      </trkpt>
      <trkpt lat="43.77489" lon="7.13968">
        <ele>786</ele>
        <time>2018-12-08T09:39:12.000Z</time>
      </trkpt>
      <trkpt lat="43.77488" lon="7.13969">
        <ele>786.20001220703</ele>
        <time>2018-12-08T09:39:30.000Z</time>
      </trkpt>
      <trkpt lat="43.77489" lon="7.13969">
        <ele>786</ele>
        <time>2018-12-08T09:39:51.000Z</time>
      </trkpt>
      <trkpt lat="43.77489" lon="7.1397">
        <ele>785.20001220703</ele>
        <time>2018-12-08T09:40:04.000Z</time>
      </trkpt>
      <trkpt lat="43.77489" lon="7.13969">
        <ele>785</ele>
        <time>2018-12-08T09:40:11.000Z</time>
      </trkpt>
      <trkpt lat="43.77489" lon="7.13969">
        <ele>785.20001220703</ele>
        <time>2018-12-08T09:40:18.000Z</time>
      </trkpt>
      <trkpt lat="43.7749" lon="7.13969">
        <ele>785.59997558594</ele>
        <time>2018-12-08T09:40:30.000Z</time>
      </trkpt>
      <trkpt lat="43.7749" lon="7.13969">
        <ele>786</ele>
        <time>2018-12-08T09:40:40.000Z</time>
      </trkpt>
      <trkpt lat="43.7749" lon="7.13969">
        <ele>786</ele>
        <time>2018-12-08T09:40:41.000Z</time>
      </trkpt>
      <trkpt lat="43.7749" lon="7.1397">
        <ele>786.20001220703</ele>
        <time>2018-12-08T09:40:56.000Z</time>
      </trkpt>
      <trkpt lat="43.7749" lon="7.1397">
        <ele>786.40002441406</ele>
        <time>2018-12-08T09:41:09.000Z</time>
      </trkpt>
      <trkpt lat="43.7749" lon="7.1397">
        <ele>786.79998779297</ele>
        <time>2018-12-08T09:41:15.000Z</time>
      </trkpt>
      <trkpt lat="43.7749" lon="7.1397">
        <ele>786</ele>
        <time>2018-12-08T09:41:26.000Z</time>
      </trkpt>
      <trkpt lat="43.7749" lon="7.13971">
        <ele>785.79998779297</ele>
        <time>2018-12-08T09:41:27.000Z</time>
      </trkpt>
      <trkpt lat="43.77491" lon="7.13971">
        <ele>785.79998779297</ele>
        <time>2018-12-08T09:41:29.000Z</time>
      </trkpt>
      <trkpt lat="43.7749" lon="7.1397">
        <ele>785.59997558594</ele>
        <time>2018-12-08T09:41:38.000Z</time>
      </trkpt>
      <trkpt lat="43.7749" lon="7.13971">
        <ele>785.79998779297</ele>
        <time>2018-12-08T09:41:48.000Z</time>
      </trkpt>
      <trkpt lat="43.7749" lon="7.1397">
        <ele>785.79998779297</ele>
        <time>2018-12-08T09:41:49.000Z</time>
      </trkpt>
      <trkpt lat="43.7749" lon="7.13971">
        <ele>785</ele>
        <time>2018-12-08T09:41:54.000Z</time>
      </trkpt>
      <trkpt lat="43.7749" lon="7.13972">
        <ele>785.20001220703</ele>
        <time>2018-12-08T09:42:01.000Z</time>
      </trkpt>
      <trkpt lat="43.7749" lon="7.13972">
        <ele>785.79998779297</ele>
        <time>2018-12-08T09:42:16.000Z</time>
      </trkpt>
      <trkpt lat="43.7749" lon="7.13972">
        <ele>786</ele>
        <time>2018-12-08T09:42:18.000Z</time>
      </trkpt>
      <trkpt lat="43.77489" lon="7.13973">
        <ele>785</ele>
        <time>2018-12-08T09:42:26.000Z</time>
      </trkpt>
      <trkpt lat="43.77489" lon="7.13973">
        <ele>785</ele>
        <time>2018-12-08T09:42:29.000Z</time>
      </trkpt>
      <trkpt lat="43.7749" lon="7.13973">
        <ele>785.79998779297</ele>
        <time>2018-12-08T09:42:38.000Z</time>
      </trkpt>
      <trkpt lat="43.7749" lon="7.13972">
        <ele>786</ele>
        <time>2018-12-08T09:42:41.000Z</time>
      </trkpt>
      <trkpt lat="43.7749" lon="7.13971">
        <ele>785.40002441406</ele>
        <time>2018-12-08T09:42:47.000Z</time>
      </trkpt>
      <trkpt lat="43.7749" lon="7.13971">
        <ele>785.20001220703</ele>
        <time>2018-12-08T09:42:55.000Z</time>
      </trkpt>
      <trkpt lat="43.77489" lon="7.13973">
        <ele>785.40002441406</ele>
        <time>2018-12-08T09:43:02.000Z</time>
      </trkpt>
      <trkpt lat="43.77489" lon="7.13973">
        <ele>785.20001220703</ele>
        <time>2018-12-08T09:43:11.000Z</time>
      </trkpt>
      <trkpt lat="43.7749" lon="7.13973">
        <ele>785.20001220703</ele>
        <time>2018-12-08T09:43:12.000Z</time>
      </trkpt>
      <trkpt lat="43.77493" lon="7.13974">
        <ele>785.40002441406</ele>
        <time>2018-12-08T09:43:16.000Z</time>
      </trkpt>
      <trkpt lat="43.77496" lon="7.13977">
        <ele>785.79998779297</ele>
        <time>2018-12-08T09:43:19.000Z</time>
      </trkpt>
      <trkpt lat="43.77499" lon="7.1398">
        <ele>786.20001220703</ele>
        <time>2018-12-08T09:43:23.000Z</time>
      </trkpt>
      <trkpt lat="43.77502" lon="7.13985">
        <ele>787.20001220703</ele>
        <time>2018-12-08T09:43:29.000Z</time>
      </trkpt>
      <trkpt lat="43.77502" lon="7.13985">
        <ele>787.40002441406</ele>
        <time>2018-12-08T09:43:30.000Z</time>
      </trkpt>
      <trkpt lat="43.77503" lon="7.13985">
        <ele>788.20001220703</ele>
        <time>2018-12-08T09:43:33.000Z</time>
      </trkpt>
      <trkpt lat="43.77503" lon="7.13985">
        <ele>788.40002441406</ele>
        <time>2018-12-08T09:43:36.000Z</time>
      </trkpt>
      <trkpt lat="43.77505" lon="7.13987">
        <ele>788.59997558594</ele>
        <time>2018-12-08T09:43:41.000Z</time>
      </trkpt>
      <trkpt lat="43.77507" lon="7.1399">
        <ele>788.40002441406</ele>
        <time>2018-12-08T09:43:47.000Z</time>
      </trkpt>
      <trkpt lat="43.77509" lon="7.13993">
        <ele>789.40002441406</ele>
        <time>2018-12-08T09:43:52.000Z</time>
      </trkpt>
      <trkpt lat="43.7751" lon="7.13994">
        <ele>789.40002441406</ele>
        <time>2018-12-08T09:43:53.000Z</time>
      </trkpt>
      <trkpt lat="43.77512" lon="7.13996">
        <ele>790.20001220703</ele>
        <time>2018-12-08T09:43:59.000Z</time>
      </trkpt>
      <trkpt lat="43.77513" lon="7.13996">
        <ele>790.40002441406</ele>
        <time>2018-12-08T09:44:01.000Z</time>
      </trkpt>
      <trkpt lat="43.77515" lon="7.13999">
        <ele>791.20001220703</ele>
        <time>2018-12-08T09:44:06.000Z</time>
      </trkpt>
      <trkpt lat="43.77516" lon="7.13999">
        <ele>791.40002441406</ele>
        <time>2018-12-08T09:44:07.000Z</time>
      </trkpt>
      <trkpt lat="43.77518" lon="7.14003">
        <ele>792.40002441406</ele>
        <time>2018-12-08T09:44:13.000Z</time>
      </trkpt>
      <trkpt lat="43.77518" lon="7.14003">
        <ele>792.40002441406</ele>
        <time>2018-12-08T09:44:14.000Z</time>
      </trkpt>
      <trkpt lat="43.7752" lon="7.14005">
        <ele>792.79998779297</ele>
        <time>2018-12-08T09:44:18.000Z</time>
      </trkpt>
      <trkpt lat="43.77521" lon="7.14007">
        <ele>793.59997558594</ele>
        <time>2018-12-08T09:44:23.000Z</time>
      </trkpt>
      <trkpt lat="43.77521" lon="7.14007">
        <ele>793.79998779297</ele>
        <time>2018-12-08T09:44:24.000Z</time>
      </trkpt>
      <trkpt lat="43.77524" lon="7.14008">
        <ele>794.79998779297</ele>
        <time>2018-12-08T09:44:29.000Z</time>
      </trkpt>
      <trkpt lat="43.77524" lon="7.14008">
        <ele>795</ele>
        <time>2018-12-08T09:44:30.000Z</time>
      </trkpt>
      <trkpt lat="43.77527" lon="7.14008">
        <ele>795.40002441406</ele>
        <time>2018-12-08T09:44:35.000Z</time>
      </trkpt>
      <trkpt lat="43.77529" lon="7.14009">
        <ele>795.79998779297</ele>
        <time>2018-12-08T09:44:38.000Z</time>
      </trkpt>
      <trkpt lat="43.77531" lon="7.1401">
        <ele>796.40002441406</ele>
        <time>2018-12-08T09:44:41.000Z</time>
      </trkpt>
      <trkpt lat="43.77531" lon="7.14011">
        <ele>796.59997558594</ele>
        <time>2018-12-08T09:44:42.000Z</time>
      </trkpt>
      <trkpt lat="43.77531" lon="7.14012">
        <ele>796.79998779297</ele>
        <time>2018-12-08T09:44:43.000Z</time>
      </trkpt>
      <trkpt lat="43.7753" lon="7.14013">
        <ele>797.20001220703</ele>
        <time>2018-12-08T09:44:44.000Z</time>
      </trkpt>
      <trkpt lat="43.7753" lon="7.14015">
        <ele>798</ele>
        <time>2018-12-08T09:44:47.000Z</time>
      </trkpt>
      <trkpt lat="43.77531" lon="7.14021">
        <ele>798.59997558594</ele>
        <time>2018-12-08T09:44:54.000Z</time>
      </trkpt>
      <trkpt lat="43.77532" lon="7.14025">
        <ele>799</ele>
        <time>2018-12-08T09:44:58.000Z</time>
      </trkpt>
      <trkpt lat="43.77532" lon="7.14025">
        <ele>799.20001220703</ele>
        <time>2018-12-08T09:44:59.000Z</time>
      </trkpt>
      <trkpt lat="43.77533" lon="7.14029">
        <ele>799.79998779297</ele>
        <time>2018-12-08T09:45:03.000Z</time>
      </trkpt>
      <trkpt lat="43.77535" lon="7.14031">
        <ele>800.20001220703</ele>
        <time>2018-12-08T09:45:06.000Z</time>
      </trkpt>
      <trkpt lat="43.77535" lon="7.14032">
        <ele>800.40002441406</ele>
        <time>2018-12-08T09:45:07.000Z</time>
      </trkpt>
      <trkpt lat="43.77536" lon="7.14035">
        <ele>800.79998779297</ele>
        <time>2018-12-08T09:45:11.000Z</time>
      </trkpt>
      <trkpt lat="43.77539" lon="7.14035">
        <ele>801.40002441406</ele>
        <time>2018-12-08T09:45:16.000Z</time>
      </trkpt>
      <trkpt lat="43.77543" lon="7.14035">
        <ele>802.40002441406</ele>
        <time>2018-12-08T09:45:22.000Z</time>
      </trkpt>
      <trkpt lat="43.77544" lon="7.14035">
        <ele>802.79998779297</ele>
        <time>2018-12-08T09:45:24.000Z</time>
      </trkpt>
      <trkpt lat="43.77549" lon="7.14037">
        <ele>803.40002441406</ele>
        <time>2018-12-08T09:45:29.000Z</time>
      </trkpt>
      <trkpt lat="43.77553" lon="7.14038">
        <ele>804.59997558594</ele>
        <time>2018-12-08T09:45:36.000Z</time>
      </trkpt>
      <trkpt lat="43.77556" lon="7.14038">
        <ele>805.59997558594</ele>
        <time>2018-12-08T09:45:42.000Z</time>
      </trkpt>
      <trkpt lat="43.77556" lon="7.14038">
        <ele>805.59997558594</ele>
        <time>2018-12-08T09:45:43.000Z</time>
      </trkpt>
      <trkpt lat="43.77559" lon="7.14041">
        <ele>806.20001220703</ele>
        <time>2018-12-08T09:45:47.000Z</time>
      </trkpt>
      <trkpt lat="43.77561" lon="7.14046">
        <ele>806.59997558594</ele>
        <time>2018-12-08T09:45:51.000Z</time>
      </trkpt>
      <trkpt lat="43.77561" lon="7.14045">
        <ele>807</ele>
        <time>2018-12-08T09:45:52.000Z</time>
      </trkpt>
      <trkpt lat="43.77561" lon="7.14047">
        <ele>807.40002441406</ele>
        <time>2018-12-08T09:45:54.000Z</time>
      </trkpt>
      <trkpt lat="43.77563" lon="7.14051">
        <ele>807.20001220703</ele>
        <time>2018-12-08T09:45:57.000Z</time>
      </trkpt>
      <trkpt lat="43.77569" lon="7.14057">
        <ele>807.20001220703</ele>
        <time>2018-12-08T09:46:02.000Z</time>
      </trkpt>
      <trkpt lat="43.7757" lon="7.14056">
        <ele>807.40002441406</ele>
        <time>2018-12-08T09:46:03.000Z</time>
      </trkpt>
      <trkpt lat="43.77577" lon="7.14058">
        <ele>807.59997558594</ele>
        <time>2018-12-08T09:46:08.000Z</time>
      </trkpt>
      <trkpt lat="43.77578" lon="7.14059">
        <ele>808</ele>
        <time>2018-12-08T09:46:09.000Z</time>
      </trkpt>
      <trkpt lat="43.7758" lon="7.14061">
        <ele>808.59997558594</ele>
        <time>2018-12-08T09:46:11.000Z</time>
      </trkpt>
      <trkpt lat="43.77581" lon="7.14062">
        <ele>809</ele>
        <time>2018-12-08T09:46:12.000Z</time>
      </trkpt>
      <trkpt lat="43.77584" lon="7.14065">
        <ele>809.59997558594</ele>
        <time>2018-12-08T09:46:15.000Z</time>
      </trkpt>
      <trkpt lat="43.77591" lon="7.14067">
        <ele>810</ele>
        <time>2018-12-08T09:46:20.000Z</time>
      </trkpt>
      <trkpt lat="43.77592" lon="7.14069">
        <ele>810.20001220703</ele>
        <time>2018-12-08T09:46:21.000Z</time>
      </trkpt>
      <trkpt lat="43.77599" lon="7.14074">
        <ele>810.79998779297</ele>
        <time>2018-12-08T09:46:26.000Z</time>
      </trkpt>
      <trkpt lat="43.776" lon="7.14075">
        <ele>811</ele>
        <time>2018-12-08T09:46:27.000Z</time>
      </trkpt>
      <trkpt lat="43.77601" lon="7.14076">
        <ele>811.40002441406</ele>
        <time>2018-12-08T09:46:28.000Z</time>
      </trkpt>
      <trkpt lat="43.77604" lon="7.14081">
        <ele>812.40002441406</ele>
        <time>2018-12-08T09:46:32.000Z</time>
      </trkpt>
      <trkpt lat="43.77604" lon="7.1408">
        <ele>812.59997558594</ele>
        <time>2018-12-08T09:46:33.000Z</time>
      </trkpt>
      <trkpt lat="43.77608" lon="7.14075">
        <ele>813.40002441406</ele>
        <time>2018-12-08T09:46:37.000Z</time>
      </trkpt>
      <trkpt lat="43.77613" lon="7.14072">
        <ele>813.20001220703</ele>
        <time>2018-12-08T09:46:43.000Z</time>
      </trkpt>
      <trkpt lat="43.77616" lon="7.14074">
        <ele>814.40002441406</ele>
        <time>2018-12-08T09:46:49.000Z</time>
      </trkpt>
      <trkpt lat="43.77617" lon="7.14074">
        <ele>814.59997558594</ele>
        <time>2018-12-08T09:46:50.000Z</time>
      </trkpt>
      <trkpt lat="43.77619" lon="7.14075">
        <ele>815.40002441406</ele>
        <time>2018-12-08T09:46:56.000Z</time>
      </trkpt>
      <trkpt lat="43.7762" lon="7.14074">
        <ele>815.59997558594</ele>
        <time>2018-12-08T09:46:57.000Z</time>
      </trkpt>
      <trkpt lat="43.77621" lon="7.14068">
        <ele>816.59997558594</ele>
        <time>2018-12-08T09:47:03.000Z</time>
      </trkpt>
      <trkpt lat="43.77623" lon="7.14068">
        <ele>817</ele>
        <time>2018-12-08T09:47:05.000Z</time>
      </trkpt>
      <trkpt lat="43.77626" lon="7.1407">
        <ele>817.59997558594</ele>
        <time>2018-12-08T09:47:09.000Z</time>
      </trkpt>
      <trkpt lat="43.77627" lon="7.14073">
        <ele>818</ele>
        <time>2018-12-08T09:47:11.000Z</time>
      </trkpt>
      <trkpt lat="43.7763" lon="7.14079">
        <ele>818.59997558594</ele>
        <time>2018-12-08T09:47:18.000Z</time>
      </trkpt>
      <trkpt lat="43.77631" lon="7.1408">
        <ele>818.79998779297</ele>
        <time>2018-12-08T09:47:19.000Z</time>
      </trkpt>
      <trkpt lat="43.77634" lon="7.14084">
        <ele>819</ele>
        <time>2018-12-08T09:47:22.000Z</time>
      </trkpt>
      <trkpt lat="43.77647" lon="7.14096">
        <ele>819</ele>
        <time>2018-12-08T09:47:31.000Z</time>
      </trkpt>
      <trkpt lat="43.77657" lon="7.14108">
        <ele>819</ele>
        <time>2018-12-08T09:47:37.000Z</time>
      </trkpt>
      <trkpt lat="43.77663" lon="7.14116">
        <ele>820</ele>
        <time>2018-12-08T09:47:42.000Z</time>
      </trkpt>
      <trkpt lat="43.77664" lon="7.14117">
        <ele>820.20001220703</ele>
        <time>2018-12-08T09:47:43.000Z</time>
      </trkpt>
      <trkpt lat="43.77669" lon="7.14119">
        <ele>820.79998779297</ele>
        <time>2018-12-08T09:47:46.000Z</time>
      </trkpt>
      <trkpt lat="43.77671" lon="7.14121">
        <ele>820.79998779297</ele>
        <time>2018-12-08T09:47:47.000Z</time>
      </trkpt>
      <trkpt lat="43.77671" lon="7.14122">
        <ele>821</ele>
        <time>2018-12-08T09:47:48.000Z</time>
      </trkpt>
      <trkpt lat="43.77672" lon="7.14127">
        <ele>821.59997558594</ele>
        <time>2018-12-08T09:47:51.000Z</time>
      </trkpt>
      <trkpt lat="43.77673" lon="7.14132">
        <ele>822</ele>
        <time>2018-12-08T09:47:54.000Z</time>
      </trkpt>
      <trkpt lat="43.77678" lon="7.14139">
        <ele>822.79998779297</ele>
        <time>2018-12-08T09:47:59.000Z</time>
      </trkpt>
      <trkpt lat="43.77679" lon="7.1414">
        <ele>823.20001220703</ele>
        <time>2018-12-08T09:48:01.000Z</time>
      </trkpt>
      <trkpt lat="43.7768" lon="7.14141">
        <ele>823.40002441406</ele>
        <time>2018-12-08T09:48:02.000Z</time>
      </trkpt>
      <trkpt lat="43.77683" lon="7.14145">
        <ele>824.20001220703</ele>
        <time>2018-12-08T09:48:06.000Z</time>
      </trkpt>
      <trkpt lat="43.77683" lon="7.14144">
        <ele>824.59997558594</ele>
        <time>2018-12-08T09:48:07.000Z</time>
      </trkpt>
      <trkpt lat="43.77686" lon="7.14148">
        <ele>824.79998779297</ele>
        <time>2018-12-08T09:48:12.000Z</time>
      </trkpt>
      <trkpt lat="43.77687" lon="7.14149">
        <ele>825.40002441406</ele>
        <time>2018-12-08T09:48:15.000Z</time>
      </trkpt>
      <trkpt lat="43.7769" lon="7.14151">
        <ele>826.20001220703</ele>
        <time>2018-12-08T09:48:20.000Z</time>
      </trkpt>
      <trkpt lat="43.77693" lon="7.14153">
        <ele>826.40002441406</ele>
        <time>2018-12-08T09:48:25.000Z</time>
      </trkpt>
      <trkpt lat="43.77695" lon="7.14153">
        <ele>826.59997558594</ele>
        <time>2018-12-08T09:48:27.000Z</time>
      </trkpt>
      <trkpt lat="43.77698" lon="7.14155">
        <ele>827.40002441406</ele>
        <time>2018-12-08T09:48:34.000Z</time>
      </trkpt>
      <trkpt lat="43.77705" lon="7.14159">
        <ele>828.40002441406</ele>
        <time>2018-12-08T09:48:41.000Z</time>
      </trkpt>
      <trkpt lat="43.77706" lon="7.1416">
        <ele>828.59997558594</ele>
        <time>2018-12-08T09:48:42.000Z</time>
      </trkpt>
      <trkpt lat="43.77709" lon="7.14164">
        <ele>829</ele>
        <time>2018-12-08T09:48:47.000Z</time>
      </trkpt>
      <trkpt lat="43.77712" lon="7.14168">
        <ele>829.59997558594</ele>
        <time>2018-12-08T09:48:51.000Z</time>
      </trkpt>
      <trkpt lat="43.77714" lon="7.14169">
        <ele>830</ele>
        <time>2018-12-08T09:48:54.000Z</time>
      </trkpt>
      <trkpt lat="43.77714" lon="7.14169">
        <ele>830.59997558594</ele>
        <time>2018-12-08T09:48:57.000Z</time>
      </trkpt>
      <trkpt lat="43.77716" lon="7.1417">
        <ele>830.79998779297</ele>
        <time>2018-12-08T09:49:00.000Z</time>
      </trkpt>
      <trkpt lat="43.77718" lon="7.14171">
        <ele>830.79998779297</ele>
        <time>2018-12-08T09:49:02.000Z</time>
      </trkpt>
      <trkpt lat="43.77723" lon="7.14173">
        <ele>831</ele>
        <time>2018-12-08T09:49:05.000Z</time>
      </trkpt>
      <trkpt lat="43.77724" lon="7.14174">
        <ele>831</ele>
        <time>2018-12-08T09:49:06.000Z</time>
      </trkpt>
      <trkpt lat="43.77727" lon="7.14176">
        <ele>831.79998779297</ele>
        <time>2018-12-08T09:49:10.000Z</time>
      </trkpt>
      <trkpt lat="43.77727" lon="7.14176">
        <ele>832.20001220703</ele>
        <time>2018-12-08T09:49:11.000Z</time>
      </trkpt>
      <trkpt lat="43.77728" lon="7.14176">
        <ele>833</ele>
        <time>2018-12-08T09:49:13.000Z</time>
      </trkpt>
      <trkpt lat="43.77728" lon="7.14176">
        <ele>833.40002441406</ele>
        <time>2018-12-08T09:49:17.000Z</time>
      </trkpt>
      <trkpt lat="43.77729" lon="7.14177">
        <ele>833.20001220703</ele>
        <time>2018-12-08T09:49:26.000Z</time>
      </trkpt>
      <trkpt lat="43.77732" lon="7.14178">
        <ele>833.20001220703</ele>
        <time>2018-12-08T09:49:36.000Z</time>
      </trkpt>
      <trkpt lat="43.77734" lon="7.14179">
        <ele>833.40002441406</ele>
        <time>2018-12-08T09:49:39.000Z</time>
      </trkpt>
      <trkpt lat="43.77739" lon="7.14176">
        <ele>833.40002441406</ele>
        <time>2018-12-08T09:49:42.000Z</time>
      </trkpt>
      <trkpt lat="43.77744" lon="7.14181">
        <ele>834.20001220703</ele>
        <time>2018-12-08T09:49:46.000Z</time>
      </trkpt>
      <trkpt lat="43.77753" lon="7.14185">
        <ele>835</ele>
        <time>2018-12-08T09:49:51.000Z</time>
      </trkpt>
      <trkpt lat="43.77757" lon="7.14186">
        <ele>835.20001220703</ele>
        <time>2018-12-08T09:49:53.000Z</time>
      </trkpt>
      <trkpt lat="43.77762" lon="7.14188">
        <ele>835.79998779297</ele>
        <time>2018-12-08T09:49:56.000Z</time>
      </trkpt>
      <trkpt lat="43.77773" lon="7.1419">
        <ele>836.40002441406</ele>
        <time>2018-12-08T09:50:02.000Z</time>
      </trkpt>
      <trkpt lat="43.77779" lon="7.14192">
        <ele>836.59997558594</ele>
        <time>2018-12-08T09:50:06.000Z</time>
      </trkpt>
      <trkpt lat="43.7778" lon="7.14193">
        <ele>836.79998779297</ele>
        <time>2018-12-08T09:50:07.000Z</time>
      </trkpt>
      <trkpt lat="43.77783" lon="7.14197">
        <ele>837.40002441406</ele>
        <time>2018-12-08T09:50:10.000Z</time>
      </trkpt>
      <trkpt lat="43.77787" lon="7.14199">
        <ele>837.40002441406</ele>
        <time>2018-12-08T09:50:12.000Z</time>
      </trkpt>
      <trkpt lat="43.77792" lon="7.14203">
        <ele>837.20001220703</ele>
        <time>2018-12-08T09:50:14.000Z</time>
      </trkpt>
      <trkpt lat="43.77802" lon="7.14204">
        <ele>836.59997558594</ele>
        <time>2018-12-08T09:50:17.000Z</time>
      </trkpt>
      <trkpt lat="43.77806" lon="7.14203">
        <ele>836.20001220703</ele>
        <time>2018-12-08T09:50:18.000Z</time>
      </trkpt>
      <trkpt lat="43.77809" lon="7.14201">
        <ele>836</ele>
        <time>2018-12-08T09:50:19.000Z</time>
      </trkpt>
      <trkpt lat="43.77811" lon="7.14199">
        <ele>835.59997558594</ele>
        <time>2018-12-08T09:50:20.000Z</time>
      </trkpt>
      <trkpt lat="43.77815" lon="7.142">
        <ele>835.20001220703</ele>
        <time>2018-12-08T09:50:22.000Z</time>
      </trkpt>
      <trkpt lat="43.77816" lon="7.14202">
        <ele>835</ele>
        <time>2018-12-08T09:50:23.000Z</time>
      </trkpt>
      <trkpt lat="43.77818" lon="7.14204">
        <ele>834.79998779297</ele>
        <time>2018-12-08T09:50:24.000Z</time>
      </trkpt>
      <trkpt lat="43.77829" lon="7.14211">
        <ele>834.20001220703</ele>
        <time>2018-12-08T09:50:27.000Z</time>
      </trkpt>
      <trkpt lat="43.77846" lon="7.14232">
        <ele>833.40002441406</ele>
        <time>2018-12-08T09:50:34.000Z</time>
      </trkpt>
      <trkpt lat="43.77862" lon="7.14244">
        <ele>833.40002441406</ele>
        <time>2018-12-08T09:50:40.000Z</time>
      </trkpt>
      <trkpt lat="43.77884" lon="7.14251">
        <ele>834.20001220703</ele>
        <time>2018-12-08T09:50:47.000Z</time>
      </trkpt>
      <trkpt lat="43.77904" lon="7.1425">
        <ele>834.20001220703</ele>
        <time>2018-12-08T09:50:53.000Z</time>
      </trkpt>
      <trkpt lat="43.77926" lon="7.14258">
        <ele>834.40002441406</ele>
        <time>2018-12-08T09:51:00.000Z</time>
      </trkpt>
      <trkpt lat="43.77942" lon="7.14257">
        <ele>835.20001220703</ele>
        <time>2018-12-08T09:51:06.000Z</time>
      </trkpt>
      <trkpt lat="43.77947" lon="7.14256">
        <ele>835.40002441406</ele>
        <time>2018-12-08T09:51:08.000Z</time>
      </trkpt>
      <trkpt lat="43.77949" lon="7.14254">
        <ele>835.59997558594</ele>
        <time>2018-12-08T09:51:10.000Z</time>
      </trkpt>
      <trkpt lat="43.77949" lon="7.14255">
        <ele>835.40002441406</ele>
        <time>2018-12-08T09:51:19.000Z</time>
      </trkpt>
      <trkpt lat="43.77949" lon="7.14256">
        <ele>835.59997558594</ele>
        <time>2018-12-08T09:51:29.000Z</time>
      </trkpt>
      <trkpt lat="43.77946" lon="7.14259">
        <ele>835.59997558594</ele>
        <time>2018-12-08T09:51:34.000Z</time>
      </trkpt>
      <trkpt lat="43.77949" lon="7.14259">
        <ele>835.59997558594</ele>
        <time>2018-12-08T09:51:40.000Z</time>
      </trkpt>
      <trkpt lat="43.77954" lon="7.1425">
        <ele>835.79998779297</ele>
        <time>2018-12-08T09:51:48.000Z</time>
      </trkpt>
      <trkpt lat="43.77955" lon="7.14249">
        <ele>835.79998779297</ele>
        <time>2018-12-08T09:51:49.000Z</time>
      </trkpt>
      <trkpt lat="43.77958" lon="7.14249">
        <ele>835.40002441406</ele>
        <time>2018-12-08T09:51:53.000Z</time>
      </trkpt>
      <trkpt lat="43.77965" lon="7.14253">
        <ele>834.40002441406</ele>
        <time>2018-12-08T09:51:58.000Z</time>
      </trkpt>
      <trkpt lat="43.77968" lon="7.14253">
        <ele>834.20001220703</ele>
        <time>2018-12-08T09:51:59.000Z</time>
      </trkpt>
      <trkpt lat="43.77979" lon="7.14258">
        <ele>833.20001220703</ele>
        <time>2018-12-08T09:52:03.000Z</time>
      </trkpt>
      <trkpt lat="43.77982" lon="7.14259">
        <ele>833</ele>
        <time>2018-12-08T09:52:04.000Z</time>
      </trkpt>
      <trkpt lat="43.77991" lon="7.14258">
        <ele>832.20001220703</ele>
        <time>2018-12-08T09:52:07.000Z</time>
      </trkpt>
      <trkpt lat="43.78" lon="7.14257">
        <ele>831.79998779297</ele>
        <time>2018-12-08T09:52:10.000Z</time>
      </trkpt>
      <trkpt lat="43.78006" lon="7.14254">
        <ele>831.59997558594</ele>
        <time>2018-12-08T09:52:12.000Z</time>
      </trkpt>
      <trkpt lat="43.78018" lon="7.14254">
        <ele>830.40002441406</ele>
        <time>2018-12-08T09:52:15.000Z</time>
      </trkpt>
      <trkpt lat="43.78027" lon="7.14251">
        <ele>829.20001220703</ele>
        <time>2018-12-08T09:52:18.000Z</time>
      </trkpt>
      <trkpt lat="43.78044" lon="7.1425">
        <ele>830</ele>
        <time>2018-12-08T09:52:24.000Z</time>
      </trkpt>
      <trkpt lat="43.78053" lon="7.14245">
        <ele>830.20001220703</ele>
        <time>2018-12-08T09:52:28.000Z</time>
      </trkpt>
      <trkpt lat="43.78055" lon="7.14243">
        <ele>830.20001220703</ele>
        <time>2018-12-08T09:52:29.000Z</time>
      </trkpt>
      <trkpt lat="43.78064" lon="7.14237">
        <ele>830.20001220703</ele>
        <time>2018-12-08T09:52:32.000Z</time>
      </trkpt>
      <trkpt lat="43.78076" lon="7.14236">
        <ele>829</ele>
        <time>2018-12-08T09:52:35.000Z</time>
      </trkpt>
      <trkpt lat="43.78079" lon="7.14235">
        <ele>828.40002441406</ele>
        <time>2018-12-08T09:52:36.000Z</time>
      </trkpt>
      <trkpt lat="43.78087" lon="7.14234">
        <ele>827.79998779297</ele>
        <time>2018-12-08T09:52:38.000Z</time>
      </trkpt>
      <trkpt lat="43.78094" lon="7.14235">
        <ele>827.20001220703</ele>
        <time>2018-12-08T09:52:40.000Z</time>
      </trkpt>
      <trkpt lat="43.78108" lon="7.14241">
        <ele>826.59997558594</ele>
        <time>2018-12-08T09:52:44.000Z</time>
      </trkpt>
      <trkpt lat="43.78113" lon="7.14247">
        <ele>826.59997558594</ele>
        <time>2018-12-08T09:52:46.000Z</time>
      </trkpt>
      <trkpt lat="43.78126" lon="7.14255">
        <ele>826.79998779297</ele>
        <time>2018-12-08T09:52:51.000Z</time>
      </trkpt>
      <trkpt lat="43.78133" lon="7.14261">
        <ele>826</ele>
        <time>2018-12-08T09:52:55.000Z</time>
      </trkpt>
      <trkpt lat="43.78135" lon="7.14262">
        <ele>825.59997558594</ele>
        <time>2018-12-08T09:52:56.000Z</time>
      </trkpt>
      <trkpt lat="43.78137" lon="7.14262">
        <ele>825.40002441406</ele>
        <time>2018-12-08T09:52:57.000Z</time>
      </trkpt>
      <trkpt lat="43.78145" lon="7.14265">
        <ele>824.79998779297</ele>
        <time>2018-12-08T09:53:00.000Z</time>
      </trkpt>
      <trkpt lat="43.7815" lon="7.14267">
        <ele>824.20001220703</ele>
        <time>2018-12-08T09:53:02.000Z</time>
      </trkpt>
      <trkpt lat="43.78156" lon="7.14271">
        <ele>823.79998779297</ele>
        <time>2018-12-08T09:53:04.000Z</time>
      </trkpt>
      <trkpt lat="43.78161" lon="7.14276">
        <ele>823.59997558594</ele>
        <time>2018-12-08T09:53:06.000Z</time>
      </trkpt>
      <trkpt lat="43.78169" lon="7.14284">
        <ele>823.20001220703</ele>
        <time>2018-12-08T09:53:09.000Z</time>
      </trkpt>
      <trkpt lat="43.78178" lon="7.14294">
        <ele>822.20001220703</ele>
        <time>2018-12-08T09:53:13.000Z</time>
      </trkpt>
      <trkpt lat="43.7818" lon="7.14296">
        <ele>821.79998779297</ele>
        <time>2018-12-08T09:53:14.000Z</time>
      </trkpt>
      <trkpt lat="43.78187" lon="7.14302">
        <ele>821.40002441406</ele>
        <time>2018-12-08T09:53:17.000Z</time>
      </trkpt>
      <trkpt lat="43.78188" lon="7.14304">
        <ele>821.40002441406</ele>
        <time>2018-12-08T09:53:18.000Z</time>
      </trkpt>
      <trkpt lat="43.78192" lon="7.1431">
        <ele>821</ele>
        <time>2018-12-08T09:53:20.000Z</time>
      </trkpt>
      <trkpt lat="43.782" lon="7.14318">
        <ele>820.40002441406</ele>
        <time>2018-12-08T09:53:23.000Z</time>
      </trkpt>
      <trkpt lat="43.78207" lon="7.14322">
        <ele>819.59997558594</ele>
        <time>2018-12-08T09:53:25.000Z</time>
      </trkpt>
      <trkpt lat="43.78211" lon="7.14325">
        <ele>819.20001220703</ele>
        <time>2018-12-08T09:53:27.000Z</time>
      </trkpt>
      <trkpt lat="43.78214" lon="7.14327">
        <ele>818.59997558594</ele>
        <time>2018-12-08T09:53:29.000Z</time>
      </trkpt>
      <trkpt lat="43.78215" lon="7.14327">
        <ele>818.40002441406</ele>
        <time>2018-12-08T09:53:30.000Z</time>
      </trkpt>
      <trkpt lat="43.78216" lon="7.14327">
        <ele>817.79998779297</ele>
        <time>2018-12-08T09:53:31.000Z</time>
      </trkpt>
      <trkpt lat="43.78218" lon="7.14327">
        <ele>817.59997558594</ele>
        <time>2018-12-08T09:53:32.000Z</time>
      </trkpt>
      <trkpt lat="43.7822" lon="7.14326">
        <ele>817</ele>
        <time>2018-12-08T09:53:33.000Z</time>
      </trkpt>
      <trkpt lat="43.78222" lon="7.14324">
        <ele>816.40002441406</ele>
        <time>2018-12-08T09:53:34.000Z</time>
      </trkpt>
      <trkpt lat="43.78224" lon="7.14323">
        <ele>815.79998779297</ele>
        <time>2018-12-08T09:53:35.000Z</time>
      </trkpt>
      <trkpt lat="43.78226" lon="7.14323">
        <ele>815.20001220703</ele>
        <time>2018-12-08T09:53:36.000Z</time>
      </trkpt>
      <trkpt lat="43.78231" lon="7.14327">
        <ele>814</ele>
        <time>2018-12-08T09:53:38.000Z</time>
      </trkpt>
      <trkpt lat="43.78233" lon="7.1433">
        <ele>813.59997558594</ele>
        <time>2018-12-08T09:53:39.000Z</time>
      </trkpt>
      <trkpt lat="43.78239" lon="7.14338">
        <ele>812.79998779297</ele>
        <time>2018-12-08T09:53:41.000Z</time>
      </trkpt>
      <trkpt lat="43.78241" lon="7.14343">
        <ele>812.59997558594</ele>
        <time>2018-12-08T09:53:42.000Z</time>
      </trkpt>
      <trkpt lat="43.78246" lon="7.14352">
        <ele>812.20001220703</ele>
        <time>2018-12-08T09:53:44.000Z</time>
      </trkpt>
      <trkpt lat="43.78258" lon="7.14366">
        <ele>811.79998779297</ele>
        <time>2018-12-08T09:53:49.000Z</time>
      </trkpt>
      <trkpt lat="43.78277" lon="7.14365">
        <ele>811.59997558594</ele>
        <time>2018-12-08T09:53:55.000Z</time>
      </trkpt>
      <trkpt lat="43.78283" lon="7.14359">
        <ele>810.79998779297</ele>
        <time>2018-12-08T09:53:57.000Z</time>
      </trkpt>
      <trkpt lat="43.7829" lon="7.14356">
        <ele>809.79998779297</ele>
        <time>2018-12-08T09:53:59.000Z</time>
      </trkpt>
      <trkpt lat="43.78293" lon="7.14357">
        <ele>809.79998779297</ele>
        <time>2018-12-08T09:54:00.000Z</time>
      </trkpt>
      <trkpt lat="43.78303" lon="7.14357">
        <ele>810</ele>
        <time>2018-12-08T09:54:03.000Z</time>
      </trkpt>
      <trkpt lat="43.7832" lon="7.14359">
        <ele>810.20001220703</ele>
        <time>2018-12-08T09:54:08.000Z</time>
      </trkpt>
      <trkpt lat="43.78328" lon="7.14361">
        <ele>810</ele>
        <time>2018-12-08T09:54:11.000Z</time>
      </trkpt>
      <trkpt lat="43.78333" lon="7.14367">
        <ele>810</ele>
        <time>2018-12-08T09:54:13.000Z</time>
      </trkpt>
      <trkpt lat="43.78339" lon="7.14377">
        <ele>809.59997558594</ele>
        <time>2018-12-08T09:54:16.000Z</time>
      </trkpt>
      <trkpt lat="43.78343" lon="7.14381">
        <ele>809</ele>
        <time>2018-12-08T09:54:18.000Z</time>
      </trkpt>
      <trkpt lat="43.78345" lon="7.14382">
        <ele>808.59997558594</ele>
        <time>2018-12-08T09:54:19.000Z</time>
      </trkpt>
      <trkpt lat="43.78354" lon="7.14384">
        <ele>808</ele>
        <time>2018-12-08T09:54:22.000Z</time>
      </trkpt>
      <trkpt lat="43.78357" lon="7.14386">
        <ele>807.40002441406</ele>
        <time>2018-12-08T09:54:23.000Z</time>
      </trkpt>
      <trkpt lat="43.78365" lon="7.14395">
        <ele>806.20001220703</ele>
        <time>2018-12-08T09:54:26.000Z</time>
      </trkpt>
      <trkpt lat="43.78368" lon="7.14398">
        <ele>805.79998779297</ele>
        <time>2018-12-08T09:54:27.000Z</time>
      </trkpt>
      <trkpt lat="43.78371" lon="7.14399">
        <ele>805.40002441406</ele>
        <time>2018-12-08T09:54:28.000Z</time>
      </trkpt>
      <trkpt lat="43.78374" lon="7.14401">
        <ele>805</ele>
        <time>2018-12-08T09:54:29.000Z</time>
      </trkpt>
      <trkpt lat="43.78376" lon="7.14404">
        <ele>804.59997558594</ele>
        <time>2018-12-08T09:54:30.000Z</time>
      </trkpt>
      <trkpt lat="43.78382" lon="7.14415">
        <ele>803.79998779297</ele>
        <time>2018-12-08T09:54:33.000Z</time>
      </trkpt>
      <trkpt lat="43.78384" lon="7.14418">
        <ele>803.20001220703</ele>
        <time>2018-12-08T09:54:34.000Z</time>
      </trkpt>
      <trkpt lat="43.78389" lon="7.14425">
        <ele>802.20001220703</ele>
        <time>2018-12-08T09:54:36.000Z</time>
      </trkpt>
      <trkpt lat="43.78393" lon="7.14435">
        <ele>801.40002441406</ele>
        <time>2018-12-08T09:54:38.000Z</time>
      </trkpt>
      <trkpt lat="43.78395" lon="7.14439">
        <ele>801.20001220703</ele>
        <time>2018-12-08T09:54:39.000Z</time>
      </trkpt>
      <trkpt lat="43.78406" lon="7.14454">
        <ele>800</ele>
        <time>2018-12-08T09:54:43.000Z</time>
      </trkpt>
      <trkpt lat="43.78422" lon="7.14464">
        <ele>799.79998779297</ele>
        <time>2018-12-08T09:54:48.000Z</time>
      </trkpt>
      <trkpt lat="43.78424" lon="7.14464">
        <ele>799.20001220703</ele>
        <time>2018-12-08T09:54:52.000Z</time>
      </trkpt>
      <trkpt lat="43.78425" lon="7.14464">
        <ele>799.20001220703</ele>
        <time>2018-12-08T09:55:06.000Z</time>
      </trkpt>
      <trkpt lat="43.78426" lon="7.14464">
        <ele>799</ele>
        <time>2018-12-08T09:55:15.000Z</time>
      </trkpt>
      <trkpt lat="43.78428" lon="7.14464">
        <ele>799</ele>
        <time>2018-12-08T09:55:35.000Z</time>
      </trkpt>
      <trkpt lat="43.78435" lon="7.14465">
        <ele>799</ele>
        <time>2018-12-08T09:55:44.000Z</time>
      </trkpt>
      <trkpt lat="43.78438" lon="7.14466">
        <ele>799</ele>
        <time>2018-12-08T09:55:45.000Z</time>
      </trkpt>
      <trkpt lat="43.78447" lon="7.14474">
        <ele>798.79998779297</ele>
        <time>2018-12-08T09:55:49.000Z</time>
      </trkpt>
      <trkpt lat="43.78457" lon="7.14484">
        <ele>797.79998779297</ele>
        <time>2018-12-08T09:55:54.000Z</time>
      </trkpt>
      <trkpt lat="43.78459" lon="7.14486">
        <ele>798</ele>
        <time>2018-12-08T09:55:55.000Z</time>
      </trkpt>
      <trkpt lat="43.7847" lon="7.14495">
        <ele>797.79998779297</ele>
        <time>2018-12-08T09:56:01.000Z</time>
      </trkpt>
      <trkpt lat="43.78478" lon="7.14498">
        <ele>797.79998779297</ele>
        <time>2018-12-08T09:56:05.000Z</time>
      </trkpt>
      <trkpt lat="43.78488" lon="7.14498">
        <ele>797.40002441406</ele>
        <time>2018-12-08T09:56:11.000Z</time>
      </trkpt>
      <trkpt lat="43.78496" lon="7.14497">
        <ele>797.59997558594</ele>
        <time>2018-12-08T09:56:16.000Z</time>
      </trkpt>
      <trkpt lat="43.785" lon="7.14499">
        <ele>797.59997558594</ele>
        <time>2018-12-08T09:56:19.000Z</time>
      </trkpt>
      <trkpt lat="43.78503" lon="7.14498">
        <ele>797.59997558594</ele>
        <time>2018-12-08T09:56:21.000Z</time>
      </trkpt>
      <trkpt lat="43.78507" lon="7.14496">
        <ele>798.20001220703</ele>
        <time>2018-12-08T09:56:28.000Z</time>
      </trkpt>
      <trkpt lat="43.78512" lon="7.14496">
        <ele>798.40002441406</ele>
        <time>2018-12-08T09:56:33.000Z</time>
      </trkpt>
      <trkpt lat="43.78518" lon="7.145">
        <ele>798.59997558594</ele>
        <time>2018-12-08T09:56:38.000Z</time>
      </trkpt>
      <trkpt lat="43.7852" lon="7.145">
        <ele>798.59997558594</ele>
        <time>2018-12-08T09:56:39.000Z</time>
      </trkpt>
      <trkpt lat="43.78522" lon="7.14501">
        <ele>798.59997558594</ele>
        <time>2018-12-08T09:56:41.000Z</time>
      </trkpt>
      <trkpt lat="43.78527" lon="7.14503">
        <ele>798.40002441406</ele>
        <time>2018-12-08T09:56:45.000Z</time>
      </trkpt>
      <trkpt lat="43.78527" lon="7.14504">
        <ele>798.20001220703</ele>
        <time>2018-12-08T09:56:49.000Z</time>
      </trkpt>
      <trkpt lat="43.78528" lon="7.14504">
        <ele>798.79998779297</ele>
        <time>2018-12-08T09:56:55.000Z</time>
      </trkpt>
      <trkpt lat="43.78528" lon="7.14504">
        <ele>798.79998779297</ele>
        <time>2018-12-08T09:56:56.000Z</time>
      </trkpt>
      <trkpt lat="43.78533" lon="7.14503">
        <ele>798.20001220703</ele>
        <time>2018-12-08T09:57:01.000Z</time>
      </trkpt>
      <trkpt lat="43.78536" lon="7.14499">
        <ele>798</ele>
        <time>2018-12-08T09:57:04.000Z</time>
      </trkpt>
      <trkpt lat="43.78536" lon="7.14497">
        <ele>798.20001220703</ele>
        <time>2018-12-08T09:57:05.000Z</time>
      </trkpt>
      <trkpt lat="43.78534" lon="7.14493">
        <ele>798.40002441406</ele>
        <time>2018-12-08T09:57:08.000Z</time>
      </trkpt>
      <trkpt lat="43.78533" lon="7.1449">
        <ele>799</ele>
        <time>2018-12-08T09:57:10.000Z</time>
      </trkpt>
      <trkpt lat="43.78533" lon="7.14483">
        <ele>800</ele>
        <time>2018-12-08T09:57:14.000Z</time>
      </trkpt>
      <trkpt lat="43.78534" lon="7.14481">
        <ele>800.40002441406</ele>
        <time>2018-12-08T09:57:16.000Z</time>
      </trkpt>
      <trkpt lat="43.78534" lon="7.14479">
        <ele>800.59997558594</ele>
        <time>2018-12-08T09:57:17.000Z</time>
      </trkpt>
      <trkpt lat="43.78532" lon="7.14477">
        <ele>801</ele>
        <time>2018-12-08T09:57:19.000Z</time>
      </trkpt>
      <trkpt lat="43.7853" lon="7.14473">
        <ele>801.20001220703</ele>
        <time>2018-12-08T09:57:21.000Z</time>
      </trkpt>
      <trkpt lat="43.78522" lon="7.14462">
        <ele>801.79998779297</ele>
        <time>2018-12-08T09:57:28.000Z</time>
      </trkpt>
      <trkpt lat="43.78521" lon="7.14461">
        <ele>802</ele>
        <time>2018-12-08T09:57:29.000Z</time>
      </trkpt>
      <trkpt lat="43.78518" lon="7.14453">
        <ele>803</ele>
        <time>2018-12-08T09:57:34.000Z</time>
      </trkpt>
      <trkpt lat="43.78517" lon="7.14451">
        <ele>803.20001220703</ele>
        <time>2018-12-08T09:57:35.000Z</time>
      </trkpt>
      <trkpt lat="43.78513" lon="7.14441">
        <ele>804</ele>
        <time>2018-12-08T09:57:41.000Z</time>
      </trkpt>
      <trkpt lat="43.78511" lon="7.14436">
        <ele>804.40002441406</ele>
        <time>2018-12-08T09:57:44.000Z</time>
      </trkpt>
      <trkpt lat="43.7851" lon="7.14433">
        <ele>804.59997558594</ele>
        <time>2018-12-08T09:57:46.000Z</time>
      </trkpt>
      <trkpt lat="43.78505" lon="7.14426">
        <ele>805.59997558594</ele>
        <time>2018-12-08T09:57:51.000Z</time>
      </trkpt>
      <trkpt lat="43.78503" lon="7.14423">
        <ele>805.79998779297</ele>
        <time>2018-12-08T09:57:53.000Z</time>
      </trkpt>
      <trkpt lat="43.78496" lon="7.14411">
        <ele>806.40002441406</ele>
        <time>2018-12-08T09:58:00.000Z</time>
      </trkpt>
      <trkpt lat="43.78492" lon="7.14405">
        <ele>806.59997558594</ele>
        <time>2018-12-08T09:58:04.000Z</time>
      </trkpt>
      <trkpt lat="43.78487" lon="7.144">
        <ele>807.20001220703</ele>
        <time>2018-12-08T09:58:08.000Z</time>
      </trkpt>
      <trkpt lat="43.78484" lon="7.14397">
        <ele>807.79998779297</ele>
        <time>2018-12-08T09:58:11.000Z</time>
      </trkpt>
      <trkpt lat="43.78479" lon="7.14391">
        <ele>808.40002441406</ele>
        <time>2018-12-08T09:58:15.000Z</time>
      </trkpt>
      <trkpt lat="43.78478" lon="7.14389">
        <ele>808.40002441406</ele>
        <time>2018-12-08T09:58:16.000Z</time>
      </trkpt>
      <trkpt lat="43.78477" lon="7.14386">
        <ele>808.79998779297</ele>
        <time>2018-12-08T09:58:18.000Z</time>
      </trkpt>
      <trkpt lat="43.78472" lon="7.14377">
        <ele>809.40002441406</ele>
        <time>2018-12-08T09:58:24.000Z</time>
      </trkpt>
      <trkpt lat="43.78469" lon="7.14373">
        <ele>809.79998779297</ele>
        <time>2018-12-08T09:58:27.000Z</time>
      </trkpt>
      <trkpt lat="43.78468" lon="7.14371">
        <ele>810</ele>
        <time>2018-12-08T09:58:29.000Z</time>
      </trkpt>
      <trkpt lat="43.78467" lon="7.1437">
        <ele>810.40002441406</ele>
        <time>2018-12-08T09:58:30.000Z</time>
      </trkpt>
      <trkpt lat="43.78466" lon="7.14366">
        <ele>811</ele>
        <time>2018-12-08T09:58:33.000Z</time>
      </trkpt>
      <trkpt lat="43.78465" lon="7.14361">
        <ele>811.40002441406</ele>
        <time>2018-12-08T09:58:36.000Z</time>
      </trkpt>
      <trkpt lat="43.78462" lon="7.14353">
        <ele>812</ele>
        <time>2018-12-08T09:58:41.000Z</time>
      </trkpt>
      <trkpt lat="43.78461" lon="7.14351">
        <ele>812.40002441406</ele>
        <time>2018-12-08T09:58:42.000Z</time>
      </trkpt>
      <trkpt lat="43.78458" lon="7.14348">
        <ele>813.20001220703</ele>
        <time>2018-12-08T09:58:45.000Z</time>
      </trkpt>
      <trkpt lat="43.78458" lon="7.14346">
        <ele>813.40002441406</ele>
        <time>2018-12-08T09:58:46.000Z</time>
      </trkpt>
      <trkpt lat="43.78456" lon="7.14344">
        <ele>813.59997558594</ele>
        <time>2018-12-08T09:58:48.000Z</time>
      </trkpt>
      <trkpt lat="43.78453" lon="7.14341">
        <ele>814.20001220703</ele>
        <time>2018-12-08T09:58:51.000Z</time>
      </trkpt>
      <trkpt lat="43.78451" lon="7.14339">
        <ele>814.59997558594</ele>
        <time>2018-12-08T09:58:54.000Z</time>
      </trkpt>
      <trkpt lat="43.78449" lon="7.14336">
        <ele>815</ele>
        <time>2018-12-08T09:58:56.000Z</time>
      </trkpt>
      <trkpt lat="43.78449" lon="7.14335">
        <ele>815.20001220703</ele>
        <time>2018-12-08T09:58:57.000Z</time>
      </trkpt>
      <trkpt lat="43.78447" lon="7.14332">
        <ele>815.59997558594</ele>
        <time>2018-12-08T09:58:59.000Z</time>
      </trkpt>
      <trkpt lat="43.78441" lon="7.14325">
        <ele>816.40002441406</ele>
        <time>2018-12-08T09:59:05.000Z</time>
      </trkpt>
      <trkpt lat="43.78437" lon="7.14318">
        <ele>817.40002441406</ele>
        <time>2018-12-08T09:59:11.000Z</time>
      </trkpt>
      <trkpt lat="43.78436" lon="7.14316">
        <ele>817.40002441406</ele>
        <time>2018-12-08T09:59:12.000Z</time>
      </trkpt>
      <trkpt lat="43.78432" lon="7.14309">
        <ele>818.40002441406</ele>
        <time>2018-12-08T09:59:17.000Z</time>
      </trkpt>
      <trkpt lat="43.78426" lon="7.14305">
        <ele>819.59997558594</ele>
        <time>2018-12-08T09:59:23.000Z</time>
      </trkpt>
      <trkpt lat="43.78417" lon="7.14298">
        <ele>820.20001220703</ele>
        <time>2018-12-08T09:59:30.000Z</time>
      </trkpt>
      <trkpt lat="43.7841" lon="7.14293">
        <ele>820.59997558594</ele>
        <time>2018-12-08T09:59:36.000Z</time>
      </trkpt>
      <trkpt lat="43.78409" lon="7.14291">
        <ele>820.79998779297</ele>
        <time>2018-12-08T09:59:37.000Z</time>
      </trkpt>
      <trkpt lat="43.78405" lon="7.14287">
        <ele>821.59997558594</ele>
        <time>2018-12-08T09:59:41.000Z</time>
      </trkpt>
      <trkpt lat="43.78404" lon="7.14285">
        <ele>822</ele>
        <time>2018-12-08T09:59:43.000Z</time>
      </trkpt>
      <trkpt lat="43.78399" lon="7.14278">
        <ele>822.59997558594</ele>
        <time>2018-12-08T09:59:49.000Z</time>
      </trkpt>
      <trkpt lat="43.78397" lon="7.14276">
        <ele>823</ele>
        <time>2018-12-08T09:59:51.000Z</time>
      </trkpt>
      <trkpt lat="43.78391" lon="7.1427">
        <ele>823.79998779297</ele>
        <time>2018-12-08T09:59:57.000Z</time>
      </trkpt>
      <trkpt lat="43.7839" lon="7.14267">
        <ele>824</ele>
        <time>2018-12-08T09:59:59.000Z</time>
      </trkpt>
      <trkpt lat="43.78385" lon="7.14261">
        <ele>824.79998779297</ele>
        <time>2018-12-08T10:00:04.000Z</time>
      </trkpt>
      <trkpt lat="43.78383" lon="7.14258">
        <ele>825.20001220703</ele>
        <time>2018-12-08T10:00:07.000Z</time>
      </trkpt>
      <trkpt lat="43.7838" lon="7.14253">
        <ele>825.79998779297</ele>
        <time>2018-12-08T10:00:11.000Z</time>
      </trkpt>
      <trkpt lat="43.78379" lon="7.14251">
        <ele>826.20001220703</ele>
        <time>2018-12-08T10:00:15.000Z</time>
      </trkpt>
      <trkpt lat="43.78378" lon="7.1425">
        <ele>826.40002441406</ele>
        <time>2018-12-08T10:00:16.000Z</time>
      </trkpt>
      <trkpt lat="43.78375" lon="7.14247">
        <ele>827</ele>
        <time>2018-12-08T10:00:19.000Z</time>
      </trkpt>
      <trkpt lat="43.78374" lon="7.1424">
        <ele>827.40002441406</ele>
        <time>2018-12-08T10:00:23.000Z</time>
      </trkpt>
      <trkpt lat="43.78375" lon="7.14239">
        <ele>827.59997558594</ele>
        <time>2018-12-08T10:00:24.000Z</time>
      </trkpt>
      <trkpt lat="43.78381" lon="7.14236">
        <ele>828.40002441406</ele>
        <time>2018-12-08T10:00:29.000Z</time>
      </trkpt>
      <trkpt lat="43.78382" lon="7.14236">
        <ele>828.59997558594</ele>
        <time>2018-12-08T10:00:30.000Z</time>
      </trkpt>
      <trkpt lat="43.78387" lon="7.14235">
        <ele>829.20001220703</ele>
        <time>2018-12-08T10:00:36.000Z</time>
      </trkpt>
      <trkpt lat="43.78389" lon="7.14237">
        <ele>829.40002441406</ele>
        <time>2018-12-08T10:00:38.000Z</time>
      </trkpt>
      <trkpt lat="43.7839" lon="7.14238">
        <ele>829.59997558594</ele>
        <time>2018-12-08T10:00:39.000Z</time>
      </trkpt>
      <trkpt lat="43.78392" lon="7.1424">
        <ele>830.20001220703</ele>
        <time>2018-12-08T10:00:41.000Z</time>
      </trkpt>
      <trkpt lat="43.78396" lon="7.14241">
        <ele>830.59997558594</ele>
        <time>2018-12-08T10:00:44.000Z</time>
      </trkpt>
      <trkpt lat="43.78398" lon="7.14241">
        <ele>830.79998779297</ele>
        <time>2018-12-08T10:00:45.000Z</time>
      </trkpt>
      <trkpt lat="43.78405" lon="7.14243">
        <ele>831.59997558594</ele>
        <time>2018-12-08T10:00:52.000Z</time>
      </trkpt>
      <trkpt lat="43.78406" lon="7.14242">
        <ele>832</ele>
        <time>2018-12-08T10:00:53.000Z</time>
      </trkpt>
      <trkpt lat="43.78407" lon="7.14243">
        <ele>833.20001220703</ele>
        <time>2018-12-08T10:00:57.000Z</time>
      </trkpt>
      <trkpt lat="43.78408" lon="7.14243">
        <ele>833.40002441406</ele>
        <time>2018-12-08T10:00:59.000Z</time>
      </trkpt>
      <trkpt lat="43.78413" lon="7.14243">
        <ele>834.20001220703</ele>
        <time>2018-12-08T10:01:05.000Z</time>
      </trkpt>
      <trkpt lat="43.78415" lon="7.14243">
        <ele>834.59997558594</ele>
        <time>2018-12-08T10:01:08.000Z</time>
      </trkpt>
      <trkpt lat="43.78419" lon="7.14246">
        <ele>835.40002441406</ele>
        <time>2018-12-08T10:01:13.000Z</time>
      </trkpt>
      <trkpt lat="43.78421" lon="7.14248">
        <ele>836</ele>
        <time>2018-12-08T10:01:15.000Z</time>
      </trkpt>
      <trkpt lat="43.78424" lon="7.14251">
        <ele>836.59997558594</ele>
        <time>2018-12-08T10:01:19.000Z</time>
      </trkpt>
      <trkpt lat="43.78429" lon="7.14253">
        <ele>837.20001220703</ele>
        <time>2018-12-08T10:01:23.000Z</time>
      </trkpt>
      <trkpt lat="43.78434" lon="7.14254">
        <ele>837.59997558594</ele>
        <time>2018-12-08T10:01:28.000Z</time>
      </trkpt>
      <trkpt lat="43.78435" lon="7.14254">
        <ele>837.59997558594</ele>
        <time>2018-12-08T10:01:29.000Z</time>
      </trkpt>
      <trkpt lat="43.78444" lon="7.14258">
        <ele>838.59997558594</ele>
        <time>2018-12-08T10:01:37.000Z</time>
      </trkpt>
      <trkpt lat="43.78445" lon="7.14258">
        <ele>838.59997558594</ele>
        <time>2018-12-08T10:01:38.000Z</time>
      </trkpt>
      <trkpt lat="43.78454" lon="7.14261">
        <ele>839.79998779297</ele>
        <time>2018-12-08T10:01:46.000Z</time>
      </trkpt>
      <trkpt lat="43.7846" lon="7.14263">
        <ele>840.79998779297</ele>
        <time>2018-12-08T10:01:53.000Z</time>
      </trkpt>
      <trkpt lat="43.78463" lon="7.14264">
        <ele>841.79998779297</ele>
        <time>2018-12-08T10:01:57.000Z</time>
      </trkpt>
      <trkpt lat="43.78464" lon="7.14265">
        <ele>842</ele>
        <time>2018-12-08T10:01:58.000Z</time>
      </trkpt>
      <trkpt lat="43.78469" lon="7.14266">
        <ele>843</ele>
        <time>2018-12-08T10:02:04.000Z</time>
      </trkpt>
      <trkpt lat="43.7847" lon="7.14267">
        <ele>843.40002441406</ele>
        <time>2018-12-08T10:02:06.000Z</time>
      </trkpt>
      <trkpt lat="43.78473" lon="7.14269">
        <ele>844.20001220703</ele>
        <time>2018-12-08T10:02:12.000Z</time>
      </trkpt>
      <trkpt lat="43.78475" lon="7.1427">
        <ele>844.79998779297</ele>
        <time>2018-12-08T10:02:15.000Z</time>
      </trkpt>
      <trkpt lat="43.78477" lon="7.1427">
        <ele>845.40002441406</ele>
        <time>2018-12-08T10:02:18.000Z</time>
      </trkpt>
      <trkpt lat="43.7848" lon="7.14269">
        <ele>846.20001220703</ele>
        <time>2018-12-08T10:02:23.000Z</time>
      </trkpt>
      <trkpt lat="43.7848" lon="7.14269">
        <ele>846.40002441406</ele>
        <time>2018-12-08T10:02:24.000Z</time>
      </trkpt>
      <trkpt lat="43.78485" lon="7.14271">
        <ele>847.40002441406</ele>
        <time>2018-12-08T10:02:30.000Z</time>
      </trkpt>
      <trkpt lat="43.78486" lon="7.14272">
        <ele>847.79998779297</ele>
        <time>2018-12-08T10:02:32.000Z</time>
      </trkpt>
      <trkpt lat="43.78488" lon="7.14274">
        <ele>848.59997558594</ele>
        <time>2018-12-08T10:02:35.000Z</time>
      </trkpt>
      <trkpt lat="43.78491" lon="7.14275">
        <ele>849.59997558594</ele>
        <time>2018-12-08T10:02:40.000Z</time>
      </trkpt>
      <trkpt lat="43.78496" lon="7.14277">
        <ele>850.79998779297</ele>
        <time>2018-12-08T10:02:47.000Z</time>
      </trkpt>
      <trkpt lat="43.78497" lon="7.14277">
        <ele>850.79998779297</ele>
        <time>2018-12-08T10:02:48.000Z</time>
      </trkpt>
      <trkpt lat="43.78502" lon="7.14279">
        <ele>851.79998779297</ele>
        <time>2018-12-08T10:02:54.000Z</time>
      </trkpt>
      <trkpt lat="43.78502" lon="7.14279">
        <ele>852</ele>
        <time>2018-12-08T10:02:55.000Z</time>
      </trkpt>
      <trkpt lat="43.78507" lon="7.14282">
        <ele>853</ele>
        <time>2018-12-08T10:03:00.000Z</time>
      </trkpt>
      <trkpt lat="43.7851" lon="7.14284">
        <ele>853.20001220703</ele>
        <time>2018-12-08T10:03:04.000Z</time>
      </trkpt>
      <trkpt lat="43.78512" lon="7.14288">
        <ele>854</ele>
        <time>2018-12-08T10:03:08.000Z</time>
      </trkpt>
      <trkpt lat="43.78516" lon="7.14291">
        <ele>854.79998779297</ele>
        <time>2018-12-08T10:03:13.000Z</time>
      </trkpt>
      <trkpt lat="43.78517" lon="7.14291">
        <ele>855</ele>
        <time>2018-12-08T10:03:14.000Z</time>
      </trkpt>
      <trkpt lat="43.78524" lon="7.14292">
        <ele>856</ele>
        <time>2018-12-08T10:03:22.000Z</time>
      </trkpt>
      <trkpt lat="43.78525" lon="7.14292">
        <ele>856</ele>
        <time>2018-12-08T10:03:23.000Z</time>
      </trkpt>
      <trkpt lat="43.78531" lon="7.1429">
        <ele>857</ele>
        <time>2018-12-08T10:03:30.000Z</time>
      </trkpt>
      <trkpt lat="43.78531" lon="7.1429">
        <ele>857</ele>
        <time>2018-12-08T10:03:31.000Z</time>
      </trkpt>
      <trkpt lat="43.78534" lon="7.14289">
        <ele>857.79998779297</ele>
        <time>2018-12-08T10:03:36.000Z</time>
      </trkpt>
      <trkpt lat="43.78539" lon="7.1429">
        <ele>858</ele>
        <time>2018-12-08T10:03:41.000Z</time>
      </trkpt>
      <trkpt lat="43.78543" lon="7.14292">
        <ele>858.20001220703</ele>
        <time>2018-12-08T10:03:44.000Z</time>
      </trkpt>
      <trkpt lat="43.78548" lon="7.14296">
        <ele>859</ele>
        <time>2018-12-08T10:03:48.000Z</time>
      </trkpt>
      <trkpt lat="43.78549" lon="7.14297">
        <ele>859.20001220703</ele>
        <time>2018-12-08T10:03:49.000Z</time>
      </trkpt>
      <trkpt lat="43.78557" lon="7.14304">
        <ele>860</ele>
        <time>2018-12-08T10:03:55.000Z</time>
      </trkpt>
      <trkpt lat="43.78558" lon="7.14306">
        <ele>860</ele>
        <time>2018-12-08T10:03:56.000Z</time>
      </trkpt>
      <trkpt lat="43.78564" lon="7.14312">
        <ele>860.20001220703</ele>
        <time>2018-12-08T10:04:00.000Z</time>
      </trkpt>
      <trkpt lat="43.78566" lon="7.14312">
        <ele>860.20001220703</ele>
        <time>2018-12-08T10:04:01.000Z</time>
      </trkpt>
      <trkpt lat="43.7857" lon="7.14315">
        <ele>860.59997558594</ele>
        <time>2018-12-08T10:04:04.000Z</time>
      </trkpt>
      <trkpt lat="43.78576" lon="7.14317">
        <ele>861</ele>
        <time>2018-12-08T10:04:07.000Z</time>
      </trkpt>
      <trkpt lat="43.7858" lon="7.14319">
        <ele>861.40002441406</ele>
        <time>2018-12-08T10:04:09.000Z</time>
      </trkpt>
      <trkpt lat="43.78588" lon="7.14325">
        <ele>862.20001220703</ele>
        <time>2018-12-08T10:04:14.000Z</time>
      </trkpt>
      <trkpt lat="43.78591" lon="7.14328">
        <ele>862.59997558594</ele>
        <time>2018-12-08T10:04:16.000Z</time>
      </trkpt>
      <trkpt lat="43.78603" lon="7.14339">
        <ele>863</ele>
        <time>2018-12-08T10:04:23.000Z</time>
      </trkpt>
      <trkpt lat="43.78609" lon="7.14344">
        <ele>863.59997558594</ele>
        <time>2018-12-08T10:04:27.000Z</time>
      </trkpt>
      <trkpt lat="43.78617" lon="7.14349">
        <ele>864</ele>
        <time>2018-12-08T10:04:32.000Z</time>
      </trkpt>
      <trkpt lat="43.78621" lon="7.14351">
        <ele>864.59997558594</ele>
        <time>2018-12-08T10:04:35.000Z</time>
      </trkpt>
      <trkpt lat="43.78626" lon="7.14352">
        <ele>865.79998779297</ele>
        <time>2018-12-08T10:04:39.000Z</time>
      </trkpt>
      <trkpt lat="43.78628" lon="7.14352">
        <ele>866.20001220703</ele>
        <time>2018-12-08T10:04:40.000Z</time>
      </trkpt>
      <trkpt lat="43.78631" lon="7.1435">
        <ele>867</ele>
        <time>2018-12-08T10:04:43.000Z</time>
      </trkpt>
      <trkpt lat="43.78635" lon="7.14347">
        <ele>867.79998779297</ele>
        <time>2018-12-08T10:04:47.000Z</time>
      </trkpt>
      <trkpt lat="43.78636" lon="7.14346">
        <ele>868</ele>
        <time>2018-12-08T10:04:48.000Z</time>
      </trkpt>
      <trkpt lat="43.78641" lon="7.14344">
        <ele>869.40002441406</ele>
        <time>2018-12-08T10:04:52.000Z</time>
      </trkpt>
      <trkpt lat="43.78644" lon="7.14342">
        <ele>870.59997558594</ele>
        <time>2018-12-08T10:04:56.000Z</time>
      </trkpt>
      <trkpt lat="43.78646" lon="7.1434">
        <ele>870.79998779297</ele>
        <time>2018-12-08T10:04:58.000Z</time>
      </trkpt>
      <trkpt lat="43.78651" lon="7.14337">
        <ele>871.79998779297</ele>
        <time>2018-12-08T10:05:03.000Z</time>
      </trkpt>
      <trkpt lat="43.78651" lon="7.14336">
        <ele>871.79998779297</ele>
        <time>2018-12-08T10:05:04.000Z</time>
      </trkpt>
      <trkpt lat="43.78656" lon="7.14331">
        <ele>872.79998779297</ele>
        <time>2018-12-08T10:05:10.000Z</time>
      </trkpt>
      <trkpt lat="43.78658" lon="7.14328">
        <ele>873.20001220703</ele>
        <time>2018-12-08T10:05:12.000Z</time>
      </trkpt>
      <trkpt lat="43.7866" lon="7.14324">
        <ele>873.79998779297</ele>
        <time>2018-12-08T10:05:16.000Z</time>
      </trkpt>
      <trkpt lat="43.78661" lon="7.14321">
        <ele>874</ele>
        <time>2018-12-08T10:05:18.000Z</time>
      </trkpt>
      <trkpt lat="43.78665" lon="7.14316">
        <ele>874.79998779297</ele>
        <time>2018-12-08T10:05:23.000Z</time>
      </trkpt>
      <trkpt lat="43.78668" lon="7.14313">
        <ele>875.20001220703</ele>
        <time>2018-12-08T10:05:26.000Z</time>
      </trkpt>
      <trkpt lat="43.78673" lon="7.14311">
        <ele>875.79998779297</ele>
        <time>2018-12-08T10:05:30.000Z</time>
      </trkpt>
      <trkpt lat="43.78677" lon="7.14311">
        <ele>876.40002441406</ele>
        <time>2018-12-08T10:05:32.000Z</time>
      </trkpt>
      <trkpt lat="43.78681" lon="7.14312">
        <ele>877</ele>
        <time>2018-12-08T10:05:35.000Z</time>
      </trkpt>
      <trkpt lat="43.78686" lon="7.14314">
        <ele>877.40002441406</ele>
        <time>2018-12-08T10:05:39.000Z</time>
      </trkpt>
      <trkpt lat="43.78693" lon="7.14315">
        <ele>878</ele>
        <time>2018-12-08T10:05:45.000Z</time>
      </trkpt>
      <trkpt lat="43.78695" lon="7.14315">
        <ele>878.20001220703</ele>
        <time>2018-12-08T10:05:46.000Z</time>
      </trkpt>
      <trkpt lat="43.78704" lon="7.14316">
        <ele>879.20001220703</ele>
        <time>2018-12-08T10:05:53.000Z</time>
      </trkpt>
      <trkpt lat="43.78717" lon="7.14318">
        <ele>880.20001220703</ele>
        <time>2018-12-08T10:06:01.000Z</time>
      </trkpt>
      <trkpt lat="43.78719" lon="7.14319">
        <ele>880.40002441406</ele>
        <time>2018-12-08T10:06:02.000Z</time>
      </trkpt>
      <trkpt lat="43.78729" lon="7.14326">
        <ele>880.79998779297</ele>
        <time>2018-12-08T10:06:08.000Z</time>
      </trkpt>
      <trkpt lat="43.78733" lon="7.14329">
        <ele>881.40002441406</ele>
        <time>2018-12-08T10:06:11.000Z</time>
      </trkpt>
      <trkpt lat="43.78742" lon="7.14333">
        <ele>881.79998779297</ele>
        <time>2018-12-08T10:06:16.000Z</time>
      </trkpt>
      <trkpt lat="43.78752" lon="7.14336">
        <ele>882.59997558594</ele>
        <time>2018-12-08T10:06:22.000Z</time>
      </trkpt>
      <trkpt lat="43.78755" lon="7.14335">
        <ele>883</ele>
        <time>2018-12-08T10:06:24.000Z</time>
      </trkpt>
      <trkpt lat="43.78763" lon="7.14332">
        <ele>883.59997558594</ele>
        <time>2018-12-08T10:06:28.000Z</time>
      </trkpt>
      <trkpt lat="43.78766" lon="7.1433">
        <ele>884</ele>
        <time>2018-12-08T10:06:30.000Z</time>
      </trkpt>
      <trkpt lat="43.78774" lon="7.14318">
        <ele>884.59997558594</ele>
        <time>2018-12-08T10:06:36.000Z</time>
      </trkpt>
      <trkpt lat="43.78776" lon="7.14314">
        <ele>884.59997558594</ele>
        <time>2018-12-08T10:06:38.000Z</time>
      </trkpt>
      <trkpt lat="43.78783" lon="7.14296">
        <ele>885.40002441406</ele>
        <time>2018-12-08T10:06:45.000Z</time>
      </trkpt>
      <trkpt lat="43.78784" lon="7.14292">
        <ele>886</ele>
        <time>2018-12-08T10:06:47.000Z</time>
      </trkpt>
      <trkpt lat="43.78788" lon="7.14282">
        <ele>887.20001220703</ele>
        <time>2018-12-08T10:06:52.000Z</time>
      </trkpt>
      <trkpt lat="43.78789" lon="7.1428">
        <ele>887.40002441406</ele>
        <time>2018-12-08T10:06:53.000Z</time>
      </trkpt>
      <trkpt lat="43.78791" lon="7.14272">
        <ele>888.40002441406</ele>
        <time>2018-12-08T10:06:57.000Z</time>
      </trkpt>
      <trkpt lat="43.78792" lon="7.14266">
        <ele>889.79998779297</ele>
        <time>2018-12-08T10:07:01.000Z</time>
      </trkpt>
      <trkpt lat="43.78794" lon="7.1426">
        <ele>890.79998779297</ele>
        <time>2018-12-08T10:07:05.000Z</time>
      </trkpt>
      <trkpt lat="43.78794" lon="7.14258">
        <ele>891</ele>
        <time>2018-12-08T10:07:06.000Z</time>
      </trkpt>
      <trkpt lat="43.78796" lon="7.14251">
        <ele>891.79998779297</ele>
        <time>2018-12-08T10:07:10.000Z</time>
      </trkpt>
      <trkpt lat="43.78797" lon="7.14249">
        <ele>892</ele>
        <time>2018-12-08T10:07:11.000Z</time>
      </trkpt>
      <trkpt lat="43.78798" lon="7.14248">
        <ele>892.40002441406</ele>
        <time>2018-12-08T10:07:12.000Z</time>
      </trkpt>
      <trkpt lat="43.78802" lon="7.14239">
        <ele>893</ele>
        <time>2018-12-08T10:07:19.000Z</time>
      </trkpt>
      <trkpt lat="43.78802" lon="7.14238">
        <ele>893.20001220703</ele>
        <time>2018-12-08T10:07:20.000Z</time>
      </trkpt>
      <trkpt lat="43.78804" lon="7.14229">
        <ele>894.20001220703</ele>
        <time>2018-12-08T10:07:25.000Z</time>
      </trkpt>
      <trkpt lat="43.78805" lon="7.14228">
        <ele>894.20001220703</ele>
        <time>2018-12-08T10:07:26.000Z</time>
      </trkpt>
      <trkpt lat="43.7881" lon="7.14212">
        <ele>895</ele>
        <time>2018-12-08T10:07:34.000Z</time>
      </trkpt>
      <trkpt lat="43.78811" lon="7.14207">
        <ele>895.40002441406</ele>
        <time>2018-12-08T10:07:36.000Z</time>
      </trkpt>
      <trkpt lat="43.78815" lon="7.14193">
        <ele>895.79998779297</ele>
        <time>2018-12-08T10:07:42.000Z</time>
      </trkpt>
      <trkpt lat="43.78819" lon="7.14177">
        <ele>896.59997558594</ele>
        <time>2018-12-08T10:07:49.000Z</time>
      </trkpt>
      <trkpt lat="43.78819" lon="7.14175">
        <ele>896.59997558594</ele>
        <time>2018-12-08T10:07:50.000Z</time>
      </trkpt>
      <trkpt lat="43.78824" lon="7.14155">
        <ele>897.40002441406</ele>
        <time>2018-12-08T10:07:59.000Z</time>
      </trkpt>
      <trkpt lat="43.78825" lon="7.14153">
        <ele>897.59997558594</ele>
        <time>2018-12-08T10:08:00.000Z</time>
      </trkpt>
      <trkpt lat="43.78829" lon="7.14137">
        <ele>898.79998779297</ele>
        <time>2018-12-08T10:08:07.000Z</time>
      </trkpt>
      <trkpt lat="43.78833" lon="7.14119">
        <ele>899.79998779297</ele>
        <time>2018-12-08T10:08:15.000Z</time>
      </trkpt>
      <trkpt lat="43.78837" lon="7.14107">
        <ele>901</ele>
        <time>2018-12-08T10:08:21.000Z</time>
      </trkpt>
      <trkpt lat="43.78838" lon="7.14105">
        <ele>901</ele>
        <time>2018-12-08T10:08:22.000Z</time>
      </trkpt>
      <trkpt lat="43.78841" lon="7.14087">
        <ele>901.79998779297</ele>
        <time>2018-12-08T10:08:29.000Z</time>
      </trkpt>
      <trkpt lat="43.78841" lon="7.1408">
        <ele>902</ele>
        <time>2018-12-08T10:08:32.000Z</time>
      </trkpt>
      <trkpt lat="43.78839" lon="7.14071">
        <ele>902.79998779297</ele>
        <time>2018-12-08T10:08:36.000Z</time>
      </trkpt>
      <trkpt lat="43.78839" lon="7.14069">
        <ele>903.20001220703</ele>
        <time>2018-12-08T10:08:37.000Z</time>
      </trkpt>
      <trkpt lat="43.78834" lon="7.14059">
        <ele>904.20001220703</ele>
        <time>2018-12-08T10:08:42.000Z</time>
      </trkpt>
      <trkpt lat="43.78833" lon="7.14056">
        <ele>904.40002441406</ele>
        <time>2018-12-08T10:08:43.000Z</time>
      </trkpt>
      <trkpt lat="43.78828" lon="7.14046">
        <ele>905.20001220703</ele>
        <time>2018-12-08T10:08:49.000Z</time>
      </trkpt>
      <trkpt lat="43.78826" lon="7.14042">
        <ele>905.59997558594</ele>
        <time>2018-12-08T10:08:51.000Z</time>
      </trkpt>
      <trkpt lat="43.78824" lon="7.14039">
        <ele>906.40002441406</ele>
        <time>2018-12-08T10:08:54.000Z</time>
      </trkpt>
      <trkpt lat="43.78822" lon="7.14032">
        <ele>907.59997558594</ele>
        <time>2018-12-08T10:08:59.000Z</time>
      </trkpt>
      <trkpt lat="43.78823" lon="7.14027">
        <ele>908</ele>
        <time>2018-12-08T10:09:02.000Z</time>
      </trkpt>
      <trkpt lat="43.78824" lon="7.14025">
        <ele>908.40002441406</ele>
        <time>2018-12-08T10:09:04.000Z</time>
      </trkpt>
      <trkpt lat="43.78825" lon="7.14023">
        <ele>908.59997558594</ele>
        <time>2018-12-08T10:09:05.000Z</time>
      </trkpt>
      <trkpt lat="43.78827" lon="7.14019">
        <ele>909.59997558594</ele>
        <time>2018-12-08T10:09:09.000Z</time>
      </trkpt>
      <trkpt lat="43.78827" lon="7.14019">
        <ele>909.59997558594</ele>
        <time>2018-12-08T10:09:10.000Z</time>
      </trkpt>
      <trkpt lat="43.78833" lon="7.14017">
        <ele>910.40002441406</ele>
        <time>2018-12-08T10:09:16.000Z</time>
      </trkpt>
      <trkpt lat="43.78835" lon="7.14015">
        <ele>910.79998779297</ele>
        <time>2018-12-08T10:09:18.000Z</time>
      </trkpt>
      <trkpt lat="43.78838" lon="7.14012">
        <ele>911.59997558594</ele>
        <time>2018-12-08T10:09:22.000Z</time>
      </trkpt>
      <trkpt lat="43.78839" lon="7.14011">
        <ele>911.59997558594</ele>
        <time>2018-12-08T10:09:23.000Z</time>
      </trkpt>
      <trkpt lat="43.78841" lon="7.14009">
        <ele>912</ele>
        <time>2018-12-08T10:09:25.000Z</time>
      </trkpt>
      <trkpt lat="43.78845" lon="7.14007">
        <ele>912.79998779297</ele>
        <time>2018-12-08T10:09:29.000Z</time>
      </trkpt>
      <trkpt lat="43.78846" lon="7.14005">
        <ele>913.20001220703</ele>
        <time>2018-12-08T10:09:31.000Z</time>
      </trkpt>
      <trkpt lat="43.78848" lon="7.14002">
        <ele>913.79998779297</ele>
        <time>2018-12-08T10:09:34.000Z</time>
      </trkpt>
      <trkpt lat="43.78849" lon="7.13999">
        <ele>914.20001220703</ele>
        <time>2018-12-08T10:09:36.000Z</time>
      </trkpt>
      <trkpt lat="43.7885" lon="7.13999">
        <ele>914.20001220703</ele>
        <time>2018-12-08T10:09:37.000Z</time>
      </trkpt>
      <trkpt lat="43.78852" lon="7.13998">
        <ele>914.40002441406</ele>
        <time>2018-12-08T10:09:39.000Z</time>
      </trkpt>
      <trkpt lat="43.78857" lon="7.13995">
        <ele>915.20001220703</ele>
        <time>2018-12-08T10:09:44.000Z</time>
      </trkpt>
      <trkpt lat="43.78858" lon="7.13994">
        <ele>915.40002441406</ele>
        <time>2018-12-08T10:09:45.000Z</time>
      </trkpt>
      <trkpt lat="43.78863" lon="7.13992">
        <ele>916.20001220703</ele>
        <time>2018-12-08T10:09:49.000Z</time>
      </trkpt>
      <trkpt lat="43.78866" lon="7.13989">
        <ele>917</ele>
        <time>2018-12-08T10:09:52.000Z</time>
      </trkpt>
      <trkpt lat="43.78866" lon="7.13988">
        <ele>917.40002441406</ele>
        <time>2018-12-08T10:09:53.000Z</time>
      </trkpt>
      <trkpt lat="43.78867" lon="7.13988">
        <ele>917.79998779297</ele>
        <time>2018-12-08T10:09:54.000Z</time>
      </trkpt>
      <trkpt lat="43.78869" lon="7.13987">
        <ele>918.40002441406</ele>
        <time>2018-12-08T10:09:56.000Z</time>
      </trkpt>
      <trkpt lat="43.7887" lon="7.13985">
        <ele>918.79998779297</ele>
        <time>2018-12-08T10:09:58.000Z</time>
      </trkpt>
      <trkpt lat="43.78872" lon="7.13982">
        <ele>919.40002441406</ele>
        <time>2018-12-08T10:10:01.000Z</time>
      </trkpt>
      <trkpt lat="43.78875" lon="7.13975">
        <ele>920.20001220703</ele>
        <time>2018-12-08T10:10:06.000Z</time>
      </trkpt>
      <trkpt lat="43.78876" lon="7.13971">
        <ele>920.59997558594</ele>
        <time>2018-12-08T10:10:09.000Z</time>
      </trkpt>
      <trkpt lat="43.78878" lon="7.13968">
        <ele>921.20001220703</ele>
        <time>2018-12-08T10:10:12.000Z</time>
      </trkpt>
      <trkpt lat="43.78878" lon="7.13966">
        <ele>921.59997558594</ele>
        <time>2018-12-08T10:10:13.000Z</time>
      </trkpt>
      <trkpt lat="43.78879" lon="7.13963">
        <ele>922.40002441406</ele>
        <time>2018-12-08T10:10:16.000Z</time>
      </trkpt>
      <trkpt lat="43.7888" lon="7.13962">
        <ele>922.59997558594</ele>
        <time>2018-12-08T10:10:17.000Z</time>
      </trkpt>
      <trkpt lat="43.7888" lon="7.13961">
        <ele>922.79998779297</ele>
        <time>2018-12-08T10:10:18.000Z</time>
      </trkpt>
      <trkpt lat="43.78882" lon="7.13954">
        <ele>923.59997558594</ele>
        <time>2018-12-08T10:10:23.000Z</time>
      </trkpt>
      <trkpt lat="43.78883" lon="7.13952">
        <ele>924</ele>
        <time>2018-12-08T10:10:25.000Z</time>
      </trkpt>
      <trkpt lat="43.78885" lon="7.13946">
        <ele>924.79998779297</ele>
        <time>2018-12-08T10:10:30.000Z</time>
      </trkpt>
      <trkpt lat="43.78886" lon="7.1394">
        <ele>926</ele>
        <time>2018-12-08T10:10:35.000Z</time>
      </trkpt>
      <trkpt lat="43.78886" lon="7.13938">
        <ele>926.20001220703</ele>
        <time>2018-12-08T10:10:36.000Z</time>
      </trkpt>
      <trkpt lat="43.78888" lon="7.13934">
        <ele>927</ele>
        <time>2018-12-08T10:10:41.000Z</time>
      </trkpt>
      <trkpt lat="43.78887" lon="7.13934">
        <ele>927.20001220703</ele>
        <time>2018-12-08T10:10:42.000Z</time>
      </trkpt>
      <trkpt lat="43.78888" lon="7.13933">
        <ele>927.20001220703</ele>
        <time>2018-12-08T10:10:43.000Z</time>
      </trkpt>
      <trkpt lat="43.78889" lon="7.13929">
        <ele>927.59997558594</ele>
        <time>2018-12-08T10:10:47.000Z</time>
      </trkpt>
      <trkpt lat="43.78889" lon="7.13925">
        <ele>928.20001220703</ele>
        <time>2018-12-08T10:10:50.000Z</time>
      </trkpt>
      <trkpt lat="43.7889" lon="7.13923">
        <ele>928.59997558594</ele>
        <time>2018-12-08T10:10:52.000Z</time>
      </trkpt>
      <trkpt lat="43.78891" lon="7.13919">
        <ele>929.20001220703</ele>
        <time>2018-12-08T10:10:56.000Z</time>
      </trkpt>
      <trkpt lat="43.78892" lon="7.13916">
        <ele>929.20001220703</ele>
        <time>2018-12-08T10:10:58.000Z</time>
      </trkpt>
      <trkpt lat="43.78893" lon="7.13911">
        <ele>929.59997558594</ele>
        <time>2018-12-08T10:11:03.000Z</time>
      </trkpt>
      <trkpt lat="43.78893" lon="7.1391">
        <ele>929.59997558594</ele>
        <time>2018-12-08T10:11:04.000Z</time>
      </trkpt>
      <trkpt lat="43.78894" lon="7.13902">
        <ele>930</ele>
        <time>2018-12-08T10:11:09.000Z</time>
      </trkpt>
      <trkpt lat="43.78895" lon="7.13901">
        <ele>930.20001220703</ele>
        <time>2018-12-08T10:11:10.000Z</time>
      </trkpt>
      <trkpt lat="43.78895" lon="7.139">
        <ele>930.40002441406</ele>
        <time>2018-12-08T10:11:11.000Z</time>
      </trkpt>
      <trkpt lat="43.78898" lon="7.13894">
        <ele>930.79998779297</ele>
        <time>2018-12-08T10:11:15.000Z</time>
      </trkpt>
      <trkpt lat="43.78899" lon="7.13886">
        <ele>931.40002441406</ele>
        <time>2018-12-08T10:11:20.000Z</time>
      </trkpt>
      <trkpt lat="43.789" lon="7.13883">
        <ele>932</ele>
        <time>2018-12-08T10:11:22.000Z</time>
      </trkpt>
      <trkpt lat="43.78903" lon="7.13874">
        <ele>932.40002441406</ele>
        <time>2018-12-08T10:11:27.000Z</time>
      </trkpt>
      <trkpt lat="43.78905" lon="7.13869">
        <ele>932.79998779297</ele>
        <time>2018-12-08T10:11:30.000Z</time>
      </trkpt>
      <trkpt lat="43.78907" lon="7.13863">
        <ele>933.59997558594</ele>
        <time>2018-12-08T10:11:34.000Z</time>
      </trkpt>
      <trkpt lat="43.78908" lon="7.13857">
        <ele>934.40002441406</ele>
        <time>2018-12-08T10:11:38.000Z</time>
      </trkpt>
      <trkpt lat="43.78909" lon="7.13853">
        <ele>934.59997558594</ele>
        <time>2018-12-08T10:11:40.000Z</time>
      </trkpt>
      <trkpt lat="43.78911" lon="7.13845">
        <ele>935.40002441406</ele>
        <time>2018-12-08T10:11:45.000Z</time>
      </trkpt>
      <trkpt lat="43.78912" lon="7.13841">
        <ele>935.79998779297</ele>
        <time>2018-12-08T10:11:47.000Z</time>
      </trkpt>
      <trkpt lat="43.78915" lon="7.1383">
        <ele>936.40002441406</ele>
        <time>2018-12-08T10:11:53.000Z</time>
      </trkpt>
      <trkpt lat="43.78919" lon="7.13821">
        <ele>936.79998779297</ele>
        <time>2018-12-08T10:11:58.000Z</time>
      </trkpt>
      <trkpt lat="43.7892" lon="7.13817">
        <ele>937.20001220703</ele>
        <time>2018-12-08T10:12:00.000Z</time>
      </trkpt>
      <trkpt lat="43.78922" lon="7.13809">
        <ele>938</ele>
        <time>2018-12-08T10:12:04.000Z</time>
      </trkpt>
      <trkpt lat="43.78924" lon="7.13804">
        <ele>938</ele>
        <time>2018-12-08T10:12:06.000Z</time>
      </trkpt>
      <trkpt lat="43.7893" lon="7.13782">
        <ele>938</ele>
        <time>2018-12-08T10:12:13.000Z</time>
      </trkpt>
      <trkpt lat="43.78935" lon="7.13761">
        <ele>938</ele>
        <time>2018-12-08T10:12:19.000Z</time>
      </trkpt>
      <trkpt lat="43.78942" lon="7.13738">
        <ele>938.79998779297</ele>
        <time>2018-12-08T10:12:26.000Z</time>
      </trkpt>
      <trkpt lat="43.78948" lon="7.13711">
        <ele>938.20001220703</ele>
        <time>2018-12-08T10:12:32.000Z</time>
      </trkpt>
      <trkpt lat="43.78956" lon="7.13682">
        <ele>937.79998779297</ele>
        <time>2018-12-08T10:12:39.000Z</time>
      </trkpt>
      <trkpt lat="43.78963" lon="7.13659">
        <ele>938.40002441406</ele>
        <time>2018-12-08T10:12:45.000Z</time>
      </trkpt>
      <trkpt lat="43.78967" lon="7.13645">
        <ele>939</ele>
        <time>2018-12-08T10:12:50.000Z</time>
      </trkpt>
      <trkpt lat="43.78967" lon="7.13643">
        <ele>939.20001220703</ele>
        <time>2018-12-08T10:12:51.000Z</time>
      </trkpt>
      <trkpt lat="43.78971" lon="7.13633">
        <ele>940.20001220703</ele>
        <time>2018-12-08T10:12:56.000Z</time>
      </trkpt>
      <trkpt lat="43.78975" lon="7.13626">
        <ele>941.20001220703</ele>
        <time>2018-12-08T10:12:59.000Z</time>
      </trkpt>
      <trkpt lat="43.78975" lon="7.13623">
        <ele>941.40002441406</ele>
        <time>2018-12-08T10:13:00.000Z</time>
      </trkpt>
      <trkpt lat="43.78977" lon="7.13617">
        <ele>942.59997558594</ele>
        <time>2018-12-08T10:13:03.000Z</time>
      </trkpt>
      <trkpt lat="43.78978" lon="7.13614">
        <ele>943</ele>
        <time>2018-12-08T10:13:05.000Z</time>
      </trkpt>
      <trkpt lat="43.78979" lon="7.13611">
        <ele>943.59997558594</ele>
        <time>2018-12-08T10:13:07.000Z</time>
      </trkpt>
      <trkpt lat="43.78981" lon="7.13603">
        <ele>944.59997558594</ele>
        <time>2018-12-08T10:13:12.000Z</time>
      </trkpt>
      <trkpt lat="43.78981" lon="7.13602">
        <ele>944.59997558594</ele>
        <time>2018-12-08T10:13:13.000Z</time>
      </trkpt>
      <trkpt lat="43.78984" lon="7.13592">
        <ele>945.59997558594</ele>
        <time>2018-12-08T10:13:18.000Z</time>
      </trkpt>
      <trkpt lat="43.78985" lon="7.1359">
        <ele>945.59997558594</ele>
        <time>2018-12-08T10:13:19.000Z</time>
      </trkpt>
      <trkpt lat="43.78991" lon="7.13573">
        <ele>946.59997558594</ele>
        <time>2018-12-08T10:13:27.000Z</time>
      </trkpt>
      <trkpt lat="43.78999" lon="7.13552">
        <ele>946.59997558594</ele>
        <time>2018-12-08T10:13:34.000Z</time>
      </trkpt>
      <trkpt lat="43.79008" lon="7.13524">
        <ele>945.79998779297</ele>
        <time>2018-12-08T10:13:41.000Z</time>
      </trkpt>
      <trkpt lat="43.79011" lon="7.13514">
        <ele>945.59997558594</ele>
        <time>2018-12-08T10:13:43.000Z</time>
      </trkpt>
      <trkpt lat="43.7902" lon="7.13482">
        <ele>944.79998779297</ele>
        <time>2018-12-08T10:13:49.000Z</time>
      </trkpt>
      <trkpt lat="43.79024" lon="7.13469">
        <ele>944.59997558594</ele>
        <time>2018-12-08T10:13:51.000Z</time>
      </trkpt>
      <trkpt lat="43.79033" lon="7.13442">
        <ele>943</ele>
        <time>2018-12-08T10:13:55.000Z</time>
      </trkpt>
      <trkpt lat="43.79039" lon="7.13423">
        <ele>941.79998779297</ele>
        <time>2018-12-08T10:13:58.000Z</time>
      </trkpt>
      <trkpt lat="43.79043" lon="7.1341">
        <ele>941.20001220703</ele>
        <time>2018-12-08T10:14:00.000Z</time>
      </trkpt>
      <trkpt lat="43.79044" lon="7.13404">
        <ele>940.40002441406</ele>
        <time>2018-12-08T10:14:01.000Z</time>
      </trkpt>
      <trkpt lat="43.7905" lon="7.13385">
        <ele>938.79998779297</ele>
        <time>2018-12-08T10:14:04.000Z</time>
      </trkpt>
      <trkpt lat="43.79053" lon="7.13369">
        <ele>938.79998779297</ele>
        <time>2018-12-08T10:14:06.000Z</time>
      </trkpt>
      <trkpt lat="43.79054" lon="7.13363">
        <ele>938.20001220703</ele>
        <time>2018-12-08T10:14:07.000Z</time>
      </trkpt>
      <trkpt lat="43.79055" lon="7.13357">
        <ele>937.40002441406</ele>
        <time>2018-12-08T10:14:08.000Z</time>
      </trkpt>
      <trkpt lat="43.79058" lon="7.13346">
        <ele>936.40002441406</ele>
        <time>2018-12-08T10:14:10.000Z</time>
      </trkpt>
      <trkpt lat="43.79061" lon="7.13338">
        <ele>935.59997558594</ele>
        <time>2018-12-08T10:14:11.000Z</time>
      </trkpt>
      <trkpt lat="43.79067" lon="7.1332">
        <ele>934.59997558594</ele>
        <time>2018-12-08T10:14:13.000Z</time>
      </trkpt>
      <trkpt lat="43.79069" lon="7.13311">
        <ele>933.79998779297</ele>
        <time>2018-12-08T10:14:14.000Z</time>
      </trkpt>
      <trkpt lat="43.79073" lon="7.13302">
        <ele>932.40002441406</ele>
        <time>2018-12-08T10:14:15.000Z</time>
      </trkpt>
      <trkpt lat="43.79076" lon="7.13294">
        <ele>930.79998779297</ele>
        <time>2018-12-08T10:14:16.000Z</time>
      </trkpt>
      <trkpt lat="43.79079" lon="7.13287">
        <ele>929.59997558594</ele>
        <time>2018-12-08T10:14:17.000Z</time>
      </trkpt>
      <trkpt lat="43.79081" lon="7.13282">
        <ele>928.40002441406</ele>
        <time>2018-12-08T10:14:18.000Z</time>
      </trkpt>
      <trkpt lat="43.79082" lon="7.13275">
        <ele>928.20001220703</ele>
        <time>2018-12-08T10:14:20.000Z</time>
      </trkpt>
      <trkpt lat="43.79084" lon="7.13268">
        <ele>930.59997558594</ele>
        <time>2018-12-08T10:14:23.000Z</time>
      </trkpt>
      <trkpt lat="43.79086" lon="7.13262">
        <ele>931.59997558594</ele>
        <time>2018-12-08T10:14:25.000Z</time>
      </trkpt>
      <trkpt lat="43.79087" lon="7.13258">
        <ele>931.79998779297</ele>
        <time>2018-12-08T10:14:26.000Z</time>
      </trkpt>
      <trkpt lat="43.79096" lon="7.13232">
        <ele>931.79998779297</ele>
        <time>2018-12-08T10:14:31.000Z</time>
      </trkpt>
      <trkpt lat="43.791" lon="7.13219">
        <ele>931.20001220703</ele>
        <time>2018-12-08T10:14:35.000Z</time>
      </trkpt>
      <trkpt lat="43.79103" lon="7.13209">
        <ele>932.79998779297</ele>
        <time>2018-12-08T10:14:39.000Z</time>
      </trkpt>
      <trkpt lat="43.79106" lon="7.13199">
        <ele>933</ele>
        <time>2018-12-08T10:14:42.000Z</time>
      </trkpt>
      <trkpt lat="43.79113" lon="7.13173">
        <ele>932.59997558594</ele>
        <time>2018-12-08T10:14:49.000Z</time>
      </trkpt>
      <trkpt lat="43.79116" lon="7.13157">
        <ele>933.79998779297</ele>
        <time>2018-12-08T10:14:54.000Z</time>
      </trkpt>
      <trkpt lat="43.79117" lon="7.13153">
        <ele>934</ele>
        <time>2018-12-08T10:14:55.000Z</time>
      </trkpt>
      <trkpt lat="43.7912" lon="7.13133">
        <ele>934.40002441406</ele>
        <time>2018-12-08T10:15:00.000Z</time>
      </trkpt>
      <trkpt lat="43.79123" lon="7.13125">
        <ele>935.20001220703</ele>
        <time>2018-12-08T10:15:03.000Z</time>
      </trkpt>
      <trkpt lat="43.79126" lon="7.13121">
        <ele>935.40002441406</ele>
        <time>2018-12-08T10:15:05.000Z</time>
      </trkpt>
      <trkpt lat="43.79132" lon="7.13105">
        <ele>936</ele>
        <time>2018-12-08T10:15:12.000Z</time>
      </trkpt>
      <trkpt lat="43.79133" lon="7.13104">
        <ele>936.20001220703</ele>
        <time>2018-12-08T10:15:13.000Z</time>
      </trkpt>
      <trkpt lat="43.79136" lon="7.13097">
        <ele>937.20001220703</ele>
        <time>2018-12-08T10:15:18.000Z</time>
      </trkpt>
      <trkpt lat="43.79136" lon="7.13096">
        <ele>937.40002441406</ele>
        <time>2018-12-08T10:15:19.000Z</time>
      </trkpt>
      <trkpt lat="43.79138" lon="7.1309">
        <ele>938</ele>
        <time>2018-12-08T10:15:23.000Z</time>
      </trkpt>
      <trkpt lat="43.79138" lon="7.1309">
        <ele>938.40002441406</ele>
        <time>2018-12-08T10:15:26.000Z</time>
      </trkpt>
      <trkpt lat="43.79138" lon="7.1309">
        <ele>938.79998779297</ele>
        <time>2018-12-08T10:15:28.000Z</time>
      </trkpt>
      <trkpt lat="43.79137" lon="7.13089">
        <ele>938.79998779297</ele>
        <time>2018-12-08T10:15:54.000Z</time>
      </trkpt>
      <trkpt lat="43.79137" lon="7.13089">
        <ele>939.40002441406</ele>
        <time>2018-12-08T10:16:03.000Z</time>
      </trkpt>
      <trkpt lat="43.79137" lon="7.13089">
        <ele>939.59997558594</ele>
        <time>2018-12-08T10:16:05.000Z</time>
      </trkpt>
      <trkpt lat="43.79137" lon="7.13088">
        <ele>939.20001220703</ele>
        <time>2018-12-08T10:16:14.000Z</time>
      </trkpt>
      <trkpt lat="43.79137" lon="7.13086">
        <ele>939.59997558594</ele>
        <time>2018-12-08T10:16:20.000Z</time>
      </trkpt>
      <trkpt lat="43.79134" lon="7.13082">
        <ele>939.59997558594</ele>
        <time>2018-12-08T10:16:25.000Z</time>
      </trkpt>
      <trkpt lat="43.79127" lon="7.13076">
        <ele>939.40002441406</ele>
        <time>2018-12-08T10:16:28.000Z</time>
      </trkpt>
      <trkpt lat="43.79123" lon="7.13073">
        <ele>939.20001220703</ele>
        <time>2018-12-08T10:16:29.000Z</time>
      </trkpt>
      <trkpt lat="43.79115" lon="7.13069">
        <ele>937.59997558594</ele>
        <time>2018-12-08T10:16:31.000Z</time>
      </trkpt>
      <trkpt lat="43.79109" lon="7.13064">
        <ele>936.20001220703</ele>
        <time>2018-12-08T10:16:33.000Z</time>
      </trkpt>
      <trkpt lat="43.79106" lon="7.13062">
        <ele>936</ele>
        <time>2018-12-08T10:16:34.000Z</time>
      </trkpt>
      <trkpt lat="43.79099" lon="7.13063">
        <ele>935.20001220703</ele>
        <time>2018-12-08T10:16:36.000Z</time>
      </trkpt>
      <trkpt lat="43.79094" lon="7.13066">
        <ele>934.79998779297</ele>
        <time>2018-12-08T10:16:37.000Z</time>
      </trkpt>
      <trkpt lat="43.79087" lon="7.13071">
        <ele>933</ele>
        <time>2018-12-08T10:16:39.000Z</time>
      </trkpt>
      <trkpt lat="43.79084" lon="7.13069">
        <ele>932.79998779297</ele>
        <time>2018-12-08T10:16:40.000Z</time>
      </trkpt>
      <trkpt lat="43.79073" lon="7.13069">
        <ele>932</ele>
        <time>2018-12-08T10:16:43.000Z</time>
      </trkpt>
      <trkpt lat="43.7907" lon="7.13071">
        <ele>931.59997558594</ele>
        <time>2018-12-08T10:16:44.000Z</time>
      </trkpt>
      <trkpt lat="43.79066" lon="7.13074">
        <ele>930.59997558594</ele>
        <time>2018-12-08T10:16:45.000Z</time>
      </trkpt>
      <trkpt lat="43.79057" lon="7.1308">
        <ele>929</ele>
        <time>2018-12-08T10:16:47.000Z</time>
      </trkpt>
      <trkpt lat="43.79051" lon="7.13084">
        <ele>928</ele>
        <time>2018-12-08T10:16:48.000Z</time>
      </trkpt>
      <trkpt lat="43.79047" lon="7.13087">
        <ele>926.40002441406</ele>
        <time>2018-12-08T10:16:49.000Z</time>
      </trkpt>
      <trkpt lat="43.79038" lon="7.13095">
        <ele>925</ele>
        <time>2018-12-08T10:16:51.000Z</time>
      </trkpt>
      <trkpt lat="43.79036" lon="7.131">
        <ele>924</ele>
        <time>2018-12-08T10:16:52.000Z</time>
      </trkpt>
      <trkpt lat="43.79033" lon="7.13113">
        <ele>922.79998779297</ele>
        <time>2018-12-08T10:16:54.000Z</time>
      </trkpt>
      <trkpt lat="43.7903" lon="7.13119">
        <ele>921.59997558594</ele>
        <time>2018-12-08T10:16:55.000Z</time>
      </trkpt>
      <trkpt lat="43.79023" lon="7.13127">
        <ele>920.40002441406</ele>
        <time>2018-12-08T10:16:57.000Z</time>
      </trkpt>
      <trkpt lat="43.79017" lon="7.13133">
        <ele>920.20001220703</ele>
        <time>2018-12-08T10:16:59.000Z</time>
      </trkpt>
      <trkpt lat="43.79005" lon="7.13139">
        <ele>920</ele>
        <time>2018-12-08T10:17:02.000Z</time>
      </trkpt>
      <trkpt lat="43.78999" lon="7.13143">
        <ele>920</ele>
        <time>2018-12-08T10:17:04.000Z</time>
      </trkpt>
      <trkpt lat="43.78984" lon="7.1316">
        <ele>921.59997558594</ele>
        <time>2018-12-08T10:17:10.000Z</time>
      </trkpt>
      <trkpt lat="43.78976" lon="7.13168">
        <ele>922.59997558594</ele>
        <time>2018-12-08T10:17:14.000Z</time>
      </trkpt>
      <trkpt lat="43.7897" lon="7.13175">
        <ele>923.20001220703</ele>
        <time>2018-12-08T10:17:17.000Z</time>
      </trkpt>
      <trkpt lat="43.78953" lon="7.13201">
        <ele>923.59997558594</ele>
        <time>2018-12-08T10:17:26.000Z</time>
      </trkpt>
      <trkpt lat="43.78945" lon="7.13215">
        <ele>923.40002441406</ele>
        <time>2018-12-08T10:17:31.000Z</time>
      </trkpt>
      <trkpt lat="43.78934" lon="7.13222">
        <ele>923</ele>
        <time>2018-12-08T10:17:35.000Z</time>
      </trkpt>
      <trkpt lat="43.7891" lon="7.1323">
        <ele>921.59997558594</ele>
        <time>2018-12-08T10:17:41.000Z</time>
      </trkpt>
      <trkpt lat="43.78906" lon="7.13231">
        <ele>921.59997558594</ele>
        <time>2018-12-08T10:17:42.000Z</time>
      </trkpt>
      <trkpt lat="43.78893" lon="7.13235">
        <ele>920.79998779297</ele>
        <time>2018-12-08T10:17:46.000Z</time>
      </trkpt>
      <trkpt lat="43.78878" lon="7.13246">
        <ele>920.79998779297</ele>
        <time>2018-12-08T10:17:51.000Z</time>
      </trkpt>
      <trkpt lat="43.78858" lon="7.13259">
        <ele>920.59997558594</ele>
        <time>2018-12-08T10:17:57.000Z</time>
      </trkpt>
      <trkpt lat="43.78846" lon="7.13268">
        <ele>920.40002441406</ele>
        <time>2018-12-08T10:18:02.000Z</time>
      </trkpt>
      <trkpt lat="43.78841" lon="7.13277">
        <ele>921</ele>
        <time>2018-12-08T10:18:05.000Z</time>
      </trkpt>
      <trkpt lat="43.78841" lon="7.13284">
        <ele>921</ele>
        <time>2018-12-08T10:18:07.000Z</time>
      </trkpt>
      <trkpt lat="43.78841" lon="7.13286">
        <ele>921</ele>
        <time>2018-12-08T10:18:08.000Z</time>
      </trkpt>
      <trkpt lat="43.78838" lon="7.1329">
        <ele>921.40002441406</ele>
        <time>2018-12-08T10:18:10.000Z</time>
      </trkpt>
      <trkpt lat="43.78836" lon="7.13292">
        <ele>921.59997558594</ele>
        <time>2018-12-08T10:18:11.000Z</time>
      </trkpt>
      <trkpt lat="43.78831" lon="7.133">
        <ele>922</ele>
        <time>2018-12-08T10:18:14.000Z</time>
      </trkpt>
      <trkpt lat="43.78828" lon="7.13302">
        <ele>922</ele>
        <time>2018-12-08T10:18:15.000Z</time>
      </trkpt>
      <trkpt lat="43.78809" lon="7.13315">
        <ele>921.59997558594</ele>
        <time>2018-12-08T10:18:21.000Z</time>
      </trkpt>
      <trkpt lat="43.78782" lon="7.13326">
        <ele>921</ele>
        <time>2018-12-08T10:18:28.000Z</time>
      </trkpt>
      <trkpt lat="43.78768" lon="7.13329">
        <ele>920.79998779297</ele>
        <time>2018-12-08T10:18:33.000Z</time>
      </trkpt>
      <trkpt lat="43.78755" lon="7.13329">
        <ele>920.59997558594</ele>
        <time>2018-12-08T10:18:36.000Z</time>
      </trkpt>
      <trkpt lat="43.78751" lon="7.13328">
        <ele>920.59997558594</ele>
        <time>2018-12-08T10:18:37.000Z</time>
      </trkpt>
      <trkpt lat="43.78743" lon="7.13325">
        <ele>919.79998779297</ele>
        <time>2018-12-08T10:18:39.000Z</time>
      </trkpt>
      <trkpt lat="43.78736" lon="7.13319">
        <ele>919</ele>
        <time>2018-12-08T10:18:41.000Z</time>
      </trkpt>
      <trkpt lat="43.78732" lon="7.13316">
        <ele>918.40002441406</ele>
        <time>2018-12-08T10:18:42.000Z</time>
      </trkpt>
      <trkpt lat="43.78729" lon="7.13314">
        <ele>917.59997558594</ele>
        <time>2018-12-08T10:18:43.000Z</time>
      </trkpt>
      <trkpt lat="43.78726" lon="7.13316">
        <ele>917.40002441406</ele>
        <time>2018-12-08T10:18:44.000Z</time>
      </trkpt>
      <trkpt lat="43.78724" lon="7.13319">
        <ele>916.79998779297</ele>
        <time>2018-12-08T10:18:45.000Z</time>
      </trkpt>
      <trkpt lat="43.78721" lon="7.13324">
        <ele>916.40002441406</ele>
        <time>2018-12-08T10:18:46.000Z</time>
      </trkpt>
      <trkpt lat="43.78718" lon="7.13327">
        <ele>915.79998779297</ele>
        <time>2018-12-08T10:18:47.000Z</time>
      </trkpt>
      <trkpt lat="43.78715" lon="7.13327">
        <ele>915.40002441406</ele>
        <time>2018-12-08T10:18:48.000Z</time>
      </trkpt>
      <trkpt lat="43.78707" lon="7.13323">
        <ele>913.79998779297</ele>
        <time>2018-12-08T10:18:51.000Z</time>
      </trkpt>
      <trkpt lat="43.78702" lon="7.13321">
        <ele>913.79998779297</ele>
        <time>2018-12-08T10:18:53.000Z</time>
      </trkpt>
      <trkpt lat="43.78696" lon="7.13317">
        <ele>913.59997558594</ele>
        <time>2018-12-08T10:18:55.000Z</time>
      </trkpt>
      <trkpt lat="43.78687" lon="7.13317">
        <ele>913.40002441406</ele>
        <time>2018-12-08T10:18:58.000Z</time>
      </trkpt>
      <trkpt lat="43.78683" lon="7.13318">
        <ele>913.40002441406</ele>
        <time>2018-12-08T10:18:59.000Z</time>
      </trkpt>
      <trkpt lat="43.78673" lon="7.13315">
        <ele>913.59997558594</ele>
        <time>2018-12-08T10:19:02.000Z</time>
      </trkpt>
      <trkpt lat="43.7867" lon="7.13315">
        <ele>913.79998779297</ele>
        <time>2018-12-08T10:19:03.000Z</time>
      </trkpt>
      <trkpt lat="43.78642" lon="7.13315">
        <ele>914.40002441406</ele>
        <time>2018-12-08T10:19:11.000Z</time>
      </trkpt>
      <trkpt lat="43.7863" lon="7.13318">
        <ele>914.40002441406</ele>
        <time>2018-12-08T10:19:16.000Z</time>
      </trkpt>
      <trkpt lat="43.7863" lon="7.13317">
        <ele>914.40002441406</ele>
        <time>2018-12-08T10:19:23.000Z</time>
      </trkpt>
      <trkpt lat="43.78629" lon="7.13318">
        <ele>914.20001220703</ele>
        <time>2018-12-08T10:19:35.000Z</time>
      </trkpt>
      <trkpt lat="43.78628" lon="7.13318">
        <ele>914.40002441406</ele>
        <time>2018-12-08T10:19:47.000Z</time>
      </trkpt>
      <trkpt lat="43.78627" lon="7.13318">
        <ele>914.20001220703</ele>
        <time>2018-12-08T10:20:03.000Z</time>
      </trkpt>
      <trkpt lat="43.78626" lon="7.13318">
        <ele>914.79998779297</ele>
        <time>2018-12-08T10:20:14.000Z</time>
      </trkpt>
      <trkpt lat="43.78626" lon="7.13318">
        <ele>914.79998779297</ele>
        <time>2018-12-08T10:20:16.000Z</time>
      </trkpt>
      <trkpt lat="43.78626" lon="7.13318">
        <ele>914.59997558594</ele>
        <time>2018-12-08T10:20:36.000Z</time>
      </trkpt>
      <trkpt lat="43.78625" lon="7.13318">
        <ele>914.79998779297</ele>
        <time>2018-12-08T10:20:47.000Z</time>
      </trkpt>
      <trkpt lat="43.78626" lon="7.13318">
        <ele>914.20001220703</ele>
        <time>2018-12-08T10:20:55.000Z</time>
      </trkpt>
      <trkpt lat="43.78633" lon="7.13316">
        <ele>914.40002441406</ele>
        <time>2018-12-08T10:21:01.000Z</time>
      </trkpt>
      <trkpt lat="43.78641" lon="7.13314">
        <ele>914.79998779297</ele>
        <time>2018-12-08T10:21:07.000Z</time>
      </trkpt>
      <trkpt lat="43.78641" lon="7.13315">
        <ele>914.79998779297</ele>
        <time>2018-12-08T10:21:12.000Z</time>
      </trkpt>
      <trkpt lat="43.78642" lon="7.13315">
        <ele>914.59997558594</ele>
        <time>2018-12-08T10:21:29.000Z</time>
      </trkpt>
      <trkpt lat="43.78644" lon="7.13315">
        <ele>914.20001220703</ele>
        <time>2018-12-08T10:21:49.000Z</time>
      </trkpt>
      <trkpt lat="43.78644" lon="7.13315">
        <ele>914.59997558594</ele>
        <time>2018-12-08T10:22:05.000Z</time>
      </trkpt>
      <trkpt lat="43.78643" lon="7.13315">
        <ele>914.20001220703</ele>
        <time>2018-12-08T10:22:24.000Z</time>
      </trkpt>
      <trkpt lat="43.78642" lon="7.13315">
        <ele>914.20001220703</ele>
        <time>2018-12-08T10:22:48.000Z</time>
      </trkpt>
      <trkpt lat="43.78642" lon="7.13315">
        <ele>914.20001220703</ele>
        <time>2018-12-08T10:23:09.000Z</time>
      </trkpt>
      <trkpt lat="43.78642" lon="7.13315">
        <ele>914</ele>
        <time>2018-12-08T10:23:29.000Z</time>
      </trkpt>
      <trkpt lat="43.78643" lon="7.13315">
        <ele>914.20001220703</ele>
        <time>2018-12-08T10:23:50.000Z</time>
      </trkpt>
      <trkpt lat="43.78644" lon="7.13314">
        <ele>914</ele>
        <time>2018-12-08T10:24:10.000Z</time>
      </trkpt>
      <trkpt lat="43.78644" lon="7.13314">
        <ele>914</ele>
        <time>2018-12-08T10:24:29.000Z</time>
      </trkpt>
      <trkpt lat="43.78644" lon="7.13315">
        <ele>913.79998779297</ele>
        <time>2018-12-08T10:24:42.000Z</time>
      </trkpt>
      <trkpt lat="43.78644" lon="7.13315">
        <ele>913.79998779297</ele>
        <time>2018-12-08T10:24:45.000Z</time>
      </trkpt>
      <trkpt lat="43.78644" lon="7.13314">
        <ele>913.79998779297</ele>
        <time>2018-12-08T10:25:06.000Z</time>
      </trkpt>
      <trkpt lat="43.78643" lon="7.13314">
        <ele>913.79998779297</ele>
        <time>2018-12-08T10:25:33.000Z</time>
      </trkpt>
      <trkpt lat="43.78643" lon="7.13314">
        <ele>913.79998779297</ele>
        <time>2018-12-08T10:25:53.000Z</time>
      </trkpt>
      <trkpt lat="43.78644" lon="7.13314">
        <ele>913.59997558594</ele>
        <time>2018-12-08T10:26:06.000Z</time>
      </trkpt>
      <trkpt lat="43.78643" lon="7.13315">
        <ele>913.79998779297</ele>
        <time>2018-12-08T10:26:16.000Z</time>
      </trkpt>
      <trkpt lat="43.78643" lon="7.13315">
        <ele>913.79998779297</ele>
        <time>2018-12-08T10:26:27.000Z</time>
      </trkpt>
      <trkpt lat="43.78643" lon="7.13316">
        <ele>913.79998779297</ele>
        <time>2018-12-08T10:26:46.000Z</time>
      </trkpt>
      <trkpt lat="43.78643" lon="7.13316">
        <ele>913.59997558594</ele>
        <time>2018-12-08T10:27:14.000Z</time>
      </trkpt>
      <trkpt lat="43.78642" lon="7.13315">
        <ele>913.59997558594</ele>
        <time>2018-12-08T10:27:26.000Z</time>
      </trkpt>
      <trkpt lat="43.78642" lon="7.13315">
        <ele>913.59997558594</ele>
        <time>2018-12-08T10:27:36.000Z</time>
      </trkpt>
      <trkpt lat="43.78641" lon="7.13315">
        <ele>913.40002441406</ele>
        <time>2018-12-08T10:28:04.000Z</time>
      </trkpt>
      <trkpt lat="43.78641" lon="7.13314">
        <ele>913.40002441406</ele>
        <time>2018-12-08T10:28:15.000Z</time>
      </trkpt>
      <trkpt lat="43.78642" lon="7.13314">
        <ele>913.20001220703</ele>
        <time>2018-12-08T10:28:34.000Z</time>
      </trkpt>
      <trkpt lat="43.78642" lon="7.13314">
        <ele>913.20001220703</ele>
        <time>2018-12-08T10:28:52.000Z</time>
      </trkpt>
      <trkpt lat="43.78641" lon="7.13313">
        <ele>913.20001220703</ele>
        <time>2018-12-08T10:28:58.000Z</time>
      </trkpt>
      <trkpt lat="43.78641" lon="7.13313">
        <ele>913</ele>
        <time>2018-12-08T10:29:16.000Z</time>
      </trkpt>
      <trkpt lat="43.78642" lon="7.13315">
        <ele>912.79998779297</ele>
        <time>2018-12-08T10:29:26.000Z</time>
      </trkpt>
      <trkpt lat="43.78641" lon="7.13315">
        <ele>912.79998779297</ele>
        <time>2018-12-08T10:29:27.000Z</time>
      </trkpt>
      <trkpt lat="43.78639" lon="7.13315">
        <ele>912.79998779297</ele>
        <time>2018-12-08T10:29:33.000Z</time>
      </trkpt>
      <trkpt lat="43.78637" lon="7.13316">
        <ele>912.79998779297</ele>
        <time>2018-12-08T10:29:39.000Z</time>
      </trkpt>
      <trkpt lat="43.78636" lon="7.13316">
        <ele>912.40002441406</ele>
        <time>2018-12-08T10:29:47.000Z</time>
      </trkpt>
      <trkpt lat="43.78635" lon="7.13315">
        <ele>912.20001220703</ele>
        <time>2018-12-08T10:30:10.000Z</time>
      </trkpt>
      <trkpt lat="43.78636" lon="7.13314">
        <ele>912.79998779297</ele>
        <time>2018-12-08T10:30:16.000Z</time>
      </trkpt>
      <trkpt lat="43.78636" lon="7.13314">
        <ele>913</ele>
        <time>2018-12-08T10:30:33.000Z</time>
      </trkpt>
      <trkpt lat="43.78636" lon="7.13314">
        <ele>912.20001220703</ele>
        <time>2018-12-08T10:30:47.000Z</time>
      </trkpt>
      <trkpt lat="43.78638" lon="7.13315">
        <ele>913</ele>
        <time>2018-12-08T10:31:06.000Z</time>
      </trkpt>
      <trkpt lat="43.78639" lon="7.13315">
        <ele>913</ele>
        <time>2018-12-08T10:31:15.000Z</time>
      </trkpt>
      <trkpt lat="43.78639" lon="7.13316">
        <ele>913.20001220703</ele>
        <time>2018-12-08T10:31:28.000Z</time>
      </trkpt>
      <trkpt lat="43.7864" lon="7.13315">
        <ele>913</ele>
        <time>2018-12-08T10:31:36.000Z</time>
      </trkpt>
      <trkpt lat="43.78641" lon="7.13316">
        <ele>912.79998779297</ele>
        <time>2018-12-08T10:31:42.000Z</time>
      </trkpt>
      <trkpt lat="43.78641" lon="7.13315">
        <ele>912.20001220703</ele>
        <time>2018-12-08T10:31:54.000Z</time>
      </trkpt>
      <trkpt lat="43.7864" lon="7.13315">
        <ele>912.79998779297</ele>
        <time>2018-12-08T10:32:01.000Z</time>
      </trkpt>
      <trkpt lat="43.7864" lon="7.13316">
        <ele>913</ele>
        <time>2018-12-08T10:32:11.000Z</time>
      </trkpt>
      <trkpt lat="43.7864" lon="7.13316">
        <ele>913.20001220703</ele>
        <time>2018-12-08T10:32:20.000Z</time>
      </trkpt>
      <trkpt lat="43.7864" lon="7.13316">
        <ele>913</ele>
        <time>2018-12-08T10:32:42.000Z</time>
      </trkpt>
      <trkpt lat="43.7864" lon="7.13316">
        <ele>913</ele>
        <time>2018-12-08T10:33:07.000Z</time>
      </trkpt>
      <trkpt lat="43.7864" lon="7.13315">
        <ele>913.20001220703</ele>
        <time>2018-12-08T10:33:21.000Z</time>
      </trkpt>
      <trkpt lat="43.78634" lon="7.13311">
        <ele>913</ele>
        <time>2018-12-08T10:33:28.000Z</time>
      </trkpt>
      <trkpt lat="43.78632" lon="7.13312">
        <ele>913</ele>
        <time>2018-12-08T10:33:29.000Z</time>
      </trkpt>
      <trkpt lat="43.78627" lon="7.13311">
        <ele>912.59997558594</ele>
        <time>2018-12-08T10:33:31.000Z</time>
      </trkpt>
      <trkpt lat="43.7862" lon="7.13302">
        <ele>912.40002441406</ele>
        <time>2018-12-08T10:33:34.000Z</time>
      </trkpt>
      <trkpt lat="43.78617" lon="7.13299">
        <ele>912.20001220703</ele>
        <time>2018-12-08T10:33:35.000Z</time>
      </trkpt>
      <trkpt lat="43.78607" lon="7.13291">
        <ele>911.20001220703</ele>
        <time>2018-12-08T10:33:38.000Z</time>
      </trkpt>
      <trkpt lat="43.78602" lon="7.13288">
        <ele>910.59997558594</ele>
        <time>2018-12-08T10:33:39.000Z</time>
      </trkpt>
      <trkpt lat="43.78596" lon="7.13287">
        <ele>909.79998779297</ele>
        <time>2018-12-08T10:33:40.000Z</time>
      </trkpt>
      <trkpt lat="43.78586" lon="7.1328">
        <ele>908.79998779297</ele>
        <time>2018-12-08T10:33:42.000Z</time>
      </trkpt>
      <trkpt lat="43.78577" lon="7.1327">
        <ele>907.79998779297</ele>
        <time>2018-12-08T10:33:44.000Z</time>
      </trkpt>
      <trkpt lat="43.78575" lon="7.13262">
        <ele>907.40002441406</ele>
        <time>2018-12-08T10:33:45.000Z</time>
      </trkpt>
      <trkpt lat="43.78573" lon="7.13256">
        <ele>906.59997558594</ele>
        <time>2018-12-08T10:33:46.000Z</time>
      </trkpt>
      <trkpt lat="43.7857" lon="7.13251">
        <ele>905.40002441406</ele>
        <time>2018-12-08T10:33:47.000Z</time>
      </trkpt>
      <trkpt lat="43.78565" lon="7.13248">
        <ele>904.79998779297</ele>
        <time>2018-12-08T10:33:48.000Z</time>
      </trkpt>
      <trkpt lat="43.78553" lon="7.13243">
        <ele>904</ele>
        <time>2018-12-08T10:33:50.000Z</time>
      </trkpt>
      <trkpt lat="43.78548" lon="7.13239">
        <ele>902.40002441406</ele>
        <time>2018-12-08T10:33:51.000Z</time>
      </trkpt>
      <trkpt lat="43.78544" lon="7.13234">
        <ele>901.79998779297</ele>
        <time>2018-12-08T10:33:52.000Z</time>
      </trkpt>
      <trkpt lat="43.78538" lon="7.13228">
        <ele>900.79998779297</ele>
        <time>2018-12-08T10:33:53.000Z</time>
      </trkpt>
      <trkpt lat="43.78527" lon="7.13218">
        <ele>899.59997558594</ele>
        <time>2018-12-08T10:33:55.000Z</time>
      </trkpt>
      <trkpt lat="43.78522" lon="7.13212">
        <ele>899.59997558594</ele>
        <time>2018-12-08T10:33:56.000Z</time>
      </trkpt>
      <trkpt lat="43.78517" lon="7.13206">
        <ele>898.79998779297</ele>
        <time>2018-12-08T10:33:57.000Z</time>
      </trkpt>
      <trkpt lat="43.78507" lon="7.13196">
        <ele>897.59997558594</ele>
        <time>2018-12-08T10:33:59.000Z</time>
      </trkpt>
      <trkpt lat="43.78502" lon="7.13193">
        <ele>897.40002441406</ele>
        <time>2018-12-08T10:34:00.000Z</time>
      </trkpt>
      <trkpt lat="43.78492" lon="7.13186">
        <ele>896.40002441406</ele>
        <time>2018-12-08T10:34:02.000Z</time>
      </trkpt>
      <trkpt lat="43.78487" lon="7.13183">
        <ele>895.59997558594</ele>
        <time>2018-12-08T10:34:03.000Z</time>
      </trkpt>
      <trkpt lat="43.78481" lon="7.13176">
        <ele>894.59997558594</ele>
        <time>2018-12-08T10:34:05.000Z</time>
      </trkpt>
      <trkpt lat="43.78477" lon="7.13172">
        <ele>894</ele>
        <time>2018-12-08T10:34:06.000Z</time>
      </trkpt>
      <trkpt lat="43.78472" lon="7.13169">
        <ele>893.40002441406</ele>
        <time>2018-12-08T10:34:07.000Z</time>
      </trkpt>
      <trkpt lat="43.78457" lon="7.13162">
        <ele>892.40002441406</ele>
        <time>2018-12-08T10:34:10.000Z</time>
      </trkpt>
      <trkpt lat="43.78451" lon="7.13161">
        <ele>892</ele>
        <time>2018-12-08T10:34:11.000Z</time>
      </trkpt>
      <trkpt lat="43.78441" lon="7.13153">
        <ele>891</ele>
        <time>2018-12-08T10:34:13.000Z</time>
      </trkpt>
      <trkpt lat="43.78431" lon="7.13142">
        <ele>889.79998779297</ele>
        <time>2018-12-08T10:34:15.000Z</time>
      </trkpt>
      <trkpt lat="43.78422" lon="7.13131">
        <ele>888.20001220703</ele>
        <time>2018-12-08T10:34:17.000Z</time>
      </trkpt>
      <trkpt lat="43.78412" lon="7.13121">
        <ele>886.59997558594</ele>
        <time>2018-12-08T10:34:19.000Z</time>
      </trkpt>
      <trkpt lat="43.78407" lon="7.13117">
        <ele>885.79998779297</ele>
        <time>2018-12-08T10:34:20.000Z</time>
      </trkpt>
      <trkpt lat="43.78402" lon="7.13116">
        <ele>885</ele>
        <time>2018-12-08T10:34:21.000Z</time>
      </trkpt>
      <trkpt lat="43.78392" lon="7.13114">
        <ele>883.79998779297</ele>
        <time>2018-12-08T10:34:23.000Z</time>
      </trkpt>
      <trkpt lat="43.78377" lon="7.1311">
        <ele>882.79998779297</ele>
        <time>2018-12-08T10:34:26.000Z</time>
      </trkpt>
      <trkpt lat="43.78372" lon="7.13106">
        <ele>882.79998779297</ele>
        <time>2018-12-08T10:34:27.000Z</time>
      </trkpt>
      <trkpt lat="43.78364" lon="7.13094">
        <ele>882.59997558594</ele>
        <time>2018-12-08T10:34:29.000Z</time>
      </trkpt>
      <trkpt lat="43.78358" lon="7.13087">
        <ele>881.59997558594</ele>
        <time>2018-12-08T10:34:30.000Z</time>
      </trkpt>
      <trkpt lat="43.78355" lon="7.13081">
        <ele>881.40002441406</ele>
        <time>2018-12-08T10:34:31.000Z</time>
      </trkpt>
      <trkpt lat="43.78349" lon="7.13072">
        <ele>880.20001220703</ele>
        <time>2018-12-08T10:34:33.000Z</time>
      </trkpt>
      <trkpt lat="43.78343" lon="7.13065">
        <ele>879.20001220703</ele>
        <time>2018-12-08T10:34:35.000Z</time>
      </trkpt>
      <trkpt lat="43.7834" lon="7.13065">
        <ele>877.79998779297</ele>
        <time>2018-12-08T10:34:36.000Z</time>
      </trkpt>
      <trkpt lat="43.78338" lon="7.13064">
        <ele>876.79998779297</ele>
        <time>2018-12-08T10:34:37.000Z</time>
      </trkpt>
      <trkpt lat="43.78333" lon="7.1306">
        <ele>875.20001220703</ele>
        <time>2018-12-08T10:34:39.000Z</time>
      </trkpt>
      <trkpt lat="43.78323" lon="7.13046">
        <ele>875.20001220703</ele>
        <time>2018-12-08T10:34:42.000Z</time>
      </trkpt>
      <trkpt lat="43.78318" lon="7.13037">
        <ele>874.59997558594</ele>
        <time>2018-12-08T10:34:44.000Z</time>
      </trkpt>
      <trkpt lat="43.78316" lon="7.13027">
        <ele>874.20001220703</ele>
        <time>2018-12-08T10:34:46.000Z</time>
      </trkpt>
      <trkpt lat="43.78314" lon="7.13021">
        <ele>874.20001220703</ele>
        <time>2018-12-08T10:34:48.000Z</time>
      </trkpt>
      <trkpt lat="43.78312" lon="7.13015">
        <ele>874.40002441406</ele>
        <time>2018-12-08T10:34:50.000Z</time>
      </trkpt>
      <trkpt lat="43.78309" lon="7.13002">
        <ele>874.20001220703</ele>
        <time>2018-12-08T10:34:54.000Z</time>
      </trkpt>
      <trkpt lat="43.78306" lon="7.12999">
        <ele>874</ele>
        <time>2018-12-08T10:34:55.000Z</time>
      </trkpt>
      <trkpt lat="43.78296" lon="7.12992">
        <ele>873.59997558594</ele>
        <time>2018-12-08T10:34:58.000Z</time>
      </trkpt>
      <trkpt lat="43.78291" lon="7.12987">
        <ele>873</ele>
        <time>2018-12-08T10:35:00.000Z</time>
      </trkpt>
      <trkpt lat="43.78285" lon="7.12986">
        <ele>872.20001220703</ele>
        <time>2018-12-08T10:35:02.000Z</time>
      </trkpt>
      <trkpt lat="43.78283" lon="7.12982">
        <ele>871.79998779297</ele>
        <time>2018-12-08T10:35:04.000Z</time>
      </trkpt>
      <trkpt lat="43.78282" lon="7.1298">
        <ele>872</ele>
        <time>2018-12-08T10:35:05.000Z</time>
      </trkpt>
      <trkpt lat="43.78278" lon="7.12972">
        <ele>872.20001220703</ele>
        <time>2018-12-08T10:35:10.000Z</time>
      </trkpt>
      <trkpt lat="43.78274" lon="7.12967">
        <ele>871.40002441406</ele>
        <time>2018-12-08T10:35:13.000Z</time>
      </trkpt>
      <trkpt lat="43.78272" lon="7.12964">
        <ele>871.40002441406</ele>
        <time>2018-12-08T10:35:14.000Z</time>
      </trkpt>
      <trkpt lat="43.78269" lon="7.12961">
        <ele>871.79998779297</ele>
        <time>2018-12-08T10:35:16.000Z</time>
      </trkpt>
      <trkpt lat="43.78268" lon="7.12961">
        <ele>871.59997558594</ele>
        <time>2018-12-08T10:35:18.000Z</time>
      </trkpt>
      <trkpt lat="43.78267" lon="7.12957">
        <ele>872.20001220703</ele>
        <time>2018-12-08T10:35:23.000Z</time>
      </trkpt>
      <trkpt lat="43.78265" lon="7.12954">
        <ele>872.79998779297</ele>
        <time>2018-12-08T10:35:26.000Z</time>
      </trkpt>
      <trkpt lat="43.78263" lon="7.12953">
        <ele>872.59997558594</ele>
        <time>2018-12-08T10:35:29.000Z</time>
      </trkpt>
      <trkpt lat="43.78256" lon="7.12945">
        <ele>872.59997558594</ele>
        <time>2018-12-08T10:35:33.000Z</time>
      </trkpt>
      <trkpt lat="43.78244" lon="7.12935">
        <ele>872</ele>
        <time>2018-12-08T10:35:38.000Z</time>
      </trkpt>
      <trkpt lat="43.78244" lon="7.12934">
        <ele>871.79998779297</ele>
        <time>2018-12-08T10:35:41.000Z</time>
      </trkpt>
      <trkpt lat="43.78243" lon="7.12932">
        <ele>872.40002441406</ele>
        <time>2018-12-08T10:35:46.000Z</time>
      </trkpt>
      <trkpt lat="43.7824" lon="7.12925">
        <ele>872</ele>
        <time>2018-12-08T10:35:52.000Z</time>
      </trkpt>
      <trkpt lat="43.78241" lon="7.12925">
        <ele>871.79998779297</ele>
        <time>2018-12-08T10:35:53.000Z</time>
      </trkpt>
      <trkpt lat="43.78238" lon="7.12922">
        <ele>871.20001220703</ele>
        <time>2018-12-08T10:35:56.000Z</time>
      </trkpt>
      <trkpt lat="43.78236" lon="7.12922">
        <ele>871</ele>
        <time>2018-12-08T10:35:57.000Z</time>
      </trkpt>
      <trkpt lat="43.78234" lon="7.12922">
        <ele>870.79998779297</ele>
        <time>2018-12-08T10:35:58.000Z</time>
      </trkpt>
      <trkpt lat="43.78228" lon="7.12917">
        <ele>870</ele>
        <time>2018-12-08T10:36:01.000Z</time>
      </trkpt>
      <trkpt lat="43.78225" lon="7.12913">
        <ele>869.59997558594</ele>
        <time>2018-12-08T10:36:02.000Z</time>
      </trkpt>
      <trkpt lat="43.78217" lon="7.12905">
        <ele>868.20001220703</ele>
        <time>2018-12-08T10:36:05.000Z</time>
      </trkpt>
      <trkpt lat="43.78216" lon="7.12902">
        <ele>867.79998779297</ele>
        <time>2018-12-08T10:36:07.000Z</time>
      </trkpt>
      <trkpt lat="43.78213" lon="7.12898">
        <ele>867.20001220703</ele>
        <time>2018-12-08T10:36:11.000Z</time>
      </trkpt>
      <trkpt lat="43.7821" lon="7.12896">
        <ele>867.20001220703</ele>
        <time>2018-12-08T10:36:12.000Z</time>
      </trkpt>
      <trkpt lat="43.78205" lon="7.12891">
        <ele>867</ele>
        <time>2018-12-08T10:36:14.000Z</time>
      </trkpt>
      <trkpt lat="43.782" lon="7.12884">
        <ele>866.40002441406</ele>
        <time>2018-12-08T10:36:16.000Z</time>
      </trkpt>
      <trkpt lat="43.78197" lon="7.1288">
        <ele>866.20001220703</ele>
        <time>2018-12-08T10:36:17.000Z</time>
      </trkpt>
      <trkpt lat="43.7819" lon="7.12872">
        <ele>865</ele>
        <time>2018-12-08T10:36:19.000Z</time>
      </trkpt>
      <trkpt lat="43.78185" lon="7.12868">
        <ele>864</ele>
        <time>2018-12-08T10:36:21.000Z</time>
      </trkpt>
      <trkpt lat="43.78185" lon="7.12869">
        <ele>863.20001220703</ele>
        <time>2018-12-08T10:36:22.000Z</time>
      </trkpt>
      <trkpt lat="43.78184" lon="7.12867">
        <ele>863</ele>
        <time>2018-12-08T10:36:23.000Z</time>
      </trkpt>
      <trkpt lat="43.78183" lon="7.12867">
        <ele>862.79998779297</ele>
        <time>2018-12-08T10:36:32.000Z</time>
      </trkpt>
      <trkpt lat="43.78182" lon="7.12866">
        <ele>862.79998779297</ele>
        <time>2018-12-08T10:36:34.000Z</time>
      </trkpt>
      <trkpt lat="43.78179" lon="7.12862">
        <ele>862.79998779297</ele>
        <time>2018-12-08T10:36:36.000Z</time>
      </trkpt>
      <trkpt lat="43.7817" lon="7.1285">
        <ele>862</ele>
        <time>2018-12-08T10:36:40.000Z</time>
      </trkpt>
      <trkpt lat="43.78162" lon="7.1284">
        <ele>860.59997558594</ele>
        <time>2018-12-08T10:36:42.000Z</time>
      </trkpt>
      <trkpt lat="43.78153" lon="7.12833">
        <ele>859.20001220703</ele>
        <time>2018-12-08T10:36:44.000Z</time>
      </trkpt>
      <trkpt lat="43.78148" lon="7.1283">
        <ele>858.59997558594</ele>
        <time>2018-12-08T10:36:45.000Z</time>
      </trkpt>
      <trkpt lat="43.78145" lon="7.12829">
        <ele>858.20001220703</ele>
        <time>2018-12-08T10:36:46.000Z</time>
      </trkpt>
      <trkpt lat="43.78139" lon="7.12825">
        <ele>857.20001220703</ele>
        <time>2018-12-08T10:36:48.000Z</time>
      </trkpt>
      <trkpt lat="43.78137" lon="7.12823">
        <ele>856.79998779297</ele>
        <time>2018-12-08T10:36:49.000Z</time>
      </trkpt>
      <trkpt lat="43.78128" lon="7.12813">
        <ele>855.79998779297</ele>
        <time>2018-12-08T10:36:52.000Z</time>
      </trkpt>
      <trkpt lat="43.78123" lon="7.12807">
        <ele>855.79998779297</ele>
        <time>2018-12-08T10:36:54.000Z</time>
      </trkpt>
      <trkpt lat="43.7812" lon="7.12799">
        <ele>855.40002441406</ele>
        <time>2018-12-08T10:36:56.000Z</time>
      </trkpt>
      <trkpt lat="43.78113" lon="7.12787">
        <ele>855.59997558594</ele>
        <time>2018-12-08T10:37:00.000Z</time>
      </trkpt>
      <trkpt lat="43.78103" lon="7.12774">
        <ele>855.59997558594</ele>
        <time>2018-12-08T10:37:04.000Z</time>
      </trkpt>
      <trkpt lat="43.78103" lon="7.12771">
        <ele>855.59997558594</ele>
        <time>2018-12-08T10:37:05.000Z</time>
      </trkpt>
      <trkpt lat="43.78103" lon="7.12763">
        <ele>855.79998779297</ele>
        <time>2018-12-08T10:37:07.000Z</time>
      </trkpt>
      <trkpt lat="43.78098" lon="7.12748">
        <ele>855.20001220703</ele>
        <time>2018-12-08T10:37:10.000Z</time>
      </trkpt>
      <trkpt lat="43.78096" lon="7.12743">
        <ele>854.59997558594</ele>
        <time>2018-12-08T10:37:11.000Z</time>
      </trkpt>
      <trkpt lat="43.78095" lon="7.12736">
        <ele>854.40002441406</ele>
        <time>2018-12-08T10:37:12.000Z</time>
      </trkpt>
      <trkpt lat="43.78092" lon="7.12731">
        <ele>853.59997558594</ele>
        <time>2018-12-08T10:37:13.000Z</time>
      </trkpt>
      <trkpt lat="43.7809" lon="7.12726">
        <ele>852.79998779297</ele>
        <time>2018-12-08T10:37:14.000Z</time>
      </trkpt>
      <trkpt lat="43.78088" lon="7.12722">
        <ele>852</ele>
        <time>2018-12-08T10:37:15.000Z</time>
      </trkpt>
      <trkpt lat="43.78085" lon="7.12715">
        <ele>851</ele>
        <time>2018-12-08T10:37:17.000Z</time>
      </trkpt>
      <trkpt lat="43.78083" lon="7.1271">
        <ele>850.59997558594</ele>
        <time>2018-12-08T10:37:18.000Z</time>
      </trkpt>
      <trkpt lat="43.7808" lon="7.12691">
        <ele>850</ele>
        <time>2018-12-08T10:37:22.000Z</time>
      </trkpt>
      <trkpt lat="43.7808" lon="7.12689">
        <ele>849.59997558594</ele>
        <time>2018-12-08T10:37:23.000Z</time>
      </trkpt>
      <trkpt lat="43.78079" lon="7.12689">
        <ele>849.59997558594</ele>
        <time>2018-12-08T10:37:25.000Z</time>
      </trkpt>
      <trkpt lat="43.78075" lon="7.12684">
        <ele>849.79998779297</ele>
        <time>2018-12-08T10:37:30.000Z</time>
      </trkpt>
      <trkpt lat="43.78066" lon="7.12679">
        <ele>849.79998779297</ele>
        <time>2018-12-08T10:37:35.000Z</time>
      </trkpt>
      <trkpt lat="43.78051" lon="7.12675">
        <ele>849.79998779297</ele>
        <time>2018-12-08T10:37:40.000Z</time>
      </trkpt>
      <trkpt lat="43.78037" lon="7.12665">
        <ele>850.79998779297</ele>
        <time>2018-12-08T10:37:45.000Z</time>
      </trkpt>
      <trkpt lat="43.78024" lon="7.12655">
        <ele>850.59997558594</ele>
        <time>2018-12-08T10:37:49.000Z</time>
      </trkpt>
      <trkpt lat="43.78015" lon="7.12645">
        <ele>850.40002441406</ele>
        <time>2018-12-08T10:37:52.000Z</time>
      </trkpt>
      <trkpt lat="43.78015" lon="7.12643">
        <ele>850.40002441406</ele>
        <time>2018-12-08T10:37:53.000Z</time>
      </trkpt>
      <trkpt lat="43.78014" lon="7.12642">
        <ele>850.40002441406</ele>
        <time>2018-12-08T10:37:57.000Z</time>
      </trkpt>
      <trkpt lat="43.78013" lon="7.1264">
        <ele>850</ele>
        <time>2018-12-08T10:38:10.000Z</time>
      </trkpt>
      <trkpt lat="43.78013" lon="7.12639">
        <ele>850</ele>
        <time>2018-12-08T10:38:11.000Z</time>
      </trkpt>
      <trkpt lat="43.78015" lon="7.12629">
        <ele>849.79998779297</ele>
        <time>2018-12-08T10:38:16.000Z</time>
      </trkpt>
      <trkpt lat="43.78016" lon="7.12623">
        <ele>849.79998779297</ele>
        <time>2018-12-08T10:38:18.000Z</time>
      </trkpt>
      <trkpt lat="43.78017" lon="7.12613">
        <ele>849.40002441406</ele>
        <time>2018-12-08T10:38:20.000Z</time>
      </trkpt>
      <trkpt lat="43.78017" lon="7.12596">
        <ele>848.20001220703</ele>
        <time>2018-12-08T10:38:23.000Z</time>
      </trkpt>
      <trkpt lat="43.78019" lon="7.1259">
        <ele>847.79998779297</ele>
        <time>2018-12-08T10:38:24.000Z</time>
      </trkpt>
      <trkpt lat="43.78025" lon="7.12577">
        <ele>846.79998779297</ele>
        <time>2018-12-08T10:38:26.000Z</time>
      </trkpt>
      <trkpt lat="43.78028" lon="7.12568">
        <ele>846.20001220703</ele>
        <time>2018-12-08T10:38:28.000Z</time>
      </trkpt>
      <trkpt lat="43.78028" lon="7.12562">
        <ele>845.20001220703</ele>
        <time>2018-12-08T10:38:29.000Z</time>
      </trkpt>
      <trkpt lat="43.7803" lon="7.12548">
        <ele>844</ele>
        <time>2018-12-08T10:38:31.000Z</time>
      </trkpt>
      <trkpt lat="43.78033" lon="7.12539">
        <ele>842.79998779297</ele>
        <time>2018-12-08T10:38:33.000Z</time>
      </trkpt>
      <trkpt lat="43.78033" lon="7.12536">
        <ele>842.59997558594</ele>
        <time>2018-12-08T10:38:34.000Z</time>
      </trkpt>
      <trkpt lat="43.78033" lon="7.12533">
        <ele>842.20001220703</ele>
        <time>2018-12-08T10:38:35.000Z</time>
      </trkpt>
      <trkpt lat="43.78033" lon="7.12526">
        <ele>841.79998779297</ele>
        <time>2018-12-08T10:38:36.000Z</time>
      </trkpt>
      <trkpt lat="43.78034" lon="7.12519">
        <ele>841</ele>
        <time>2018-12-08T10:38:37.000Z</time>
      </trkpt>
      <trkpt lat="43.78036" lon="7.12513">
        <ele>840.20001220703</ele>
        <time>2018-12-08T10:38:38.000Z</time>
      </trkpt>
      <trkpt lat="43.78037" lon="7.12507">
        <ele>839.59997558594</ele>
        <time>2018-12-08T10:38:39.000Z</time>
      </trkpt>
      <trkpt lat="43.78036" lon="7.12496">
        <ele>838</ele>
        <time>2018-12-08T10:38:41.000Z</time>
      </trkpt>
      <trkpt lat="43.78036" lon="7.12489">
        <ele>837</ele>
        <time>2018-12-08T10:38:42.000Z</time>
      </trkpt>
      <trkpt lat="43.78036" lon="7.12482">
        <ele>836.40002441406</ele>
        <time>2018-12-08T10:38:43.000Z</time>
      </trkpt>
      <trkpt lat="43.78037" lon="7.12473">
        <ele>835.79998779297</ele>
        <time>2018-12-08T10:38:44.000Z</time>
      </trkpt>
      <trkpt lat="43.78037" lon="7.12464">
        <ele>834.79998779297</ele>
        <time>2018-12-08T10:38:45.000Z</time>
      </trkpt>
      <trkpt lat="43.78037" lon="7.12456">
        <ele>834.20001220703</ele>
        <time>2018-12-08T10:38:46.000Z</time>
      </trkpt>
      <trkpt lat="43.78038" lon="7.12448">
        <ele>833.40002441406</ele>
        <time>2018-12-08T10:38:47.000Z</time>
      </trkpt>
      <trkpt lat="43.78041" lon="7.12439">
        <ele>831.79998779297</ele>
        <time>2018-12-08T10:38:48.000Z</time>
      </trkpt>
      <trkpt lat="43.78043" lon="7.12432">
        <ele>831.20001220703</ele>
        <time>2018-12-08T10:38:49.000Z</time>
      </trkpt>
      <trkpt lat="43.78044" lon="7.12423">
        <ele>830.59997558594</ele>
        <time>2018-12-08T10:38:50.000Z</time>
      </trkpt>
      <trkpt lat="43.78045" lon="7.12417">
        <ele>829.40002441406</ele>
        <time>2018-12-08T10:38:51.000Z</time>
      </trkpt>
      <trkpt lat="43.78044" lon="7.12412">
        <ele>829</ele>
        <time>2018-12-08T10:38:52.000Z</time>
      </trkpt>
      <trkpt lat="43.78042" lon="7.12407">
        <ele>828</ele>
        <time>2018-12-08T10:38:53.000Z</time>
      </trkpt>
      <trkpt lat="43.78045" lon="7.12396">
        <ele>827.59997558594</ele>
        <time>2018-12-08T10:38:55.000Z</time>
      </trkpt>
      <trkpt lat="43.78049" lon="7.1239">
        <ele>827</ele>
        <time>2018-12-08T10:38:56.000Z</time>
      </trkpt>
      <trkpt lat="43.78057" lon="7.1238">
        <ele>825.59997558594</ele>
        <time>2018-12-08T10:38:58.000Z</time>
      </trkpt>
      <trkpt lat="43.78064" lon="7.12371">
        <ele>824.20001220703</ele>
        <time>2018-12-08T10:39:00.000Z</time>
      </trkpt>
      <trkpt lat="43.78067" lon="7.12366">
        <ele>823.40002441406</ele>
        <time>2018-12-08T10:39:01.000Z</time>
      </trkpt>
      <trkpt lat="43.78067" lon="7.12361">
        <ele>822.20001220703</ele>
        <time>2018-12-08T10:39:02.000Z</time>
      </trkpt>
      <trkpt lat="43.78068" lon="7.12355">
        <ele>821</ele>
        <time>2018-12-08T10:39:03.000Z</time>
      </trkpt>
      <trkpt lat="43.78069" lon="7.12348">
        <ele>819.79998779297</ele>
        <time>2018-12-08T10:39:04.000Z</time>
      </trkpt>
      <trkpt lat="43.78071" lon="7.1234">
        <ele>818.59997558594</ele>
        <time>2018-12-08T10:39:05.000Z</time>
      </trkpt>
      <trkpt lat="43.78073" lon="7.12333">
        <ele>816.79998779297</ele>
        <time>2018-12-08T10:39:06.000Z</time>
      </trkpt>
      <trkpt lat="43.78074" lon="7.1232">
        <ele>815</ele>
        <time>2018-12-08T10:39:08.000Z</time>
      </trkpt>
      <trkpt lat="43.78079" lon="7.12314">
        <ele>813.79998779297</ele>
        <time>2018-12-08T10:39:10.000Z</time>
      </trkpt>
      <trkpt lat="43.78081" lon="7.12312">
        <ele>813.40002441406</ele>
        <time>2018-12-08T10:39:11.000Z</time>
      </trkpt>
      <trkpt lat="43.78082" lon="7.1231">
        <ele>812.79998779297</ele>
        <time>2018-12-08T10:39:12.000Z</time>
      </trkpt>
      <trkpt lat="43.78084" lon="7.12304">
        <ele>811.20001220703</ele>
        <time>2018-12-08T10:39:14.000Z</time>
      </trkpt>
      <trkpt lat="43.78089" lon="7.12293">
        <ele>809.59997558594</ele>
        <time>2018-12-08T10:39:16.000Z</time>
      </trkpt>
      <trkpt lat="43.78093" lon="7.1228">
        <ele>808.20001220703</ele>
        <time>2018-12-08T10:39:18.000Z</time>
      </trkpt>
      <trkpt lat="43.78097" lon="7.12272">
        <ele>806</ele>
        <time>2018-12-08T10:39:20.000Z</time>
      </trkpt>
      <trkpt lat="43.78099" lon="7.12269">
        <ele>804.79998779297</ele>
        <time>2018-12-08T10:39:21.000Z</time>
      </trkpt>
      <trkpt lat="43.78101" lon="7.12267">
        <ele>803.79998779297</ele>
        <time>2018-12-08T10:39:22.000Z</time>
      </trkpt>
      <trkpt lat="43.78103" lon="7.12264">
        <ele>802.59997558594</ele>
        <time>2018-12-08T10:39:23.000Z</time>
      </trkpt>
      <trkpt lat="43.78104" lon="7.12262">
        <ele>801.59997558594</ele>
        <time>2018-12-08T10:39:24.000Z</time>
      </trkpt>
      <trkpt lat="43.78108" lon="7.12256">
        <ele>800.20001220703</ele>
        <time>2018-12-08T10:39:26.000Z</time>
      </trkpt>
      <trkpt lat="43.78112" lon="7.1225">
        <ele>798.79998779297</ele>
        <time>2018-12-08T10:39:28.000Z</time>
      </trkpt>
      <trkpt lat="43.78113" lon="7.12242">
        <ele>797.59997558594</ele>
        <time>2018-12-08T10:39:30.000Z</time>
      </trkpt>
      <trkpt lat="43.78113" lon="7.12232">
        <ele>796</ele>
        <time>2018-12-08T10:39:32.000Z</time>
      </trkpt>
      <trkpt lat="43.78114" lon="7.12227">
        <ele>794.79998779297</ele>
        <time>2018-12-08T10:39:33.000Z</time>
      </trkpt>
      <trkpt lat="43.78114" lon="7.12222">
        <ele>793.79998779297</ele>
        <time>2018-12-08T10:39:34.000Z</time>
      </trkpt>
      <trkpt lat="43.78113" lon="7.12213">
        <ele>792</ele>
        <time>2018-12-08T10:39:36.000Z</time>
      </trkpt>
      <trkpt lat="43.78113" lon="7.1221">
        <ele>791</ele>
        <time>2018-12-08T10:39:37.000Z</time>
      </trkpt>
      <trkpt lat="43.78112" lon="7.12207">
        <ele>790.59997558594</ele>
        <time>2018-12-08T10:39:38.000Z</time>
      </trkpt>
      <trkpt lat="43.7811" lon="7.12203">
        <ele>790</ele>
        <time>2018-12-08T10:39:39.000Z</time>
      </trkpt>
      <trkpt lat="43.7811" lon="7.12198">
        <ele>789.79998779297</ele>
        <time>2018-12-08T10:39:40.000Z</time>
      </trkpt>
      <trkpt lat="43.7811" lon="7.12193">
        <ele>789.40002441406</ele>
        <time>2018-12-08T10:39:41.000Z</time>
      </trkpt>
      <trkpt lat="43.78114" lon="7.12179">
        <ele>788.79998779297</ele>
        <time>2018-12-08T10:39:43.000Z</time>
      </trkpt>
      <trkpt lat="43.78116" lon="7.12172">
        <ele>788.20001220703</ele>
        <time>2018-12-08T10:39:45.000Z</time>
      </trkpt>
      <trkpt lat="43.78117" lon="7.12169">
        <ele>788</ele>
        <time>2018-12-08T10:39:46.000Z</time>
      </trkpt>
      <trkpt lat="43.78115" lon="7.12152">
        <ele>786.79998779297</ele>
        <time>2018-12-08T10:39:49.000Z</time>
      </trkpt>
      <trkpt lat="43.78118" lon="7.12145">
        <ele>785.20001220703</ele>
        <time>2018-12-08T10:39:51.000Z</time>
      </trkpt>
      <trkpt lat="43.78121" lon="7.12142">
        <ele>784.40002441406</ele>
        <time>2018-12-08T10:39:52.000Z</time>
      </trkpt>
      <trkpt lat="43.78123" lon="7.1214">
        <ele>783.79998779297</ele>
        <time>2018-12-08T10:39:53.000Z</time>
      </trkpt>
      <trkpt lat="43.78126" lon="7.12137">
        <ele>782.59997558594</ele>
        <time>2018-12-08T10:39:55.000Z</time>
      </trkpt>
      <trkpt lat="43.78129" lon="7.12128">
        <ele>781.20001220703</ele>
        <time>2018-12-08T10:39:57.000Z</time>
      </trkpt>
      <trkpt lat="43.78131" lon="7.12123">
        <ele>780.20001220703</ele>
        <time>2018-12-08T10:39:58.000Z</time>
      </trkpt>
      <trkpt lat="43.78132" lon="7.12119">
        <ele>779.59997558594</ele>
        <time>2018-12-08T10:39:59.000Z</time>
      </trkpt>
      <trkpt lat="43.78133" lon="7.12113">
        <ele>778.20001220703</ele>
        <time>2018-12-08T10:40:00.000Z</time>
      </trkpt>
      <trkpt lat="43.78134" lon="7.12106">
        <ele>777</ele>
        <time>2018-12-08T10:40:01.000Z</time>
      </trkpt>
      <trkpt lat="43.78135" lon="7.121">
        <ele>776</ele>
        <time>2018-12-08T10:40:02.000Z</time>
      </trkpt>
      <trkpt lat="43.78137" lon="7.12091">
        <ele>774.20001220703</ele>
        <time>2018-12-08T10:40:04.000Z</time>
      </trkpt>
      <trkpt lat="43.78139" lon="7.12081">
        <ele>773</ele>
        <time>2018-12-08T10:40:06.000Z</time>
      </trkpt>
      <trkpt lat="43.78138" lon="7.12071">
        <ele>771.59997558594</ele>
        <time>2018-12-08T10:40:08.000Z</time>
      </trkpt>
      <trkpt lat="43.78137" lon="7.12065">
        <ele>770.59997558594</ele>
        <time>2018-12-08T10:40:09.000Z</time>
      </trkpt>
      <trkpt lat="43.78137" lon="7.12059">
        <ele>769.59997558594</ele>
        <time>2018-12-08T10:40:10.000Z</time>
      </trkpt>
      <trkpt lat="43.78136" lon="7.12053">
        <ele>768.59997558594</ele>
        <time>2018-12-08T10:40:11.000Z</time>
      </trkpt>
      <trkpt lat="43.78134" lon="7.12047">
        <ele>768</ele>
        <time>2018-12-08T10:40:12.000Z</time>
      </trkpt>
      <trkpt lat="43.78132" lon="7.12043">
        <ele>767.59997558594</ele>
        <time>2018-12-08T10:40:13.000Z</time>
      </trkpt>
      <trkpt lat="43.78129" lon="7.12034">
        <ele>767</ele>
        <time>2018-12-08T10:40:15.000Z</time>
      </trkpt>
      <trkpt lat="43.78127" lon="7.12031">
        <ele>767</ele>
        <time>2018-12-08T10:40:16.000Z</time>
      </trkpt>
      <trkpt lat="43.78124" lon="7.12027">
        <ele>766.59997558594</ele>
        <time>2018-12-08T10:40:17.000Z</time>
      </trkpt>
      <trkpt lat="43.78117" lon="7.12019">
        <ele>765.79998779297</ele>
        <time>2018-12-08T10:40:19.000Z</time>
      </trkpt>
      <trkpt lat="43.78114" lon="7.12015">
        <ele>765.20001220703</ele>
        <time>2018-12-08T10:40:20.000Z</time>
      </trkpt>
      <trkpt lat="43.7811" lon="7.12014">
        <ele>763.59997558594</ele>
        <time>2018-12-08T10:40:22.000Z</time>
      </trkpt>
      <trkpt lat="43.78109" lon="7.12012">
        <ele>762.79998779297</ele>
        <time>2018-12-08T10:40:23.000Z</time>
      </trkpt>
      <trkpt lat="43.78108" lon="7.12009">
        <ele>762.20001220703</ele>
        <time>2018-12-08T10:40:24.000Z</time>
      </trkpt>
      <trkpt lat="43.78105" lon="7.12001">
        <ele>761.20001220703</ele>
        <time>2018-12-08T10:40:26.000Z</time>
      </trkpt>
      <trkpt lat="43.78103" lon="7.11998">
        <ele>760.20001220703</ele>
        <time>2018-12-08T10:40:27.000Z</time>
      </trkpt>
      <trkpt lat="43.78102" lon="7.11997">
        <ele>759.40002441406</ele>
        <time>2018-12-08T10:40:28.000Z</time>
      </trkpt>
      <trkpt lat="43.78102" lon="7.11997">
        <ele>758.20001220703</ele>
        <time>2018-12-08T10:40:30.000Z</time>
      </trkpt>
      <trkpt lat="43.78102" lon="7.11997">
        <ele>757.20001220703</ele>
        <time>2018-12-08T10:40:33.000Z</time>
      </trkpt>
      <trkpt lat="43.78099" lon="7.11993">
        <ele>756.59997558594</ele>
        <time>2018-12-08T10:40:41.000Z</time>
      </trkpt>
      <trkpt lat="43.78089" lon="7.11977">
        <ele>755.40002441406</ele>
        <time>2018-12-08T10:40:45.000Z</time>
      </trkpt>
      <trkpt lat="43.78088" lon="7.11972">
        <ele>755</ele>
        <time>2018-12-08T10:40:46.000Z</time>
      </trkpt>
      <trkpt lat="43.78087" lon="7.11968">
        <ele>754.20001220703</ele>
        <time>2018-12-08T10:40:47.000Z</time>
      </trkpt>
      <trkpt lat="43.78085" lon="7.11963">
        <ele>753.20001220703</ele>
        <time>2018-12-08T10:40:48.000Z</time>
      </trkpt>
      <trkpt lat="43.78082" lon="7.11958">
        <ele>752.20001220703</ele>
        <time>2018-12-08T10:40:49.000Z</time>
      </trkpt>
      <trkpt lat="43.78075" lon="7.11953">
        <ele>750.40002441406</ele>
        <time>2018-12-08T10:40:51.000Z</time>
      </trkpt>
      <trkpt lat="43.78067" lon="7.11949">
        <ele>748.59997558594</ele>
        <time>2018-12-08T10:40:53.000Z</time>
      </trkpt>
      <trkpt lat="43.78063" lon="7.11942">
        <ele>747.79998779297</ele>
        <time>2018-12-08T10:40:55.000Z</time>
      </trkpt>
      <trkpt lat="43.7806" lon="7.11938">
        <ele>747.20001220703</ele>
        <time>2018-12-08T10:40:56.000Z</time>
      </trkpt>
      <trkpt lat="43.78054" lon="7.11933">
        <ele>745.79998779297</ele>
        <time>2018-12-08T10:40:58.000Z</time>
      </trkpt>
      <trkpt lat="43.78051" lon="7.11931">
        <ele>744.79998779297</ele>
        <time>2018-12-08T10:40:59.000Z</time>
      </trkpt>
      <trkpt lat="43.78048" lon="7.11929">
        <ele>744</ele>
        <time>2018-12-08T10:41:00.000Z</time>
      </trkpt>
      <trkpt lat="43.78043" lon="7.11927">
        <ele>742.20001220703</ele>
        <time>2018-12-08T10:41:02.000Z</time>
      </trkpt>
      <trkpt lat="43.7804" lon="7.11926">
        <ele>741.40002441406</ele>
        <time>2018-12-08T10:41:03.000Z</time>
      </trkpt>
      <trkpt lat="43.78037" lon="7.11925">
        <ele>740.59997558594</ele>
        <time>2018-12-08T10:41:04.000Z</time>
      </trkpt>
      <trkpt lat="43.7803" lon="7.11922">
        <ele>739.59997558594</ele>
        <time>2018-12-08T10:41:06.000Z</time>
      </trkpt>
      <trkpt lat="43.78023" lon="7.11917">
        <ele>739</ele>
        <time>2018-12-08T10:41:08.000Z</time>
      </trkpt>
      <trkpt lat="43.7802" lon="7.11916">
        <ele>738.59997558594</ele>
        <time>2018-12-08T10:41:09.000Z</time>
      </trkpt>
      <trkpt lat="43.78012" lon="7.11914">
        <ele>737.20001220703</ele>
        <time>2018-12-08T10:41:11.000Z</time>
      </trkpt>
      <trkpt lat="43.78009" lon="7.11915">
        <ele>737.20001220703</ele>
        <time>2018-12-08T10:41:12.000Z</time>
      </trkpt>
      <trkpt lat="43.77996" lon="7.11915">
        <ele>736.59997558594</ele>
        <time>2018-12-08T10:41:16.000Z</time>
      </trkpt>
      <trkpt lat="43.77994" lon="7.11906">
        <ele>736.59997558594</ele>
        <time>2018-12-08T10:41:19.000Z</time>
      </trkpt>
      <trkpt lat="43.77993" lon="7.119">
        <ele>736.20001220703</ele>
        <time>2018-12-08T10:41:23.000Z</time>
      </trkpt>
      <trkpt lat="43.77992" lon="7.11899">
        <ele>736</ele>
        <time>2018-12-08T10:41:24.000Z</time>
      </trkpt>
      <trkpt lat="43.77991" lon="7.11898">
        <ele>735.20001220703</ele>
        <time>2018-12-08T10:41:26.000Z</time>
      </trkpt>
      <trkpt lat="43.77987" lon="7.11894">
        <ele>734.40002441406</ele>
        <time>2018-12-08T10:41:29.000Z</time>
      </trkpt>
      <trkpt lat="43.77985" lon="7.11893">
        <ele>734.20001220703</ele>
        <time>2018-12-08T10:41:30.000Z</time>
      </trkpt>
      <trkpt lat="43.77983" lon="7.11891">
        <ele>734</ele>
        <time>2018-12-08T10:41:34.000Z</time>
      </trkpt>
      <trkpt lat="43.77978" lon="7.11891">
        <ele>733.40002441406</ele>
        <time>2018-12-08T10:41:41.000Z</time>
      </trkpt>
      <trkpt lat="43.77976" lon="7.1189">
        <ele>733.59997558594</ele>
        <time>2018-12-08T10:41:43.000Z</time>
      </trkpt>
      <trkpt lat="43.77973" lon="7.11886">
        <ele>733.79998779297</ele>
        <time>2018-12-08T10:41:46.000Z</time>
      </trkpt>
      <trkpt lat="43.77972" lon="7.11885">
        <ele>733.59997558594</ele>
        <time>2018-12-08T10:41:47.000Z</time>
      </trkpt>
      <trkpt lat="43.77969" lon="7.11884">
        <ele>733.40002441406</ele>
        <time>2018-12-08T10:41:50.000Z</time>
      </trkpt>
      <trkpt lat="43.77965" lon="7.11883">
        <ele>733.20001220703</ele>
        <time>2018-12-08T10:41:52.000Z</time>
      </trkpt>
      <trkpt lat="43.77961" lon="7.11885">
        <ele>732.79998779297</ele>
        <time>2018-12-08T10:41:55.000Z</time>
      </trkpt>
      <trkpt lat="43.77954" lon="7.11881">
        <ele>732.79998779297</ele>
        <time>2018-12-08T10:41:59.000Z</time>
      </trkpt>
      <trkpt lat="43.77952" lon="7.1188">
        <ele>732.79998779297</ele>
        <time>2018-12-08T10:42:00.000Z</time>
      </trkpt>
      <trkpt lat="43.7795" lon="7.11877">
        <ele>732.20001220703</ele>
        <time>2018-12-08T10:42:03.000Z</time>
      </trkpt>
      <trkpt lat="43.77949" lon="7.11877">
        <ele>732</ele>
        <time>2018-12-08T10:42:04.000Z</time>
      </trkpt>
      <trkpt lat="43.77945" lon="7.11873">
        <ele>731.59997558594</ele>
        <time>2018-12-08T10:42:09.000Z</time>
      </trkpt>
      <trkpt lat="43.77939" lon="7.11868">
        <ele>731.79998779297</ele>
        <time>2018-12-08T10:42:14.000Z</time>
      </trkpt>
      <trkpt lat="43.77933" lon="7.11858">
        <ele>731.79998779297</ele>
        <time>2018-12-08T10:42:19.000Z</time>
      </trkpt>
      <trkpt lat="43.77927" lon="7.11849">
        <ele>731.20001220703</ele>
        <time>2018-12-08T10:42:22.000Z</time>
      </trkpt>
      <trkpt lat="43.77924" lon="7.11846">
        <ele>731</ele>
        <time>2018-12-08T10:42:23.000Z</time>
      </trkpt>
      <trkpt lat="43.77908" lon="7.11835">
        <ele>730.79998779297</ele>
        <time>2018-12-08T10:42:28.000Z</time>
      </trkpt>
      <trkpt lat="43.77898" lon="7.1182">
        <ele>731.20001220703</ele>
        <time>2018-12-08T10:42:32.000Z</time>
      </trkpt>
      <trkpt lat="43.77895" lon="7.11815">
        <ele>731</ele>
        <time>2018-12-08T10:42:33.000Z</time>
      </trkpt>
      <trkpt lat="43.77883" lon="7.11794">
        <ele>730</ele>
        <time>2018-12-08T10:42:37.000Z</time>
      </trkpt>
      <trkpt lat="43.77873" lon="7.11784">
        <ele>729</ele>
        <time>2018-12-08T10:42:40.000Z</time>
      </trkpt>
      <trkpt lat="43.7787" lon="7.11779">
        <ele>728.79998779297</ele>
        <time>2018-12-08T10:42:41.000Z</time>
      </trkpt>
      <trkpt lat="43.77862" lon="7.11769">
        <ele>728.20001220703</ele>
        <time>2018-12-08T10:42:43.000Z</time>
      </trkpt>
      <trkpt lat="43.77858" lon="7.11766">
        <ele>727.79998779297</ele>
        <time>2018-12-08T10:42:44.000Z</time>
      </trkpt>
      <trkpt lat="43.77841" lon="7.11748">
        <ele>726.59997558594</ele>
        <time>2018-12-08T10:42:48.000Z</time>
      </trkpt>
      <trkpt lat="43.77837" lon="7.11745">
        <ele>726</ele>
        <time>2018-12-08T10:42:49.000Z</time>
      </trkpt>
      <trkpt lat="43.77831" lon="7.11737">
        <ele>725.40002441406</ele>
        <time>2018-12-08T10:42:51.000Z</time>
      </trkpt>
      <trkpt lat="43.77831" lon="7.11734">
        <ele>725</ele>
        <time>2018-12-08T10:42:52.000Z</time>
      </trkpt>
      <trkpt lat="43.77828" lon="7.11722">
        <ele>724.79998779297</ele>
        <time>2018-12-08T10:42:55.000Z</time>
      </trkpt>
      <trkpt lat="43.77824" lon="7.11712">
        <ele>724.40002441406</ele>
        <time>2018-12-08T10:42:57.000Z</time>
      </trkpt>
      <trkpt lat="43.77821" lon="7.11707">
        <ele>724</ele>
        <time>2018-12-08T10:42:59.000Z</time>
      </trkpt>
      <trkpt lat="43.77821" lon="7.11706">
        <ele>723.20001220703</ele>
        <time>2018-12-08T10:43:01.000Z</time>
      </trkpt>
      <trkpt lat="43.77821" lon="7.11706">
        <ele>723</ele>
        <time>2018-12-08T10:43:02.000Z</time>
      </trkpt>
      <trkpt lat="43.77819" lon="7.11704">
        <ele>722.59997558594</ele>
        <time>2018-12-08T10:43:17.000Z</time>
      </trkpt>
      <trkpt lat="43.77819" lon="7.11701">
        <ele>722.59997558594</ele>
        <time>2018-12-08T10:43:22.000Z</time>
      </trkpt>
      <trkpt lat="43.77819" lon="7.11701">
        <ele>722.40002441406</ele>
        <time>2018-12-08T10:43:31.000Z</time>
      </trkpt>
      <trkpt lat="43.77819" lon="7.11701">
        <ele>722.59997558594</ele>
        <time>2018-12-08T10:43:45.000Z</time>
      </trkpt>
      <trkpt lat="43.77819" lon="7.11701">
        <ele>722.40002441406</ele>
        <time>2018-12-08T10:43:59.000Z</time>
      </trkpt>
      <trkpt lat="43.77819" lon="7.11701">
        <ele>722.59997558594</ele>
        <time>2018-12-08T10:44:12.000Z</time>
      </trkpt>
      <trkpt lat="43.77819" lon="7.11701">
        <ele>722.40002441406</ele>
        <time>2018-12-08T10:44:23.000Z</time>
      </trkpt>
      <trkpt lat="43.77819" lon="7.11701">
        <ele>722.59997558594</ele>
        <time>2018-12-08T10:44:33.000Z</time>
      </trkpt>
      <trkpt lat="43.77821" lon="7.11702">
        <ele>722.40002441406</ele>
        <time>2018-12-08T10:44:35.000Z</time>
      </trkpt>
      <trkpt lat="43.77827" lon="7.11703">
        <ele>722.20001220703</ele>
        <time>2018-12-08T10:44:38.000Z</time>
      </trkpt>
      <trkpt lat="43.77828" lon="7.11703">
        <ele>722</ele>
        <time>2018-12-08T10:44:39.000Z</time>
      </trkpt>
      <trkpt lat="43.77831" lon="7.11703">
        <ele>722</ele>
        <time>2018-12-08T10:44:40.000Z</time>
      </trkpt>
      <trkpt lat="43.77837" lon="7.117">
        <ele>721.20001220703</ele>
        <time>2018-12-08T10:44:42.000Z</time>
      </trkpt>
      <trkpt lat="43.7784" lon="7.117">
        <ele>720.79998779297</ele>
        <time>2018-12-08T10:44:43.000Z</time>
      </trkpt>
      <trkpt lat="43.77851" lon="7.11698">
        <ele>719.40002441406</ele>
        <time>2018-12-08T10:44:46.000Z</time>
      </trkpt>
      <trkpt lat="43.77865" lon="7.11693">
        <ele>717.59997558594</ele>
        <time>2018-12-08T10:44:49.000Z</time>
      </trkpt>
      <trkpt lat="43.77869" lon="7.1169">
        <ele>717</ele>
        <time>2018-12-08T10:44:50.000Z</time>
      </trkpt>
      <trkpt lat="43.77873" lon="7.11688">
        <ele>716.20001220703</ele>
        <time>2018-12-08T10:44:51.000Z</time>
      </trkpt>
      <trkpt lat="43.77881" lon="7.11685">
        <ele>714.59997558594</ele>
        <time>2018-12-08T10:44:53.000Z</time>
      </trkpt>
      <trkpt lat="43.77884" lon="7.11682">
        <ele>713.59997558594</ele>
        <time>2018-12-08T10:44:54.000Z</time>
      </trkpt>
      <trkpt lat="43.77888" lon="7.11677">
        <ele>712.79998779297</ele>
        <time>2018-12-08T10:44:55.000Z</time>
      </trkpt>
      <trkpt lat="43.77896" lon="7.11671">
        <ele>711.20001220703</ele>
        <time>2018-12-08T10:44:57.000Z</time>
      </trkpt>
      <trkpt lat="43.77899" lon="7.11667">
        <ele>710.40002441406</ele>
        <time>2018-12-08T10:44:58.000Z</time>
      </trkpt>
      <trkpt lat="43.77903" lon="7.11664">
        <ele>709.40002441406</ele>
        <time>2018-12-08T10:44:59.000Z</time>
      </trkpt>
      <trkpt lat="43.77906" lon="7.11661">
        <ele>708.79998779297</ele>
        <time>2018-12-08T10:45:00.000Z</time>
      </trkpt>
      <trkpt lat="43.77909" lon="7.11657">
        <ele>707.40002441406</ele>
        <time>2018-12-08T10:45:01.000Z</time>
      </trkpt>
      <trkpt lat="43.77914" lon="7.11652">
        <ele>705.79998779297</ele>
        <time>2018-12-08T10:45:02.000Z</time>
      </trkpt>
      <trkpt lat="43.77921" lon="7.11645">
        <ele>704.79998779297</ele>
        <time>2018-12-08T10:45:04.000Z</time>
      </trkpt>
      <trkpt lat="43.77926" lon="7.11644">
        <ele>703.59997558594</ele>
        <time>2018-12-08T10:45:05.000Z</time>
      </trkpt>
      <trkpt lat="43.7793" lon="7.11645">
        <ele>703</ele>
        <time>2018-12-08T10:45:06.000Z</time>
      </trkpt>
      <trkpt lat="43.77934" lon="7.11644">
        <ele>702.20001220703</ele>
        <time>2018-12-08T10:45:07.000Z</time>
      </trkpt>
      <trkpt lat="43.7794" lon="7.11636">
        <ele>700.40002441406</ele>
        <time>2018-12-08T10:45:09.000Z</time>
      </trkpt>
      <trkpt lat="43.7795" lon="7.11633">
        <ele>698.59997558594</ele>
        <time>2018-12-08T10:45:12.000Z</time>
      </trkpt>
      <trkpt lat="43.77953" lon="7.11633">
        <ele>698</ele>
        <time>2018-12-08T10:45:13.000Z</time>
      </trkpt>
      <trkpt lat="43.77957" lon="7.11631">
        <ele>696.79998779297</ele>
        <time>2018-12-08T10:45:15.000Z</time>
      </trkpt>
      <trkpt lat="43.77957" lon="7.1163">
        <ele>696.20001220703</ele>
        <time>2018-12-08T10:45:16.000Z</time>
      </trkpt>
      <trkpt lat="43.77961" lon="7.11626">
        <ele>695.59997558594</ele>
        <time>2018-12-08T10:45:18.000Z</time>
      </trkpt>
      <trkpt lat="43.77963" lon="7.11626">
        <ele>695</ele>
        <time>2018-12-08T10:45:20.000Z</time>
      </trkpt>
      <trkpt lat="43.77965" lon="7.11625">
        <ele>694.40002441406</ele>
        <time>2018-12-08T10:45:21.000Z</time>
      </trkpt>
      <trkpt lat="43.77971" lon="7.11622">
        <ele>693.40002441406</ele>
        <time>2018-12-08T10:45:24.000Z</time>
      </trkpt>
      <trkpt lat="43.77978" lon="7.11622">
        <ele>692.40002441406</ele>
        <time>2018-12-08T10:45:27.000Z</time>
      </trkpt>
      <trkpt lat="43.77981" lon="7.11619">
        <ele>691.59997558594</ele>
        <time>2018-12-08T10:45:28.000Z</time>
      </trkpt>
      <trkpt lat="43.77982" lon="7.11616">
        <ele>690.79998779297</ele>
        <time>2018-12-08T10:45:29.000Z</time>
      </trkpt>
      <trkpt lat="43.77986" lon="7.11608">
        <ele>688.79998779297</ele>
        <time>2018-12-08T10:45:31.000Z</time>
      </trkpt>
      <trkpt lat="43.77992" lon="7.11602">
        <ele>687.40002441406</ele>
        <time>2018-12-08T10:45:33.000Z</time>
      </trkpt>
      <trkpt lat="43.77996" lon="7.11597">
        <ele>686.40002441406</ele>
        <time>2018-12-08T10:45:35.000Z</time>
      </trkpt>
      <trkpt lat="43.77998" lon="7.11595">
        <ele>686</ele>
        <time>2018-12-08T10:45:36.000Z</time>
      </trkpt>
      <trkpt lat="43.77999" lon="7.11593">
        <ele>685.40002441406</ele>
        <time>2018-12-08T10:45:37.000Z</time>
      </trkpt>
      <trkpt lat="43.77999" lon="7.11591">
        <ele>684.79998779297</ele>
        <time>2018-12-08T10:45:38.000Z</time>
      </trkpt>
      <trkpt lat="43.77999" lon="7.11587">
        <ele>684.20001220703</ele>
        <time>2018-12-08T10:45:39.000Z</time>
      </trkpt>
      <trkpt lat="43.78" lon="7.11584">
        <ele>683.59997558594</ele>
        <time>2018-12-08T10:45:40.000Z</time>
      </trkpt>
      <trkpt lat="43.78005" lon="7.11583">
        <ele>682.79998779297</ele>
        <time>2018-12-08T10:45:42.000Z</time>
      </trkpt>
      <trkpt lat="43.78006" lon="7.11582">
        <ele>682</ele>
        <time>2018-12-08T10:45:43.000Z</time>
      </trkpt>
      <trkpt lat="43.7801" lon="7.11577">
        <ele>681</ele>
        <time>2018-12-08T10:45:45.000Z</time>
      </trkpt>
      <trkpt lat="43.78011" lon="7.11574">
        <ele>680</ele>
        <time>2018-12-08T10:45:46.000Z</time>
      </trkpt>
      <trkpt lat="43.78013" lon="7.11572">
        <ele>679</ele>
        <time>2018-12-08T10:45:47.000Z</time>
      </trkpt>
      <trkpt lat="43.78018" lon="7.11567">
        <ele>677.40002441406</ele>
        <time>2018-12-08T10:45:49.000Z</time>
      </trkpt>
      <trkpt lat="43.7802" lon="7.11566">
        <ele>677</ele>
        <time>2018-12-08T10:45:50.000Z</time>
      </trkpt>
      <trkpt lat="43.78021" lon="7.11563">
        <ele>676.20001220703</ele>
        <time>2018-12-08T10:45:51.000Z</time>
      </trkpt>
      <trkpt lat="43.78026" lon="7.11561">
        <ele>674.40002441406</ele>
        <time>2018-12-08T10:45:53.000Z</time>
      </trkpt>
      <trkpt lat="43.78033" lon="7.11557">
        <ele>672.79998779297</ele>
        <time>2018-12-08T10:45:55.000Z</time>
      </trkpt>
      <trkpt lat="43.78036" lon="7.11555">
        <ele>671.59997558594</ele>
        <time>2018-12-08T10:45:56.000Z</time>
      </trkpt>
      <trkpt lat="43.7804" lon="7.11555">
        <ele>671</ele>
        <time>2018-12-08T10:45:57.000Z</time>
      </trkpt>
      <trkpt lat="43.78043" lon="7.11556">
        <ele>670.40002441406</ele>
        <time>2018-12-08T10:45:58.000Z</time>
      </trkpt>
      <trkpt lat="43.78048" lon="7.11554">
        <ele>669.20001220703</ele>
        <time>2018-12-08T10:46:00.000Z</time>
      </trkpt>
      <trkpt lat="43.78056" lon="7.11554">
        <ele>668</ele>
        <time>2018-12-08T10:46:02.000Z</time>
      </trkpt>
      <trkpt lat="43.78061" lon="7.11554">
        <ele>667.59997558594</ele>
        <time>2018-12-08T10:46:03.000Z</time>
      </trkpt>
      <trkpt lat="43.78064" lon="7.11553">
        <ele>667</ele>
        <time>2018-12-08T10:46:04.000Z</time>
      </trkpt>
      <trkpt lat="43.78073" lon="7.11553">
        <ele>665.20001220703</ele>
        <time>2018-12-08T10:46:06.000Z</time>
      </trkpt>
      <trkpt lat="43.78077" lon="7.11552">
        <ele>664.40002441406</ele>
        <time>2018-12-08T10:46:07.000Z</time>
      </trkpt>
      <trkpt lat="43.7808" lon="7.11553">
        <ele>663.79998779297</ele>
        <time>2018-12-08T10:46:08.000Z</time>
      </trkpt>
      <trkpt lat="43.78084" lon="7.1155">
        <ele>662.79998779297</ele>
        <time>2018-12-08T10:46:10.000Z</time>
      </trkpt>
      <trkpt lat="43.78086" lon="7.11548">
        <ele>662.40002441406</ele>
        <time>2018-12-08T10:46:11.000Z</time>
      </trkpt>
      <trkpt lat="43.78095" lon="7.11541">
        <ele>661.20001220703</ele>
        <time>2018-12-08T10:46:14.000Z</time>
      </trkpt>
      <trkpt lat="43.78099" lon="7.1154">
        <ele>659.79998779297</ele>
        <time>2018-12-08T10:46:16.000Z</time>
      </trkpt>
      <trkpt lat="43.78105" lon="7.11536">
        <ele>658.40002441406</ele>
        <time>2018-12-08T10:46:19.000Z</time>
      </trkpt>
      <trkpt lat="43.78109" lon="7.11534">
        <ele>657.40002441406</ele>
        <time>2018-12-08T10:46:21.000Z</time>
      </trkpt>
      <trkpt lat="43.78113" lon="7.11532">
        <ele>656</ele>
        <time>2018-12-08T10:46:23.000Z</time>
      </trkpt>
      <trkpt lat="43.78114" lon="7.1153">
        <ele>655.20001220703</ele>
        <time>2018-12-08T10:46:24.000Z</time>
      </trkpt>
      <trkpt lat="43.78116" lon="7.11529">
        <ele>654.59997558594</ele>
        <time>2018-12-08T10:46:25.000Z</time>
      </trkpt>
      <trkpt lat="43.78119" lon="7.11525">
        <ele>653.79998779297</ele>
        <time>2018-12-08T10:46:27.000Z</time>
      </trkpt>
      <trkpt lat="43.7812" lon="7.11523">
        <ele>653.40002441406</ele>
        <time>2018-12-08T10:46:28.000Z</time>
      </trkpt>
      <trkpt lat="43.78122" lon="7.11521">
        <ele>653</ele>
        <time>2018-12-08T10:46:29.000Z</time>
      </trkpt>
      <trkpt lat="43.78124" lon="7.1152">
        <ele>652.40002441406</ele>
        <time>2018-12-08T10:46:30.000Z</time>
      </trkpt>
      <trkpt lat="43.78126" lon="7.11522">
        <ele>651.40002441406</ele>
        <time>2018-12-08T10:46:31.000Z</time>
      </trkpt>
      <trkpt lat="43.78127" lon="7.11523">
        <ele>650.79998779297</ele>
        <time>2018-12-08T10:46:32.000Z</time>
      </trkpt>
      <trkpt lat="43.78128" lon="7.11524">
        <ele>650.20001220703</ele>
        <time>2018-12-08T10:46:33.000Z</time>
      </trkpt>
      <trkpt lat="43.7813" lon="7.11526">
        <ele>650</ele>
        <time>2018-12-08T10:46:34.000Z</time>
      </trkpt>
      <trkpt lat="43.78135" lon="7.11533">
        <ele>649.40002441406</ele>
        <time>2018-12-08T10:46:36.000Z</time>
      </trkpt>
      <trkpt lat="43.7814" lon="7.11539">
        <ele>649</ele>
        <time>2018-12-08T10:46:38.000Z</time>
      </trkpt>
      <trkpt lat="43.78147" lon="7.1155">
        <ele>648.59997558594</ele>
        <time>2018-12-08T10:46:42.000Z</time>
      </trkpt>
      <trkpt lat="43.78148" lon="7.11551">
        <ele>648.40002441406</ele>
        <time>2018-12-08T10:46:43.000Z</time>
      </trkpt>
      <trkpt lat="43.78153" lon="7.11557">
        <ele>648.59997558594</ele>
        <time>2018-12-08T10:46:46.000Z</time>
      </trkpt>
      <trkpt lat="43.78162" lon="7.11565">
        <ele>648.79998779297</ele>
        <time>2018-12-08T10:46:50.000Z</time>
      </trkpt>
      <trkpt lat="43.78172" lon="7.11575">
        <ele>648.79998779297</ele>
        <time>2018-12-08T10:46:54.000Z</time>
      </trkpt>
      <trkpt lat="43.78186" lon="7.11585">
        <ele>648.20001220703</ele>
        <time>2018-12-08T10:46:59.000Z</time>
      </trkpt>
      <trkpt lat="43.78189" lon="7.11586">
        <ele>648</ele>
        <time>2018-12-08T10:47:00.000Z</time>
      </trkpt>
      <trkpt lat="43.78192" lon="7.11585">
        <ele>647.79998779297</ele>
        <time>2018-12-08T10:47:01.000Z</time>
      </trkpt>
      <trkpt lat="43.78195" lon="7.1158">
        <ele>647.20001220703</ele>
        <time>2018-12-08T10:47:03.000Z</time>
      </trkpt>
      <trkpt lat="43.78196" lon="7.11571">
        <ele>647.20001220703</ele>
        <time>2018-12-08T10:47:07.000Z</time>
      </trkpt>
      <trkpt lat="43.78202" lon="7.11563">
        <ele>648.59997558594</ele>
        <time>2018-12-08T10:47:12.000Z</time>
      </trkpt>
      <trkpt lat="43.78202" lon="7.11558">
        <ele>649</ele>
        <time>2018-12-08T10:47:14.000Z</time>
      </trkpt>
      <trkpt lat="43.78203" lon="7.11551">
        <ele>649.20001220703</ele>
        <time>2018-12-08T10:47:17.000Z</time>
      </trkpt>
      <trkpt lat="43.78208" lon="7.11543">
        <ele>649.20001220703</ele>
        <time>2018-12-08T10:47:21.000Z</time>
      </trkpt>
      <trkpt lat="43.78208" lon="7.11541">
        <ele>648.59997558594</ele>
        <time>2018-12-08T10:47:25.000Z</time>
      </trkpt>
      <trkpt lat="43.78209" lon="7.11533">
        <ele>649</ele>
        <time>2018-12-08T10:47:33.000Z</time>
      </trkpt>
      <trkpt lat="43.78209" lon="7.11532">
        <ele>649.20001220703</ele>
        <time>2018-12-08T10:47:34.000Z</time>
      </trkpt>
      <trkpt lat="43.78207" lon="7.11529">
        <ele>649.59997558594</ele>
        <time>2018-12-08T10:47:37.000Z</time>
      </trkpt>
      <trkpt lat="43.78207" lon="7.11527">
        <ele>649.79998779297</ele>
        <time>2018-12-08T10:47:38.000Z</time>
      </trkpt>
      <trkpt lat="43.78205" lon="7.11523">
        <ele>650.20001220703</ele>
        <time>2018-12-08T10:47:41.000Z</time>
      </trkpt>
      <trkpt lat="43.78202" lon="7.11519">
        <ele>650.40002441406</ele>
        <time>2018-12-08T10:47:43.000Z</time>
      </trkpt>
      <trkpt lat="43.782" lon="7.11516">
        <ele>650.20001220703</ele>
        <time>2018-12-08T10:47:44.000Z</time>
      </trkpt>
      <trkpt lat="43.78198" lon="7.11513">
        <ele>650</ele>
        <time>2018-12-08T10:47:45.000Z</time>
      </trkpt>
      <trkpt lat="43.78196" lon="7.115">
        <ele>649</ele>
        <time>2018-12-08T10:47:48.000Z</time>
      </trkpt>
      <trkpt lat="43.78191" lon="7.11488">
        <ele>648.79998779297</ele>
        <time>2018-12-08T10:47:52.000Z</time>
      </trkpt>
      <trkpt lat="43.78186" lon="7.1147">
        <ele>648</ele>
        <time>2018-12-08T10:47:56.000Z</time>
      </trkpt>
      <trkpt lat="43.78182" lon="7.11459">
        <ele>646.79998779297</ele>
        <time>2018-12-08T10:47:59.000Z</time>
      </trkpt>
      <trkpt lat="43.78181" lon="7.11456">
        <ele>646.20001220703</ele>
        <time>2018-12-08T10:48:00.000Z</time>
      </trkpt>
      <trkpt lat="43.78181" lon="7.11446">
        <ele>645.59997558594</ele>
        <time>2018-12-08T10:48:03.000Z</time>
      </trkpt>
      <trkpt lat="43.78181" lon="7.11438">
        <ele>645.79998779297</ele>
        <time>2018-12-08T10:48:06.000Z</time>
      </trkpt>
      <trkpt lat="43.78179" lon="7.11433">
        <ele>646.79998779297</ele>
        <time>2018-12-08T10:48:10.000Z</time>
      </trkpt>
      <trkpt lat="43.78179" lon="7.11432">
        <ele>647</ele>
        <time>2018-12-08T10:48:11.000Z</time>
      </trkpt>
      <trkpt lat="43.7818" lon="7.1143">
        <ele>646.40002441406</ele>
        <time>2018-12-08T10:48:19.000Z</time>
      </trkpt>
      <trkpt lat="43.78177" lon="7.11421">
        <ele>646.79998779297</ele>
        <time>2018-12-08T10:48:25.000Z</time>
      </trkpt>
      <trkpt lat="43.78177" lon="7.11411">
        <ele>646.59997558594</ele>
        <time>2018-12-08T10:48:31.000Z</time>
      </trkpt>
      <trkpt lat="43.78176" lon="7.1141">
        <ele>648</ele>
        <time>2018-12-08T10:48:37.000Z</time>
      </trkpt>
      <trkpt lat="43.78175" lon="7.11406">
        <ele>648.20001220703</ele>
        <time>2018-12-08T10:48:42.000Z</time>
      </trkpt>
      <trkpt lat="43.78174" lon="7.11404">
        <ele>648.20001220703</ele>
        <time>2018-12-08T10:48:43.000Z</time>
      </trkpt>
      <trkpt lat="43.78167" lon="7.11394">
        <ele>647.59997558594</ele>
        <time>2018-12-08T10:48:48.000Z</time>
      </trkpt>
      <trkpt lat="43.78167" lon="7.11385">
        <ele>646.79998779297</ele>
        <time>2018-12-08T10:48:52.000Z</time>
      </trkpt>
      <trkpt lat="43.78166" lon="7.11386">
        <ele>646.79998779297</ele>
        <time>2018-12-08T10:48:53.000Z</time>
      </trkpt>
      <trkpt lat="43.78166" lon="7.11382">
        <ele>648.20001220703</ele>
        <time>2018-12-08T10:48:56.000Z</time>
      </trkpt>
      <trkpt lat="43.78165" lon="7.11379">
        <ele>648.79998779297</ele>
        <time>2018-12-08T10:48:58.000Z</time>
      </trkpt>
      <trkpt lat="43.78165" lon="7.11378">
        <ele>649</ele>
        <time>2018-12-08T10:48:59.000Z</time>
      </trkpt>
      <trkpt lat="43.78162" lon="7.11374">
        <ele>649.20001220703</ele>
        <time>2018-12-08T10:49:01.000Z</time>
      </trkpt>
      <trkpt lat="43.78159" lon="7.11368">
        <ele>649.40002441406</ele>
        <time>2018-12-08T10:49:03.000Z</time>
      </trkpt>
      <trkpt lat="43.78157" lon="7.11363">
        <ele>649</ele>
        <time>2018-12-08T10:49:07.000Z</time>
      </trkpt>
      <trkpt lat="43.78152" lon="7.11353">
        <ele>649.20001220703</ele>
        <time>2018-12-08T10:49:12.000Z</time>
      </trkpt>
      <trkpt lat="43.78145" lon="7.11334">
        <ele>649.59997558594</ele>
        <time>2018-12-08T10:49:20.000Z</time>
      </trkpt>
      <trkpt lat="43.7814" lon="7.11322">
        <ele>650</ele>
        <time>2018-12-08T10:49:25.000Z</time>
      </trkpt>
      <trkpt lat="43.78133" lon="7.11308">
        <ele>649.79998779297</ele>
        <time>2018-12-08T10:49:30.000Z</time>
      </trkpt>
      <trkpt lat="43.7813" lon="7.113">
        <ele>649.59997558594</ele>
        <time>2018-12-08T10:49:32.000Z</time>
      </trkpt>
      <trkpt lat="43.78125" lon="7.11285">
        <ele>649.40002441406</ele>
        <time>2018-12-08T10:49:36.000Z</time>
      </trkpt>
      <trkpt lat="43.78121" lon="7.11276">
        <ele>647.59997558594</ele>
        <time>2018-12-08T10:49:39.000Z</time>
      </trkpt>
      <trkpt lat="43.78121" lon="7.11269">
        <ele>647</ele>
        <time>2018-12-08T10:49:41.000Z</time>
      </trkpt>
      <trkpt lat="43.78122" lon="7.11267">
        <ele>647</ele>
        <time>2018-12-08T10:49:42.000Z</time>
      </trkpt>
      <trkpt lat="43.78123" lon="7.11266">
        <ele>647</ele>
        <time>2018-12-08T10:49:44.000Z</time>
      </trkpt>
      <trkpt lat="43.78122" lon="7.11252">
        <ele>647</ele>
        <time>2018-12-08T10:49:49.000Z</time>
      </trkpt>
      <trkpt lat="43.78123" lon="7.11246">
        <ele>646.59997558594</ele>
        <time>2018-12-08T10:49:51.000Z</time>
      </trkpt>
      <trkpt lat="43.78125" lon="7.11241">
        <ele>646.59997558594</ele>
        <time>2018-12-08T10:49:53.000Z</time>
      </trkpt>
      <trkpt lat="43.78128" lon="7.11221">
        <ele>646.79998779297</ele>
        <time>2018-12-08T10:50:00.000Z</time>
      </trkpt>
      <trkpt lat="43.78136" lon="7.112">
        <ele>647.79998779297</ele>
        <time>2018-12-08T10:50:07.000Z</time>
      </trkpt>
      <trkpt lat="43.78142" lon="7.11193">
        <ele>648.20001220703</ele>
        <time>2018-12-08T10:50:11.000Z</time>
      </trkpt>
      <trkpt lat="43.78145" lon="7.11191">
        <ele>648.59997558594</ele>
        <time>2018-12-08T10:50:13.000Z</time>
      </trkpt>
      <trkpt lat="43.78146" lon="7.1119">
        <ele>649</ele>
        <time>2018-12-08T10:50:14.000Z</time>
      </trkpt>
      <trkpt lat="43.7815" lon="7.11184">
        <ele>650</ele>
        <time>2018-12-08T10:50:17.000Z</time>
      </trkpt>
      <trkpt lat="43.78151" lon="7.11181">
        <ele>650.20001220703</ele>
        <time>2018-12-08T10:50:18.000Z</time>
      </trkpt>
      <trkpt lat="43.78158" lon="7.11168">
        <ele>650.79998779297</ele>
        <time>2018-12-08T10:50:24.000Z</time>
      </trkpt>
      <trkpt lat="43.78163" lon="7.11162">
        <ele>651.20001220703</ele>
        <time>2018-12-08T10:50:27.000Z</time>
      </trkpt>
      <trkpt lat="43.78167" lon="7.11158">
        <ele>651.40002441406</ele>
        <time>2018-12-08T10:50:30.000Z</time>
      </trkpt>
      <trkpt lat="43.78174" lon="7.11149">
        <ele>652.20001220703</ele>
        <time>2018-12-08T10:50:35.000Z</time>
      </trkpt>
      <trkpt lat="43.78175" lon="7.11147">
        <ele>652.59997558594</ele>
        <time>2018-12-08T10:50:36.000Z</time>
      </trkpt>
      <trkpt lat="43.78181" lon="7.11144">
        <ele>653.20001220703</ele>
        <time>2018-12-08T10:50:40.000Z</time>
      </trkpt>
      <trkpt lat="43.78181" lon="7.11144">
        <ele>653.59997558594</ele>
        <time>2018-12-08T10:50:41.000Z</time>
      </trkpt>
      <trkpt lat="43.78181" lon="7.11144">
        <ele>654.20001220703</ele>
        <time>2018-12-08T10:50:43.000Z</time>
      </trkpt>
      <trkpt lat="43.78183" lon="7.1114">
        <ele>654.79998779297</ele>
        <time>2018-12-08T10:50:46.000Z</time>
      </trkpt>
      <trkpt lat="43.78188" lon="7.11131">
        <ele>655.40002441406</ele>
        <time>2018-12-08T10:50:52.000Z</time>
      </trkpt>
      <trkpt lat="43.78189" lon="7.1113">
        <ele>655.40002441406</ele>
        <time>2018-12-08T10:50:53.000Z</time>
      </trkpt>
      <trkpt lat="43.78194" lon="7.11127">
        <ele>656.40002441406</ele>
        <time>2018-12-08T10:50:57.000Z</time>
      </trkpt>
      <trkpt lat="43.78198" lon="7.11126">
        <ele>657.20001220703</ele>
        <time>2018-12-08T10:51:01.000Z</time>
      </trkpt>
      <trkpt lat="43.782" lon="7.11124">
        <ele>657.59997558594</ele>
        <time>2018-12-08T10:51:03.000Z</time>
      </trkpt>
      <trkpt lat="43.78204" lon="7.1112">
        <ele>658.40002441406</ele>
        <time>2018-12-08T10:51:07.000Z</time>
      </trkpt>
      <trkpt lat="43.78205" lon="7.11118">
        <ele>658.59997558594</ele>
        <time>2018-12-08T10:51:08.000Z</time>
      </trkpt>
      <trkpt lat="43.78208" lon="7.11117">
        <ele>659.59997558594</ele>
        <time>2018-12-08T10:51:12.000Z</time>
      </trkpt>
      <trkpt lat="43.78208" lon="7.11116">
        <ele>659.79998779297</ele>
        <time>2018-12-08T10:51:13.000Z</time>
      </trkpt>
      <trkpt lat="43.7821" lon="7.11111">
        <ele>660.59997558594</ele>
        <time>2018-12-08T10:51:18.000Z</time>
      </trkpt>
      <trkpt lat="43.78213" lon="7.11107">
        <ele>660.59997558594</ele>
        <time>2018-12-08T10:51:23.000Z</time>
      </trkpt>
      <trkpt lat="43.78217" lon="7.11102">
        <ele>660.79998779297</ele>
        <time>2018-12-08T10:51:28.000Z</time>
      </trkpt>
      <trkpt lat="43.78217" lon="7.111">
        <ele>660.40002441406</ele>
        <time>2018-12-08T10:51:31.000Z</time>
      </trkpt>
      <trkpt lat="43.78219" lon="7.11097">
        <ele>660.40002441406</ele>
        <time>2018-12-08T10:51:32.000Z</time>
      </trkpt>
      <trkpt lat="43.78222" lon="7.11095">
        <ele>660.59997558594</ele>
        <time>2018-12-08T10:51:36.000Z</time>
      </trkpt>
      <trkpt lat="43.78223" lon="7.11094">
        <ele>660.59997558594</ele>
        <time>2018-12-08T10:51:38.000Z</time>
      </trkpt>
      <trkpt lat="43.78226" lon="7.11093">
        <ele>660.79998779297</ele>
        <time>2018-12-08T10:51:41.000Z</time>
      </trkpt>
      <trkpt lat="43.78227" lon="7.11092">
        <ele>660.79998779297</ele>
        <time>2018-12-08T10:51:42.000Z</time>
      </trkpt>
      <trkpt lat="43.78227" lon="7.11091">
        <ele>661.59997558594</ele>
        <time>2018-12-08T10:51:46.000Z</time>
      </trkpt>
      <trkpt lat="43.78228" lon="7.11089">
        <ele>661.40002441406</ele>
        <time>2018-12-08T10:51:47.000Z</time>
      </trkpt>
      <trkpt lat="43.78231" lon="7.11086">
        <ele>661.40002441406</ele>
        <time>2018-12-08T10:51:50.000Z</time>
      </trkpt>
      <trkpt lat="43.78231" lon="7.11086">
        <ele>661.20001220703</ele>
        <time>2018-12-08T10:51:52.000Z</time>
      </trkpt>
      <trkpt lat="43.78232" lon="7.11081">
        <ele>661</ele>
        <time>2018-12-08T10:51:58.000Z</time>
      </trkpt>
      <trkpt lat="43.78234" lon="7.11079">
        <ele>660.59997558594</ele>
        <time>2018-12-08T10:52:03.000Z</time>
      </trkpt>
      <trkpt lat="43.78235" lon="7.11078">
        <ele>660.59997558594</ele>
        <time>2018-12-08T10:52:04.000Z</time>
      </trkpt>
      <trkpt lat="43.78235" lon="7.11074">
        <ele>660.20001220703</ele>
        <time>2018-12-08T10:52:08.000Z</time>
      </trkpt>
      <trkpt lat="43.78234" lon="7.1107">
        <ele>659.79998779297</ele>
        <time>2018-12-08T10:52:10.000Z</time>
      </trkpt>
      <trkpt lat="43.78236" lon="7.11064">
        <ele>658.79998779297</ele>
        <time>2018-12-08T10:52:13.000Z</time>
      </trkpt>
      <trkpt lat="43.7824" lon="7.11056">
        <ele>657.79998779297</ele>
        <time>2018-12-08T10:52:16.000Z</time>
      </trkpt>
      <trkpt lat="43.78242" lon="7.11055">
        <ele>657.40002441406</ele>
        <time>2018-12-08T10:52:17.000Z</time>
      </trkpt>
      <trkpt lat="43.78242" lon="7.11054">
        <ele>656.79998779297</ele>
        <time>2018-12-08T10:52:19.000Z</time>
      </trkpt>
      <trkpt lat="43.78243" lon="7.11052">
        <ele>656.59997558594</ele>
        <time>2018-12-08T10:52:20.000Z</time>
      </trkpt>
      <trkpt lat="43.78245" lon="7.11038">
        <ele>655.79998779297</ele>
        <time>2018-12-08T10:52:25.000Z</time>
      </trkpt>
      <trkpt lat="43.78246" lon="7.11028">
        <ele>654.59997558594</ele>
        <time>2018-12-08T10:52:27.000Z</time>
      </trkpt>
      <trkpt lat="43.78248" lon="7.11024">
        <ele>653.40002441406</ele>
        <time>2018-12-08T10:52:28.000Z</time>
      </trkpt>
      <trkpt lat="43.78252" lon="7.11017">
        <ele>652.20001220703</ele>
        <time>2018-12-08T10:52:30.000Z</time>
      </trkpt>
      <trkpt lat="43.78254" lon="7.11011">
        <ele>651</ele>
        <time>2018-12-08T10:52:32.000Z</time>
      </trkpt>
      <trkpt lat="43.78256" lon="7.11008">
        <ele>650.59997558594</ele>
        <time>2018-12-08T10:52:33.000Z</time>
      </trkpt>
      <trkpt lat="43.78259" lon="7.11006">
        <ele>650</ele>
        <time>2018-12-08T10:52:36.000Z</time>
      </trkpt>
      <trkpt lat="43.7826" lon="7.11004">
        <ele>650.20001220703</ele>
        <time>2018-12-08T10:52:37.000Z</time>
      </trkpt>
      <trkpt lat="43.78263" lon="7.11">
        <ele>650.40002441406</ele>
        <time>2018-12-08T10:52:40.000Z</time>
      </trkpt>
      <trkpt lat="43.78268" lon="7.10991">
        <ele>650.20001220703</ele>
        <time>2018-12-08T10:52:45.000Z</time>
      </trkpt>
      <trkpt lat="43.78271" lon="7.10986">
        <ele>650</ele>
        <time>2018-12-08T10:52:47.000Z</time>
      </trkpt>
      <trkpt lat="43.78274" lon="7.10983">
        <ele>649.79998779297</ele>
        <time>2018-12-08T10:52:49.000Z</time>
      </trkpt>
      <trkpt lat="43.78276" lon="7.1098">
        <ele>650</ele>
        <time>2018-12-08T10:52:51.000Z</time>
      </trkpt>
      <trkpt lat="43.78279" lon="7.10976">
        <ele>650</ele>
        <time>2018-12-08T10:52:53.000Z</time>
      </trkpt>
      <trkpt lat="43.78283" lon="7.1097">
        <ele>649.20001220703</ele>
        <time>2018-12-08T10:52:57.000Z</time>
      </trkpt>
      <trkpt lat="43.78286" lon="7.10963">
        <ele>649.20001220703</ele>
        <time>2018-12-08T10:53:02.000Z</time>
      </trkpt>
      <trkpt lat="43.7829" lon="7.10958">
        <ele>648.79998779297</ele>
        <time>2018-12-08T10:53:05.000Z</time>
      </trkpt>
      <trkpt lat="43.78291" lon="7.10955">
        <ele>648.40002441406</ele>
        <time>2018-12-08T10:53:06.000Z</time>
      </trkpt>
      <trkpt lat="43.78296" lon="7.1095">
        <ele>647.79998779297</ele>
        <time>2018-12-08T10:53:08.000Z</time>
      </trkpt>
      <trkpt lat="43.78298" lon="7.10947">
        <ele>647.59997558594</ele>
        <time>2018-12-08T10:53:09.000Z</time>
      </trkpt>
      <trkpt lat="43.783" lon="7.10945">
        <ele>647.40002441406</ele>
        <time>2018-12-08T10:53:10.000Z</time>
      </trkpt>
      <trkpt lat="43.78305" lon="7.10939">
        <ele>646.20001220703</ele>
        <time>2018-12-08T10:53:12.000Z</time>
      </trkpt>
      <trkpt lat="43.7831" lon="7.10934">
        <ele>645.59997558594</ele>
        <time>2018-12-08T10:53:14.000Z</time>
      </trkpt>
      <trkpt lat="43.78314" lon="7.10931">
        <ele>645</ele>
        <time>2018-12-08T10:53:15.000Z</time>
      </trkpt>
      <trkpt lat="43.7832" lon="7.10928">
        <ele>644</ele>
        <time>2018-12-08T10:53:18.000Z</time>
      </trkpt>
      <trkpt lat="43.78322" lon="7.10926">
        <ele>644.40002441406</ele>
        <time>2018-12-08T10:53:22.000Z</time>
      </trkpt>
      <trkpt lat="43.78323" lon="7.10925">
        <ele>644.79998779297</ele>
        <time>2018-12-08T10:53:23.000Z</time>
      </trkpt>
      <trkpt lat="43.78323" lon="7.10924">
        <ele>645</ele>
        <time>2018-12-08T10:53:24.000Z</time>
      </trkpt>
      <trkpt lat="43.78326" lon="7.10921">
        <ele>645</ele>
        <time>2018-12-08T10:53:27.000Z</time>
      </trkpt>
      <trkpt lat="43.78328" lon="7.1092">
        <ele>645</ele>
        <time>2018-12-08T10:53:28.000Z</time>
      </trkpt>
      <trkpt lat="43.78331" lon="7.10916">
        <ele>644.79998779297</ele>
        <time>2018-12-08T10:53:31.000Z</time>
      </trkpt>
      <trkpt lat="43.78331" lon="7.10913">
        <ele>644.79998779297</ele>
        <time>2018-12-08T10:53:32.000Z</time>
      </trkpt>
      <trkpt lat="43.78329" lon="7.10903">
        <ele>644.79998779297</ele>
        <time>2018-12-08T10:53:37.000Z</time>
      </trkpt>
      <trkpt lat="43.78328" lon="7.10895">
        <ele>646.40002441406</ele>
        <time>2018-12-08T10:53:41.000Z</time>
      </trkpt>
      <trkpt lat="43.78329" lon="7.10893">
        <ele>646.40002441406</ele>
        <time>2018-12-08T10:53:42.000Z</time>
      </trkpt>
      <trkpt lat="43.7833" lon="7.1089">
        <ele>646.40002441406</ele>
        <time>2018-12-08T10:53:44.000Z</time>
      </trkpt>
      <trkpt lat="43.7833" lon="7.10886">
        <ele>646.59997558594</ele>
        <time>2018-12-08T10:53:47.000Z</time>
      </trkpt>
      <trkpt lat="43.78333" lon="7.10881">
        <ele>647</ele>
        <time>2018-12-08T10:53:53.000Z</time>
      </trkpt>
      <trkpt lat="43.78335" lon="7.10876">
        <ele>647.59997558594</ele>
        <time>2018-12-08T10:53:58.000Z</time>
      </trkpt>
      <trkpt lat="43.78336" lon="7.10874">
        <ele>647.59997558594</ele>
        <time>2018-12-08T10:53:59.000Z</time>
      </trkpt>
      <trkpt lat="43.7834" lon="7.10867">
        <ele>648.20001220703</ele>
        <time>2018-12-08T10:54:05.000Z</time>
      </trkpt>
      <trkpt lat="43.78341" lon="7.10865">
        <ele>648.59997558594</ele>
        <time>2018-12-08T10:54:08.000Z</time>
      </trkpt>
      <trkpt lat="43.78341" lon="7.10864">
        <ele>648.79998779297</ele>
        <time>2018-12-08T10:54:10.000Z</time>
      </trkpt>
      <trkpt lat="43.78342" lon="7.10862">
        <ele>648.79998779297</ele>
        <time>2018-12-08T10:54:11.000Z</time>
      </trkpt>
      <trkpt lat="43.78348" lon="7.1085">
        <ele>648.59997558594</ele>
        <time>2018-12-08T10:54:16.000Z</time>
      </trkpt>
      <trkpt lat="43.78349" lon="7.10848">
        <ele>649</ele>
        <time>2018-12-08T10:54:20.000Z</time>
      </trkpt>
      <trkpt lat="43.7835" lon="7.10846">
        <ele>649</ele>
        <time>2018-12-08T10:54:25.000Z</time>
      </trkpt>
      <trkpt lat="43.7835" lon="7.10844">
        <ele>649</ele>
        <time>2018-12-08T10:54:26.000Z</time>
      </trkpt>
      <trkpt lat="43.78352" lon="7.10838">
        <ele>649.40002441406</ele>
        <time>2018-12-08T10:54:30.000Z</time>
      </trkpt>
      <trkpt lat="43.78357" lon="7.1083">
        <ele>649.79998779297</ele>
        <time>2018-12-08T10:54:34.000Z</time>
      </trkpt>
      <trkpt lat="43.78358" lon="7.10828">
        <ele>650</ele>
        <time>2018-12-08T10:54:35.000Z</time>
      </trkpt>
      <trkpt lat="43.78361" lon="7.1082">
        <ele>650.79998779297</ele>
        <time>2018-12-08T10:54:39.000Z</time>
      </trkpt>
      <trkpt lat="43.78361" lon="7.10818">
        <ele>650.79998779297</ele>
        <time>2018-12-08T10:54:40.000Z</time>
      </trkpt>
      <trkpt lat="43.78362" lon="7.10803">
        <ele>650.79998779297</ele>
        <time>2018-12-08T10:54:44.000Z</time>
      </trkpt>
      <trkpt lat="43.78365" lon="7.10785">
        <ele>649.79998779297</ele>
        <time>2018-12-08T10:54:49.000Z</time>
      </trkpt>
      <trkpt lat="43.78367" lon="7.10766">
        <ele>650.20001220703</ele>
        <time>2018-12-08T10:54:55.000Z</time>
      </trkpt>
      <trkpt lat="43.78373" lon="7.10742">
        <ele>650</ele>
        <time>2018-12-08T10:55:00.000Z</time>
      </trkpt>
      <trkpt lat="43.78374" lon="7.10738">
        <ele>649.59997558594</ele>
        <time>2018-12-08T10:55:01.000Z</time>
      </trkpt>
      <trkpt lat="43.7838" lon="7.10725">
        <ele>649.20001220703</ele>
        <time>2018-12-08T10:55:05.000Z</time>
      </trkpt>
      <trkpt lat="43.78389" lon="7.10713">
        <ele>649.59997558594</ele>
        <time>2018-12-08T10:55:10.000Z</time>
      </trkpt>
      <trkpt lat="43.78396" lon="7.10696">
        <ele>650.40002441406</ele>
        <time>2018-12-08T10:55:15.000Z</time>
      </trkpt>
      <trkpt lat="43.78403" lon="7.10679">
        <ele>649.59997558594</ele>
        <time>2018-12-08T10:55:20.000Z</time>
      </trkpt>
      <trkpt lat="43.78405" lon="7.10669">
        <ele>650.20001220703</ele>
        <time>2018-12-08T10:55:24.000Z</time>
      </trkpt>
      <trkpt lat="43.78406" lon="7.10666">
        <ele>650.59997558594</ele>
        <time>2018-12-08T10:55:25.000Z</time>
      </trkpt>
      <trkpt lat="43.78407" lon="7.10663">
        <ele>650.79998779297</ele>
        <time>2018-12-08T10:55:26.000Z</time>
      </trkpt>
      <trkpt lat="43.78409" lon="7.10653">
        <ele>651.79998779297</ele>
        <time>2018-12-08T10:55:31.000Z</time>
      </trkpt>
      <trkpt lat="43.78409" lon="7.10645">
        <ele>653</ele>
        <time>2018-12-08T10:55:35.000Z</time>
      </trkpt>
      <trkpt lat="43.7841" lon="7.1064">
        <ele>653.79998779297</ele>
        <time>2018-12-08T10:55:38.000Z</time>
      </trkpt>
      <trkpt lat="43.7841" lon="7.1064">
        <ele>654</ele>
        <time>2018-12-08T10:55:39.000Z</time>
      </trkpt>
      <trkpt lat="43.7841" lon="7.10636">
        <ele>655</ele>
        <time>2018-12-08T10:55:44.000Z</time>
      </trkpt>
      <trkpt lat="43.7841" lon="7.10629">
        <ele>656.20001220703</ele>
        <time>2018-12-08T10:55:52.000Z</time>
      </trkpt>
      <trkpt lat="43.7841" lon="7.10626">
        <ele>657.20001220703</ele>
        <time>2018-12-08T10:55:58.000Z</time>
      </trkpt>
      <trkpt lat="43.7841" lon="7.10624">
        <ele>657.59997558594</ele>
        <time>2018-12-08T10:56:00.000Z</time>
      </trkpt>
      <trkpt lat="43.7841" lon="7.10622">
        <ele>658.40002441406</ele>
        <time>2018-12-08T10:56:05.000Z</time>
      </trkpt>
      <trkpt lat="43.78411" lon="7.10621">
        <ele>658.59997558594</ele>
        <time>2018-12-08T10:56:07.000Z</time>
      </trkpt>
      <trkpt lat="43.78411" lon="7.1062">
        <ele>659.40002441406</ele>
        <time>2018-12-08T10:56:11.000Z</time>
      </trkpt>
      <trkpt lat="43.78411" lon="7.10619">
        <ele>659.79998779297</ele>
        <time>2018-12-08T10:56:13.000Z</time>
      </trkpt>
      <trkpt lat="43.78412" lon="7.10619">
        <ele>660.59997558594</ele>
        <time>2018-12-08T10:56:17.000Z</time>
      </trkpt>
      <trkpt lat="43.78412" lon="7.10618">
        <ele>661</ele>
        <time>2018-12-08T10:56:20.000Z</time>
      </trkpt>
      <trkpt lat="43.78412" lon="7.10616">
        <ele>661.40002441406</ele>
        <time>2018-12-08T10:56:26.000Z</time>
      </trkpt>
      <trkpt lat="43.78412" lon="7.10615">
        <ele>661.59997558594</ele>
        <time>2018-12-08T10:56:27.000Z</time>
      </trkpt>
      <trkpt lat="43.78411" lon="7.10611">
        <ele>662.20001220703</ele>
        <time>2018-12-08T10:56:32.000Z</time>
      </trkpt>
      <trkpt lat="43.78411" lon="7.10611">
        <ele>662.79998779297</ele>
        <time>2018-12-08T10:56:34.000Z</time>
      </trkpt>
      <trkpt lat="43.7841" lon="7.1061">
        <ele>663.20001220703</ele>
        <time>2018-12-08T10:56:37.000Z</time>
      </trkpt>
      <trkpt lat="43.78406" lon="7.10601">
        <ele>663.20001220703</ele>
        <time>2018-12-08T10:56:42.000Z</time>
      </trkpt>
      <trkpt lat="43.78401" lon="7.10587">
        <ele>662.59997558594</ele>
        <time>2018-12-08T10:56:48.000Z</time>
      </trkpt>
      <trkpt lat="43.78399" lon="7.10578">
        <ele>663.20001220703</ele>
        <time>2018-12-08T10:56:53.000Z</time>
      </trkpt>
      <trkpt lat="43.78397" lon="7.10564">
        <ele>663.40002441406</ele>
        <time>2018-12-08T10:56:59.000Z</time>
      </trkpt>
      <trkpt lat="43.78401" lon="7.10552">
        <ele>663.59997558594</ele>
        <time>2018-12-08T10:57:04.000Z</time>
      </trkpt>
      <trkpt lat="43.78402" lon="7.1055">
        <ele>663.79998779297</ele>
        <time>2018-12-08T10:57:05.000Z</time>
      </trkpt>
      <trkpt lat="43.78406" lon="7.10545">
        <ele>664</ele>
        <time>2018-12-08T10:57:08.000Z</time>
      </trkpt>
      <trkpt lat="43.78407" lon="7.10545">
        <ele>664</ele>
        <time>2018-12-08T10:57:10.000Z</time>
      </trkpt>
      <trkpt lat="43.78409" lon="7.10542">
        <ele>665</ele>
        <time>2018-12-08T10:57:15.000Z</time>
      </trkpt>
      <trkpt lat="43.78411" lon="7.1054">
        <ele>665.59997558594</ele>
        <time>2018-12-08T10:57:17.000Z</time>
      </trkpt>
      <trkpt lat="43.78414" lon="7.10536">
        <ele>666</ele>
        <time>2018-12-08T10:57:23.000Z</time>
      </trkpt>
      <trkpt lat="43.78415" lon="7.10534">
        <ele>666</ele>
        <time>2018-12-08T10:57:24.000Z</time>
      </trkpt>
      <trkpt lat="43.78419" lon="7.10522">
        <ele>666.20001220703</ele>
        <time>2018-12-08T10:57:29.000Z</time>
      </trkpt>
      <trkpt lat="43.78421" lon="7.10502">
        <ele>666.40002441406</ele>
        <time>2018-12-08T10:57:34.000Z</time>
      </trkpt>
      <trkpt lat="43.78422" lon="7.10493">
        <ele>666.40002441406</ele>
        <time>2018-12-08T10:57:39.000Z</time>
      </trkpt>
      <trkpt lat="43.78421" lon="7.1049">
        <ele>666.79998779297</ele>
        <time>2018-12-08T10:57:41.000Z</time>
      </trkpt>
      <trkpt lat="43.78419" lon="7.10484">
        <ele>666.79998779297</ele>
        <time>2018-12-08T10:57:45.000Z</time>
      </trkpt>
      <trkpt lat="43.78419" lon="7.10481">
        <ele>666.79998779297</ele>
        <time>2018-12-08T10:57:46.000Z</time>
      </trkpt>
      <trkpt lat="43.78422" lon="7.10463">
        <ele>666.20001220703</ele>
        <time>2018-12-08T10:57:50.000Z</time>
      </trkpt>
      <trkpt lat="43.78424" lon="7.10454">
        <ele>666</ele>
        <time>2018-12-08T10:57:55.000Z</time>
      </trkpt>
      <trkpt lat="43.78428" lon="7.10439">
        <ele>666.79998779297</ele>
        <time>2018-12-08T10:58:02.000Z</time>
      </trkpt>
      <trkpt lat="43.78429" lon="7.10435">
        <ele>667.20001220703</ele>
        <time>2018-12-08T10:58:04.000Z</time>
      </trkpt>
      <trkpt lat="43.78432" lon="7.1043">
        <ele>668</ele>
        <time>2018-12-08T10:58:07.000Z</time>
      </trkpt>
      <trkpt lat="43.78434" lon="7.10429">
        <ele>668.40002441406</ele>
        <time>2018-12-08T10:58:08.000Z</time>
      </trkpt>
      <trkpt lat="43.78435" lon="7.10428">
        <ele>669</ele>
        <time>2018-12-08T10:58:11.000Z</time>
      </trkpt>
      <trkpt lat="43.78439" lon="7.10425">
        <ele>669.59997558594</ele>
        <time>2018-12-08T10:58:16.000Z</time>
      </trkpt>
      <trkpt lat="43.7844" lon="7.10421">
        <ele>671</ele>
        <time>2018-12-08T10:58:20.000Z</time>
      </trkpt>
      <trkpt lat="43.7844" lon="7.10419">
        <ele>671.59997558594</ele>
        <time>2018-12-08T10:58:22.000Z</time>
      </trkpt>
      <trkpt lat="43.7844" lon="7.10417">
        <ele>672.20001220703</ele>
        <time>2018-12-08T10:58:24.000Z</time>
      </trkpt>
      <trkpt lat="43.7844" lon="7.10411">
        <ele>673.20001220703</ele>
        <time>2018-12-08T10:58:30.000Z</time>
      </trkpt>
      <trkpt lat="43.78441" lon="7.10406">
        <ele>673.79998779297</ele>
        <time>2018-12-08T10:58:35.000Z</time>
      </trkpt>
      <trkpt lat="43.78441" lon="7.10404">
        <ele>674.20001220703</ele>
        <time>2018-12-08T10:58:37.000Z</time>
      </trkpt>
      <trkpt lat="43.78442" lon="7.10401">
        <ele>675.40002441406</ele>
        <time>2018-12-08T10:58:43.000Z</time>
      </trkpt>
      <trkpt lat="43.78443" lon="7.10399">
        <ele>675.79998779297</ele>
        <time>2018-12-08T10:58:45.000Z</time>
      </trkpt>
      <trkpt lat="43.78443" lon="7.10395">
        <ele>676.59997558594</ele>
        <time>2018-12-08T10:58:50.000Z</time>
      </trkpt>
      <trkpt lat="43.78444" lon="7.10392">
        <ele>677</ele>
        <time>2018-12-08T10:58:53.000Z</time>
      </trkpt>
      <trkpt lat="43.78445" lon="7.10387">
        <ele>677.59997558594</ele>
        <time>2018-12-08T10:58:58.000Z</time>
      </trkpt>
      <trkpt lat="43.78445" lon="7.10386">
        <ele>677.79998779297</ele>
        <time>2018-12-08T10:59:00.000Z</time>
      </trkpt>
      <trkpt lat="43.7844" lon="7.1038">
        <ele>677.59997558594</ele>
        <time>2018-12-08T10:59:06.000Z</time>
      </trkpt>
      <trkpt lat="43.78439" lon="7.10377">
        <ele>677.40002441406</ele>
        <time>2018-12-08T10:59:12.000Z</time>
      </trkpt>
      <trkpt lat="43.78438" lon="7.10372">
        <ele>677.40002441406</ele>
        <time>2018-12-08T10:59:18.000Z</time>
      </trkpt>
      <trkpt lat="43.78432" lon="7.1036">
        <ele>678.59997558594</ele>
        <time>2018-12-08T10:59:25.000Z</time>
      </trkpt>
      <trkpt lat="43.7843" lon="7.10356">
        <ele>679.20001220703</ele>
        <time>2018-12-08T10:59:30.000Z</time>
      </trkpt>
      <trkpt lat="43.78429" lon="7.10354">
        <ele>679.79998779297</ele>
        <time>2018-12-08T10:59:32.000Z</time>
      </trkpt>
      <trkpt lat="43.78429" lon="7.10348">
        <ele>680.79998779297</ele>
        <time>2018-12-08T10:59:37.000Z</time>
      </trkpt>
      <trkpt lat="43.78429" lon="7.10347">
        <ele>681</ele>
        <time>2018-12-08T10:59:38.000Z</time>
      </trkpt>
      <trkpt lat="43.78428" lon="7.10343">
        <ele>682</ele>
        <time>2018-12-08T10:59:43.000Z</time>
      </trkpt>
      <trkpt lat="43.78427" lon="7.1034">
        <ele>682.40002441406</ele>
        <time>2018-12-08T10:59:46.000Z</time>
      </trkpt>
      <trkpt lat="43.78426" lon="7.10336">
        <ele>683</ele>
        <time>2018-12-08T10:59:51.000Z</time>
      </trkpt>
      <trkpt lat="43.78425" lon="7.10334">
        <ele>683</ele>
        <time>2018-12-08T10:59:52.000Z</time>
      </trkpt>
      <trkpt lat="43.78424" lon="7.10326">
        <ele>683.59997558594</ele>
        <time>2018-12-08T10:59:57.000Z</time>
      </trkpt>
      <trkpt lat="43.78424" lon="7.10324">
        <ele>684.20001220703</ele>
        <time>2018-12-08T10:59:59.000Z</time>
      </trkpt>
      <trkpt lat="43.78424" lon="7.10319">
        <ele>685</ele>
        <time>2018-12-08T11:00:04.000Z</time>
      </trkpt>
      <trkpt lat="43.78423" lon="7.10318">
        <ele>685.20001220703</ele>
        <time>2018-12-08T11:00:05.000Z</time>
      </trkpt>
      <trkpt lat="43.78421" lon="7.10314">
        <ele>685.79998779297</ele>
        <time>2018-12-08T11:00:10.000Z</time>
      </trkpt>
      <trkpt lat="43.78421" lon="7.10313">
        <ele>685.79998779297</ele>
        <time>2018-12-08T11:00:11.000Z</time>
      </trkpt>
      <trkpt lat="43.78421" lon="7.10312">
        <ele>685.79998779297</ele>
        <time>2018-12-08T11:00:13.000Z</time>
      </trkpt>
      <trkpt lat="43.78417" lon="7.10306">
        <ele>685.79998779297</ele>
        <time>2018-12-08T11:00:20.000Z</time>
      </trkpt>
      <trkpt lat="43.7841" lon="7.10289">
        <ele>686</ele>
        <time>2018-12-08T11:00:27.000Z</time>
      </trkpt>
      <trkpt lat="43.78409" lon="7.10286">
        <ele>686.40002441406</ele>
        <time>2018-12-08T11:00:29.000Z</time>
      </trkpt>
      <trkpt lat="43.78406" lon="7.10281">
        <ele>687</ele>
        <time>2018-12-08T11:00:32.000Z</time>
      </trkpt>
      <trkpt lat="43.78404" lon="7.10279">
        <ele>687</ele>
        <time>2018-12-08T11:00:33.000Z</time>
      </trkpt>
      <trkpt lat="43.784" lon="7.10269">
        <ele>686.79998779297</ele>
        <time>2018-12-08T11:00:36.000Z</time>
      </trkpt>
      <trkpt lat="43.78394" lon="7.10253">
        <ele>686.59997558594</ele>
        <time>2018-12-08T11:00:42.000Z</time>
      </trkpt>
      <trkpt lat="43.78388" lon="7.10234">
        <ele>686.79998779297</ele>
        <time>2018-12-08T11:00:48.000Z</time>
      </trkpt>
      <trkpt lat="43.78382" lon="7.10214">
        <ele>687.20001220703</ele>
        <time>2018-12-08T11:00:55.000Z</time>
      </trkpt>
      <trkpt lat="43.7838" lon="7.10203">
        <ele>687.59997558594</ele>
        <time>2018-12-08T11:00:58.000Z</time>
      </trkpt>
      <trkpt lat="43.78376" lon="7.10185">
        <ele>688</ele>
        <time>2018-12-08T11:01:03.000Z</time>
      </trkpt>
      <trkpt lat="43.78373" lon="7.10167">
        <ele>687.79998779297</ele>
        <time>2018-12-08T11:01:08.000Z</time>
      </trkpt>
      <trkpt lat="43.7837" lon="7.10149">
        <ele>688.59997558594</ele>
        <time>2018-12-08T11:01:14.000Z</time>
      </trkpt>
      <trkpt lat="43.7837" lon="7.10146">
        <ele>688.79998779297</ele>
        <time>2018-12-08T11:01:15.000Z</time>
      </trkpt>
      <trkpt lat="43.7837" lon="7.10137">
        <ele>690</ele>
        <time>2018-12-08T11:01:19.000Z</time>
      </trkpt>
      <trkpt lat="43.7837" lon="7.10134">
        <ele>690.40002441406</ele>
        <time>2018-12-08T11:01:20.000Z</time>
      </trkpt>
      <trkpt lat="43.78369" lon="7.10128">
        <ele>691</ele>
        <time>2018-12-08T11:01:23.000Z</time>
      </trkpt>
      <trkpt lat="43.78367" lon="7.10122">
        <ele>692.40002441406</ele>
        <time>2018-12-08T11:01:26.000Z</time>
      </trkpt>
      <trkpt lat="43.78364" lon="7.10107">
        <ele>693.20001220703</ele>
        <time>2018-12-08T11:01:32.000Z</time>
      </trkpt>
      <trkpt lat="43.78356" lon="7.10088">
        <ele>692.79998779297</ele>
        <time>2018-12-08T11:01:37.000Z</time>
      </trkpt>
      <trkpt lat="43.78354" lon="7.10072">
        <ele>691.79998779297</ele>
        <time>2018-12-08T11:01:41.000Z</time>
      </trkpt>
      <trkpt lat="43.78354" lon="7.1006">
        <ele>692.20001220703</ele>
        <time>2018-12-08T11:01:45.000Z</time>
      </trkpt>
      <trkpt lat="43.78357" lon="7.10045">
        <ele>693.20001220703</ele>
        <time>2018-12-08T11:01:50.000Z</time>
      </trkpt>
      <trkpt lat="43.78358" lon="7.10043">
        <ele>693.59997558594</ele>
        <time>2018-12-08T11:01:54.000Z</time>
      </trkpt>
      <trkpt lat="43.78359" lon="7.10037">
        <ele>694</ele>
        <time>2018-12-08T11:01:59.000Z</time>
      </trkpt>
      <trkpt lat="43.78361" lon="7.10021">
        <ele>694.40002441406</ele>
        <time>2018-12-08T11:02:04.000Z</time>
      </trkpt>
      <trkpt lat="43.78366" lon="7.10003">
        <ele>693.59997558594</ele>
        <time>2018-12-08T11:02:10.000Z</time>
      </trkpt>
      <trkpt lat="43.78371" lon="7.09987">
        <ele>693.20001220703</ele>
        <time>2018-12-08T11:02:15.000Z</time>
      </trkpt>
      <trkpt lat="43.78371" lon="7.09987">
        <ele>692.40002441406</ele>
        <time>2018-12-08T11:02:17.000Z</time>
      </trkpt>
      <trkpt lat="43.78372" lon="7.09987">
        <ele>692.20001220703</ele>
        <time>2018-12-08T11:02:18.000Z</time>
      </trkpt>
      <trkpt lat="43.78368" lon="7.09985">
        <ele>691.79998779297</ele>
        <time>2018-12-08T11:02:24.000Z</time>
      </trkpt>
      <trkpt lat="43.78366" lon="7.09984">
        <ele>691.79998779297</ele>
        <time>2018-12-08T11:02:31.000Z</time>
      </trkpt>
      <trkpt lat="43.78366" lon="7.09983">
        <ele>691.59997558594</ele>
        <time>2018-12-08T11:02:47.000Z</time>
      </trkpt>
      <trkpt lat="43.78366" lon="7.09982">
        <ele>691.59997558594</ele>
        <time>2018-12-08T11:03:04.000Z</time>
      </trkpt>
      <trkpt lat="43.78367" lon="7.09982">
        <ele>692</ele>
        <time>2018-12-08T11:03:11.000Z</time>
      </trkpt>
      <trkpt lat="43.78367" lon="7.09981">
        <ele>692</ele>
        <time>2018-12-08T11:03:18.000Z</time>
      </trkpt>
      <trkpt lat="43.78366" lon="7.0998">
        <ele>691.59997558594</ele>
        <time>2018-12-08T11:03:24.000Z</time>
      </trkpt>
      <trkpt lat="43.78366" lon="7.0998">
        <ele>692</ele>
        <time>2018-12-08T11:03:31.000Z</time>
      </trkpt>
      <trkpt lat="43.78366" lon="7.0998">
        <ele>692</ele>
        <time>2018-12-08T11:03:38.000Z</time>
      </trkpt>
      <trkpt lat="43.78366" lon="7.0998">
        <ele>692</ele>
        <time>2018-12-08T11:03:53.000Z</time>
      </trkpt>
      <trkpt lat="43.78367" lon="7.09981">
        <ele>692</ele>
        <time>2018-12-08T11:04:04.000Z</time>
      </trkpt>
      <trkpt lat="43.78367" lon="7.0998">
        <ele>692.20001220703</ele>
        <time>2018-12-08T11:04:15.000Z</time>
      </trkpt>
      <trkpt lat="43.78365" lon="7.09978">
        <ele>692.20001220703</ele>
        <time>2018-12-08T11:04:32.000Z</time>
      </trkpt>
      <trkpt lat="43.78365" lon="7.09979">
        <ele>692.40002441406</ele>
        <time>2018-12-08T11:04:39.000Z</time>
      </trkpt>
      <trkpt lat="43.78365" lon="7.09979">
        <ele>693</ele>
        <time>2018-12-08T11:04:45.000Z</time>
      </trkpt>
      <trkpt lat="43.78366" lon="7.09979">
        <ele>693</ele>
        <time>2018-12-08T11:04:53.000Z</time>
      </trkpt>
      <trkpt lat="43.78367" lon="7.09979">
        <ele>691.79998779297</ele>
        <time>2018-12-08T11:05:00.000Z</time>
      </trkpt>
      <trkpt lat="43.78367" lon="7.09979">
        <ele>692</ele>
        <time>2018-12-08T11:05:10.000Z</time>
      </trkpt>
      <trkpt lat="43.78367" lon="7.09978">
        <ele>691.79998779297</ele>
        <time>2018-12-08T11:05:21.000Z</time>
      </trkpt>
      <trkpt lat="43.78369" lon="7.09979">
        <ele>691.79998779297</ele>
        <time>2018-12-08T11:05:25.000Z</time>
      </trkpt>
      <trkpt lat="43.7837" lon="7.09979">
        <ele>691.79998779297</ele>
        <time>2018-12-08T11:05:26.000Z</time>
      </trkpt>
      <trkpt lat="43.78371" lon="7.09979">
        <ele>691.79998779297</ele>
        <time>2018-12-08T11:05:28.000Z</time>
      </trkpt>
      <trkpt lat="43.78371" lon="7.09979">
        <ele>691.79998779297</ele>
        <time>2018-12-08T11:05:31.000Z</time>
      </trkpt>
      <trkpt lat="43.78371" lon="7.09978">
        <ele>692.40002441406</ele>
        <time>2018-12-08T11:05:37.000Z</time>
      </trkpt>
      <trkpt lat="43.78371" lon="7.09978">
        <ele>692.20001220703</ele>
        <time>2018-12-08T11:05:44.000Z</time>
      </trkpt>
      <trkpt lat="43.7837" lon="7.09978">
        <ele>692.40002441406</ele>
        <time>2018-12-08T11:05:55.000Z</time>
      </trkpt>
      <trkpt lat="43.7837" lon="7.09977">
        <ele>692.20001220703</ele>
        <time>2018-12-08T11:06:03.000Z</time>
      </trkpt>
      <trkpt lat="43.7837" lon="7.09976">
        <ele>692.20001220703</ele>
        <time>2018-12-08T11:06:07.000Z</time>
      </trkpt>
      <trkpt lat="43.78371" lon="7.0997">
        <ele>692.20001220703</ele>
        <time>2018-12-08T11:06:10.000Z</time>
      </trkpt>
      <trkpt lat="43.78374" lon="7.09956">
        <ele>692.59997558594</ele>
        <time>2018-12-08T11:06:16.000Z</time>
      </trkpt>
      <trkpt lat="43.78378" lon="7.0995">
        <ele>693.59997558594</ele>
        <time>2018-12-08T11:06:19.000Z</time>
      </trkpt>
      <trkpt lat="43.7838" lon="7.09946">
        <ele>694.79998779297</ele>
        <time>2018-12-08T11:06:22.000Z</time>
      </trkpt>
      <trkpt lat="43.7838" lon="7.09944">
        <ele>696.20001220703</ele>
        <time>2018-12-08T11:06:26.000Z</time>
      </trkpt>
      <trkpt lat="43.7838" lon="7.09943">
        <ele>696.20001220703</ele>
        <time>2018-12-08T11:06:27.000Z</time>
      </trkpt>
      <trkpt lat="43.78381" lon="7.09941">
        <ele>696.59997558594</ele>
        <time>2018-12-08T11:06:34.000Z</time>
      </trkpt>
      <trkpt lat="43.78383" lon="7.09933">
        <ele>697.40002441406</ele>
        <time>2018-12-08T11:06:39.000Z</time>
      </trkpt>
      <trkpt lat="43.78383" lon="7.09926">
        <ele>698.59997558594</ele>
        <time>2018-12-08T11:06:44.000Z</time>
      </trkpt>
      <trkpt lat="43.78382" lon="7.09923">
        <ele>698.79998779297</ele>
        <time>2018-12-08T11:06:46.000Z</time>
      </trkpt>
      <trkpt lat="43.78382" lon="7.09917">
        <ele>699.20001220703</ele>
        <time>2018-12-08T11:06:50.000Z</time>
      </trkpt>
      <trkpt lat="43.78382" lon="7.09914">
        <ele>699.59997558594</ele>
        <time>2018-12-08T11:06:52.000Z</time>
      </trkpt>
      <trkpt lat="43.78381" lon="7.0991">
        <ele>700.20001220703</ele>
        <time>2018-12-08T11:06:55.000Z</time>
      </trkpt>
      <trkpt lat="43.78381" lon="7.09905">
        <ele>700.79998779297</ele>
        <time>2018-12-08T11:06:59.000Z</time>
      </trkpt>
      <trkpt lat="43.78382" lon="7.09902">
        <ele>701.20001220703</ele>
        <time>2018-12-08T11:07:01.000Z</time>
      </trkpt>
      <trkpt lat="43.78381" lon="7.09899">
        <ele>701.79998779297</ele>
        <time>2018-12-08T11:07:03.000Z</time>
      </trkpt>
      <trkpt lat="43.78381" lon="7.09894">
        <ele>702.40002441406</ele>
        <time>2018-12-08T11:07:07.000Z</time>
      </trkpt>
      <trkpt lat="43.7838" lon="7.09892">
        <ele>703</ele>
        <time>2018-12-08T11:07:09.000Z</time>
      </trkpt>
      <trkpt lat="43.7838" lon="7.09887">
        <ele>704</ele>
        <time>2018-12-08T11:07:13.000Z</time>
      </trkpt>
      <trkpt lat="43.7838" lon="7.09885">
        <ele>704.20001220703</ele>
        <time>2018-12-08T11:07:14.000Z</time>
      </trkpt>
      <trkpt lat="43.78378" lon="7.09877">
        <ele>704.79998779297</ele>
        <time>2018-12-08T11:07:20.000Z</time>
      </trkpt>
      <trkpt lat="43.78378" lon="7.09874">
        <ele>705.20001220703</ele>
        <time>2018-12-08T11:07:22.000Z</time>
      </trkpt>
      <trkpt lat="43.78377" lon="7.09872">
        <ele>705.79998779297</ele>
        <time>2018-12-08T11:07:24.000Z</time>
      </trkpt>
      <trkpt lat="43.78377" lon="7.0987">
        <ele>706</ele>
        <time>2018-12-08T11:07:25.000Z</time>
      </trkpt>
      <trkpt lat="43.78377" lon="7.09868">
        <ele>706.40002441406</ele>
        <time>2018-12-08T11:07:27.000Z</time>
      </trkpt>
      <trkpt lat="43.78376" lon="7.0986">
        <ele>707.59997558594</ele>
        <time>2018-12-08T11:07:32.000Z</time>
      </trkpt>
      <trkpt lat="43.78375" lon="7.09857">
        <ele>707.79998779297</ele>
        <time>2018-12-08T11:07:34.000Z</time>
      </trkpt>
      <trkpt lat="43.78374" lon="7.09844">
        <ele>708.59997558594</ele>
        <time>2018-12-08T11:07:41.000Z</time>
      </trkpt>
      <trkpt lat="43.78374" lon="7.09842">
        <ele>708.79998779297</ele>
        <time>2018-12-08T11:07:42.000Z</time>
      </trkpt>
      <trkpt lat="43.78373" lon="7.09827">
        <ele>709.40002441406</ele>
        <time>2018-12-08T11:07:49.000Z</time>
      </trkpt>
      <trkpt lat="43.78372" lon="7.09807">
        <ele>709.59997558594</ele>
        <time>2018-12-08T11:07:57.000Z</time>
      </trkpt>
      <trkpt lat="43.78373" lon="7.09791">
        <ele>710.59997558594</ele>
        <time>2018-12-08T11:08:04.000Z</time>
      </trkpt>
      <trkpt lat="43.78373" lon="7.09789">
        <ele>710.79998779297</ele>
        <time>2018-12-08T11:08:05.000Z</time>
      </trkpt>
      <trkpt lat="43.78375" lon="7.09779">
        <ele>712</ele>
        <time>2018-12-08T11:08:11.000Z</time>
      </trkpt>
      <trkpt lat="43.78375" lon="7.09778">
        <ele>712</ele>
        <time>2018-12-08T11:08:12.000Z</time>
      </trkpt>
      <trkpt lat="43.78377" lon="7.0977">
        <ele>713</ele>
        <time>2018-12-08T11:08:17.000Z</time>
      </trkpt>
      <trkpt lat="43.78377" lon="7.09768">
        <ele>713.20001220703</ele>
        <time>2018-12-08T11:08:18.000Z</time>
      </trkpt>
      <trkpt lat="43.7838" lon="7.09756">
        <ele>714.20001220703</ele>
        <time>2018-12-08T11:08:24.000Z</time>
      </trkpt>
      <trkpt lat="43.78381" lon="7.09753">
        <ele>714.40002441406</ele>
        <time>2018-12-08T11:08:25.000Z</time>
      </trkpt>
      <trkpt lat="43.78383" lon="7.09749">
        <ele>715.20001220703</ele>
        <time>2018-12-08T11:08:28.000Z</time>
      </trkpt>
      <trkpt lat="43.78385" lon="7.09747">
        <ele>716.40002441406</ele>
        <time>2018-12-08T11:08:31.000Z</time>
      </trkpt>
      <trkpt lat="43.78386" lon="7.09745">
        <ele>717</ele>
        <time>2018-12-08T11:08:33.000Z</time>
      </trkpt>
      <trkpt lat="43.78389" lon="7.09741">
        <ele>717.40002441406</ele>
        <time>2018-12-08T11:08:37.000Z</time>
      </trkpt>
      <trkpt lat="43.78391" lon="7.0974">
        <ele>717.40002441406</ele>
        <time>2018-12-08T11:08:39.000Z</time>
      </trkpt>
      <trkpt lat="43.78392" lon="7.09739">
        <ele>717.40002441406</ele>
        <time>2018-12-08T11:08:40.000Z</time>
      </trkpt>
      <trkpt lat="43.78395" lon="7.09733">
        <ele>717.79998779297</ele>
        <time>2018-12-08T11:08:44.000Z</time>
      </trkpt>
      <trkpt lat="43.78395" lon="7.0973">
        <ele>718</ele>
        <time>2018-12-08T11:08:46.000Z</time>
      </trkpt>
      <trkpt lat="43.78395" lon="7.09725">
        <ele>718.40002441406</ele>
        <time>2018-12-08T11:08:49.000Z</time>
      </trkpt>
      <trkpt lat="43.78396" lon="7.09721">
        <ele>718.59997558594</ele>
        <time>2018-12-08T11:08:51.000Z</time>
      </trkpt>
      <trkpt lat="43.78395" lon="7.09711">
        <ele>719.20001220703</ele>
        <time>2018-12-08T11:08:56.000Z</time>
      </trkpt>
      <trkpt lat="43.78395" lon="7.09705">
        <ele>719.59997558594</ele>
        <time>2018-12-08T11:08:59.000Z</time>
      </trkpt>
      <trkpt lat="43.78393" lon="7.09695">
        <ele>720.20001220703</ele>
        <time>2018-12-08T11:09:04.000Z</time>
      </trkpt>
      <trkpt lat="43.78392" lon="7.09688">
        <ele>720.59997558594</ele>
        <time>2018-12-08T11:09:07.000Z</time>
      </trkpt>
      <trkpt lat="43.78389" lon="7.0968">
        <ele>721.20001220703</ele>
        <time>2018-12-08T11:09:11.000Z</time>
      </trkpt>
      <trkpt lat="43.78387" lon="7.09671">
        <ele>721.79998779297</ele>
        <time>2018-12-08T11:09:15.000Z</time>
      </trkpt>
      <trkpt lat="43.78383" lon="7.09661">
        <ele>722.59997558594</ele>
        <time>2018-12-08T11:09:20.000Z</time>
      </trkpt>
      <trkpt lat="43.7838" lon="7.09655">
        <ele>723</ele>
        <time>2018-12-08T11:09:23.000Z</time>
      </trkpt>
      <trkpt lat="43.78378" lon="7.0965">
        <ele>723.40002441406</ele>
        <time>2018-12-08T11:09:26.000Z</time>
      </trkpt>
      <trkpt lat="43.78373" lon="7.09639">
        <ele>724.20001220703</ele>
        <time>2018-12-08T11:09:32.000Z</time>
      </trkpt>
      <trkpt lat="43.78369" lon="7.09623">
        <ele>725.20001220703</ele>
        <time>2018-12-08T11:09:39.000Z</time>
      </trkpt>
      <trkpt lat="43.78366" lon="7.09613">
        <ele>726.20001220703</ele>
        <time>2018-12-08T11:09:44.000Z</time>
      </trkpt>
      <trkpt lat="43.78365" lon="7.09607">
        <ele>727</ele>
        <time>2018-12-08T11:09:47.000Z</time>
      </trkpt>
      <trkpt lat="43.78363" lon="7.09603">
        <ele>727.40002441406</ele>
        <time>2018-12-08T11:09:49.000Z</time>
      </trkpt>
      <trkpt lat="43.78361" lon="7.09594">
        <ele>728.40002441406</ele>
        <time>2018-12-08T11:09:54.000Z</time>
      </trkpt>
      <trkpt lat="43.7836" lon="7.0959">
        <ele>728.79998779297</ele>
        <time>2018-12-08T11:09:56.000Z</time>
      </trkpt>
      <trkpt lat="43.78358" lon="7.09583">
        <ele>729.59997558594</ele>
        <time>2018-12-08T11:10:00.000Z</time>
      </trkpt>
      <trkpt lat="43.78355" lon="7.09575">
        <ele>730.20001220703</ele>
        <time>2018-12-08T11:10:05.000Z</time>
      </trkpt>
      <trkpt lat="43.78353" lon="7.0957">
        <ele>730.59997558594</ele>
        <time>2018-12-08T11:10:08.000Z</time>
      </trkpt>
      <trkpt lat="43.7835" lon="7.09561">
        <ele>731.40002441406</ele>
        <time>2018-12-08T11:10:13.000Z</time>
      </trkpt>
      <trkpt lat="43.78347" lon="7.09554">
        <ele>731.79998779297</ele>
        <time>2018-12-08T11:10:17.000Z</time>
      </trkpt>
      <trkpt lat="43.78343" lon="7.09544">
        <ele>732.79998779297</ele>
        <time>2018-12-08T11:10:23.000Z</time>
      </trkpt>
      <trkpt lat="43.78342" lon="7.09542">
        <ele>733</ele>
        <time>2018-12-08T11:10:24.000Z</time>
      </trkpt>
      <trkpt lat="43.78335" lon="7.09529">
        <ele>733.79998779297</ele>
        <time>2018-12-08T11:10:32.000Z</time>
      </trkpt>
      <trkpt lat="43.78332" lon="7.09524">
        <ele>734.20001220703</ele>
        <time>2018-12-08T11:10:35.000Z</time>
      </trkpt>
      <trkpt lat="43.78325" lon="7.09512">
        <ele>735</ele>
        <time>2018-12-08T11:10:42.000Z</time>
      </trkpt>
      <trkpt lat="43.78322" lon="7.09508">
        <ele>735.59997558594</ele>
        <time>2018-12-08T11:10:45.000Z</time>
      </trkpt>
      <trkpt lat="43.78318" lon="7.09499">
        <ele>736.20001220703</ele>
        <time>2018-12-08T11:10:50.000Z</time>
      </trkpt>
      <trkpt lat="43.78316" lon="7.09493">
        <ele>736.79998779297</ele>
        <time>2018-12-08T11:10:53.000Z</time>
      </trkpt>
      <trkpt lat="43.78315" lon="7.09489">
        <ele>737.20001220703</ele>
        <time>2018-12-08T11:10:55.000Z</time>
      </trkpt>
      <trkpt lat="43.78313" lon="7.09476">
        <ele>738.40002441406</ele>
        <time>2018-12-08T11:11:01.000Z</time>
      </trkpt>
      <trkpt lat="43.78313" lon="7.09474">
        <ele>738.40002441406</ele>
        <time>2018-12-08T11:11:02.000Z</time>
      </trkpt>
      <trkpt lat="43.78313" lon="7.0946">
        <ele>739.40002441406</ele>
        <time>2018-12-08T11:11:09.000Z</time>
      </trkpt>
      <trkpt lat="43.78312" lon="7.09456">
        <ele>739.59997558594</ele>
        <time>2018-12-08T11:11:11.000Z</time>
      </trkpt>
      <trkpt lat="43.78312" lon="7.09445">
        <ele>740.40002441406</ele>
        <time>2018-12-08T11:11:17.000Z</time>
      </trkpt>
      <trkpt lat="43.78312" lon="7.09443">
        <ele>740.59997558594</ele>
        <time>2018-12-08T11:11:18.000Z</time>
      </trkpt>
      <trkpt lat="43.7831" lon="7.09429">
        <ele>741.40002441406</ele>
        <time>2018-12-08T11:11:25.000Z</time>
      </trkpt>
      <trkpt lat="43.78309" lon="7.09423">
        <ele>742</ele>
        <time>2018-12-08T11:11:28.000Z</time>
      </trkpt>
      <trkpt lat="43.78308" lon="7.09413">
        <ele>742.59997558594</ele>
        <time>2018-12-08T11:11:33.000Z</time>
      </trkpt>
      <trkpt lat="43.78308" lon="7.09407">
        <ele>743</ele>
        <time>2018-12-08T11:11:36.000Z</time>
      </trkpt>
      <trkpt lat="43.78307" lon="7.09399">
        <ele>743.59997558594</ele>
        <time>2018-12-08T11:11:40.000Z</time>
      </trkpt>
      <trkpt lat="43.78308" lon="7.09384">
        <ele>745</ele>
        <time>2018-12-08T11:11:47.000Z</time>
      </trkpt>
      <trkpt lat="43.7831" lon="7.09372">
        <ele>746</ele>
        <time>2018-12-08T11:11:53.000Z</time>
      </trkpt>
      <trkpt lat="43.78311" lon="7.09368">
        <ele>746.40002441406</ele>
        <time>2018-12-08T11:11:55.000Z</time>
      </trkpt>
      <trkpt lat="43.78314" lon="7.09362">
        <ele>747</ele>
        <time>2018-12-08T11:11:59.000Z</time>
      </trkpt>
      <trkpt lat="43.78317" lon="7.09355">
        <ele>747.40002441406</ele>
        <time>2018-12-08T11:12:03.000Z</time>
      </trkpt>
      <trkpt lat="43.78318" lon="7.09353">
        <ele>748</ele>
        <time>2018-12-08T11:12:08.000Z</time>
      </trkpt>
      <trkpt lat="43.78318" lon="7.09352">
        <ele>747.79998779297</ele>
        <time>2018-12-08T11:12:17.000Z</time>
      </trkpt>
      <trkpt lat="43.78318" lon="7.09351">
        <ele>747.79998779297</ele>
        <time>2018-12-08T11:12:18.000Z</time>
      </trkpt>
      <trkpt lat="43.78321" lon="7.09343">
        <ele>748</ele>
        <time>2018-12-08T11:12:22.000Z</time>
      </trkpt>
      <trkpt lat="43.78322" lon="7.09342">
        <ele>748</ele>
        <time>2018-12-08T11:12:23.000Z</time>
      </trkpt>
      <trkpt lat="43.78326" lon="7.0933">
        <ele>748.79998779297</ele>
        <time>2018-12-08T11:12:29.000Z</time>
      </trkpt>
      <trkpt lat="43.78329" lon="7.09324">
        <ele>749.20001220703</ele>
        <time>2018-12-08T11:12:32.000Z</time>
      </trkpt>
      <trkpt lat="43.78333" lon="7.09311">
        <ele>750</ele>
        <time>2018-12-08T11:12:38.000Z</time>
      </trkpt>
      <trkpt lat="43.78334" lon="7.0931">
        <ele>750.20001220703</ele>
        <time>2018-12-08T11:12:39.000Z</time>
      </trkpt>
      <trkpt lat="43.78338" lon="7.09299">
        <ele>751.40002441406</ele>
        <time>2018-12-08T11:12:45.000Z</time>
      </trkpt>
      <trkpt lat="43.78339" lon="7.09297">
        <ele>751.40002441406</ele>
        <time>2018-12-08T11:12:46.000Z</time>
      </trkpt>
      <trkpt lat="43.78344" lon="7.09286">
        <ele>752.20001220703</ele>
        <time>2018-12-08T11:12:53.000Z</time>
      </trkpt>
      <trkpt lat="43.78344" lon="7.09284">
        <ele>752.40002441406</ele>
        <time>2018-12-08T11:12:54.000Z</time>
      </trkpt>
      <trkpt lat="43.78348" lon="7.09273">
        <ele>753.40002441406</ele>
        <time>2018-12-08T11:13:00.000Z</time>
      </trkpt>
      <trkpt lat="43.78349" lon="7.09269">
        <ele>753.59997558594</ele>
        <time>2018-12-08T11:13:02.000Z</time>
      </trkpt>
      <trkpt lat="43.78352" lon="7.09262">
        <ele>754.40002441406</ele>
        <time>2018-12-08T11:13:06.000Z</time>
      </trkpt>
      <trkpt lat="43.78353" lon="7.09259">
        <ele>755</ele>
        <time>2018-12-08T11:13:08.000Z</time>
      </trkpt>
      <trkpt lat="43.78356" lon="7.09252">
        <ele>755.59997558594</ele>
        <time>2018-12-08T11:13:12.000Z</time>
      </trkpt>
      <trkpt lat="43.7836" lon="7.09246">
        <ele>756.20001220703</ele>
        <time>2018-12-08T11:13:16.000Z</time>
      </trkpt>
      <trkpt lat="43.78363" lon="7.09239">
        <ele>756.59997558594</ele>
        <time>2018-12-08T11:13:20.000Z</time>
      </trkpt>
      <trkpt lat="43.78366" lon="7.09234">
        <ele>757.40002441406</ele>
        <time>2018-12-08T11:13:24.000Z</time>
      </trkpt>
      <trkpt lat="43.78368" lon="7.09231">
        <ele>757.79998779297</ele>
        <time>2018-12-08T11:13:26.000Z</time>
      </trkpt>
      <trkpt lat="43.78375" lon="7.09223">
        <ele>758.79998779297</ele>
        <time>2018-12-08T11:13:33.000Z</time>
      </trkpt>
      <trkpt lat="43.78381" lon="7.09216">
        <ele>759.40002441406</ele>
        <time>2018-12-08T11:13:39.000Z</time>
      </trkpt>
      <trkpt lat="43.78384" lon="7.09212">
        <ele>759.79998779297</ele>
        <time>2018-12-08T11:13:42.000Z</time>
      </trkpt>
      <trkpt lat="43.78389" lon="7.09207">
        <ele>760.79998779297</ele>
        <time>2018-12-08T11:13:47.000Z</time>
      </trkpt>
      <trkpt lat="43.78391" lon="7.09206">
        <ele>760.79998779297</ele>
        <time>2018-12-08T11:13:48.000Z</time>
      </trkpt>
      <trkpt lat="43.78397" lon="7.09198">
        <ele>762</ele>
        <time>2018-12-08T11:13:54.000Z</time>
      </trkpt>
      <trkpt lat="43.78405" lon="7.0919">
        <ele>763</ele>
        <time>2018-12-08T11:14:01.000Z</time>
      </trkpt>
      <trkpt lat="43.78406" lon="7.0919">
        <ele>763.20001220703</ele>
        <time>2018-12-08T11:14:02.000Z</time>
      </trkpt>
      <trkpt lat="43.78414" lon="7.09184">
        <ele>764</ele>
        <time>2018-12-08T11:14:08.000Z</time>
      </trkpt>
      <trkpt lat="43.78416" lon="7.09184">
        <ele>764.20001220703</ele>
        <time>2018-12-08T11:14:09.000Z</time>
      </trkpt>
      <trkpt lat="43.78426" lon="7.09177">
        <ele>764.79998779297</ele>
        <time>2018-12-08T11:14:16.000Z</time>
      </trkpt>
      <trkpt lat="43.78427" lon="7.09176">
        <ele>765</ele>
        <time>2018-12-08T11:14:17.000Z</time>
      </trkpt>
      <trkpt lat="43.78438" lon="7.09169">
        <ele>766</ele>
        <time>2018-12-08T11:14:25.000Z</time>
      </trkpt>
      <trkpt lat="43.78439" lon="7.09168">
        <ele>766.20001220703</ele>
        <time>2018-12-08T11:14:26.000Z</time>
      </trkpt>
      <trkpt lat="43.7845" lon="7.09158">
        <ele>767</ele>
        <time>2018-12-08T11:14:34.000Z</time>
      </trkpt>
      <trkpt lat="43.78452" lon="7.09157">
        <ele>767.40002441406</ele>
        <time>2018-12-08T11:14:35.000Z</time>
      </trkpt>
      <trkpt lat="43.78458" lon="7.09152">
        <ele>768.40002441406</ele>
        <time>2018-12-08T11:14:40.000Z</time>
      </trkpt>
      <trkpt lat="43.78462" lon="7.09149">
        <ele>769</ele>
        <time>2018-12-08T11:14:43.000Z</time>
      </trkpt>
      <trkpt lat="43.78466" lon="7.09146">
        <ele>769.40002441406</ele>
        <time>2018-12-08T11:14:46.000Z</time>
      </trkpt>
      <trkpt lat="43.78469" lon="7.09144">
        <ele>770</ele>
        <time>2018-12-08T11:14:49.000Z</time>
      </trkpt>
      <trkpt lat="43.78476" lon="7.09139">
        <ele>770.59997558594</ele>
        <time>2018-12-08T11:14:54.000Z</time>
      </trkpt>
      <trkpt lat="43.7848" lon="7.09136">
        <ele>771.20001220703</ele>
        <time>2018-12-08T11:14:57.000Z</time>
      </trkpt>
      <trkpt lat="43.78486" lon="7.0913">
        <ele>771.59997558594</ele>
        <time>2018-12-08T11:15:02.000Z</time>
      </trkpt>
      <trkpt lat="43.78488" lon="7.09129">
        <ele>772</ele>
        <time>2018-12-08T11:15:04.000Z</time>
      </trkpt>
      <trkpt lat="43.78493" lon="7.09126">
        <ele>772.79998779297</ele>
        <time>2018-12-08T11:15:07.000Z</time>
      </trkpt>
      <trkpt lat="43.78496" lon="7.09122">
        <ele>773.20001220703</ele>
        <time>2018-12-08T11:15:10.000Z</time>
      </trkpt>
      <trkpt lat="43.78501" lon="7.09118">
        <ele>773.79998779297</ele>
        <time>2018-12-08T11:15:13.000Z</time>
      </trkpt>
      <trkpt lat="43.78508" lon="7.09112">
        <ele>774.59997558594</ele>
        <time>2018-12-08T11:15:19.000Z</time>
      </trkpt>
      <trkpt lat="43.78509" lon="7.09111">
        <ele>775</ele>
        <time>2018-12-08T11:15:20.000Z</time>
      </trkpt>
      <trkpt lat="43.78518" lon="7.09101">
        <ele>775.40002441406</ele>
        <time>2018-12-08T11:15:27.000Z</time>
      </trkpt>
      <trkpt lat="43.78523" lon="7.09101">
        <ele>775.79998779297</ele>
        <time>2018-12-08T11:15:30.000Z</time>
      </trkpt>
      <trkpt lat="43.78524" lon="7.09105">
        <ele>776.20001220703</ele>
        <time>2018-12-08T11:15:32.000Z</time>
      </trkpt>
      <trkpt lat="43.78521" lon="7.09112">
        <ele>777.20001220703</ele>
        <time>2018-12-08T11:15:37.000Z</time>
      </trkpt>
      <trkpt lat="43.7852" lon="7.09113">
        <ele>777.40002441406</ele>
        <time>2018-12-08T11:15:38.000Z</time>
      </trkpt>
      <trkpt lat="43.78511" lon="7.09123">
        <ele>778</ele>
        <time>2018-12-08T11:15:45.000Z</time>
      </trkpt>
      <trkpt lat="43.78507" lon="7.09129">
        <ele>778.40002441406</ele>
        <time>2018-12-08T11:15:49.000Z</time>
      </trkpt>
      <trkpt lat="43.78503" lon="7.09136">
        <ele>779</ele>
        <time>2018-12-08T11:15:53.000Z</time>
      </trkpt>
      <trkpt lat="43.78499" lon="7.09144">
        <ele>779.40002441406</ele>
        <time>2018-12-08T11:15:57.000Z</time>
      </trkpt>
      <trkpt lat="43.78492" lon="7.09155">
        <ele>780</ele>
        <time>2018-12-08T11:16:03.000Z</time>
      </trkpt>
      <trkpt lat="43.78488" lon="7.09162">
        <ele>780.59997558594</ele>
        <time>2018-12-08T11:16:07.000Z</time>
      </trkpt>
      <trkpt lat="43.78482" lon="7.09171">
        <ele>781.40002441406</ele>
        <time>2018-12-08T11:16:12.000Z</time>
      </trkpt>
      <trkpt lat="43.78481" lon="7.09173">
        <ele>781.59997558594</ele>
        <time>2018-12-08T11:16:13.000Z</time>
      </trkpt>
      <trkpt lat="43.7847" lon="7.09187">
        <ele>782.79998779297</ele>
        <time>2018-12-08T11:16:21.000Z</time>
      </trkpt>
      <trkpt lat="43.78467" lon="7.0919">
        <ele>782.79998779297</ele>
        <time>2018-12-08T11:16:23.000Z</time>
      </trkpt>
      <trkpt lat="43.78456" lon="7.09204">
        <ele>783.59997558594</ele>
        <time>2018-12-08T11:16:31.000Z</time>
      </trkpt>
      <trkpt lat="43.78455" lon="7.09205">
        <ele>783.79998779297</ele>
        <time>2018-12-08T11:16:32.000Z</time>
      </trkpt>
      <trkpt lat="43.78448" lon="7.09213">
        <ele>784.40002441406</ele>
        <time>2018-12-08T11:16:37.000Z</time>
      </trkpt>
      <trkpt lat="43.78441" lon="7.09221">
        <ele>785</ele>
        <time>2018-12-08T11:16:42.000Z</time>
      </trkpt>
      <trkpt lat="43.78438" lon="7.09225">
        <ele>785.20001220703</ele>
        <time>2018-12-08T11:16:45.000Z</time>
      </trkpt>
      <trkpt lat="43.78437" lon="7.09227">
        <ele>785.40002441406</ele>
        <time>2018-12-08T11:16:46.000Z</time>
      </trkpt>
      <trkpt lat="43.78442" lon="7.09231">
        <ele>785.79998779297</ele>
        <time>2018-12-08T11:16:50.000Z</time>
      </trkpt>
      <trkpt lat="43.78443" lon="7.0923">
        <ele>786</ele>
        <time>2018-12-08T11:16:51.000Z</time>
      </trkpt>
      <trkpt lat="43.78445" lon="7.09227">
        <ele>786.20001220703</ele>
        <time>2018-12-08T11:16:53.000Z</time>
      </trkpt>
      <trkpt lat="43.78448" lon="7.09223">
        <ele>786.20001220703</ele>
        <time>2018-12-08T11:16:55.000Z</time>
      </trkpt>
      <trkpt lat="43.78459" lon="7.09212">
        <ele>787</ele>
        <time>2018-12-08T11:17:02.000Z</time>
      </trkpt>
      <trkpt lat="43.78461" lon="7.0921">
        <ele>787.20001220703</ele>
        <time>2018-12-08T11:17:03.000Z</time>
      </trkpt>
      <trkpt lat="43.78471" lon="7.09203">
        <ele>787.79998779297</ele>
        <time>2018-12-08T11:17:10.000Z</time>
      </trkpt>
      <trkpt lat="43.78475" lon="7.09201">
        <ele>788.20001220703</ele>
        <time>2018-12-08T11:17:13.000Z</time>
      </trkpt>
      <trkpt lat="43.78482" lon="7.09196">
        <ele>789.20001220703</ele>
        <time>2018-12-08T11:17:18.000Z</time>
      </trkpt>
      <trkpt lat="43.78484" lon="7.09195">
        <ele>789.20001220703</ele>
        <time>2018-12-08T11:17:19.000Z</time>
      </trkpt>
      <trkpt lat="43.78492" lon="7.0919">
        <ele>790.40002441406</ele>
        <time>2018-12-08T11:17:25.000Z</time>
      </trkpt>
      <trkpt lat="43.78494" lon="7.09188">
        <ele>790.79998779297</ele>
        <time>2018-12-08T11:17:27.000Z</time>
      </trkpt>
      <trkpt lat="43.78499" lon="7.09185">
        <ele>791.40002441406</ele>
        <time>2018-12-08T11:17:31.000Z</time>
      </trkpt>
      <trkpt lat="43.78504" lon="7.09181">
        <ele>792</ele>
        <time>2018-12-08T11:17:35.000Z</time>
      </trkpt>
      <trkpt lat="43.78508" lon="7.09179">
        <ele>792.40002441406</ele>
        <time>2018-12-08T11:17:38.000Z</time>
      </trkpt>
      <trkpt lat="43.78515" lon="7.09174">
        <ele>793.40002441406</ele>
        <time>2018-12-08T11:17:43.000Z</time>
      </trkpt>
      <trkpt lat="43.78527" lon="7.09167">
        <ele>794.59997558594</ele>
        <time>2018-12-08T11:17:51.000Z</time>
      </trkpt>
      <trkpt lat="43.7853" lon="7.09166">
        <ele>795</ele>
        <time>2018-12-08T11:17:53.000Z</time>
      </trkpt>
      <trkpt lat="43.78536" lon="7.09162">
        <ele>795.79998779297</ele>
        <time>2018-12-08T11:17:57.000Z</time>
      </trkpt>
      <trkpt lat="43.78542" lon="7.09159">
        <ele>796.59997558594</ele>
        <time>2018-12-08T11:18:01.000Z</time>
      </trkpt>
      <trkpt lat="43.78545" lon="7.09158">
        <ele>797</ele>
        <time>2018-12-08T11:18:03.000Z</time>
      </trkpt>
      <trkpt lat="43.78551" lon="7.09153">
        <ele>798</ele>
        <time>2018-12-08T11:18:08.000Z</time>
      </trkpt>
      <trkpt lat="43.7856" lon="7.09145">
        <ele>799</ele>
        <time>2018-12-08T11:18:15.000Z</time>
      </trkpt>
      <trkpt lat="43.78562" lon="7.09144">
        <ele>799.20001220703</ele>
        <time>2018-12-08T11:18:16.000Z</time>
      </trkpt>
      <trkpt lat="43.78567" lon="7.0914">
        <ele>800.20001220703</ele>
        <time>2018-12-08T11:18:20.000Z</time>
      </trkpt>
      <trkpt lat="43.78571" lon="7.09138">
        <ele>800.40002441406</ele>
        <time>2018-12-08T11:18:23.000Z</time>
      </trkpt>
      <trkpt lat="43.78585" lon="7.09132">
        <ele>800.59997558594</ele>
        <time>2018-12-08T11:18:32.000Z</time>
      </trkpt>
      <trkpt lat="43.7859" lon="7.09126">
        <ele>801.20001220703</ele>
        <time>2018-12-08T11:18:35.000Z</time>
      </trkpt>
      <trkpt lat="43.7859" lon="7.09123">
        <ele>801.59997558594</ele>
        <time>2018-12-08T11:18:36.000Z</time>
      </trkpt>
      <trkpt lat="43.78591" lon="7.09121">
        <ele>802</ele>
        <time>2018-12-08T11:18:37.000Z</time>
      </trkpt>
      <trkpt lat="43.78591" lon="7.09118">
        <ele>802.40002441406</ele>
        <time>2018-12-08T11:18:38.000Z</time>
      </trkpt>
      <trkpt lat="43.78589" lon="7.09104">
        <ele>803.79998779297</ele>
        <time>2018-12-08T11:18:44.000Z</time>
      </trkpt>
      <trkpt lat="43.78587" lon="7.0909">
        <ele>804.79998779297</ele>
        <time>2018-12-08T11:18:50.000Z</time>
      </trkpt>
      <trkpt lat="43.78586" lon="7.09086">
        <ele>805.20001220703</ele>
        <time>2018-12-08T11:18:52.000Z</time>
      </trkpt>
      <trkpt lat="43.78585" lon="7.09071">
        <ele>805.79998779297</ele>
        <time>2018-12-08T11:18:58.000Z</time>
      </trkpt>
      <trkpt lat="43.78584" lon="7.09064">
        <ele>806.40002441406</ele>
        <time>2018-12-08T11:19:01.000Z</time>
      </trkpt>
      <trkpt lat="43.78583" lon="7.09058">
        <ele>807</ele>
        <time>2018-12-08T11:19:04.000Z</time>
      </trkpt>
      <trkpt lat="43.78581" lon="7.09048">
        <ele>807.79998779297</ele>
        <time>2018-12-08T11:19:09.000Z</time>
      </trkpt>
      <trkpt lat="43.78581" lon="7.09046">
        <ele>808</ele>
        <time>2018-12-08T11:19:10.000Z</time>
      </trkpt>
      <trkpt lat="43.78577" lon="7.09035">
        <ele>809</ele>
        <time>2018-12-08T11:19:16.000Z</time>
      </trkpt>
      <trkpt lat="43.78575" lon="7.09029">
        <ele>809.59997558594</ele>
        <time>2018-12-08T11:19:19.000Z</time>
      </trkpt>
      <trkpt lat="43.78572" lon="7.09021">
        <ele>810</ele>
        <time>2018-12-08T11:19:23.000Z</time>
      </trkpt>
      <trkpt lat="43.78568" lon="7.09012">
        <ele>810.59997558594</ele>
        <time>2018-12-08T11:19:27.000Z</time>
      </trkpt>
      <trkpt lat="43.78565" lon="7.09006">
        <ele>811.20001220703</ele>
        <time>2018-12-08T11:19:30.000Z</time>
      </trkpt>
      <trkpt lat="43.78561" lon="7.08996">
        <ele>812</ele>
        <time>2018-12-08T11:19:35.000Z</time>
      </trkpt>
      <trkpt lat="43.7856" lon="7.08995">
        <ele>812.20001220703</ele>
        <time>2018-12-08T11:19:36.000Z</time>
      </trkpt>
      <trkpt lat="43.78555" lon="7.08984">
        <ele>813</ele>
        <time>2018-12-08T11:19:42.000Z</time>
      </trkpt>
      <trkpt lat="43.78553" lon="7.0898">
        <ele>813.40002441406</ele>
        <time>2018-12-08T11:19:44.000Z</time>
      </trkpt>
      <trkpt lat="43.78547" lon="7.08968">
        <ele>814.20001220703</ele>
        <time>2018-12-08T11:19:50.000Z</time>
      </trkpt>
      <trkpt lat="43.78545" lon="7.08965">
        <ele>814.40002441406</ele>
        <time>2018-12-08T11:19:52.000Z</time>
      </trkpt>
      <trkpt lat="43.78538" lon="7.08953">
        <ele>815</ele>
        <time>2018-12-08T11:19:58.000Z</time>
      </trkpt>
      <trkpt lat="43.78532" lon="7.08943">
        <ele>815.40002441406</ele>
        <time>2018-12-08T11:20:03.000Z</time>
      </trkpt>
      <trkpt lat="43.78527" lon="7.08937">
        <ele>816</ele>
        <time>2018-12-08T11:20:07.000Z</time>
      </trkpt>
      <trkpt lat="43.78526" lon="7.08933">
        <ele>816.40002441406</ele>
        <time>2018-12-08T11:20:09.000Z</time>
      </trkpt>
      <trkpt lat="43.78527" lon="7.0893">
        <ele>816.79998779297</ele>
        <time>2018-12-08T11:20:11.000Z</time>
      </trkpt>
      <trkpt lat="43.78529" lon="7.08929">
        <ele>817</ele>
        <time>2018-12-08T11:20:12.000Z</time>
      </trkpt>
      <trkpt lat="43.78532" lon="7.08931">
        <ele>817.79998779297</ele>
        <time>2018-12-08T11:20:15.000Z</time>
      </trkpt>
      <trkpt lat="43.78536" lon="7.08934">
        <ele>818.40002441406</ele>
        <time>2018-12-08T11:20:18.000Z</time>
      </trkpt>
      <trkpt lat="43.78537" lon="7.08935">
        <ele>818.40002441406</ele>
        <time>2018-12-08T11:20:19.000Z</time>
      </trkpt>
      <trkpt lat="43.78537" lon="7.08937">
        <ele>818.59997558594</ele>
        <time>2018-12-08T11:20:20.000Z</time>
      </trkpt>
      <trkpt lat="43.78541" lon="7.08941">
        <ele>819</ele>
        <time>2018-12-08T11:20:23.000Z</time>
      </trkpt>
      <trkpt lat="43.78542" lon="7.08943">
        <ele>819.20001220703</ele>
        <time>2018-12-08T11:20:24.000Z</time>
      </trkpt>
      <trkpt lat="43.78548" lon="7.08951">
        <ele>820.20001220703</ele>
        <time>2018-12-08T11:20:29.000Z</time>
      </trkpt>
      <trkpt lat="43.78552" lon="7.08956">
        <ele>820.59997558594</ele>
        <time>2018-12-08T11:20:32.000Z</time>
      </trkpt>
      <trkpt lat="43.78558" lon="7.08963">
        <ele>821.20001220703</ele>
        <time>2018-12-08T11:20:37.000Z</time>
      </trkpt>
      <trkpt lat="43.78561" lon="7.08967">
        <ele>821.79998779297</ele>
        <time>2018-12-08T11:20:40.000Z</time>
      </trkpt>
      <trkpt lat="43.78565" lon="7.08973">
        <ele>822.40002441406</ele>
        <time>2018-12-08T11:20:44.000Z</time>
      </trkpt>
      <trkpt lat="43.78568" lon="7.08977">
        <ele>822.59997558594</ele>
        <time>2018-12-08T11:20:47.000Z</time>
      </trkpt>
      <trkpt lat="43.78574" lon="7.08984">
        <ele>823.40002441406</ele>
        <time>2018-12-08T11:20:52.000Z</time>
      </trkpt>
      <trkpt lat="43.78577" lon="7.08988">
        <ele>823.79998779297</ele>
        <time>2018-12-08T11:20:55.000Z</time>
      </trkpt>
      <trkpt lat="43.78581" lon="7.08993">
        <ele>824.40002441406</ele>
        <time>2018-12-08T11:20:59.000Z</time>
      </trkpt>
      <trkpt lat="43.78585" lon="7.08998">
        <ele>825</ele>
        <time>2018-12-08T11:21:03.000Z</time>
      </trkpt>
      <trkpt lat="43.78588" lon="7.09002">
        <ele>825.40002441406</ele>
        <time>2018-12-08T11:21:06.000Z</time>
      </trkpt>
      <trkpt lat="43.78595" lon="7.09011">
        <ele>826.20001220703</ele>
        <time>2018-12-08T11:21:13.000Z</time>
      </trkpt>
      <trkpt lat="43.78597" lon="7.09015">
        <ele>826.59997558594</ele>
        <time>2018-12-08T11:21:16.000Z</time>
      </trkpt>
      <trkpt lat="43.78602" lon="7.09022">
        <ele>827.20001220703</ele>
        <time>2018-12-08T11:21:21.000Z</time>
      </trkpt>
      <trkpt lat="43.78604" lon="7.09025">
        <ele>827.59997558594</ele>
        <time>2018-12-08T11:21:23.000Z</time>
      </trkpt>
      <trkpt lat="43.78612" lon="7.09035">
        <ele>828.59997558594</ele>
        <time>2018-12-08T11:21:30.000Z</time>
      </trkpt>
      <trkpt lat="43.78618" lon="7.09043">
        <ele>829.79998779297</ele>
        <time>2018-12-08T11:21:36.000Z</time>
      </trkpt>
      <trkpt lat="43.78625" lon="7.09053">
        <ele>830.79998779297</ele>
        <time>2018-12-08T11:21:43.000Z</time>
      </trkpt>
      <trkpt lat="43.78635" lon="7.09065">
        <ele>831.79998779297</ele>
        <time>2018-12-08T11:21:52.000Z</time>
      </trkpt>
      <trkpt lat="43.78643" lon="7.09074">
        <ele>833</ele>
        <time>2018-12-08T11:21:59.000Z</time>
      </trkpt>
      <trkpt lat="43.78645" lon="7.09076">
        <ele>833.59997558594</ele>
        <time>2018-12-08T11:22:01.000Z</time>
      </trkpt>
      <trkpt lat="43.78648" lon="7.09079">
        <ele>834</ele>
        <time>2018-12-08T11:22:03.000Z</time>
      </trkpt>
      <trkpt lat="43.78653" lon="7.09085">
        <ele>834.20001220703</ele>
        <time>2018-12-08T11:22:08.000Z</time>
      </trkpt>
      <trkpt lat="43.78657" lon="7.09091">
        <ele>835</ele>
        <time>2018-12-08T11:22:12.000Z</time>
      </trkpt>
      <trkpt lat="43.78664" lon="7.09098">
        <ele>835.59997558594</ele>
        <time>2018-12-08T11:22:17.000Z</time>
      </trkpt>
      <trkpt lat="43.78669" lon="7.09102">
        <ele>836</ele>
        <time>2018-12-08T11:22:20.000Z</time>
      </trkpt>
      <trkpt lat="43.78673" lon="7.09107">
        <ele>836.59997558594</ele>
        <time>2018-12-08T11:22:23.000Z</time>
      </trkpt>
      <trkpt lat="43.78679" lon="7.09114">
        <ele>837</ele>
        <time>2018-12-08T11:22:28.000Z</time>
      </trkpt>
      <trkpt lat="43.78681" lon="7.09116">
        <ele>837.20001220703</ele>
        <time>2018-12-08T11:22:30.000Z</time>
      </trkpt>
      <trkpt lat="43.78689" lon="7.09124">
        <ele>838.20001220703</ele>
        <time>2018-12-08T11:22:36.000Z</time>
      </trkpt>
      <trkpt lat="43.7869" lon="7.09125">
        <ele>838.40002441406</ele>
        <time>2018-12-08T11:22:37.000Z</time>
      </trkpt>
      <trkpt lat="43.78696" lon="7.0913">
        <ele>839.20001220703</ele>
        <time>2018-12-08T11:22:42.000Z</time>
      </trkpt>
      <trkpt lat="43.78701" lon="7.09134">
        <ele>840</ele>
        <time>2018-12-08T11:22:46.000Z</time>
      </trkpt>
      <trkpt lat="43.78704" lon="7.09135">
        <ele>840.20001220703</ele>
        <time>2018-12-08T11:22:48.000Z</time>
      </trkpt>
      <trkpt lat="43.78711" lon="7.0914">
        <ele>841</ele>
        <time>2018-12-08T11:22:53.000Z</time>
      </trkpt>
      <trkpt lat="43.78712" lon="7.0914">
        <ele>841.40002441406</ele>
        <time>2018-12-08T11:22:54.000Z</time>
      </trkpt>
      <trkpt lat="43.78722" lon="7.09146">
        <ele>842</ele>
        <time>2018-12-08T11:23:01.000Z</time>
      </trkpt>
      <trkpt lat="43.78724" lon="7.09147">
        <ele>842.40002441406</ele>
        <time>2018-12-08T11:23:03.000Z</time>
      </trkpt>
      <trkpt lat="43.78732" lon="7.09152">
        <ele>843.40002441406</ele>
        <time>2018-12-08T11:23:09.000Z</time>
      </trkpt>
      <trkpt lat="43.78734" lon="7.09152">
        <ele>843.40002441406</ele>
        <time>2018-12-08T11:23:10.000Z</time>
      </trkpt>
      <trkpt lat="43.7874" lon="7.09155">
        <ele>844.40002441406</ele>
        <time>2018-12-08T11:23:16.000Z</time>
      </trkpt>
      <trkpt lat="43.78742" lon="7.09157">
        <ele>844.79998779297</ele>
        <time>2018-12-08T11:23:18.000Z</time>
      </trkpt>
      <trkpt lat="43.78745" lon="7.0916">
        <ele>845.40002441406</ele>
        <time>2018-12-08T11:23:21.000Z</time>
      </trkpt>
      <trkpt lat="43.78746" lon="7.09161">
        <ele>845.20001220703</ele>
        <time>2018-12-08T11:23:22.000Z</time>
      </trkpt>
      <trkpt lat="43.78748" lon="7.09163">
        <ele>845.59997558594</ele>
        <time>2018-12-08T11:23:24.000Z</time>
      </trkpt>
      <trkpt lat="43.78754" lon="7.09166">
        <ele>846.20001220703</ele>
        <time>2018-12-08T11:23:29.000Z</time>
      </trkpt>
      <trkpt lat="43.78758" lon="7.09168">
        <ele>846.79998779297</ele>
        <time>2018-12-08T11:23:32.000Z</time>
      </trkpt>
      <trkpt lat="43.78763" lon="7.09171">
        <ele>847.40002441406</ele>
        <time>2018-12-08T11:23:37.000Z</time>
      </trkpt>
      <trkpt lat="43.78767" lon="7.09172">
        <ele>847.79998779297</ele>
        <time>2018-12-08T11:23:40.000Z</time>
      </trkpt>
      <trkpt lat="43.78774" lon="7.09173">
        <ele>849</ele>
        <time>2018-12-08T11:23:44.000Z</time>
      </trkpt>
      <trkpt lat="43.78775" lon="7.09174">
        <ele>849.20001220703</ele>
        <time>2018-12-08T11:23:45.000Z</time>
      </trkpt>
      <trkpt lat="43.78785" lon="7.09176">
        <ele>849</ele>
        <time>2018-12-08T11:23:52.000Z</time>
      </trkpt>
      <trkpt lat="43.78794" lon="7.09177">
        <ele>850</ele>
        <time>2018-12-08T11:23:58.000Z</time>
      </trkpt>
      <trkpt lat="43.78795" lon="7.09177">
        <ele>850.20001220703</ele>
        <time>2018-12-08T11:23:59.000Z</time>
      </trkpt>
      <trkpt lat="43.78807" lon="7.09178">
        <ele>851.20001220703</ele>
        <time>2018-12-08T11:24:07.000Z</time>
      </trkpt>
      <trkpt lat="43.78808" lon="7.09178">
        <ele>851.40002441406</ele>
        <time>2018-12-08T11:24:08.000Z</time>
      </trkpt>
      <trkpt lat="43.78815" lon="7.09179">
        <ele>852.20001220703</ele>
        <time>2018-12-08T11:24:13.000Z</time>
      </trkpt>
      <trkpt lat="43.78819" lon="7.09179">
        <ele>852.40002441406</ele>
        <time>2018-12-08T11:24:16.000Z</time>
      </trkpt>
      <trkpt lat="43.78823" lon="7.09179">
        <ele>852.79998779297</ele>
        <time>2018-12-08T11:24:19.000Z</time>
      </trkpt>
      <trkpt lat="43.78827" lon="7.09179">
        <ele>853.59997558594</ele>
        <time>2018-12-08T11:24:22.000Z</time>
      </trkpt>
      <trkpt lat="43.78835" lon="7.0918">
        <ele>854.40002441406</ele>
        <time>2018-12-08T11:24:26.000Z</time>
      </trkpt>
      <trkpt lat="43.78838" lon="7.09179">
        <ele>854.79998779297</ele>
        <time>2018-12-08T11:24:29.000Z</time>
      </trkpt>
      <trkpt lat="43.78841" lon="7.09178">
        <ele>855</ele>
        <time>2018-12-08T11:24:31.000Z</time>
      </trkpt>
      <trkpt lat="43.78845" lon="7.09178">
        <ele>855.79998779297</ele>
        <time>2018-12-08T11:24:34.000Z</time>
      </trkpt>
      <trkpt lat="43.78851" lon="7.09178">
        <ele>856.59997558594</ele>
        <time>2018-12-08T11:24:38.000Z</time>
      </trkpt>
      <trkpt lat="43.78856" lon="7.09176">
        <ele>856.79998779297</ele>
        <time>2018-12-08T11:24:42.000Z</time>
      </trkpt>
      <trkpt lat="43.78863" lon="7.09174">
        <ele>857.79998779297</ele>
        <time>2018-12-08T11:24:47.000Z</time>
      </trkpt>
      <trkpt lat="43.78866" lon="7.09174">
        <ele>857.79998779297</ele>
        <time>2018-12-08T11:24:49.000Z</time>
      </trkpt>
      <trkpt lat="43.78876" lon="7.09172">
        <ele>859</ele>
        <time>2018-12-08T11:24:56.000Z</time>
      </trkpt>
      <trkpt lat="43.78883" lon="7.09169">
        <ele>860.20001220703</ele>
        <time>2018-12-08T11:25:02.000Z</time>
      </trkpt>
      <trkpt lat="43.78887" lon="7.09168">
        <ele>860.59997558594</ele>
        <time>2018-12-08T11:25:05.000Z</time>
      </trkpt>
      <trkpt lat="43.78893" lon="7.09166">
        <ele>861.20001220703</ele>
        <time>2018-12-08T11:25:10.000Z</time>
      </trkpt>
      <trkpt lat="43.78896" lon="7.09165">
        <ele>861.59997558594</ele>
        <time>2018-12-08T11:25:12.000Z</time>
      </trkpt>
      <trkpt lat="43.78903" lon="7.09161">
        <ele>862.40002441406</ele>
        <time>2018-12-08T11:25:18.000Z</time>
      </trkpt>
      <trkpt lat="43.78907" lon="7.09159">
        <ele>862.79998779297</ele>
        <time>2018-12-08T11:25:21.000Z</time>
      </trkpt>
      <trkpt lat="43.78913" lon="7.09154">
        <ele>863.40002441406</ele>
        <time>2018-12-08T11:25:26.000Z</time>
      </trkpt>
      <trkpt lat="43.78916" lon="7.09152">
        <ele>863.59997558594</ele>
        <time>2018-12-08T11:25:29.000Z</time>
      </trkpt>
      <trkpt lat="43.78923" lon="7.09147">
        <ele>864.40002441406</ele>
        <time>2018-12-08T11:25:35.000Z</time>
      </trkpt>
      <trkpt lat="43.78924" lon="7.09146">
        <ele>864.59997558594</ele>
        <time>2018-12-08T11:25:36.000Z</time>
      </trkpt>
      <trkpt lat="43.78934" lon="7.09145">
        <ele>865.59997558594</ele>
        <time>2018-12-08T11:25:43.000Z</time>
      </trkpt>
      <trkpt lat="43.78936" lon="7.09145">
        <ele>865.79998779297</ele>
        <time>2018-12-08T11:25:44.000Z</time>
      </trkpt>
      <trkpt lat="43.78945" lon="7.09148">
        <ele>866.20001220703</ele>
        <time>2018-12-08T11:25:50.000Z</time>
      </trkpt>
      <trkpt lat="43.78949" lon="7.0915">
        <ele>866.79998779297</ele>
        <time>2018-12-08T11:25:53.000Z</time>
      </trkpt>
      <trkpt lat="43.78954" lon="7.09153">
        <ele>867.59997558594</ele>
        <time>2018-12-08T11:25:57.000Z</time>
      </trkpt>
      <trkpt lat="43.78955" lon="7.09153">
        <ele>867.79998779297</ele>
        <time>2018-12-08T11:25:58.000Z</time>
      </trkpt>
      <trkpt lat="43.78967" lon="7.09158">
        <ele>868.40002441406</ele>
        <time>2018-12-08T11:26:06.000Z</time>
      </trkpt>
      <trkpt lat="43.7897" lon="7.09159">
        <ele>869.20001220703</ele>
        <time>2018-12-08T11:26:08.000Z</time>
      </trkpt>
      <trkpt lat="43.78976" lon="7.09163">
        <ele>869.79998779297</ele>
        <time>2018-12-08T11:26:13.000Z</time>
      </trkpt>
      <trkpt lat="43.7898" lon="7.09164">
        <ele>870.20001220703</ele>
        <time>2018-12-08T11:26:16.000Z</time>
      </trkpt>
      <trkpt lat="43.78985" lon="7.09167">
        <ele>871.20001220703</ele>
        <time>2018-12-08T11:26:20.000Z</time>
      </trkpt>
      <trkpt lat="43.78993" lon="7.09171">
        <ele>872.40002441406</ele>
        <time>2018-12-08T11:26:26.000Z</time>
      </trkpt>
      <trkpt lat="43.78995" lon="7.09172">
        <ele>872.79998779297</ele>
        <time>2018-12-08T11:26:28.000Z</time>
      </trkpt>
      <trkpt lat="43.79003" lon="7.09176">
        <ele>873.40002441406</ele>
        <time>2018-12-08T11:26:34.000Z</time>
      </trkpt>
      <trkpt lat="43.79006" lon="7.09177">
        <ele>873.79998779297</ele>
        <time>2018-12-08T11:26:36.000Z</time>
      </trkpt>
      <trkpt lat="43.79011" lon="7.09179">
        <ele>874.59997558594</ele>
        <time>2018-12-08T11:26:40.000Z</time>
      </trkpt>
      <trkpt lat="43.79015" lon="7.0918">
        <ele>875.40002441406</ele>
        <time>2018-12-08T11:26:43.000Z</time>
      </trkpt>
      <trkpt lat="43.79016" lon="7.0918">
        <ele>875.59997558594</ele>
        <time>2018-12-08T11:26:44.000Z</time>
      </trkpt>
      <trkpt lat="43.79023" lon="7.09181">
        <ele>876</ele>
        <time>2018-12-08T11:26:50.000Z</time>
      </trkpt>
      <trkpt lat="43.79028" lon="7.09182">
        <ele>876.79998779297</ele>
        <time>2018-12-08T11:26:54.000Z</time>
      </trkpt>
      <trkpt lat="43.7903" lon="7.09184">
        <ele>877.20001220703</ele>
        <time>2018-12-08T11:26:56.000Z</time>
      </trkpt>
      <trkpt lat="43.79031" lon="7.09185">
        <ele>877.40002441406</ele>
        <time>2018-12-08T11:26:57.000Z</time>
      </trkpt>
      <trkpt lat="43.79037" lon="7.09187">
        <ele>877.79998779297</ele>
        <time>2018-12-08T11:27:02.000Z</time>
      </trkpt>
      <trkpt lat="43.79039" lon="7.09188">
        <ele>878.40002441406</ele>
        <time>2018-12-08T11:27:04.000Z</time>
      </trkpt>
      <trkpt lat="43.79043" lon="7.09188">
        <ele>878.79998779297</ele>
        <time>2018-12-08T11:27:07.000Z</time>
      </trkpt>
      <trkpt lat="43.79047" lon="7.09187">
        <ele>879.20001220703</ele>
        <time>2018-12-08T11:27:11.000Z</time>
      </trkpt>
      <trkpt lat="43.79049" lon="7.09188">
        <ele>879.40002441406</ele>
        <time>2018-12-08T11:27:12.000Z</time>
      </trkpt>
      <trkpt lat="43.79053" lon="7.09188">
        <ele>880</ele>
        <time>2018-12-08T11:27:16.000Z</time>
      </trkpt>
      <trkpt lat="43.79062" lon="7.09186">
        <ele>881</ele>
        <time>2018-12-08T11:27:23.000Z</time>
      </trkpt>
      <trkpt lat="43.79071" lon="7.09184">
        <ele>881.79998779297</ele>
        <time>2018-12-08T11:27:30.000Z</time>
      </trkpt>
      <trkpt lat="43.79074" lon="7.09183">
        <ele>882</ele>
        <time>2018-12-08T11:27:32.000Z</time>
      </trkpt>
      <trkpt lat="43.7908" lon="7.09181">
        <ele>882.59997558594</ele>
        <time>2018-12-08T11:27:36.000Z</time>
      </trkpt>
      <trkpt lat="43.79085" lon="7.09178">
        <ele>883</ele>
        <time>2018-12-08T11:27:40.000Z</time>
      </trkpt>
      <trkpt lat="43.79092" lon="7.09173">
        <ele>883.59997558594</ele>
        <time>2018-12-08T11:27:45.000Z</time>
      </trkpt>
      <trkpt lat="43.79098" lon="7.0917">
        <ele>884</ele>
        <time>2018-12-08T11:27:50.000Z</time>
      </trkpt>
      <trkpt lat="43.79102" lon="7.09167">
        <ele>884.40002441406</ele>
        <time>2018-12-08T11:27:53.000Z</time>
      </trkpt>
      <trkpt lat="43.79107" lon="7.09164">
        <ele>885.20001220703</ele>
        <time>2018-12-08T11:27:58.000Z</time>
      </trkpt>
      <trkpt lat="43.7911" lon="7.09164">
        <ele>885.79998779297</ele>
        <time>2018-12-08T11:28:00.000Z</time>
      </trkpt>
      <trkpt lat="43.79112" lon="7.09163">
        <ele>886.40002441406</ele>
        <time>2018-12-08T11:28:02.000Z</time>
      </trkpt>
      <trkpt lat="43.79116" lon="7.09161">
        <ele>887.20001220703</ele>
        <time>2018-12-08T11:28:06.000Z</time>
      </trkpt>
      <trkpt lat="43.7912" lon="7.0916">
        <ele>887.59997558594</ele>
        <time>2018-12-08T11:28:10.000Z</time>
      </trkpt>
      <trkpt lat="43.79122" lon="7.09159">
        <ele>887.59997558594</ele>
        <time>2018-12-08T11:28:12.000Z</time>
      </trkpt>
      <trkpt lat="43.79128" lon="7.09157">
        <ele>888.59997558594</ele>
        <time>2018-12-08T11:28:17.000Z</time>
      </trkpt>
      <trkpt lat="43.7913" lon="7.09156">
        <ele>888.79998779297</ele>
        <time>2018-12-08T11:28:19.000Z</time>
      </trkpt>
      <trkpt lat="43.79136" lon="7.09154">
        <ele>889.40002441406</ele>
        <time>2018-12-08T11:28:25.000Z</time>
      </trkpt>
      <trkpt lat="43.79138" lon="7.09153">
        <ele>889.59997558594</ele>
        <time>2018-12-08T11:28:27.000Z</time>
      </trkpt>
      <trkpt lat="43.79141" lon="7.09152">
        <ele>890.20001220703</ele>
        <time>2018-12-08T11:28:30.000Z</time>
      </trkpt>
      <trkpt lat="43.79145" lon="7.0915">
        <ele>890.79998779297</ele>
        <time>2018-12-08T11:28:33.000Z</time>
      </trkpt>
      <trkpt lat="43.7915" lon="7.09146">
        <ele>891.59997558594</ele>
        <time>2018-12-08T11:28:38.000Z</time>
      </trkpt>
      <trkpt lat="43.79151" lon="7.09144">
        <ele>891.79998779297</ele>
        <time>2018-12-08T11:28:40.000Z</time>
      </trkpt>
      <trkpt lat="43.79155" lon="7.09141">
        <ele>892.40002441406</ele>
        <time>2018-12-08T11:28:44.000Z</time>
      </trkpt>
      <trkpt lat="43.79157" lon="7.09138">
        <ele>892.79998779297</ele>
        <time>2018-12-08T11:28:46.000Z</time>
      </trkpt>
      <trkpt lat="43.79161" lon="7.09134">
        <ele>893.40002441406</ele>
        <time>2018-12-08T11:28:50.000Z</time>
      </trkpt>
      <trkpt lat="43.79164" lon="7.09128">
        <ele>894</ele>
        <time>2018-12-08T11:28:54.000Z</time>
      </trkpt>
      <trkpt lat="43.79166" lon="7.09123">
        <ele>894.20001220703</ele>
        <time>2018-12-08T11:28:57.000Z</time>
      </trkpt>
      <trkpt lat="43.79168" lon="7.09117">
        <ele>894.59997558594</ele>
        <time>2018-12-08T11:29:01.000Z</time>
      </trkpt>
      <trkpt lat="43.79169" lon="7.09114">
        <ele>894.79998779297</ele>
        <time>2018-12-08T11:29:03.000Z</time>
      </trkpt>
      <trkpt lat="43.7917" lon="7.09111">
        <ele>895</ele>
        <time>2018-12-08T11:29:05.000Z</time>
      </trkpt>
      <trkpt lat="43.79171" lon="7.09105">
        <ele>895.59997558594</ele>
        <time>2018-12-08T11:29:09.000Z</time>
      </trkpt>
      <trkpt lat="43.79172" lon="7.09102">
        <ele>896</ele>
        <time>2018-12-08T11:29:11.000Z</time>
      </trkpt>
      <trkpt lat="43.79173" lon="7.09093">
        <ele>896.79998779297</ele>
        <time>2018-12-08T11:29:17.000Z</time>
      </trkpt>
      <trkpt lat="43.79173" lon="7.09091">
        <ele>896.79998779297</ele>
        <time>2018-12-08T11:29:18.000Z</time>
      </trkpt>
      <trkpt lat="43.79174" lon="7.09088">
        <ele>897.20001220703</ele>
        <time>2018-12-08T11:29:20.000Z</time>
      </trkpt>
      <trkpt lat="43.79175" lon="7.09085">
        <ele>897.40002441406</ele>
        <time>2018-12-08T11:29:22.000Z</time>
      </trkpt>
      <trkpt lat="43.79175" lon="7.09082">
        <ele>897.59997558594</ele>
        <time>2018-12-08T11:29:24.000Z</time>
      </trkpt>
      <trkpt lat="43.79177" lon="7.09078">
        <ele>898.20001220703</ele>
        <time>2018-12-08T11:29:27.000Z</time>
      </trkpt>
      <trkpt lat="43.79177" lon="7.09076">
        <ele>898.20001220703</ele>
        <time>2018-12-08T11:29:28.000Z</time>
      </trkpt>
      <trkpt lat="43.79179" lon="7.09073">
        <ele>898.59997558594</ele>
        <time>2018-12-08T11:29:30.000Z</time>
      </trkpt>
      <trkpt lat="43.79182" lon="7.09066">
        <ele>899.20001220703</ele>
        <time>2018-12-08T11:29:35.000Z</time>
      </trkpt>
      <trkpt lat="43.79183" lon="7.09064">
        <ele>899.40002441406</ele>
        <time>2018-12-08T11:29:36.000Z</time>
      </trkpt>
      <trkpt lat="43.79187" lon="7.09056">
        <ele>900.20001220703</ele>
        <time>2018-12-08T11:29:41.000Z</time>
      </trkpt>
      <trkpt lat="43.7919" lon="7.09051">
        <ele>900.79998779297</ele>
        <time>2018-12-08T11:29:44.000Z</time>
      </trkpt>
      <trkpt lat="43.79194" lon="7.0904">
        <ele>901.40002441406</ele>
        <time>2018-12-08T11:29:50.000Z</time>
      </trkpt>
      <trkpt lat="43.79196" lon="7.09036">
        <ele>901.59997558594</ele>
        <time>2018-12-08T11:29:52.000Z</time>
      </trkpt>
      <trkpt lat="43.792" lon="7.09023">
        <ele>902.40002441406</ele>
        <time>2018-12-08T11:29:58.000Z</time>
      </trkpt>
      <trkpt lat="43.79201" lon="7.09021">
        <ele>902.59997558594</ele>
        <time>2018-12-08T11:29:59.000Z</time>
      </trkpt>
      <trkpt lat="43.79204" lon="7.09007">
        <ele>903.40002441406</ele>
        <time>2018-12-08T11:30:05.000Z</time>
      </trkpt>
      <trkpt lat="43.79204" lon="7.09003">
        <ele>903.79998779297</ele>
        <time>2018-12-08T11:30:07.000Z</time>
      </trkpt>
      <trkpt lat="43.79209" lon="7.08993">
        <ele>904.59997558594</ele>
        <time>2018-12-08T11:30:12.000Z</time>
      </trkpt>
      <trkpt lat="43.79217" lon="7.08986">
        <ele>904.20001220703</ele>
        <time>2018-12-08T11:30:17.000Z</time>
      </trkpt>
      <trkpt lat="43.79225" lon="7.08983">
        <ele>904.79998779297</ele>
        <time>2018-12-08T11:30:22.000Z</time>
      </trkpt>
      <trkpt lat="43.79228" lon="7.08979">
        <ele>905</ele>
        <time>2018-12-08T11:30:24.000Z</time>
      </trkpt>
      <trkpt lat="43.79229" lon="7.08972">
        <ele>905.20001220703</ele>
        <time>2018-12-08T11:30:27.000Z</time>
      </trkpt>
      <trkpt lat="43.7923" lon="7.08967">
        <ele>905.40002441406</ele>
        <time>2018-12-08T11:30:29.000Z</time>
      </trkpt>
      <trkpt lat="43.79232" lon="7.08958">
        <ele>905.59997558594</ele>
        <time>2018-12-08T11:30:32.000Z</time>
      </trkpt>
      <trkpt lat="43.79235" lon="7.0895">
        <ele>905.79998779297</ele>
        <time>2018-12-08T11:30:35.000Z</time>
      </trkpt>
      <trkpt lat="43.79243" lon="7.08928">
        <ele>906.79998779297</ele>
        <time>2018-12-08T11:30:44.000Z</time>
      </trkpt>
      <trkpt lat="43.79244" lon="7.08925">
        <ele>907</ele>
        <time>2018-12-08T11:30:45.000Z</time>
      </trkpt>
      <trkpt lat="43.79246" lon="7.08918">
        <ele>907.79998779297</ele>
        <time>2018-12-08T11:30:48.000Z</time>
      </trkpt>
      <trkpt lat="43.79247" lon="7.08911">
        <ele>908.40002441406</ele>
        <time>2018-12-08T11:30:51.000Z</time>
      </trkpt>
      <trkpt lat="43.79249" lon="7.08902">
        <ele>908.79998779297</ele>
        <time>2018-12-08T11:30:55.000Z</time>
      </trkpt>
      <trkpt lat="43.79251" lon="7.08896">
        <ele>909.20001220703</ele>
        <time>2018-12-08T11:30:58.000Z</time>
      </trkpt>
      <trkpt lat="43.79252" lon="7.08887">
        <ele>910</ele>
        <time>2018-12-08T11:31:02.000Z</time>
      </trkpt>
      <trkpt lat="43.79254" lon="7.08881">
        <ele>910.40002441406</ele>
        <time>2018-12-08T11:31:05.000Z</time>
      </trkpt>
      <trkpt lat="43.79257" lon="7.08869">
        <ele>911</ele>
        <time>2018-12-08T11:31:11.000Z</time>
      </trkpt>
      <trkpt lat="43.79264" lon="7.08854">
        <ele>912</ele>
        <time>2018-12-08T11:31:18.000Z</time>
      </trkpt>
      <trkpt lat="43.79268" lon="7.08847">
        <ele>912.20001220703</ele>
        <time>2018-12-08T11:31:21.000Z</time>
      </trkpt>
      <trkpt lat="43.79272" lon="7.08838">
        <ele>912.79998779297</ele>
        <time>2018-12-08T11:31:25.000Z</time>
      </trkpt>
      <trkpt lat="43.79274" lon="7.08831">
        <ele>913.40002441406</ele>
        <time>2018-12-08T11:31:28.000Z</time>
      </trkpt>
      <trkpt lat="43.79276" lon="7.08823">
        <ele>913.59997558594</ele>
        <time>2018-12-08T11:31:31.000Z</time>
      </trkpt>
      <trkpt lat="43.7928" lon="7.08804">
        <ele>914.40002441406</ele>
        <time>2018-12-08T11:31:39.000Z</time>
      </trkpt>
      <trkpt lat="43.7928" lon="7.08801">
        <ele>914.59997558594</ele>
        <time>2018-12-08T11:31:40.000Z</time>
      </trkpt>
      <trkpt lat="43.79288" lon="7.08782">
        <ele>915.40002441406</ele>
        <time>2018-12-08T11:31:48.000Z</time>
      </trkpt>
      <trkpt lat="43.79289" lon="7.0878">
        <ele>915.59997558594</ele>
        <time>2018-12-08T11:31:49.000Z</time>
      </trkpt>
      <trkpt lat="43.79295" lon="7.08762">
        <ele>916.20001220703</ele>
        <time>2018-12-08T11:31:56.000Z</time>
      </trkpt>
      <trkpt lat="43.79298" lon="7.08752">
        <ele>916.59997558594</ele>
        <time>2018-12-08T11:32:00.000Z</time>
      </trkpt>
      <trkpt lat="43.793" lon="7.08744">
        <ele>917.40002441406</ele>
        <time>2018-12-08T11:32:03.000Z</time>
      </trkpt>
      <trkpt lat="43.79301" lon="7.08739">
        <ele>917.79998779297</ele>
        <time>2018-12-08T11:32:05.000Z</time>
      </trkpt>
      <trkpt lat="43.79306" lon="7.08723">
        <ele>918.40002441406</ele>
        <time>2018-12-08T11:32:12.000Z</time>
      </trkpt>
      <trkpt lat="43.79309" lon="7.08714">
        <ele>918.79998779297</ele>
        <time>2018-12-08T11:32:16.000Z</time>
      </trkpt>
      <trkpt lat="43.79313" lon="7.08703">
        <ele>919.40002441406</ele>
        <time>2018-12-08T11:32:21.000Z</time>
      </trkpt>
      <trkpt lat="43.79316" lon="7.08697">
        <ele>920</ele>
        <time>2018-12-08T11:32:24.000Z</time>
      </trkpt>
      <trkpt lat="43.79321" lon="7.0868">
        <ele>920.59997558594</ele>
        <time>2018-12-08T11:32:31.000Z</time>
      </trkpt>
      <trkpt lat="43.79322" lon="7.08672">
        <ele>921</ele>
        <time>2018-12-08T11:32:34.000Z</time>
      </trkpt>
      <trkpt lat="43.79326" lon="7.08654">
        <ele>921.79998779297</ele>
        <time>2018-12-08T11:32:41.000Z</time>
      </trkpt>
      <trkpt lat="43.79328" lon="7.08649">
        <ele>922</ele>
        <time>2018-12-08T11:32:43.000Z</time>
      </trkpt>
      <trkpt lat="43.79332" lon="7.08637">
        <ele>922.59997558594</ele>
        <time>2018-12-08T11:32:48.000Z</time>
      </trkpt>
      <trkpt lat="43.7934" lon="7.08611">
        <ele>922.79998779297</ele>
        <time>2018-12-08T11:32:59.000Z</time>
      </trkpt>
      <trkpt lat="43.79342" lon="7.08603">
        <ele>923</ele>
        <time>2018-12-08T11:33:02.000Z</time>
      </trkpt>
      <trkpt lat="43.79346" lon="7.08593">
        <ele>923.20001220703</ele>
        <time>2018-12-08T11:33:06.000Z</time>
      </trkpt>
      <trkpt lat="43.79354" lon="7.08575">
        <ele>923.20001220703</ele>
        <time>2018-12-08T11:33:14.000Z</time>
      </trkpt>
      <trkpt lat="43.79369" lon="7.08562">
        <ele>923.20001220703</ele>
        <time>2018-12-08T11:33:22.000Z</time>
      </trkpt>
      <trkpt lat="43.79379" lon="7.08553">
        <ele>924</ele>
        <time>2018-12-08T11:33:28.000Z</time>
      </trkpt>
      <trkpt lat="43.7938" lon="7.08552">
        <ele>924.20001220703</ele>
        <time>2018-12-08T11:33:29.000Z</time>
      </trkpt>
      <trkpt lat="43.79393" lon="7.08539">
        <ele>925</ele>
        <time>2018-12-08T11:33:37.000Z</time>
      </trkpt>
      <trkpt lat="43.79396" lon="7.08536">
        <ele>925.40002441406</ele>
        <time>2018-12-08T11:33:39.000Z</time>
      </trkpt>
      <trkpt lat="43.79407" lon="7.08526">
        <ele>926.20001220703</ele>
        <time>2018-12-08T11:33:46.000Z</time>
      </trkpt>
      <trkpt lat="43.79409" lon="7.08525">
        <ele>926.40002441406</ele>
        <time>2018-12-08T11:33:47.000Z</time>
      </trkpt>
      <trkpt lat="43.79423" lon="7.08512">
        <ele>927.59997558594</ele>
        <time>2018-12-08T11:33:55.000Z</time>
      </trkpt>
      <trkpt lat="43.79434" lon="7.08506">
        <ele>928.59997558594</ele>
        <time>2018-12-08T11:34:01.000Z</time>
      </trkpt>
      <trkpt lat="43.79437" lon="7.08504">
        <ele>928.79998779297</ele>
        <time>2018-12-08T11:34:03.000Z</time>
      </trkpt>
      <trkpt lat="43.79442" lon="7.08501">
        <ele>929.59997558594</ele>
        <time>2018-12-08T11:34:06.000Z</time>
      </trkpt>
      <trkpt lat="43.79447" lon="7.08497">
        <ele>930.40002441406</ele>
        <time>2018-12-08T11:34:10.000Z</time>
      </trkpt>
      <trkpt lat="43.7945" lon="7.08495">
        <ele>930.59997558594</ele>
        <time>2018-12-08T11:34:12.000Z</time>
      </trkpt>
      <trkpt lat="43.79456" lon="7.08491">
        <ele>931.20001220703</ele>
        <time>2018-12-08T11:34:17.000Z</time>
      </trkpt>
      <trkpt lat="43.79468" lon="7.08482">
        <ele>931.59997558594</ele>
        <time>2018-12-08T11:34:26.000Z</time>
      </trkpt>
      <trkpt lat="43.79469" lon="7.08481">
        <ele>931.59997558594</ele>
        <time>2018-12-08T11:34:27.000Z</time>
      </trkpt>
      <trkpt lat="43.79481" lon="7.08471">
        <ele>932.40002441406</ele>
        <time>2018-12-08T11:34:36.000Z</time>
      </trkpt>
      <trkpt lat="43.79484" lon="7.08468">
        <ele>932.79998779297</ele>
        <time>2018-12-08T11:34:38.000Z</time>
      </trkpt>
      <trkpt lat="43.79493" lon="7.08461">
        <ele>933.59997558594</ele>
        <time>2018-12-08T11:34:44.000Z</time>
      </trkpt>
      <trkpt lat="43.79496" lon="7.08458">
        <ele>933.79998779297</ele>
        <time>2018-12-08T11:34:46.000Z</time>
      </trkpt>
      <trkpt lat="43.79502" lon="7.08451">
        <ele>934.59997558594</ele>
        <time>2018-12-08T11:34:50.000Z</time>
      </trkpt>
      <trkpt lat="43.79505" lon="7.08449">
        <ele>935</ele>
        <time>2018-12-08T11:34:52.000Z</time>
      </trkpt>
      <trkpt lat="43.79511" lon="7.08443">
        <ele>936.20001220703</ele>
        <time>2018-12-08T11:34:57.000Z</time>
      </trkpt>
      <trkpt lat="43.79515" lon="7.0844">
        <ele>936.79998779297</ele>
        <time>2018-12-08T11:35:01.000Z</time>
      </trkpt>
      <trkpt lat="43.79517" lon="7.08439">
        <ele>937.40002441406</ele>
        <time>2018-12-08T11:35:03.000Z</time>
      </trkpt>
      <trkpt lat="43.79523" lon="7.0843">
        <ele>937.59997558594</ele>
        <time>2018-12-08T11:35:10.000Z</time>
      </trkpt>
      <trkpt lat="43.79523" lon="7.08431">
        <ele>937.79998779297</ele>
        <time>2018-12-08T11:35:14.000Z</time>
      </trkpt>
      <trkpt lat="43.79523" lon="7.08431">
        <ele>937.79998779297</ele>
        <time>2018-12-08T11:35:22.000Z</time>
      </trkpt>
      <trkpt lat="43.79523" lon="7.0843">
        <ele>937.59997558594</ele>
        <time>2018-12-08T11:35:27.000Z</time>
      </trkpt>
      <trkpt lat="43.79523" lon="7.0843">
        <ele>937.79998779297</ele>
        <time>2018-12-08T11:35:39.000Z</time>
      </trkpt>
      <trkpt lat="43.79523" lon="7.08429">
        <ele>937.40002441406</ele>
        <time>2018-12-08T11:35:52.000Z</time>
      </trkpt>
      <trkpt lat="43.79522" lon="7.08428">
        <ele>937.20001220703</ele>
        <time>2018-12-08T11:36:13.000Z</time>
      </trkpt>
      <trkpt lat="43.79521" lon="7.08427">
        <ele>936.79998779297</ele>
        <time>2018-12-08T11:36:25.000Z</time>
      </trkpt>
      <trkpt lat="43.79521" lon="7.08427">
        <ele>937.40002441406</ele>
        <time>2018-12-08T11:36:38.000Z</time>
      </trkpt>
      <trkpt lat="43.79521" lon="7.08427">
        <ele>937.40002441406</ele>
        <time>2018-12-08T11:36:58.000Z</time>
      </trkpt>
      <trkpt lat="43.7952" lon="7.08425">
        <ele>937.20001220703</ele>
        <time>2018-12-08T11:37:23.000Z</time>
      </trkpt>
      <trkpt lat="43.7952" lon="7.08426">
        <ele>937</ele>
        <time>2018-12-08T11:37:42.000Z</time>
      </trkpt>
      <trkpt lat="43.79519" lon="7.08424">
        <ele>936.79998779297</ele>
        <time>2018-12-08T11:38:06.000Z</time>
      </trkpt>
      <trkpt lat="43.79518" lon="7.08424">
        <ele>936.59997558594</ele>
        <time>2018-12-08T11:38:26.000Z</time>
      </trkpt>
      <trkpt lat="43.79518" lon="7.08425">
        <ele>936.59997558594</ele>
        <time>2018-12-08T11:38:45.000Z</time>
      </trkpt>
      <trkpt lat="43.79519" lon="7.08426">
        <ele>936.59997558594</ele>
        <time>2018-12-08T11:39:00.000Z</time>
      </trkpt>
      <trkpt lat="43.79518" lon="7.08424">
        <ele>936.79998779297</ele>
        <time>2018-12-08T11:39:21.000Z</time>
      </trkpt>
      <trkpt lat="43.79519" lon="7.08426">
        <ele>936.59997558594</ele>
        <time>2018-12-08T11:39:45.000Z</time>
      </trkpt>
      <trkpt lat="43.79519" lon="7.08426">
        <ele>936.79998779297</ele>
        <time>2018-12-08T11:39:57.000Z</time>
      </trkpt>
      <trkpt lat="43.7952" lon="7.08427">
        <ele>937.59997558594</ele>
        <time>2018-12-08T11:40:04.000Z</time>
      </trkpt>
      <trkpt lat="43.7952" lon="7.08427">
        <ele>937.40002441406</ele>
        <time>2018-12-08T11:40:17.000Z</time>
      </trkpt>
      <trkpt lat="43.7952" lon="7.08428">
        <ele>936.79998779297</ele>
        <time>2018-12-08T11:40:25.000Z</time>
      </trkpt>
      <trkpt lat="43.79522" lon="7.08426">
        <ele>937.20001220703</ele>
        <time>2018-12-08T11:40:33.000Z</time>
      </trkpt>
      <trkpt lat="43.79524" lon="7.08425">
        <ele>937.40002441406</ele>
        <time>2018-12-08T11:40:35.000Z</time>
      </trkpt>
      <trkpt lat="43.79535" lon="7.08416">
        <ele>937.40002441406</ele>
        <time>2018-12-08T11:40:42.000Z</time>
      </trkpt>
      <trkpt lat="43.7955" lon="7.08408">
        <ele>938.20001220703</ele>
        <time>2018-12-08T11:40:50.000Z</time>
      </trkpt>
      <trkpt lat="43.79554" lon="7.08406">
        <ele>938.40002441406</ele>
        <time>2018-12-08T11:40:52.000Z</time>
      </trkpt>
      <trkpt lat="43.79568" lon="7.084">
        <ele>939</ele>
        <time>2018-12-08T11:40:58.000Z</time>
      </trkpt>
      <trkpt lat="43.79577" lon="7.08398">
        <ele>939.40002441406</ele>
        <time>2018-12-08T11:41:02.000Z</time>
      </trkpt>
      <trkpt lat="43.79588" lon="7.08395">
        <ele>939.79998779297</ele>
        <time>2018-12-08T11:41:06.000Z</time>
      </trkpt>
      <trkpt lat="43.79609" lon="7.0839">
        <ele>940.59997558594</ele>
        <time>2018-12-08T11:41:14.000Z</time>
      </trkpt>
      <trkpt lat="43.79614" lon="7.08388">
        <ele>940.40002441406</ele>
        <time>2018-12-08T11:41:16.000Z</time>
      </trkpt>
      <trkpt lat="43.79638" lon="7.08387">
        <ele>941.20001220703</ele>
        <time>2018-12-08T11:41:25.000Z</time>
      </trkpt>
      <trkpt lat="43.79661" lon="7.08387">
        <ele>941.20001220703</ele>
        <time>2018-12-08T11:41:32.000Z</time>
      </trkpt>
      <trkpt lat="43.79692" lon="7.08385">
        <ele>940.79998779297</ele>
        <time>2018-12-08T11:41:40.000Z</time>
      </trkpt>
      <trkpt lat="43.79713" lon="7.0839">
        <ele>941.20001220703</ele>
        <time>2018-12-08T11:41:46.000Z</time>
      </trkpt>
      <trkpt lat="43.79731" lon="7.08391">
        <ele>941.40002441406</ele>
        <time>2018-12-08T11:41:52.000Z</time>
      </trkpt>
      <trkpt lat="43.79733" lon="7.0839">
        <ele>941.59997558594</ele>
        <time>2018-12-08T11:41:53.000Z</time>
      </trkpt>
      <trkpt lat="43.79744" lon="7.08387">
        <ele>942</ele>
        <time>2018-12-08T11:41:59.000Z</time>
      </trkpt>
      <trkpt lat="43.79744" lon="7.08388">
        <ele>942.20001220703</ele>
        <time>2018-12-08T11:42:05.000Z</time>
      </trkpt>
      <trkpt lat="43.79744" lon="7.08388">
        <ele>942.40002441406</ele>
        <time>2018-12-08T11:42:09.000Z</time>
      </trkpt>
      <trkpt lat="43.79744" lon="7.08387">
        <ele>942.40002441406</ele>
        <time>2018-12-08T11:42:18.000Z</time>
      </trkpt>
      <trkpt lat="43.79744" lon="7.08386">
        <ele>942.40002441406</ele>
        <time>2018-12-08T11:42:43.000Z</time>
      </trkpt>
      <trkpt lat="43.79747" lon="7.08385">
        <ele>942.40002441406</ele>
        <time>2018-12-08T11:43:10.000Z</time>
      </trkpt>
      <trkpt lat="43.79754" lon="7.08378">
        <ele>942.20001220703</ele>
        <time>2018-12-08T11:43:16.000Z</time>
      </trkpt>
      <trkpt lat="43.79763" lon="7.08362">
        <ele>942.40002441406</ele>
        <time>2018-12-08T11:43:23.000Z</time>
      </trkpt>
      <trkpt lat="43.79771" lon="7.08346">
        <ele>942.40002441406</ele>
        <time>2018-12-08T11:43:29.000Z</time>
      </trkpt>
      <trkpt lat="43.79775" lon="7.08336">
        <ele>942.59997558594</ele>
        <time>2018-12-08T11:43:32.000Z</time>
      </trkpt>
      <trkpt lat="43.79781" lon="7.08323">
        <ele>942.59997558594</ele>
        <time>2018-12-08T11:43:36.000Z</time>
      </trkpt>
      <trkpt lat="43.79792" lon="7.08299">
        <ele>943</ele>
        <time>2018-12-08T11:43:43.000Z</time>
      </trkpt>
      <trkpt lat="43.79809" lon="7.08279">
        <ele>943.40002441406</ele>
        <time>2018-12-08T11:43:50.000Z</time>
      </trkpt>
      <trkpt lat="43.79826" lon="7.08274">
        <ele>943.59997558594</ele>
        <time>2018-12-08T11:43:55.000Z</time>
      </trkpt>
      <trkpt lat="43.79836" lon="7.08272">
        <ele>943.59997558594</ele>
        <time>2018-12-08T11:43:58.000Z</time>
      </trkpt>
      <trkpt lat="43.79851" lon="7.08259">
        <ele>943.79998779297</ele>
        <time>2018-12-08T11:44:03.000Z</time>
      </trkpt>
      <trkpt lat="43.79858" lon="7.08237">
        <ele>943.79998779297</ele>
        <time>2018-12-08T11:44:08.000Z</time>
      </trkpt>
      <trkpt lat="43.79856" lon="7.08207">
        <ele>944</ele>
        <time>2018-12-08T11:44:14.000Z</time>
      </trkpt>
      <trkpt lat="43.79848" lon="7.08173">
        <ele>944.40002441406</ele>
        <time>2018-12-08T11:44:21.000Z</time>
      </trkpt>
      <trkpt lat="43.79846" lon="7.08164">
        <ele>944.59997558594</ele>
        <time>2018-12-08T11:44:23.000Z</time>
      </trkpt>
      <trkpt lat="43.7984" lon="7.0814">
        <ele>945</ele>
        <time>2018-12-08T11:44:28.000Z</time>
      </trkpt>
      <trkpt lat="43.79831" lon="7.08105">
        <ele>945.40002441406</ele>
        <time>2018-12-08T11:44:36.000Z</time>
      </trkpt>
      <trkpt lat="43.79827" lon="7.08089">
        <ele>945.59997558594</ele>
        <time>2018-12-08T11:44:40.000Z</time>
      </trkpt>
      <trkpt lat="43.79822" lon="7.08069">
        <ele>946.40002441406</ele>
        <time>2018-12-08T11:44:45.000Z</time>
      </trkpt>
      <trkpt lat="43.79819" lon="7.08057">
        <ele>946.59997558594</ele>
        <time>2018-12-08T11:44:48.000Z</time>
      </trkpt>
      <trkpt lat="43.79816" lon="7.08042">
        <ele>947</ele>
        <time>2018-12-08T11:44:52.000Z</time>
      </trkpt>
      <trkpt lat="43.7981" lon="7.08019">
        <ele>947.20001220703</ele>
        <time>2018-12-08T11:44:58.000Z</time>
      </trkpt>
      <trkpt lat="43.79808" lon="7.08011">
        <ele>947.79998779297</ele>
        <time>2018-12-08T11:45:00.000Z</time>
      </trkpt>
      <trkpt lat="43.79801" lon="7.07982">
        <ele>948.59997558594</ele>
        <time>2018-12-08T11:45:08.000Z</time>
      </trkpt>
      <trkpt lat="43.798" lon="7.07978">
        <ele>948.79998779297</ele>
        <time>2018-12-08T11:45:09.000Z</time>
      </trkpt>
      <trkpt lat="43.79793" lon="7.07952">
        <ele>949.40002441406</ele>
        <time>2018-12-08T11:45:16.000Z</time>
      </trkpt>
      <trkpt lat="43.7979" lon="7.07941">
        <ele>950</ele>
        <time>2018-12-08T11:45:19.000Z</time>
      </trkpt>
      <trkpt lat="43.79785" lon="7.07918">
        <ele>950.59997558594</ele>
        <time>2018-12-08T11:45:25.000Z</time>
      </trkpt>
      <trkpt lat="43.79782" lon="7.07903">
        <ele>951</ele>
        <time>2018-12-08T11:45:29.000Z</time>
      </trkpt>
      <trkpt lat="43.79775" lon="7.07881">
        <ele>951.59997558594</ele>
        <time>2018-12-08T11:45:35.000Z</time>
      </trkpt>
      <trkpt lat="43.79773" lon="7.07869">
        <ele>952</ele>
        <time>2018-12-08T11:45:38.000Z</time>
      </trkpt>
      <trkpt lat="43.79766" lon="7.07839">
        <ele>952.79998779297</ele>
        <time>2018-12-08T11:45:46.000Z</time>
      </trkpt>
      <trkpt lat="43.79764" lon="7.07831">
        <ele>953.20001220703</ele>
        <time>2018-12-08T11:45:48.000Z</time>
      </trkpt>
      <trkpt lat="43.79758" lon="7.07796">
        <ele>954.20001220703</ele>
        <time>2018-12-08T11:45:57.000Z</time>
      </trkpt>
      <trkpt lat="43.79752" lon="7.07759">
        <ele>955.20001220703</ele>
        <time>2018-12-08T11:46:06.000Z</time>
      </trkpt>
      <trkpt lat="43.79751" lon="7.07755">
        <ele>955.20001220703</ele>
        <time>2018-12-08T11:46:07.000Z</time>
      </trkpt>
      <trkpt lat="43.79746" lon="7.07727">
        <ele>956.20001220703</ele>
        <time>2018-12-08T11:46:14.000Z</time>
      </trkpt>
      <trkpt lat="43.79745" lon="7.07719">
        <ele>956.20001220703</ele>
        <time>2018-12-08T11:46:16.000Z</time>
      </trkpt>
      <trkpt lat="43.79742" lon="7.07698">
        <ele>956.79998779297</ele>
        <time>2018-12-08T11:46:21.000Z</time>
      </trkpt>
      <trkpt lat="43.79738" lon="7.07678">
        <ele>957.40002441406</ele>
        <time>2018-12-08T11:46:26.000Z</time>
      </trkpt>
      <trkpt lat="43.79735" lon="7.07662">
        <ele>957.79998779297</ele>
        <time>2018-12-08T11:46:30.000Z</time>
      </trkpt>
      <trkpt lat="43.79732" lon="7.0765">
        <ele>958.40002441406</ele>
        <time>2018-12-08T11:46:33.000Z</time>
      </trkpt>
      <trkpt lat="43.79724" lon="7.07627">
        <ele>959</ele>
        <time>2018-12-08T11:46:39.000Z</time>
      </trkpt>
      <trkpt lat="43.79718" lon="7.07616">
        <ele>959.40002441406</ele>
        <time>2018-12-08T11:46:42.000Z</time>
      </trkpt>
      <trkpt lat="43.7971" lon="7.07603">
        <ele>960</ele>
        <time>2018-12-08T11:46:46.000Z</time>
      </trkpt>
      <trkpt lat="43.79704" lon="7.07593">
        <ele>960.59997558594</ele>
        <time>2018-12-08T11:46:49.000Z</time>
      </trkpt>
      <trkpt lat="43.79694" lon="7.07576">
        <ele>961</ele>
        <time>2018-12-08T11:46:54.000Z</time>
      </trkpt>
      <trkpt lat="43.79688" lon="7.0756">
        <ele>961.59997558594</ele>
        <time>2018-12-08T11:46:58.000Z</time>
      </trkpt>
      <trkpt lat="43.79683" lon="7.07548">
        <ele>961.79998779297</ele>
        <time>2018-12-08T11:47:01.000Z</time>
      </trkpt>
      <trkpt lat="43.79675" lon="7.07523">
        <ele>962.59997558594</ele>
        <time>2018-12-08T11:47:07.000Z</time>
      </trkpt>
      <trkpt lat="43.79671" lon="7.0751">
        <ele>963</ele>
        <time>2018-12-08T11:47:10.000Z</time>
      </trkpt>
      <trkpt lat="43.79663" lon="7.07485">
        <ele>963.79998779297</ele>
        <time>2018-12-08T11:47:16.000Z</time>
      </trkpt>
      <trkpt lat="43.79657" lon="7.07468">
        <ele>964</ele>
        <time>2018-12-08T11:47:20.000Z</time>
      </trkpt>
      <trkpt lat="43.79653" lon="7.07456">
        <ele>964.40002441406</ele>
        <time>2018-12-08T11:47:23.000Z</time>
      </trkpt>
      <trkpt lat="43.7965" lon="7.07448">
        <ele>964.79998779297</ele>
        <time>2018-12-08T11:47:25.000Z</time>
      </trkpt>
      <trkpt lat="43.79646" lon="7.07436">
        <ele>965.20001220703</ele>
        <time>2018-12-08T11:47:28.000Z</time>
      </trkpt>
      <trkpt lat="43.79638" lon="7.07411">
        <ele>965.79998779297</ele>
        <time>2018-12-08T11:47:34.000Z</time>
      </trkpt>
      <trkpt lat="43.79633" lon="7.07397">
        <ele>966.20001220703</ele>
        <time>2018-12-08T11:47:37.000Z</time>
      </trkpt>
      <trkpt lat="43.79624" lon="7.07377">
        <ele>967</ele>
        <time>2018-12-08T11:47:42.000Z</time>
      </trkpt>
      <trkpt lat="43.7962" lon="7.07371">
        <ele>967.20001220703</ele>
        <time>2018-12-08T11:47:44.000Z</time>
      </trkpt>
      <trkpt lat="43.79604" lon="7.07349">
        <ele>968</ele>
        <time>2018-12-08T11:47:51.000Z</time>
      </trkpt>
      <trkpt lat="43.79599" lon="7.07343">
        <ele>968.20001220703</ele>
        <time>2018-12-08T11:47:53.000Z</time>
      </trkpt>
      <trkpt lat="43.79586" lon="7.07324">
        <ele>969</ele>
        <time>2018-12-08T11:47:59.000Z</time>
      </trkpt>
      <trkpt lat="43.79579" lon="7.07313">
        <ele>969.40002441406</ele>
        <time>2018-12-08T11:48:02.000Z</time>
      </trkpt>
      <trkpt lat="43.79566" lon="7.07291">
        <ele>970</ele>
        <time>2018-12-08T11:48:08.000Z</time>
      </trkpt>
      <trkpt lat="43.7956" lon="7.07279">
        <ele>970.40002441406</ele>
        <time>2018-12-08T11:48:11.000Z</time>
      </trkpt>
      <trkpt lat="43.79551" lon="7.07252">
        <ele>971.20001220703</ele>
        <time>2018-12-08T11:48:17.000Z</time>
      </trkpt>
      <trkpt lat="43.79546" lon="7.07238">
        <ele>971.59997558594</ele>
        <time>2018-12-08T11:48:20.000Z</time>
      </trkpt>
      <trkpt lat="43.79535" lon="7.07213">
        <ele>972.20001220703</ele>
        <time>2018-12-08T11:48:26.000Z</time>
      </trkpt>
      <trkpt lat="43.79533" lon="7.07209">
        <ele>972.20001220703</ele>
        <time>2018-12-08T11:48:27.000Z</time>
      </trkpt>
      <trkpt lat="43.79518" lon="7.07183">
        <ele>973.20001220703</ele>
        <time>2018-12-08T11:48:34.000Z</time>
      </trkpt>
      <trkpt lat="43.79514" lon="7.07175">
        <ele>973.40002441406</ele>
        <time>2018-12-08T11:48:36.000Z</time>
      </trkpt>
      <trkpt lat="43.79497" lon="7.07148">
        <ele>974.20001220703</ele>
        <time>2018-12-08T11:48:44.000Z</time>
      </trkpt>
      <trkpt lat="43.79495" lon="7.07144">
        <ele>974.40002441406</ele>
        <time>2018-12-08T11:48:45.000Z</time>
      </trkpt>
      <trkpt lat="43.79478" lon="7.07117">
        <ele>975.20001220703</ele>
        <time>2018-12-08T11:48:53.000Z</time>
      </trkpt>
      <trkpt lat="43.79476" lon="7.07114">
        <ele>975.40002441406</ele>
        <time>2018-12-08T11:48:54.000Z</time>
      </trkpt>
      <trkpt lat="43.79459" lon="7.07088">
        <ele>976.40002441406</ele>
        <time>2018-12-08T11:49:02.000Z</time>
      </trkpt>
      <trkpt lat="43.79457" lon="7.07084">
        <ele>976.40002441406</ele>
        <time>2018-12-08T11:49:03.000Z</time>
      </trkpt>
      <trkpt lat="43.79437" lon="7.07048">
        <ele>977.40002441406</ele>
        <time>2018-12-08T11:49:13.000Z</time>
      </trkpt>
      <trkpt lat="43.79426" lon="7.0702">
        <ele>978.20001220703</ele>
        <time>2018-12-08T11:49:20.000Z</time>
      </trkpt>
      <trkpt lat="43.79425" lon="7.07016">
        <ele>978.40002441406</ele>
        <time>2018-12-08T11:49:21.000Z</time>
      </trkpt>
      <trkpt lat="43.7942" lon="7.06986">
        <ele>979.20001220703</ele>
        <time>2018-12-08T11:49:28.000Z</time>
      </trkpt>
      <trkpt lat="43.7942" lon="7.06979">
        <ele>979.40002441406</ele>
        <time>2018-12-08T11:49:30.000Z</time>
      </trkpt>
      <trkpt lat="43.7942" lon="7.06967">
        <ele>979.79998779297</ele>
        <time>2018-12-08T11:49:33.000Z</time>
      </trkpt>
      <trkpt lat="43.7942" lon="7.06944">
        <ele>980.59997558594</ele>
        <time>2018-12-08T11:49:38.000Z</time>
      </trkpt>
      <trkpt lat="43.7942" lon="7.0694">
        <ele>980.59997558594</ele>
        <time>2018-12-08T11:49:39.000Z</time>
      </trkpt>
      <trkpt lat="43.79421" lon="7.06909">
        <ele>981.59997558594</ele>
        <time>2018-12-08T11:49:46.000Z</time>
      </trkpt>
      <trkpt lat="43.79418" lon="7.06871">
        <ele>982.79998779297</ele>
        <time>2018-12-08T11:49:55.000Z</time>
      </trkpt>
      <trkpt lat="43.79411" lon="7.06841">
        <ele>983.79998779297</ele>
        <time>2018-12-08T11:50:02.000Z</time>
      </trkpt>
      <trkpt lat="43.79408" lon="7.06828">
        <ele>984.20001220703</ele>
        <time>2018-12-08T11:50:05.000Z</time>
      </trkpt>
      <trkpt lat="43.79401" lon="7.06798">
        <ele>984.79998779297</ele>
        <time>2018-12-08T11:50:12.000Z</time>
      </trkpt>
      <trkpt lat="43.79399" lon="7.06789">
        <ele>985.20001220703</ele>
        <time>2018-12-08T11:50:14.000Z</time>
      </trkpt>
      <trkpt lat="43.79391" lon="7.06768">
        <ele>985.79998779297</ele>
        <time>2018-12-08T11:50:19.000Z</time>
      </trkpt>
      <trkpt lat="43.79384" lon="7.06747">
        <ele>986.59997558594</ele>
        <time>2018-12-08T11:50:24.000Z</time>
      </trkpt>
      <trkpt lat="43.79378" lon="7.0673">
        <ele>987</ele>
        <time>2018-12-08T11:50:28.000Z</time>
      </trkpt>
      <trkpt lat="43.79374" lon="7.06717">
        <ele>987.20001220703</ele>
        <time>2018-12-08T11:50:31.000Z</time>
      </trkpt>
      <trkpt lat="43.79366" lon="7.06683">
        <ele>988</ele>
        <time>2018-12-08T11:50:39.000Z</time>
      </trkpt>
      <trkpt lat="43.79365" lon="7.06678">
        <ele>988.20001220703</ele>
        <time>2018-12-08T11:50:40.000Z</time>
      </trkpt>
      <trkpt lat="43.7936" lon="7.06643">
        <ele>989</ele>
        <time>2018-12-08T11:50:48.000Z</time>
      </trkpt>
      <trkpt lat="43.7935" lon="7.06608">
        <ele>990.20001220703</ele>
        <time>2018-12-08T11:50:56.000Z</time>
      </trkpt>
      <trkpt lat="43.79348" lon="7.06604">
        <ele>990.20001220703</ele>
        <time>2018-12-08T11:50:57.000Z</time>
      </trkpt>
      <trkpt lat="43.79333" lon="7.06574">
        <ele>991.20001220703</ele>
        <time>2018-12-08T11:51:05.000Z</time>
      </trkpt>
      <trkpt lat="43.79331" lon="7.0657">
        <ele>991.20001220703</ele>
        <time>2018-12-08T11:51:06.000Z</time>
      </trkpt>
      <trkpt lat="43.79323" lon="7.06546">
        <ele>992.20001220703</ele>
        <time>2018-12-08T11:51:12.000Z</time>
      </trkpt>
      <trkpt lat="43.79321" lon="7.06537">
        <ele>992.59997558594</ele>
        <time>2018-12-08T11:51:14.000Z</time>
      </trkpt>
      <trkpt lat="43.79319" lon="7.06505">
        <ele>993.20001220703</ele>
        <time>2018-12-08T11:51:21.000Z</time>
      </trkpt>
      <trkpt lat="43.7932" lon="7.06474">
        <ele>994</ele>
        <time>2018-12-08T11:51:28.000Z</time>
      </trkpt>
      <trkpt lat="43.7932" lon="7.06465">
        <ele>994.20001220703</ele>
        <time>2018-12-08T11:51:30.000Z</time>
      </trkpt>
      <trkpt lat="43.7932" lon="7.06437">
        <ele>995</ele>
        <time>2018-12-08T11:51:37.000Z</time>
      </trkpt>
      <trkpt lat="43.7932" lon="7.06421">
        <ele>995.40002441406</ele>
        <time>2018-12-08T11:51:41.000Z</time>
      </trkpt>
      <trkpt lat="43.7932" lon="7.0641">
        <ele>995.59997558594</ele>
        <time>2018-12-08T11:51:44.000Z</time>
      </trkpt>
      <trkpt lat="43.79322" lon="7.06378">
        <ele>996.20001220703</ele>
        <time>2018-12-08T11:51:52.000Z</time>
      </trkpt>
      <trkpt lat="43.79323" lon="7.06371">
        <ele>996.40002441406</ele>
        <time>2018-12-08T11:51:54.000Z</time>
      </trkpt>
      <trkpt lat="43.79323" lon="7.06344">
        <ele>997.20001220703</ele>
        <time>2018-12-08T11:52:00.000Z</time>
      </trkpt>
      <trkpt lat="43.79321" lon="7.06329">
        <ele>997.40002441406</ele>
        <time>2018-12-08T11:52:03.000Z</time>
      </trkpt>
      <trkpt lat="43.79317" lon="7.0631">
        <ele>998</ele>
        <time>2018-12-08T11:52:07.000Z</time>
      </trkpt>
      <trkpt lat="43.79312" lon="7.06296">
        <ele>998.40002441406</ele>
        <time>2018-12-08T11:52:10.000Z</time>
      </trkpt>
      <trkpt lat="43.79302" lon="7.06276">
        <ele>999.20001220703</ele>
        <time>2018-12-08T11:52:15.000Z</time>
      </trkpt>
      <trkpt lat="43.7929" lon="7.06258">
        <ele>999.40002441406</ele>
        <time>2018-12-08T11:52:20.000Z</time>
      </trkpt>
      <trkpt lat="43.79283" lon="7.06249">
        <ele>1000</ele>
        <time>2018-12-08T11:52:23.000Z</time>
      </trkpt>
      <trkpt lat="43.79272" lon="7.06235">
        <ele>1000.5999755859</ele>
        <time>2018-12-08T11:52:27.000Z</time>
      </trkpt>
      <trkpt lat="43.79262" lon="7.06215">
        <ele>1001.200012207</ele>
        <time>2018-12-08T11:52:32.000Z</time>
      </trkpt>
      <trkpt lat="43.79255" lon="7.06197">
        <ele>1001.5999755859</ele>
        <time>2018-12-08T11:52:36.000Z</time>
      </trkpt>
      <trkpt lat="43.7925" lon="7.06181">
        <ele>1002</ele>
        <time>2018-12-08T11:52:39.000Z</time>
      </trkpt>
      <trkpt lat="43.79235" lon="7.06141">
        <ele>1002.799987793</ele>
        <time>2018-12-08T11:52:46.000Z</time>
      </trkpt>
      <trkpt lat="43.79232" lon="7.0613">
        <ele>1003.200012207</ele>
        <time>2018-12-08T11:52:48.000Z</time>
      </trkpt>
      <trkpt lat="43.79223" lon="7.06103">
        <ele>1004</ele>
        <time>2018-12-08T11:52:53.000Z</time>
      </trkpt>
      <trkpt lat="43.79217" lon="7.06082">
        <ele>1004.5999755859</ele>
        <time>2018-12-08T11:52:57.000Z</time>
      </trkpt>
      <trkpt lat="43.79215" lon="7.06072">
        <ele>1005</ele>
        <time>2018-12-08T11:52:59.000Z</time>
      </trkpt>
      <trkpt lat="43.79216" lon="7.06054">
        <ele>1005.5999755859</ele>
        <time>2018-12-08T11:53:02.000Z</time>
      </trkpt>
      <trkpt lat="43.79217" lon="7.06049">
        <ele>1005.5999755859</ele>
        <time>2018-12-08T11:53:03.000Z</time>
      </trkpt>
      <trkpt lat="43.79222" lon="7.06032">
        <ele>1005.5999755859</ele>
        <time>2018-12-08T11:53:06.000Z</time>
      </trkpt>
      <trkpt lat="43.79227" lon="7.06014">
        <ele>1005.4000244141</ele>
        <time>2018-12-08T11:53:09.000Z</time>
      </trkpt>
      <trkpt lat="43.79234" lon="7.05988">
        <ele>1004.4000244141</ele>
        <time>2018-12-08T11:53:13.000Z</time>
      </trkpt>
      <trkpt lat="43.79237" lon="7.05974">
        <ele>1004</ele>
        <time>2018-12-08T11:53:15.000Z</time>
      </trkpt>
      <trkpt lat="43.79238" lon="7.05967">
        <ele>1003.799987793</ele>
        <time>2018-12-08T11:53:16.000Z</time>
      </trkpt>
      <trkpt lat="43.79239" lon="7.05938">
        <ele>1003</ele>
        <time>2018-12-08T11:53:20.000Z</time>
      </trkpt>
      <trkpt lat="43.7924" lon="7.05915">
        <ele>1002.4000244141</ele>
        <time>2018-12-08T11:53:23.000Z</time>
      </trkpt>
      <trkpt lat="43.79241" lon="7.05891">
        <ele>1001.799987793</ele>
        <time>2018-12-08T11:53:26.000Z</time>
      </trkpt>
      <trkpt lat="43.79243" lon="7.05861">
        <ele>1000.5999755859</ele>
        <time>2018-12-08T11:53:30.000Z</time>
      </trkpt>
      <trkpt lat="43.79244" lon="7.05846">
        <ele>1000.4000244141</ele>
        <time>2018-12-08T11:53:32.000Z</time>
      </trkpt>
      <trkpt lat="43.79247" lon="7.05819">
        <ele>1000</ele>
        <time>2018-12-08T11:53:36.000Z</time>
      </trkpt>
      <trkpt lat="43.7925" lon="7.05807">
        <ele>999.59997558594</ele>
        <time>2018-12-08T11:53:38.000Z</time>
      </trkpt>
      <trkpt lat="43.79254" lon="7.05768">
        <ele>999.59997558594</ele>
        <time>2018-12-08T11:53:44.000Z</time>
      </trkpt>
      <trkpt lat="43.79255" lon="7.0574">
        <ele>999.59997558594</ele>
        <time>2018-12-08T11:53:48.000Z</time>
      </trkpt>
      <trkpt lat="43.79255" lon="7.05726">
        <ele>999.40002441406</ele>
        <time>2018-12-08T11:53:50.000Z</time>
      </trkpt>
      <trkpt lat="43.79255" lon="7.05719">
        <ele>999.20001220703</ele>
        <time>2018-12-08T11:53:51.000Z</time>
      </trkpt>
      <trkpt lat="43.79255" lon="7.05698">
        <ele>998.59997558594</ele>
        <time>2018-12-08T11:53:54.000Z</time>
      </trkpt>
      <trkpt lat="43.79254" lon="7.05674">
        <ele>998.40002441406</ele>
        <time>2018-12-08T11:53:57.000Z</time>
      </trkpt>
      <trkpt lat="43.79253" lon="7.05642">
        <ele>997.59997558594</ele>
        <time>2018-12-08T11:54:01.000Z</time>
      </trkpt>
      <trkpt lat="43.79251" lon="7.05619">
        <ele>997.20001220703</ele>
        <time>2018-12-08T11:54:04.000Z</time>
      </trkpt>
      <trkpt lat="43.79248" lon="7.05586">
        <ele>996.20001220703</ele>
        <time>2018-12-08T11:54:08.000Z</time>
      </trkpt>
      <trkpt lat="43.79247" lon="7.05556">
        <ele>995.40002441406</ele>
        <time>2018-12-08T11:54:12.000Z</time>
      </trkpt>
      <trkpt lat="43.79246" lon="7.05548">
        <ele>995.20001220703</ele>
        <time>2018-12-08T11:54:13.000Z</time>
      </trkpt>
      <trkpt lat="43.79244" lon="7.05523">
        <ele>995</ele>
        <time>2018-12-08T11:54:16.000Z</time>
      </trkpt>
      <trkpt lat="43.7924" lon="7.05481">
        <ele>994.40002441406</ele>
        <time>2018-12-08T11:54:21.000Z</time>
      </trkpt>
      <trkpt lat="43.79239" lon="7.05472">
        <ele>994.20001220703</ele>
        <time>2018-12-08T11:54:22.000Z</time>
      </trkpt>
      <trkpt lat="43.79234" lon="7.05422">
        <ele>993.40002441406</ele>
        <time>2018-12-08T11:54:28.000Z</time>
      </trkpt>
      <trkpt lat="43.79232" lon="7.05408">
        <ele>993</ele>
        <time>2018-12-08T11:54:30.000Z</time>
      </trkpt>
      <trkpt lat="43.79229" lon="7.05369">
        <ele>992.59997558594</ele>
        <time>2018-12-08T11:54:35.000Z</time>
      </trkpt>
      <trkpt lat="43.79223" lon="7.05311">
        <ele>992</ele>
        <time>2018-12-08T11:54:43.000Z</time>
      </trkpt>
      <trkpt lat="43.79222" lon="7.05289">
        <ele>992</ele>
        <time>2018-12-08T11:54:46.000Z</time>
      </trkpt>
      <trkpt lat="43.79219" lon="7.05269">
        <ele>992</ele>
        <time>2018-12-08T11:54:49.000Z</time>
      </trkpt>
      <trkpt lat="43.79218" lon="7.05248">
        <ele>993</ele>
        <time>2018-12-08T11:54:52.000Z</time>
      </trkpt>
      <trkpt lat="43.79216" lon="7.05227">
        <ele>993.20001220703</ele>
        <time>2018-12-08T11:54:55.000Z</time>
      </trkpt>
      <trkpt lat="43.79215" lon="7.05214">
        <ele>991.59997558594</ele>
        <time>2018-12-08T11:54:57.000Z</time>
      </trkpt>
      <trkpt lat="43.79214" lon="7.05194">
        <ele>991.20001220703</ele>
        <time>2018-12-08T11:55:00.000Z</time>
      </trkpt>
      <trkpt lat="43.79213" lon="7.05174">
        <ele>991.59997558594</ele>
        <time>2018-12-08T11:55:03.000Z</time>
      </trkpt>
      <trkpt lat="43.79213" lon="7.05148">
        <ele>992.40002441406</ele>
        <time>2018-12-08T11:55:07.000Z</time>
      </trkpt>
      <trkpt lat="43.79213" lon="7.05141">
        <ele>992.20001220703</ele>
        <time>2018-12-08T11:55:08.000Z</time>
      </trkpt>
      <trkpt lat="43.79213" lon="7.05084">
        <ele>991.20001220703</ele>
        <time>2018-12-08T11:55:17.000Z</time>
      </trkpt>
      <trkpt lat="43.79212" lon="7.05053">
        <ele>991.79998779297</ele>
        <time>2018-12-08T11:55:22.000Z</time>
      </trkpt>
      <trkpt lat="43.79206" lon="7.04998">
        <ele>991.79998779297</ele>
        <time>2018-12-08T11:55:31.000Z</time>
      </trkpt>
      <trkpt lat="43.79204" lon="7.04963">
        <ele>991.59997558594</ele>
        <time>2018-12-08T11:55:37.000Z</time>
      </trkpt>
      <trkpt lat="43.79204" lon="7.04934">
        <ele>991.59997558594</ele>
        <time>2018-12-08T11:55:42.000Z</time>
      </trkpt>
      <trkpt lat="43.79205" lon="7.04924">
        <ele>991.59997558594</ele>
        <time>2018-12-08T11:55:44.000Z</time>
      </trkpt>
      <trkpt lat="43.79211" lon="7.0489">
        <ele>992.20001220703</ele>
        <time>2018-12-08T11:55:51.000Z</time>
      </trkpt>
      <trkpt lat="43.79224" lon="7.04857">
        <ele>992.20001220703</ele>
        <time>2018-12-08T11:55:58.000Z</time>
      </trkpt>
      <trkpt lat="43.79246" lon="7.04812">
        <ele>991.79998779297</ele>
        <time>2018-12-08T11:56:07.000Z</time>
      </trkpt>
      <trkpt lat="43.79262" lon="7.04769">
        <ele>991.79998779297</ele>
        <time>2018-12-08T11:56:15.000Z</time>
      </trkpt>
      <trkpt lat="43.79266" lon="7.04725">
        <ele>991.59997558594</ele>
        <time>2018-12-08T11:56:22.000Z</time>
      </trkpt>
      <trkpt lat="43.79269" lon="7.04666">
        <ele>991.40002441406</ele>
        <time>2018-12-08T11:56:31.000Z</time>
      </trkpt>
      <trkpt lat="43.79267" lon="7.04653">
        <ele>991.40002441406</ele>
        <time>2018-12-08T11:56:33.000Z</time>
      </trkpt>
      <trkpt lat="43.79263" lon="7.0462">
        <ele>990.79998779297</ele>
        <time>2018-12-08T11:56:38.000Z</time>
      </trkpt>
      <trkpt lat="43.79262" lon="7.04614">
        <ele>990.59997558594</ele>
        <time>2018-12-08T11:56:39.000Z</time>
      </trkpt>
      <trkpt lat="43.79257" lon="7.0456">
        <ele>990.79998779297</ele>
        <time>2018-12-08T11:56:47.000Z</time>
      </trkpt>
      <trkpt lat="43.79257" lon="7.04553">
        <ele>990.59997558594</ele>
        <time>2018-12-08T11:56:48.000Z</time>
      </trkpt>
      <trkpt lat="43.79264" lon="7.0451">
        <ele>990.59997558594</ele>
        <time>2018-12-08T11:56:55.000Z</time>
      </trkpt>
      <trkpt lat="43.79271" lon="7.04499">
        <ele>990.79998779297</ele>
        <time>2018-12-08T11:56:59.000Z</time>
      </trkpt>
      <trkpt lat="43.79275" lon="7.04489">
        <ele>991.79998779297</ele>
        <time>2018-12-08T11:57:04.000Z</time>
      </trkpt>
      <trkpt lat="43.79279" lon="7.04477">
        <ele>992.79998779297</ele>
        <time>2018-12-08T11:57:10.000Z</time>
      </trkpt>
      <trkpt lat="43.79284" lon="7.04464">
        <ele>994</ele>
        <time>2018-12-08T11:57:16.000Z</time>
      </trkpt>
      <trkpt lat="43.79285" lon="7.04462">
        <ele>994.20001220703</ele>
        <time>2018-12-08T11:57:17.000Z</time>
      </trkpt>
      <trkpt lat="43.7929" lon="7.04453">
        <ele>995</ele>
        <time>2018-12-08T11:57:21.000Z</time>
      </trkpt>
      <trkpt lat="43.79294" lon="7.04446">
        <ele>995.40002441406</ele>
        <time>2018-12-08T11:57:24.000Z</time>
      </trkpt>
      <trkpt lat="43.79299" lon="7.04437">
        <ele>996.20001220703</ele>
        <time>2018-12-08T11:57:28.000Z</time>
      </trkpt>
      <trkpt lat="43.79303" lon="7.04428">
        <ele>997</ele>
        <time>2018-12-08T11:57:32.000Z</time>
      </trkpt>
      <trkpt lat="43.79305" lon="7.04423">
        <ele>997.20001220703</ele>
        <time>2018-12-08T11:57:34.000Z</time>
      </trkpt>
      <trkpt lat="43.79311" lon="7.04411">
        <ele>998.20001220703</ele>
        <time>2018-12-08T11:57:40.000Z</time>
      </trkpt>
      <trkpt lat="43.79316" lon="7.04398">
        <ele>999.40002441406</ele>
        <time>2018-12-08T11:57:46.000Z</time>
      </trkpt>
      <trkpt lat="43.79317" lon="7.04396">
        <ele>999.59997558594</ele>
        <time>2018-12-08T11:57:47.000Z</time>
      </trkpt>
      <trkpt lat="43.79322" lon="7.04386">
        <ele>1000.4000244141</ele>
        <time>2018-12-08T11:57:52.000Z</time>
      </trkpt>
      <trkpt lat="43.79325" lon="7.0438">
        <ele>1000.799987793</ele>
        <time>2018-12-08T11:57:55.000Z</time>
      </trkpt>
      <trkpt lat="43.79327" lon="7.04374">
        <ele>1001.4000244141</ele>
        <time>2018-12-08T11:57:58.000Z</time>
      </trkpt>
      <trkpt lat="43.79333" lon="7.04364">
        <ele>1002.200012207</ele>
        <time>2018-12-08T11:58:03.000Z</time>
      </trkpt>
      <trkpt lat="43.79335" lon="7.0436">
        <ele>1002.5999755859</ele>
        <time>2018-12-08T11:58:05.000Z</time>
      </trkpt>
      <trkpt lat="43.79341" lon="7.04346">
        <ele>1003.799987793</ele>
        <time>2018-12-08T11:58:11.000Z</time>
      </trkpt>
      <trkpt lat="43.79341" lon="7.04343">
        <ele>1003.799987793</ele>
        <time>2018-12-08T11:58:12.000Z</time>
      </trkpt>
      <trkpt lat="43.79345" lon="7.04331">
        <ele>1004.799987793</ele>
        <time>2018-12-08T11:58:17.000Z</time>
      </trkpt>
      <trkpt lat="43.79348" lon="7.04322">
        <ele>1005.4000244141</ele>
        <time>2018-12-08T11:58:21.000Z</time>
      </trkpt>
      <trkpt lat="43.79349" lon="7.04318">
        <ele>1005.799987793</ele>
        <time>2018-12-08T11:58:23.000Z</time>
      </trkpt>
      <trkpt lat="43.79354" lon="7.04308">
        <ele>1006.5999755859</ele>
        <time>2018-12-08T11:58:28.000Z</time>
      </trkpt>
      <trkpt lat="43.79355" lon="7.04304">
        <ele>1007</ele>
        <time>2018-12-08T11:58:30.000Z</time>
      </trkpt>
      <trkpt lat="43.79357" lon="7.043">
        <ele>1007.4000244141</ele>
        <time>2018-12-08T11:58:32.000Z</time>
      </trkpt>
      <trkpt lat="43.7936" lon="7.04295">
        <ele>1007.799987793</ele>
        <time>2018-12-08T11:58:35.000Z</time>
      </trkpt>
      <trkpt lat="43.79361" lon="7.04293">
        <ele>1008</ele>
        <time>2018-12-08T11:58:36.000Z</time>
      </trkpt>
      <trkpt lat="43.79367" lon="7.04284">
        <ele>1009</ele>
        <time>2018-12-08T11:58:41.000Z</time>
      </trkpt>
      <trkpt lat="43.79369" lon="7.04282">
        <ele>1009.200012207</ele>
        <time>2018-12-08T11:58:42.000Z</time>
      </trkpt>
      <trkpt lat="43.7938" lon="7.0427">
        <ele>1010</ele>
        <time>2018-12-08T11:58:49.000Z</time>
      </trkpt>
      <trkpt lat="43.79394" lon="7.04255">
        <ele>1011.200012207</ele>
        <time>2018-12-08T11:58:57.000Z</time>
      </trkpt>
      <trkpt lat="43.79406" lon="7.04241">
        <ele>1012</ele>
        <time>2018-12-08T11:59:04.000Z</time>
      </trkpt>
      <trkpt lat="43.7941" lon="7.04238">
        <ele>1012.200012207</ele>
        <time>2018-12-08T11:59:06.000Z</time>
      </trkpt>
      <trkpt lat="43.79421" lon="7.04223">
        <ele>1013.200012207</ele>
        <time>2018-12-08T11:59:13.000Z</time>
      </trkpt>
      <trkpt lat="43.79423" lon="7.04222">
        <ele>1013.4000244141</ele>
        <time>2018-12-08T11:59:14.000Z</time>
      </trkpt>
      <trkpt lat="43.7943" lon="7.04214">
        <ele>1013.799987793</ele>
        <time>2018-12-08T11:59:18.000Z</time>
      </trkpt>
      <trkpt lat="43.79437" lon="7.04206">
        <ele>1014.4000244141</ele>
        <time>2018-12-08T11:59:22.000Z</time>
      </trkpt>
      <trkpt lat="43.79446" lon="7.04195">
        <ele>1015.200012207</ele>
        <time>2018-12-08T11:59:27.000Z</time>
      </trkpt>
      <trkpt lat="43.7945" lon="7.04189">
        <ele>1015.5999755859</ele>
        <time>2018-12-08T11:59:30.000Z</time>
      </trkpt>
      <trkpt lat="43.79455" lon="7.04179">
        <ele>1016</ele>
        <time>2018-12-08T11:59:34.000Z</time>
      </trkpt>
      <trkpt lat="43.79457" lon="7.04169">
        <ele>1016.5999755859</ele>
        <time>2018-12-08T11:59:37.000Z</time>
      </trkpt>
      <trkpt lat="43.79458" lon="7.04154">
        <ele>1017</ele>
        <time>2018-12-08T11:59:42.000Z</time>
      </trkpt>
      <trkpt lat="43.79459" lon="7.04146">
        <ele>1017.5999755859</ele>
        <time>2018-12-08T11:59:45.000Z</time>
      </trkpt>
      <trkpt lat="43.79458" lon="7.04138">
        <ele>1018</ele>
        <time>2018-12-08T11:59:48.000Z</time>
      </trkpt>
      <trkpt lat="43.79458" lon="7.04127">
        <ele>1018.799987793</ele>
        <time>2018-12-08T11:59:53.000Z</time>
      </trkpt>
      <trkpt lat="43.79457" lon="7.04125">
        <ele>1019</ele>
        <time>2018-12-08T11:59:55.000Z</time>
      </trkpt>
      <trkpt lat="43.79457" lon="7.04125">
        <ele>1019</ele>
        <time>2018-12-08T12:00:01.000Z</time>
      </trkpt>
      <trkpt lat="43.79457" lon="7.04126">
        <ele>1019.200012207</ele>
        <time>2018-12-08T12:00:12.000Z</time>
      </trkpt>
      <trkpt lat="43.79457" lon="7.04125">
        <ele>1019.200012207</ele>
        <time>2018-12-08T12:00:19.000Z</time>
      </trkpt>
      <trkpt lat="43.79458" lon="7.0412">
        <ele>1019.200012207</ele>
        <time>2018-12-08T12:00:25.000Z</time>
      </trkpt>
      <trkpt lat="43.79459" lon="7.0412">
        <ele>1019.200012207</ele>
        <time>2018-12-08T12:00:26.000Z</time>
      </trkpt>
      <trkpt lat="43.79459" lon="7.0412">
        <ele>1019.200012207</ele>
        <time>2018-12-08T12:00:29.000Z</time>
      </trkpt>
      <trkpt lat="43.79457" lon="7.04119">
        <ele>1019.200012207</ele>
        <time>2018-12-08T12:00:39.000Z</time>
      </trkpt>
      <trkpt lat="43.79457" lon="7.04123">
        <ele>1018.799987793</ele>
        <time>2018-12-08T12:00:44.000Z</time>
      </trkpt>
      <trkpt lat="43.79457" lon="7.04124">
        <ele>1018.799987793</ele>
        <time>2018-12-08T12:00:45.000Z</time>
      </trkpt>
      <trkpt lat="43.79456" lon="7.04128">
        <ele>1018.5999755859</ele>
        <time>2018-12-08T12:00:52.000Z</time>
      </trkpt>
      <trkpt lat="43.79456" lon="7.04129">
        <ele>1018.200012207</ele>
        <time>2018-12-08T12:01:01.000Z</time>
      </trkpt>
      <trkpt lat="43.79455" lon="7.04131">
        <ele>1018</ele>
        <time>2018-12-08T12:01:11.000Z</time>
      </trkpt>
      <trkpt lat="43.79454" lon="7.04132">
        <ele>1018.4000244141</ele>
        <time>2018-12-08T12:01:19.000Z</time>
      </trkpt>
      <trkpt lat="43.79454" lon="7.04133">
        <ele>1018.5999755859</ele>
        <time>2018-12-08T12:01:29.000Z</time>
      </trkpt>
      <trkpt lat="43.79453" lon="7.04134">
        <ele>1018.200012207</ele>
        <time>2018-12-08T12:01:39.000Z</time>
      </trkpt>
      <trkpt lat="43.79453" lon="7.04134">
        <ele>1018.200012207</ele>
        <time>2018-12-08T12:01:50.000Z</time>
      </trkpt>
      <trkpt lat="43.79451" lon="7.04135">
        <ele>1018.4000244141</ele>
        <time>2018-12-08T12:02:06.000Z</time>
      </trkpt>
      <trkpt lat="43.7945" lon="7.04136">
        <ele>1018.4000244141</ele>
        <time>2018-12-08T12:02:19.000Z</time>
      </trkpt>
      <trkpt lat="43.79452" lon="7.04136">
        <ele>1018.5999755859</ele>
        <time>2018-12-08T12:02:30.000Z</time>
      </trkpt>
      <trkpt lat="43.79452" lon="7.04137">
        <ele>1018.4000244141</ele>
        <time>2018-12-08T12:02:40.000Z</time>
      </trkpt>
      <trkpt lat="43.79451" lon="7.04138">
        <ele>1018.200012207</ele>
        <time>2018-12-08T12:02:49.000Z</time>
      </trkpt>
      <trkpt lat="43.79451" lon="7.04138">
        <ele>1017.799987793</ele>
        <time>2018-12-08T12:02:58.000Z</time>
      </trkpt>
      <trkpt lat="43.7945" lon="7.04138">
        <ele>1017.799987793</ele>
        <time>2018-12-08T12:03:07.000Z</time>
      </trkpt>
      <trkpt lat="43.7945" lon="7.04139">
        <ele>1018</ele>
        <time>2018-12-08T12:03:21.000Z</time>
      </trkpt>
      <trkpt lat="43.79451" lon="7.04137">
        <ele>1017.799987793</ele>
        <time>2018-12-08T12:03:36.000Z</time>
      </trkpt>
      <trkpt lat="43.79451" lon="7.04138">
        <ele>1018</ele>
        <time>2018-12-08T12:03:45.000Z</time>
      </trkpt>
      <trkpt lat="43.79452" lon="7.04138">
        <ele>1017.799987793</ele>
        <time>2018-12-08T12:03:54.000Z</time>
      </trkpt>
      <trkpt lat="43.79452" lon="7.04139">
        <ele>1017.5999755859</ele>
        <time>2018-12-08T12:04:04.000Z</time>
      </trkpt>
      <trkpt lat="43.79452" lon="7.04139">
        <ele>1017.5999755859</ele>
        <time>2018-12-08T12:04:06.000Z</time>
      </trkpt>
      <trkpt lat="43.7945" lon="7.04142">
        <ele>1017.5999755859</ele>
        <time>2018-12-08T12:04:16.000Z</time>
      </trkpt>
      <trkpt lat="43.7945" lon="7.04141">
        <ele>1017.5999755859</ele>
        <time>2018-12-08T12:04:30.000Z</time>
      </trkpt>
      <trkpt lat="43.7945" lon="7.0414">
        <ele>1018</ele>
        <time>2018-12-08T12:04:38.000Z</time>
      </trkpt>
      <trkpt lat="43.79447" lon="7.04139">
        <ele>1018</ele>
        <time>2018-12-08T12:04:45.000Z</time>
      </trkpt>
      <trkpt lat="43.79445" lon="7.04135">
        <ele>1018</ele>
        <time>2018-12-08T12:04:59.000Z</time>
      </trkpt>
      <trkpt lat="43.79445" lon="7.04134">
        <ele>1017.799987793</ele>
        <time>2018-12-08T12:05:08.000Z</time>
      </trkpt>
      <trkpt lat="43.79447" lon="7.04134">
        <ele>1018</ele>
        <time>2018-12-08T12:05:17.000Z</time>
      </trkpt>
      <trkpt lat="43.79449" lon="7.04132">
        <ele>1018.200012207</ele>
        <time>2018-12-08T12:05:28.000Z</time>
      </trkpt>
      <trkpt lat="43.79448" lon="7.04132">
        <ele>1018</ele>
        <time>2018-12-08T12:05:36.000Z</time>
      </trkpt>
      <trkpt lat="43.79449" lon="7.04133">
        <ele>1017.799987793</ele>
        <time>2018-12-08T12:05:41.000Z</time>
      </trkpt>
      <trkpt lat="43.79451" lon="7.04134">
        <ele>1017.799987793</ele>
        <time>2018-12-08T12:05:51.000Z</time>
      </trkpt>
      <trkpt lat="43.7945" lon="7.04134">
        <ele>1017.799987793</ele>
        <time>2018-12-08T12:05:58.000Z</time>
      </trkpt>
      <trkpt lat="43.79451" lon="7.04135">
        <ele>1017.799987793</ele>
        <time>2018-12-08T12:06:11.000Z</time>
      </trkpt>
      <trkpt lat="43.79451" lon="7.04135">
        <ele>1017.799987793</ele>
        <time>2018-12-08T12:06:26.000Z</time>
      </trkpt>
      <trkpt lat="43.79453" lon="7.04134">
        <ele>1017.799987793</ele>
        <time>2018-12-08T12:06:33.000Z</time>
      </trkpt>
      <trkpt lat="43.79452" lon="7.04134">
        <ele>1017.799987793</ele>
        <time>2018-12-08T12:06:38.000Z</time>
      </trkpt>
      <trkpt lat="43.7945" lon="7.04135">
        <ele>1017.799987793</ele>
        <time>2018-12-08T12:06:47.000Z</time>
      </trkpt>
      <trkpt lat="43.7945" lon="7.04134">
        <ele>1017.4000244141</ele>
        <time>2018-12-08T12:07:00.000Z</time>
      </trkpt>
      <trkpt lat="43.79449" lon="7.04136">
        <ele>1017.799987793</ele>
        <time>2018-12-08T12:07:12.000Z</time>
      </trkpt>
      <trkpt lat="43.79447" lon="7.04137">
        <ele>1017.4000244141</ele>
        <time>2018-12-08T12:07:29.000Z</time>
      </trkpt>
      <trkpt lat="43.79447" lon="7.04138">
        <ele>1017.200012207</ele>
        <time>2018-12-08T12:07:45.000Z</time>
      </trkpt>
      <trkpt lat="43.79447" lon="7.04139">
        <ele>1017.4000244141</ele>
        <time>2018-12-08T12:07:59.000Z</time>
      </trkpt>
      <trkpt lat="43.79446" lon="7.04139">
        <ele>1017.4000244141</ele>
        <time>2018-12-08T12:08:11.000Z</time>
      </trkpt>
      <trkpt lat="43.79447" lon="7.04138">
        <ele>1016.799987793</ele>
        <time>2018-12-08T12:08:29.000Z</time>
      </trkpt>
      <trkpt lat="43.79448" lon="7.04138">
        <ele>1017.200012207</ele>
        <time>2018-12-08T12:08:45.000Z</time>
      </trkpt>
      <trkpt lat="43.79448" lon="7.04137">
        <ele>1016.799987793</ele>
        <time>2018-12-08T12:08:59.000Z</time>
      </trkpt>
      <trkpt lat="43.79449" lon="7.04138">
        <ele>1016.799987793</ele>
        <time>2018-12-08T12:09:08.000Z</time>
      </trkpt>
      <trkpt lat="43.79449" lon="7.04138">
        <ele>1016.5999755859</ele>
        <time>2018-12-08T12:09:11.000Z</time>
      </trkpt>
      <trkpt lat="43.79451" lon="7.04137">
        <ele>1016.5999755859</ele>
        <time>2018-12-08T12:09:30.000Z</time>
      </trkpt>
      <trkpt lat="43.79452" lon="7.04137">
        <ele>1016.4000244141</ele>
        <time>2018-12-08T12:09:50.000Z</time>
      </trkpt>
      <trkpt lat="43.79452" lon="7.04136">
        <ele>1016.799987793</ele>
        <time>2018-12-08T12:09:59.000Z</time>
      </trkpt>
      <trkpt lat="43.79452" lon="7.04137">
        <ele>1016.5999755859</ele>
        <time>2018-12-08T12:10:08.000Z</time>
      </trkpt>
      <trkpt lat="43.79452" lon="7.04137">
        <ele>1016.4000244141</ele>
        <time>2018-12-08T12:10:28.000Z</time>
      </trkpt>
      <trkpt lat="43.79452" lon="7.04138">
        <ele>1016.4000244141</ele>
        <time>2018-12-08T12:10:37.000Z</time>
      </trkpt>
      <trkpt lat="43.79452" lon="7.04138">
        <ele>1016.4000244141</ele>
        <time>2018-12-08T12:10:55.000Z</time>
      </trkpt>
      <trkpt lat="43.79453" lon="7.04138">
        <ele>1016.200012207</ele>
        <time>2018-12-08T12:11:07.000Z</time>
      </trkpt>
      <trkpt lat="43.79453" lon="7.04138">
        <ele>1016</ele>
        <time>2018-12-08T12:11:21.000Z</time>
      </trkpt>
      <trkpt lat="43.79452" lon="7.04139">
        <ele>1015.799987793</ele>
        <time>2018-12-08T12:11:45.000Z</time>
      </trkpt>
      <trkpt lat="43.79452" lon="7.0414">
        <ele>1015.5999755859</ele>
        <time>2018-12-08T12:11:57.000Z</time>
      </trkpt>
      <trkpt lat="43.79451" lon="7.0414">
        <ele>1015.799987793</ele>
        <time>2018-12-08T12:12:05.000Z</time>
      </trkpt>
      <trkpt lat="43.79451" lon="7.04141">
        <ele>1015.5999755859</ele>
        <time>2018-12-08T12:12:16.000Z</time>
      </trkpt>
      <trkpt lat="43.7945" lon="7.04142">
        <ele>1015.799987793</ele>
        <time>2018-12-08T12:12:35.000Z</time>
      </trkpt>
      <trkpt lat="43.79449" lon="7.04142">
        <ele>1015.799987793</ele>
        <time>2018-12-08T12:12:54.000Z</time>
      </trkpt>
      <trkpt lat="43.7945" lon="7.04141">
        <ele>1015.5999755859</ele>
        <time>2018-12-08T12:13:08.000Z</time>
      </trkpt>
      <trkpt lat="43.79451" lon="7.04141">
        <ele>1015.5999755859</ele>
        <time>2018-12-08T12:13:23.000Z</time>
      </trkpt>
      <trkpt lat="43.79451" lon="7.04141">
        <ele>1015.5999755859</ele>
        <time>2018-12-08T12:13:39.000Z</time>
      </trkpt>
      <trkpt lat="43.79451" lon="7.04141">
        <ele>1015.5999755859</ele>
        <time>2018-12-08T12:13:54.000Z</time>
      </trkpt>
      <trkpt lat="43.7945" lon="7.04141">
        <ele>1015.5999755859</ele>
        <time>2018-12-08T12:14:10.000Z</time>
      </trkpt>
      <trkpt lat="43.79449" lon="7.04141">
        <ele>1015.5999755859</ele>
        <time>2018-12-08T12:14:28.000Z</time>
      </trkpt>
      <trkpt lat="43.7945" lon="7.04142">
        <ele>1015.4000244141</ele>
        <time>2018-12-08T12:14:41.000Z</time>
      </trkpt>
      <trkpt lat="43.7945" lon="7.04143">
        <ele>1015.4000244141</ele>
        <time>2018-12-08T12:14:58.000Z</time>
      </trkpt>
      <trkpt lat="43.79449" lon="7.04143">
        <ele>1015.5999755859</ele>
        <time>2018-12-08T12:15:13.000Z</time>
      </trkpt>
      <trkpt lat="43.7945" lon="7.04143">
        <ele>1015.799987793</ele>
        <time>2018-12-08T12:15:20.000Z</time>
      </trkpt>
      <trkpt lat="43.7945" lon="7.04142">
        <ele>1016</ele>
        <time>2018-12-08T12:15:36.000Z</time>
      </trkpt>
      <trkpt lat="43.79449" lon="7.04143">
        <ele>1015.799987793</ele>
        <time>2018-12-08T12:15:48.000Z</time>
      </trkpt>
      <trkpt lat="43.79446" lon="7.04145">
        <ele>1015.799987793</ele>
        <time>2018-12-08T12:16:01.000Z</time>
      </trkpt>
      <trkpt lat="43.79447" lon="7.04144">
        <ele>1016</ele>
        <time>2018-12-08T12:16:12.000Z</time>
      </trkpt>
      <trkpt lat="43.79448" lon="7.04144">
        <ele>1016.4000244141</ele>
        <time>2018-12-08T12:16:22.000Z</time>
      </trkpt>
      <trkpt lat="43.79449" lon="7.04142">
        <ele>1016.4000244141</ele>
        <time>2018-12-08T12:16:35.000Z</time>
      </trkpt>
      <trkpt lat="43.7945" lon="7.04141">
        <ele>1016.4000244141</ele>
        <time>2018-12-08T12:16:48.000Z</time>
      </trkpt>
      <trkpt lat="43.7945" lon="7.04141">
        <ele>1016.799987793</ele>
        <time>2018-12-08T12:16:52.000Z</time>
      </trkpt>
      <trkpt lat="43.79449" lon="7.04141">
        <ele>1016.5999755859</ele>
        <time>2018-12-08T12:16:58.000Z</time>
      </trkpt>
      <trkpt lat="43.79449" lon="7.04141">
        <ele>1016.5999755859</ele>
        <time>2018-12-08T12:17:09.000Z</time>
      </trkpt>
      <trkpt lat="43.79448" lon="7.04142">
        <ele>1016.5999755859</ele>
        <time>2018-12-08T12:17:18.000Z</time>
      </trkpt>
      <trkpt lat="43.79448" lon="7.04142">
        <ele>1017</ele>
        <time>2018-12-08T12:17:27.000Z</time>
      </trkpt>
      <trkpt lat="43.79447" lon="7.04145">
        <ele>1016.799987793</ele>
        <time>2018-12-08T12:17:44.000Z</time>
      </trkpt>
      <trkpt lat="43.79447" lon="7.04144">
        <ele>1016.5999755859</ele>
        <time>2018-12-08T12:17:55.000Z</time>
      </trkpt>
      <trkpt lat="43.79446" lon="7.04141">
        <ele>1017.200012207</ele>
        <time>2018-12-08T12:18:01.000Z</time>
      </trkpt>
      <trkpt lat="43.79448" lon="7.04141">
        <ele>1017.4000244141</ele>
        <time>2018-12-08T12:18:09.000Z</time>
      </trkpt>
      <trkpt lat="43.79449" lon="7.04142">
        <ele>1017.5999755859</ele>
        <time>2018-12-08T12:18:17.000Z</time>
      </trkpt>
      <trkpt lat="43.7945" lon="7.04142">
        <ele>1016.799987793</ele>
        <time>2018-12-08T12:18:26.000Z</time>
      </trkpt>
      <trkpt lat="43.7945" lon="7.04141">
        <ele>1016.799987793</ele>
        <time>2018-12-08T12:18:48.000Z</time>
      </trkpt>
      <trkpt lat="43.7945" lon="7.04141">
        <ele>1016.799987793</ele>
        <time>2018-12-08T12:19:15.000Z</time>
      </trkpt>
      <trkpt lat="43.79449" lon="7.04142">
        <ele>1016.799987793</ele>
        <time>2018-12-08T12:19:37.000Z</time>
      </trkpt>
      <trkpt lat="43.79448" lon="7.04143">
        <ele>1016.5999755859</ele>
        <time>2018-12-08T12:19:53.000Z</time>
      </trkpt>
      <trkpt lat="43.79448" lon="7.04142">
        <ele>1017</ele>
        <time>2018-12-08T12:20:04.000Z</time>
      </trkpt>
      <trkpt lat="43.79447" lon="7.04142">
        <ele>1016.5999755859</ele>
        <time>2018-12-08T12:20:17.000Z</time>
      </trkpt>
      <trkpt lat="43.79448" lon="7.04141">
        <ele>1016.4000244141</ele>
        <time>2018-12-08T12:20:28.000Z</time>
      </trkpt>
      <trkpt lat="43.79447" lon="7.04141">
        <ele>1016.5999755859</ele>
        <time>2018-12-08T12:20:38.000Z</time>
      </trkpt>
      <trkpt lat="43.79446" lon="7.04141">
        <ele>1016.5999755859</ele>
        <time>2018-12-08T12:20:46.000Z</time>
      </trkpt>
      <trkpt lat="43.79447" lon="7.04141">
        <ele>1016.799987793</ele>
        <time>2018-12-08T12:20:57.000Z</time>
      </trkpt>
      <trkpt lat="43.79447" lon="7.04141">
        <ele>1016.4000244141</ele>
        <time>2018-12-08T12:21:10.000Z</time>
      </trkpt>
      <trkpt lat="43.79446" lon="7.0414">
        <ele>1016.5999755859</ele>
        <time>2018-12-08T12:21:18.000Z</time>
      </trkpt>
      <trkpt lat="43.79446" lon="7.0414">
        <ele>1017</ele>
        <time>2018-12-08T12:21:24.000Z</time>
      </trkpt>
      <trkpt lat="43.79446" lon="7.04139">
        <ele>1017.200012207</ele>
        <time>2018-12-08T12:21:35.000Z</time>
      </trkpt>
      <trkpt lat="43.79447" lon="7.04138">
        <ele>1017.4000244141</ele>
        <time>2018-12-08T12:21:49.000Z</time>
      </trkpt>
      <trkpt lat="43.79447" lon="7.04139">
        <ele>1017.4000244141</ele>
        <time>2018-12-08T12:21:59.000Z</time>
      </trkpt>
      <trkpt lat="43.79449" lon="7.04138">
        <ele>1017.200012207</ele>
        <time>2018-12-08T12:22:08.000Z</time>
      </trkpt>
      <trkpt lat="43.79448" lon="7.04137">
        <ele>1017.200012207</ele>
        <time>2018-12-08T12:22:16.000Z</time>
      </trkpt>
      <trkpt lat="43.79448" lon="7.04136">
        <ele>1017</ele>
        <time>2018-12-08T12:22:22.000Z</time>
      </trkpt>
      <trkpt lat="43.79447" lon="7.0414">
        <ele>1017</ele>
        <time>2018-12-08T12:22:24.000Z</time>
      </trkpt>
      <trkpt lat="43.79448" lon="7.04138">
        <ele>1017</ele>
        <time>2018-12-08T12:22:25.000Z</time>
      </trkpt>
      <trkpt lat="43.79446" lon="7.04141">
        <ele>1017.200012207</ele>
        <time>2018-12-08T12:22:34.000Z</time>
      </trkpt>
      <trkpt lat="43.79448" lon="7.04139">
        <ele>1017.200012207</ele>
        <time>2018-12-08T12:22:44.000Z</time>
      </trkpt>
      <trkpt lat="43.79448" lon="7.04138">
        <ele>1017.4000244141</ele>
        <time>2018-12-08T12:22:53.000Z</time>
      </trkpt>
      <trkpt lat="43.79446" lon="7.04141">
        <ele>1017.200012207</ele>
        <time>2018-12-08T12:23:05.000Z</time>
      </trkpt>
      <trkpt lat="43.79447" lon="7.04142">
        <ele>1017.200012207</ele>
        <time>2018-12-08T12:23:15.000Z</time>
      </trkpt>
      <trkpt lat="43.79445" lon="7.04141">
        <ele>1017</ele>
        <time>2018-12-08T12:23:24.000Z</time>
      </trkpt>
      <trkpt lat="43.79445" lon="7.04141">
        <ele>1017</ele>
        <time>2018-12-08T12:23:31.000Z</time>
      </trkpt>
      <trkpt lat="43.79446" lon="7.04141">
        <ele>1017</ele>
        <time>2018-12-08T12:23:40.000Z</time>
      </trkpt>
      <trkpt lat="43.79445" lon="7.04143">
        <ele>1017</ele>
        <time>2018-12-08T12:23:48.000Z</time>
      </trkpt>
      <trkpt lat="43.79444" lon="7.04143">
        <ele>1017.4000244141</ele>
        <time>2018-12-08T12:23:55.000Z</time>
      </trkpt>
      <trkpt lat="43.79443" lon="7.04142">
        <ele>1017.4000244141</ele>
        <time>2018-12-08T12:24:06.000Z</time>
      </trkpt>
      <trkpt lat="43.79444" lon="7.04143">
        <ele>1017.4000244141</ele>
        <time>2018-12-08T12:24:13.000Z</time>
      </trkpt>
      <trkpt lat="43.79444" lon="7.04144">
        <ele>1017.4000244141</ele>
        <time>2018-12-08T12:24:24.000Z</time>
      </trkpt>
      <trkpt lat="43.79445" lon="7.04143">
        <ele>1017.4000244141</ele>
        <time>2018-12-08T12:24:31.000Z</time>
      </trkpt>
      <trkpt lat="43.79445" lon="7.04143">
        <ele>1017.4000244141</ele>
        <time>2018-12-08T12:24:38.000Z</time>
      </trkpt>
      <trkpt lat="43.79445" lon="7.04142">
        <ele>1017.200012207</ele>
        <time>2018-12-08T12:24:46.000Z</time>
      </trkpt>
      <trkpt lat="43.79446" lon="7.04141">
        <ele>1017.5999755859</ele>
        <time>2018-12-08T12:24:52.000Z</time>
      </trkpt>
      <trkpt lat="43.79447" lon="7.04138">
        <ele>1017.200012207</ele>
        <time>2018-12-08T12:25:02.000Z</time>
      </trkpt>
      <trkpt lat="43.79448" lon="7.04137">
        <ele>1017</ele>
        <time>2018-12-08T12:25:10.000Z</time>
      </trkpt>
      <trkpt lat="43.79448" lon="7.04135">
        <ele>1016.799987793</ele>
        <time>2018-12-08T12:25:16.000Z</time>
      </trkpt>
      <trkpt lat="43.79448" lon="7.04134">
        <ele>1017.200012207</ele>
        <time>2018-12-08T12:25:22.000Z</time>
      </trkpt>
      <trkpt lat="43.7945" lon="7.04134">
        <ele>1017</ele>
        <time>2018-12-08T12:25:30.000Z</time>
      </trkpt>
      <trkpt lat="43.7945" lon="7.04134">
        <ele>1017.200012207</ele>
        <time>2018-12-08T12:25:37.000Z</time>
      </trkpt>
      <trkpt lat="43.7945" lon="7.04135">
        <ele>1017.4000244141</ele>
        <time>2018-12-08T12:25:46.000Z</time>
      </trkpt>
      <trkpt lat="43.7945" lon="7.04135">
        <ele>1017.4000244141</ele>
        <time>2018-12-08T12:25:51.000Z</time>
      </trkpt>
      <trkpt lat="43.7945" lon="7.04135">
        <ele>1017.200012207</ele>
        <time>2018-12-08T12:25:59.000Z</time>
      </trkpt>
      <trkpt lat="43.79451" lon="7.04135">
        <ele>1017.200012207</ele>
        <time>2018-12-08T12:26:00.000Z</time>
      </trkpt>
      <trkpt lat="43.79451" lon="7.04136">
        <ele>1017.4000244141</ele>
        <time>2018-12-08T12:26:03.000Z</time>
      </trkpt>
      <trkpt lat="43.79451" lon="7.04135">
        <ele>1017.200012207</ele>
        <time>2018-12-08T12:26:08.000Z</time>
      </trkpt>
      <trkpt lat="43.79451" lon="7.04135">
        <ele>1017.200012207</ele>
        <time>2018-12-08T12:26:14.000Z</time>
      </trkpt>
      <trkpt lat="43.79449" lon="7.04134">
        <ele>1017</ele>
        <time>2018-12-08T12:26:17.000Z</time>
      </trkpt>
      <trkpt lat="43.7945" lon="7.04134">
        <ele>1016.799987793</ele>
        <time>2018-12-08T12:26:19.000Z</time>
      </trkpt>
      <trkpt lat="43.79448" lon="7.04137">
        <ele>1017</ele>
        <time>2018-12-08T12:26:28.000Z</time>
      </trkpt>
      <trkpt lat="43.79449" lon="7.04136">
        <ele>1017.4000244141</ele>
        <time>2018-12-08T12:26:40.000Z</time>
      </trkpt>
      <trkpt lat="43.79448" lon="7.04137">
        <ele>1017.4000244141</ele>
        <time>2018-12-08T12:26:51.000Z</time>
      </trkpt>
      <trkpt lat="43.79448" lon="7.04137">
        <ele>1017.5999755859</ele>
        <time>2018-12-08T12:26:58.000Z</time>
      </trkpt>
      <trkpt lat="43.79449" lon="7.04137">
        <ele>1017.200012207</ele>
        <time>2018-12-08T12:27:08.000Z</time>
      </trkpt>
      <trkpt lat="43.79448" lon="7.04139">
        <ele>1016.799987793</ele>
        <time>2018-12-08T12:27:18.000Z</time>
      </trkpt>
      <trkpt lat="43.79447" lon="7.0414">
        <ele>1016.799987793</ele>
        <time>2018-12-08T12:27:25.000Z</time>
      </trkpt>
      <trkpt lat="43.79447" lon="7.04142">
        <ele>1017</ele>
        <time>2018-12-08T12:27:36.000Z</time>
      </trkpt>
      <trkpt lat="43.79445" lon="7.04143">
        <ele>1017.200012207</ele>
        <time>2018-12-08T12:27:44.000Z</time>
      </trkpt>
      <trkpt lat="43.79445" lon="7.04143">
        <ele>1017.799987793</ele>
        <time>2018-12-08T12:27:48.000Z</time>
      </trkpt>
      <trkpt lat="43.79445" lon="7.04143">
        <ele>1017.5999755859</ele>
        <time>2018-12-08T12:27:54.000Z</time>
      </trkpt>
      <trkpt lat="43.79445" lon="7.04143">
        <ele>1017.5999755859</ele>
        <time>2018-12-08T12:28:02.000Z</time>
      </trkpt>
      <trkpt lat="43.79445" lon="7.04141">
        <ele>1017.4000244141</ele>
        <time>2018-12-08T12:28:10.000Z</time>
      </trkpt>
      <trkpt lat="43.79444" lon="7.04142">
        <ele>1017.4000244141</ele>
        <time>2018-12-08T12:28:15.000Z</time>
      </trkpt>
      <trkpt lat="43.79444" lon="7.04139">
        <ele>1017.4000244141</ele>
        <time>2018-12-08T12:28:23.000Z</time>
      </trkpt>
      <trkpt lat="43.79444" lon="7.04137">
        <ele>1017.5999755859</ele>
        <time>2018-12-08T12:28:33.000Z</time>
      </trkpt>
      <trkpt lat="43.79444" lon="7.04135">
        <ele>1017.5999755859</ele>
        <time>2018-12-08T12:28:43.000Z</time>
      </trkpt>
      <trkpt lat="43.79445" lon="7.04132">
        <ele>1017.5999755859</ele>
        <time>2018-12-08T12:28:53.000Z</time>
      </trkpt>
      <trkpt lat="43.79446" lon="7.04129">
        <ele>1017.5999755859</ele>
        <time>2018-12-08T12:29:05.000Z</time>
      </trkpt>
      <trkpt lat="43.79447" lon="7.04128">
        <ele>1017.5999755859</ele>
        <time>2018-12-08T12:29:14.000Z</time>
      </trkpt>
      <trkpt lat="43.79448" lon="7.04127">
        <ele>1017.799987793</ele>
        <time>2018-12-08T12:29:25.000Z</time>
      </trkpt>
      <trkpt lat="43.79448" lon="7.04128">
        <ele>1017.799987793</ele>
        <time>2018-12-08T12:29:33.000Z</time>
      </trkpt>
      <trkpt lat="43.79449" lon="7.04128">
        <ele>1017.5999755859</ele>
        <time>2018-12-08T12:29:47.000Z</time>
      </trkpt>
      <trkpt lat="43.79449" lon="7.04126">
        <ele>1017.799987793</ele>
        <time>2018-12-08T12:29:54.000Z</time>
      </trkpt>
      <trkpt lat="43.79449" lon="7.04123">
        <ele>1018</ele>
        <time>2018-12-08T12:30:00.000Z</time>
      </trkpt>
      <trkpt lat="43.79449" lon="7.04123">
        <ele>1018.200012207</ele>
        <time>2018-12-08T12:30:06.000Z</time>
      </trkpt>
      <trkpt lat="43.79449" lon="7.04122">
        <ele>1018.799987793</ele>
        <time>2018-12-08T12:30:12.000Z</time>
      </trkpt>
      <trkpt lat="43.79449" lon="7.04122">
        <ele>1018.799987793</ele>
        <time>2018-12-08T12:30:14.000Z</time>
      </trkpt>
      <trkpt lat="43.79449" lon="7.04119">
        <ele>1018.799987793</ele>
        <time>2018-12-08T12:30:20.000Z</time>
      </trkpt>
      <trkpt lat="43.79448" lon="7.0412">
        <ele>1018.799987793</ele>
        <time>2018-12-08T12:30:28.000Z</time>
      </trkpt>
      <trkpt lat="43.79447" lon="7.0412">
        <ele>1018.200012207</ele>
        <time>2018-12-08T12:30:42.000Z</time>
      </trkpt>
      <trkpt lat="43.79449" lon="7.0412">
        <ele>1018.799987793</ele>
        <time>2018-12-08T12:30:57.000Z</time>
      </trkpt>
      <trkpt lat="43.79449" lon="7.0412">
        <ele>1018.799987793</ele>
        <time>2018-12-08T12:31:13.000Z</time>
      </trkpt>
      <trkpt lat="43.7945" lon="7.04119">
        <ele>1018.4000244141</ele>
        <time>2018-12-08T12:31:28.000Z</time>
      </trkpt>
      <trkpt lat="43.79453" lon="7.04117">
        <ele>1018.5999755859</ele>
        <time>2018-12-08T12:31:48.000Z</time>
      </trkpt>
      <trkpt lat="43.79454" lon="7.04118">
        <ele>1018.4000244141</ele>
        <time>2018-12-08T12:32:00.000Z</time>
      </trkpt>
      <trkpt lat="43.79454" lon="7.04118">
        <ele>1018.5999755859</ele>
        <time>2018-12-08T12:32:07.000Z</time>
      </trkpt>
      <trkpt lat="43.79456" lon="7.04118">
        <ele>1018.4000244141</ele>
        <time>2018-12-08T12:32:28.000Z</time>
      </trkpt>
      <trkpt lat="43.79456" lon="7.04119">
        <ele>1018.4000244141</ele>
        <time>2018-12-08T12:32:49.000Z</time>
      </trkpt>
      <trkpt lat="43.79457" lon="7.0412">
        <ele>1018.4000244141</ele>
        <time>2018-12-08T12:33:06.000Z</time>
      </trkpt>
      <trkpt lat="43.79458" lon="7.04123">
        <ele>1018.4000244141</ele>
        <time>2018-12-08T12:33:23.000Z</time>
      </trkpt>
      <trkpt lat="43.79458" lon="7.04124">
        <ele>1018.4000244141</ele>
        <time>2018-12-08T12:33:24.000Z</time>
      </trkpt>
      <trkpt lat="43.79458" lon="7.04139">
        <ele>1018.200012207</ele>
        <time>2018-12-08T12:33:28.000Z</time>
      </trkpt>
      <trkpt lat="43.79458" lon="7.04143">
        <ele>1018</ele>
        <time>2018-12-08T12:33:29.000Z</time>
      </trkpt>
      <trkpt lat="43.79458" lon="7.04154">
        <ele>1017.799987793</ele>
        <time>2018-12-08T12:33:31.000Z</time>
      </trkpt>
      <trkpt lat="43.79458" lon="7.04162">
        <ele>1017.5999755859</ele>
        <time>2018-12-08T12:33:32.000Z</time>
      </trkpt>
      <trkpt lat="43.79456" lon="7.04169">
        <ele>1017.4000244141</ele>
        <time>2018-12-08T12:33:33.000Z</time>
      </trkpt>
      <trkpt lat="43.79446" lon="7.04189">
        <ele>1016.5999755859</ele>
        <time>2018-12-08T12:33:36.000Z</time>
      </trkpt>
      <trkpt lat="43.79441" lon="7.04195">
        <ele>1016.200012207</ele>
        <time>2018-12-08T12:33:37.000Z</time>
      </trkpt>
      <trkpt lat="43.79431" lon="7.04207">
        <ele>1015.200012207</ele>
        <time>2018-12-08T12:33:39.000Z</time>
      </trkpt>
      <trkpt lat="43.79422" lon="7.04218">
        <ele>1014.200012207</ele>
        <time>2018-12-08T12:33:41.000Z</time>
      </trkpt>
      <trkpt lat="43.79417" lon="7.04224">
        <ele>1013.5999755859</ele>
        <time>2018-12-08T12:33:42.000Z</time>
      </trkpt>
      <trkpt lat="43.79412" lon="7.04229">
        <ele>1013.200012207</ele>
        <time>2018-12-08T12:33:43.000Z</time>
      </trkpt>
      <trkpt lat="43.79398" lon="7.04246">
        <ele>1012</ele>
        <time>2018-12-08T12:33:46.000Z</time>
      </trkpt>
      <trkpt lat="43.79382" lon="7.04264">
        <ele>1011</ele>
        <time>2018-12-08T12:33:49.000Z</time>
      </trkpt>
      <trkpt lat="43.79376" lon="7.04269">
        <ele>1010.799987793</ele>
        <time>2018-12-08T12:33:50.000Z</time>
      </trkpt>
      <trkpt lat="43.79361" lon="7.0429">
        <ele>1009.4000244141</ele>
        <time>2018-12-08T12:33:53.000Z</time>
      </trkpt>
      <trkpt lat="43.79353" lon="7.04309">
        <ele>1008.200012207</ele>
        <time>2018-12-08T12:33:55.000Z</time>
      </trkpt>
      <trkpt lat="43.79347" lon="7.04329">
        <ele>1006.799987793</ele>
        <time>2018-12-08T12:33:57.000Z</time>
      </trkpt>
      <trkpt lat="43.79345" lon="7.04338">
        <ele>1006</ele>
        <time>2018-12-08T12:33:58.000Z</time>
      </trkpt>
      <trkpt lat="43.79343" lon="7.04345">
        <ele>1005.200012207</ele>
        <time>2018-12-08T12:33:59.000Z</time>
      </trkpt>
      <trkpt lat="43.79339" lon="7.04354">
        <ele>1004.5999755859</ele>
        <time>2018-12-08T12:34:00.000Z</time>
      </trkpt>
      <trkpt lat="43.79334" lon="7.04363">
        <ele>1004</ele>
        <time>2018-12-08T12:34:01.000Z</time>
      </trkpt>
      <trkpt lat="43.79325" lon="7.04381">
        <ele>1002.799987793</ele>
        <time>2018-12-08T12:34:03.000Z</time>
      </trkpt>
      <trkpt lat="43.79316" lon="7.044">
        <ele>1001.5999755859</ele>
        <time>2018-12-08T12:34:05.000Z</time>
      </trkpt>
      <trkpt lat="43.7931" lon="7.04411">
        <ele>1001</ele>
        <time>2018-12-08T12:34:06.000Z</time>
      </trkpt>
      <trkpt lat="43.79304" lon="7.04422">
        <ele>1000.200012207</ele>
        <time>2018-12-08T12:34:07.000Z</time>
      </trkpt>
      <trkpt lat="43.79293" lon="7.04445">
        <ele>998.79998779297</ele>
        <time>2018-12-08T12:34:09.000Z</time>
      </trkpt>
      <trkpt lat="43.79287" lon="7.04457">
        <ele>997.79998779297</ele>
        <time>2018-12-08T12:34:10.000Z</time>
      </trkpt>
      <trkpt lat="43.79282" lon="7.04468">
        <ele>997</ele>
        <time>2018-12-08T12:34:11.000Z</time>
      </trkpt>
      <trkpt lat="43.79276" lon="7.04481">
        <ele>996.20001220703</ele>
        <time>2018-12-08T12:34:12.000Z</time>
      </trkpt>
      <trkpt lat="43.79271" lon="7.04492">
        <ele>995</ele>
        <time>2018-12-08T12:34:13.000Z</time>
      </trkpt>
      <trkpt lat="43.79267" lon="7.04502">
        <ele>993.59997558594</ele>
        <time>2018-12-08T12:34:14.000Z</time>
      </trkpt>
      <trkpt lat="43.79263" lon="7.04512">
        <ele>992.20001220703</ele>
        <time>2018-12-08T12:34:15.000Z</time>
      </trkpt>
      <trkpt lat="43.7926" lon="7.04522">
        <ele>990.79998779297</ele>
        <time>2018-12-08T12:34:16.000Z</time>
      </trkpt>
      <trkpt lat="43.79259" lon="7.04531">
        <ele>989.79998779297</ele>
        <time>2018-12-08T12:34:17.000Z</time>
      </trkpt>
      <trkpt lat="43.79257" lon="7.04541">
        <ele>989.20001220703</ele>
        <time>2018-12-08T12:34:19.000Z</time>
      </trkpt>
      <trkpt lat="43.79256" lon="7.04542">
        <ele>989.40002441406</ele>
        <time>2018-12-08T12:34:22.000Z</time>
      </trkpt>
      <trkpt lat="43.79256" lon="7.04541">
        <ele>990.20001220703</ele>
        <time>2018-12-08T12:34:29.000Z</time>
      </trkpt>
      <trkpt lat="43.79255" lon="7.0454">
        <ele>990.20001220703</ele>
        <time>2018-12-08T12:34:35.000Z</time>
      </trkpt>
      <trkpt lat="43.79254" lon="7.04539">
        <ele>990</ele>
        <time>2018-12-08T12:34:40.000Z</time>
      </trkpt>
      <trkpt lat="43.79253" lon="7.04538">
        <ele>990.20001220703</ele>
        <time>2018-12-08T12:34:42.000Z</time>
      </trkpt>
      <trkpt lat="43.7925" lon="7.04542">
        <ele>990.20001220703</ele>
        <time>2018-12-08T12:34:44.000Z</time>
      </trkpt>
      <trkpt lat="43.79248" lon="7.04551">
        <ele>989.59997558594</ele>
        <time>2018-12-08T12:34:46.000Z</time>
      </trkpt>
      <trkpt lat="43.79245" lon="7.04562">
        <ele>988.40002441406</ele>
        <time>2018-12-08T12:34:48.000Z</time>
      </trkpt>
      <trkpt lat="43.79246" lon="7.04573">
        <ele>987</ele>
        <time>2018-12-08T12:34:50.000Z</time>
      </trkpt>
      <trkpt lat="43.79245" lon="7.04584">
        <ele>985.59997558594</ele>
        <time>2018-12-08T12:34:52.000Z</time>
      </trkpt>
      <trkpt lat="43.79245" lon="7.04589">
        <ele>984.40002441406</ele>
        <time>2018-12-08T12:34:53.000Z</time>
      </trkpt>
      <trkpt lat="43.79243" lon="7.04598">
        <ele>982.79998779297</ele>
        <time>2018-12-08T12:34:55.000Z</time>
      </trkpt>
      <trkpt lat="43.79241" lon="7.04604">
        <ele>982.20001220703</ele>
        <time>2018-12-08T12:34:56.000Z</time>
      </trkpt>
      <trkpt lat="43.7924" lon="7.04611">
        <ele>981.40002441406</ele>
        <time>2018-12-08T12:34:57.000Z</time>
      </trkpt>
      <trkpt lat="43.79238" lon="7.04617">
        <ele>980.59997558594</ele>
        <time>2018-12-08T12:34:58.000Z</time>
      </trkpt>
      <trkpt lat="43.79236" lon="7.04622">
        <ele>980.20001220703</ele>
        <time>2018-12-08T12:34:59.000Z</time>
      </trkpt>
      <trkpt lat="43.79233" lon="7.04637">
        <ele>978.79998779297</ele>
        <time>2018-12-08T12:35:01.000Z</time>
      </trkpt>
      <trkpt lat="43.79231" lon="7.0465">
        <ele>977.40002441406</ele>
        <time>2018-12-08T12:35:03.000Z</time>
      </trkpt>
      <trkpt lat="43.79225" lon="7.04663">
        <ele>976.40002441406</ele>
        <time>2018-12-08T12:35:05.000Z</time>
      </trkpt>
      <trkpt lat="43.79222" lon="7.0467">
        <ele>976</ele>
        <time>2018-12-08T12:35:06.000Z</time>
      </trkpt>
      <trkpt lat="43.79213" lon="7.0469">
        <ele>974.79998779297</ele>
        <time>2018-12-08T12:35:09.000Z</time>
      </trkpt>
      <trkpt lat="43.79207" lon="7.04702">
        <ele>974</ele>
        <time>2018-12-08T12:35:11.000Z</time>
      </trkpt>
      <trkpt lat="43.79201" lon="7.04713">
        <ele>973.59997558594</ele>
        <time>2018-12-08T12:35:13.000Z</time>
      </trkpt>
      <trkpt lat="43.792" lon="7.0472">
        <ele>973.40002441406</ele>
        <time>2018-12-08T12:35:14.000Z</time>
      </trkpt>
      <trkpt lat="43.79197" lon="7.04734">
        <ele>973.20001220703</ele>
        <time>2018-12-08T12:35:16.000Z</time>
      </trkpt>
      <trkpt lat="43.79193" lon="7.04745">
        <ele>973.40002441406</ele>
        <time>2018-12-08T12:35:18.000Z</time>
      </trkpt>
      <trkpt lat="43.79189" lon="7.04754">
        <ele>973</ele>
        <time>2018-12-08T12:35:20.000Z</time>
      </trkpt>
      <trkpt lat="43.79187" lon="7.04763">
        <ele>972.59997558594</ele>
        <time>2018-12-08T12:35:23.000Z</time>
      </trkpt>
      <trkpt lat="43.79185" lon="7.04766">
        <ele>972.79998779297</ele>
        <time>2018-12-08T12:35:24.000Z</time>
      </trkpt>
      <trkpt lat="43.79171" lon="7.0478">
        <ele>972.79998779297</ele>
        <time>2018-12-08T12:35:29.000Z</time>
      </trkpt>
      <trkpt lat="43.79153" lon="7.04791">
        <ele>972.79998779297</ele>
        <time>2018-12-08T12:35:35.000Z</time>
      </trkpt>
      <trkpt lat="43.79137" lon="7.04788">
        <ele>972.79998779297</ele>
        <time>2018-12-08T12:35:39.000Z</time>
      </trkpt>
      <trkpt lat="43.79115" lon="7.04784">
        <ele>972.59997558594</ele>
        <time>2018-12-08T12:35:45.000Z</time>
      </trkpt>
      <trkpt lat="43.79104" lon="7.04781">
        <ele>972.59997558594</ele>
        <time>2018-12-08T12:35:49.000Z</time>
      </trkpt>
      <trkpt lat="43.791" lon="7.04776">
        <ele>972.40002441406</ele>
        <time>2018-12-08T12:35:51.000Z</time>
      </trkpt>
      <trkpt lat="43.79096" lon="7.04774">
        <ele>972.40002441406</ele>
        <time>2018-12-08T12:35:53.000Z</time>
      </trkpt>
      <trkpt lat="43.7909" lon="7.0477">
        <ele>972.79998779297</ele>
        <time>2018-12-08T12:35:56.000Z</time>
      </trkpt>
      <trkpt lat="43.79076" lon="7.04768">
        <ele>972.59997558594</ele>
        <time>2018-12-08T12:36:00.000Z</time>
      </trkpt>
      <trkpt lat="43.79072" lon="7.04768">
        <ele>972.20001220703</ele>
        <time>2018-12-08T12:36:01.000Z</time>
      </trkpt>
      <trkpt lat="43.79061" lon="7.04768">
        <ele>971.40002441406</ele>
        <time>2018-12-08T12:36:03.000Z</time>
      </trkpt>
      <trkpt lat="43.79051" lon="7.04766">
        <ele>970</ele>
        <time>2018-12-08T12:36:05.000Z</time>
      </trkpt>
      <trkpt lat="43.79044" lon="7.04767">
        <ele>969.59997558594</ele>
        <time>2018-12-08T12:36:06.000Z</time>
      </trkpt>
      <trkpt lat="43.79039" lon="7.04772">
        <ele>968.79998779297</ele>
        <time>2018-12-08T12:36:08.000Z</time>
      </trkpt>
      <trkpt lat="43.79038" lon="7.04777">
        <ele>968.40002441406</ele>
        <time>2018-12-08T12:36:09.000Z</time>
      </trkpt>
      <trkpt lat="43.79037" lon="7.04783">
        <ele>968.20001220703</ele>
        <time>2018-12-08T12:36:10.000Z</time>
      </trkpt>
      <trkpt lat="43.79037" lon="7.04788">
        <ele>967.40002441406</ele>
        <time>2018-12-08T12:36:11.000Z</time>
      </trkpt>
      <trkpt lat="43.79038" lon="7.04797">
        <ele>966.20001220703</ele>
        <time>2018-12-08T12:36:13.000Z</time>
      </trkpt>
      <trkpt lat="43.79035" lon="7.04805">
        <ele>965.20001220703</ele>
        <time>2018-12-08T12:36:15.000Z</time>
      </trkpt>
      <trkpt lat="43.79032" lon="7.04808">
        <ele>965</ele>
        <time>2018-12-08T12:36:16.000Z</time>
      </trkpt>
      <trkpt lat="43.79027" lon="7.04823">
        <ele>964</ele>
        <time>2018-12-08T12:36:19.000Z</time>
      </trkpt>
      <trkpt lat="43.79025" lon="7.0483">
        <ele>962.79998779297</ele>
        <time>2018-12-08T12:36:20.000Z</time>
      </trkpt>
      <trkpt lat="43.79021" lon="7.0484">
        <ele>960.40002441406</ele>
        <time>2018-12-08T12:36:22.000Z</time>
      </trkpt>
      <trkpt lat="43.79018" lon="7.04844">
        <ele>959</ele>
        <time>2018-12-08T12:36:23.000Z</time>
      </trkpt>
      <trkpt lat="43.79013" lon="7.04848">
        <ele>957.59997558594</ele>
        <time>2018-12-08T12:36:24.000Z</time>
      </trkpt>
      <trkpt lat="43.79003" lon="7.04852">
        <ele>955.40002441406</ele>
        <time>2018-12-08T12:36:26.000Z</time>
      </trkpt>
      <trkpt lat="43.78997" lon="7.04856">
        <ele>954.79998779297</ele>
        <time>2018-12-08T12:36:27.000Z</time>
      </trkpt>
      <trkpt lat="43.78992" lon="7.04862">
        <ele>953.59997558594</ele>
        <time>2018-12-08T12:36:28.000Z</time>
      </trkpt>
      <trkpt lat="43.78987" lon="7.04867">
        <ele>953.40002441406</ele>
        <time>2018-12-08T12:36:29.000Z</time>
      </trkpt>
      <trkpt lat="43.78982" lon="7.04875">
        <ele>952</ele>
        <time>2018-12-08T12:36:30.000Z</time>
      </trkpt>
      <trkpt lat="43.78977" lon="7.04882">
        <ele>951</ele>
        <time>2018-12-08T12:36:31.000Z</time>
      </trkpt>
      <trkpt lat="43.78973" lon="7.04888">
        <ele>949.59997558594</ele>
        <time>2018-12-08T12:36:32.000Z</time>
      </trkpt>
      <trkpt lat="43.78968" lon="7.04892">
        <ele>948</ele>
        <time>2018-12-08T12:36:33.000Z</time>
      </trkpt>
      <trkpt lat="43.78964" lon="7.04894">
        <ele>946.79998779297</ele>
        <time>2018-12-08T12:36:34.000Z</time>
      </trkpt>
      <trkpt lat="43.78959" lon="7.04896">
        <ele>946</ele>
        <time>2018-12-08T12:36:35.000Z</time>
      </trkpt>
      <trkpt lat="43.78954" lon="7.04896">
        <ele>945.20001220703</ele>
        <time>2018-12-08T12:36:36.000Z</time>
      </trkpt>
      <trkpt lat="43.78942" lon="7.04894">
        <ele>944.20001220703</ele>
        <time>2018-12-08T12:36:38.000Z</time>
      </trkpt>
      <trkpt lat="43.78936" lon="7.04894">
        <ele>943.40002441406</ele>
        <time>2018-12-08T12:36:39.000Z</time>
      </trkpt>
      <trkpt lat="43.7893" lon="7.04894">
        <ele>942.59997558594</ele>
        <time>2018-12-08T12:36:40.000Z</time>
      </trkpt>
      <trkpt lat="43.78924" lon="7.04895">
        <ele>942.40002441406</ele>
        <time>2018-12-08T12:36:41.000Z</time>
      </trkpt>
      <trkpt lat="43.78916" lon="7.04897">
        <ele>941.40002441406</ele>
        <time>2018-12-08T12:36:42.000Z</time>
      </trkpt>
      <trkpt lat="43.78902" lon="7.04901">
        <ele>939.59997558594</ele>
        <time>2018-12-08T12:36:44.000Z</time>
      </trkpt>
      <trkpt lat="43.78894" lon="7.04905">
        <ele>938</ele>
        <time>2018-12-08T12:36:45.000Z</time>
      </trkpt>
      <trkpt lat="43.78887" lon="7.04912">
        <ele>935.40002441406</ele>
        <time>2018-12-08T12:36:46.000Z</time>
      </trkpt>
      <trkpt lat="43.78881" lon="7.04919">
        <ele>933.40002441406</ele>
        <time>2018-12-08T12:36:47.000Z</time>
      </trkpt>
      <trkpt lat="43.78877" lon="7.04928">
        <ele>931.40002441406</ele>
        <time>2018-12-08T12:36:48.000Z</time>
      </trkpt>
      <trkpt lat="43.78873" lon="7.04937">
        <ele>929.79998779297</ele>
        <time>2018-12-08T12:36:49.000Z</time>
      </trkpt>
      <trkpt lat="43.78868" lon="7.04946">
        <ele>929.59997558594</ele>
        <time>2018-12-08T12:36:50.000Z</time>
      </trkpt>
      <trkpt lat="43.78864" lon="7.04954">
        <ele>929.59997558594</ele>
        <time>2018-12-08T12:36:51.000Z</time>
      </trkpt>
      <trkpt lat="43.78862" lon="7.04964">
        <ele>928.20001220703</ele>
        <time>2018-12-08T12:36:52.000Z</time>
      </trkpt>
      <trkpt lat="43.7886" lon="7.04971">
        <ele>927</ele>
        <time>2018-12-08T12:36:53.000Z</time>
      </trkpt>
      <trkpt lat="43.78858" lon="7.04977">
        <ele>926.20001220703</ele>
        <time>2018-12-08T12:36:54.000Z</time>
      </trkpt>
      <trkpt lat="43.78855" lon="7.04982">
        <ele>925.40002441406</ele>
        <time>2018-12-08T12:36:55.000Z</time>
      </trkpt>
      <trkpt lat="43.7885" lon="7.04987">
        <ele>924.59997558594</ele>
        <time>2018-12-08T12:36:56.000Z</time>
      </trkpt>
      <trkpt lat="43.78845" lon="7.04994">
        <ele>923.59997558594</ele>
        <time>2018-12-08T12:36:57.000Z</time>
      </trkpt>
      <trkpt lat="43.7884" lon="7.05001">
        <ele>922.59997558594</ele>
        <time>2018-12-08T12:36:58.000Z</time>
      </trkpt>
      <trkpt lat="43.78837" lon="7.05009">
        <ele>921.79998779297</ele>
        <time>2018-12-08T12:36:59.000Z</time>
      </trkpt>
      <trkpt lat="43.7883" lon="7.05019">
        <ele>920.79998779297</ele>
        <time>2018-12-08T12:37:00.000Z</time>
      </trkpt>
      <trkpt lat="43.78824" lon="7.05027">
        <ele>919.79998779297</ele>
        <time>2018-12-08T12:37:01.000Z</time>
      </trkpt>
      <trkpt lat="43.78811" lon="7.05041">
        <ele>917.40002441406</ele>
        <time>2018-12-08T12:37:03.000Z</time>
      </trkpt>
      <trkpt lat="43.78808" lon="7.05045">
        <ele>916.40002441406</ele>
        <time>2018-12-08T12:37:04.000Z</time>
      </trkpt>
      <trkpt lat="43.78805" lon="7.05051">
        <ele>915.20001220703</ele>
        <time>2018-12-08T12:37:05.000Z</time>
      </trkpt>
      <trkpt lat="43.78797" lon="7.05062">
        <ele>913.40002441406</ele>
        <time>2018-12-08T12:37:07.000Z</time>
      </trkpt>
      <trkpt lat="43.78792" lon="7.05076">
        <ele>912.20001220703</ele>
        <time>2018-12-08T12:37:09.000Z</time>
      </trkpt>
      <trkpt lat="43.78787" lon="7.05083">
        <ele>911.59997558594</ele>
        <time>2018-12-08T12:37:10.000Z</time>
      </trkpt>
      <trkpt lat="43.78781" lon="7.05088">
        <ele>911.20001220703</ele>
        <time>2018-12-08T12:37:11.000Z</time>
      </trkpt>
      <trkpt lat="43.78769" lon="7.05101">
        <ele>910</ele>
        <time>2018-12-08T12:37:13.000Z</time>
      </trkpt>
      <trkpt lat="43.78763" lon="7.05106">
        <ele>909.40002441406</ele>
        <time>2018-12-08T12:37:14.000Z</time>
      </trkpt>
      <trkpt lat="43.78757" lon="7.05112">
        <ele>909</ele>
        <time>2018-12-08T12:37:15.000Z</time>
      </trkpt>
      <trkpt lat="43.78747" lon="7.05123">
        <ele>908</ele>
        <time>2018-12-08T12:37:17.000Z</time>
      </trkpt>
      <trkpt lat="43.78741" lon="7.05125">
        <ele>907.59997558594</ele>
        <time>2018-12-08T12:37:18.000Z</time>
      </trkpt>
      <trkpt lat="43.78737" lon="7.05124">
        <ele>907.20001220703</ele>
        <time>2018-12-08T12:37:19.000Z</time>
      </trkpt>
      <trkpt lat="43.78732" lon="7.05122">
        <ele>906.79998779297</ele>
        <time>2018-12-08T12:37:20.000Z</time>
      </trkpt>
      <trkpt lat="43.78723" lon="7.05117">
        <ele>906.20001220703</ele>
        <time>2018-12-08T12:37:22.000Z</time>
      </trkpt>
      <trkpt lat="43.78719" lon="7.05114">
        <ele>906</ele>
        <time>2018-12-08T12:37:23.000Z</time>
      </trkpt>
      <trkpt lat="43.78714" lon="7.05113">
        <ele>905.59997558594</ele>
        <time>2018-12-08T12:37:24.000Z</time>
      </trkpt>
      <trkpt lat="43.78699" lon="7.05113">
        <ele>904.79998779297</ele>
        <time>2018-12-08T12:37:27.000Z</time>
      </trkpt>
      <trkpt lat="43.78689" lon="7.05111">
        <ele>904.40002441406</ele>
        <time>2018-12-08T12:37:29.000Z</time>
      </trkpt>
      <trkpt lat="43.78681" lon="7.0511">
        <ele>904</ele>
        <time>2018-12-08T12:37:31.000Z</time>
      </trkpt>
      <trkpt lat="43.78677" lon="7.0511">
        <ele>903.20001220703</ele>
        <time>2018-12-08T12:37:33.000Z</time>
      </trkpt>
      <trkpt lat="43.78672" lon="7.0511">
        <ele>902.59997558594</ele>
        <time>2018-12-08T12:37:35.000Z</time>
      </trkpt>
      <trkpt lat="43.7867" lon="7.05109">
        <ele>902.20001220703</ele>
        <time>2018-12-08T12:37:37.000Z</time>
      </trkpt>
      <trkpt lat="43.78669" lon="7.05109">
        <ele>901.59997558594</ele>
        <time>2018-12-08T12:37:39.000Z</time>
      </trkpt>
      <trkpt lat="43.78666" lon="7.05108">
        <ele>901.20001220703</ele>
        <time>2018-12-08T12:37:42.000Z</time>
      </trkpt>
      <trkpt lat="43.78664" lon="7.05108">
        <ele>901</ele>
        <time>2018-12-08T12:37:43.000Z</time>
      </trkpt>
      <trkpt lat="43.78663" lon="7.05108">
        <ele>900.79998779297</ele>
        <time>2018-12-08T12:37:44.000Z</time>
      </trkpt>
      <trkpt lat="43.7865" lon="7.05109">
        <ele>900.59997558594</ele>
        <time>2018-12-08T12:37:50.000Z</time>
      </trkpt>
      <trkpt lat="43.78637" lon="7.0511">
        <ele>900</ele>
        <time>2018-12-08T12:37:54.000Z</time>
      </trkpt>
      <trkpt lat="43.7863" lon="7.05112">
        <ele>899.59997558594</ele>
        <time>2018-12-08T12:37:56.000Z</time>
      </trkpt>
      <trkpt lat="43.78623" lon="7.05111">
        <ele>899</ele>
        <time>2018-12-08T12:37:58.000Z</time>
      </trkpt>
      <trkpt lat="43.78608" lon="7.0511">
        <ele>899</ele>
        <time>2018-12-08T12:38:02.000Z</time>
      </trkpt>
      <trkpt lat="43.78588" lon="7.05117">
        <ele>899.20001220703</ele>
        <time>2018-12-08T12:38:08.000Z</time>
      </trkpt>
      <trkpt lat="43.7858" lon="7.05132">
        <ele>900</ele>
        <time>2018-12-08T12:38:13.000Z</time>
      </trkpt>
      <trkpt lat="43.78574" lon="7.05141">
        <ele>901.20001220703</ele>
        <time>2018-12-08T12:38:17.000Z</time>
      </trkpt>
      <trkpt lat="43.78571" lon="7.05146">
        <ele>901.40002441406</ele>
        <time>2018-12-08T12:38:19.000Z</time>
      </trkpt>
      <trkpt lat="43.78562" lon="7.05163">
        <ele>902.20001220703</ele>
        <time>2018-12-08T12:38:25.000Z</time>
      </trkpt>
      <trkpt lat="43.78558" lon="7.05173">
        <ele>902.40002441406</ele>
        <time>2018-12-08T12:38:28.000Z</time>
      </trkpt>
      <trkpt lat="43.78548" lon="7.0519">
        <ele>902.20001220703</ele>
        <time>2018-12-08T12:38:33.000Z</time>
      </trkpt>
      <trkpt lat="43.78539" lon="7.05216">
        <ele>902.20001220703</ele>
        <time>2018-12-08T12:38:39.000Z</time>
      </trkpt>
      <trkpt lat="43.78528" lon="7.05244">
        <ele>902.59997558594</ele>
        <time>2018-12-08T12:38:46.000Z</time>
      </trkpt>
      <trkpt lat="43.78518" lon="7.05279">
        <ele>903.20001220703</ele>
        <time>2018-12-08T12:38:54.000Z</time>
      </trkpt>
      <trkpt lat="43.78516" lon="7.05288">
        <ele>903.20001220703</ele>
        <time>2018-12-08T12:38:56.000Z</time>
      </trkpt>
      <trkpt lat="43.78508" lon="7.05315">
        <ele>903.79998779297</ele>
        <time>2018-12-08T12:39:03.000Z</time>
      </trkpt>
      <trkpt lat="43.78503" lon="7.05334">
        <ele>904.40002441406</ele>
        <time>2018-12-08T12:39:08.000Z</time>
      </trkpt>
      <trkpt lat="43.78497" lon="7.05352">
        <ele>905.20001220703</ele>
        <time>2018-12-08T12:39:13.000Z</time>
      </trkpt>
      <trkpt lat="43.78495" lon="7.0536">
        <ele>905.40002441406</ele>
        <time>2018-12-08T12:39:15.000Z</time>
      </trkpt>
      <trkpt lat="43.78486" lon="7.05388">
        <ele>906</ele>
        <time>2018-12-08T12:39:22.000Z</time>
      </trkpt>
      <trkpt lat="43.78479" lon="7.05411">
        <ele>906.59997558594</ele>
        <time>2018-12-08T12:39:28.000Z</time>
      </trkpt>
      <trkpt lat="43.78478" lon="7.05414">
        <ele>906.59997558594</ele>
        <time>2018-12-08T12:39:29.000Z</time>
      </trkpt>
      <trkpt lat="43.78477" lon="7.0543">
        <ele>907.59997558594</ele>
        <time>2018-12-08T12:39:34.000Z</time>
      </trkpt>
      <trkpt lat="43.78477" lon="7.05432">
        <ele>907.79998779297</ele>
        <time>2018-12-08T12:39:35.000Z</time>
      </trkpt>
      <trkpt lat="43.78478" lon="7.05445">
        <ele>908.79998779297</ele>
        <time>2018-12-08T12:39:39.000Z</time>
      </trkpt>
      <trkpt lat="43.78479" lon="7.05453">
        <ele>909.59997558594</ele>
        <time>2018-12-08T12:39:42.000Z</time>
      </trkpt>
      <trkpt lat="43.78478" lon="7.05458">
        <ele>909.79998779297</ele>
        <time>2018-12-08T12:39:44.000Z</time>
      </trkpt>
      <trkpt lat="43.78476" lon="7.05466">
        <ele>910.59997558594</ele>
        <time>2018-12-08T12:39:48.000Z</time>
      </trkpt>
      <trkpt lat="43.78475" lon="7.05467">
        <ele>910.79998779297</ele>
        <time>2018-12-08T12:39:49.000Z</time>
      </trkpt>
      <trkpt lat="43.7847" lon="7.05475">
        <ele>912</ele>
        <time>2018-12-08T12:39:54.000Z</time>
      </trkpt>
      <trkpt lat="43.78465" lon="7.05482">
        <ele>913.20001220703</ele>
        <time>2018-12-08T12:40:00.000Z</time>
      </trkpt>
      <trkpt lat="43.78459" lon="7.05489">
        <ele>914.40002441406</ele>
        <time>2018-12-08T12:40:06.000Z</time>
      </trkpt>
      <trkpt lat="43.78454" lon="7.05495">
        <ele>915</ele>
        <time>2018-12-08T12:40:12.000Z</time>
      </trkpt>
      <trkpt lat="43.78454" lon="7.05497">
        <ele>915.20001220703</ele>
        <time>2018-12-08T12:40:13.000Z</time>
      </trkpt>
      <trkpt lat="43.78449" lon="7.05508">
        <ele>915.20001220703</ele>
        <time>2018-12-08T12:40:19.000Z</time>
      </trkpt>
      <trkpt lat="43.78447" lon="7.05512">
        <ele>915.59997558594</ele>
        <time>2018-12-08T12:40:21.000Z</time>
      </trkpt>
      <trkpt lat="43.78447" lon="7.05514">
        <ele>916</ele>
        <time>2018-12-08T12:40:22.000Z</time>
      </trkpt>
      <trkpt lat="43.78446" lon="7.05518">
        <ele>916.79998779297</ele>
        <time>2018-12-08T12:40:24.000Z</time>
      </trkpt>
      <trkpt lat="43.78446" lon="7.05519">
        <ele>917.20001220703</ele>
        <time>2018-12-08T12:40:25.000Z</time>
      </trkpt>
      <trkpt lat="43.78446" lon="7.05522">
        <ele>917.59997558594</ele>
        <time>2018-12-08T12:40:27.000Z</time>
      </trkpt>
      <trkpt lat="43.78446" lon="7.05527">
        <ele>918</ele>
        <time>2018-12-08T12:40:30.000Z</time>
      </trkpt>
      <trkpt lat="43.78443" lon="7.0554">
        <ele>919</ele>
        <time>2018-12-08T12:40:38.000Z</time>
      </trkpt>
      <trkpt lat="43.78443" lon="7.05541">
        <ele>919</ele>
        <time>2018-12-08T12:40:39.000Z</time>
      </trkpt>
      <trkpt lat="43.78439" lon="7.05553">
        <ele>920</ele>
        <time>2018-12-08T12:40:47.000Z</time>
      </trkpt>
      <trkpt lat="43.78438" lon="7.05555">
        <ele>920.20001220703</ele>
        <time>2018-12-08T12:40:48.000Z</time>
      </trkpt>
      <trkpt lat="43.78437" lon="7.05561">
        <ele>920.79998779297</ele>
        <time>2018-12-08T12:40:52.000Z</time>
      </trkpt>
      <trkpt lat="43.78434" lon="7.05567">
        <ele>921.40002441406</ele>
        <time>2018-12-08T12:40:57.000Z</time>
      </trkpt>
      <trkpt lat="43.78434" lon="7.05569">
        <ele>921.40002441406</ele>
        <time>2018-12-08T12:40:58.000Z</time>
      </trkpt>
      <trkpt lat="43.7843" lon="7.05577">
        <ele>922</ele>
        <time>2018-12-08T12:41:03.000Z</time>
      </trkpt>
      <trkpt lat="43.78429" lon="7.05579">
        <ele>922.40002441406</ele>
        <time>2018-12-08T12:41:05.000Z</time>
      </trkpt>
      <trkpt lat="43.78428" lon="7.05584">
        <ele>923</ele>
        <time>2018-12-08T12:41:08.000Z</time>
      </trkpt>
      <trkpt lat="43.78424" lon="7.05592">
        <ele>923.40002441406</ele>
        <time>2018-12-08T12:41:14.000Z</time>
      </trkpt>
      <trkpt lat="43.78424" lon="7.05593">
        <ele>923.79998779297</ele>
        <time>2018-12-08T12:41:15.000Z</time>
      </trkpt>
      <trkpt lat="43.78422" lon="7.05599">
        <ele>924.59997558594</ele>
        <time>2018-12-08T12:41:19.000Z</time>
      </trkpt>
      <trkpt lat="43.78421" lon="7.056">
        <ele>924.59997558594</ele>
        <time>2018-12-08T12:41:20.000Z</time>
      </trkpt>
      <trkpt lat="43.78418" lon="7.05608">
        <ele>925.59997558594</ele>
        <time>2018-12-08T12:41:26.000Z</time>
      </trkpt>
      <trkpt lat="43.78419" lon="7.05609">
        <ele>925.59997558594</ele>
        <time>2018-12-08T12:41:27.000Z</time>
      </trkpt>
      <trkpt lat="43.78417" lon="7.05614">
        <ele>926</ele>
        <time>2018-12-08T12:41:30.000Z</time>
      </trkpt>
      <trkpt lat="43.78416" lon="7.05615">
        <ele>926</ele>
        <time>2018-12-08T12:41:31.000Z</time>
      </trkpt>
      <trkpt lat="43.78416" lon="7.05616">
        <ele>926.20001220703</ele>
        <time>2018-12-08T12:41:32.000Z</time>
      </trkpt>
      <trkpt lat="43.78414" lon="7.05623">
        <ele>926.59997558594</ele>
        <time>2018-12-08T12:41:36.000Z</time>
      </trkpt>
      <trkpt lat="43.78413" lon="7.05625">
        <ele>927.20001220703</ele>
        <time>2018-12-08T12:41:38.000Z</time>
      </trkpt>
      <trkpt lat="43.78412" lon="7.05629">
        <ele>928</ele>
        <time>2018-12-08T12:41:41.000Z</time>
      </trkpt>
      <trkpt lat="43.7841" lon="7.05634">
        <ele>928.40002441406</ele>
        <time>2018-12-08T12:41:44.000Z</time>
      </trkpt>
      <trkpt lat="43.78408" lon="7.05635">
        <ele>928.40002441406</ele>
        <time>2018-12-08T12:41:45.000Z</time>
      </trkpt>
      <trkpt lat="43.78406" lon="7.05635">
        <ele>929</ele>
        <time>2018-12-08T12:41:48.000Z</time>
      </trkpt>
      <trkpt lat="43.78407" lon="7.05635">
        <ele>929.20001220703</ele>
        <time>2018-12-08T12:41:49.000Z</time>
      </trkpt>
      <trkpt lat="43.78405" lon="7.05636">
        <ele>929.59997558594</ele>
        <time>2018-12-08T12:41:52.000Z</time>
      </trkpt>
      <trkpt lat="43.78403" lon="7.05637">
        <ele>930</ele>
        <time>2018-12-08T12:41:54.000Z</time>
      </trkpt>
      <trkpt lat="43.78402" lon="7.05638">
        <ele>930</ele>
        <time>2018-12-08T12:41:55.000Z</time>
      </trkpt>
      <trkpt lat="43.78398" lon="7.0564">
        <ele>930.20001220703</ele>
        <time>2018-12-08T12:42:00.000Z</time>
      </trkpt>
      <trkpt lat="43.78397" lon="7.05642">
        <ele>930.20001220703</ele>
        <time>2018-12-08T12:42:02.000Z</time>
      </trkpt>
      <trkpt lat="43.78396" lon="7.05643">
        <ele>930.40002441406</ele>
        <time>2018-12-08T12:42:04.000Z</time>
      </trkpt>
      <trkpt lat="43.78396" lon="7.05644">
        <ele>930.40002441406</ele>
        <time>2018-12-08T12:42:05.000Z</time>
      </trkpt>
      <trkpt lat="43.78394" lon="7.0565">
        <ele>930.79998779297</ele>
        <time>2018-12-08T12:42:09.000Z</time>
      </trkpt>
      <trkpt lat="43.78393" lon="7.05653">
        <ele>931</ele>
        <time>2018-12-08T12:42:12.000Z</time>
      </trkpt>
      <trkpt lat="43.78391" lon="7.05656">
        <ele>931.40002441406</ele>
        <time>2018-12-08T12:42:14.000Z</time>
      </trkpt>
      <trkpt lat="43.78388" lon="7.05662">
        <ele>932.20001220703</ele>
        <time>2018-12-08T12:42:19.000Z</time>
      </trkpt>
      <trkpt lat="43.78387" lon="7.05663">
        <ele>932.40002441406</ele>
        <time>2018-12-08T12:42:20.000Z</time>
      </trkpt>
      <trkpt lat="43.78383" lon="7.05658">
        <ele>932.59997558594</ele>
        <time>2018-12-08T12:42:24.000Z</time>
      </trkpt>
      <trkpt lat="43.78381" lon="7.05652">
        <ele>933</ele>
        <time>2018-12-08T12:42:28.000Z</time>
      </trkpt>
      <trkpt lat="43.7838" lon="7.05647">
        <ele>933.20001220703</ele>
        <time>2018-12-08T12:42:31.000Z</time>
      </trkpt>
      <trkpt lat="43.78379" lon="7.05643">
        <ele>933.40002441406</ele>
        <time>2018-12-08T12:42:33.000Z</time>
      </trkpt>
      <trkpt lat="43.78376" lon="7.05626">
        <ele>933.59997558594</ele>
        <time>2018-12-08T12:42:41.000Z</time>
      </trkpt>
      <trkpt lat="43.78373" lon="7.05619">
        <ele>933.79998779297</ele>
        <time>2018-12-08T12:42:44.000Z</time>
      </trkpt>
      <trkpt lat="43.78371" lon="7.05613">
        <ele>934.20001220703</ele>
        <time>2018-12-08T12:42:47.000Z</time>
      </trkpt>
      <trkpt lat="43.78369" lon="7.05608">
        <ele>935.59997558594</ele>
        <time>2018-12-08T12:42:51.000Z</time>
      </trkpt>
      <trkpt lat="43.78367" lon="7.05601">
        <ele>936.59997558594</ele>
        <time>2018-12-08T12:42:56.000Z</time>
      </trkpt>
      <trkpt lat="43.78366" lon="7.05599">
        <ele>936.79998779297</ele>
        <time>2018-12-08T12:42:58.000Z</time>
      </trkpt>
      <trkpt lat="43.7836" lon="7.05596">
        <ele>937.40002441406</ele>
        <time>2018-12-08T12:43:04.000Z</time>
      </trkpt>
      <trkpt lat="43.78359" lon="7.05596">
        <ele>937.59997558594</ele>
        <time>2018-12-08T12:43:05.000Z</time>
      </trkpt>
      <trkpt lat="43.78356" lon="7.05597">
        <ele>938</ele>
        <time>2018-12-08T12:43:08.000Z</time>
      </trkpt>
      <trkpt lat="43.78355" lon="7.05598">
        <ele>938.20001220703</ele>
        <time>2018-12-08T12:43:10.000Z</time>
      </trkpt>
      <trkpt lat="43.78355" lon="7.05604">
        <ele>938.79998779297</ele>
        <time>2018-12-08T12:43:15.000Z</time>
      </trkpt>
      <trkpt lat="43.78354" lon="7.05606">
        <ele>938.79998779297</ele>
        <time>2018-12-08T12:43:16.000Z</time>
      </trkpt>
      <trkpt lat="43.78352" lon="7.05611">
        <ele>939.20001220703</ele>
        <time>2018-12-08T12:43:20.000Z</time>
      </trkpt>
      <trkpt lat="43.78352" lon="7.05616">
        <ele>939.79998779297</ele>
        <time>2018-12-08T12:43:24.000Z</time>
      </trkpt>
      <trkpt lat="43.78352" lon="7.05618">
        <ele>940</ele>
        <time>2018-12-08T12:43:25.000Z</time>
      </trkpt>
      <trkpt lat="43.78351" lon="7.05623">
        <ele>941</ele>
        <time>2018-12-08T12:43:29.000Z</time>
      </trkpt>
      <trkpt lat="43.78351" lon="7.05625">
        <ele>941</ele>
        <time>2018-12-08T12:43:30.000Z</time>
      </trkpt>
      <trkpt lat="43.78351" lon="7.05626">
        <ele>940.79998779297</ele>
        <time>2018-12-08T12:43:31.000Z</time>
      </trkpt>
      <trkpt lat="43.78349" lon="7.0563">
        <ele>940.79998779297</ele>
        <time>2018-12-08T12:43:33.000Z</time>
      </trkpt>
      <trkpt lat="43.78348" lon="7.05632">
        <ele>940.79998779297</ele>
        <time>2018-12-08T12:43:35.000Z</time>
      </trkpt>
      <trkpt lat="43.78345" lon="7.0564">
        <ele>941.40002441406</ele>
        <time>2018-12-08T12:43:41.000Z</time>
      </trkpt>
      <trkpt lat="43.78342" lon="7.05646">
        <ele>941.59997558594</ele>
        <time>2018-12-08T12:43:45.000Z</time>
      </trkpt>
      <trkpt lat="43.78341" lon="7.05648">
        <ele>941.79998779297</ele>
        <time>2018-12-08T12:43:47.000Z</time>
      </trkpt>
      <trkpt lat="43.7834" lon="7.05651">
        <ele>942.20001220703</ele>
        <time>2018-12-08T12:43:49.000Z</time>
      </trkpt>
      <trkpt lat="43.78338" lon="7.05658">
        <ele>942.59997558594</ele>
        <time>2018-12-08T12:43:53.000Z</time>
      </trkpt>
      <trkpt lat="43.78335" lon="7.05665">
        <ele>943.40002441406</ele>
        <time>2018-12-08T12:43:58.000Z</time>
      </trkpt>
      <trkpt lat="43.78335" lon="7.05666">
        <ele>943.79998779297</ele>
        <time>2018-12-08T12:43:59.000Z</time>
      </trkpt>
      <trkpt lat="43.78333" lon="7.0567">
        <ele>944</ele>
        <time>2018-12-08T12:44:01.000Z</time>
      </trkpt>
      <trkpt lat="43.78331" lon="7.05674">
        <ele>944.59997558594</ele>
        <time>2018-12-08T12:44:04.000Z</time>
      </trkpt>
      <trkpt lat="43.78328" lon="7.05681">
        <ele>945.20001220703</ele>
        <time>2018-12-08T12:44:08.000Z</time>
      </trkpt>
      <trkpt lat="43.78326" lon="7.05684">
        <ele>945.40002441406</ele>
        <time>2018-12-08T12:44:10.000Z</time>
      </trkpt>
      <trkpt lat="43.78324" lon="7.05688">
        <ele>945.59997558594</ele>
        <time>2018-12-08T12:44:13.000Z</time>
      </trkpt>
      <trkpt lat="43.78321" lon="7.05693">
        <ele>946</ele>
        <time>2018-12-08T12:44:16.000Z</time>
      </trkpt>
      <trkpt lat="43.78317" lon="7.05697">
        <ele>946.79998779297</ele>
        <time>2018-12-08T12:44:22.000Z</time>
      </trkpt>
      <trkpt lat="43.78316" lon="7.05699">
        <ele>946.79998779297</ele>
        <time>2018-12-08T12:44:23.000Z</time>
      </trkpt>
      <trkpt lat="43.78313" lon="7.05704">
        <ele>947.20001220703</ele>
        <time>2018-12-08T12:44:27.000Z</time>
      </trkpt>
      <trkpt lat="43.78308" lon="7.0571">
        <ele>947.79998779297</ele>
        <time>2018-12-08T12:44:32.000Z</time>
      </trkpt>
      <trkpt lat="43.78307" lon="7.05714">
        <ele>948.40002441406</ele>
        <time>2018-12-08T12:44:38.000Z</time>
      </trkpt>
      <trkpt lat="43.78306" lon="7.05715">
        <ele>948.40002441406</ele>
        <time>2018-12-08T12:44:39.000Z</time>
      </trkpt>
      <trkpt lat="43.78303" lon="7.0572">
        <ele>948.79998779297</ele>
        <time>2018-12-08T12:44:43.000Z</time>
      </trkpt>
      <trkpt lat="43.78297" lon="7.05727">
        <ele>949.59997558594</ele>
        <time>2018-12-08T12:44:50.000Z</time>
      </trkpt>
      <trkpt lat="43.78295" lon="7.0573">
        <ele>950</ele>
        <time>2018-12-08T12:44:53.000Z</time>
      </trkpt>
      <trkpt lat="43.78293" lon="7.05733">
        <ele>950.20001220703</ele>
        <time>2018-12-08T12:44:56.000Z</time>
      </trkpt>
      <trkpt lat="43.78288" lon="7.05738">
        <ele>951.20001220703</ele>
        <time>2018-12-08T12:45:01.000Z</time>
      </trkpt>
      <trkpt lat="43.78287" lon="7.05741">
        <ele>951.40002441406</ele>
        <time>2018-12-08T12:45:03.000Z</time>
      </trkpt>
      <trkpt lat="43.78285" lon="7.05743">
        <ele>951.79998779297</ele>
        <time>2018-12-08T12:45:05.000Z</time>
      </trkpt>
      <trkpt lat="43.78284" lon="7.05745">
        <ele>952.20001220703</ele>
        <time>2018-12-08T12:45:08.000Z</time>
      </trkpt>
      <trkpt lat="43.78282" lon="7.05748">
        <ele>952.40002441406</ele>
        <time>2018-12-08T12:45:11.000Z</time>
      </trkpt>
      <trkpt lat="43.7828" lon="7.05751">
        <ele>953.20001220703</ele>
        <time>2018-12-08T12:45:16.000Z</time>
      </trkpt>
      <trkpt lat="43.78279" lon="7.05753">
        <ele>953.59997558594</ele>
        <time>2018-12-08T12:45:24.000Z</time>
      </trkpt>
      <trkpt lat="43.78277" lon="7.05756">
        <ele>953.20001220703</ele>
        <time>2018-12-08T12:45:33.000Z</time>
      </trkpt>
      <trkpt lat="43.78275" lon="7.05758">
        <ele>953.79998779297</ele>
        <time>2018-12-08T12:45:39.000Z</time>
      </trkpt>
      <trkpt lat="43.78272" lon="7.05762">
        <ele>954</ele>
        <time>2018-12-08T12:45:43.000Z</time>
      </trkpt>
      <trkpt lat="43.78271" lon="7.05763">
        <ele>954.40002441406</ele>
        <time>2018-12-08T12:45:46.000Z</time>
      </trkpt>
      <trkpt lat="43.78271" lon="7.05764">
        <ele>954.40002441406</ele>
        <time>2018-12-08T12:45:47.000Z</time>
      </trkpt>
      <trkpt lat="43.78268" lon="7.05768">
        <ele>955</ele>
        <time>2018-12-08T12:45:53.000Z</time>
      </trkpt>
      <trkpt lat="43.78265" lon="7.05772">
        <ele>955.40002441406</ele>
        <time>2018-12-08T12:45:58.000Z</time>
      </trkpt>
      <trkpt lat="43.78264" lon="7.05773">
        <ele>955.40002441406</ele>
        <time>2018-12-08T12:45:59.000Z</time>
      </trkpt>
      <trkpt lat="43.78259" lon="7.0578">
        <ele>956</ele>
        <time>2018-12-08T12:46:06.000Z</time>
      </trkpt>
      <trkpt lat="43.78257" lon="7.05783">
        <ele>956.40002441406</ele>
        <time>2018-12-08T12:46:09.000Z</time>
      </trkpt>
      <trkpt lat="43.78254" lon="7.05785">
        <ele>957</ele>
        <time>2018-12-08T12:46:12.000Z</time>
      </trkpt>
      <trkpt lat="43.78253" lon="7.05786">
        <ele>957</ele>
        <time>2018-12-08T12:46:13.000Z</time>
      </trkpt>
      <trkpt lat="43.78251" lon="7.05788">
        <ele>957.59997558594</ele>
        <time>2018-12-08T12:46:16.000Z</time>
      </trkpt>
      <trkpt lat="43.78249" lon="7.0579">
        <ele>958</ele>
        <time>2018-12-08T12:46:18.000Z</time>
      </trkpt>
      <trkpt lat="43.78246" lon="7.05794">
        <ele>958.79998779297</ele>
        <time>2018-12-08T12:46:22.000Z</time>
      </trkpt>
      <trkpt lat="43.78245" lon="7.05795">
        <ele>958.79998779297</ele>
        <time>2018-12-08T12:46:23.000Z</time>
      </trkpt>
      <trkpt lat="43.78241" lon="7.05801">
        <ele>960</ele>
        <time>2018-12-08T12:46:29.000Z</time>
      </trkpt>
      <trkpt lat="43.7824" lon="7.05802">
        <ele>960.40002441406</ele>
        <time>2018-12-08T12:46:31.000Z</time>
      </trkpt>
      <trkpt lat="43.78236" lon="7.05806">
        <ele>961</ele>
        <time>2018-12-08T12:46:35.000Z</time>
      </trkpt>
      <trkpt lat="43.78236" lon="7.05806">
        <ele>961.20001220703</ele>
        <time>2018-12-08T12:46:37.000Z</time>
      </trkpt>
      <trkpt lat="43.78231" lon="7.05811">
        <ele>961.79998779297</ele>
        <time>2018-12-08T12:46:42.000Z</time>
      </trkpt>
      <trkpt lat="43.7823" lon="7.05812">
        <ele>962</ele>
        <time>2018-12-08T12:46:44.000Z</time>
      </trkpt>
      <trkpt lat="43.78228" lon="7.05814">
        <ele>962.40002441406</ele>
        <time>2018-12-08T12:46:47.000Z</time>
      </trkpt>
      <trkpt lat="43.78224" lon="7.05818">
        <ele>963.20001220703</ele>
        <time>2018-12-08T12:46:53.000Z</time>
      </trkpt>
      <trkpt lat="43.78219" lon="7.05822">
        <ele>963.79998779297</ele>
        <time>2018-12-08T12:46:59.000Z</time>
      </trkpt>
      <trkpt lat="43.78218" lon="7.05823">
        <ele>964.20001220703</ele>
        <time>2018-12-08T12:47:02.000Z</time>
      </trkpt>
      <trkpt lat="43.78215" lon="7.05827">
        <ele>964.59997558594</ele>
        <time>2018-12-08T12:47:05.000Z</time>
      </trkpt>
      <trkpt lat="43.78214" lon="7.05827">
        <ele>964.79998779297</ele>
        <time>2018-12-08T12:47:06.000Z</time>
      </trkpt>
      <trkpt lat="43.7821" lon="7.05829">
        <ele>965.20001220703</ele>
        <time>2018-12-08T12:47:09.000Z</time>
      </trkpt>
      <trkpt lat="43.7821" lon="7.05829">
        <ele>965.40002441406</ele>
        <time>2018-12-08T12:47:10.000Z</time>
      </trkpt>
      <trkpt lat="43.78208" lon="7.0583">
        <ele>965.40002441406</ele>
        <time>2018-12-08T12:47:11.000Z</time>
      </trkpt>
      <trkpt lat="43.78203" lon="7.05833">
        <ele>966</ele>
        <time>2018-12-08T12:47:15.000Z</time>
      </trkpt>
      <trkpt lat="43.782" lon="7.05834">
        <ele>966.40002441406</ele>
        <time>2018-12-08T12:47:17.000Z</time>
      </trkpt>
      <trkpt lat="43.78193" lon="7.05838">
        <ele>967</ele>
        <time>2018-12-08T12:47:24.000Z</time>
      </trkpt>
      <trkpt lat="43.7819" lon="7.05841">
        <ele>967.20001220703</ele>
        <time>2018-12-08T12:47:27.000Z</time>
      </trkpt>
      <trkpt lat="43.78189" lon="7.05841">
        <ele>967.40002441406</ele>
        <time>2018-12-08T12:47:28.000Z</time>
      </trkpt>
      <trkpt lat="43.78187" lon="7.05841">
        <ele>967.59997558594</ele>
        <time>2018-12-08T12:47:30.000Z</time>
      </trkpt>
      <trkpt lat="43.78184" lon="7.05844">
        <ele>968.20001220703</ele>
        <time>2018-12-08T12:47:36.000Z</time>
      </trkpt>
      <trkpt lat="43.7818" lon="7.05847">
        <ele>968.40002441406</ele>
        <time>2018-12-08T12:47:38.000Z</time>
      </trkpt>
      <trkpt lat="43.78178" lon="7.0585">
        <ele>968.79998779297</ele>
        <time>2018-12-08T12:47:40.000Z</time>
      </trkpt>
      <trkpt lat="43.78174" lon="7.05856">
        <ele>969.59997558594</ele>
        <time>2018-12-08T12:47:45.000Z</time>
      </trkpt>
      <trkpt lat="43.78173" lon="7.05858">
        <ele>970</ele>
        <time>2018-12-08T12:47:47.000Z</time>
      </trkpt>
      <trkpt lat="43.7817" lon="7.05862">
        <ele>970.40002441406</ele>
        <time>2018-12-08T12:47:50.000Z</time>
      </trkpt>
      <trkpt lat="43.78169" lon="7.05865">
        <ele>970.79998779297</ele>
        <time>2018-12-08T12:47:52.000Z</time>
      </trkpt>
      <trkpt lat="43.78168" lon="7.05866">
        <ele>970.79998779297</ele>
        <time>2018-12-08T12:47:53.000Z</time>
      </trkpt>
      <trkpt lat="43.78163" lon="7.05872">
        <ele>972</ele>
        <time>2018-12-08T12:47:58.000Z</time>
      </trkpt>
      <trkpt lat="43.78159" lon="7.0588">
        <ele>972.59997558594</ele>
        <time>2018-12-08T12:48:03.000Z</time>
      </trkpt>
      <trkpt lat="43.78157" lon="7.05882">
        <ele>973</ele>
        <time>2018-12-08T12:48:05.000Z</time>
      </trkpt>
      <trkpt lat="43.78156" lon="7.05883">
        <ele>973.20001220703</ele>
        <time>2018-12-08T12:48:06.000Z</time>
      </trkpt>
      <trkpt lat="43.78155" lon="7.05884">
        <ele>973.59997558594</ele>
        <time>2018-12-08T12:48:07.000Z</time>
      </trkpt>
      <trkpt lat="43.78154" lon="7.05888">
        <ele>974.40002441406</ele>
        <time>2018-12-08T12:48:10.000Z</time>
      </trkpt>
      <trkpt lat="43.78152" lon="7.05891">
        <ele>974.40002441406</ele>
        <time>2018-12-08T12:48:13.000Z</time>
      </trkpt>
      <trkpt lat="43.78148" lon="7.05899">
        <ele>975.40002441406</ele>
        <time>2018-12-08T12:48:19.000Z</time>
      </trkpt>
      <trkpt lat="43.78147" lon="7.05901">
        <ele>975.59997558594</ele>
        <time>2018-12-08T12:48:20.000Z</time>
      </trkpt>
      <trkpt lat="43.78143" lon="7.0591">
        <ele>976.59997558594</ele>
        <time>2018-12-08T12:48:26.000Z</time>
      </trkpt>
      <trkpt lat="43.78141" lon="7.05916">
        <ele>977.40002441406</ele>
        <time>2018-12-08T12:48:30.000Z</time>
      </trkpt>
      <trkpt lat="43.78141" lon="7.05915">
        <ele>977.59997558594</ele>
        <time>2018-12-08T12:48:31.000Z</time>
      </trkpt>
      <trkpt lat="43.7814" lon="7.05916">
        <ele>977.79998779297</ele>
        <time>2018-12-08T12:48:32.000Z</time>
      </trkpt>
      <trkpt lat="43.78139" lon="7.05918">
        <ele>978.20001220703</ele>
        <time>2018-12-08T12:48:38.000Z</time>
      </trkpt>
      <trkpt lat="43.78137" lon="7.05922">
        <ele>978</ele>
        <time>2018-12-08T12:48:41.000Z</time>
      </trkpt>
      <trkpt lat="43.78137" lon="7.05924">
        <ele>978</ele>
        <time>2018-12-08T12:48:42.000Z</time>
      </trkpt>
      <trkpt lat="43.78134" lon="7.05929">
        <ele>978.59997558594</ele>
        <time>2018-12-08T12:48:46.000Z</time>
      </trkpt>
      <trkpt lat="43.78132" lon="7.05932">
        <ele>979.40002441406</ele>
        <time>2018-12-08T12:48:49.000Z</time>
      </trkpt>
      <trkpt lat="43.78132" lon="7.05932">
        <ele>979.59997558594</ele>
        <time>2018-12-08T12:48:50.000Z</time>
      </trkpt>
      <trkpt lat="43.78132" lon="7.05934">
        <ele>980</ele>
        <time>2018-12-08T12:48:53.000Z</time>
      </trkpt>
      <trkpt lat="43.78127" lon="7.05942">
        <ele>980.20001220703</ele>
        <time>2018-12-08T12:48:59.000Z</time>
      </trkpt>
      <trkpt lat="43.78126" lon="7.05946">
        <ele>980.79998779297</ele>
        <time>2018-12-08T12:49:02.000Z</time>
      </trkpt>
      <trkpt lat="43.78124" lon="7.0595">
        <ele>981.79998779297</ele>
        <time>2018-12-08T12:49:05.000Z</time>
      </trkpt>
      <trkpt lat="43.78122" lon="7.05951">
        <ele>981.79998779297</ele>
        <time>2018-12-08T12:49:06.000Z</time>
      </trkpt>
      <trkpt lat="43.7812" lon="7.05956">
        <ele>982.59997558594</ele>
        <time>2018-12-08T12:49:11.000Z</time>
      </trkpt>
      <trkpt lat="43.78117" lon="7.05959">
        <ele>982.79998779297</ele>
        <time>2018-12-08T12:49:14.000Z</time>
      </trkpt>
      <trkpt lat="43.78114" lon="7.05959">
        <ele>983</ele>
        <time>2018-12-08T12:49:16.000Z</time>
      </trkpt>
      <trkpt lat="43.7811" lon="7.05957">
        <ele>983.40002441406</ele>
        <time>2018-12-08T12:49:20.000Z</time>
      </trkpt>
      <trkpt lat="43.78109" lon="7.05957">
        <ele>983.59997558594</ele>
        <time>2018-12-08T12:49:21.000Z</time>
      </trkpt>
      <trkpt lat="43.78104" lon="7.05955">
        <ele>984</ele>
        <time>2018-12-08T12:49:24.000Z</time>
      </trkpt>
      <trkpt lat="43.78101" lon="7.05955">
        <ele>984.20001220703</ele>
        <time>2018-12-08T12:49:27.000Z</time>
      </trkpt>
      <trkpt lat="43.781" lon="7.05954">
        <ele>984.20001220703</ele>
        <time>2018-12-08T12:49:28.000Z</time>
      </trkpt>
      <trkpt lat="43.78094" lon="7.05954">
        <ele>984.79998779297</ele>
        <time>2018-12-08T12:49:33.000Z</time>
      </trkpt>
      <trkpt lat="43.78091" lon="7.05954">
        <ele>985</ele>
        <time>2018-12-08T12:49:35.000Z</time>
      </trkpt>
      <trkpt lat="43.78087" lon="7.05954">
        <ele>985.40002441406</ele>
        <time>2018-12-08T12:49:38.000Z</time>
      </trkpt>
      <trkpt lat="43.78081" lon="7.05954">
        <ele>986.20001220703</ele>
        <time>2018-12-08T12:49:43.000Z</time>
      </trkpt>
      <trkpt lat="43.78078" lon="7.05954">
        <ele>986.40002441406</ele>
        <time>2018-12-08T12:49:45.000Z</time>
      </trkpt>
      <trkpt lat="43.78072" lon="7.05956">
        <ele>987.20001220703</ele>
        <time>2018-12-08T12:49:50.000Z</time>
      </trkpt>
      <trkpt lat="43.7807" lon="7.05957">
        <ele>987.20001220703</ele>
        <time>2018-12-08T12:49:51.000Z</time>
      </trkpt>
      <trkpt lat="43.78063" lon="7.05958">
        <ele>988.20001220703</ele>
        <time>2018-12-08T12:49:55.000Z</time>
      </trkpt>
      <trkpt lat="43.78061" lon="7.05958">
        <ele>988.40002441406</ele>
        <time>2018-12-08T12:49:56.000Z</time>
      </trkpt>
      <trkpt lat="43.7806" lon="7.05958">
        <ele>988.59997558594</ele>
        <time>2018-12-08T12:49:57.000Z</time>
      </trkpt>
      <trkpt lat="43.78056" lon="7.05959">
        <ele>989.20001220703</ele>
        <time>2018-12-08T12:50:00.000Z</time>
      </trkpt>
      <trkpt lat="43.78054" lon="7.0596">
        <ele>989.40002441406</ele>
        <time>2018-12-08T12:50:01.000Z</time>
      </trkpt>
      <trkpt lat="43.7804" lon="7.05969">
        <ele>989.79998779297</ele>
        <time>2018-12-08T12:50:08.000Z</time>
      </trkpt>
      <trkpt lat="43.78026" lon="7.05975">
        <ele>989.20001220703</ele>
        <time>2018-12-08T12:50:13.000Z</time>
      </trkpt>
      <trkpt lat="43.78009" lon="7.05986">
        <ele>988</ele>
        <time>2018-12-08T12:50:18.000Z</time>
      </trkpt>
      <trkpt lat="43.78004" lon="7.05992">
        <ele>987.79998779297</ele>
        <time>2018-12-08T12:50:20.000Z</time>
      </trkpt>
      <trkpt lat="43.7799" lon="7.06014">
        <ele>987</ele>
        <time>2018-12-08T12:50:26.000Z</time>
      </trkpt>
      <trkpt lat="43.77984" lon="7.06031">
        <ele>986.79998779297</ele>
        <time>2018-12-08T12:50:30.000Z</time>
      </trkpt>
      <trkpt lat="43.77979" lon="7.06042">
        <ele>986.79998779297</ele>
        <time>2018-12-08T12:50:34.000Z</time>
      </trkpt>
      <trkpt lat="43.77975" lon="7.06053">
        <ele>987.20001220703</ele>
        <time>2018-12-08T12:50:38.000Z</time>
      </trkpt>
      <trkpt lat="43.77972" lon="7.06066">
        <ele>987.40002441406</ele>
        <time>2018-12-08T12:50:42.000Z</time>
      </trkpt>
      <trkpt lat="43.7797" lon="7.06071">
        <ele>987.59997558594</ele>
        <time>2018-12-08T12:50:47.000Z</time>
      </trkpt>
      <trkpt lat="43.77967" lon="7.06075">
        <ele>987.79998779297</ele>
        <time>2018-12-08T12:51:00.000Z</time>
      </trkpt>
      <trkpt lat="43.77965" lon="7.06078">
        <ele>988</ele>
        <time>2018-12-08T12:51:16.000Z</time>
      </trkpt>
      <trkpt lat="43.77964" lon="7.0608">
        <ele>988</ele>
        <time>2018-12-08T12:51:28.000Z</time>
      </trkpt>
      <trkpt lat="43.77963" lon="7.06084">
        <ele>988.20001220703</ele>
        <time>2018-12-08T12:51:37.000Z</time>
      </trkpt>
      <trkpt lat="43.7796" lon="7.0609">
        <ele>988.20001220703</ele>
        <time>2018-12-08T12:51:43.000Z</time>
      </trkpt>
      <trkpt lat="43.77958" lon="7.06091">
        <ele>988.20001220703</ele>
        <time>2018-12-08T12:51:44.000Z</time>
      </trkpt>
      <trkpt lat="43.77949" lon="7.06095">
        <ele>987.79998779297</ele>
        <time>2018-12-08T12:51:48.000Z</time>
      </trkpt>
      <trkpt lat="43.77944" lon="7.06097">
        <ele>987.79998779297</ele>
        <time>2018-12-08T12:51:50.000Z</time>
      </trkpt>
      <trkpt lat="43.77933" lon="7.06102">
        <ele>987.79998779297</ele>
        <time>2018-12-08T12:51:55.000Z</time>
      </trkpt>
      <trkpt lat="43.77921" lon="7.06108">
        <ele>988.40002441406</ele>
        <time>2018-12-08T12:52:01.000Z</time>
      </trkpt>
      <trkpt lat="43.77916" lon="7.06112">
        <ele>989.20001220703</ele>
        <time>2018-12-08T12:52:04.000Z</time>
      </trkpt>
      <trkpt lat="43.77911" lon="7.06116">
        <ele>989.79998779297</ele>
        <time>2018-12-08T12:52:07.000Z</time>
      </trkpt>
      <trkpt lat="43.77904" lon="7.06121">
        <ele>990.20001220703</ele>
        <time>2018-12-08T12:52:11.000Z</time>
      </trkpt>
      <trkpt lat="43.779" lon="7.06126">
        <ele>990.59997558594</ele>
        <time>2018-12-08T12:52:14.000Z</time>
      </trkpt>
      <trkpt lat="43.77898" lon="7.06129">
        <ele>991.20001220703</ele>
        <time>2018-12-08T12:52:16.000Z</time>
      </trkpt>
      <trkpt lat="43.77892" lon="7.06135">
        <ele>992.20001220703</ele>
        <time>2018-12-08T12:52:21.000Z</time>
      </trkpt>
      <trkpt lat="43.7789" lon="7.06136">
        <ele>992.40002441406</ele>
        <time>2018-12-08T12:52:22.000Z</time>
      </trkpt>
      <trkpt lat="43.77884" lon="7.06142">
        <ele>993</ele>
        <time>2018-12-08T12:52:27.000Z</time>
      </trkpt>
      <trkpt lat="43.77883" lon="7.06145">
        <ele>993.40002441406</ele>
        <time>2018-12-08T12:52:29.000Z</time>
      </trkpt>
      <trkpt lat="43.77879" lon="7.0615">
        <ele>994</ele>
        <time>2018-12-08T12:52:34.000Z</time>
      </trkpt>
      <trkpt lat="43.77878" lon="7.06152">
        <ele>994.40002441406</ele>
        <time>2018-12-08T12:52:36.000Z</time>
      </trkpt>
      <trkpt lat="43.77876" lon="7.06153">
        <ele>994.59997558594</ele>
        <time>2018-12-08T12:52:37.000Z</time>
      </trkpt>
      <trkpt lat="43.77876" lon="7.06157">
        <ele>995</ele>
        <time>2018-12-08T12:52:39.000Z</time>
      </trkpt>
      <trkpt lat="43.77871" lon="7.06163">
        <ele>995.40002441406</ele>
        <time>2018-12-08T12:52:44.000Z</time>
      </trkpt>
      <trkpt lat="43.77871" lon="7.06165">
        <ele>995.79998779297</ele>
        <time>2018-12-08T12:52:45.000Z</time>
      </trkpt>
      <trkpt lat="43.77867" lon="7.06169">
        <ele>996.40002441406</ele>
        <time>2018-12-08T12:52:49.000Z</time>
      </trkpt>
      <trkpt lat="43.77866" lon="7.06171">
        <ele>996.79998779297</ele>
        <time>2018-12-08T12:52:51.000Z</time>
      </trkpt>
      <trkpt lat="43.77861" lon="7.06176">
        <ele>997.59997558594</ele>
        <time>2018-12-08T12:52:57.000Z</time>
      </trkpt>
      <trkpt lat="43.77856" lon="7.06181">
        <ele>998.59997558594</ele>
        <time>2018-12-08T12:53:03.000Z</time>
      </trkpt>
      <trkpt lat="43.77854" lon="7.06183">
        <ele>999.20001220703</ele>
        <time>2018-12-08T12:53:06.000Z</time>
      </trkpt>
      <trkpt lat="43.77852" lon="7.06185">
        <ele>999.59997558594</ele>
        <time>2018-12-08T12:53:09.000Z</time>
      </trkpt>
      <trkpt lat="43.77851" lon="7.06185">
        <ele>999.59997558594</ele>
        <time>2018-12-08T12:53:10.000Z</time>
      </trkpt>
      <trkpt lat="43.77846" lon="7.06188">
        <ele>1000.4000244141</ele>
        <time>2018-12-08T12:53:15.000Z</time>
      </trkpt>
      <trkpt lat="43.77843" lon="7.06191">
        <ele>1000.5999755859</ele>
        <time>2018-12-08T12:53:18.000Z</time>
      </trkpt>
      <trkpt lat="43.7784" lon="7.06195">
        <ele>1001.200012207</ele>
        <time>2018-12-08T12:53:22.000Z</time>
      </trkpt>
      <trkpt lat="43.77838" lon="7.06197">
        <ele>1001.5999755859</ele>
        <time>2018-12-08T12:53:25.000Z</time>
      </trkpt>
      <trkpt lat="43.77837" lon="7.06197">
        <ele>1001.5999755859</ele>
        <time>2018-12-08T12:53:26.000Z</time>
      </trkpt>
      <trkpt lat="43.77836" lon="7.06198">
        <ele>1001.799987793</ele>
        <time>2018-12-08T12:53:27.000Z</time>
      </trkpt>
      <trkpt lat="43.77829" lon="7.06202">
        <ele>1002.5999755859</ele>
        <time>2018-12-08T12:53:33.000Z</time>
      </trkpt>
      <trkpt lat="43.77828" lon="7.06203">
        <ele>1002.799987793</ele>
        <time>2018-12-08T12:53:35.000Z</time>
      </trkpt>
      <trkpt lat="43.77825" lon="7.06205">
        <ele>1003.200012207</ele>
        <time>2018-12-08T12:53:38.000Z</time>
      </trkpt>
      <trkpt lat="43.77821" lon="7.06208">
        <ele>1003.5999755859</ele>
        <time>2018-12-08T12:53:42.000Z</time>
      </trkpt>
      <trkpt lat="43.7782" lon="7.06209">
        <ele>1003.5999755859</ele>
        <time>2018-12-08T12:53:43.000Z</time>
      </trkpt>
      <trkpt lat="43.77817" lon="7.06211">
        <ele>1003.799987793</ele>
        <time>2018-12-08T12:53:46.000Z</time>
      </trkpt>
      <trkpt lat="43.77813" lon="7.06212">
        <ele>1004.200012207</ele>
        <time>2018-12-08T12:53:50.000Z</time>
      </trkpt>
      <trkpt lat="43.77812" lon="7.06213">
        <ele>1004.4000244141</ele>
        <time>2018-12-08T12:53:51.000Z</time>
      </trkpt>
      <trkpt lat="43.77808" lon="7.06217">
        <ele>1004.799987793</ele>
        <time>2018-12-08T12:53:55.000Z</time>
      </trkpt>
      <trkpt lat="43.77807" lon="7.0622">
        <ele>1005.200012207</ele>
        <time>2018-12-08T12:53:57.000Z</time>
      </trkpt>
      <trkpt lat="43.77803" lon="7.06223">
        <ele>1005.799987793</ele>
        <time>2018-12-08T12:54:00.000Z</time>
      </trkpt>
      <trkpt lat="43.77802" lon="7.06224">
        <ele>1006.200012207</ele>
        <time>2018-12-08T12:54:02.000Z</time>
      </trkpt>
      <trkpt lat="43.77799" lon="7.06227">
        <ele>1007</ele>
        <time>2018-12-08T12:54:06.000Z</time>
      </trkpt>
      <trkpt lat="43.77797" lon="7.06228">
        <ele>1007.200012207</ele>
        <time>2018-12-08T12:54:08.000Z</time>
      </trkpt>
      <trkpt lat="43.77794" lon="7.06231">
        <ele>1008.200012207</ele>
        <time>2018-12-08T12:54:14.000Z</time>
      </trkpt>
      <trkpt lat="43.7779" lon="7.06236">
        <ele>1009.200012207</ele>
        <time>2018-12-08T12:54:19.000Z</time>
      </trkpt>
      <trkpt lat="43.77788" lon="7.06238">
        <ele>1009.4000244141</ele>
        <time>2018-12-08T12:54:20.000Z</time>
      </trkpt>
      <trkpt lat="43.77784" lon="7.06243">
        <ele>1010.200012207</ele>
        <time>2018-12-08T12:54:25.000Z</time>
      </trkpt>
      <trkpt lat="43.77782" lon="7.06245">
        <ele>1010.5999755859</ele>
        <time>2018-12-08T12:54:27.000Z</time>
      </trkpt>
      <trkpt lat="43.77779" lon="7.06247">
        <ele>1011.4000244141</ele>
        <time>2018-12-08T12:54:31.000Z</time>
      </trkpt>
      <trkpt lat="43.77776" lon="7.06249">
        <ele>1011.5999755859</ele>
        <time>2018-12-08T12:54:33.000Z</time>
      </trkpt>
      <trkpt lat="43.77773" lon="7.06252">
        <ele>1012.4000244141</ele>
        <time>2018-12-08T12:54:38.000Z</time>
      </trkpt>
      <trkpt lat="43.77772" lon="7.06252">
        <ele>1012.5999755859</ele>
        <time>2018-12-08T12:54:39.000Z</time>
      </trkpt>
      <trkpt lat="43.77769" lon="7.06255">
        <ele>1013.5999755859</ele>
        <time>2018-12-08T12:54:43.000Z</time>
      </trkpt>
      <trkpt lat="43.77765" lon="7.06257">
        <ele>1014.200012207</ele>
        <time>2018-12-08T12:54:47.000Z</time>
      </trkpt>
      <trkpt lat="43.77764" lon="7.06259">
        <ele>1014.5999755859</ele>
        <time>2018-12-08T12:54:49.000Z</time>
      </trkpt>
      <trkpt lat="43.77761" lon="7.06262">
        <ele>1015</ele>
        <time>2018-12-08T12:54:52.000Z</time>
      </trkpt>
      <trkpt lat="43.77758" lon="7.06266">
        <ele>1015.799987793</ele>
        <time>2018-12-08T12:54:56.000Z</time>
      </trkpt>
      <trkpt lat="43.77757" lon="7.06267">
        <ele>1015.799987793</ele>
        <time>2018-12-08T12:54:57.000Z</time>
      </trkpt>
      <trkpt lat="43.77752" lon="7.06272">
        <ele>1016.5999755859</ele>
        <time>2018-12-08T12:55:02.000Z</time>
      </trkpt>
      <trkpt lat="43.77751" lon="7.06272">
        <ele>1016.799987793</ele>
        <time>2018-12-08T12:55:03.000Z</time>
      </trkpt>
      <trkpt lat="43.77744" lon="7.06277">
        <ele>1017.200012207</ele>
        <time>2018-12-08T12:55:08.000Z</time>
      </trkpt>
      <trkpt lat="43.7774" lon="7.0628">
        <ele>1018</ele>
        <time>2018-12-08T12:55:11.000Z</time>
      </trkpt>
      <trkpt lat="43.77738" lon="7.06281">
        <ele>1018.5999755859</ele>
        <time>2018-12-08T12:55:13.000Z</time>
      </trkpt>
      <trkpt lat="43.77735" lon="7.06283">
        <ele>1019</ele>
        <time>2018-12-08T12:55:16.000Z</time>
      </trkpt>
      <trkpt lat="43.77733" lon="7.06285">
        <ele>1019.4000244141</ele>
        <time>2018-12-08T12:55:18.000Z</time>
      </trkpt>
      <trkpt lat="43.77731" lon="7.06286">
        <ele>1019.5999755859</ele>
        <time>2018-12-08T12:55:20.000Z</time>
      </trkpt>
      <trkpt lat="43.77727" lon="7.06287">
        <ele>1020</ele>
        <time>2018-12-08T12:55:23.000Z</time>
      </trkpt>
      <trkpt lat="43.77724" lon="7.06289">
        <ele>1020.5999755859</ele>
        <time>2018-12-08T12:55:27.000Z</time>
      </trkpt>
      <trkpt lat="43.7772" lon="7.06292">
        <ele>1021.200012207</ele>
        <time>2018-12-08T12:55:31.000Z</time>
      </trkpt>
      <trkpt lat="43.77718" lon="7.06293">
        <ele>1021.5999755859</ele>
        <time>2018-12-08T12:55:33.000Z</time>
      </trkpt>
      <trkpt lat="43.77713" lon="7.06295">
        <ele>1022.4000244141</ele>
        <time>2018-12-08T12:55:39.000Z</time>
      </trkpt>
      <trkpt lat="43.77711" lon="7.06296">
        <ele>1022.4000244141</ele>
        <time>2018-12-08T12:55:40.000Z</time>
      </trkpt>
      <trkpt lat="43.77706" lon="7.06298">
        <ele>1023</ele>
        <time>2018-12-08T12:55:46.000Z</time>
      </trkpt>
      <trkpt lat="43.77704" lon="7.063">
        <ele>1023.4000244141</ele>
        <time>2018-12-08T12:55:49.000Z</time>
      </trkpt>
      <trkpt lat="43.77702" lon="7.063">
        <ele>1023.5999755859</ele>
        <time>2018-12-08T12:55:51.000Z</time>
      </trkpt>
      <trkpt lat="43.77696" lon="7.063">
        <ele>1023.799987793</ele>
        <time>2018-12-08T12:55:57.000Z</time>
      </trkpt>
      <trkpt lat="43.77691" lon="7.06302">
        <ele>1024.4000244141</ele>
        <time>2018-12-08T12:56:03.000Z</time>
      </trkpt>
      <trkpt lat="43.77687" lon="7.06306">
        <ele>1025</ele>
        <time>2018-12-08T12:56:08.000Z</time>
      </trkpt>
      <trkpt lat="43.77684" lon="7.06308">
        <ele>1025.1999511719</ele>
        <time>2018-12-08T12:56:10.000Z</time>
      </trkpt>
      <trkpt lat="43.77682" lon="7.0631">
        <ele>1025.5999755859</ele>
        <time>2018-12-08T12:56:12.000Z</time>
      </trkpt>
      <trkpt lat="43.77681" lon="7.06311">
        <ele>1025.8000488281</ele>
        <time>2018-12-08T12:56:13.000Z</time>
      </trkpt>
      <trkpt lat="43.77675" lon="7.06316">
        <ele>1026.8000488281</ele>
        <time>2018-12-08T12:56:19.000Z</time>
      </trkpt>
      <trkpt lat="43.7767" lon="7.06321">
        <ele>1027.4000244141</ele>
        <time>2018-12-08T12:56:24.000Z</time>
      </trkpt>
      <trkpt lat="43.77666" lon="7.06326">
        <ele>1027.8000488281</ele>
        <time>2018-12-08T12:56:28.000Z</time>
      </trkpt>
      <trkpt lat="43.77664" lon="7.06327">
        <ele>1027.8000488281</ele>
        <time>2018-12-08T12:56:29.000Z</time>
      </trkpt>
      <trkpt lat="43.77663" lon="7.06328">
        <ele>1028</ele>
        <time>2018-12-08T12:56:30.000Z</time>
      </trkpt>
      <trkpt lat="43.77659" lon="7.06329">
        <ele>1028.5999755859</ele>
        <time>2018-12-08T12:56:33.000Z</time>
      </trkpt>
      <trkpt lat="43.77656" lon="7.06331">
        <ele>1029</ele>
        <time>2018-12-08T12:56:35.000Z</time>
      </trkpt>
      <trkpt lat="43.77655" lon="7.0633">
        <ele>1029.1999511719</ele>
        <time>2018-12-08T12:56:36.000Z</time>
      </trkpt>
      <trkpt lat="43.77654" lon="7.06331">
        <ele>1029.1999511719</ele>
        <time>2018-12-08T12:56:37.000Z</time>
      </trkpt>
      <trkpt lat="43.77649" lon="7.06333">
        <ele>1030</ele>
        <time>2018-12-08T12:56:42.000Z</time>
      </trkpt>
      <trkpt lat="43.77647" lon="7.06333">
        <ele>1030</ele>
        <time>2018-12-08T12:56:43.000Z</time>
      </trkpt>
      <trkpt lat="43.77644" lon="7.06334">
        <ele>1030.1999511719</ele>
        <time>2018-12-08T12:56:45.000Z</time>
      </trkpt>
      <trkpt lat="43.77641" lon="7.06335">
        <ele>1030.8000488281</ele>
        <time>2018-12-08T12:56:48.000Z</time>
      </trkpt>
      <trkpt lat="43.77639" lon="7.06338">
        <ele>1031.4000244141</ele>
        <time>2018-12-08T12:56:52.000Z</time>
      </trkpt>
      <trkpt lat="43.77637" lon="7.06339">
        <ele>1031.5999755859</ele>
        <time>2018-12-08T12:56:53.000Z</time>
      </trkpt>
      <trkpt lat="43.77636" lon="7.0634">
        <ele>1031.5999755859</ele>
        <time>2018-12-08T12:56:54.000Z</time>
      </trkpt>
      <trkpt lat="43.77629" lon="7.06341">
        <ele>1032.1999511719</ele>
        <time>2018-12-08T12:56:59.000Z</time>
      </trkpt>
      <trkpt lat="43.77626" lon="7.06341">
        <ele>1032.4000244141</ele>
        <time>2018-12-08T12:57:01.000Z</time>
      </trkpt>
      <trkpt lat="43.7762" lon="7.06343">
        <ele>1033</ele>
        <time>2018-12-08T12:57:06.000Z</time>
      </trkpt>
      <trkpt lat="43.77614" lon="7.06343">
        <ele>1033.4000244141</ele>
        <time>2018-12-08T12:57:11.000Z</time>
      </trkpt>
      <trkpt lat="43.77612" lon="7.06343">
        <ele>1033.5999755859</ele>
        <time>2018-12-08T12:57:12.000Z</time>
      </trkpt>
      <trkpt lat="43.77602" lon="7.06342">
        <ele>1034.5999755859</ele>
        <time>2018-12-08T12:57:18.000Z</time>
      </trkpt>
      <trkpt lat="43.77601" lon="7.06342">
        <ele>1035</ele>
        <time>2018-12-08T12:57:19.000Z</time>
      </trkpt>
      <trkpt lat="43.7759" lon="7.06339">
        <ele>1035.4000244141</ele>
        <time>2018-12-08T12:57:27.000Z</time>
      </trkpt>
      <trkpt lat="43.77576" lon="7.06334">
        <ele>1035.5999755859</ele>
        <time>2018-12-08T12:57:35.000Z</time>
      </trkpt>
      <trkpt lat="43.77564" lon="7.06329">
        <ele>1035.4000244141</ele>
        <time>2018-12-08T12:57:41.000Z</time>
      </trkpt>
      <trkpt lat="43.77552" lon="7.06326">
        <ele>1035.5999755859</ele>
        <time>2018-12-08T12:57:47.000Z</time>
      </trkpt>
      <trkpt lat="43.7754" lon="7.06324">
        <ele>1035.4000244141</ele>
        <time>2018-12-08T12:57:52.000Z</time>
      </trkpt>
      <trkpt lat="43.77533" lon="7.06323">
        <ele>1035.5999755859</ele>
        <time>2018-12-08T12:57:55.000Z</time>
      </trkpt>
      <trkpt lat="43.77527" lon="7.06323">
        <ele>1036</ele>
        <time>2018-12-08T12:57:58.000Z</time>
      </trkpt>
      <trkpt lat="43.77515" lon="7.06323">
        <ele>1036.5999755859</ele>
        <time>2018-12-08T12:58:03.000Z</time>
      </trkpt>
      <trkpt lat="43.77502" lon="7.06326">
        <ele>1036.1999511719</ele>
        <time>2018-12-08T12:58:09.000Z</time>
      </trkpt>
      <trkpt lat="43.77496" lon="7.06333">
        <ele>1035.5999755859</ele>
        <time>2018-12-08T12:58:12.000Z</time>
      </trkpt>
      <trkpt lat="43.77495" lon="7.0634">
        <ele>1035.4000244141</ele>
        <time>2018-12-08T12:58:14.000Z</time>
      </trkpt>
      <trkpt lat="43.77494" lon="7.0635">
        <ele>1034.4000244141</ele>
        <time>2018-12-08T12:58:16.000Z</time>
      </trkpt>
      <trkpt lat="43.77494" lon="7.06355">
        <ele>1034</ele>
        <time>2018-12-08T12:58:17.000Z</time>
      </trkpt>
      <trkpt lat="43.77495" lon="7.06361">
        <ele>1033.4000244141</ele>
        <time>2018-12-08T12:58:18.000Z</time>
      </trkpt>
      <trkpt lat="43.77496" lon="7.06371">
        <ele>1032</ele>
        <time>2018-12-08T12:58:20.000Z</time>
      </trkpt>
      <trkpt lat="43.77496" lon="7.0638">
        <ele>1031.1999511719</ele>
        <time>2018-12-08T12:58:23.000Z</time>
      </trkpt>
      <trkpt lat="43.77495" lon="7.0638">
        <ele>1031</ele>
        <time>2018-12-08T12:58:27.000Z</time>
      </trkpt>
      <trkpt lat="43.77495" lon="7.0638">
        <ele>1030.8000488281</ele>
        <time>2018-12-08T12:58:28.000Z</time>
      </trkpt>
      <trkpt lat="43.77494" lon="7.06381">
        <ele>1031</ele>
        <time>2018-12-08T12:58:37.000Z</time>
      </trkpt>
      <trkpt lat="43.77492" lon="7.06381">
        <ele>1031.8000488281</ele>
        <time>2018-12-08T12:58:43.000Z</time>
      </trkpt>
      <trkpt lat="43.77491" lon="7.06381">
        <ele>1032</ele>
        <time>2018-12-08T12:58:49.000Z</time>
      </trkpt>
      <trkpt lat="43.7749" lon="7.06382">
        <ele>1031.8000488281</ele>
        <time>2018-12-08T12:58:53.000Z</time>
      </trkpt>
      <trkpt lat="43.77489" lon="7.06383">
        <ele>1031.1999511719</ele>
        <time>2018-12-08T12:59:06.000Z</time>
      </trkpt>
      <trkpt lat="43.77488" lon="7.06383">
        <ele>1031.8000488281</ele>
        <time>2018-12-08T12:59:11.000Z</time>
      </trkpt>
      <trkpt lat="43.77486" lon="7.06383">
        <ele>1031.5999755859</ele>
        <time>2018-12-08T12:59:17.000Z</time>
      </trkpt>
      <trkpt lat="43.77485" lon="7.06384">
        <ele>1031.4000244141</ele>
        <time>2018-12-08T12:59:27.000Z</time>
      </trkpt>
      <trkpt lat="43.77482" lon="7.06386">
        <ele>1031.4000244141</ele>
        <time>2018-12-08T12:59:40.000Z</time>
      </trkpt>
      <trkpt lat="43.77482" lon="7.06387">
        <ele>1031.8000488281</ele>
        <time>2018-12-08T12:59:51.000Z</time>
      </trkpt>
      <trkpt lat="43.77481" lon="7.06387">
        <ele>1031</ele>
        <time>2018-12-08T12:59:57.000Z</time>
      </trkpt>
      <trkpt lat="43.77482" lon="7.0639">
        <ele>1031.4000244141</ele>
        <time>2018-12-08T13:00:02.000Z</time>
      </trkpt>
      <trkpt lat="43.77483" lon="7.06388">
        <ele>1031.1999511719</ele>
        <time>2018-12-08T13:00:05.000Z</time>
      </trkpt>
      <trkpt lat="43.77483" lon="7.06388">
        <ele>1031.1999511719</ele>
        <time>2018-12-08T13:00:07.000Z</time>
      </trkpt>
      <trkpt lat="43.77483" lon="7.06391">
        <ele>1031.1999511719</ele>
        <time>2018-12-08T13:00:14.000Z</time>
      </trkpt>
      <trkpt lat="43.77482" lon="7.06391">
        <ele>1031.4000244141</ele>
        <time>2018-12-08T13:00:21.000Z</time>
      </trkpt>
      <trkpt lat="43.77481" lon="7.06391">
        <ele>1031.4000244141</ele>
        <time>2018-12-08T13:00:28.000Z</time>
      </trkpt>
      <trkpt lat="43.77481" lon="7.06391">
        <ele>1031.4000244141</ele>
        <time>2018-12-08T13:00:36.000Z</time>
      </trkpt>
      <trkpt lat="43.77481" lon="7.06392">
        <ele>1031.1999511719</ele>
        <time>2018-12-08T13:00:46.000Z</time>
      </trkpt>
      <trkpt lat="43.7748" lon="7.06395">
        <ele>1031.1999511719</ele>
        <time>2018-12-08T13:00:54.000Z</time>
      </trkpt>
      <trkpt lat="43.7748" lon="7.06395">
        <ele>1031</ele>
        <time>2018-12-08T13:01:01.000Z</time>
      </trkpt>
      <trkpt lat="43.77478" lon="7.06397">
        <ele>1031</ele>
        <time>2018-12-08T13:01:08.000Z</time>
      </trkpt>
      <trkpt lat="43.77476" lon="7.06398">
        <ele>1030.8000488281</ele>
        <time>2018-12-08T13:01:11.000Z</time>
      </trkpt>
      <trkpt lat="43.77476" lon="7.06399">
        <ele>1030.4000244141</ele>
        <time>2018-12-08T13:01:15.000Z</time>
      </trkpt>
      <trkpt lat="43.77476" lon="7.06398">
        <ele>1030.4000244141</ele>
        <time>2018-12-08T13:01:21.000Z</time>
      </trkpt>
      <trkpt lat="43.77476" lon="7.06397">
        <ele>1030.8000488281</ele>
        <time>2018-12-08T13:01:34.000Z</time>
      </trkpt>
      <trkpt lat="43.77476" lon="7.06396">
        <ele>1031.5999755859</ele>
        <time>2018-12-08T13:01:44.000Z</time>
      </trkpt>
      <trkpt lat="43.77477" lon="7.06394">
        <ele>1030.8000488281</ele>
        <time>2018-12-08T13:01:53.000Z</time>
      </trkpt>
      <trkpt lat="43.77479" lon="7.06391">
        <ele>1031.1999511719</ele>
        <time>2018-12-08T13:02:00.000Z</time>
      </trkpt>
      <trkpt lat="43.77481" lon="7.06388">
        <ele>1031.4000244141</ele>
        <time>2018-12-08T13:02:09.000Z</time>
      </trkpt>
      <trkpt lat="43.77481" lon="7.06387">
        <ele>1031.5999755859</ele>
        <time>2018-12-08T13:02:21.000Z</time>
      </trkpt>
      <trkpt lat="43.77481" lon="7.06385">
        <ele>1031.1999511719</ele>
        <time>2018-12-08T13:02:26.000Z</time>
      </trkpt>
      <trkpt lat="43.77481" lon="7.06385">
        <ele>1030.5999755859</ele>
        <time>2018-12-08T13:02:34.000Z</time>
      </trkpt>
      <trkpt lat="43.77481" lon="7.06385">
        <ele>1031.4000244141</ele>
        <time>2018-12-08T13:02:39.000Z</time>
      </trkpt>
      <trkpt lat="43.77481" lon="7.06385">
        <ele>1031.8000488281</ele>
        <time>2018-12-08T13:02:45.000Z</time>
      </trkpt>
      <trkpt lat="43.77481" lon="7.06385">
        <ele>1031.5999755859</ele>
        <time>2018-12-08T13:02:49.000Z</time>
      </trkpt>
      <trkpt lat="43.7748" lon="7.06385">
        <ele>1031</ele>
        <time>2018-12-08T13:03:01.000Z</time>
      </trkpt>
      <trkpt lat="43.77479" lon="7.06383">
        <ele>1031</ele>
        <time>2018-12-08T13:03:03.000Z</time>
      </trkpt>
      <trkpt lat="43.77479" lon="7.06383">
        <ele>1031.8000488281</ele>
        <time>2018-12-08T13:03:07.000Z</time>
      </trkpt>
      <trkpt lat="43.77479" lon="7.06383">
        <ele>1031.8000488281</ele>
        <time>2018-12-08T13:03:13.000Z</time>
      </trkpt>
      <trkpt lat="43.77477" lon="7.06382">
        <ele>1031.8000488281</ele>
        <time>2018-12-08T13:03:18.000Z</time>
      </trkpt>
      <trkpt lat="43.77474" lon="7.06381">
        <ele>1031.8000488281</ele>
        <time>2018-12-08T13:03:20.000Z</time>
      </trkpt>
      <trkpt lat="43.77469" lon="7.06388">
        <ele>1030.5999755859</ele>
        <time>2018-12-08T13:03:24.000Z</time>
      </trkpt>
      <trkpt lat="43.77464" lon="7.06393">
        <ele>1029.4000244141</ele>
        <time>2018-12-08T13:03:26.000Z</time>
      </trkpt>
      <trkpt lat="43.7746" lon="7.06393">
        <ele>1028.4000244141</ele>
        <time>2018-12-08T13:03:27.000Z</time>
      </trkpt>
      <trkpt lat="43.77457" lon="7.0639">
        <ele>1028</ele>
        <time>2018-12-08T13:03:28.000Z</time>
      </trkpt>
      <trkpt lat="43.77452" lon="7.06382">
        <ele>1026.8000488281</ele>
        <time>2018-12-08T13:03:30.000Z</time>
      </trkpt>
      <trkpt lat="43.77445" lon="7.06371">
        <ele>1025.1999511719</ele>
        <time>2018-12-08T13:03:32.000Z</time>
      </trkpt>
      <trkpt lat="43.77441" lon="7.06365">
        <ele>1024.4000244141</ele>
        <time>2018-12-08T13:03:33.000Z</time>
      </trkpt>
      <trkpt lat="43.77437" lon="7.0636">
        <ele>1023.4000244141</ele>
        <time>2018-12-08T13:03:34.000Z</time>
      </trkpt>
      <trkpt lat="43.77433" lon="7.06356">
        <ele>1021.799987793</ele>
        <time>2018-12-08T13:03:36.000Z</time>
      </trkpt>
      <trkpt lat="43.77433" lon="7.06356">
        <ele>1021.5999755859</ele>
        <time>2018-12-08T13:03:37.000Z</time>
      </trkpt>
      <trkpt lat="43.77433" lon="7.06356">
        <ele>1020.799987793</ele>
        <time>2018-12-08T13:03:39.000Z</time>
      </trkpt>
      <trkpt lat="43.77433" lon="7.06356">
        <ele>1020.5999755859</ele>
        <time>2018-12-08T13:03:42.000Z</time>
      </trkpt>
      <trkpt lat="43.77426" lon="7.06347">
        <ele>1020.5999755859</ele>
        <time>2018-12-08T13:03:46.000Z</time>
      </trkpt>
      <trkpt lat="43.77416" lon="7.06335">
        <ele>1019.5999755859</ele>
        <time>2018-12-08T13:03:51.000Z</time>
      </trkpt>
      <trkpt lat="43.77409" lon="7.06328">
        <ele>1019</ele>
        <time>2018-12-08T13:03:58.000Z</time>
      </trkpt>
      <trkpt lat="43.77409" lon="7.06328">
        <ele>1018.5999755859</ele>
        <time>2018-12-08T13:04:02.000Z</time>
      </trkpt>
      <trkpt lat="43.77409" lon="7.06329">
        <ele>1018.4000244141</ele>
        <time>2018-12-08T13:04:10.000Z</time>
      </trkpt>
      <trkpt lat="43.77407" lon="7.06331">
        <ele>1018.5999755859</ele>
        <time>2018-12-08T13:04:19.000Z</time>
      </trkpt>
      <trkpt lat="43.77405" lon="7.06334">
        <ele>1018.799987793</ele>
        <time>2018-12-08T13:04:31.000Z</time>
      </trkpt>
      <trkpt lat="43.77405" lon="7.06335">
        <ele>1018.5999755859</ele>
        <time>2018-12-08T13:04:38.000Z</time>
      </trkpt>
      <trkpt lat="43.77405" lon="7.06335">
        <ele>1018.200012207</ele>
        <time>2018-12-08T13:04:45.000Z</time>
      </trkpt>
      <trkpt lat="43.77403" lon="7.06331">
        <ele>1018.5999755859</ele>
        <time>2018-12-08T13:04:51.000Z</time>
      </trkpt>
      <trkpt lat="43.77394" lon="7.06322">
        <ele>1018.5999755859</ele>
        <time>2018-12-08T13:04:57.000Z</time>
      </trkpt>
      <trkpt lat="43.77382" lon="7.06315">
        <ele>1018.5999755859</ele>
        <time>2018-12-08T13:05:04.000Z</time>
      </trkpt>
      <trkpt lat="43.77368" lon="7.0631">
        <ele>1019.200012207</ele>
        <time>2018-12-08T13:05:11.000Z</time>
      </trkpt>
      <trkpt lat="43.77362" lon="7.06308">
        <ele>1019.5999755859</ele>
        <time>2018-12-08T13:05:15.000Z</time>
      </trkpt>
      <trkpt lat="43.77358" lon="7.06307">
        <ele>1019.5999755859</ele>
        <time>2018-12-08T13:05:17.000Z</time>
      </trkpt>
      <trkpt lat="43.77347" lon="7.063">
        <ele>1020.5999755859</ele>
        <time>2018-12-08T13:05:24.000Z</time>
      </trkpt>
      <trkpt lat="43.77337" lon="7.0629">
        <ele>1021.4000244141</ele>
        <time>2018-12-08T13:05:31.000Z</time>
      </trkpt>
      <trkpt lat="43.77335" lon="7.06286">
        <ele>1021.799987793</ele>
        <time>2018-12-08T13:05:33.000Z</time>
      </trkpt>
      <trkpt lat="43.77327" lon="7.06274">
        <ele>1022.4000244141</ele>
        <time>2018-12-08T13:05:39.000Z</time>
      </trkpt>
      <trkpt lat="43.77316" lon="7.06253">
        <ele>1022.200012207</ele>
        <time>2018-12-08T13:05:48.000Z</time>
      </trkpt>
      <trkpt lat="43.77305" lon="7.06233">
        <ele>1022.5999755859</ele>
        <time>2018-12-08T13:05:56.000Z</time>
      </trkpt>
      <trkpt lat="43.773" lon="7.06223">
        <ele>1022.799987793</ele>
        <time>2018-12-08T13:06:00.000Z</time>
      </trkpt>
      <trkpt lat="43.77295" lon="7.06211">
        <ele>1023.200012207</ele>
        <time>2018-12-08T13:06:05.000Z</time>
      </trkpt>
      <trkpt lat="43.77286" lon="7.06195">
        <ele>1024</ele>
        <time>2018-12-08T13:06:12.000Z</time>
      </trkpt>
      <trkpt lat="43.7728" lon="7.06179">
        <ele>1024.4000244141</ele>
        <time>2018-12-08T13:06:18.000Z</time>
      </trkpt>
      <trkpt lat="43.7727" lon="7.06151">
        <ele>1023.5999755859</ele>
        <time>2018-12-08T13:06:24.000Z</time>
      </trkpt>
      <trkpt lat="43.77266" lon="7.06135">
        <ele>1022.799987793</ele>
        <time>2018-12-08T13:06:27.000Z</time>
      </trkpt>
      <trkpt lat="43.77261" lon="7.06112">
        <ele>1021.5999755859</ele>
        <time>2018-12-08T13:06:31.000Z</time>
      </trkpt>
      <trkpt lat="43.77259" lon="7.06106">
        <ele>1021.4000244141</ele>
        <time>2018-12-08T13:06:32.000Z</time>
      </trkpt>
      <trkpt lat="43.77256" lon="7.06089">
        <ele>1020.5999755859</ele>
        <time>2018-12-08T13:06:36.000Z</time>
      </trkpt>
      <trkpt lat="43.77256" lon="7.06084">
        <ele>1020.799987793</ele>
        <time>2018-12-08T13:06:37.000Z</time>
      </trkpt>
      <trkpt lat="43.77255" lon="7.06068">
        <ele>1020.4000244141</ele>
        <time>2018-12-08T13:06:42.000Z</time>
      </trkpt>
      <trkpt lat="43.77255" lon="7.06067">
        <ele>1019.799987793</ele>
        <time>2018-12-08T13:06:46.000Z</time>
      </trkpt>
      <trkpt lat="43.77255" lon="7.06066">
        <ele>1019.5999755859</ele>
        <time>2018-12-08T13:06:49.000Z</time>
      </trkpt>
      <trkpt lat="43.77254" lon="7.0606">
        <ele>1019.799987793</ele>
        <time>2018-12-08T13:06:56.000Z</time>
      </trkpt>
      <trkpt lat="43.7725" lon="7.06035">
        <ele>1019</ele>
        <time>2018-12-08T13:07:01.000Z</time>
      </trkpt>
      <trkpt lat="43.77249" lon="7.06024">
        <ele>1018.4000244141</ele>
        <time>2018-12-08T13:07:03.000Z</time>
      </trkpt>
      <trkpt lat="43.77249" lon="7.06">
        <ele>1017.799987793</ele>
        <time>2018-12-08T13:07:07.000Z</time>
      </trkpt>
      <trkpt lat="43.7725" lon="7.05994">
        <ele>1017.5999755859</ele>
        <time>2018-12-08T13:07:08.000Z</time>
      </trkpt>
      <trkpt lat="43.77251" lon="7.05988">
        <ele>1017.4000244141</ele>
        <time>2018-12-08T13:07:09.000Z</time>
      </trkpt>
      <trkpt lat="43.77251" lon="7.05976">
        <ele>1017.200012207</ele>
        <time>2018-12-08T13:07:11.000Z</time>
      </trkpt>
      <trkpt lat="43.77252" lon="7.05955">
        <ele>1016.5999755859</ele>
        <time>2018-12-08T13:07:14.000Z</time>
      </trkpt>
      <trkpt lat="43.77253" lon="7.05938">
        <ele>1016</ele>
        <time>2018-12-08T13:07:16.000Z</time>
      </trkpt>
      <trkpt lat="43.77254" lon="7.05914">
        <ele>1014.799987793</ele>
        <time>2018-12-08T13:07:19.000Z</time>
      </trkpt>
      <trkpt lat="43.77254" lon="7.05905">
        <ele>1014.4000244141</ele>
        <time>2018-12-08T13:07:20.000Z</time>
      </trkpt>
      <trkpt lat="43.77255" lon="7.05885">
        <ele>1013.5999755859</ele>
        <time>2018-12-08T13:07:22.000Z</time>
      </trkpt>
      <trkpt lat="43.77257" lon="7.05865">
        <ele>1012.200012207</ele>
        <time>2018-12-08T13:07:24.000Z</time>
      </trkpt>
      <trkpt lat="43.77257" lon="7.05853">
        <ele>1011.5999755859</ele>
        <time>2018-12-08T13:07:25.000Z</time>
      </trkpt>
      <trkpt lat="43.77258" lon="7.05842">
        <ele>1010.5999755859</ele>
        <time>2018-12-08T13:07:26.000Z</time>
      </trkpt>
      <trkpt lat="43.77259" lon="7.05819">
        <ele>1009</ele>
        <time>2018-12-08T13:07:28.000Z</time>
      </trkpt>
      <trkpt lat="43.77261" lon="7.05796">
        <ele>1007</ele>
        <time>2018-12-08T13:07:30.000Z</time>
      </trkpt>
      <trkpt lat="43.77262" lon="7.05784">
        <ele>1006</ele>
        <time>2018-12-08T13:07:31.000Z</time>
      </trkpt>
      <trkpt lat="43.77263" lon="7.05773">
        <ele>1005.200012207</ele>
        <time>2018-12-08T13:07:32.000Z</time>
      </trkpt>
      <trkpt lat="43.77264" lon="7.05761">
        <ele>1004.200012207</ele>
        <time>2018-12-08T13:07:33.000Z</time>
      </trkpt>
      <trkpt lat="43.77266" lon="7.05751">
        <ele>1003.799987793</ele>
        <time>2018-12-08T13:07:34.000Z</time>
      </trkpt>
      <trkpt lat="43.77272" lon="7.0572">
        <ele>1003</ele>
        <time>2018-12-08T13:07:37.000Z</time>
      </trkpt>
      <trkpt lat="43.77278" lon="7.05682">
        <ele>1001.799987793</ele>
        <time>2018-12-08T13:07:41.000Z</time>
      </trkpt>
      <trkpt lat="43.77282" lon="7.05656">
        <ele>1000.799987793</ele>
        <time>2018-12-08T13:07:44.000Z</time>
      </trkpt>
      <trkpt lat="43.77287" lon="7.05624">
        <ele>999.79998779297</ele>
        <time>2018-12-08T13:07:48.000Z</time>
      </trkpt>
      <trkpt lat="43.77289" lon="7.0561">
        <ele>999.20001220703</ele>
        <time>2018-12-08T13:07:50.000Z</time>
      </trkpt>
      <trkpt lat="43.77291" lon="7.05598">
        <ele>998.59997558594</ele>
        <time>2018-12-08T13:07:52.000Z</time>
      </trkpt>
      <trkpt lat="43.77293" lon="7.05586">
        <ele>997.79998779297</ele>
        <time>2018-12-08T13:07:55.000Z</time>
      </trkpt>
      <trkpt lat="43.77295" lon="7.05579">
        <ele>997.40002441406</ele>
        <time>2018-12-08T13:07:57.000Z</time>
      </trkpt>
      <trkpt lat="43.77292" lon="7.0557">
        <ele>996.79998779297</ele>
        <time>2018-12-08T13:08:00.000Z</time>
      </trkpt>
      <trkpt lat="43.7729" lon="7.0557">
        <ele>996.40002441406</ele>
        <time>2018-12-08T13:08:02.000Z</time>
      </trkpt>
      <trkpt lat="43.77291" lon="7.0557">
        <ele>995.79998779297</ele>
        <time>2018-12-08T13:08:04.000Z</time>
      </trkpt>
      <trkpt lat="43.7729" lon="7.05571">
        <ele>996.20001220703</ele>
        <time>2018-12-08T13:08:11.000Z</time>
      </trkpt>
      <trkpt lat="43.7729" lon="7.0557">
        <ele>996</ele>
        <time>2018-12-08T13:08:24.000Z</time>
      </trkpt>
      <trkpt lat="43.7729" lon="7.05571">
        <ele>996.59997558594</ele>
        <time>2018-12-08T13:08:32.000Z</time>
      </trkpt>
      <trkpt lat="43.77288" lon="7.05572">
        <ele>996.20001220703</ele>
        <time>2018-12-08T13:08:37.000Z</time>
      </trkpt>
      <trkpt lat="43.77287" lon="7.05574">
        <ele>996.20001220703</ele>
        <time>2018-12-08T13:08:38.000Z</time>
      </trkpt>
      <trkpt lat="43.77284" lon="7.05581">
        <ele>995.79998779297</ele>
        <time>2018-12-08T13:08:41.000Z</time>
      </trkpt>
      <trkpt lat="43.77283" lon="7.05586">
        <ele>995.40002441406</ele>
        <time>2018-12-08T13:08:45.000Z</time>
      </trkpt>
      <trkpt lat="43.77282" lon="7.05587">
        <ele>995</ele>
        <time>2018-12-08T13:08:46.000Z</time>
      </trkpt>
      <trkpt lat="43.77279" lon="7.05583">
        <ele>994.79998779297</ele>
        <time>2018-12-08T13:08:51.000Z</time>
      </trkpt>
      <trkpt lat="43.77278" lon="7.0558">
        <ele>994.79998779297</ele>
        <time>2018-12-08T13:08:52.000Z</time>
      </trkpt>
      <trkpt lat="43.77277" lon="7.05573">
        <ele>994</ele>
        <time>2018-12-08T13:08:55.000Z</time>
      </trkpt>
      <trkpt lat="43.77273" lon="7.05572">
        <ele>993.20001220703</ele>
        <time>2018-12-08T13:08:57.000Z</time>
      </trkpt>
      <trkpt lat="43.7727" lon="7.05574">
        <ele>992.59997558594</ele>
        <time>2018-12-08T13:08:58.000Z</time>
      </trkpt>
      <trkpt lat="43.77268" lon="7.05582">
        <ele>991.40002441406</ele>
        <time>2018-12-08T13:09:00.000Z</time>
      </trkpt>
      <trkpt lat="43.77263" lon="7.05589">
        <ele>990.40002441406</ele>
        <time>2018-12-08T13:09:02.000Z</time>
      </trkpt>
      <trkpt lat="43.7726" lon="7.05592">
        <ele>990.20001220703</ele>
        <time>2018-12-08T13:09:03.000Z</time>
      </trkpt>
      <trkpt lat="43.77258" lon="7.0559">
        <ele>989.79998779297</ele>
        <time>2018-12-08T13:09:04.000Z</time>
      </trkpt>
      <trkpt lat="43.77255" lon="7.05587">
        <ele>989.40002441406</ele>
        <time>2018-12-08T13:09:05.000Z</time>
      </trkpt>
      <trkpt lat="43.77252" lon="7.05584">
        <ele>989</ele>
        <time>2018-12-08T13:09:06.000Z</time>
      </trkpt>
      <trkpt lat="43.77248" lon="7.05581">
        <ele>987.59997558594</ele>
        <time>2018-12-08T13:09:08.000Z</time>
      </trkpt>
      <trkpt lat="43.77246" lon="7.0558">
        <ele>987</ele>
        <time>2018-12-08T13:09:09.000Z</time>
      </trkpt>
      <trkpt lat="43.77245" lon="7.0558">
        <ele>986.40002441406</ele>
        <time>2018-12-08T13:09:10.000Z</time>
      </trkpt>
      <trkpt lat="43.77246" lon="7.05586">
        <ele>986</ele>
        <time>2018-12-08T13:09:13.000Z</time>
      </trkpt>
      <trkpt lat="43.77245" lon="7.056">
        <ele>985.79998779297</ele>
        <time>2018-12-08T13:09:17.000Z</time>
      </trkpt>
      <trkpt lat="43.77235" lon="7.05602">
        <ele>985.59997558594</ele>
        <time>2018-12-08T13:09:20.000Z</time>
      </trkpt>
      <trkpt lat="43.77231" lon="7.05602">
        <ele>985.20001220703</ele>
        <time>2018-12-08T13:09:21.000Z</time>
      </trkpt>
      <trkpt lat="43.77223" lon="7.05607">
        <ele>984</ele>
        <time>2018-12-08T13:09:24.000Z</time>
      </trkpt>
      <trkpt lat="43.77213" lon="7.05624">
        <ele>983.79998779297</ele>
        <time>2018-12-08T13:09:27.000Z</time>
      </trkpt>
      <trkpt lat="43.77209" lon="7.05642">
        <ele>983.59997558594</ele>
        <time>2018-12-08T13:09:30.000Z</time>
      </trkpt>
      <trkpt lat="43.77206" lon="7.05655">
        <ele>983</ele>
        <time>2018-12-08T13:09:32.000Z</time>
      </trkpt>
      <trkpt lat="43.77201" lon="7.05676">
        <ele>981.40002441406</ele>
        <time>2018-12-08T13:09:35.000Z</time>
      </trkpt>
      <trkpt lat="43.77197" lon="7.05687">
        <ele>980.59997558594</ele>
        <time>2018-12-08T13:09:36.000Z</time>
      </trkpt>
      <trkpt lat="43.77196" lon="7.05693">
        <ele>980</ele>
        <time>2018-12-08T13:09:37.000Z</time>
      </trkpt>
      <trkpt lat="43.77195" lon="7.05699">
        <ele>979.20001220703</ele>
        <time>2018-12-08T13:09:38.000Z</time>
      </trkpt>
      <trkpt lat="43.77193" lon="7.05706">
        <ele>978.59997558594</ele>
        <time>2018-12-08T13:09:39.000Z</time>
      </trkpt>
      <trkpt lat="43.77191" lon="7.0572">
        <ele>977.40002441406</ele>
        <time>2018-12-08T13:09:41.000Z</time>
      </trkpt>
      <trkpt lat="43.77191" lon="7.05724">
        <ele>977</ele>
        <time>2018-12-08T13:09:42.000Z</time>
      </trkpt>
      <trkpt lat="43.77188" lon="7.0573">
        <ele>976.79998779297</ele>
        <time>2018-12-08T13:09:43.000Z</time>
      </trkpt>
      <trkpt lat="43.77184" lon="7.05738">
        <ele>976.40002441406</ele>
        <time>2018-12-08T13:09:45.000Z</time>
      </trkpt>
      <trkpt lat="43.77182" lon="7.05741">
        <ele>976.40002441406</ele>
        <time>2018-12-08T13:09:46.000Z</time>
      </trkpt>
      <trkpt lat="43.7718" lon="7.05745">
        <ele>976.20001220703</ele>
        <time>2018-12-08T13:09:48.000Z</time>
      </trkpt>
      <trkpt lat="43.77178" lon="7.05747">
        <ele>976.20001220703</ele>
        <time>2018-12-08T13:09:49.000Z</time>
      </trkpt>
      <trkpt lat="43.77178" lon="7.05749">
        <ele>976.40002441406</ele>
        <time>2018-12-08T13:09:50.000Z</time>
      </trkpt>
      <trkpt lat="43.77176" lon="7.05756">
        <ele>976.20001220703</ele>
        <time>2018-12-08T13:09:52.000Z</time>
      </trkpt>
      <trkpt lat="43.77179" lon="7.0577">
        <ele>975.59997558594</ele>
        <time>2018-12-08T13:09:55.000Z</time>
      </trkpt>
      <trkpt lat="43.7718" lon="7.05774">
        <ele>975.20001220703</ele>
        <time>2018-12-08T13:09:56.000Z</time>
      </trkpt>
      <trkpt lat="43.77186" lon="7.05792">
        <ele>974.20001220703</ele>
        <time>2018-12-08T13:10:00.000Z</time>
      </trkpt>
      <trkpt lat="43.77187" lon="7.05797">
        <ele>974.20001220703</ele>
        <time>2018-12-08T13:10:01.000Z</time>
      </trkpt>
      <trkpt lat="43.77186" lon="7.05802">
        <ele>974</ele>
        <time>2018-12-08T13:10:02.000Z</time>
      </trkpt>
      <trkpt lat="43.7719" lon="7.05808">
        <ele>974</ele>
        <time>2018-12-08T13:10:04.000Z</time>
      </trkpt>
      <trkpt lat="43.77189" lon="7.05818">
        <ele>974</ele>
        <time>2018-12-08T13:10:07.000Z</time>
      </trkpt>
      <trkpt lat="43.77184" lon="7.05834">
        <ele>973.20001220703</ele>
        <time>2018-12-08T13:10:11.000Z</time>
      </trkpt>
      <trkpt lat="43.77183" lon="7.05839">
        <ele>972.59997558594</ele>
        <time>2018-12-08T13:10:12.000Z</time>
      </trkpt>
      <trkpt lat="43.77179" lon="7.05852">
        <ele>971.79998779297</ele>
        <time>2018-12-08T13:10:14.000Z</time>
      </trkpt>
      <trkpt lat="43.77176" lon="7.05857">
        <ele>971.79998779297</ele>
        <time>2018-12-08T13:10:15.000Z</time>
      </trkpt>
      <trkpt lat="43.77166" lon="7.05879">
        <ele>970.59997558594</ele>
        <time>2018-12-08T13:10:18.000Z</time>
      </trkpt>
      <trkpt lat="43.77164" lon="7.05886">
        <ele>970.59997558594</ele>
        <time>2018-12-08T13:10:19.000Z</time>
      </trkpt>
      <trkpt lat="43.77164" lon="7.05898">
        <ele>969</ele>
        <time>2018-12-08T13:10:21.000Z</time>
      </trkpt>
      <trkpt lat="43.77164" lon="7.059">
        <ele>968.79998779297</ele>
        <time>2018-12-08T13:10:22.000Z</time>
      </trkpt>
      <trkpt lat="43.77163" lon="7.05901">
        <ele>967.79998779297</ele>
        <time>2018-12-08T13:10:24.000Z</time>
      </trkpt>
      <trkpt lat="43.77162" lon="7.05902">
        <ele>968</ele>
        <time>2018-12-08T13:10:26.000Z</time>
      </trkpt>
      <trkpt lat="43.77162" lon="7.05914">
        <ele>968</ele>
        <time>2018-12-08T13:10:33.000Z</time>
      </trkpt>
      <trkpt lat="43.77163" lon="7.05935">
        <ele>966.79998779297</ele>
        <time>2018-12-08T13:10:37.000Z</time>
      </trkpt>
      <trkpt lat="43.77163" lon="7.05959">
        <ele>965.40002441406</ele>
        <time>2018-12-08T13:10:41.000Z</time>
      </trkpt>
      <trkpt lat="43.77163" lon="7.05964">
        <ele>964.40002441406</ele>
        <time>2018-12-08T13:10:42.000Z</time>
      </trkpt>
      <trkpt lat="43.77162" lon="7.05976">
        <ele>963.40002441406</ele>
        <time>2018-12-08T13:10:44.000Z</time>
      </trkpt>
      <trkpt lat="43.7716" lon="7.05988">
        <ele>963</ele>
        <time>2018-12-08T13:10:46.000Z</time>
      </trkpt>
      <trkpt lat="43.77153" lon="7.06012">
        <ele>963</ele>
        <time>2018-12-08T13:10:50.000Z</time>
      </trkpt>
      <trkpt lat="43.77152" lon="7.06016">
        <ele>962.20001220703</ele>
        <time>2018-12-08T13:10:52.000Z</time>
      </trkpt>
      <trkpt lat="43.77152" lon="7.06017">
        <ele>962</ele>
        <time>2018-12-08T13:10:53.000Z</time>
      </trkpt>
      <trkpt lat="43.77152" lon="7.06022">
        <ele>961.59997558594</ele>
        <time>2018-12-08T13:10:56.000Z</time>
      </trkpt>
      <trkpt lat="43.77152" lon="7.06028">
        <ele>961.20001220703</ele>
        <time>2018-12-08T13:10:58.000Z</time>
      </trkpt>
      <trkpt lat="43.7715" lon="7.06041">
        <ele>960</ele>
        <time>2018-12-08T13:11:00.000Z</time>
      </trkpt>
      <trkpt lat="43.77149" lon="7.06047">
        <ele>959.79998779297</ele>
        <time>2018-12-08T13:11:01.000Z</time>
      </trkpt>
      <trkpt lat="43.77145" lon="7.0607">
        <ele>959.20001220703</ele>
        <time>2018-12-08T13:11:05.000Z</time>
      </trkpt>
      <trkpt lat="43.77144" lon="7.06076">
        <ele>958.79998779297</ele>
        <time>2018-12-08T13:11:06.000Z</time>
      </trkpt>
      <trkpt lat="43.77142" lon="7.06089">
        <ele>957.79998779297</ele>
        <time>2018-12-08T13:11:09.000Z</time>
      </trkpt>
      <trkpt lat="43.77142" lon="7.06091">
        <ele>957.59997558594</ele>
        <time>2018-12-08T13:11:10.000Z</time>
      </trkpt>
      <trkpt lat="43.77141" lon="7.06092">
        <ele>957.79998779297</ele>
        <time>2018-12-08T13:11:12.000Z</time>
      </trkpt>
      <trkpt lat="43.77138" lon="7.06101">
        <ele>958</ele>
        <time>2018-12-08T13:11:18.000Z</time>
      </trkpt>
      <trkpt lat="43.77136" lon="7.06106">
        <ele>958.40002441406</ele>
        <time>2018-12-08T13:11:23.000Z</time>
      </trkpt>
      <trkpt lat="43.77136" lon="7.06109">
        <ele>958.79998779297</ele>
        <time>2018-12-08T13:11:28.000Z</time>
      </trkpt>
      <trkpt lat="43.77136" lon="7.06111">
        <ele>958.59997558594</ele>
        <time>2018-12-08T13:11:29.000Z</time>
      </trkpt>
      <trkpt lat="43.77137" lon="7.06115">
        <ele>958.59997558594</ele>
        <time>2018-12-08T13:11:32.000Z</time>
      </trkpt>
      <trkpt lat="43.77136" lon="7.06124">
        <ele>958.20001220703</ele>
        <time>2018-12-08T13:11:34.000Z</time>
      </trkpt>
      <trkpt lat="43.77136" lon="7.06141">
        <ele>957.79998779297</ele>
        <time>2018-12-08T13:11:37.000Z</time>
      </trkpt>
      <trkpt lat="43.77137" lon="7.06146">
        <ele>957.40002441406</ele>
        <time>2018-12-08T13:11:38.000Z</time>
      </trkpt>
      <trkpt lat="43.77135" lon="7.06155">
        <ele>957.20001220703</ele>
        <time>2018-12-08T13:11:39.000Z</time>
      </trkpt>
      <trkpt lat="43.77132" lon="7.06172">
        <ele>955.79998779297</ele>
        <time>2018-12-08T13:11:41.000Z</time>
      </trkpt>
      <trkpt lat="43.77129" lon="7.06183">
        <ele>955</ele>
        <time>2018-12-08T13:11:42.000Z</time>
      </trkpt>
      <trkpt lat="43.77127" lon="7.06195">
        <ele>954.40002441406</ele>
        <time>2018-12-08T13:11:43.000Z</time>
      </trkpt>
      <trkpt lat="43.77125" lon="7.06207">
        <ele>953.20001220703</ele>
        <time>2018-12-08T13:11:44.000Z</time>
      </trkpt>
      <trkpt lat="43.77124" lon="7.06219">
        <ele>953</ele>
        <time>2018-12-08T13:11:45.000Z</time>
      </trkpt>
      <trkpt lat="43.77123" lon="7.06231">
        <ele>952.20001220703</ele>
        <time>2018-12-08T13:11:46.000Z</time>
      </trkpt>
      <trkpt lat="43.77122" lon="7.06242">
        <ele>951.20001220703</ele>
        <time>2018-12-08T13:11:47.000Z</time>
      </trkpt>
      <trkpt lat="43.77122" lon="7.06255">
        <ele>950.79998779297</ele>
        <time>2018-12-08T13:11:48.000Z</time>
      </trkpt>
      <trkpt lat="43.77123" lon="7.06279">
        <ele>948.40002441406</ele>
        <time>2018-12-08T13:11:50.000Z</time>
      </trkpt>
      <trkpt lat="43.77124" lon="7.06292">
        <ele>948.40002441406</ele>
        <time>2018-12-08T13:11:51.000Z</time>
      </trkpt>
      <trkpt lat="43.77124" lon="7.06305">
        <ele>947</ele>
        <time>2018-12-08T13:11:52.000Z</time>
      </trkpt>
      <trkpt lat="43.77127" lon="7.06316">
        <ele>946</ele>
        <time>2018-12-08T13:11:53.000Z</time>
      </trkpt>
      <trkpt lat="43.77134" lon="7.06341">
        <ele>944.59997558594</ele>
        <time>2018-12-08T13:11:55.000Z</time>
      </trkpt>
      <trkpt lat="43.77138" lon="7.06352">
        <ele>943.79998779297</ele>
        <time>2018-12-08T13:11:56.000Z</time>
      </trkpt>
      <trkpt lat="43.77142" lon="7.06363">
        <ele>943</ele>
        <time>2018-12-08T13:11:57.000Z</time>
      </trkpt>
      <trkpt lat="43.77148" lon="7.06381">
        <ele>941.59997558594</ele>
        <time>2018-12-08T13:11:59.000Z</time>
      </trkpt>
      <trkpt lat="43.7715" lon="7.06389">
        <ele>941.40002441406</ele>
        <time>2018-12-08T13:12:00.000Z</time>
      </trkpt>
      <trkpt lat="43.7715" lon="7.06395">
        <ele>941.20001220703</ele>
        <time>2018-12-08T13:12:01.000Z</time>
      </trkpt>
      <trkpt lat="43.77141" lon="7.06407">
        <ele>940.59997558594</ele>
        <time>2018-12-08T13:12:03.000Z</time>
      </trkpt>
      <trkpt lat="43.77139" lon="7.06414">
        <ele>940.59997558594</ele>
        <time>2018-12-08T13:12:04.000Z</time>
      </trkpt>
      <trkpt lat="43.77137" lon="7.06431">
        <ele>939</ele>
        <time>2018-12-08T13:12:06.000Z</time>
      </trkpt>
      <trkpt lat="43.77141" lon="7.06447">
        <ele>938</ele>
        <time>2018-12-08T13:12:08.000Z</time>
      </trkpt>
      <trkpt lat="43.77142" lon="7.06455">
        <ele>937.40002441406</ele>
        <time>2018-12-08T13:12:09.000Z</time>
      </trkpt>
      <trkpt lat="43.77143" lon="7.06471">
        <ele>937.20001220703</ele>
        <time>2018-12-08T13:12:11.000Z</time>
      </trkpt>
      <trkpt lat="43.77144" lon="7.06504">
        <ele>936.40002441406</ele>
        <time>2018-12-08T13:12:15.000Z</time>
      </trkpt>
      <trkpt lat="43.77144" lon="7.06513">
        <ele>936</ele>
        <time>2018-12-08T13:12:16.000Z</time>
      </trkpt>
      <trkpt lat="43.77145" lon="7.06531">
        <ele>935</ele>
        <time>2018-12-08T13:12:18.000Z</time>
      </trkpt>
      <trkpt lat="43.77148" lon="7.06549">
        <ele>934.40002441406</ele>
        <time>2018-12-08T13:12:20.000Z</time>
      </trkpt>
      <trkpt lat="43.7715" lon="7.06556">
        <ele>934</ele>
        <time>2018-12-08T13:12:21.000Z</time>
      </trkpt>
      <trkpt lat="43.7715" lon="7.06567">
        <ele>933.59997558594</ele>
        <time>2018-12-08T13:12:22.000Z</time>
      </trkpt>
      <trkpt lat="43.77148" lon="7.06577">
        <ele>933</ele>
        <time>2018-12-08T13:12:23.000Z</time>
      </trkpt>
      <trkpt lat="43.77141" lon="7.06589">
        <ele>932.20001220703</ele>
        <time>2018-12-08T13:12:25.000Z</time>
      </trkpt>
      <trkpt lat="43.77135" lon="7.06599">
        <ele>932</ele>
        <time>2018-12-08T13:12:26.000Z</time>
      </trkpt>
      <trkpt lat="43.77129" lon="7.06608">
        <ele>931.59997558594</ele>
        <time>2018-12-08T13:12:27.000Z</time>
      </trkpt>
      <trkpt lat="43.77125" lon="7.06617">
        <ele>931.20001220703</ele>
        <time>2018-12-08T13:12:28.000Z</time>
      </trkpt>
      <trkpt lat="43.7712" lon="7.06626">
        <ele>930.40002441406</ele>
        <time>2018-12-08T13:12:29.000Z</time>
      </trkpt>
      <trkpt lat="43.7711" lon="7.06643">
        <ele>929.20001220703</ele>
        <time>2018-12-08T13:12:31.000Z</time>
      </trkpt>
      <trkpt lat="43.77104" lon="7.06653">
        <ele>928.79998779297</ele>
        <time>2018-12-08T13:12:32.000Z</time>
      </trkpt>
      <trkpt lat="43.77099" lon="7.06661">
        <ele>928</ele>
        <time>2018-12-08T13:12:33.000Z</time>
      </trkpt>
      <trkpt lat="43.77088" lon="7.06674">
        <ele>926.79998779297</ele>
        <time>2018-12-08T13:12:35.000Z</time>
      </trkpt>
      <trkpt lat="43.7708" lon="7.06681">
        <ele>926.59997558594</ele>
        <time>2018-12-08T13:12:36.000Z</time>
      </trkpt>
      <trkpt lat="43.77065" lon="7.06691">
        <ele>925.59997558594</ele>
        <time>2018-12-08T13:12:38.000Z</time>
      </trkpt>
      <trkpt lat="43.7705" lon="7.06696">
        <ele>925.40002441406</ele>
        <time>2018-12-08T13:12:40.000Z</time>
      </trkpt>
      <trkpt lat="43.77043" lon="7.06697">
        <ele>924.79998779297</ele>
        <time>2018-12-08T13:12:41.000Z</time>
      </trkpt>
      <trkpt lat="43.77035" lon="7.06702">
        <ele>924</ele>
        <time>2018-12-08T13:12:42.000Z</time>
      </trkpt>
      <trkpt lat="43.77022" lon="7.06714">
        <ele>922.59997558594</ele>
        <time>2018-12-08T13:12:44.000Z</time>
      </trkpt>
      <trkpt lat="43.7701" lon="7.06728">
        <ele>921.20001220703</ele>
        <time>2018-12-08T13:12:46.000Z</time>
      </trkpt>
      <trkpt lat="43.76992" lon="7.0675">
        <ele>920.20001220703</ele>
        <time>2018-12-08T13:12:49.000Z</time>
      </trkpt>
      <trkpt lat="43.76986" lon="7.06759">
        <ele>919.20001220703</ele>
        <time>2018-12-08T13:12:50.000Z</time>
      </trkpt>
      <trkpt lat="43.76966" lon="7.06782">
        <ele>917.59997558594</ele>
        <time>2018-12-08T13:12:53.000Z</time>
      </trkpt>
      <trkpt lat="43.76958" lon="7.06788">
        <ele>917</ele>
        <time>2018-12-08T13:12:54.000Z</time>
      </trkpt>
      <trkpt lat="43.76944" lon="7.06802">
        <ele>916.20001220703</ele>
        <time>2018-12-08T13:12:56.000Z</time>
      </trkpt>
      <trkpt lat="43.76928" lon="7.06813">
        <ele>915</ele>
        <time>2018-12-08T13:12:58.000Z</time>
      </trkpt>
      <trkpt lat="43.76915" lon="7.06825">
        <ele>914.59997558594</ele>
        <time>2018-12-08T13:13:00.000Z</time>
      </trkpt>
      <trkpt lat="43.76903" lon="7.06841">
        <ele>913.59997558594</ele>
        <time>2018-12-08T13:13:02.000Z</time>
      </trkpt>
      <trkpt lat="43.7689" lon="7.06857">
        <ele>912.59997558594</ele>
        <time>2018-12-08T13:13:04.000Z</time>
      </trkpt>
      <trkpt lat="43.76884" lon="7.06864">
        <ele>911.79998779297</ele>
        <time>2018-12-08T13:13:05.000Z</time>
      </trkpt>
      <trkpt lat="43.76878" lon="7.06872">
        <ele>911</ele>
        <time>2018-12-08T13:13:06.000Z</time>
      </trkpt>
      <trkpt lat="43.76854" lon="7.06909">
        <ele>910.40002441406</ele>
        <time>2018-12-08T13:13:11.000Z</time>
      </trkpt>
      <trkpt lat="43.76847" lon="7.06921">
        <ele>910.79998779297</ele>
        <time>2018-12-08T13:13:13.000Z</time>
      </trkpt>
      <trkpt lat="43.76841" lon="7.0693">
        <ele>911.20001220703</ele>
        <time>2018-12-08T13:13:15.000Z</time>
      </trkpt>
      <trkpt lat="43.76836" lon="7.06946">
        <ele>912.59997558594</ele>
        <time>2018-12-08T13:13:19.000Z</time>
      </trkpt>
      <trkpt lat="43.76833" lon="7.0696">
        <ele>913.79998779297</ele>
        <time>2018-12-08T13:13:23.000Z</time>
      </trkpt>
      <trkpt lat="43.76833" lon="7.06963">
        <ele>913.79998779297</ele>
        <time>2018-12-08T13:13:25.000Z</time>
      </trkpt>
      <trkpt lat="43.76833" lon="7.06963">
        <ele>914.40002441406</ele>
        <time>2018-12-08T13:13:30.000Z</time>
      </trkpt>
      <trkpt lat="43.76835" lon="7.06962">
        <ele>914.40002441406</ele>
        <time>2018-12-08T13:13:38.000Z</time>
      </trkpt>
      <trkpt lat="43.76836" lon="7.0696">
        <ele>914.40002441406</ele>
        <time>2018-12-08T13:13:44.000Z</time>
      </trkpt>
      <trkpt lat="43.76836" lon="7.06962">
        <ele>914.40002441406</ele>
        <time>2018-12-08T13:13:49.000Z</time>
      </trkpt>
      <trkpt lat="43.76837" lon="7.06961">
        <ele>914.20001220703</ele>
        <time>2018-12-08T13:13:54.000Z</time>
      </trkpt>
      <trkpt lat="43.76836" lon="7.0696">
        <ele>914.40002441406</ele>
        <time>2018-12-08T13:14:04.000Z</time>
      </trkpt>
      <trkpt lat="43.76836" lon="7.06958">
        <ele>914.79998779297</ele>
        <time>2018-12-08T13:14:14.000Z</time>
      </trkpt>
      <trkpt lat="43.76836" lon="7.06958">
        <ele>914.79998779297</ele>
        <time>2018-12-08T13:14:15.000Z</time>
      </trkpt>
      <trkpt lat="43.76835" lon="7.06956">
        <ele>914.59997558594</ele>
        <time>2018-12-08T13:14:29.000Z</time>
      </trkpt>
      <trkpt lat="43.76835" lon="7.06955">
        <ele>914.79998779297</ele>
        <time>2018-12-08T13:14:53.000Z</time>
      </trkpt>
      <trkpt lat="43.76834" lon="7.06953">
        <ele>914.79998779297</ele>
        <time>2018-12-08T13:15:20.000Z</time>
      </trkpt>
      <trkpt lat="43.76833" lon="7.06951">
        <ele>914.79998779297</ele>
        <time>2018-12-08T13:15:37.000Z</time>
      </trkpt>
      <trkpt lat="43.76833" lon="7.0695">
        <ele>915</ele>
        <time>2018-12-08T13:15:48.000Z</time>
      </trkpt>
      <trkpt lat="43.76833" lon="7.06951">
        <ele>915</ele>
        <time>2018-12-08T13:15:57.000Z</time>
      </trkpt>
      <trkpt lat="43.76833" lon="7.06951">
        <ele>915</ele>
        <time>2018-12-08T13:16:07.000Z</time>
      </trkpt>
      <trkpt lat="43.76833" lon="7.06951">
        <ele>914.79998779297</ele>
        <time>2018-12-08T13:16:15.000Z</time>
      </trkpt>
      <trkpt lat="43.76833" lon="7.06951">
        <ele>914.59997558594</ele>
        <time>2018-12-08T13:16:28.000Z</time>
      </trkpt>
      <trkpt lat="43.76833" lon="7.06952">
        <ele>914.40002441406</ele>
        <time>2018-12-08T13:16:43.000Z</time>
      </trkpt>
      <trkpt lat="43.76833" lon="7.06952">
        <ele>914.40002441406</ele>
        <time>2018-12-08T13:17:00.000Z</time>
      </trkpt>
      <trkpt lat="43.76833" lon="7.06953">
        <ele>914.40002441406</ele>
        <time>2018-12-08T13:17:08.000Z</time>
      </trkpt>
      <trkpt lat="43.76833" lon="7.06953">
        <ele>914.40002441406</ele>
        <time>2018-12-08T13:17:20.000Z</time>
      </trkpt>
      <trkpt lat="43.76836" lon="7.06955">
        <ele>914.40002441406</ele>
        <time>2018-12-08T13:17:37.000Z</time>
      </trkpt>
      <trkpt lat="43.76837" lon="7.06957">
        <ele>914.40002441406</ele>
        <time>2018-12-08T13:17:46.000Z</time>
      </trkpt>
      <trkpt lat="43.76837" lon="7.06959">
        <ele>914.59997558594</ele>
        <time>2018-12-08T13:18:11.000Z</time>
      </trkpt>
      <trkpt lat="43.76835" lon="7.06957">
        <ele>914</ele>
        <time>2018-12-08T13:18:19.000Z</time>
      </trkpt>
      <trkpt lat="43.76834" lon="7.06957">
        <ele>914.79998779297</ele>
        <time>2018-12-08T13:18:27.000Z</time>
      </trkpt>
      <trkpt lat="43.76834" lon="7.06957">
        <ele>914.59997558594</ele>
        <time>2018-12-08T13:18:47.000Z</time>
      </trkpt>
      <trkpt lat="43.76833" lon="7.06956">
        <ele>914.59997558594</ele>
        <time>2018-12-08T13:19:09.000Z</time>
      </trkpt>
      <trkpt lat="43.76833" lon="7.0696">
        <ele>914.59997558594</ele>
        <time>2018-12-08T13:19:23.000Z</time>
      </trkpt>
      <trkpt lat="43.76833" lon="7.06961">
        <ele>914.59997558594</ele>
        <time>2018-12-08T13:19:36.000Z</time>
      </trkpt>
      <trkpt lat="43.76833" lon="7.06959">
        <ele>914.40002441406</ele>
        <time>2018-12-08T13:20:02.000Z</time>
      </trkpt>
      <trkpt lat="43.76833" lon="7.06959">
        <ele>913.79998779297</ele>
        <time>2018-12-08T13:20:06.000Z</time>
      </trkpt>
      <trkpt lat="43.76832" lon="7.06956">
        <ele>914</ele>
        <time>2018-12-08T13:20:18.000Z</time>
      </trkpt>
      <trkpt lat="43.76834" lon="7.06948">
        <ele>914</ele>
        <time>2018-12-08T13:20:22.000Z</time>
      </trkpt>
      <trkpt lat="43.76835" lon="7.06945">
        <ele>913.79998779297</ele>
        <time>2018-12-08T13:20:23.000Z</time>
      </trkpt>
      <trkpt lat="43.76837" lon="7.06937">
        <ele>913.59997558594</ele>
        <time>2018-12-08T13:20:25.000Z</time>
      </trkpt>
      <trkpt lat="43.76843" lon="7.06925">
        <ele>913.20001220703</ele>
        <time>2018-12-08T13:20:28.000Z</time>
      </trkpt>
      <trkpt lat="43.76851" lon="7.06914">
        <ele>912.59997558594</ele>
        <time>2018-12-08T13:20:31.000Z</time>
      </trkpt>
      <trkpt lat="43.76854" lon="7.06909">
        <ele>912.40002441406</ele>
        <time>2018-12-08T13:20:32.000Z</time>
      </trkpt>
      <trkpt lat="43.76857" lon="7.06905">
        <ele>912.20001220703</ele>
        <time>2018-12-08T13:20:33.000Z</time>
      </trkpt>
      <trkpt lat="43.76862" lon="7.06897">
        <ele>911.59997558594</ele>
        <time>2018-12-08T13:20:35.000Z</time>
      </trkpt>
      <trkpt lat="43.76864" lon="7.06893">
        <ele>911.40002441406</ele>
        <time>2018-12-08T13:20:36.000Z</time>
      </trkpt>
      <trkpt lat="43.76871" lon="7.06881">
        <ele>910.79998779297</ele>
        <time>2018-12-08T13:20:39.000Z</time>
      </trkpt>
      <trkpt lat="43.76884" lon="7.06864">
        <ele>910.79998779297</ele>
        <time>2018-12-08T13:20:44.000Z</time>
      </trkpt>
      <trkpt lat="43.769" lon="7.06843">
        <ele>911.59997558594</ele>
        <time>2018-12-08T13:20:51.000Z</time>
      </trkpt>
      <trkpt lat="43.76911" lon="7.0683">
        <ele>912.79998779297</ele>
        <time>2018-12-08T13:20:57.000Z</time>
      </trkpt>
      <trkpt lat="43.76916" lon="7.06824">
        <ele>913</ele>
        <time>2018-12-08T13:21:00.000Z</time>
      </trkpt>
      <trkpt lat="43.76927" lon="7.06813">
        <ele>913.79998779297</ele>
        <time>2018-12-08T13:21:06.000Z</time>
      </trkpt>
      <trkpt lat="43.76938" lon="7.06805">
        <ele>914.79998779297</ele>
        <time>2018-12-08T13:21:12.000Z</time>
      </trkpt>
      <trkpt lat="43.76944" lon="7.068">
        <ele>915.20001220703</ele>
        <time>2018-12-08T13:21:15.000Z</time>
      </trkpt>
      <trkpt lat="43.76952" lon="7.06792">
        <ele>915.79998779297</ele>
        <time>2018-12-08T13:21:20.000Z</time>
      </trkpt>
      <trkpt lat="43.76956" lon="7.06789">
        <ele>916</ele>
        <time>2018-12-08T13:21:22.000Z</time>
      </trkpt>
      <trkpt lat="43.76966" lon="7.06778">
        <ele>917</ele>
        <time>2018-12-08T13:21:29.000Z</time>
      </trkpt>
      <trkpt lat="43.76974" lon="7.0677">
        <ele>917.59997558594</ele>
        <time>2018-12-08T13:21:35.000Z</time>
      </trkpt>
      <trkpt lat="43.76978" lon="7.06765">
        <ele>918</ele>
        <time>2018-12-08T13:21:38.000Z</time>
      </trkpt>
      <trkpt lat="43.76986" lon="7.06754">
        <ele>918.59997558594</ele>
        <time>2018-12-08T13:21:44.000Z</time>
      </trkpt>
      <trkpt lat="43.76992" lon="7.06747">
        <ele>919.20001220703</ele>
        <time>2018-12-08T13:21:48.000Z</time>
      </trkpt>
      <trkpt lat="43.76997" lon="7.06741">
        <ele>919.40002441406</ele>
        <time>2018-12-08T13:21:52.000Z</time>
      </trkpt>
      <trkpt lat="43.77008" lon="7.06729">
        <ele>920.20001220703</ele>
        <time>2018-12-08T13:22:00.000Z</time>
      </trkpt>
      <trkpt lat="43.77019" lon="7.06717">
        <ele>921.40002441406</ele>
        <time>2018-12-08T13:22:08.000Z</time>
      </trkpt>
      <trkpt lat="43.77031" lon="7.06706">
        <ele>922.40002441406</ele>
        <time>2018-12-08T13:22:16.000Z</time>
      </trkpt>
      <trkpt lat="43.77042" lon="7.06699">
        <ele>923.20001220703</ele>
        <time>2018-12-08T13:22:23.000Z</time>
      </trkpt>
      <trkpt lat="43.77046" lon="7.06698">
        <ele>923.40002441406</ele>
        <time>2018-12-08T13:22:25.000Z</time>
      </trkpt>
      <trkpt lat="43.77052" lon="7.06696">
        <ele>924</ele>
        <time>2018-12-08T13:22:29.000Z</time>
      </trkpt>
      <trkpt lat="43.77063" lon="7.06691">
        <ele>924.40002441406</ele>
        <time>2018-12-08T13:22:35.000Z</time>
      </trkpt>
      <trkpt lat="43.77066" lon="7.06689">
        <ele>924.79998779297</ele>
        <time>2018-12-08T13:22:37.000Z</time>
      </trkpt>
      <trkpt lat="43.77073" lon="7.06687">
        <ele>925.59997558594</ele>
        <time>2018-12-08T13:22:41.000Z</time>
      </trkpt>
      <trkpt lat="43.7708" lon="7.06683">
        <ele>926</ele>
        <time>2018-12-08T13:22:45.000Z</time>
      </trkpt>
      <trkpt lat="43.77089" lon="7.06673">
        <ele>926.59997558594</ele>
        <time>2018-12-08T13:22:51.000Z</time>
      </trkpt>
      <trkpt lat="43.77093" lon="7.06669">
        <ele>926.79998779297</ele>
        <time>2018-12-08T13:22:54.000Z</time>
      </trkpt>
      <trkpt lat="43.77101" lon="7.06659">
        <ele>927.79998779297</ele>
        <time>2018-12-08T13:23:00.000Z</time>
      </trkpt>
      <trkpt lat="43.77104" lon="7.06656">
        <ele>928</ele>
        <time>2018-12-08T13:23:02.000Z</time>
      </trkpt>
      <trkpt lat="43.77112" lon="7.06645">
        <ele>928.59997558594</ele>
        <time>2018-12-08T13:23:09.000Z</time>
      </trkpt>
      <trkpt lat="43.77115" lon="7.06642">
        <ele>928.79998779297</ele>
        <time>2018-12-08T13:23:11.000Z</time>
      </trkpt>
      <trkpt lat="43.77118" lon="7.06638">
        <ele>929</ele>
        <time>2018-12-08T13:23:14.000Z</time>
      </trkpt>
      <trkpt lat="43.7712" lon="7.06634">
        <ele>929.40002441406</ele>
        <time>2018-12-08T13:23:16.000Z</time>
      </trkpt>
      <trkpt lat="43.77124" lon="7.0663">
        <ele>929.79998779297</ele>
        <time>2018-12-08T13:23:19.000Z</time>
      </trkpt>
      <trkpt lat="43.77128" lon="7.06623">
        <ele>930.20001220703</ele>
        <time>2018-12-08T13:23:23.000Z</time>
      </trkpt>
      <trkpt lat="43.77132" lon="7.06618">
        <ele>930.59997558594</ele>
        <time>2018-12-08T13:23:26.000Z</time>
      </trkpt>
      <trkpt lat="43.77136" lon="7.06613">
        <ele>931</ele>
        <time>2018-12-08T13:23:29.000Z</time>
      </trkpt>
      <trkpt lat="43.77137" lon="7.06611">
        <ele>931</ele>
        <time>2018-12-08T13:23:30.000Z</time>
      </trkpt>
      <trkpt lat="43.77145" lon="7.06598">
        <ele>932</ele>
        <time>2018-12-08T13:23:37.000Z</time>
      </trkpt>
      <trkpt lat="43.77147" lon="7.06582">
        <ele>932.79998779297</ele>
        <time>2018-12-08T13:23:44.000Z</time>
      </trkpt>
      <trkpt lat="43.77145" lon="7.06569">
        <ele>933.20001220703</ele>
        <time>2018-12-08T13:23:49.000Z</time>
      </trkpt>
      <trkpt lat="43.77145" lon="7.06561">
        <ele>933.59997558594</ele>
        <time>2018-12-08T13:23:52.000Z</time>
      </trkpt>
      <trkpt lat="43.77144" lon="7.06541">
        <ele>934.20001220703</ele>
        <time>2018-12-08T13:23:59.000Z</time>
      </trkpt>
      <trkpt lat="43.77144" lon="7.06538">
        <ele>934.40002441406</ele>
        <time>2018-12-08T13:24:00.000Z</time>
      </trkpt>
      <trkpt lat="43.77144" lon="7.06524">
        <ele>935.20001220703</ele>
        <time>2018-12-08T13:24:05.000Z</time>
      </trkpt>
      <trkpt lat="43.77143" lon="7.0652">
        <ele>935.40002441406</ele>
        <time>2018-12-08T13:24:07.000Z</time>
      </trkpt>
      <trkpt lat="43.77142" lon="7.06506">
        <ele>936.20001220703</ele>
        <time>2018-12-08T13:24:13.000Z</time>
      </trkpt>
      <trkpt lat="43.77141" lon="7.06498">
        <ele>936.40002441406</ele>
        <time>2018-12-08T13:24:16.000Z</time>
      </trkpt>
      <trkpt lat="43.7714" lon="7.06495">
        <ele>936.79998779297</ele>
        <time>2018-12-08T13:24:18.000Z</time>
      </trkpt>
      <trkpt lat="43.7714" lon="7.06495">
        <ele>937</ele>
        <time>2018-12-08T13:24:19.000Z</time>
      </trkpt>
      <trkpt lat="43.77141" lon="7.06491">
        <ele>937.20001220703</ele>
        <time>2018-12-08T13:24:27.000Z</time>
      </trkpt>
      <trkpt lat="43.77143" lon="7.06491">
        <ele>937.20001220703</ele>
        <time>2018-12-08T13:24:33.000Z</time>
      </trkpt>
      <trkpt lat="43.77142" lon="7.06486">
        <ele>937.40002441406</ele>
        <time>2018-12-08T13:24:45.000Z</time>
      </trkpt>
      <trkpt lat="43.77142" lon="7.06489">
        <ele>937.20001220703</ele>
        <time>2018-12-08T13:24:47.000Z</time>
      </trkpt>
      <trkpt lat="43.77143" lon="7.06494">
        <ele>937</ele>
        <time>2018-12-08T13:24:49.000Z</time>
      </trkpt>
      <trkpt lat="43.77146" lon="7.06523">
        <ele>936.20001220703</ele>
        <time>2018-12-08T13:24:55.000Z</time>
      </trkpt>
      <trkpt lat="43.77147" lon="7.06535">
        <ele>935.59997558594</ele>
        <time>2018-12-08T13:24:57.000Z</time>
      </trkpt>
      <trkpt lat="43.77148" lon="7.06541">
        <ele>935.20001220703</ele>
        <time>2018-12-08T13:24:58.000Z</time>
      </trkpt>
      <trkpt lat="43.77148" lon="7.06546">
        <ele>934.79998779297</ele>
        <time>2018-12-08T13:24:59.000Z</time>
      </trkpt>
      <trkpt lat="43.77149" lon="7.06562">
        <ele>934.20001220703</ele>
        <time>2018-12-08T13:25:01.000Z</time>
      </trkpt>
      <trkpt lat="43.77149" lon="7.06576">
        <ele>933.40002441406</ele>
        <time>2018-12-08T13:25:03.000Z</time>
      </trkpt>
      <trkpt lat="43.77148" lon="7.06582">
        <ele>933</ele>
        <time>2018-12-08T13:25:04.000Z</time>
      </trkpt>
      <trkpt lat="43.77143" lon="7.06593">
        <ele>932.40002441406</ele>
        <time>2018-12-08T13:25:06.000Z</time>
      </trkpt>
      <trkpt lat="43.7714" lon="7.06598">
        <ele>932.20001220703</ele>
        <time>2018-12-08T13:25:07.000Z</time>
      </trkpt>
      <trkpt lat="43.77137" lon="7.06604">
        <ele>932</ele>
        <time>2018-12-08T13:25:08.000Z</time>
      </trkpt>
      <trkpt lat="43.77126" lon="7.06624">
        <ele>931</ele>
        <time>2018-12-08T13:25:11.000Z</time>
      </trkpt>
      <trkpt lat="43.77114" lon="7.06644">
        <ele>929.59997558594</ele>
        <time>2018-12-08T13:25:14.000Z</time>
      </trkpt>
      <trkpt lat="43.771" lon="7.06664">
        <ele>928.20001220703</ele>
        <time>2018-12-08T13:25:17.000Z</time>
      </trkpt>
      <trkpt lat="43.77093" lon="7.06671">
        <ele>927.59997558594</ele>
        <time>2018-12-08T13:25:18.000Z</time>
      </trkpt>
      <trkpt lat="43.77079" lon="7.06681">
        <ele>926.79998779297</ele>
        <time>2018-12-08T13:25:20.000Z</time>
      </trkpt>
      <trkpt lat="43.77065" lon="7.06687">
        <ele>925.79998779297</ele>
        <time>2018-12-08T13:25:22.000Z</time>
      </trkpt>
      <trkpt lat="43.77058" lon="7.06689">
        <ele>925.40002441406</ele>
        <time>2018-12-08T13:25:23.000Z</time>
      </trkpt>
      <trkpt lat="43.77043" lon="7.06696">
        <ele>924.40002441406</ele>
        <time>2018-12-08T13:25:25.000Z</time>
      </trkpt>
      <trkpt lat="43.77037" lon="7.067">
        <ele>924</ele>
        <time>2018-12-08T13:25:26.000Z</time>
      </trkpt>
      <trkpt lat="43.77025" lon="7.06714">
        <ele>923</ele>
        <time>2018-12-08T13:25:28.000Z</time>
      </trkpt>
      <trkpt lat="43.7702" lon="7.06721">
        <ele>922.79998779297</ele>
        <time>2018-12-08T13:25:29.000Z</time>
      </trkpt>
      <trkpt lat="43.77006" lon="7.06736">
        <ele>921.59997558594</ele>
        <time>2018-12-08T13:25:31.000Z</time>
      </trkpt>
      <trkpt lat="43.76994" lon="7.06751">
        <ele>920.40002441406</ele>
        <time>2018-12-08T13:25:33.000Z</time>
      </trkpt>
      <trkpt lat="43.76988" lon="7.06758">
        <ele>919.79998779297</ele>
        <time>2018-12-08T13:25:34.000Z</time>
      </trkpt>
      <trkpt lat="43.76982" lon="7.06765">
        <ele>919.40002441406</ele>
        <time>2018-12-08T13:25:35.000Z</time>
      </trkpt>
      <trkpt lat="43.7697" lon="7.06778">
        <ele>918.40002441406</ele>
        <time>2018-12-08T13:25:37.000Z</time>
      </trkpt>
      <trkpt lat="43.76958" lon="7.06791">
        <ele>917.59997558594</ele>
        <time>2018-12-08T13:25:39.000Z</time>
      </trkpt>
      <trkpt lat="43.76951" lon="7.06797">
        <ele>917.20001220703</ele>
        <time>2018-12-08T13:25:40.000Z</time>
      </trkpt>
      <trkpt lat="43.76937" lon="7.06807">
        <ele>915.79998779297</ele>
        <time>2018-12-08T13:25:42.000Z</time>
      </trkpt>
      <trkpt lat="43.76925" lon="7.06818">
        <ele>915</ele>
        <time>2018-12-08T13:25:44.000Z</time>
      </trkpt>
      <trkpt lat="43.76919" lon="7.06824">
        <ele>914.40002441406</ele>
        <time>2018-12-08T13:25:45.000Z</time>
      </trkpt>
      <trkpt lat="43.769" lon="7.06847">
        <ele>913.40002441406</ele>
        <time>2018-12-08T13:25:48.000Z</time>
      </trkpt>
      <trkpt lat="43.76895" lon="7.06853">
        <ele>913.20001220703</ele>
        <time>2018-12-08T13:25:49.000Z</time>
      </trkpt>
      <trkpt lat="43.76884" lon="7.06867">
        <ele>912.20001220703</ele>
        <time>2018-12-08T13:25:51.000Z</time>
      </trkpt>
      <trkpt lat="43.76869" lon="7.06889">
        <ele>911.40002441406</ele>
        <time>2018-12-08T13:25:54.000Z</time>
      </trkpt>
      <trkpt lat="43.76849" lon="7.06922">
        <ele>911.79998779297</ele>
        <time>2018-12-08T13:25:59.000Z</time>
      </trkpt>
      <trkpt lat="43.76845" lon="7.06927">
        <ele>911.79998779297</ele>
        <time>2018-12-08T13:26:00.000Z</time>
      </trkpt>
      <trkpt lat="43.7684" lon="7.0694">
        <ele>912.40002441406</ele>
        <time>2018-12-08T13:26:03.000Z</time>
      </trkpt>
      <trkpt lat="43.76839" lon="7.06943">
        <ele>912.79998779297</ele>
        <time>2018-12-08T13:26:04.000Z</time>
      </trkpt>
      <trkpt lat="43.76838" lon="7.06951">
        <ele>913.40002441406</ele>
        <time>2018-12-08T13:26:06.000Z</time>
      </trkpt>
      <trkpt lat="43.76838" lon="7.06959">
        <ele>914</ele>
        <time>2018-12-08T13:26:09.000Z</time>
      </trkpt>
      <trkpt lat="43.76839" lon="7.06965">
        <ele>914.40002441406</ele>
        <time>2018-12-08T13:26:13.000Z</time>
      </trkpt>
      <trkpt lat="43.76839" lon="7.06965">
        <ele>914.40002441406</ele>
        <time>2018-12-08T13:26:14.000Z</time>
      </trkpt>
      <trkpt lat="43.76838" lon="7.06965">
        <ele>914.40002441406</ele>
        <time>2018-12-08T13:26:20.000Z</time>
      </trkpt>
      <trkpt lat="43.76838" lon="7.06965">
        <ele>914.59997558594</ele>
        <time>2018-12-08T13:26:26.000Z</time>
      </trkpt>
      <trkpt lat="43.76838" lon="7.06965">
        <ele>914.79998779297</ele>
        <time>2018-12-08T13:26:32.000Z</time>
      </trkpt>
      <trkpt lat="43.76837" lon="7.06965">
        <ele>914.59997558594</ele>
        <time>2018-12-08T13:26:44.000Z</time>
      </trkpt>
      <trkpt lat="43.76837" lon="7.06964">
        <ele>915</ele>
        <time>2018-12-08T13:27:06.000Z</time>
      </trkpt>
      <trkpt lat="43.76837" lon="7.06964">
        <ele>915.20001220703</ele>
        <time>2018-12-08T13:27:20.000Z</time>
      </trkpt>
      <trkpt lat="43.76836" lon="7.06964">
        <ele>915.40002441406</ele>
        <time>2018-12-08T13:27:40.000Z</time>
      </trkpt>
      <trkpt lat="43.76836" lon="7.06963">
        <ele>915.40002441406</ele>
        <time>2018-12-08T13:27:43.000Z</time>
      </trkpt>
      <trkpt lat="43.76835" lon="7.06962">
        <ele>915.20001220703</ele>
        <time>2018-12-08T13:27:52.000Z</time>
      </trkpt>
      <trkpt lat="43.76835" lon="7.06962">
        <ele>915.20001220703</ele>
        <time>2018-12-08T13:28:09.000Z</time>
      </trkpt>
      <trkpt lat="43.76835" lon="7.06963">
        <ele>915.20001220703</ele>
        <time>2018-12-08T13:28:26.000Z</time>
      </trkpt>
      <trkpt lat="43.76834" lon="7.06963">
        <ele>915</ele>
        <time>2018-12-08T13:28:37.000Z</time>
      </trkpt>
      <trkpt lat="43.76835" lon="7.06963">
        <ele>915.40002441406</ele>
        <time>2018-12-08T13:28:51.000Z</time>
      </trkpt>
      <trkpt lat="43.76834" lon="7.06962">
        <ele>915</ele>
        <time>2018-12-08T13:29:03.000Z</time>
      </trkpt>
      <trkpt lat="43.76834" lon="7.06963">
        <ele>915</ele>
        <time>2018-12-08T13:29:11.000Z</time>
      </trkpt>
      <trkpt lat="43.76834" lon="7.06963">
        <ele>915.20001220703</ele>
        <time>2018-12-08T13:29:22.000Z</time>
      </trkpt>
      <trkpt lat="43.76834" lon="7.06963">
        <ele>915.20001220703</ele>
        <time>2018-12-08T13:29:30.000Z</time>
      </trkpt>
      <trkpt lat="43.76834" lon="7.06963">
        <ele>914.79998779297</ele>
        <time>2018-12-08T13:29:37.000Z</time>
      </trkpt>
      <trkpt lat="43.76834" lon="7.06963">
        <ele>914.59997558594</ele>
        <time>2018-12-08T13:29:42.000Z</time>
      </trkpt>
      <trkpt lat="43.76834" lon="7.06963">
        <ele>915</ele>
        <time>2018-12-08T13:29:53.000Z</time>
      </trkpt>
      <trkpt lat="43.76834" lon="7.06962">
        <ele>914.40002441406</ele>
        <time>2018-12-08T13:29:59.000Z</time>
      </trkpt>
      <trkpt lat="43.76834" lon="7.06962">
        <ele>914.20001220703</ele>
        <time>2018-12-08T13:30:01.000Z</time>
      </trkpt>
      <trkpt lat="43.76832" lon="7.06959">
        <ele>914</ele>
        <time>2018-12-08T13:30:24.000Z</time>
      </trkpt>
      <trkpt lat="43.76832" lon="7.06958">
        <ele>914</ele>
        <time>2018-12-08T13:30:40.000Z</time>
      </trkpt>
      <trkpt lat="43.76832" lon="7.06959">
        <ele>914.20001220703</ele>
        <time>2018-12-08T13:30:47.000Z</time>
      </trkpt>
      <trkpt lat="43.7683" lon="7.06958">
        <ele>914.40002441406</ele>
        <time>2018-12-08T13:30:53.000Z</time>
      </trkpt>
      <trkpt lat="43.76829" lon="7.06959">
        <ele>914.40002441406</ele>
        <time>2018-12-08T13:30:54.000Z</time>
      </trkpt>
      <trkpt lat="43.76821" lon="7.06961">
        <ele>914.40002441406</ele>
        <time>2018-12-08T13:31:00.000Z</time>
      </trkpt>
      <trkpt lat="43.7682" lon="7.06963">
        <ele>914.40002441406</ele>
        <time>2018-12-08T13:31:01.000Z</time>
      </trkpt>
      <trkpt lat="43.76815" lon="7.06965">
        <ele>914.59997558594</ele>
        <time>2018-12-08T13:31:04.000Z</time>
      </trkpt>
      <trkpt lat="43.76798" lon="7.06974">
        <ele>915</ele>
        <time>2018-12-08T13:31:13.000Z</time>
      </trkpt>
      <trkpt lat="43.76787" lon="7.0698">
        <ele>915.40002441406</ele>
        <time>2018-12-08T13:31:19.000Z</time>
      </trkpt>
      <trkpt lat="43.7678" lon="7.06981">
        <ele>915.59997558594</ele>
        <time>2018-12-08T13:31:22.000Z</time>
      </trkpt>
      <trkpt lat="43.7675" lon="7.0699">
        <ele>916</ele>
        <time>2018-12-08T13:31:34.000Z</time>
      </trkpt>
      <trkpt lat="43.76724" lon="7.06997">
        <ele>916.20001220703</ele>
        <time>2018-12-08T13:31:43.000Z</time>
      </trkpt>
      <trkpt lat="43.76702" lon="7.07004">
        <ele>916.20001220703</ele>
        <time>2018-12-08T13:31:50.000Z</time>
      </trkpt>
      <trkpt lat="43.76699" lon="7.07005">
        <ele>916.20001220703</ele>
        <time>2018-12-08T13:31:51.000Z</time>
      </trkpt>
      <trkpt lat="43.76684" lon="7.0701">
        <ele>916.59997558594</ele>
        <time>2018-12-08T13:31:56.000Z</time>
      </trkpt>
      <trkpt lat="43.76673" lon="7.07013">
        <ele>917</ele>
        <time>2018-12-08T13:32:00.000Z</time>
      </trkpt>
      <trkpt lat="43.76666" lon="7.07015">
        <ele>917.59997558594</ele>
        <time>2018-12-08T13:32:03.000Z</time>
      </trkpt>
      <trkpt lat="43.76649" lon="7.0702">
        <ele>918.59997558594</ele>
        <time>2018-12-08T13:32:10.000Z</time>
      </trkpt>
      <trkpt lat="43.76634" lon="7.07025">
        <ele>919.79998779297</ele>
        <time>2018-12-08T13:32:17.000Z</time>
      </trkpt>
      <trkpt lat="43.76625" lon="7.07027">
        <ele>920.40002441406</ele>
        <time>2018-12-08T13:32:21.000Z</time>
      </trkpt>
      <trkpt lat="43.76617" lon="7.07029">
        <ele>920.79998779297</ele>
        <time>2018-12-08T13:32:25.000Z</time>
      </trkpt>
      <trkpt lat="43.76606" lon="7.07032">
        <ele>921.59997558594</ele>
        <time>2018-12-08T13:32:30.000Z</time>
      </trkpt>
      <trkpt lat="43.76602" lon="7.07033">
        <ele>922</ele>
        <time>2018-12-08T13:32:32.000Z</time>
      </trkpt>
      <trkpt lat="43.76591" lon="7.07037">
        <ele>923</ele>
        <time>2018-12-08T13:32:38.000Z</time>
      </trkpt>
      <trkpt lat="43.7659" lon="7.07037">
        <ele>923</ele>
        <time>2018-12-08T13:32:39.000Z</time>
      </trkpt>
      <trkpt lat="43.76581" lon="7.07039">
        <ele>923.79998779297</ele>
        <time>2018-12-08T13:32:44.000Z</time>
      </trkpt>
      <trkpt lat="43.76579" lon="7.0704">
        <ele>924</ele>
        <time>2018-12-08T13:32:45.000Z</time>
      </trkpt>
      <trkpt lat="43.76569" lon="7.07043">
        <ele>925.20001220703</ele>
        <time>2018-12-08T13:32:50.000Z</time>
      </trkpt>
      <trkpt lat="43.76559" lon="7.07046">
        <ele>926.20001220703</ele>
        <time>2018-12-08T13:32:55.000Z</time>
      </trkpt>
      <trkpt lat="43.76552" lon="7.07049">
        <ele>927</ele>
        <time>2018-12-08T13:32:59.000Z</time>
      </trkpt>
      <trkpt lat="43.76546" lon="7.0705">
        <ele>927.40002441406</ele>
        <time>2018-12-08T13:33:02.000Z</time>
      </trkpt>
      <trkpt lat="43.76535" lon="7.07053">
        <ele>928.20001220703</ele>
        <time>2018-12-08T13:33:07.000Z</time>
      </trkpt>
      <trkpt lat="43.76531" lon="7.07054">
        <ele>928.40002441406</ele>
        <time>2018-12-08T13:33:09.000Z</time>
      </trkpt>
      <trkpt lat="43.76516" lon="7.07064">
        <ele>928.79998779297</ele>
        <time>2018-12-08T13:33:15.000Z</time>
      </trkpt>
      <trkpt lat="43.7649" lon="7.0708">
        <ele>929.20001220703</ele>
        <time>2018-12-08T13:33:24.000Z</time>
      </trkpt>
      <trkpt lat="43.76481" lon="7.07086">
        <ele>929.59997558594</ele>
        <time>2018-12-08T13:33:27.000Z</time>
      </trkpt>
      <trkpt lat="43.76466" lon="7.07095">
        <ele>930</ele>
        <time>2018-12-08T13:33:32.000Z</time>
      </trkpt>
      <trkpt lat="43.76449" lon="7.07104">
        <ele>930.59997558594</ele>
        <time>2018-12-08T13:33:38.000Z</time>
      </trkpt>
      <trkpt lat="43.76438" lon="7.0711">
        <ele>931.40002441406</ele>
        <time>2018-12-08T13:33:42.000Z</time>
      </trkpt>
      <trkpt lat="43.76433" lon="7.07112">
        <ele>931.79998779297</ele>
        <time>2018-12-08T13:33:44.000Z</time>
      </trkpt>
      <trkpt lat="43.76419" lon="7.07119">
        <ele>932.79998779297</ele>
        <time>2018-12-08T13:33:50.000Z</time>
      </trkpt>
      <trkpt lat="43.76416" lon="7.0712">
        <ele>933</ele>
        <time>2018-12-08T13:33:51.000Z</time>
      </trkpt>
      <trkpt lat="43.76402" lon="7.07127">
        <ele>934</ele>
        <time>2018-12-08T13:33:57.000Z</time>
      </trkpt>
      <trkpt lat="43.76397" lon="7.07129">
        <ele>934.40002441406</ele>
        <time>2018-12-08T13:33:59.000Z</time>
      </trkpt>
      <trkpt lat="43.76388" lon="7.07134">
        <ele>935.20001220703</ele>
        <time>2018-12-08T13:34:03.000Z</time>
      </trkpt>
      <trkpt lat="43.76379" lon="7.07138">
        <ele>936.20001220703</ele>
        <time>2018-12-08T13:34:07.000Z</time>
      </trkpt>
      <trkpt lat="43.76377" lon="7.07139">
        <ele>936.40002441406</ele>
        <time>2018-12-08T13:34:08.000Z</time>
      </trkpt>
      <trkpt lat="43.76365" lon="7.07144">
        <ele>937.59997558594</ele>
        <time>2018-12-08T13:34:14.000Z</time>
      </trkpt>
      <trkpt lat="43.76359" lon="7.07147">
        <ele>938.40002441406</ele>
        <time>2018-12-08T13:34:18.000Z</time>
      </trkpt>
      <trkpt lat="43.76357" lon="7.07148">
        <ele>938.59997558594</ele>
        <time>2018-12-08T13:34:19.000Z</time>
      </trkpt>
      <trkpt lat="43.76349" lon="7.07152">
        <ele>939.40002441406</ele>
        <time>2018-12-08T13:34:24.000Z</time>
      </trkpt>
      <trkpt lat="43.76347" lon="7.07153">
        <ele>939.59997558594</ele>
        <time>2018-12-08T13:34:25.000Z</time>
      </trkpt>
      <trkpt lat="43.76336" lon="7.07158">
        <ele>940.79998779297</ele>
        <time>2018-12-08T13:34:31.000Z</time>
      </trkpt>
      <trkpt lat="43.76323" lon="7.07166">
        <ele>941.40002441406</ele>
        <time>2018-12-08T13:34:37.000Z</time>
      </trkpt>
      <trkpt lat="43.76316" lon="7.07172">
        <ele>941.79998779297</ele>
        <time>2018-12-08T13:34:40.000Z</time>
      </trkpt>
      <trkpt lat="43.76308" lon="7.0718">
        <ele>941.79998779297</ele>
        <time>2018-12-08T13:34:43.000Z</time>
      </trkpt>
      <trkpt lat="43.76284" lon="7.07215">
        <ele>941.79998779297</ele>
        <time>2018-12-08T13:34:52.000Z</time>
      </trkpt>
      <trkpt lat="43.76269" lon="7.07228">
        <ele>941.79998779297</ele>
        <time>2018-12-08T13:34:57.000Z</time>
      </trkpt>
      <trkpt lat="43.76251" lon="7.07241">
        <ele>943</ele>
        <time>2018-12-08T13:35:03.000Z</time>
      </trkpt>
      <trkpt lat="43.76249" lon="7.07243">
        <ele>943.20001220703</ele>
        <time>2018-12-08T13:35:04.000Z</time>
      </trkpt>
      <trkpt lat="43.76241" lon="7.0725">
        <ele>944</ele>
        <time>2018-12-08T13:35:07.000Z</time>
      </trkpt>
      <trkpt lat="43.76227" lon="7.07264">
        <ele>944.79998779297</ele>
        <time>2018-12-08T13:35:12.000Z</time>
      </trkpt>
      <trkpt lat="43.76222" lon="7.07271">
        <ele>945</ele>
        <time>2018-12-08T13:35:14.000Z</time>
      </trkpt>
      <trkpt lat="43.76204" lon="7.073">
        <ele>945.40002441406</ele>
        <time>2018-12-08T13:35:21.000Z</time>
      </trkpt>
      <trkpt lat="43.76193" lon="7.07325">
        <ele>946</ele>
        <time>2018-12-08T13:35:27.000Z</time>
      </trkpt>
      <trkpt lat="43.76191" lon="7.0733">
        <ele>946.20001220703</ele>
        <time>2018-12-08T13:35:28.000Z</time>
      </trkpt>
      <trkpt lat="43.76177" lon="7.07363">
        <ele>947.40002441406</ele>
        <time>2018-12-08T13:35:36.000Z</time>
      </trkpt>
      <trkpt lat="43.76174" lon="7.07371">
        <ele>947.59997558594</ele>
        <time>2018-12-08T13:35:38.000Z</time>
      </trkpt>
      <trkpt lat="43.76167" lon="7.07385">
        <ele>948.59997558594</ele>
        <time>2018-12-08T13:35:42.000Z</time>
      </trkpt>
      <trkpt lat="43.76158" lon="7.07402">
        <ele>949.59997558594</ele>
        <time>2018-12-08T13:35:47.000Z</time>
      </trkpt>
      <trkpt lat="43.76157" lon="7.07406">
        <ele>950</ele>
        <time>2018-12-08T13:35:48.000Z</time>
      </trkpt>
      <trkpt lat="43.76145" lon="7.07425">
        <ele>950.79998779297</ele>
        <time>2018-12-08T13:35:54.000Z</time>
      </trkpt>
      <trkpt lat="43.76136" lon="7.0744">
        <ele>951.40002441406</ele>
        <time>2018-12-08T13:35:59.000Z</time>
      </trkpt>
      <trkpt lat="43.76132" lon="7.07446">
        <ele>952</ele>
        <time>2018-12-08T13:36:01.000Z</time>
      </trkpt>
      <trkpt lat="43.7612" lon="7.07463">
        <ele>953</ele>
        <time>2018-12-08T13:36:07.000Z</time>
      </trkpt>
      <trkpt lat="43.76117" lon="7.07466">
        <ele>953.20001220703</ele>
        <time>2018-12-08T13:36:08.000Z</time>
      </trkpt>
      <trkpt lat="43.76091" lon="7.07488">
        <ele>953</ele>
        <time>2018-12-08T13:36:16.000Z</time>
      </trkpt>
      <trkpt lat="43.76074" lon="7.07489">
        <ele>952.20001220703</ele>
        <time>2018-12-08T13:36:20.000Z</time>
      </trkpt>
      <trkpt lat="43.76065" lon="7.07479">
        <ele>952.20001220703</ele>
        <time>2018-12-08T13:36:23.000Z</time>
      </trkpt>
      <trkpt lat="43.76061" lon="7.07464">
        <ele>952.59997558594</ele>
        <time>2018-12-08T13:36:27.000Z</time>
      </trkpt>
      <trkpt lat="43.7606" lon="7.0746">
        <ele>953</ele>
        <time>2018-12-08T13:36:28.000Z</time>
      </trkpt>
      <trkpt lat="43.76054" lon="7.07439">
        <ele>953.40002441406</ele>
        <time>2018-12-08T13:36:34.000Z</time>
      </trkpt>
      <trkpt lat="43.76049" lon="7.07427">
        <ele>954.40002441406</ele>
        <time>2018-12-08T13:36:38.000Z</time>
      </trkpt>
      <trkpt lat="43.76045" lon="7.07418">
        <ele>954.59997558594</ele>
        <time>2018-12-08T13:36:41.000Z</time>
      </trkpt>
      <trkpt lat="43.76031" lon="7.07399">
        <ele>954.40002441406</ele>
        <time>2018-12-08T13:36:48.000Z</time>
      </trkpt>
      <trkpt lat="43.76024" lon="7.07374">
        <ele>954.59997558594</ele>
        <time>2018-12-08T13:36:55.000Z</time>
      </trkpt>
      <trkpt lat="43.76022" lon="7.07361">
        <ele>955.40002441406</ele>
        <time>2018-12-08T13:37:00.000Z</time>
      </trkpt>
      <trkpt lat="43.76022" lon="7.07358">
        <ele>955.59997558594</ele>
        <time>2018-12-08T13:37:01.000Z</time>
      </trkpt>
      <trkpt lat="43.76024" lon="7.07354">
        <ele>955.79998779297</ele>
        <time>2018-12-08T13:37:03.000Z</time>
      </trkpt>
      <trkpt lat="43.76026" lon="7.07344">
        <ele>955.40002441406</ele>
        <time>2018-12-08T13:37:06.000Z</time>
      </trkpt>
      <trkpt lat="43.7602" lon="7.07327">
        <ele>954.40002441406</ele>
        <time>2018-12-08T13:37:11.000Z</time>
      </trkpt>
      <trkpt lat="43.76018" lon="7.07324">
        <ele>954.20001220703</ele>
        <time>2018-12-08T13:37:12.000Z</time>
      </trkpt>
      <trkpt lat="43.76012" lon="7.07312">
        <ele>954.40002441406</ele>
        <time>2018-12-08T13:37:16.000Z</time>
      </trkpt>
      <trkpt lat="43.76007" lon="7.07299">
        <ele>955</ele>
        <time>2018-12-08T13:37:22.000Z</time>
      </trkpt>
      <trkpt lat="43.76008" lon="7.07293">
        <ele>955</ele>
        <time>2018-12-08T13:37:26.000Z</time>
      </trkpt>
      <trkpt lat="43.76008" lon="7.07292">
        <ele>953.59997558594</ele>
        <time>2018-12-08T13:37:33.000Z</time>
      </trkpt>
      <trkpt lat="43.76008" lon="7.07292">
        <ele>954</ele>
        <time>2018-12-08T13:37:40.000Z</time>
      </trkpt>
      <trkpt lat="43.76008" lon="7.07289">
        <ele>954.79998779297</ele>
        <time>2018-12-08T13:37:46.000Z</time>
      </trkpt>
      <trkpt lat="43.76008" lon="7.07286">
        <ele>955</ele>
        <time>2018-12-08T13:37:49.000Z</time>
      </trkpt>
      <trkpt lat="43.76008" lon="7.07282">
        <ele>954.79998779297</ele>
        <time>2018-12-08T13:37:52.000Z</time>
      </trkpt>
      <trkpt lat="43.76009" lon="7.0728">
        <ele>954.40002441406</ele>
        <time>2018-12-08T13:37:57.000Z</time>
      </trkpt>
      <trkpt lat="43.7601" lon="7.07278">
        <ele>954.40002441406</ele>
        <time>2018-12-08T13:38:04.000Z</time>
      </trkpt>
      <trkpt lat="43.76011" lon="7.07273">
        <ele>954.40002441406</ele>
        <time>2018-12-08T13:38:07.000Z</time>
      </trkpt>
      <trkpt lat="43.76011" lon="7.07268">
        <ele>954.20001220703</ele>
        <time>2018-12-08T13:38:09.000Z</time>
      </trkpt>
      <trkpt lat="43.76012" lon="7.07264">
        <ele>954.20001220703</ele>
        <time>2018-12-08T13:38:11.000Z</time>
      </trkpt>
      <trkpt lat="43.76012" lon="7.07262">
        <ele>954.40002441406</ele>
        <time>2018-12-08T13:38:12.000Z</time>
      </trkpt>
      <trkpt lat="43.76013" lon="7.07257">
        <ele>954.20001220703</ele>
        <time>2018-12-08T13:38:14.000Z</time>
      </trkpt>
      <trkpt lat="43.76014" lon="7.07238">
        <ele>954</ele>
        <time>2018-12-08T13:38:20.000Z</time>
      </trkpt>
      <trkpt lat="43.76012" lon="7.07233">
        <ele>954</ele>
        <time>2018-12-08T13:38:22.000Z</time>
      </trkpt>
      <trkpt lat="43.76011" lon="7.07225">
        <ele>954</ele>
        <time>2018-12-08T13:38:25.000Z</time>
      </trkpt>
      <trkpt lat="43.76011" lon="7.07224">
        <ele>954</ele>
        <time>2018-12-08T13:38:28.000Z</time>
      </trkpt>
      <trkpt lat="43.76011" lon="7.07222">
        <ele>953.59997558594</ele>
        <time>2018-12-08T13:38:33.000Z</time>
      </trkpt>
      <trkpt lat="43.76013" lon="7.07209">
        <ele>953.79998779297</ele>
        <time>2018-12-08T13:38:38.000Z</time>
      </trkpt>
      <trkpt lat="43.76009" lon="7.07191">
        <ele>953.79998779297</ele>
        <time>2018-12-08T13:38:44.000Z</time>
      </trkpt>
      <trkpt lat="43.76002" lon="7.07184">
        <ele>954.40002441406</ele>
        <time>2018-12-08T13:38:49.000Z</time>
      </trkpt>
      <trkpt lat="43.75989" lon="7.07174">
        <ele>955</ele>
        <time>2018-12-08T13:38:57.000Z</time>
      </trkpt>
      <trkpt lat="43.75984" lon="7.07172">
        <ele>955.20001220703</ele>
        <time>2018-12-08T13:39:00.000Z</time>
      </trkpt>
      <trkpt lat="43.75978" lon="7.07168">
        <ele>955.59997558594</ele>
        <time>2018-12-08T13:39:03.000Z</time>
      </trkpt>
      <trkpt lat="43.75966" lon="7.07164">
        <ele>956.20001220703</ele>
        <time>2018-12-08T13:39:09.000Z</time>
      </trkpt>
      <trkpt lat="43.75964" lon="7.07162">
        <ele>956.40002441406</ele>
        <time>2018-12-08T13:39:10.000Z</time>
      </trkpt>
      <trkpt lat="43.75957" lon="7.07147">
        <ele>956.59997558594</ele>
        <time>2018-12-08T13:39:15.000Z</time>
      </trkpt>
      <trkpt lat="43.75947" lon="7.07125">
        <ele>955.79998779297</ele>
        <time>2018-12-08T13:39:21.000Z</time>
      </trkpt>
      <trkpt lat="43.75938" lon="7.07102">
        <ele>956.20001220703</ele>
        <time>2018-12-08T13:39:27.000Z</time>
      </trkpt>
      <trkpt lat="43.75925" lon="7.07072">
        <ele>956</ele>
        <time>2018-12-08T13:39:35.000Z</time>
      </trkpt>
      <trkpt lat="43.75926" lon="7.07052">
        <ele>955.79998779297</ele>
        <time>2018-12-08T13:39:39.000Z</time>
      </trkpt>
      <trkpt lat="43.7593" lon="7.07041">
        <ele>955.20001220703</ele>
        <time>2018-12-08T13:39:41.000Z</time>
      </trkpt>
      <trkpt lat="43.75933" lon="7.07038">
        <ele>954.79998779297</ele>
        <time>2018-12-08T13:39:42.000Z</time>
      </trkpt>
      <trkpt lat="43.75939" lon="7.07033">
        <ele>954</ele>
        <time>2018-12-08T13:39:44.000Z</time>
      </trkpt>
      <trkpt lat="43.75941" lon="7.07028">
        <ele>954</ele>
        <time>2018-12-08T13:39:46.000Z</time>
      </trkpt>
      <trkpt lat="43.75939" lon="7.07025">
        <ele>954.20001220703</ele>
        <time>2018-12-08T13:39:50.000Z</time>
      </trkpt>
      <trkpt lat="43.75938" lon="7.07024">
        <ele>955.20001220703</ele>
        <time>2018-12-08T13:39:54.000Z</time>
      </trkpt>
      <trkpt lat="43.75936" lon="7.07024">
        <ele>955.59997558594</ele>
        <time>2018-12-08T13:39:57.000Z</time>
      </trkpt>
      <trkpt lat="43.75933" lon="7.07022">
        <ele>956.20001220703</ele>
        <time>2018-12-08T13:40:01.000Z</time>
      </trkpt>
      <trkpt lat="43.7593" lon="7.07019">
        <ele>957</ele>
        <time>2018-12-08T13:40:06.000Z</time>
      </trkpt>
      <trkpt lat="43.75927" lon="7.07017">
        <ele>957.40002441406</ele>
        <time>2018-12-08T13:40:10.000Z</time>
      </trkpt>
      <trkpt lat="43.75924" lon="7.07015">
        <ele>958.20001220703</ele>
        <time>2018-12-08T13:40:14.000Z</time>
      </trkpt>
      <trkpt lat="43.7592" lon="7.07014">
        <ele>958.40002441406</ele>
        <time>2018-12-08T13:40:19.000Z</time>
      </trkpt>
      <trkpt lat="43.75919" lon="7.07014">
        <ele>958.59997558594</ele>
        <time>2018-12-08T13:40:20.000Z</time>
      </trkpt>
      <trkpt lat="43.75914" lon="7.0701">
        <ele>959.20001220703</ele>
        <time>2018-12-08T13:40:27.000Z</time>
      </trkpt>
      <trkpt lat="43.75914" lon="7.07009">
        <ele>959.20001220703</ele>
        <time>2018-12-08T13:40:34.000Z</time>
      </trkpt>
      <trkpt lat="43.75915" lon="7.07008">
        <ele>959.20001220703</ele>
        <time>2018-12-08T13:40:36.000Z</time>
      </trkpt>
      <trkpt lat="43.75917" lon="7.07002">
        <ele>959</ele>
        <time>2018-12-08T13:40:39.000Z</time>
      </trkpt>
      <trkpt lat="43.75921" lon="7.06997">
        <ele>959.20001220703</ele>
        <time>2018-12-08T13:40:42.000Z</time>
      </trkpt>
      <trkpt lat="43.75923" lon="7.06993">
        <ele>959.20001220703</ele>
        <time>2018-12-08T13:40:44.000Z</time>
      </trkpt>
      <trkpt lat="43.75925" lon="7.06974">
        <ele>958.20001220703</ele>
        <time>2018-12-08T13:40:49.000Z</time>
      </trkpt>
      <trkpt lat="43.75925" lon="7.06959">
        <ele>957.40002441406</ele>
        <time>2018-12-08T13:40:53.000Z</time>
      </trkpt>
      <trkpt lat="43.7592" lon="7.06941">
        <ele>956.40002441406</ele>
        <time>2018-12-08T13:40:57.000Z</time>
      </trkpt>
      <trkpt lat="43.75918" lon="7.06938">
        <ele>956.20001220703</ele>
        <time>2018-12-08T13:40:58.000Z</time>
      </trkpt>
      <trkpt lat="43.75908" lon="7.06934">
        <ele>955.79998779297</ele>
        <time>2018-12-08T13:41:02.000Z</time>
      </trkpt>
      <trkpt lat="43.75906" lon="7.06935">
        <ele>955.79998779297</ele>
        <time>2018-12-08T13:41:03.000Z</time>
      </trkpt>
      <trkpt lat="43.75897" lon="7.06932">
        <ele>956</ele>
        <time>2018-12-08T13:41:07.000Z</time>
      </trkpt>
      <trkpt lat="43.75886" lon="7.06929">
        <ele>956.59997558594</ele>
        <time>2018-12-08T13:41:12.000Z</time>
      </trkpt>
      <trkpt lat="43.75884" lon="7.06929">
        <ele>956.79998779297</ele>
        <time>2018-12-08T13:41:13.000Z</time>
      </trkpt>
      <trkpt lat="43.75882" lon="7.06928">
        <ele>956.59997558594</ele>
        <time>2018-12-08T13:41:14.000Z</time>
      </trkpt>
      <trkpt lat="43.75875" lon="7.06922">
        <ele>956.59997558594</ele>
        <time>2018-12-08T13:41:17.000Z</time>
      </trkpt>
      <trkpt lat="43.75862" lon="7.0692">
        <ele>956.59997558594</ele>
        <time>2018-12-08T13:41:22.000Z</time>
      </trkpt>
      <trkpt lat="43.7585" lon="7.06923">
        <ele>956.40002441406</ele>
        <time>2018-12-08T13:41:27.000Z</time>
      </trkpt>
      <trkpt lat="43.75837" lon="7.06915">
        <ele>957</ele>
        <time>2018-12-08T13:41:32.000Z</time>
      </trkpt>
      <trkpt lat="43.75831" lon="7.069">
        <ele>956.79998779297</ele>
        <time>2018-12-08T13:41:36.000Z</time>
      </trkpt>
      <trkpt lat="43.75816" lon="7.06882">
        <ele>956</ele>
        <time>2018-12-08T13:41:41.000Z</time>
      </trkpt>
      <trkpt lat="43.75809" lon="7.06874">
        <ele>955.20001220703</ele>
        <time>2018-12-08T13:41:43.000Z</time>
      </trkpt>
      <trkpt lat="43.75804" lon="7.0687">
        <ele>954.59997558594</ele>
        <time>2018-12-08T13:41:45.000Z</time>
      </trkpt>
      <trkpt lat="43.75801" lon="7.0687">
        <ele>954.59997558594</ele>
        <time>2018-12-08T13:41:46.000Z</time>
      </trkpt>
      <trkpt lat="43.75791" lon="7.06865">
        <ele>955.59997558594</ele>
        <time>2018-12-08T13:41:51.000Z</time>
      </trkpt>
      <trkpt lat="43.75783" lon="7.06865">
        <ele>956.40002441406</ele>
        <time>2018-12-08T13:41:54.000Z</time>
      </trkpt>
      <trkpt lat="43.75778" lon="7.06864">
        <ele>956.59997558594</ele>
        <time>2018-12-08T13:41:56.000Z</time>
      </trkpt>
      <trkpt lat="43.75772" lon="7.06862">
        <ele>956.79998779297</ele>
        <time>2018-12-08T13:41:58.000Z</time>
      </trkpt>
      <trkpt lat="43.75759" lon="7.06854">
        <ele>956.79998779297</ele>
        <time>2018-12-08T13:42:03.000Z</time>
      </trkpt>
      <trkpt lat="43.75744" lon="7.06849">
        <ele>956.59997558594</ele>
        <time>2018-12-08T13:42:09.000Z</time>
      </trkpt>
      <trkpt lat="43.75736" lon="7.06845">
        <ele>956.59997558594</ele>
        <time>2018-12-08T13:42:13.000Z</time>
      </trkpt>
      <trkpt lat="43.75733" lon="7.06838">
        <ele>956.40002441406</ele>
        <time>2018-12-08T13:42:15.000Z</time>
      </trkpt>
      <trkpt lat="43.75722" lon="7.06821">
        <ele>955.20001220703</ele>
        <time>2018-12-08T13:42:19.000Z</time>
      </trkpt>
      <trkpt lat="43.75715" lon="7.0681">
        <ele>954.40002441406</ele>
        <time>2018-12-08T13:42:21.000Z</time>
      </trkpt>
      <trkpt lat="43.75712" lon="7.06805">
        <ele>954</ele>
        <time>2018-12-08T13:42:22.000Z</time>
      </trkpt>
      <trkpt lat="43.75708" lon="7.06799">
        <ele>953.20001220703</ele>
        <time>2018-12-08T13:42:23.000Z</time>
      </trkpt>
      <trkpt lat="43.75703" lon="7.06794">
        <ele>952.59997558594</ele>
        <time>2018-12-08T13:42:24.000Z</time>
      </trkpt>
      <trkpt lat="43.75694" lon="7.06782">
        <ele>951.20001220703</ele>
        <time>2018-12-08T13:42:26.000Z</time>
      </trkpt>
      <trkpt lat="43.75691" lon="7.06776">
        <ele>950.59997558594</ele>
        <time>2018-12-08T13:42:27.000Z</time>
      </trkpt>
      <trkpt lat="43.75688" lon="7.06769">
        <ele>950.20001220703</ele>
        <time>2018-12-08T13:42:28.000Z</time>
      </trkpt>
      <trkpt lat="43.75686" lon="7.06764">
        <ele>949.79998779297</ele>
        <time>2018-12-08T13:42:29.000Z</time>
      </trkpt>
      <trkpt lat="43.75675" lon="7.06747">
        <ele>948.79998779297</ele>
        <time>2018-12-08T13:42:32.000Z</time>
      </trkpt>
      <trkpt lat="43.7567" lon="7.06741">
        <ele>948.40002441406</ele>
        <time>2018-12-08T13:42:33.000Z</time>
      </trkpt>
      <trkpt lat="43.75668" lon="7.06735">
        <ele>948.20001220703</ele>
        <time>2018-12-08T13:42:34.000Z</time>
      </trkpt>
      <trkpt lat="43.75667" lon="7.06721">
        <ele>947.79998779297</ele>
        <time>2018-12-08T13:42:36.000Z</time>
      </trkpt>
      <trkpt lat="43.75665" lon="7.06716">
        <ele>947.59997558594</ele>
        <time>2018-12-08T13:42:37.000Z</time>
      </trkpt>
      <trkpt lat="43.75663" lon="7.0671">
        <ele>947.20001220703</ele>
        <time>2018-12-08T13:42:38.000Z</time>
      </trkpt>
      <trkpt lat="43.7566" lon="7.06706">
        <ele>946.79998779297</ele>
        <time>2018-12-08T13:42:39.000Z</time>
      </trkpt>
      <trkpt lat="43.75654" lon="7.06697">
        <ele>946.20001220703</ele>
        <time>2018-12-08T13:42:41.000Z</time>
      </trkpt>
      <trkpt lat="43.75641" lon="7.06672">
        <ele>945.79998779297</ele>
        <time>2018-12-08T13:42:46.000Z</time>
      </trkpt>
      <trkpt lat="43.75631" lon="7.06655">
        <ele>946</ele>
        <time>2018-12-08T13:42:51.000Z</time>
      </trkpt>
      <trkpt lat="43.75623" lon="7.06646">
        <ele>947.20001220703</ele>
        <time>2018-12-08T13:42:55.000Z</time>
      </trkpt>
      <trkpt lat="43.75612" lon="7.06633">
        <ele>947.79998779297</ele>
        <time>2018-12-08T13:43:00.000Z</time>
      </trkpt>
      <trkpt lat="43.75604" lon="7.06623">
        <ele>948.20001220703</ele>
        <time>2018-12-08T13:43:04.000Z</time>
      </trkpt>
      <trkpt lat="43.75599" lon="7.06617">
        <ele>948.59997558594</ele>
        <time>2018-12-08T13:43:07.000Z</time>
      </trkpt>
      <trkpt lat="43.75596" lon="7.06614">
        <ele>949.40002441406</ele>
        <time>2018-12-08T13:43:09.000Z</time>
      </trkpt>
      <trkpt lat="43.75591" lon="7.06605">
        <ele>950.40002441406</ele>
        <time>2018-12-08T13:43:13.000Z</time>
      </trkpt>
      <trkpt lat="43.75589" lon="7.06604">
        <ele>950.59997558594</ele>
        <time>2018-12-08T13:43:14.000Z</time>
      </trkpt>
      <trkpt lat="43.75581" lon="7.06595">
        <ele>951.40002441406</ele>
        <time>2018-12-08T13:43:19.000Z</time>
      </trkpt>
      <trkpt lat="43.75579" lon="7.06593">
        <ele>951.59997558594</ele>
        <time>2018-12-08T13:43:20.000Z</time>
      </trkpt>
      <trkpt lat="43.75572" lon="7.06584">
        <ele>952.59997558594</ele>
        <time>2018-12-08T13:43:25.000Z</time>
      </trkpt>
      <trkpt lat="43.75571" lon="7.06582">
        <ele>952.79998779297</ele>
        <time>2018-12-08T13:43:26.000Z</time>
      </trkpt>
      <trkpt lat="43.75564" lon="7.06572">
        <ele>953.59997558594</ele>
        <time>2018-12-08T13:43:31.000Z</time>
      </trkpt>
      <trkpt lat="43.75561" lon="7.06567">
        <ele>953.79998779297</ele>
        <time>2018-12-08T13:43:34.000Z</time>
      </trkpt>
      <trkpt lat="43.75551" lon="7.0655">
        <ele>954.79998779297</ele>
        <time>2018-12-08T13:43:43.000Z</time>
      </trkpt>
      <trkpt lat="43.75542" lon="7.06533">
        <ele>954.79998779297</ele>
        <time>2018-12-08T13:43:50.000Z</time>
      </trkpt>
      <trkpt lat="43.75539" lon="7.06522">
        <ele>954.59997558594</ele>
        <time>2018-12-08T13:43:52.000Z</time>
      </trkpt>
      <trkpt lat="43.75534" lon="7.06512">
        <ele>954.20001220703</ele>
        <time>2018-12-08T13:43:54.000Z</time>
      </trkpt>
      <trkpt lat="43.75532" lon="7.06507">
        <ele>953.79998779297</ele>
        <time>2018-12-08T13:43:55.000Z</time>
      </trkpt>
      <trkpt lat="43.75523" lon="7.06493">
        <ele>952.59997558594</ele>
        <time>2018-12-08T13:43:58.000Z</time>
      </trkpt>
      <trkpt lat="43.75517" lon="7.06488">
        <ele>952</ele>
        <time>2018-12-08T13:44:00.000Z</time>
      </trkpt>
      <trkpt lat="43.75509" lon="7.06478">
        <ele>952.40002441406</ele>
        <time>2018-12-08T13:44:04.000Z</time>
      </trkpt>
      <trkpt lat="43.75496" lon="7.06464">
        <ele>952.59997558594</ele>
        <time>2018-12-08T13:44:11.000Z</time>
      </trkpt>
      <trkpt lat="43.75487" lon="7.0645">
        <ele>952.79998779297</ele>
        <time>2018-12-08T13:44:17.000Z</time>
      </trkpt>
      <trkpt lat="43.75483" lon="7.06446">
        <ele>953.79998779297</ele>
        <time>2018-12-08T13:44:20.000Z</time>
      </trkpt>
      <trkpt lat="43.75476" lon="7.06442">
        <ele>954.20001220703</ele>
        <time>2018-12-08T13:44:24.000Z</time>
      </trkpt>
      <trkpt lat="43.75468" lon="7.06438">
        <ele>954.79998779297</ele>
        <time>2018-12-08T13:44:29.000Z</time>
      </trkpt>
      <trkpt lat="43.75461" lon="7.06436">
        <ele>955.20001220703</ele>
        <time>2018-12-08T13:44:33.000Z</time>
      </trkpt>
      <trkpt lat="43.75451" lon="7.06435">
        <ele>955.79998779297</ele>
        <time>2018-12-08T13:44:38.000Z</time>
      </trkpt>
      <trkpt lat="43.75449" lon="7.06435">
        <ele>956</ele>
        <time>2018-12-08T13:44:39.000Z</time>
      </trkpt>
      <trkpt lat="43.75436" lon="7.06439">
        <ele>956.59997558594</ele>
        <time>2018-12-08T13:44:46.000Z</time>
      </trkpt>
      <trkpt lat="43.75423" lon="7.06442">
        <ele>956.40002441406</ele>
        <time>2018-12-08T13:44:51.000Z</time>
      </trkpt>
      <trkpt lat="43.75413" lon="7.06446">
        <ele>955.79998779297</ele>
        <time>2018-12-08T13:44:56.000Z</time>
      </trkpt>
      <trkpt lat="43.75411" lon="7.06445">
        <ele>956</ele>
        <time>2018-12-08T13:44:57.000Z</time>
      </trkpt>
      <trkpt lat="43.75403" lon="7.06441">
        <ele>956.20001220703</ele>
        <time>2018-12-08T13:45:02.000Z</time>
      </trkpt>
      <trkpt lat="43.75394" lon="7.06434">
        <ele>956</ele>
        <time>2018-12-08T13:45:07.000Z</time>
      </trkpt>
      <trkpt lat="43.75392" lon="7.06434">
        <ele>956</ele>
        <time>2018-12-08T13:45:08.000Z</time>
      </trkpt>
      <trkpt lat="43.75381" lon="7.06433">
        <ele>956</ele>
        <time>2018-12-08T13:45:14.000Z</time>
      </trkpt>
      <trkpt lat="43.75374" lon="7.06433">
        <ele>956.59997558594</ele>
        <time>2018-12-08T13:45:18.000Z</time>
      </trkpt>
      <trkpt lat="43.75372" lon="7.06432">
        <ele>957</ele>
        <time>2018-12-08T13:45:19.000Z</time>
      </trkpt>
      <trkpt lat="43.7537" lon="7.06429">
        <ele>957.79998779297</ele>
        <time>2018-12-08T13:45:21.000Z</time>
      </trkpt>
      <trkpt lat="43.75368" lon="7.06425">
        <ele>958.20001220703</ele>
        <time>2018-12-08T13:45:23.000Z</time>
      </trkpt>
      <trkpt lat="43.75368" lon="7.06424">
        <ele>958.20001220703</ele>
        <time>2018-12-08T13:45:24.000Z</time>
      </trkpt>
      <trkpt lat="43.75365" lon="7.06414">
        <ele>959.20001220703</ele>
        <time>2018-12-08T13:45:29.000Z</time>
      </trkpt>
      <trkpt lat="43.75363" lon="7.06409">
        <ele>959.79998779297</ele>
        <time>2018-12-08T13:45:32.000Z</time>
      </trkpt>
      <trkpt lat="43.75361" lon="7.06406">
        <ele>960.20001220703</ele>
        <time>2018-12-08T13:45:34.000Z</time>
      </trkpt>
      <trkpt lat="43.75357" lon="7.064">
        <ele>961</ele>
        <time>2018-12-08T13:45:38.000Z</time>
      </trkpt>
      <trkpt lat="43.75352" lon="7.06398">
        <ele>961.20001220703</ele>
        <time>2018-12-08T13:45:41.000Z</time>
      </trkpt>
      <trkpt lat="43.75345" lon="7.06398">
        <ele>961.59997558594</ele>
        <time>2018-12-08T13:45:45.000Z</time>
      </trkpt>
      <trkpt lat="43.75336" lon="7.06399">
        <ele>962.40002441406</ele>
        <time>2018-12-08T13:45:51.000Z</time>
      </trkpt>
      <trkpt lat="43.75333" lon="7.064">
        <ele>962.59997558594</ele>
        <time>2018-12-08T13:45:53.000Z</time>
      </trkpt>
      <trkpt lat="43.75322" lon="7.064">
        <ele>962.59997558594</ele>
        <time>2018-12-08T13:45:59.000Z</time>
      </trkpt>
      <trkpt lat="43.75307" lon="7.06394">
        <ele>962.79998779297</ele>
        <time>2018-12-08T13:46:06.000Z</time>
      </trkpt>
      <trkpt lat="43.75297" lon="7.06393">
        <ele>963.59997558594</ele>
        <time>2018-12-08T13:46:11.000Z</time>
      </trkpt>
      <trkpt lat="43.75292" lon="7.06391">
        <ele>963.79998779297</ele>
        <time>2018-12-08T13:46:13.000Z</time>
      </trkpt>
      <trkpt lat="43.75285" lon="7.06383">
        <ele>964.59997558594</ele>
        <time>2018-12-08T13:46:18.000Z</time>
      </trkpt>
      <trkpt lat="43.75283" lon="7.06381">
        <ele>964.59997558594</ele>
        <time>2018-12-08T13:46:19.000Z</time>
      </trkpt>
      <trkpt lat="43.75277" lon="7.06378">
        <ele>965.59997558594</ele>
        <time>2018-12-08T13:46:23.000Z</time>
      </trkpt>
      <trkpt lat="43.75278" lon="7.06379">
        <ele>965.79998779297</ele>
        <time>2018-12-08T13:46:24.000Z</time>
      </trkpt>
      <trkpt lat="43.75277" lon="7.06378">
        <ele>966</ele>
        <time>2018-12-08T13:46:29.000Z</time>
      </trkpt>
      <trkpt lat="43.75277" lon="7.06378">
        <ele>965.79998779297</ele>
        <time>2018-12-08T13:46:41.000Z</time>
      </trkpt>
      <trkpt lat="43.75277" lon="7.06379">
        <ele>966.20001220703</ele>
        <time>2018-12-08T13:47:06.000Z</time>
      </trkpt>
      <trkpt lat="43.75277" lon="7.06379">
        <ele>966.40002441406</ele>
        <time>2018-12-08T13:47:37.000Z</time>
      </trkpt>
      <trkpt lat="43.75276" lon="7.06379">
        <ele>966.59997558594</ele>
        <time>2018-12-08T13:48:04.000Z</time>
      </trkpt>
      <trkpt lat="43.75276" lon="7.06379">
        <ele>966.59997558594</ele>
        <time>2018-12-08T13:48:32.000Z</time>
      </trkpt>
      <trkpt lat="43.75277" lon="7.06379">
        <ele>966.40002441406</ele>
        <time>2018-12-08T13:49:02.000Z</time>
      </trkpt>
      <trkpt lat="43.75272" lon="7.06375">
        <ele>966.20001220703</ele>
        <time>2018-12-08T13:49:11.000Z</time>
      </trkpt>
      <trkpt lat="43.75257" lon="7.0636">
        <ele>965.20001220703</ele>
        <time>2018-12-08T13:49:17.000Z</time>
      </trkpt>
      <trkpt lat="43.75249" lon="7.06349">
        <ele>964.59997558594</ele>
        <time>2018-12-08T13:49:20.000Z</time>
      </trkpt>
      <trkpt lat="43.75248" lon="7.06343">
        <ele>964.40002441406</ele>
        <time>2018-12-08T13:49:21.000Z</time>
      </trkpt>
      <trkpt lat="43.75246" lon="7.06339">
        <ele>964</ele>
        <time>2018-12-08T13:49:22.000Z</time>
      </trkpt>
      <trkpt lat="43.75241" lon="7.06327">
        <ele>963.40002441406</ele>
        <time>2018-12-08T13:49:26.000Z</time>
      </trkpt>
      <trkpt lat="43.75237" lon="7.06317">
        <ele>963</ele>
        <time>2018-12-08T13:49:28.000Z</time>
      </trkpt>
      <trkpt lat="43.7523" lon="7.06302">
        <ele>962.20001220703</ele>
        <time>2018-12-08T13:49:31.000Z</time>
      </trkpt>
      <trkpt lat="43.75225" lon="7.06291">
        <ele>961.59997558594</ele>
        <time>2018-12-08T13:49:34.000Z</time>
      </trkpt>
      <trkpt lat="43.75226" lon="7.06288">
        <ele>961.40002441406</ele>
        <time>2018-12-08T13:49:35.000Z</time>
      </trkpt>
      <trkpt lat="43.7523" lon="7.06278">
        <ele>962.79998779297</ele>
        <time>2018-12-08T13:49:39.000Z</time>
      </trkpt>
      <trkpt lat="43.7523" lon="7.06273">
        <ele>963.20001220703</ele>
        <time>2018-12-08T13:49:41.000Z</time>
      </trkpt>
      <trkpt lat="43.75228" lon="7.06258">
        <ele>963.59997558594</ele>
        <time>2018-12-08T13:49:45.000Z</time>
      </trkpt>
      <trkpt lat="43.75228" lon="7.06242">
        <ele>964.20001220703</ele>
        <time>2018-12-08T13:49:50.000Z</time>
      </trkpt>
      <trkpt lat="43.75228" lon="7.06239">
        <ele>964.40002441406</ele>
        <time>2018-12-08T13:49:51.000Z</time>
      </trkpt>
      <trkpt lat="43.75226" lon="7.06227">
        <ele>964.59997558594</ele>
        <time>2018-12-08T13:49:55.000Z</time>
      </trkpt>
      <trkpt lat="43.7522" lon="7.06215">
        <ele>964.59997558594</ele>
        <time>2018-12-08T13:49:59.000Z</time>
      </trkpt>
      <trkpt lat="43.75214" lon="7.06207">
        <ele>964.20001220703</ele>
        <time>2018-12-08T13:50:01.000Z</time>
      </trkpt>
      <trkpt lat="43.75204" lon="7.06191">
        <ele>962.79998779297</ele>
        <time>2018-12-08T13:50:04.000Z</time>
      </trkpt>
      <trkpt lat="43.75195" lon="7.06179">
        <ele>960.79998779297</ele>
        <time>2018-12-08T13:50:06.000Z</time>
      </trkpt>
      <trkpt lat="43.75186" lon="7.06168">
        <ele>959.40002441406</ele>
        <time>2018-12-08T13:50:08.000Z</time>
      </trkpt>
      <trkpt lat="43.75178" lon="7.06153">
        <ele>958.20001220703</ele>
        <time>2018-12-08T13:50:11.000Z</time>
      </trkpt>
      <trkpt lat="43.75174" lon="7.06149">
        <ele>958</ele>
        <time>2018-12-08T13:50:12.000Z</time>
      </trkpt>
      <trkpt lat="43.75167" lon="7.06142">
        <ele>956.59997558594</ele>
        <time>2018-12-08T13:50:14.000Z</time>
      </trkpt>
      <trkpt lat="43.75164" lon="7.06137">
        <ele>956.59997558594</ele>
        <time>2018-12-08T13:50:15.000Z</time>
      </trkpt>
      <trkpt lat="43.75161" lon="7.06132">
        <ele>956.20001220703</ele>
        <time>2018-12-08T13:50:16.000Z</time>
      </trkpt>
      <trkpt lat="43.75158" lon="7.06128">
        <ele>955.59997558594</ele>
        <time>2018-12-08T13:50:17.000Z</time>
      </trkpt>
      <trkpt lat="43.75147" lon="7.06114">
        <ele>954.59997558594</ele>
        <time>2018-12-08T13:50:21.000Z</time>
      </trkpt>
      <trkpt lat="43.75135" lon="7.06103">
        <ele>954.59997558594</ele>
        <time>2018-12-08T13:50:25.000Z</time>
      </trkpt>
      <trkpt lat="43.75128" lon="7.06094">
        <ele>954.59997558594</ele>
        <time>2018-12-08T13:50:28.000Z</time>
      </trkpt>
      <trkpt lat="43.7511" lon="7.06078">
        <ele>955.40002441406</ele>
        <time>2018-12-08T13:50:34.000Z</time>
      </trkpt>
      <trkpt lat="43.75103" lon="7.06073">
        <ele>955</ele>
        <time>2018-12-08T13:50:37.000Z</time>
      </trkpt>
      <trkpt lat="43.75097" lon="7.06068">
        <ele>953.79998779297</ele>
        <time>2018-12-08T13:50:40.000Z</time>
      </trkpt>
      <trkpt lat="43.75095" lon="7.06066">
        <ele>953.40002441406</ele>
        <time>2018-12-08T13:50:41.000Z</time>
      </trkpt>
      <trkpt lat="43.75087" lon="7.06062">
        <ele>952.59997558594</ele>
        <time>2018-12-08T13:50:43.000Z</time>
      </trkpt>
      <trkpt lat="43.75085" lon="7.06059">
        <ele>952</ele>
        <time>2018-12-08T13:50:44.000Z</time>
      </trkpt>
      <trkpt lat="43.75083" lon="7.06055">
        <ele>951.40002441406</ele>
        <time>2018-12-08T13:50:45.000Z</time>
      </trkpt>
      <trkpt lat="43.75081" lon="7.06053">
        <ele>951</ele>
        <time>2018-12-08T13:50:46.000Z</time>
      </trkpt>
      <trkpt lat="43.7508" lon="7.06051">
        <ele>950.79998779297</ele>
        <time>2018-12-08T13:50:47.000Z</time>
      </trkpt>
      <trkpt lat="43.75077" lon="7.0605">
        <ele>950.79998779297</ele>
        <time>2018-12-08T13:50:48.000Z</time>
      </trkpt>
      <trkpt lat="43.75071" lon="7.06047">
        <ele>951</ele>
        <time>2018-12-08T13:50:51.000Z</time>
      </trkpt>
      <trkpt lat="43.75056" lon="7.06037">
        <ele>951.20001220703</ele>
        <time>2018-12-08T13:50:57.000Z</time>
      </trkpt>
      <trkpt lat="43.75053" lon="7.06033">
        <ele>951.20001220703</ele>
        <time>2018-12-08T13:50:59.000Z</time>
      </trkpt>
      <trkpt lat="43.75048" lon="7.06029">
        <ele>951.40002441406</ele>
        <time>2018-12-08T13:51:01.000Z</time>
      </trkpt>
      <trkpt lat="43.75039" lon="7.06025">
        <ele>951.20001220703</ele>
        <time>2018-12-08T13:51:04.000Z</time>
      </trkpt>
      <trkpt lat="43.75034" lon="7.0602">
        <ele>951</ele>
        <time>2018-12-08T13:51:06.000Z</time>
      </trkpt>
      <trkpt lat="43.7503" lon="7.06004">
        <ele>951.20001220703</ele>
        <time>2018-12-08T13:51:10.000Z</time>
      </trkpt>
      <trkpt lat="43.75029" lon="7.0598">
        <ele>951.59997558594</ele>
        <time>2018-12-08T13:51:16.000Z</time>
      </trkpt>
      <trkpt lat="43.75026" lon="7.05955">
        <ele>951.20001220703</ele>
        <time>2018-12-08T13:51:21.000Z</time>
      </trkpt>
      <trkpt lat="43.75019" lon="7.05935">
        <ele>950.20001220703</ele>
        <time>2018-12-08T13:51:26.000Z</time>
      </trkpt>
      <trkpt lat="43.75014" lon="7.0592">
        <ele>950.20001220703</ele>
        <time>2018-12-08T13:51:30.000Z</time>
      </trkpt>
      <trkpt lat="43.7501" lon="7.05908">
        <ele>951.40002441406</ele>
        <time>2018-12-08T13:51:35.000Z</time>
      </trkpt>
      <trkpt lat="43.75009" lon="7.05905">
        <ele>951.79998779297</ele>
        <time>2018-12-08T13:51:36.000Z</time>
      </trkpt>
      <trkpt lat="43.75008" lon="7.05895">
        <ele>953</ele>
        <time>2018-12-08T13:51:40.000Z</time>
      </trkpt>
      <trkpt lat="43.75007" lon="7.05892">
        <ele>953.20001220703</ele>
        <time>2018-12-08T13:51:41.000Z</time>
      </trkpt>
      <trkpt lat="43.75007" lon="7.05888">
        <ele>953.79998779297</ele>
        <time>2018-12-08T13:51:43.000Z</time>
      </trkpt>
      <trkpt lat="43.75007" lon="7.05887">
        <ele>954</ele>
        <time>2018-12-08T13:51:44.000Z</time>
      </trkpt>
      <trkpt lat="43.75007" lon="7.05886">
        <ele>954.20001220703</ele>
        <time>2018-12-08T13:51:45.000Z</time>
      </trkpt>
      <trkpt lat="43.75007" lon="7.05875">
        <ele>955.20001220703</ele>
        <time>2018-12-08T13:51:50.000Z</time>
      </trkpt>
      <trkpt lat="43.75007" lon="7.05871">
        <ele>955.40002441406</ele>
        <time>2018-12-08T13:51:52.000Z</time>
      </trkpt>
      <trkpt lat="43.75005" lon="7.05851">
        <ele>956.20001220703</ele>
        <time>2018-12-08T13:52:00.000Z</time>
      </trkpt>
      <trkpt lat="43.75006" lon="7.05848">
        <ele>956</ele>
        <time>2018-12-08T13:52:01.000Z</time>
      </trkpt>
      <trkpt lat="43.75001" lon="7.05832">
        <ele>956.20001220703</ele>
        <time>2018-12-08T13:52:07.000Z</time>
      </trkpt>
      <trkpt lat="43.74994" lon="7.0582">
        <ele>956</ele>
        <time>2018-12-08T13:52:12.000Z</time>
      </trkpt>
      <trkpt lat="43.74993" lon="7.05817">
        <ele>956</ele>
        <time>2018-12-08T13:52:13.000Z</time>
      </trkpt>
      <trkpt lat="43.74988" lon="7.05806">
        <ele>956</ele>
        <time>2018-12-08T13:52:17.000Z</time>
      </trkpt>
      <trkpt lat="43.74984" lon="7.05801">
        <ele>956</ele>
        <time>2018-12-08T13:52:19.000Z</time>
      </trkpt>
      <trkpt lat="43.7497" lon="7.05786">
        <ele>956.20001220703</ele>
        <time>2018-12-08T13:52:26.000Z</time>
      </trkpt>
      <trkpt lat="43.74962" lon="7.05769">
        <ele>955.79998779297</ele>
        <time>2018-12-08T13:52:31.000Z</time>
      </trkpt>
      <trkpt lat="43.74958" lon="7.05763">
        <ele>955.59997558594</ele>
        <time>2018-12-08T13:52:34.000Z</time>
      </trkpt>
      <trkpt lat="43.74956" lon="7.05762">
        <ele>955.40002441406</ele>
        <time>2018-12-08T13:52:35.000Z</time>
      </trkpt>
      <trkpt lat="43.74952" lon="7.0576">
        <ele>955.20001220703</ele>
        <time>2018-12-08T13:52:37.000Z</time>
      </trkpt>
      <trkpt lat="43.7495" lon="7.05761">
        <ele>955</ele>
        <time>2018-12-08T13:52:38.000Z</time>
      </trkpt>
      <trkpt lat="43.7495" lon="7.05761">
        <ele>954.79998779297</ele>
        <time>2018-12-08T13:52:40.000Z</time>
      </trkpt>
      <trkpt lat="43.7495" lon="7.05761">
        <ele>954.79998779297</ele>
        <time>2018-12-08T13:52:49.000Z</time>
      </trkpt>
      <trkpt lat="43.7495" lon="7.05762">
        <ele>954.79998779297</ele>
        <time>2018-12-08T13:53:00.000Z</time>
      </trkpt>
      <trkpt lat="43.7495" lon="7.05763">
        <ele>955</ele>
        <time>2018-12-08T13:53:18.000Z</time>
      </trkpt>
      <trkpt lat="43.7495" lon="7.05762">
        <ele>955.40002441406</ele>
        <time>2018-12-08T13:53:39.000Z</time>
      </trkpt>
      <trkpt lat="43.74947" lon="7.05769">
        <ele>955.40002441406</ele>
        <time>2018-12-08T13:53:45.000Z</time>
      </trkpt>
      <trkpt lat="43.7494" lon="7.05789">
        <ele>955</ele>
        <time>2018-12-08T13:53:50.000Z</time>
      </trkpt>
      <trkpt lat="43.74934" lon="7.05802">
        <ele>953.79998779297</ele>
        <time>2018-12-08T13:53:53.000Z</time>
      </trkpt>
      <trkpt lat="43.74926" lon="7.05811">
        <ele>953.40002441406</ele>
        <time>2018-12-08T13:53:55.000Z</time>
      </trkpt>
      <trkpt lat="43.74919" lon="7.0582">
        <ele>952.79998779297</ele>
        <time>2018-12-08T13:53:57.000Z</time>
      </trkpt>
      <trkpt lat="43.74906" lon="7.05829">
        <ele>951</ele>
        <time>2018-12-08T13:54:00.000Z</time>
      </trkpt>
      <trkpt lat="43.74901" lon="7.05831">
        <ele>950.20001220703</ele>
        <time>2018-12-08T13:54:01.000Z</time>
      </trkpt>
      <trkpt lat="43.74896" lon="7.05832">
        <ele>949</ele>
        <time>2018-12-08T13:54:02.000Z</time>
      </trkpt>
      <trkpt lat="43.7489" lon="7.05833">
        <ele>949</ele>
        <time>2018-12-08T13:54:03.000Z</time>
      </trkpt>
      <trkpt lat="43.74874" lon="7.05831">
        <ele>948.20001220703</ele>
        <time>2018-12-08T13:54:06.000Z</time>
      </trkpt>
      <trkpt lat="43.74868" lon="7.0583">
        <ele>947.40002441406</ele>
        <time>2018-12-08T13:54:07.000Z</time>
      </trkpt>
      <trkpt lat="43.74855" lon="7.05826">
        <ele>946</ele>
        <time>2018-12-08T13:54:09.000Z</time>
      </trkpt>
      <trkpt lat="43.74841" lon="7.0583">
        <ele>944.20001220703</ele>
        <time>2018-12-08T13:54:11.000Z</time>
      </trkpt>
      <trkpt lat="43.74829" lon="7.05836">
        <ele>942.79998779297</ele>
        <time>2018-12-08T13:54:13.000Z</time>
      </trkpt>
      <trkpt lat="43.74817" lon="7.05839">
        <ele>941.59997558594</ele>
        <time>2018-12-08T13:54:15.000Z</time>
      </trkpt>
      <trkpt lat="43.74808" lon="7.05848">
        <ele>940.20001220703</ele>
        <time>2018-12-08T13:54:17.000Z</time>
      </trkpt>
      <trkpt lat="43.74805" lon="7.05853">
        <ele>939.59997558594</ele>
        <time>2018-12-08T13:54:18.000Z</time>
      </trkpt>
      <trkpt lat="43.74801" lon="7.0586">
        <ele>939</ele>
        <time>2018-12-08T13:54:20.000Z</time>
      </trkpt>
      <trkpt lat="43.74798" lon="7.05869">
        <ele>938.40002441406</ele>
        <time>2018-12-08T13:54:22.000Z</time>
      </trkpt>
      <trkpt lat="43.74796" lon="7.05874">
        <ele>937.20001220703</ele>
        <time>2018-12-08T13:54:23.000Z</time>
      </trkpt>
      <trkpt lat="43.74788" lon="7.05886">
        <ele>935.79998779297</ele>
        <time>2018-12-08T13:54:25.000Z</time>
      </trkpt>
      <trkpt lat="43.74784" lon="7.05892">
        <ele>935.20001220703</ele>
        <time>2018-12-08T13:54:26.000Z</time>
      </trkpt>
      <trkpt lat="43.74778" lon="7.05897">
        <ele>934.59997558594</ele>
        <time>2018-12-08T13:54:27.000Z</time>
      </trkpt>
      <trkpt lat="43.74768" lon="7.05907">
        <ele>932.40002441406</ele>
        <time>2018-12-08T13:54:29.000Z</time>
      </trkpt>
      <trkpt lat="43.74764" lon="7.05911">
        <ele>931.59997558594</ele>
        <time>2018-12-08T13:54:30.000Z</time>
      </trkpt>
      <trkpt lat="43.74762" lon="7.05915">
        <ele>931</ele>
        <time>2018-12-08T13:54:31.000Z</time>
      </trkpt>
      <trkpt lat="43.74763" lon="7.05924">
        <ele>930</ele>
        <time>2018-12-08T13:54:33.000Z</time>
      </trkpt>
      <trkpt lat="43.74769" lon="7.05952">
        <ele>928.59997558594</ele>
        <time>2018-12-08T13:54:37.000Z</time>
      </trkpt>
      <trkpt lat="43.74771" lon="7.05967">
        <ele>928.20001220703</ele>
        <time>2018-12-08T13:54:39.000Z</time>
      </trkpt>
      <trkpt lat="43.74771" lon="7.05976">
        <ele>927.59997558594</ele>
        <time>2018-12-08T13:54:40.000Z</time>
      </trkpt>
      <trkpt lat="43.74769" lon="7.05984">
        <ele>927</ele>
        <time>2018-12-08T13:54:41.000Z</time>
      </trkpt>
      <trkpt lat="43.74767" lon="7.05994">
        <ele>926.40002441406</ele>
        <time>2018-12-08T13:54:42.000Z</time>
      </trkpt>
      <trkpt lat="43.74764" lon="7.06011">
        <ele>924.79998779297</ele>
        <time>2018-12-08T13:54:44.000Z</time>
      </trkpt>
      <trkpt lat="43.74761" lon="7.06029">
        <ele>922.59997558594</ele>
        <time>2018-12-08T13:54:46.000Z</time>
      </trkpt>
      <trkpt lat="43.74756" lon="7.06043">
        <ele>921.40002441406</ele>
        <time>2018-12-08T13:54:48.000Z</time>
      </trkpt>
      <trkpt lat="43.74751" lon="7.06047">
        <ele>920.40002441406</ele>
        <time>2018-12-08T13:54:49.000Z</time>
      </trkpt>
      <trkpt lat="43.74747" lon="7.06052">
        <ele>919.79998779297</ele>
        <time>2018-12-08T13:54:50.000Z</time>
      </trkpt>
      <trkpt lat="43.74738" lon="7.06062">
        <ele>918</ele>
        <time>2018-12-08T13:54:52.000Z</time>
      </trkpt>
      <trkpt lat="43.74731" lon="7.06073">
        <ele>917.20001220703</ele>
        <time>2018-12-08T13:54:54.000Z</time>
      </trkpt>
      <trkpt lat="43.74729" lon="7.06078">
        <ele>916.59997558594</ele>
        <time>2018-12-08T13:54:55.000Z</time>
      </trkpt>
      <trkpt lat="43.74733" lon="7.06088">
        <ele>916</ele>
        <time>2018-12-08T13:54:57.000Z</time>
      </trkpt>
      <trkpt lat="43.74737" lon="7.06091">
        <ele>915</ele>
        <time>2018-12-08T13:54:58.000Z</time>
      </trkpt>
      <trkpt lat="43.74746" lon="7.06092">
        <ele>913.59997558594</ele>
        <time>2018-12-08T13:55:00.000Z</time>
      </trkpt>
      <trkpt lat="43.74754" lon="7.06089">
        <ele>912</ele>
        <time>2018-12-08T13:55:02.000Z</time>
      </trkpt>
      <trkpt lat="43.74761" lon="7.06084">
        <ele>911.59997558594</ele>
        <time>2018-12-08T13:55:04.000Z</time>
      </trkpt>
      <trkpt lat="43.7477" lon="7.06074">
        <ele>911.79998779297</ele>
        <time>2018-12-08T13:55:07.000Z</time>
      </trkpt>
      <trkpt lat="43.7478" lon="7.06062">
        <ele>911.59997558594</ele>
        <time>2018-12-08T13:55:10.000Z</time>
      </trkpt>
      <trkpt lat="43.74788" lon="7.06054">
        <ele>911.40002441406</ele>
        <time>2018-12-08T13:55:12.000Z</time>
      </trkpt>
      <trkpt lat="43.74797" lon="7.06048">
        <ele>910.20001220703</ele>
        <time>2018-12-08T13:55:14.000Z</time>
      </trkpt>
      <trkpt lat="43.74803" lon="7.06045">
        <ele>910</ele>
        <time>2018-12-08T13:55:15.000Z</time>
      </trkpt>
      <trkpt lat="43.74814" lon="7.06038">
        <ele>908</ele>
        <time>2018-12-08T13:55:17.000Z</time>
      </trkpt>
      <trkpt lat="43.74819" lon="7.06034">
        <ele>906.20001220703</ele>
        <time>2018-12-08T13:55:18.000Z</time>
      </trkpt>
      <trkpt lat="43.74823" lon="7.06031">
        <ele>904.59997558594</ele>
        <time>2018-12-08T13:55:19.000Z</time>
      </trkpt>
      <trkpt lat="43.74827" lon="7.06029">
        <ele>903.59997558594</ele>
        <time>2018-12-08T13:55:20.000Z</time>
      </trkpt>
      <trkpt lat="43.7483" lon="7.06032">
        <ele>901.79998779297</ele>
        <time>2018-12-08T13:55:21.000Z</time>
      </trkpt>
      <trkpt lat="43.74831" lon="7.06037">
        <ele>900.59997558594</ele>
        <time>2018-12-08T13:55:22.000Z</time>
      </trkpt>
      <trkpt lat="43.74829" lon="7.06048">
        <ele>898.79998779297</ele>
        <time>2018-12-08T13:55:24.000Z</time>
      </trkpt>
      <trkpt lat="43.74828" lon="7.06056">
        <ele>898.40002441406</ele>
        <time>2018-12-08T13:55:25.000Z</time>
      </trkpt>
      <trkpt lat="43.74826" lon="7.06062">
        <ele>897.59997558594</ele>
        <time>2018-12-08T13:55:26.000Z</time>
      </trkpt>
      <trkpt lat="43.74824" lon="7.06075">
        <ele>895.20001220703</ele>
        <time>2018-12-08T13:55:28.000Z</time>
      </trkpt>
      <trkpt lat="43.74822" lon="7.0608">
        <ele>894</ele>
        <time>2018-12-08T13:55:29.000Z</time>
      </trkpt>
      <trkpt lat="43.74819" lon="7.06094">
        <ele>892.59997558594</ele>
        <time>2018-12-08T13:55:31.000Z</time>
      </trkpt>
      <trkpt lat="43.74818" lon="7.061">
        <ele>891</ele>
        <time>2018-12-08T13:55:32.000Z</time>
      </trkpt>
      <trkpt lat="43.74817" lon="7.06106">
        <ele>889.79998779297</ele>
        <time>2018-12-08T13:55:33.000Z</time>
      </trkpt>
      <trkpt lat="43.74816" lon="7.06112">
        <ele>888.59997558594</ele>
        <time>2018-12-08T13:55:34.000Z</time>
      </trkpt>
      <trkpt lat="43.74815" lon="7.06118">
        <ele>886.59997558594</ele>
        <time>2018-12-08T13:55:35.000Z</time>
      </trkpt>
      <trkpt lat="43.74814" lon="7.0613">
        <ele>885</ele>
        <time>2018-12-08T13:55:37.000Z</time>
      </trkpt>
      <trkpt lat="43.74813" lon="7.06141">
        <ele>883.20001220703</ele>
        <time>2018-12-08T13:55:39.000Z</time>
      </trkpt>
      <trkpt lat="43.74812" lon="7.06147">
        <ele>882</ele>
        <time>2018-12-08T13:55:40.000Z</time>
      </trkpt>
      <trkpt lat="43.74812" lon="7.06152">
        <ele>880.79998779297</ele>
        <time>2018-12-08T13:55:41.000Z</time>
      </trkpt>
      <trkpt lat="43.7481" lon="7.06164">
        <ele>879.40002441406</ele>
        <time>2018-12-08T13:55:43.000Z</time>
      </trkpt>
      <trkpt lat="43.74809" lon="7.06175">
        <ele>877.40002441406</ele>
        <time>2018-12-08T13:55:45.000Z</time>
      </trkpt>
      <trkpt lat="43.74807" lon="7.0618">
        <ele>877.20001220703</ele>
        <time>2018-12-08T13:55:46.000Z</time>
      </trkpt>
      <trkpt lat="43.74806" lon="7.06185">
        <ele>876</ele>
        <time>2018-12-08T13:55:47.000Z</time>
      </trkpt>
      <trkpt lat="43.74805" lon="7.06191">
        <ele>874.79998779297</ele>
        <time>2018-12-08T13:55:48.000Z</time>
      </trkpt>
      <trkpt lat="43.74804" lon="7.06196">
        <ele>874</ele>
        <time>2018-12-08T13:55:49.000Z</time>
      </trkpt>
      <trkpt lat="43.74803" lon="7.06202">
        <ele>873</ele>
        <time>2018-12-08T13:55:50.000Z</time>
      </trkpt>
      <trkpt lat="43.74801" lon="7.06207">
        <ele>874</ele>
        <time>2018-12-08T13:55:51.000Z</time>
      </trkpt>
      <trkpt lat="43.74794" lon="7.06221">
        <ele>871.79998779297</ele>
        <time>2018-12-08T13:55:54.000Z</time>
      </trkpt>
      <trkpt lat="43.74789" lon="7.0623">
        <ele>870</ele>
        <time>2018-12-08T13:55:56.000Z</time>
      </trkpt>
      <trkpt lat="43.74784" lon="7.06238">
        <ele>867.40002441406</ele>
        <time>2018-12-08T13:55:58.000Z</time>
      </trkpt>
      <trkpt lat="43.74779" lon="7.06246">
        <ele>865.40002441406</ele>
        <time>2018-12-08T13:56:00.000Z</time>
      </trkpt>
      <trkpt lat="43.74777" lon="7.0625">
        <ele>864.40002441406</ele>
        <time>2018-12-08T13:56:01.000Z</time>
      </trkpt>
      <trkpt lat="43.74772" lon="7.06257">
        <ele>862.59997558594</ele>
        <time>2018-12-08T13:56:03.000Z</time>
      </trkpt>
      <trkpt lat="43.74767" lon="7.06264">
        <ele>861.40002441406</ele>
        <time>2018-12-08T13:56:05.000Z</time>
      </trkpt>
      <trkpt lat="43.74765" lon="7.06267">
        <ele>860.59997558594</ele>
        <time>2018-12-08T13:56:06.000Z</time>
      </trkpt>
      <trkpt lat="43.74763" lon="7.0627">
        <ele>860.20001220703</ele>
        <time>2018-12-08T13:56:07.000Z</time>
      </trkpt>
      <trkpt lat="43.74764" lon="7.06268">
        <ele>859</ele>
        <time>2018-12-08T13:56:08.000Z</time>
      </trkpt>
      <trkpt lat="43.74763" lon="7.06269">
        <ele>858.79998779297</ele>
        <time>2018-12-08T13:56:09.000Z</time>
      </trkpt>
      <trkpt lat="43.74763" lon="7.06269">
        <ele>857.79998779297</ele>
        <time>2018-12-08T13:56:14.000Z</time>
      </trkpt>
      <trkpt lat="43.74763" lon="7.06269">
        <ele>857</ele>
        <time>2018-12-08T13:56:22.000Z</time>
      </trkpt>
      <trkpt lat="43.74764" lon="7.06269">
        <ele>856.79998779297</ele>
        <time>2018-12-08T13:56:26.000Z</time>
      </trkpt>
      <trkpt lat="43.74764" lon="7.06269">
        <ele>856.40002441406</ele>
        <time>2018-12-08T13:56:29.000Z</time>
      </trkpt>
      <trkpt lat="43.74763" lon="7.06268">
        <ele>855.79998779297</ele>
        <time>2018-12-08T13:56:34.000Z</time>
      </trkpt>
      <trkpt lat="43.74763" lon="7.06268">
        <ele>855.40002441406</ele>
        <time>2018-12-08T13:56:35.000Z</time>
      </trkpt>
      <trkpt lat="43.74764" lon="7.06268">
        <ele>855.20001220703</ele>
        <time>2018-12-08T13:56:40.000Z</time>
      </trkpt>
      <trkpt lat="43.74765" lon="7.06269">
        <ele>854.79998779297</ele>
        <time>2018-12-08T13:56:43.000Z</time>
      </trkpt>
      <trkpt lat="43.74769" lon="7.06271">
        <ele>854.59997558594</ele>
        <time>2018-12-08T13:56:45.000Z</time>
      </trkpt>
      <trkpt lat="43.74771" lon="7.06272">
        <ele>854.20001220703</ele>
        <time>2018-12-08T13:56:46.000Z</time>
      </trkpt>
      <trkpt lat="43.74778" lon="7.06275">
        <ele>852.59997558594</ele>
        <time>2018-12-08T13:56:49.000Z</time>
      </trkpt>
      <trkpt lat="43.7478" lon="7.06276">
        <ele>852.20001220703</ele>
        <time>2018-12-08T13:56:50.000Z</time>
      </trkpt>
      <trkpt lat="43.74783" lon="7.06277">
        <ele>851.20001220703</ele>
        <time>2018-12-08T13:56:51.000Z</time>
      </trkpt>
      <trkpt lat="43.74786" lon="7.0628">
        <ele>850.20001220703</ele>
        <time>2018-12-08T13:56:53.000Z</time>
      </trkpt>
      <trkpt lat="43.74786" lon="7.06282">
        <ele>849.59997558594</ele>
        <time>2018-12-08T13:56:54.000Z</time>
      </trkpt>
      <trkpt lat="43.74784" lon="7.06284">
        <ele>849</ele>
        <time>2018-12-08T13:56:55.000Z</time>
      </trkpt>
      <trkpt lat="43.74778" lon="7.06287">
        <ele>848.20001220703</ele>
        <time>2018-12-08T13:56:57.000Z</time>
      </trkpt>
      <trkpt lat="43.74774" lon="7.06288">
        <ele>847.79998779297</ele>
        <time>2018-12-08T13:56:58.000Z</time>
      </trkpt>
      <trkpt lat="43.74765" lon="7.06294">
        <ele>846.40002441406</ele>
        <time>2018-12-08T13:57:01.000Z</time>
      </trkpt>
      <trkpt lat="43.74762" lon="7.06295">
        <ele>845.59997558594</ele>
        <time>2018-12-08T13:57:02.000Z</time>
      </trkpt>
      <trkpt lat="43.74758" lon="7.06299">
        <ele>845</ele>
        <time>2018-12-08T13:57:04.000Z</time>
      </trkpt>
      <trkpt lat="43.74759" lon="7.06301">
        <ele>844.40002441406</ele>
        <time>2018-12-08T13:57:05.000Z</time>
      </trkpt>
      <trkpt lat="43.74761" lon="7.06303">
        <ele>843.59997558594</ele>
        <time>2018-12-08T13:57:06.000Z</time>
      </trkpt>
      <trkpt lat="43.74765" lon="7.06308">
        <ele>842</ele>
        <time>2018-12-08T13:57:08.000Z</time>
      </trkpt>
      <trkpt lat="43.74771" lon="7.06313">
        <ele>840.79998779297</ele>
        <time>2018-12-08T13:57:10.000Z</time>
      </trkpt>
      <trkpt lat="43.74776" lon="7.06319">
        <ele>839.40002441406</ele>
        <time>2018-12-08T13:57:12.000Z</time>
      </trkpt>
      <trkpt lat="43.74779" lon="7.06324">
        <ele>837.59997558594</ele>
        <time>2018-12-08T13:57:14.000Z</time>
      </trkpt>
      <trkpt lat="43.74777" lon="7.06328">
        <ele>836.79998779297</ele>
        <time>2018-12-08T13:57:15.000Z</time>
      </trkpt>
      <trkpt lat="43.74775" lon="7.0633">
        <ele>836.20001220703</ele>
        <time>2018-12-08T13:57:16.000Z</time>
      </trkpt>
      <trkpt lat="43.7477" lon="7.06331">
        <ele>835.59997558594</ele>
        <time>2018-12-08T13:57:18.000Z</time>
      </trkpt>
      <trkpt lat="43.74766" lon="7.06334">
        <ele>835</ele>
        <time>2018-12-08T13:57:20.000Z</time>
      </trkpt>
      <trkpt lat="43.74766" lon="7.06341">
        <ele>834.20001220703</ele>
        <time>2018-12-08T13:57:22.000Z</time>
      </trkpt>
      <trkpt lat="43.74767" lon="7.06345">
        <ele>833.20001220703</ele>
        <time>2018-12-08T13:57:23.000Z</time>
      </trkpt>
      <trkpt lat="43.74765" lon="7.06357">
        <ele>831.59997558594</ele>
        <time>2018-12-08T13:57:25.000Z</time>
      </trkpt>
      <trkpt lat="43.74762" lon="7.06362">
        <ele>831</ele>
        <time>2018-12-08T13:57:26.000Z</time>
      </trkpt>
      <trkpt lat="43.7476" lon="7.06367">
        <ele>829.79998779297</ele>
        <time>2018-12-08T13:57:27.000Z</time>
      </trkpt>
      <trkpt lat="43.74755" lon="7.06377">
        <ele>828.79998779297</ele>
        <time>2018-12-08T13:57:29.000Z</time>
      </trkpt>
      <trkpt lat="43.74751" lon="7.06382">
        <ele>828</ele>
        <time>2018-12-08T13:57:30.000Z</time>
      </trkpt>
      <trkpt lat="43.74748" lon="7.06386">
        <ele>827.20001220703</ele>
        <time>2018-12-08T13:57:31.000Z</time>
      </trkpt>
      <trkpt lat="43.74739" lon="7.06393">
        <ele>825.59997558594</ele>
        <time>2018-12-08T13:57:33.000Z</time>
      </trkpt>
      <trkpt lat="43.74735" lon="7.06397">
        <ele>824.59997558594</ele>
        <time>2018-12-08T13:57:34.000Z</time>
      </trkpt>
      <trkpt lat="43.7473" lon="7.06401">
        <ele>823.59997558594</ele>
        <time>2018-12-08T13:57:35.000Z</time>
      </trkpt>
      <trkpt lat="43.74719" lon="7.06405">
        <ele>822.59997558594</ele>
        <time>2018-12-08T13:57:37.000Z</time>
      </trkpt>
      <trkpt lat="43.74713" lon="7.06405">
        <ele>821.79998779297</ele>
        <time>2018-12-08T13:57:38.000Z</time>
      </trkpt>
      <trkpt lat="43.74709" lon="7.06405">
        <ele>821</ele>
        <time>2018-12-08T13:57:39.000Z</time>
      </trkpt>
      <trkpt lat="43.74704" lon="7.06405">
        <ele>821</ele>
        <time>2018-12-08T13:57:40.000Z</time>
      </trkpt>
      <trkpt lat="43.747" lon="7.06404">
        <ele>819.40002441406</ele>
        <time>2018-12-08T13:57:41.000Z</time>
      </trkpt>
      <trkpt lat="43.74694" lon="7.06404">
        <ele>818.59997558594</ele>
        <time>2018-12-08T13:57:42.000Z</time>
      </trkpt>
      <trkpt lat="43.74689" lon="7.06405">
        <ele>817.59997558594</ele>
        <time>2018-12-08T13:57:43.000Z</time>
      </trkpt>
      <trkpt lat="43.74679" lon="7.06408">
        <ele>815.59997558594</ele>
        <time>2018-12-08T13:57:45.000Z</time>
      </trkpt>
      <trkpt lat="43.74674" lon="7.06407">
        <ele>815</ele>
        <time>2018-12-08T13:57:46.000Z</time>
      </trkpt>
      <trkpt lat="43.74669" lon="7.06408">
        <ele>815</ele>
        <time>2018-12-08T13:57:47.000Z</time>
      </trkpt>
      <trkpt lat="43.74663" lon="7.0641">
        <ele>813.79998779297</ele>
        <time>2018-12-08T13:57:48.000Z</time>
      </trkpt>
      <trkpt lat="43.74657" lon="7.06411">
        <ele>812.40002441406</ele>
        <time>2018-12-08T13:57:49.000Z</time>
      </trkpt>
      <trkpt lat="43.74644" lon="7.06417">
        <ele>810.79998779297</ele>
        <time>2018-12-08T13:57:51.000Z</time>
      </trkpt>
      <trkpt lat="43.74637" lon="7.06421">
        <ele>809.40002441406</ele>
        <time>2018-12-08T13:57:52.000Z</time>
      </trkpt>
      <trkpt lat="43.74631" lon="7.06426">
        <ele>808.40002441406</ele>
        <time>2018-12-08T13:57:53.000Z</time>
      </trkpt>
      <trkpt lat="43.74619" lon="7.06437">
        <ele>806.20001220703</ele>
        <time>2018-12-08T13:57:55.000Z</time>
      </trkpt>
      <trkpt lat="43.74613" lon="7.06442">
        <ele>807.20001220703</ele>
        <time>2018-12-08T13:57:56.000Z</time>
      </trkpt>
      <trkpt lat="43.74602" lon="7.06451">
        <ele>806</ele>
        <time>2018-12-08T13:57:58.000Z</time>
      </trkpt>
      <trkpt lat="43.74598" lon="7.06456">
        <ele>805.59997558594</ele>
        <time>2018-12-08T13:57:59.000Z</time>
      </trkpt>
      <trkpt lat="43.74592" lon="7.06463">
        <ele>805</ele>
        <time>2018-12-08T13:58:00.000Z</time>
      </trkpt>
      <trkpt lat="43.74587" lon="7.0647">
        <ele>804.40002441406</ele>
        <time>2018-12-08T13:58:01.000Z</time>
      </trkpt>
      <trkpt lat="43.74583" lon="7.06478">
        <ele>803</ele>
        <time>2018-12-08T13:58:02.000Z</time>
      </trkpt>
      <trkpt lat="43.74574" lon="7.06494">
        <ele>801.59997558594</ele>
        <time>2018-12-08T13:58:04.000Z</time>
      </trkpt>
      <trkpt lat="43.74563" lon="7.06507">
        <ele>800.40002441406</ele>
        <time>2018-12-08T13:58:06.000Z</time>
      </trkpt>
      <trkpt lat="43.74554" lon="7.06515">
        <ele>798.59997558594</ele>
        <time>2018-12-08T13:58:08.000Z</time>
      </trkpt>
      <trkpt lat="43.74546" lon="7.06522">
        <ele>796.59997558594</ele>
        <time>2018-12-08T13:58:10.000Z</time>
      </trkpt>
      <trkpt lat="43.74538" lon="7.0653">
        <ele>795.40002441406</ele>
        <time>2018-12-08T13:58:12.000Z</time>
      </trkpt>
      <trkpt lat="43.74533" lon="7.06535">
        <ele>794.40002441406</ele>
        <time>2018-12-08T13:58:13.000Z</time>
      </trkpt>
      <trkpt lat="43.74529" lon="7.0654">
        <ele>793.40002441406</ele>
        <time>2018-12-08T13:58:14.000Z</time>
      </trkpt>
      <trkpt lat="43.74524" lon="7.06544">
        <ele>791.59997558594</ele>
        <time>2018-12-08T13:58:15.000Z</time>
      </trkpt>
      <trkpt lat="43.74517" lon="7.06552">
        <ele>789.79998779297</ele>
        <time>2018-12-08T13:58:17.000Z</time>
      </trkpt>
      <trkpt lat="43.74512" lon="7.06556">
        <ele>788.59997558594</ele>
        <time>2018-12-08T13:58:18.000Z</time>
      </trkpt>
      <trkpt lat="43.74508" lon="7.0656">
        <ele>787.40002441406</ele>
        <time>2018-12-08T13:58:19.000Z</time>
      </trkpt>
      <trkpt lat="43.74504" lon="7.06564">
        <ele>786</ele>
        <time>2018-12-08T13:58:20.000Z</time>
      </trkpt>
      <trkpt lat="43.74501" lon="7.06568">
        <ele>785</ele>
        <time>2018-12-08T13:58:21.000Z</time>
      </trkpt>
      <trkpt lat="43.74498" lon="7.06572">
        <ele>784</ele>
        <time>2018-12-08T13:58:22.000Z</time>
      </trkpt>
      <trkpt lat="43.74495" lon="7.06575">
        <ele>783</ele>
        <time>2018-12-08T13:58:23.000Z</time>
      </trkpt>
      <trkpt lat="43.74492" lon="7.06578">
        <ele>782.20001220703</ele>
        <time>2018-12-08T13:58:24.000Z</time>
      </trkpt>
      <trkpt lat="43.74489" lon="7.06581">
        <ele>781.40002441406</ele>
        <time>2018-12-08T13:58:25.000Z</time>
      </trkpt>
      <trkpt lat="43.74481" lon="7.0659">
        <ele>779.59997558594</ele>
        <time>2018-12-08T13:58:27.000Z</time>
      </trkpt>
      <trkpt lat="43.74477" lon="7.06596">
        <ele>778.59997558594</ele>
        <time>2018-12-08T13:58:28.000Z</time>
      </trkpt>
      <trkpt lat="43.74474" lon="7.066">
        <ele>777.40002441406</ele>
        <time>2018-12-08T13:58:29.000Z</time>
      </trkpt>
      <trkpt lat="43.74471" lon="7.06606">
        <ele>776.59997558594</ele>
        <time>2018-12-08T13:58:30.000Z</time>
      </trkpt>
      <trkpt lat="43.74468" lon="7.06612">
        <ele>775.79998779297</ele>
        <time>2018-12-08T13:58:31.000Z</time>
      </trkpt>
      <trkpt lat="43.74465" lon="7.06619">
        <ele>775</ele>
        <time>2018-12-08T13:58:32.000Z</time>
      </trkpt>
      <trkpt lat="43.74463" lon="7.06625">
        <ele>774.40002441406</ele>
        <time>2018-12-08T13:58:33.000Z</time>
      </trkpt>
      <trkpt lat="43.7446" lon="7.06632">
        <ele>774.20001220703</ele>
        <time>2018-12-08T13:58:34.000Z</time>
      </trkpt>
      <trkpt lat="43.74453" lon="7.06649">
        <ele>773.20001220703</ele>
        <time>2018-12-08T13:58:36.000Z</time>
      </trkpt>
      <trkpt lat="43.7445" lon="7.06657">
        <ele>772.40002441406</ele>
        <time>2018-12-08T13:58:37.000Z</time>
      </trkpt>
      <trkpt lat="43.74446" lon="7.06664">
        <ele>771.59997558594</ele>
        <time>2018-12-08T13:58:38.000Z</time>
      </trkpt>
      <trkpt lat="43.74442" lon="7.0667">
        <ele>769.79998779297</ele>
        <time>2018-12-08T13:58:39.000Z</time>
      </trkpt>
      <trkpt lat="43.74435" lon="7.06683">
        <ele>768.79998779297</ele>
        <time>2018-12-08T13:58:41.000Z</time>
      </trkpt>
      <trkpt lat="43.74429" lon="7.06696">
        <ele>767</ele>
        <time>2018-12-08T13:58:43.000Z</time>
      </trkpt>
      <trkpt lat="43.74427" lon="7.067">
        <ele>766.59997558594</ele>
        <time>2018-12-08T13:58:44.000Z</time>
      </trkpt>
      <trkpt lat="43.74423" lon="7.06704">
        <ele>765.59997558594</ele>
        <time>2018-12-08T13:58:45.000Z</time>
      </trkpt>
      <trkpt lat="43.74417" lon="7.06715">
        <ele>764.20001220703</ele>
        <time>2018-12-08T13:58:47.000Z</time>
      </trkpt>
      <trkpt lat="43.74412" lon="7.06726">
        <ele>762.79998779297</ele>
        <time>2018-12-08T13:58:49.000Z</time>
      </trkpt>
      <trkpt lat="43.7441" lon="7.0673">
        <ele>760.59997558594</ele>
        <time>2018-12-08T13:58:50.000Z</time>
      </trkpt>
      <trkpt lat="43.74407" lon="7.06735">
        <ele>759.59997558594</ele>
        <time>2018-12-08T13:58:51.000Z</time>
      </trkpt>
      <trkpt lat="43.74405" lon="7.0674">
        <ele>758.59997558594</ele>
        <time>2018-12-08T13:58:52.000Z</time>
      </trkpt>
      <trkpt lat="43.74403" lon="7.06744">
        <ele>757.40002441406</ele>
        <time>2018-12-08T13:58:53.000Z</time>
      </trkpt>
      <trkpt lat="43.74399" lon="7.06755">
        <ele>756.20001220703</ele>
        <time>2018-12-08T13:58:55.000Z</time>
      </trkpt>
      <trkpt lat="43.74398" lon="7.06763">
        <ele>755.20001220703</ele>
        <time>2018-12-08T13:58:56.000Z</time>
      </trkpt>
      <trkpt lat="43.74396" lon="7.0677">
        <ele>753.79998779297</ele>
        <time>2018-12-08T13:58:57.000Z</time>
      </trkpt>
      <trkpt lat="43.74394" lon="7.06777">
        <ele>752.59997558594</ele>
        <time>2018-12-08T13:58:58.000Z</time>
      </trkpt>
      <trkpt lat="43.74393" lon="7.06794">
        <ele>751.40002441406</ele>
        <time>2018-12-08T13:59:00.000Z</time>
      </trkpt>
      <trkpt lat="43.74391" lon="7.06803">
        <ele>750.79998779297</ele>
        <time>2018-12-08T13:59:01.000Z</time>
      </trkpt>
      <trkpt lat="43.74387" lon="7.0682">
        <ele>751.20001220703</ele>
        <time>2018-12-08T13:59:03.000Z</time>
      </trkpt>
      <trkpt lat="43.74386" lon="7.06829">
        <ele>751.20001220703</ele>
        <time>2018-12-08T13:59:04.000Z</time>
      </trkpt>
      <trkpt lat="43.74384" lon="7.06837">
        <ele>750.40002441406</ele>
        <time>2018-12-08T13:59:05.000Z</time>
      </trkpt>
      <trkpt lat="43.74383" lon="7.06855">
        <ele>748.59997558594</ele>
        <time>2018-12-08T13:59:07.000Z</time>
      </trkpt>
      <trkpt lat="43.74383" lon="7.06865">
        <ele>746.79998779297</ele>
        <time>2018-12-08T13:59:08.000Z</time>
      </trkpt>
      <trkpt lat="43.74383" lon="7.06874">
        <ele>746</ele>
        <time>2018-12-08T13:59:09.000Z</time>
      </trkpt>
      <trkpt lat="43.74382" lon="7.06882">
        <ele>745.40002441406</ele>
        <time>2018-12-08T13:59:10.000Z</time>
      </trkpt>
      <trkpt lat="43.74378" lon="7.06898">
        <ele>743.59997558594</ele>
        <time>2018-12-08T13:59:12.000Z</time>
      </trkpt>
      <trkpt lat="43.74379" lon="7.06907">
        <ele>743.59997558594</ele>
        <time>2018-12-08T13:59:13.000Z</time>
      </trkpt>
      <trkpt lat="43.74382" lon="7.06926">
        <ele>741</ele>
        <time>2018-12-08T13:59:15.000Z</time>
      </trkpt>
      <trkpt lat="43.74384" lon="7.06939">
        <ele>739.59997558594</ele>
        <time>2018-12-08T13:59:17.000Z</time>
      </trkpt>
      <trkpt lat="43.74384" lon="7.06958">
        <ele>739.20001220703</ele>
        <time>2018-12-08T13:59:21.000Z</time>
      </trkpt>
      <trkpt lat="43.74383" lon="7.0697">
        <ele>738.40002441406</ele>
        <time>2018-12-08T13:59:23.000Z</time>
      </trkpt>
      <trkpt lat="43.74383" lon="7.06975">
        <ele>737.40002441406</ele>
        <time>2018-12-08T13:59:24.000Z</time>
      </trkpt>
      <trkpt lat="43.74385" lon="7.06988">
        <ele>735.79998779297</ele>
        <time>2018-12-08T13:59:26.000Z</time>
      </trkpt>
      <trkpt lat="43.74388" lon="7.07">
        <ele>734.20001220703</ele>
        <time>2018-12-08T13:59:28.000Z</time>
      </trkpt>
      <trkpt lat="43.74389" lon="7.07006">
        <ele>733.59997558594</ele>
        <time>2018-12-08T13:59:29.000Z</time>
      </trkpt>
      <trkpt lat="43.7439" lon="7.07014">
        <ele>732.59997558594</ele>
        <time>2018-12-08T13:59:30.000Z</time>
      </trkpt>
      <trkpt lat="43.74392" lon="7.07021">
        <ele>732</ele>
        <time>2018-12-08T13:59:31.000Z</time>
      </trkpt>
      <trkpt lat="43.74393" lon="7.07028">
        <ele>731.40002441406</ele>
        <time>2018-12-08T13:59:32.000Z</time>
      </trkpt>
      <trkpt lat="43.74392" lon="7.07036">
        <ele>730.40002441406</ele>
        <time>2018-12-08T13:59:33.000Z</time>
      </trkpt>
      <trkpt lat="43.74392" lon="7.07043">
        <ele>729.59997558594</ele>
        <time>2018-12-08T13:59:34.000Z</time>
      </trkpt>
      <trkpt lat="43.74395" lon="7.07055">
        <ele>727.59997558594</ele>
        <time>2018-12-08T13:59:36.000Z</time>
      </trkpt>
      <trkpt lat="43.74396" lon="7.07062">
        <ele>726.79998779297</ele>
        <time>2018-12-08T13:59:37.000Z</time>
      </trkpt>
      <trkpt lat="43.74398" lon="7.0707">
        <ele>726</ele>
        <time>2018-12-08T13:59:38.000Z</time>
      </trkpt>
      <trkpt lat="43.744" lon="7.07076">
        <ele>724.79998779297</ele>
        <time>2018-12-08T13:59:39.000Z</time>
      </trkpt>
      <trkpt lat="43.74402" lon="7.07082">
        <ele>724.20001220703</ele>
        <time>2018-12-08T13:59:40.000Z</time>
      </trkpt>
      <trkpt lat="43.74403" lon="7.07087">
        <ele>723.59997558594</ele>
        <time>2018-12-08T13:59:41.000Z</time>
      </trkpt>
      <trkpt lat="43.74403" lon="7.07097">
        <ele>722.59997558594</ele>
        <time>2018-12-08T13:59:43.000Z</time>
      </trkpt>
      <trkpt lat="43.74403" lon="7.07103">
        <ele>722.79998779297</ele>
        <time>2018-12-08T13:59:44.000Z</time>
      </trkpt>
      <trkpt lat="43.74401" lon="7.07112">
        <ele>721.59997558594</ele>
        <time>2018-12-08T13:59:46.000Z</time>
      </trkpt>
      <trkpt lat="43.744" lon="7.07117">
        <ele>720.59997558594</ele>
        <time>2018-12-08T13:59:47.000Z</time>
      </trkpt>
      <trkpt lat="43.744" lon="7.07122">
        <ele>719.79998779297</ele>
        <time>2018-12-08T13:59:48.000Z</time>
      </trkpt>
      <trkpt lat="43.74402" lon="7.07135">
        <ele>718.20001220703</ele>
        <time>2018-12-08T13:59:50.000Z</time>
      </trkpt>
      <trkpt lat="43.74403" lon="7.07142">
        <ele>717</ele>
        <time>2018-12-08T13:59:51.000Z</time>
      </trkpt>
      <trkpt lat="43.74403" lon="7.0715">
        <ele>715.79998779297</ele>
        <time>2018-12-08T13:59:52.000Z</time>
      </trkpt>
      <trkpt lat="43.74402" lon="7.07156">
        <ele>714.79998779297</ele>
        <time>2018-12-08T13:59:53.000Z</time>
      </trkpt>
      <trkpt lat="43.74404" lon="7.07166">
        <ele>713.20001220703</ele>
        <time>2018-12-08T13:59:55.000Z</time>
      </trkpt>
      <trkpt lat="43.74406" lon="7.07171">
        <ele>712.79998779297</ele>
        <time>2018-12-08T13:59:56.000Z</time>
      </trkpt>
      <trkpt lat="43.74407" lon="7.07179">
        <ele>712</ele>
        <time>2018-12-08T13:59:58.000Z</time>
      </trkpt>
      <trkpt lat="43.74407" lon="7.07182">
        <ele>711.40002441406</ele>
        <time>2018-12-08T13:59:59.000Z</time>
      </trkpt>
      <trkpt lat="43.74407" lon="7.07187">
        <ele>710.79998779297</ele>
        <time>2018-12-08T14:00:00.000Z</time>
      </trkpt>
      <trkpt lat="43.74408" lon="7.07196">
        <ele>709.40002441406</ele>
        <time>2018-12-08T14:00:02.000Z</time>
      </trkpt>
      <trkpt lat="43.74407" lon="7.07201">
        <ele>709.20001220703</ele>
        <time>2018-12-08T14:00:03.000Z</time>
      </trkpt>
      <trkpt lat="43.74407" lon="7.07215">
        <ele>708.20001220703</ele>
        <time>2018-12-08T14:00:07.000Z</time>
      </trkpt>
      <trkpt lat="43.74407" lon="7.07216">
        <ele>707.79998779297</ele>
        <time>2018-12-08T14:00:11.000Z</time>
      </trkpt>
      <trkpt lat="43.74406" lon="7.07225">
        <ele>708</ele>
        <time>2018-12-08T14:00:17.000Z</time>
      </trkpt>
      <trkpt lat="43.74402" lon="7.07242">
        <ele>707.40002441406</ele>
        <time>2018-12-08T14:00:20.000Z</time>
      </trkpt>
      <trkpt lat="43.74403" lon="7.07248">
        <ele>707</ele>
        <time>2018-12-08T14:00:21.000Z</time>
      </trkpt>
      <trkpt lat="43.74398" lon="7.07263">
        <ele>705.59997558594</ele>
        <time>2018-12-08T14:00:24.000Z</time>
      </trkpt>
      <trkpt lat="43.74393" lon="7.07274">
        <ele>704.59997558594</ele>
        <time>2018-12-08T14:00:27.000Z</time>
      </trkpt>
      <trkpt lat="43.74392" lon="7.0728">
        <ele>704.20001220703</ele>
        <time>2018-12-08T14:00:28.000Z</time>
      </trkpt>
      <trkpt lat="43.74391" lon="7.07291">
        <ele>702.79998779297</ele>
        <time>2018-12-08T14:00:30.000Z</time>
      </trkpt>
      <trkpt lat="43.7439" lon="7.073">
        <ele>702</ele>
        <time>2018-12-08T14:00:32.000Z</time>
      </trkpt>
      <trkpt lat="43.74388" lon="7.07304">
        <ele>701.59997558594</ele>
        <time>2018-12-08T14:00:33.000Z</time>
      </trkpt>
      <trkpt lat="43.74384" lon="7.07313">
        <ele>701</ele>
        <time>2018-12-08T14:00:35.000Z</time>
      </trkpt>
      <trkpt lat="43.74385" lon="7.07311">
        <ele>701</ele>
        <time>2018-12-08T14:00:36.000Z</time>
      </trkpt>
      <trkpt lat="43.74387" lon="7.07331">
        <ele>700</ele>
        <time>2018-12-08T14:00:38.000Z</time>
      </trkpt>
      <trkpt lat="43.74384" lon="7.07344">
        <ele>698.79998779297</ele>
        <time>2018-12-08T14:00:40.000Z</time>
      </trkpt>
      <trkpt lat="43.74383" lon="7.07349">
        <ele>698</ele>
        <time>2018-12-08T14:00:41.000Z</time>
      </trkpt>
      <trkpt lat="43.74382" lon="7.07354">
        <ele>697.59997558594</ele>
        <time>2018-12-08T14:00:42.000Z</time>
      </trkpt>
      <trkpt lat="43.74378" lon="7.07377">
        <ele>697</ele>
        <time>2018-12-08T14:00:46.000Z</time>
      </trkpt>
      <trkpt lat="43.74372" lon="7.07413">
        <ele>697.20001220703</ele>
        <time>2018-12-08T14:00:52.000Z</time>
      </trkpt>
      <trkpt lat="43.7437" lon="7.07418">
        <ele>697.20001220703</ele>
        <time>2018-12-08T14:00:53.000Z</time>
      </trkpt>
      <trkpt lat="43.74365" lon="7.07434">
        <ele>696.79998779297</ele>
        <time>2018-12-08T14:00:56.000Z</time>
      </trkpt>
      <trkpt lat="43.74364" lon="7.07438">
        <ele>696.40002441406</ele>
        <time>2018-12-08T14:00:57.000Z</time>
      </trkpt>
      <trkpt lat="43.74363" lon="7.07446">
        <ele>695.40002441406</ele>
        <time>2018-12-08T14:00:59.000Z</time>
      </trkpt>
      <trkpt lat="43.74362" lon="7.07448">
        <ele>695</ele>
        <time>2018-12-08T14:01:00.000Z</time>
      </trkpt>
      <trkpt lat="43.74363" lon="7.07449">
        <ele>694.79998779297</ele>
        <time>2018-12-08T14:01:01.000Z</time>
      </trkpt>
      <trkpt lat="43.74363" lon="7.07453">
        <ele>693.79998779297</ele>
        <time>2018-12-08T14:01:03.000Z</time>
      </trkpt>
      <trkpt lat="43.74363" lon="7.07456">
        <ele>693.59997558594</ele>
        <time>2018-12-08T14:01:04.000Z</time>
      </trkpt>
      <trkpt lat="43.74362" lon="7.07463">
        <ele>692.59997558594</ele>
        <time>2018-12-08T14:01:06.000Z</time>
      </trkpt>
      <trkpt lat="43.74362" lon="7.0748">
        <ele>691</ele>
        <time>2018-12-08T14:01:10.000Z</time>
      </trkpt>
      <trkpt lat="43.74361" lon="7.07486">
        <ele>690.59997558594</ele>
        <time>2018-12-08T14:01:11.000Z</time>
      </trkpt>
      <trkpt lat="43.74359" lon="7.07498">
        <ele>689.20001220703</ele>
        <time>2018-12-08T14:01:13.000Z</time>
      </trkpt>
      <trkpt lat="43.74358" lon="7.07504">
        <ele>688.40002441406</ele>
        <time>2018-12-08T14:01:14.000Z</time>
      </trkpt>
      <trkpt lat="43.74356" lon="7.07509">
        <ele>687.40002441406</ele>
        <time>2018-12-08T14:01:15.000Z</time>
      </trkpt>
      <trkpt lat="43.74352" lon="7.07522">
        <ele>686.40002441406</ele>
        <time>2018-12-08T14:01:17.000Z</time>
      </trkpt>
      <trkpt lat="43.7435" lon="7.07528">
        <ele>685.59997558594</ele>
        <time>2018-12-08T14:01:18.000Z</time>
      </trkpt>
      <trkpt lat="43.74348" lon="7.07534">
        <ele>684.79998779297</ele>
        <time>2018-12-08T14:01:19.000Z</time>
      </trkpt>
      <trkpt lat="43.74347" lon="7.0754">
        <ele>684.40002441406</ele>
        <time>2018-12-08T14:01:20.000Z</time>
      </trkpt>
      <trkpt lat="43.74348" lon="7.07545">
        <ele>683.59997558594</ele>
        <time>2018-12-08T14:01:21.000Z</time>
      </trkpt>
      <trkpt lat="43.74347" lon="7.07551">
        <ele>683.20001220703</ele>
        <time>2018-12-08T14:01:22.000Z</time>
      </trkpt>
      <trkpt lat="43.74348" lon="7.07557">
        <ele>682.79998779297</ele>
        <time>2018-12-08T14:01:23.000Z</time>
      </trkpt>
      <trkpt lat="43.7435" lon="7.07564">
        <ele>682.20001220703</ele>
        <time>2018-12-08T14:01:24.000Z</time>
      </trkpt>
      <trkpt lat="43.74352" lon="7.07575">
        <ele>680.40002441406</ele>
        <time>2018-12-08T14:01:26.000Z</time>
      </trkpt>
      <trkpt lat="43.74354" lon="7.07584">
        <ele>678.40002441406</ele>
        <time>2018-12-08T14:01:28.000Z</time>
      </trkpt>
      <trkpt lat="43.74355" lon="7.07594">
        <ele>677.59997558594</ele>
        <time>2018-12-08T14:01:30.000Z</time>
      </trkpt>
      <trkpt lat="43.74356" lon="7.07606">
        <ele>677</ele>
        <time>2018-12-08T14:01:32.000Z</time>
      </trkpt>
      <trkpt lat="43.74355" lon="7.07617">
        <ele>676.79998779297</ele>
        <time>2018-12-08T14:01:34.000Z</time>
      </trkpt>
      <trkpt lat="43.74355" lon="7.07624">
        <ele>676.40002441406</ele>
        <time>2018-12-08T14:01:35.000Z</time>
      </trkpt>
      <trkpt lat="43.74356" lon="7.07631">
        <ele>676</ele>
        <time>2018-12-08T14:01:36.000Z</time>
      </trkpt>
      <trkpt lat="43.74355" lon="7.07646">
        <ele>674.59997558594</ele>
        <time>2018-12-08T14:01:38.000Z</time>
      </trkpt>
      <trkpt lat="43.74356" lon="7.07653">
        <ele>673.79998779297</ele>
        <time>2018-12-08T14:01:39.000Z</time>
      </trkpt>
      <trkpt lat="43.74357" lon="7.0766">
        <ele>673.20001220703</ele>
        <time>2018-12-08T14:01:40.000Z</time>
      </trkpt>
      <trkpt lat="43.74357" lon="7.07667">
        <ele>672.59997558594</ele>
        <time>2018-12-08T14:01:41.000Z</time>
      </trkpt>
      <trkpt lat="43.74359" lon="7.0768">
        <ele>672.40002441406</ele>
        <time>2018-12-08T14:01:43.000Z</time>
      </trkpt>
      <trkpt lat="43.74364" lon="7.07694">
        <ele>671.79998779297</ele>
        <time>2018-12-08T14:01:45.000Z</time>
      </trkpt>
      <trkpt lat="43.74371" lon="7.07699">
        <ele>670.59997558594</ele>
        <time>2018-12-08T14:01:47.000Z</time>
      </trkpt>
      <trkpt lat="43.74374" lon="7.077">
        <ele>669.59997558594</ele>
        <time>2018-12-08T14:01:48.000Z</time>
      </trkpt>
      <trkpt lat="43.74376" lon="7.07702">
        <ele>669.20001220703</ele>
        <time>2018-12-08T14:01:49.000Z</time>
      </trkpt>
      <trkpt lat="43.74381" lon="7.07715">
        <ele>669.20001220703</ele>
        <time>2018-12-08T14:01:52.000Z</time>
      </trkpt>
      <trkpt lat="43.74385" lon="7.07727">
        <ele>669.40002441406</ele>
        <time>2018-12-08T14:01:54.000Z</time>
      </trkpt>
      <trkpt lat="43.74389" lon="7.07738">
        <ele>669</ele>
        <time>2018-12-08T14:01:56.000Z</time>
      </trkpt>
      <trkpt lat="43.74392" lon="7.07749">
        <ele>668</ele>
        <time>2018-12-08T14:01:58.000Z</time>
      </trkpt>
      <trkpt lat="43.74394" lon="7.07758">
        <ele>667.40002441406</ele>
        <time>2018-12-08T14:02:00.000Z</time>
      </trkpt>
      <trkpt lat="43.74397" lon="7.07765">
        <ele>666.79998779297</ele>
        <time>2018-12-08T14:02:02.000Z</time>
      </trkpt>
      <trkpt lat="43.74398" lon="7.07775">
        <ele>666</ele>
        <time>2018-12-08T14:02:04.000Z</time>
      </trkpt>
      <trkpt lat="43.74398" lon="7.0778">
        <ele>665.59997558594</ele>
        <time>2018-12-08T14:02:05.000Z</time>
      </trkpt>
      <trkpt lat="43.74397" lon="7.07788">
        <ele>664.59997558594</ele>
        <time>2018-12-08T14:02:07.000Z</time>
      </trkpt>
      <trkpt lat="43.74395" lon="7.07793">
        <ele>663.20001220703</ele>
        <time>2018-12-08T14:02:09.000Z</time>
      </trkpt>
      <trkpt lat="43.74391" lon="7.07796">
        <ele>661.20001220703</ele>
        <time>2018-12-08T14:02:11.000Z</time>
      </trkpt>
      <trkpt lat="43.74388" lon="7.07797">
        <ele>660.59997558594</ele>
        <time>2018-12-08T14:02:12.000Z</time>
      </trkpt>
      <trkpt lat="43.74387" lon="7.07796">
        <ele>659.59997558594</ele>
        <time>2018-12-08T14:02:13.000Z</time>
      </trkpt>
      <trkpt lat="43.74382" lon="7.07794">
        <ele>658</ele>
        <time>2018-12-08T14:02:15.000Z</time>
      </trkpt>
      <trkpt lat="43.74377" lon="7.07792">
        <ele>656.40002441406</ele>
        <time>2018-12-08T14:02:17.000Z</time>
      </trkpt>
      <trkpt lat="43.74376" lon="7.07793">
        <ele>655.59997558594</ele>
        <time>2018-12-08T14:02:18.000Z</time>
      </trkpt>
      <trkpt lat="43.7437" lon="7.07795">
        <ele>654.79998779297</ele>
        <time>2018-12-08T14:02:20.000Z</time>
      </trkpt>
      <trkpt lat="43.74367" lon="7.07797">
        <ele>654.20001220703</ele>
        <time>2018-12-08T14:02:21.000Z</time>
      </trkpt>
      <trkpt lat="43.74365" lon="7.07797">
        <ele>653.79998779297</ele>
        <time>2018-12-08T14:02:22.000Z</time>
      </trkpt>
      <trkpt lat="43.74359" lon="7.07797">
        <ele>652.20001220703</ele>
        <time>2018-12-08T14:02:24.000Z</time>
      </trkpt>
      <trkpt lat="43.74356" lon="7.07795">
        <ele>651</ele>
        <time>2018-12-08T14:02:25.000Z</time>
      </trkpt>
      <trkpt lat="43.74353" lon="7.07791">
        <ele>649.79998779297</ele>
        <time>2018-12-08T14:02:26.000Z</time>
      </trkpt>
      <trkpt lat="43.7435" lon="7.07787">
        <ele>648.79998779297</ele>
        <time>2018-12-08T14:02:27.000Z</time>
      </trkpt>
      <trkpt lat="43.74347" lon="7.07784">
        <ele>647.40002441406</ele>
        <time>2018-12-08T14:02:28.000Z</time>
      </trkpt>
      <trkpt lat="43.74344" lon="7.07782">
        <ele>646.40002441406</ele>
        <time>2018-12-08T14:02:29.000Z</time>
      </trkpt>
      <trkpt lat="43.74338" lon="7.07775">
        <ele>644.59997558594</ele>
        <time>2018-12-08T14:02:31.000Z</time>
      </trkpt>
      <trkpt lat="43.74329" lon="7.07771">
        <ele>643.20001220703</ele>
        <time>2018-12-08T14:02:33.000Z</time>
      </trkpt>
      <trkpt lat="43.74326" lon="7.07768">
        <ele>642.20001220703</ele>
        <time>2018-12-08T14:02:34.000Z</time>
      </trkpt>
      <trkpt lat="43.74321" lon="7.07761">
        <ele>640.40002441406</ele>
        <time>2018-12-08T14:02:36.000Z</time>
      </trkpt>
      <trkpt lat="43.74317" lon="7.07757">
        <ele>638.59997558594</ele>
        <time>2018-12-08T14:02:38.000Z</time>
      </trkpt>
      <trkpt lat="43.74313" lon="7.07756">
        <ele>637.59997558594</ele>
        <time>2018-12-08T14:02:40.000Z</time>
      </trkpt>
      <trkpt lat="43.74312" lon="7.07756">
        <ele>637.40002441406</ele>
        <time>2018-12-08T14:02:41.000Z</time>
      </trkpt>
      <trkpt lat="43.74312" lon="7.07755">
        <ele>636.79998779297</ele>
        <time>2018-12-08T14:02:43.000Z</time>
      </trkpt>
      <trkpt lat="43.74312" lon="7.07755">
        <ele>636.40002441406</ele>
        <time>2018-12-08T14:02:44.000Z</time>
      </trkpt>
      <trkpt lat="43.74312" lon="7.07755">
        <ele>635.40002441406</ele>
        <time>2018-12-08T14:02:51.000Z</time>
      </trkpt>
      <trkpt lat="43.74312" lon="7.07756">
        <ele>635.59997558594</ele>
        <time>2018-12-08T14:03:03.000Z</time>
      </trkpt>
      <trkpt lat="43.74312" lon="7.07756">
        <ele>635.59997558594</ele>
        <time>2018-12-08T14:03:19.000Z</time>
      </trkpt>
      <trkpt lat="43.7431" lon="7.07757">
        <ele>635.40002441406</ele>
        <time>2018-12-08T14:03:32.000Z</time>
      </trkpt>
      <trkpt lat="43.74307" lon="7.07757">
        <ele>635.40002441406</ele>
        <time>2018-12-08T14:03:34.000Z</time>
      </trkpt>
      <trkpt lat="43.74305" lon="7.07757">
        <ele>635.20001220703</ele>
        <time>2018-12-08T14:03:35.000Z</time>
      </trkpt>
      <trkpt lat="43.74293" lon="7.07757">
        <ele>634.40002441406</ele>
        <time>2018-12-08T14:03:39.000Z</time>
      </trkpt>
      <trkpt lat="43.74292" lon="7.07757">
        <ele>633.79998779297</ele>
        <time>2018-12-08T14:03:40.000Z</time>
      </trkpt>
      <trkpt lat="43.74291" lon="7.07759">
        <ele>633.40002441406</ele>
        <time>2018-12-08T14:03:41.000Z</time>
      </trkpt>
      <trkpt lat="43.74292" lon="7.07762">
        <ele>632.79998779297</ele>
        <time>2018-12-08T14:03:42.000Z</time>
      </trkpt>
      <trkpt lat="43.74299" lon="7.07775">
        <ele>631.59997558594</ele>
        <time>2018-12-08T14:03:45.000Z</time>
      </trkpt>
      <trkpt lat="43.743" lon="7.07779">
        <ele>631</ele>
        <time>2018-12-08T14:03:46.000Z</time>
      </trkpt>
      <trkpt lat="43.743" lon="7.07783">
        <ele>630.20001220703</ele>
        <time>2018-12-08T14:03:47.000Z</time>
      </trkpt>
      <trkpt lat="43.74299" lon="7.07792">
        <ele>628.79998779297</ele>
        <time>2018-12-08T14:03:49.000Z</time>
      </trkpt>
      <trkpt lat="43.74296" lon="7.07792">
        <ele>627.79998779297</ele>
        <time>2018-12-08T14:03:50.000Z</time>
      </trkpt>
      <trkpt lat="43.74293" lon="7.07789">
        <ele>627.20001220703</ele>
        <time>2018-12-08T14:03:51.000Z</time>
      </trkpt>
      <trkpt lat="43.74291" lon="7.07786">
        <ele>626</ele>
        <time>2018-12-08T14:03:53.000Z</time>
      </trkpt>
      <trkpt lat="43.7429" lon="7.07786">
        <ele>625.59997558594</ele>
        <time>2018-12-08T14:03:54.000Z</time>
      </trkpt>
      <trkpt lat="43.7429" lon="7.0779">
        <ele>624.79998779297</ele>
        <time>2018-12-08T14:03:56.000Z</time>
      </trkpt>
      <trkpt lat="43.74291" lon="7.07792">
        <ele>624.59997558594</ele>
        <time>2018-12-08T14:03:57.000Z</time>
      </trkpt>
      <trkpt lat="43.74293" lon="7.07801">
        <ele>623.59997558594</ele>
        <time>2018-12-08T14:04:00.000Z</time>
      </trkpt>
      <trkpt lat="43.74293" lon="7.07803">
        <ele>623.59997558594</ele>
        <time>2018-12-08T14:04:01.000Z</time>
      </trkpt>
      <trkpt lat="43.74292" lon="7.07804">
        <ele>623.59997558594</ele>
        <time>2018-12-08T14:04:02.000Z</time>
      </trkpt>
      <trkpt lat="43.74287" lon="7.078">
        <ele>622.59997558594</ele>
        <time>2018-12-08T14:04:05.000Z</time>
      </trkpt>
      <trkpt lat="43.74286" lon="7.07799">
        <ele>622</ele>
        <time>2018-12-08T14:04:06.000Z</time>
      </trkpt>
      <trkpt lat="43.74285" lon="7.07797">
        <ele>621.20001220703</ele>
        <time>2018-12-08T14:04:07.000Z</time>
      </trkpt>
      <trkpt lat="43.74282" lon="7.07791">
        <ele>620.59997558594</ele>
        <time>2018-12-08T14:04:09.000Z</time>
      </trkpt>
      <trkpt lat="43.7428" lon="7.07791">
        <ele>620.20001220703</ele>
        <time>2018-12-08T14:04:10.000Z</time>
      </trkpt>
      <trkpt lat="43.7428" lon="7.07791">
        <ele>620</ele>
        <time>2018-12-08T14:04:11.000Z</time>
      </trkpt>
      <trkpt lat="43.7428" lon="7.07791">
        <ele>619.59997558594</ele>
        <time>2018-12-08T14:04:12.000Z</time>
      </trkpt>
      <trkpt lat="43.7428" lon="7.07791">
        <ele>618.79998779297</ele>
        <time>2018-12-08T14:04:14.000Z</time>
      </trkpt>
      <trkpt lat="43.74278" lon="7.07795">
        <ele>618</ele>
        <time>2018-12-08T14:04:19.000Z</time>
      </trkpt>
      <trkpt lat="43.74277" lon="7.07795">
        <ele>617.59997558594</ele>
        <time>2018-12-08T14:04:20.000Z</time>
      </trkpt>
      <trkpt lat="43.74275" lon="7.07798">
        <ele>617.40002441406</ele>
        <time>2018-12-08T14:04:25.000Z</time>
      </trkpt>
      <trkpt lat="43.74272" lon="7.07797">
        <ele>617.40002441406</ele>
        <time>2018-12-08T14:04:32.000Z</time>
      </trkpt>
      <trkpt lat="43.74268" lon="7.07797">
        <ele>616.59997558594</ele>
        <time>2018-12-08T14:04:36.000Z</time>
      </trkpt>
      <trkpt lat="43.74266" lon="7.07797">
        <ele>616.20001220703</ele>
        <time>2018-12-08T14:04:38.000Z</time>
      </trkpt>
      <trkpt lat="43.74263" lon="7.07798">
        <ele>615.40002441406</ele>
        <time>2018-12-08T14:04:41.000Z</time>
      </trkpt>
      <trkpt lat="43.74262" lon="7.07799">
        <ele>615.20001220703</ele>
        <time>2018-12-08T14:04:44.000Z</time>
      </trkpt>
      <trkpt lat="43.7426" lon="7.07803">
        <ele>615.59997558594</ele>
        <time>2018-12-08T14:05:04.000Z</time>
      </trkpt>
      <trkpt lat="43.7425" lon="7.07811">
        <ele>616</ele>
        <time>2018-12-08T14:05:10.000Z</time>
      </trkpt>
      <trkpt lat="43.74243" lon="7.07825">
        <ele>616.20001220703</ele>
        <time>2018-12-08T14:05:15.000Z</time>
      </trkpt>
      <trkpt lat="43.74243" lon="7.07829">
        <ele>616.20001220703</ele>
        <time>2018-12-08T14:05:16.000Z</time>
      </trkpt>
      <trkpt lat="43.74235" lon="7.07852">
        <ele>616.40002441406</ele>
        <time>2018-12-08T14:05:22.000Z</time>
      </trkpt>
      <trkpt lat="43.74232" lon="7.07866">
        <ele>617.20001220703</ele>
        <time>2018-12-08T14:05:26.000Z</time>
      </trkpt>
      <trkpt lat="43.74232" lon="7.07871">
        <ele>617.40002441406</ele>
        <time>2018-12-08T14:05:28.000Z</time>
      </trkpt>
      <trkpt lat="43.74232" lon="7.07871">
        <ele>617.79998779297</ele>
        <time>2018-12-08T14:05:30.000Z</time>
      </trkpt>
      <trkpt lat="43.74232" lon="7.07873">
        <ele>618.40002441406</ele>
        <time>2018-12-08T14:05:41.000Z</time>
      </trkpt>
      <trkpt lat="43.74232" lon="7.07875">
        <ele>618.40002441406</ele>
        <time>2018-12-08T14:05:48.000Z</time>
      </trkpt>
      <trkpt lat="43.74232" lon="7.07876">
        <ele>618.20001220703</ele>
        <time>2018-12-08T14:06:03.000Z</time>
      </trkpt>
      <trkpt lat="43.74231" lon="7.07883">
        <ele>618.20001220703</ele>
        <time>2018-12-08T14:06:11.000Z</time>
      </trkpt>
      <trkpt lat="43.74233" lon="7.07899">
        <ele>616</ele>
        <time>2018-12-08T14:06:16.000Z</time>
      </trkpt>
      <trkpt lat="43.74235" lon="7.07915">
        <ele>614.59997558594</ele>
        <time>2018-12-08T14:06:19.000Z</time>
      </trkpt>
      <trkpt lat="43.74238" lon="7.07927">
        <ele>613</ele>
        <time>2018-12-08T14:06:21.000Z</time>
      </trkpt>
      <trkpt lat="43.74238" lon="7.07934">
        <ele>612.40002441406</ele>
        <time>2018-12-08T14:06:22.000Z</time>
      </trkpt>
      <trkpt lat="43.74238" lon="7.0794">
        <ele>611.79998779297</ele>
        <time>2018-12-08T14:06:23.000Z</time>
      </trkpt>
      <trkpt lat="43.74238" lon="7.07948">
        <ele>611.20001220703</ele>
        <time>2018-12-08T14:06:26.000Z</time>
      </trkpt>
      <trkpt lat="43.7424" lon="7.07952">
        <ele>612</ele>
        <time>2018-12-08T14:06:28.000Z</time>
      </trkpt>
      <trkpt lat="43.74241" lon="7.0796">
        <ele>613.20001220703</ele>
        <time>2018-12-08T14:06:31.000Z</time>
      </trkpt>
      <trkpt lat="43.74242" lon="7.07961">
        <ele>613.59997558594</ele>
        <time>2018-12-08T14:06:32.000Z</time>
      </trkpt>
      <trkpt lat="43.74242" lon="7.07961">
        <ele>614.40002441406</ele>
        <time>2018-12-08T14:06:34.000Z</time>
      </trkpt>
      <trkpt lat="43.74243" lon="7.07962">
        <ele>615.40002441406</ele>
        <time>2018-12-08T14:06:37.000Z</time>
      </trkpt>
      <trkpt lat="43.74244" lon="7.07964">
        <ele>615.79998779297</ele>
        <time>2018-12-08T14:06:41.000Z</time>
      </trkpt>
      <trkpt lat="43.74243" lon="7.07969">
        <ele>616</ele>
        <time>2018-12-08T14:06:45.000Z</time>
      </trkpt>
      <trkpt lat="43.74242" lon="7.0797">
        <ele>616.20001220703</ele>
        <time>2018-12-08T14:06:46.000Z</time>
      </trkpt>
      <trkpt lat="43.74241" lon="7.07971">
        <ele>616.40002441406</ele>
        <time>2018-12-08T14:06:48.000Z</time>
      </trkpt>
      <trkpt lat="43.74241" lon="7.07972">
        <ele>617.20001220703</ele>
        <time>2018-12-08T14:06:52.000Z</time>
      </trkpt>
      <trkpt lat="43.74241" lon="7.07974">
        <ele>617.40002441406</ele>
        <time>2018-12-08T14:07:01.000Z</time>
      </trkpt>
      <trkpt lat="43.74241" lon="7.07975">
        <ele>617.40002441406</ele>
        <time>2018-12-08T14:07:02.000Z</time>
      </trkpt>
      <trkpt lat="43.7424" lon="7.07977">
        <ele>617.40002441406</ele>
        <time>2018-12-08T14:07:04.000Z</time>
      </trkpt>
      <trkpt lat="43.74239" lon="7.0798">
        <ele>617.59997558594</ele>
        <time>2018-12-08T14:07:06.000Z</time>
      </trkpt>
      <trkpt lat="43.74236" lon="7.0799">
        <ele>618.20001220703</ele>
        <time>2018-12-08T14:07:11.000Z</time>
      </trkpt>
      <trkpt lat="43.74234" lon="7.07994">
        <ele>618.59997558594</ele>
        <time>2018-12-08T14:07:13.000Z</time>
      </trkpt>
      <trkpt lat="43.74229" lon="7.08002">
        <ele>619.40002441406</ele>
        <time>2018-12-08T14:07:18.000Z</time>
      </trkpt>
      <trkpt lat="43.74228" lon="7.08006">
        <ele>619.79998779297</ele>
        <time>2018-12-08T14:07:20.000Z</time>
      </trkpt>
      <trkpt lat="43.74222" lon="7.08013">
        <ele>620.20001220703</ele>
        <time>2018-12-08T14:07:23.000Z</time>
      </trkpt>
      <trkpt lat="43.74218" lon="7.08027">
        <ele>620.20001220703</ele>
        <time>2018-12-08T14:07:28.000Z</time>
      </trkpt>
      <trkpt lat="43.74217" lon="7.08031">
        <ele>620.79998779297</ele>
        <time>2018-12-08T14:07:30.000Z</time>
      </trkpt>
      <trkpt lat="43.74214" lon="7.08037">
        <ele>621.79998779297</ele>
        <time>2018-12-08T14:07:33.000Z</time>
      </trkpt>
      <trkpt lat="43.74213" lon="7.08042">
        <ele>622.20001220703</ele>
        <time>2018-12-08T14:07:35.000Z</time>
      </trkpt>
      <trkpt lat="43.74208" lon="7.08061">
        <ele>622.20001220703</ele>
        <time>2018-12-08T14:07:40.000Z</time>
      </trkpt>
      <trkpt lat="43.74205" lon="7.08066">
        <ele>622</ele>
        <time>2018-12-08T14:07:41.000Z</time>
      </trkpt>
      <trkpt lat="43.74199" lon="7.08077">
        <ele>621.20001220703</ele>
        <time>2018-12-08T14:07:44.000Z</time>
      </trkpt>
      <trkpt lat="43.74194" lon="7.08086">
        <ele>621.79998779297</ele>
        <time>2018-12-08T14:07:48.000Z</time>
      </trkpt>
      <trkpt lat="43.74194" lon="7.08088">
        <ele>622</ele>
        <time>2018-12-08T14:07:49.000Z</time>
      </trkpt>
      <trkpt lat="43.74194" lon="7.08089">
        <ele>622.40002441406</ele>
        <time>2018-12-08T14:07:53.000Z</time>
      </trkpt>
      <trkpt lat="43.74193" lon="7.0809">
        <ele>622.40002441406</ele>
        <time>2018-12-08T14:07:59.000Z</time>
      </trkpt>
      <trkpt lat="43.74192" lon="7.08092">
        <ele>622.59997558594</ele>
        <time>2018-12-08T14:08:02.000Z</time>
      </trkpt>
      <trkpt lat="43.74192" lon="7.08093">
        <ele>622.59997558594</ele>
        <time>2018-12-08T14:08:04.000Z</time>
      </trkpt>
      <trkpt lat="43.7419" lon="7.08094">
        <ele>621.79998779297</ele>
        <time>2018-12-08T14:08:12.000Z</time>
      </trkpt>
      <trkpt lat="43.74184" lon="7.081">
        <ele>621.79998779297</ele>
        <time>2018-12-08T14:08:16.000Z</time>
      </trkpt>
      <trkpt lat="43.74183" lon="7.08102">
        <ele>621.79998779297</ele>
        <time>2018-12-08T14:08:17.000Z</time>
      </trkpt>
      <trkpt lat="43.74179" lon="7.08112">
        <ele>622</ele>
        <time>2018-12-08T14:08:21.000Z</time>
      </trkpt>
      <trkpt lat="43.74177" lon="7.08116">
        <ele>622.79998779297</ele>
        <time>2018-12-08T14:08:23.000Z</time>
      </trkpt>
      <trkpt lat="43.74175" lon="7.08118">
        <ele>623.20001220703</ele>
        <time>2018-12-08T14:08:24.000Z</time>
      </trkpt>
      <trkpt lat="43.74169" lon="7.08126">
        <ele>623.40002441406</ele>
        <time>2018-12-08T14:08:27.000Z</time>
      </trkpt>
      <trkpt lat="43.7416" lon="7.08138">
        <ele>622.40002441406</ele>
        <time>2018-12-08T14:08:30.000Z</time>
      </trkpt>
      <trkpt lat="43.74157" lon="7.08142">
        <ele>621.59997558594</ele>
        <time>2018-12-08T14:08:31.000Z</time>
      </trkpt>
      <trkpt lat="43.74153" lon="7.08143">
        <ele>621</ele>
        <time>2018-12-08T14:08:32.000Z</time>
      </trkpt>
      <trkpt lat="43.74149" lon="7.08143">
        <ele>620.59997558594</ele>
        <time>2018-12-08T14:08:33.000Z</time>
      </trkpt>
      <trkpt lat="43.74145" lon="7.08143">
        <ele>620</ele>
        <time>2018-12-08T14:08:34.000Z</time>
      </trkpt>
      <trkpt lat="43.74136" lon="7.08144">
        <ele>619.59997558594</ele>
        <time>2018-12-08T14:08:36.000Z</time>
      </trkpt>
      <trkpt lat="43.74132" lon="7.08146">
        <ele>619.40002441406</ele>
        <time>2018-12-08T14:08:37.000Z</time>
      </trkpt>
      <trkpt lat="43.74128" lon="7.08149">
        <ele>619.20001220703</ele>
        <time>2018-12-08T14:08:38.000Z</time>
      </trkpt>
      <trkpt lat="43.74118" lon="7.08165">
        <ele>618.40002441406</ele>
        <time>2018-12-08T14:08:41.000Z</time>
      </trkpt>
      <trkpt lat="43.74115" lon="7.08171">
        <ele>618</ele>
        <time>2018-12-08T14:08:42.000Z</time>
      </trkpt>
      <trkpt lat="43.74111" lon="7.08177">
        <ele>617.40002441406</ele>
        <time>2018-12-08T14:08:43.000Z</time>
      </trkpt>
      <trkpt lat="43.74107" lon="7.08182">
        <ele>617</ele>
        <time>2018-12-08T14:08:44.000Z</time>
      </trkpt>
      <trkpt lat="43.74103" lon="7.08188">
        <ele>616.40002441406</ele>
        <time>2018-12-08T14:08:45.000Z</time>
      </trkpt>
      <trkpt lat="43.74095" lon="7.082">
        <ele>616</ele>
        <time>2018-12-08T14:08:47.000Z</time>
      </trkpt>
      <trkpt lat="43.74077" lon="7.08217">
        <ele>615</ele>
        <time>2018-12-08T14:08:51.000Z</time>
      </trkpt>
      <trkpt lat="43.74072" lon="7.08219">
        <ele>614.59997558594</ele>
        <time>2018-12-08T14:08:52.000Z</time>
      </trkpt>
      <trkpt lat="43.74065" lon="7.08226">
        <ele>613.40002441406</ele>
        <time>2018-12-08T14:08:54.000Z</time>
      </trkpt>
      <trkpt lat="43.74061" lon="7.08231">
        <ele>612.79998779297</ele>
        <time>2018-12-08T14:08:55.000Z</time>
      </trkpt>
      <trkpt lat="43.74057" lon="7.08234">
        <ele>612.40002441406</ele>
        <time>2018-12-08T14:08:56.000Z</time>
      </trkpt>
      <trkpt lat="43.74053" lon="7.08239">
        <ele>612</ele>
        <time>2018-12-08T14:08:57.000Z</time>
      </trkpt>
      <trkpt lat="43.74045" lon="7.08246">
        <ele>611.20001220703</ele>
        <time>2018-12-08T14:08:59.000Z</time>
      </trkpt>
      <trkpt lat="43.7404" lon="7.08252">
        <ele>610.59997558594</ele>
        <time>2018-12-08T14:09:00.000Z</time>
      </trkpt>
      <trkpt lat="43.74031" lon="7.08262">
        <ele>609.59997558594</ele>
        <time>2018-12-08T14:09:02.000Z</time>
      </trkpt>
      <trkpt lat="43.74027" lon="7.08266">
        <ele>608.40002441406</ele>
        <time>2018-12-08T14:09:03.000Z</time>
      </trkpt>
      <trkpt lat="43.74023" lon="7.0827">
        <ele>608.20001220703</ele>
        <time>2018-12-08T14:09:04.000Z</time>
      </trkpt>
      <trkpt lat="43.74008" lon="7.08285">
        <ele>607.20001220703</ele>
        <time>2018-12-08T14:09:07.000Z</time>
      </trkpt>
      <trkpt lat="43.74002" lon="7.08288">
        <ele>607</ele>
        <time>2018-12-08T14:09:08.000Z</time>
      </trkpt>
      <trkpt lat="43.73996" lon="7.08293">
        <ele>605.40002441406</ele>
        <time>2018-12-08T14:09:09.000Z</time>
      </trkpt>
      <trkpt lat="43.73988" lon="7.08304">
        <ele>603.20001220703</ele>
        <time>2018-12-08T14:09:11.000Z</time>
      </trkpt>
      <trkpt lat="43.73986" lon="7.0831">
        <ele>602.40002441406</ele>
        <time>2018-12-08T14:09:12.000Z</time>
      </trkpt>
      <trkpt lat="43.73983" lon="7.08315">
        <ele>601.79998779297</ele>
        <time>2018-12-08T14:09:13.000Z</time>
      </trkpt>
      <trkpt lat="43.73981" lon="7.0832">
        <ele>602.20001220703</ele>
        <time>2018-12-08T14:09:14.000Z</time>
      </trkpt>
      <trkpt lat="43.7397" lon="7.08335">
        <ele>601.79998779297</ele>
        <time>2018-12-08T14:09:18.000Z</time>
      </trkpt>
      <trkpt lat="43.73958" lon="7.0834">
        <ele>601.79998779297</ele>
        <time>2018-12-08T14:09:22.000Z</time>
      </trkpt>
      <trkpt lat="43.73949" lon="7.08349">
        <ele>602.20001220703</ele>
        <time>2018-12-08T14:09:26.000Z</time>
      </trkpt>
      <trkpt lat="43.73947" lon="7.08349">
        <ele>602.59997558594</ele>
        <time>2018-12-08T14:09:27.000Z</time>
      </trkpt>
      <trkpt lat="43.73944" lon="7.0835">
        <ele>603</ele>
        <time>2018-12-08T14:09:28.000Z</time>
      </trkpt>
      <trkpt lat="43.73935" lon="7.08353">
        <ele>602.59997558594</ele>
        <time>2018-12-08T14:09:31.000Z</time>
      </trkpt>
      <trkpt lat="43.73932" lon="7.08353">
        <ele>602.20001220703</ele>
        <time>2018-12-08T14:09:32.000Z</time>
      </trkpt>
      <trkpt lat="43.73922" lon="7.08354">
        <ele>601.59997558594</ele>
        <time>2018-12-08T14:09:35.000Z</time>
      </trkpt>
      <trkpt lat="43.73918" lon="7.08357">
        <ele>601.20001220703</ele>
        <time>2018-12-08T14:09:36.000Z</time>
      </trkpt>
      <trkpt lat="43.73914" lon="7.0836">
        <ele>600.59997558594</ele>
        <time>2018-12-08T14:09:37.000Z</time>
      </trkpt>
      <trkpt lat="43.73906" lon="7.08366">
        <ele>599.40002441406</ele>
        <time>2018-12-08T14:09:39.000Z</time>
      </trkpt>
      <trkpt lat="43.73902" lon="7.08369">
        <ele>598.79998779297</ele>
        <time>2018-12-08T14:09:40.000Z</time>
      </trkpt>
      <trkpt lat="43.73899" lon="7.08372">
        <ele>598.20001220703</ele>
        <time>2018-12-08T14:09:41.000Z</time>
      </trkpt>
      <trkpt lat="43.73894" lon="7.08373">
        <ele>598.20001220703</ele>
        <time>2018-12-08T14:09:42.000Z</time>
      </trkpt>
      <trkpt lat="43.73886" lon="7.08375">
        <ele>597.79998779297</ele>
        <time>2018-12-08T14:09:44.000Z</time>
      </trkpt>
      <trkpt lat="43.73876" lon="7.08378">
        <ele>597</ele>
        <time>2018-12-08T14:09:47.000Z</time>
      </trkpt>
      <trkpt lat="43.73867" lon="7.0838">
        <ele>596.20001220703</ele>
        <time>2018-12-08T14:09:49.000Z</time>
      </trkpt>
      <trkpt lat="43.73863" lon="7.0838">
        <ele>595.40002441406</ele>
        <time>2018-12-08T14:09:50.000Z</time>
      </trkpt>
      <trkpt lat="43.73855" lon="7.08381">
        <ele>594.20001220703</ele>
        <time>2018-12-08T14:09:52.000Z</time>
      </trkpt>
      <trkpt lat="43.73852" lon="7.08381">
        <ele>594</ele>
        <time>2018-12-08T14:09:53.000Z</time>
      </trkpt>
      <trkpt lat="43.73844" lon="7.08379">
        <ele>593.20001220703</ele>
        <time>2018-12-08T14:09:55.000Z</time>
      </trkpt>
      <trkpt lat="43.73838" lon="7.08382">
        <ele>592.40002441406</ele>
        <time>2018-12-08T14:09:57.000Z</time>
      </trkpt>
      <trkpt lat="43.73835" lon="7.08384">
        <ele>591.59997558594</ele>
        <time>2018-12-08T14:09:58.000Z</time>
      </trkpt>
      <trkpt lat="43.7383" lon="7.0839">
        <ele>590.40002441406</ele>
        <time>2018-12-08T14:10:01.000Z</time>
      </trkpt>
      <trkpt lat="43.73826" lon="7.08402">
        <ele>589.20001220703</ele>
        <time>2018-12-08T14:10:06.000Z</time>
      </trkpt>
      <trkpt lat="43.73817" lon="7.0841">
        <ele>589.20001220703</ele>
        <time>2018-12-08T14:10:10.000Z</time>
      </trkpt>
      <trkpt lat="43.73804" lon="7.08414">
        <ele>588.40002441406</ele>
        <time>2018-12-08T14:10:14.000Z</time>
      </trkpt>
      <trkpt lat="43.738" lon="7.08414">
        <ele>587.79998779297</ele>
        <time>2018-12-08T14:10:15.000Z</time>
      </trkpt>
      <trkpt lat="43.73798" lon="7.08417">
        <ele>587</ele>
        <time>2018-12-08T14:10:17.000Z</time>
      </trkpt>
      <trkpt lat="43.73797" lon="7.08418">
        <ele>587.59997558594</ele>
        <time>2018-12-08T14:10:22.000Z</time>
      </trkpt>
      <trkpt lat="43.73794" lon="7.08419">
        <ele>588.40002441406</ele>
        <time>2018-12-08T14:10:28.000Z</time>
      </trkpt>
      <trkpt lat="43.73788" lon="7.08423">
        <ele>588.79998779297</ele>
        <time>2018-12-08T14:10:35.000Z</time>
      </trkpt>
      <trkpt lat="43.73786" lon="7.08424">
        <ele>589.20001220703</ele>
        <time>2018-12-08T14:10:41.000Z</time>
      </trkpt>
      <trkpt lat="43.73776" lon="7.08428">
        <ele>589.40002441406</ele>
        <time>2018-12-08T14:10:46.000Z</time>
      </trkpt>
      <trkpt lat="43.73773" lon="7.08431">
        <ele>590</ele>
        <time>2018-12-08T14:10:48.000Z</time>
      </trkpt>
      <trkpt lat="43.73768" lon="7.08436">
        <ele>590.79998779297</ele>
        <time>2018-12-08T14:10:51.000Z</time>
      </trkpt>
      <trkpt lat="43.73766" lon="7.08437">
        <ele>590.79998779297</ele>
        <time>2018-12-08T14:10:52.000Z</time>
      </trkpt>
      <trkpt lat="43.73762" lon="7.08439">
        <ele>591.20001220703</ele>
        <time>2018-12-08T14:10:54.000Z</time>
      </trkpt>
      <trkpt lat="43.7376" lon="7.08441">
        <ele>591.20001220703</ele>
        <time>2018-12-08T14:10:55.000Z</time>
      </trkpt>
      <trkpt lat="43.73753" lon="7.08453">
        <ele>591</ele>
        <time>2018-12-08T14:10:59.000Z</time>
      </trkpt>
      <trkpt lat="43.73738" lon="7.08461">
        <ele>590.59997558594</ele>
        <time>2018-12-08T14:11:05.000Z</time>
      </trkpt>
      <trkpt lat="43.73724" lon="7.08468">
        <ele>590</ele>
        <time>2018-12-08T14:11:10.000Z</time>
      </trkpt>
      <trkpt lat="43.73721" lon="7.08475">
        <ele>590.20001220703</ele>
        <time>2018-12-08T14:11:13.000Z</time>
      </trkpt>
      <trkpt lat="43.73719" lon="7.08479">
        <ele>590.79998779297</ele>
        <time>2018-12-08T14:11:15.000Z</time>
      </trkpt>
      <trkpt lat="43.73718" lon="7.08481">
        <ele>591.20001220703</ele>
        <time>2018-12-08T14:11:16.000Z</time>
      </trkpt>
      <trkpt lat="43.73714" lon="7.08493">
        <ele>591.59997558594</ele>
        <time>2018-12-08T14:11:20.000Z</time>
      </trkpt>
      <trkpt lat="43.73708" lon="7.0852">
        <ele>590.20001220703</ele>
        <time>2018-12-08T14:11:27.000Z</time>
      </trkpt>
      <trkpt lat="43.73707" lon="7.08524">
        <ele>589.59997558594</ele>
        <time>2018-12-08T14:11:28.000Z</time>
      </trkpt>
      <trkpt lat="43.73704" lon="7.08537">
        <ele>588.59997558594</ele>
        <time>2018-12-08T14:11:30.000Z</time>
      </trkpt>
      <trkpt lat="43.73701" lon="7.08546">
        <ele>587.20001220703</ele>
        <time>2018-12-08T14:11:32.000Z</time>
      </trkpt>
      <trkpt lat="43.737" lon="7.08551">
        <ele>586.20001220703</ele>
        <time>2018-12-08T14:11:33.000Z</time>
      </trkpt>
      <trkpt lat="43.73698" lon="7.08558">
        <ele>584.79998779297</ele>
        <time>2018-12-08T14:11:35.000Z</time>
      </trkpt>
      <trkpt lat="43.73697" lon="7.08564">
        <ele>584.59997558594</ele>
        <time>2018-12-08T14:11:37.000Z</time>
      </trkpt>
      <trkpt lat="43.73689" lon="7.08577">
        <ele>585.79998779297</ele>
        <time>2018-12-08T14:11:43.000Z</time>
      </trkpt>
      <trkpt lat="43.73685" lon="7.08585">
        <ele>585.59997558594</ele>
        <time>2018-12-08T14:11:46.000Z</time>
      </trkpt>
      <trkpt lat="43.73681" lon="7.08592">
        <ele>584.79998779297</ele>
        <time>2018-12-08T14:11:48.000Z</time>
      </trkpt>
      <trkpt lat="43.73677" lon="7.08598">
        <ele>583.40002441406</ele>
        <time>2018-12-08T14:11:50.000Z</time>
      </trkpt>
      <trkpt lat="43.73673" lon="7.08601">
        <ele>583</ele>
        <time>2018-12-08T14:11:51.000Z</time>
      </trkpt>
      <trkpt lat="43.73669" lon="7.08605">
        <ele>581.79998779297</ele>
        <time>2018-12-08T14:11:52.000Z</time>
      </trkpt>
      <trkpt lat="43.73661" lon="7.08611">
        <ele>580.79998779297</ele>
        <time>2018-12-08T14:11:54.000Z</time>
      </trkpt>
      <trkpt lat="43.73657" lon="7.08616">
        <ele>579.59997558594</ele>
        <time>2018-12-08T14:11:55.000Z</time>
      </trkpt>
      <trkpt lat="43.73652" lon="7.08629">
        <ele>578.20001220703</ele>
        <time>2018-12-08T14:11:57.000Z</time>
      </trkpt>
      <trkpt lat="43.7365" lon="7.08635">
        <ele>577.59997558594</ele>
        <time>2018-12-08T14:11:58.000Z</time>
      </trkpt>
      <trkpt lat="43.73648" lon="7.0864">
        <ele>576.59997558594</ele>
        <time>2018-12-08T14:11:59.000Z</time>
      </trkpt>
      <trkpt lat="43.73648" lon="7.0865">
        <ele>576</ele>
        <time>2018-12-08T14:12:01.000Z</time>
      </trkpt>
      <trkpt lat="43.73643" lon="7.08668">
        <ele>577</ele>
        <time>2018-12-08T14:12:06.000Z</time>
      </trkpt>
      <trkpt lat="43.73641" lon="7.08675">
        <ele>578</ele>
        <time>2018-12-08T14:12:08.000Z</time>
      </trkpt>
      <trkpt lat="43.73638" lon="7.08683">
        <ele>578.79998779297</ele>
        <time>2018-12-08T14:12:11.000Z</time>
      </trkpt>
      <trkpt lat="43.73637" lon="7.08686">
        <ele>579.20001220703</ele>
        <time>2018-12-08T14:12:12.000Z</time>
      </trkpt>
      <trkpt lat="43.73629" lon="7.08699">
        <ele>580</ele>
        <time>2018-12-08T14:12:16.000Z</time>
      </trkpt>
      <trkpt lat="43.73626" lon="7.08703">
        <ele>579.79998779297</ele>
        <time>2018-12-08T14:12:17.000Z</time>
      </trkpt>
      <trkpt lat="43.73614" lon="7.08715">
        <ele>579.20001220703</ele>
        <time>2018-12-08T14:12:20.000Z</time>
      </trkpt>
      <trkpt lat="43.73608" lon="7.08722">
        <ele>578.40002441406</ele>
        <time>2018-12-08T14:12:22.000Z</time>
      </trkpt>
      <trkpt lat="43.73605" lon="7.08727">
        <ele>577.79998779297</ele>
        <time>2018-12-08T14:12:23.000Z</time>
      </trkpt>
      <trkpt lat="43.73602" lon="7.08732">
        <ele>577</ele>
        <time>2018-12-08T14:12:24.000Z</time>
      </trkpt>
      <trkpt lat="43.73599" lon="7.08738">
        <ele>576.40002441406</ele>
        <time>2018-12-08T14:12:25.000Z</time>
      </trkpt>
      <trkpt lat="43.73594" lon="7.08755">
        <ele>574.20001220703</ele>
        <time>2018-12-08T14:12:27.000Z</time>
      </trkpt>
      <trkpt lat="43.73592" lon="7.08762">
        <ele>572.79998779297</ele>
        <time>2018-12-08T14:12:28.000Z</time>
      </trkpt>
      <trkpt lat="43.73581" lon="7.08782">
        <ele>571</ele>
        <time>2018-12-08T14:12:31.000Z</time>
      </trkpt>
      <trkpt lat="43.73577" lon="7.08789">
        <ele>570</ele>
        <time>2018-12-08T14:12:32.000Z</time>
      </trkpt>
      <trkpt lat="43.73572" lon="7.08795">
        <ele>570</ele>
        <time>2018-12-08T14:12:33.000Z</time>
      </trkpt>
      <trkpt lat="43.73567" lon="7.08801">
        <ele>568</ele>
        <time>2018-12-08T14:12:34.000Z</time>
      </trkpt>
      <trkpt lat="43.73561" lon="7.08807">
        <ele>566.59997558594</ele>
        <time>2018-12-08T14:12:35.000Z</time>
      </trkpt>
      <trkpt lat="43.73556" lon="7.08813">
        <ele>565.20001220703</ele>
        <time>2018-12-08T14:12:36.000Z</time>
      </trkpt>
      <trkpt lat="43.73553" lon="7.08821">
        <ele>563.59997558594</ele>
        <time>2018-12-08T14:12:37.000Z</time>
      </trkpt>
      <trkpt lat="43.73549" lon="7.0883">
        <ele>561.59997558594</ele>
        <time>2018-12-08T14:12:38.000Z</time>
      </trkpt>
      <trkpt lat="43.73544" lon="7.08839">
        <ele>560.59997558594</ele>
        <time>2018-12-08T14:12:39.000Z</time>
      </trkpt>
      <trkpt lat="43.73538" lon="7.08848">
        <ele>559.59997558594</ele>
        <time>2018-12-08T14:12:40.000Z</time>
      </trkpt>
      <trkpt lat="43.73533" lon="7.08857">
        <ele>558.59997558594</ele>
        <time>2018-12-08T14:12:41.000Z</time>
      </trkpt>
      <trkpt lat="43.73523" lon="7.08877">
        <ele>556.59997558594</ele>
        <time>2018-12-08T14:12:43.000Z</time>
      </trkpt>
      <trkpt lat="43.73511" lon="7.08897">
        <ele>552.79998779297</ele>
        <time>2018-12-08T14:12:45.000Z</time>
      </trkpt>
      <trkpt lat="43.73501" lon="7.08919">
        <ele>551.20001220703</ele>
        <time>2018-12-08T14:12:47.000Z</time>
      </trkpt>
      <trkpt lat="43.73495" lon="7.0893">
        <ele>550.40002441406</ele>
        <time>2018-12-08T14:12:48.000Z</time>
      </trkpt>
      <trkpt lat="43.73489" lon="7.08939">
        <ele>549.79998779297</ele>
        <time>2018-12-08T14:12:49.000Z</time>
      </trkpt>
      <trkpt lat="43.73476" lon="7.08961">
        <ele>548.40002441406</ele>
        <time>2018-12-08T14:12:51.000Z</time>
      </trkpt>
      <trkpt lat="43.73471" lon="7.08972">
        <ele>547.40002441406</ele>
        <time>2018-12-08T14:12:52.000Z</time>
      </trkpt>
      <trkpt lat="43.73459" lon="7.08992">
        <ele>545.59997558594</ele>
        <time>2018-12-08T14:12:54.000Z</time>
      </trkpt>
      <trkpt lat="43.73453" lon="7.08999">
        <ele>544.79998779297</ele>
        <time>2018-12-08T14:12:55.000Z</time>
      </trkpt>
      <trkpt lat="43.73447" lon="7.09005">
        <ele>544</ele>
        <time>2018-12-08T14:12:56.000Z</time>
      </trkpt>
      <trkpt lat="43.73442" lon="7.09008">
        <ele>543.40002441406</ele>
        <time>2018-12-08T14:12:57.000Z</time>
      </trkpt>
      <trkpt lat="43.73437" lon="7.0901">
        <ele>543</ele>
        <time>2018-12-08T14:12:58.000Z</time>
      </trkpt>
      <trkpt lat="43.7343" lon="7.09011">
        <ele>542.20001220703</ele>
        <time>2018-12-08T14:13:00.000Z</time>
      </trkpt>
      <trkpt lat="43.73423" lon="7.09014">
        <ele>542</ele>
        <time>2018-12-08T14:13:02.000Z</time>
      </trkpt>
      <trkpt lat="43.73418" lon="7.09021">
        <ele>541.40002441406</ele>
        <time>2018-12-08T14:13:04.000Z</time>
      </trkpt>
      <trkpt lat="43.73413" lon="7.09033">
        <ele>540.59997558594</ele>
        <time>2018-12-08T14:13:06.000Z</time>
      </trkpt>
      <trkpt lat="43.73409" lon="7.0904">
        <ele>540.20001220703</ele>
        <time>2018-12-08T14:13:07.000Z</time>
      </trkpt>
      <trkpt lat="43.73405" lon="7.09046">
        <ele>539.59997558594</ele>
        <time>2018-12-08T14:13:08.000Z</time>
      </trkpt>
      <trkpt lat="43.73401" lon="7.09051">
        <ele>539</ele>
        <time>2018-12-08T14:13:09.000Z</time>
      </trkpt>
      <trkpt lat="43.73397" lon="7.09056">
        <ele>538.20001220703</ele>
        <time>2018-12-08T14:13:10.000Z</time>
      </trkpt>
      <trkpt lat="43.73387" lon="7.09064">
        <ele>537</ele>
        <time>2018-12-08T14:13:12.000Z</time>
      </trkpt>
      <trkpt lat="43.73379" lon="7.09075">
        <ele>535.20001220703</ele>
        <time>2018-12-08T14:13:14.000Z</time>
      </trkpt>
      <trkpt lat="43.73372" lon="7.09089">
        <ele>533.20001220703</ele>
        <time>2018-12-08T14:13:16.000Z</time>
      </trkpt>
      <trkpt lat="43.7337" lon="7.09096">
        <ele>532</ele>
        <time>2018-12-08T14:13:17.000Z</time>
      </trkpt>
      <trkpt lat="43.73367" lon="7.09103">
        <ele>530.79998779297</ele>
        <time>2018-12-08T14:13:18.000Z</time>
      </trkpt>
      <trkpt lat="43.73364" lon="7.0911">
        <ele>529.59997558594</ele>
        <time>2018-12-08T14:13:19.000Z</time>
      </trkpt>
      <trkpt lat="43.73361" lon="7.09117">
        <ele>528.40002441406</ele>
        <time>2018-12-08T14:13:20.000Z</time>
      </trkpt>
      <trkpt lat="43.73357" lon="7.09124">
        <ele>526.79998779297</ele>
        <time>2018-12-08T14:13:21.000Z</time>
      </trkpt>
      <trkpt lat="43.73353" lon="7.09132">
        <ele>525.59997558594</ele>
        <time>2018-12-08T14:13:22.000Z</time>
      </trkpt>
      <trkpt lat="43.73349" lon="7.0914">
        <ele>524.20001220703</ele>
        <time>2018-12-08T14:13:23.000Z</time>
      </trkpt>
      <trkpt lat="43.73345" lon="7.09149">
        <ele>522.79998779297</ele>
        <time>2018-12-08T14:13:24.000Z</time>
      </trkpt>
      <trkpt lat="43.73342" lon="7.09159">
        <ele>521</ele>
        <time>2018-12-08T14:13:25.000Z</time>
      </trkpt>
      <trkpt lat="43.73341" lon="7.09172">
        <ele>519.59997558594</ele>
        <time>2018-12-08T14:13:26.000Z</time>
      </trkpt>
      <trkpt lat="43.7334" lon="7.09186">
        <ele>517.79998779297</ele>
        <time>2018-12-08T14:13:27.000Z</time>
      </trkpt>
      <trkpt lat="43.7334" lon="7.09199">
        <ele>516</ele>
        <time>2018-12-08T14:13:28.000Z</time>
      </trkpt>
      <trkpt lat="43.73341" lon="7.09212">
        <ele>514.20001220703</ele>
        <time>2018-12-08T14:13:29.000Z</time>
      </trkpt>
      <trkpt lat="43.73342" lon="7.09226">
        <ele>512.79998779297</ele>
        <time>2018-12-08T14:13:30.000Z</time>
      </trkpt>
      <trkpt lat="43.73341" lon="7.0924">
        <ele>511.20001220703</ele>
        <time>2018-12-08T14:13:31.000Z</time>
      </trkpt>
      <trkpt lat="43.73339" lon="7.09253">
        <ele>510</ele>
        <time>2018-12-08T14:13:32.000Z</time>
      </trkpt>
      <trkpt lat="43.73337" lon="7.09267">
        <ele>509</ele>
        <time>2018-12-08T14:13:33.000Z</time>
      </trkpt>
      <trkpt lat="43.73334" lon="7.09278">
        <ele>508.20001220703</ele>
        <time>2018-12-08T14:13:34.000Z</time>
      </trkpt>
      <trkpt lat="43.73321" lon="7.09296">
        <ele>507.20001220703</ele>
        <time>2018-12-08T14:13:36.000Z</time>
      </trkpt>
      <trkpt lat="43.7331" lon="7.09319">
        <ele>506.79998779297</ele>
        <time>2018-12-08T14:13:39.000Z</time>
      </trkpt>
      <trkpt lat="43.73306" lon="7.09338">
        <ele>508.60000610352</ele>
        <time>2018-12-08T14:13:42.000Z</time>
      </trkpt>
      <trkpt lat="43.73305" lon="7.09344">
        <ele>509.39999389648</ele>
        <time>2018-12-08T14:13:43.000Z</time>
      </trkpt>
      <trkpt lat="43.73305" lon="7.0935">
        <ele>510</ele>
        <time>2018-12-08T14:13:44.000Z</time>
      </trkpt>
      <trkpt lat="43.73305" lon="7.09363">
        <ele>510.60000610352</ele>
        <time>2018-12-08T14:13:47.000Z</time>
      </trkpt>
      <trkpt lat="43.73302" lon="7.09378">
        <ele>511</ele>
        <time>2018-12-08T14:13:50.000Z</time>
      </trkpt>
      <trkpt lat="43.73303" lon="7.09383">
        <ele>511</ele>
        <time>2018-12-08T14:13:51.000Z</time>
      </trkpt>
      <trkpt lat="43.73303" lon="7.09388">
        <ele>510.60000610352</ele>
        <time>2018-12-08T14:13:52.000Z</time>
      </trkpt>
      <trkpt lat="43.73305" lon="7.09412">
        <ele>509.79998779297</ele>
        <time>2018-12-08T14:13:55.000Z</time>
      </trkpt>
      <trkpt lat="43.73304" lon="7.0942">
        <ele>509.20001220703</ele>
        <time>2018-12-08T14:13:56.000Z</time>
      </trkpt>
      <trkpt lat="43.73304" lon="7.09429">
        <ele>508.79998779297</ele>
        <time>2018-12-08T14:13:57.000Z</time>
      </trkpt>
      <trkpt lat="43.73306" lon="7.09447">
        <ele>507.79998779297</ele>
        <time>2018-12-08T14:13:59.000Z</time>
      </trkpt>
      <trkpt lat="43.73307" lon="7.09457">
        <ele>507.60000610352</ele>
        <time>2018-12-08T14:14:00.000Z</time>
      </trkpt>
      <trkpt lat="43.73307" lon="7.09467">
        <ele>507.20001220703</ele>
        <time>2018-12-08T14:14:01.000Z</time>
      </trkpt>
      <trkpt lat="43.73302" lon="7.09487">
        <ele>506.60000610352</ele>
        <time>2018-12-08T14:14:03.000Z</time>
      </trkpt>
      <trkpt lat="43.73299" lon="7.09497">
        <ele>506.20001220703</ele>
        <time>2018-12-08T14:14:04.000Z</time>
      </trkpt>
      <trkpt lat="43.73293" lon="7.09517">
        <ele>505</ele>
        <time>2018-12-08T14:14:06.000Z</time>
      </trkpt>
      <trkpt lat="43.73289" lon="7.09524">
        <ele>504.60000610352</ele>
        <time>2018-12-08T14:14:07.000Z</time>
      </trkpt>
      <trkpt lat="43.73284" lon="7.09535">
        <ele>504</ele>
        <time>2018-12-08T14:14:08.000Z</time>
      </trkpt>
      <trkpt lat="43.73275" lon="7.09557">
        <ele>502.60000610352</ele>
        <time>2018-12-08T14:14:10.000Z</time>
      </trkpt>
      <trkpt lat="43.73272" lon="7.09568">
        <ele>501.79998779297</ele>
        <time>2018-12-08T14:14:11.000Z</time>
      </trkpt>
      <trkpt lat="43.73268" lon="7.09579">
        <ele>500.60000610352</ele>
        <time>2018-12-08T14:14:12.000Z</time>
      </trkpt>
      <trkpt lat="43.73265" lon="7.09588">
        <ele>499.60000610352</ele>
        <time>2018-12-08T14:14:13.000Z</time>
      </trkpt>
      <trkpt lat="43.7326" lon="7.09596">
        <ele>498.20001220703</ele>
        <time>2018-12-08T14:14:14.000Z</time>
      </trkpt>
      <trkpt lat="43.73248" lon="7.09611">
        <ele>497</ele>
        <time>2018-12-08T14:14:16.000Z</time>
      </trkpt>
      <trkpt lat="43.73244" lon="7.0962">
        <ele>496.39999389648</ele>
        <time>2018-12-08T14:14:17.000Z</time>
      </trkpt>
      <trkpt lat="43.73242" lon="7.0963">
        <ele>495.79998779297</ele>
        <time>2018-12-08T14:14:18.000Z</time>
      </trkpt>
      <trkpt lat="43.73241" lon="7.0965">
        <ele>494</ele>
        <time>2018-12-08T14:14:20.000Z</time>
      </trkpt>
      <trkpt lat="43.7324" lon="7.0966">
        <ele>493.20001220703</ele>
        <time>2018-12-08T14:14:21.000Z</time>
      </trkpt>
      <trkpt lat="43.73238" lon="7.09669">
        <ele>492.60000610352</ele>
        <time>2018-12-08T14:14:22.000Z</time>
      </trkpt>
      <trkpt lat="43.73235" lon="7.09685">
        <ele>492.39999389648</ele>
        <time>2018-12-08T14:14:24.000Z</time>
      </trkpt>
      <trkpt lat="43.73232" lon="7.09701">
        <ele>492.20001220703</ele>
        <time>2018-12-08T14:14:26.000Z</time>
      </trkpt>
      <trkpt lat="43.73224" lon="7.09726">
        <ele>492.60000610352</ele>
        <time>2018-12-08T14:14:29.000Z</time>
      </trkpt>
      <trkpt lat="43.73216" lon="7.09745">
        <ele>492.20001220703</ele>
        <time>2018-12-08T14:14:31.000Z</time>
      </trkpt>
      <trkpt lat="43.73212" lon="7.0975">
        <ele>491.20001220703</ele>
        <time>2018-12-08T14:14:32.000Z</time>
      </trkpt>
      <trkpt lat="43.73207" lon="7.09754">
        <ele>490.20001220703</ele>
        <time>2018-12-08T14:14:33.000Z</time>
      </trkpt>
      <trkpt lat="43.73202" lon="7.09757">
        <ele>489</ele>
        <time>2018-12-08T14:14:34.000Z</time>
      </trkpt>
      <trkpt lat="43.73199" lon="7.09761">
        <ele>488</ele>
        <time>2018-12-08T14:14:35.000Z</time>
      </trkpt>
      <trkpt lat="43.732" lon="7.09766">
        <ele>486.79998779297</ele>
        <time>2018-12-08T14:14:36.000Z</time>
      </trkpt>
      <trkpt lat="43.73202" lon="7.09773">
        <ele>485.60000610352</ele>
        <time>2018-12-08T14:14:37.000Z</time>
      </trkpt>
      <trkpt lat="43.73205" lon="7.0978">
        <ele>484.39999389648</ele>
        <time>2018-12-08T14:14:38.000Z</time>
      </trkpt>
      <trkpt lat="43.73207" lon="7.09789">
        <ele>483.39999389648</ele>
        <time>2018-12-08T14:14:39.000Z</time>
      </trkpt>
      <trkpt lat="43.73209" lon="7.098">
        <ele>482.39999389648</ele>
        <time>2018-12-08T14:14:40.000Z</time>
      </trkpt>
      <trkpt lat="43.73208" lon="7.09823">
        <ele>480.39999389648</ele>
        <time>2018-12-08T14:14:42.000Z</time>
      </trkpt>
      <trkpt lat="43.73204" lon="7.09834">
        <ele>479.39999389648</ele>
        <time>2018-12-08T14:14:43.000Z</time>
      </trkpt>
      <trkpt lat="43.73199" lon="7.09844">
        <ele>478</ele>
        <time>2018-12-08T14:14:44.000Z</time>
      </trkpt>
      <trkpt lat="43.73194" lon="7.09857">
        <ele>476.20001220703</ele>
        <time>2018-12-08T14:14:45.000Z</time>
      </trkpt>
      <trkpt lat="43.7319" lon="7.09871">
        <ele>474</ele>
        <time>2018-12-08T14:14:46.000Z</time>
      </trkpt>
      <trkpt lat="43.73187" lon="7.09884">
        <ele>471.60000610352</ele>
        <time>2018-12-08T14:14:47.000Z</time>
      </trkpt>
      <trkpt lat="43.73186" lon="7.09896">
        <ele>469.20001220703</ele>
        <time>2018-12-08T14:14:48.000Z</time>
      </trkpt>
      <trkpt lat="43.73186" lon="7.09906">
        <ele>466.79998779297</ele>
        <time>2018-12-08T14:14:49.000Z</time>
      </trkpt>
      <trkpt lat="43.73188" lon="7.09918">
        <ele>464.60000610352</ele>
        <time>2018-12-08T14:14:50.000Z</time>
      </trkpt>
      <trkpt lat="43.7319" lon="7.09928">
        <ele>463.39999389648</ele>
        <time>2018-12-08T14:14:51.000Z</time>
      </trkpt>
      <trkpt lat="43.73191" lon="7.09938">
        <ele>462.39999389648</ele>
        <time>2018-12-08T14:14:52.000Z</time>
      </trkpt>
      <trkpt lat="43.73193" lon="7.09953">
        <ele>460.60000610352</ele>
        <time>2018-12-08T14:14:54.000Z</time>
      </trkpt>
      <trkpt lat="43.73192" lon="7.09961">
        <ele>459.79998779297</ele>
        <time>2018-12-08T14:14:55.000Z</time>
      </trkpt>
      <trkpt lat="43.73189" lon="7.09968">
        <ele>458.79998779297</ele>
        <time>2018-12-08T14:14:56.000Z</time>
      </trkpt>
      <trkpt lat="43.73184" lon="7.09973">
        <ele>457.79998779297</ele>
        <time>2018-12-08T14:14:57.000Z</time>
      </trkpt>
      <trkpt lat="43.73179" lon="7.09976">
        <ele>456.79998779297</ele>
        <time>2018-12-08T14:14:58.000Z</time>
      </trkpt>
      <trkpt lat="43.73176" lon="7.0998">
        <ele>455.79998779297</ele>
        <time>2018-12-08T14:14:59.000Z</time>
      </trkpt>
      <trkpt lat="43.73174" lon="7.09984">
        <ele>454.79998779297</ele>
        <time>2018-12-08T14:15:00.000Z</time>
      </trkpt>
      <trkpt lat="43.73175" lon="7.09989">
        <ele>454</ele>
        <time>2018-12-08T14:15:01.000Z</time>
      </trkpt>
      <trkpt lat="43.73175" lon="7.0999">
        <ele>452.39999389648</ele>
        <time>2018-12-08T14:15:03.000Z</time>
      </trkpt>
      <trkpt lat="43.73175" lon="7.09992">
        <ele>451.20001220703</ele>
        <time>2018-12-08T14:15:06.000Z</time>
      </trkpt>
      <trkpt lat="43.73175" lon="7.09993">
        <ele>450.60000610352</ele>
        <time>2018-12-08T14:15:10.000Z</time>
      </trkpt>
      <trkpt lat="43.73175" lon="7.09995">
        <ele>450</ele>
        <time>2018-12-08T14:15:14.000Z</time>
      </trkpt>
      <trkpt lat="43.73175" lon="7.09995">
        <ele>448.79998779297</ele>
        <time>2018-12-08T14:15:18.000Z</time>
      </trkpt>
      <trkpt lat="43.73174" lon="7.09997">
        <ele>448</ele>
        <time>2018-12-08T14:15:23.000Z</time>
      </trkpt>
      <trkpt lat="43.73173" lon="7.09999">
        <ele>448</ele>
        <time>2018-12-08T14:15:24.000Z</time>
      </trkpt>
      <trkpt lat="43.7317" lon="7.10008">
        <ele>447.79998779297</ele>
        <time>2018-12-08T14:15:27.000Z</time>
      </trkpt>
      <trkpt lat="43.73169" lon="7.10012">
        <ele>447.39999389648</ele>
        <time>2018-12-08T14:15:28.000Z</time>
      </trkpt>
      <trkpt lat="43.73166" lon="7.10018">
        <ele>446.20001220703</ele>
        <time>2018-12-08T14:15:30.000Z</time>
      </trkpt>
      <trkpt lat="43.73161" lon="7.10025">
        <ele>444.79998779297</ele>
        <time>2018-12-08T14:15:32.000Z</time>
      </trkpt>
      <trkpt lat="43.73157" lon="7.10031">
        <ele>443.20001220703</ele>
        <time>2018-12-08T14:15:34.000Z</time>
      </trkpt>
      <trkpt lat="43.73155" lon="7.10039">
        <ele>442</ele>
        <time>2018-12-08T14:15:36.000Z</time>
      </trkpt>
      <trkpt lat="43.73151" lon="7.10046">
        <ele>441</ele>
        <time>2018-12-08T14:15:38.000Z</time>
      </trkpt>
      <trkpt lat="43.73148" lon="7.10057">
        <ele>439</ele>
        <time>2018-12-08T14:15:41.000Z</time>
      </trkpt>
      <trkpt lat="43.73146" lon="7.10066">
        <ele>437</ele>
        <time>2018-12-08T14:15:43.000Z</time>
      </trkpt>
      <trkpt lat="43.73143" lon="7.10072">
        <ele>435.39999389648</ele>
        <time>2018-12-08T14:15:45.000Z</time>
      </trkpt>
      <trkpt lat="43.7314" lon="7.10075">
        <ele>434.39999389648</ele>
        <time>2018-12-08T14:15:46.000Z</time>
      </trkpt>
      <trkpt lat="43.73139" lon="7.10081">
        <ele>432.79998779297</ele>
        <time>2018-12-08T14:15:47.000Z</time>
      </trkpt>
      <trkpt lat="43.73132" lon="7.1009">
        <ele>431.20001220703</ele>
        <time>2018-12-08T14:15:49.000Z</time>
      </trkpt>
      <trkpt lat="43.73123" lon="7.10092">
        <ele>430</ele>
        <time>2018-12-08T14:15:51.000Z</time>
      </trkpt>
      <trkpt lat="43.73118" lon="7.1009">
        <ele>429.39999389648</ele>
        <time>2018-12-08T14:15:52.000Z</time>
      </trkpt>
      <trkpt lat="43.73113" lon="7.10089">
        <ele>428.79998779297</ele>
        <time>2018-12-08T14:15:53.000Z</time>
      </trkpt>
      <trkpt lat="43.73104" lon="7.10089">
        <ele>427.20001220703</ele>
        <time>2018-12-08T14:15:55.000Z</time>
      </trkpt>
      <trkpt lat="43.73101" lon="7.1009">
        <ele>426.39999389648</ele>
        <time>2018-12-08T14:15:56.000Z</time>
      </trkpt>
      <trkpt lat="43.73099" lon="7.10091">
        <ele>425.79998779297</ele>
        <time>2018-12-08T14:15:57.000Z</time>
      </trkpt>
      <trkpt lat="43.73095" lon="7.10095">
        <ele>424.60000610352</ele>
        <time>2018-12-08T14:15:59.000Z</time>
      </trkpt>
      <trkpt lat="43.73092" lon="7.10098">
        <ele>424.20001220703</ele>
        <time>2018-12-08T14:16:00.000Z</time>
      </trkpt>
      <trkpt lat="43.73089" lon="7.10099">
        <ele>423.60000610352</ele>
        <time>2018-12-08T14:16:01.000Z</time>
      </trkpt>
      <trkpt lat="43.73086" lon="7.10098">
        <ele>422.60000610352</ele>
        <time>2018-12-08T14:16:02.000Z</time>
      </trkpt>
      <trkpt lat="43.73082" lon="7.10096">
        <ele>422</ele>
        <time>2018-12-08T14:16:03.000Z</time>
      </trkpt>
      <trkpt lat="43.7308" lon="7.10095">
        <ele>421</ele>
        <time>2018-12-08T14:16:04.000Z</time>
      </trkpt>
      <trkpt lat="43.73075" lon="7.10095">
        <ele>419.60000610352</ele>
        <time>2018-12-08T14:16:06.000Z</time>
      </trkpt>
      <trkpt lat="43.73073" lon="7.10095">
        <ele>418.79998779297</ele>
        <time>2018-12-08T14:16:07.000Z</time>
      </trkpt>
      <trkpt lat="43.73071" lon="7.10096">
        <ele>418.20001220703</ele>
        <time>2018-12-08T14:16:08.000Z</time>
      </trkpt>
      <trkpt lat="43.73069" lon="7.101">
        <ele>416.60000610352</ele>
        <time>2018-12-08T14:16:10.000Z</time>
      </trkpt>
      <trkpt lat="43.73068" lon="7.10101">
        <ele>415.39999389648</ele>
        <time>2018-12-08T14:16:11.000Z</time>
      </trkpt>
      <trkpt lat="43.73065" lon="7.10103">
        <ele>414.20001220703</ele>
        <time>2018-12-08T14:16:13.000Z</time>
      </trkpt>
      <trkpt lat="43.73064" lon="7.10105">
        <ele>413.39999389648</ele>
        <time>2018-12-08T14:16:14.000Z</time>
      </trkpt>
      <trkpt lat="43.73063" lon="7.10106">
        <ele>412.60000610352</ele>
        <time>2018-12-08T14:16:15.000Z</time>
      </trkpt>
      <trkpt lat="43.73062" lon="7.10109">
        <ele>411.79998779297</ele>
        <time>2018-12-08T14:16:16.000Z</time>
      </trkpt>
      <trkpt lat="43.73061" lon="7.10111">
        <ele>411</ele>
        <time>2018-12-08T14:16:17.000Z</time>
      </trkpt>
      <trkpt lat="43.73058" lon="7.10116">
        <ele>410.20001220703</ele>
        <time>2018-12-08T14:16:18.000Z</time>
      </trkpt>
      <trkpt lat="43.73054" lon="7.10118">
        <ele>409.60000610352</ele>
        <time>2018-12-08T14:16:19.000Z</time>
      </trkpt>
      <trkpt lat="43.73048" lon="7.10123">
        <ele>408.39999389648</ele>
        <time>2018-12-08T14:16:21.000Z</time>
      </trkpt>
      <trkpt lat="43.73046" lon="7.10126">
        <ele>407.60000610352</ele>
        <time>2018-12-08T14:16:22.000Z</time>
      </trkpt>
      <trkpt lat="43.73045" lon="7.10127">
        <ele>406.60000610352</ele>
        <time>2018-12-08T14:16:23.000Z</time>
      </trkpt>
      <trkpt lat="43.73044" lon="7.10129">
        <ele>405.39999389648</ele>
        <time>2018-12-08T14:16:24.000Z</time>
      </trkpt>
      <trkpt lat="43.73042" lon="7.1013">
        <ele>404.39999389648</ele>
        <time>2018-12-08T14:16:25.000Z</time>
      </trkpt>
      <trkpt lat="43.73041" lon="7.10132">
        <ele>403.60000610352</ele>
        <time>2018-12-08T14:16:26.000Z</time>
      </trkpt>
      <trkpt lat="43.73039" lon="7.10134">
        <ele>403.20001220703</ele>
        <time>2018-12-08T14:16:27.000Z</time>
      </trkpt>
      <trkpt lat="43.73032" lon="7.1014">
        <ele>402.60000610352</ele>
        <time>2018-12-08T14:16:29.000Z</time>
      </trkpt>
      <trkpt lat="43.73028" lon="7.10145">
        <ele>402</ele>
        <time>2018-12-08T14:16:30.000Z</time>
      </trkpt>
      <trkpt lat="43.7302" lon="7.10153">
        <ele>400.60000610352</ele>
        <time>2018-12-08T14:16:32.000Z</time>
      </trkpt>
      <trkpt lat="43.73016" lon="7.10157">
        <ele>399.39999389648</ele>
        <time>2018-12-08T14:16:33.000Z</time>
      </trkpt>
      <trkpt lat="43.73013" lon="7.1016">
        <ele>398.39999389648</ele>
        <time>2018-12-08T14:16:34.000Z</time>
      </trkpt>
      <trkpt lat="43.7301" lon="7.10163">
        <ele>397</ele>
        <time>2018-12-08T14:16:35.000Z</time>
      </trkpt>
      <trkpt lat="43.73004" lon="7.10169">
        <ele>395.79998779297</ele>
        <time>2018-12-08T14:16:36.000Z</time>
      </trkpt>
      <trkpt lat="43.72999" lon="7.10173">
        <ele>394.39999389648</ele>
        <time>2018-12-08T14:16:37.000Z</time>
      </trkpt>
      <trkpt lat="43.72996" lon="7.10178">
        <ele>393.20001220703</ele>
        <time>2018-12-08T14:16:38.000Z</time>
      </trkpt>
      <trkpt lat="43.72994" lon="7.10181">
        <ele>391.39999389648</ele>
        <time>2018-12-08T14:16:39.000Z</time>
      </trkpt>
      <trkpt lat="43.72992" lon="7.10182">
        <ele>390.39999389648</ele>
        <time>2018-12-08T14:16:40.000Z</time>
      </trkpt>
      <trkpt lat="43.7299" lon="7.10183">
        <ele>389</ele>
        <time>2018-12-08T14:16:41.000Z</time>
      </trkpt>
      <trkpt lat="43.72988" lon="7.10184">
        <ele>388.20001220703</ele>
        <time>2018-12-08T14:16:42.000Z</time>
      </trkpt>
      <trkpt lat="43.72986" lon="7.10186">
        <ele>387.39999389648</ele>
        <time>2018-12-08T14:16:43.000Z</time>
      </trkpt>
      <trkpt lat="43.72981" lon="7.10192">
        <ele>386</ele>
        <time>2018-12-08T14:16:46.000Z</time>
      </trkpt>
      <trkpt lat="43.72978" lon="7.10195">
        <ele>385.79998779297</ele>
        <time>2018-12-08T14:16:47.000Z</time>
      </trkpt>
      <trkpt lat="43.72971" lon="7.10201">
        <ele>384.79998779297</ele>
        <time>2018-12-08T14:16:49.000Z</time>
      </trkpt>
      <trkpt lat="43.72965" lon="7.10209">
        <ele>383.60000610352</ele>
        <time>2018-12-08T14:16:51.000Z</time>
      </trkpt>
      <trkpt lat="43.72962" lon="7.10212">
        <ele>382.79998779297</ele>
        <time>2018-12-08T14:16:52.000Z</time>
      </trkpt>
      <trkpt lat="43.72959" lon="7.10216">
        <ele>381.79998779297</ele>
        <time>2018-12-08T14:16:53.000Z</time>
      </trkpt>
      <trkpt lat="43.72953" lon="7.10225">
        <ele>380.39999389648</ele>
        <time>2018-12-08T14:16:55.000Z</time>
      </trkpt>
      <trkpt lat="43.72948" lon="7.10236">
        <ele>379.60000610352</ele>
        <time>2018-12-08T14:16:57.000Z</time>
      </trkpt>
      <trkpt lat="43.72945" lon="7.10242">
        <ele>379</ele>
        <time>2018-12-08T14:16:58.000Z</time>
      </trkpt>
      <trkpt lat="43.72938" lon="7.10255">
        <ele>378</ele>
        <time>2018-12-08T14:17:00.000Z</time>
      </trkpt>
      <trkpt lat="43.72931" lon="7.10268">
        <ele>376.60000610352</ele>
        <time>2018-12-08T14:17:02.000Z</time>
      </trkpt>
      <trkpt lat="43.72926" lon="7.10274">
        <ele>375.60000610352</ele>
        <time>2018-12-08T14:17:03.000Z</time>
      </trkpt>
      <trkpt lat="43.72915" lon="7.10283">
        <ele>373.79998779297</ele>
        <time>2018-12-08T14:17:05.000Z</time>
      </trkpt>
      <trkpt lat="43.72908" lon="7.10288">
        <ele>373</ele>
        <time>2018-12-08T14:17:06.000Z</time>
      </trkpt>
      <trkpt lat="43.72901" lon="7.10292">
        <ele>372</ele>
        <time>2018-12-08T14:17:07.000Z</time>
      </trkpt>
      <trkpt lat="43.7289" lon="7.103">
        <ele>370.20001220703</ele>
        <time>2018-12-08T14:17:09.000Z</time>
      </trkpt>
      <trkpt lat="43.72883" lon="7.10303">
        <ele>369.39999389648</ele>
        <time>2018-12-08T14:17:10.000Z</time>
      </trkpt>
      <trkpt lat="43.72876" lon="7.10305">
        <ele>368.39999389648</ele>
        <time>2018-12-08T14:17:11.000Z</time>
      </trkpt>
      <trkpt lat="43.72862" lon="7.10307">
        <ele>366.60000610352</ele>
        <time>2018-12-08T14:17:13.000Z</time>
      </trkpt>
      <trkpt lat="43.72848" lon="7.10313">
        <ele>364.60000610352</ele>
        <time>2018-12-08T14:17:15.000Z</time>
      </trkpt>
      <trkpt lat="43.7284" lon="7.10316">
        <ele>363.39999389648</ele>
        <time>2018-12-08T14:17:16.000Z</time>
      </trkpt>
      <trkpt lat="43.72832" lon="7.10319">
        <ele>362.39999389648</ele>
        <time>2018-12-08T14:17:17.000Z</time>
      </trkpt>
      <trkpt lat="43.72815" lon="7.10326">
        <ele>360.60000610352</ele>
        <time>2018-12-08T14:17:19.000Z</time>
      </trkpt>
      <trkpt lat="43.72797" lon="7.10337">
        <ele>358.79998779297</ele>
        <time>2018-12-08T14:17:21.000Z</time>
      </trkpt>
      <trkpt lat="43.72788" lon="7.10343">
        <ele>357.60000610352</ele>
        <time>2018-12-08T14:17:22.000Z</time>
      </trkpt>
      <trkpt lat="43.7277" lon="7.10353">
        <ele>355.60000610352</ele>
        <time>2018-12-08T14:17:24.000Z</time>
      </trkpt>
      <trkpt lat="43.7275" lon="7.10363">
        <ele>354</ele>
        <time>2018-12-08T14:17:26.000Z</time>
      </trkpt>
      <trkpt lat="43.7273" lon="7.10372">
        <ele>352</ele>
        <time>2018-12-08T14:17:28.000Z</time>
      </trkpt>
      <trkpt lat="43.72711" lon="7.10379">
        <ele>350</ele>
        <time>2018-12-08T14:17:30.000Z</time>
      </trkpt>
      <trkpt lat="43.72694" lon="7.10386">
        <ele>348.39999389648</ele>
        <time>2018-12-08T14:17:32.000Z</time>
      </trkpt>
      <trkpt lat="43.72685" lon="7.10391">
        <ele>347.39999389648</ele>
        <time>2018-12-08T14:17:33.000Z</time>
      </trkpt>
      <trkpt lat="43.72678" lon="7.10397">
        <ele>346.60000610352</ele>
        <time>2018-12-08T14:17:34.000Z</time>
      </trkpt>
      <trkpt lat="43.72662" lon="7.10411">
        <ele>345</ele>
        <time>2018-12-08T14:17:36.000Z</time>
      </trkpt>
      <trkpt lat="43.72655" lon="7.10416">
        <ele>344.20001220703</ele>
        <time>2018-12-08T14:17:37.000Z</time>
      </trkpt>
      <trkpt lat="43.72647" lon="7.10421">
        <ele>343.39999389648</ele>
        <time>2018-12-08T14:17:38.000Z</time>
      </trkpt>
      <trkpt lat="43.72629" lon="7.1043">
        <ele>341.79998779297</ele>
        <time>2018-12-08T14:17:40.000Z</time>
      </trkpt>
      <trkpt lat="43.7262" lon="7.10436">
        <ele>341.20001220703</ele>
        <time>2018-12-08T14:17:41.000Z</time>
      </trkpt>
      <trkpt lat="43.72613" lon="7.10443">
        <ele>340</ele>
        <time>2018-12-08T14:17:42.000Z</time>
      </trkpt>
      <trkpt lat="43.72599" lon="7.10454">
        <ele>338.20001220703</ele>
        <time>2018-12-08T14:17:44.000Z</time>
      </trkpt>
      <trkpt lat="43.72594" lon="7.10461">
        <ele>337.20001220703</ele>
        <time>2018-12-08T14:17:45.000Z</time>
      </trkpt>
      <trkpt lat="43.72588" lon="7.10468">
        <ele>336.60000610352</ele>
        <time>2018-12-08T14:17:46.000Z</time>
      </trkpt>
      <trkpt lat="43.72575" lon="7.10482">
        <ele>335.39999389648</ele>
        <time>2018-12-08T14:17:48.000Z</time>
      </trkpt>
      <trkpt lat="43.72561" lon="7.10498">
        <ele>334.20001220703</ele>
        <time>2018-12-08T14:17:50.000Z</time>
      </trkpt>
      <trkpt lat="43.72548" lon="7.10516">
        <ele>332.60000610352</ele>
        <time>2018-12-08T14:17:52.000Z</time>
      </trkpt>
      <trkpt lat="43.72536" lon="7.10534">
        <ele>330.79998779297</ele>
        <time>2018-12-08T14:17:54.000Z</time>
      </trkpt>
      <trkpt lat="43.72529" lon="7.10544">
        <ele>330.20001220703</ele>
        <time>2018-12-08T14:17:55.000Z</time>
      </trkpt>
      <trkpt lat="43.72524" lon="7.10554">
        <ele>329.20001220703</ele>
        <time>2018-12-08T14:17:56.000Z</time>
      </trkpt>
      <trkpt lat="43.72515" lon="7.10568">
        <ele>327.79998779297</ele>
        <time>2018-12-08T14:17:58.000Z</time>
      </trkpt>
      <trkpt lat="43.72512" lon="7.10572">
        <ele>327.20001220703</ele>
        <time>2018-12-08T14:17:59.000Z</time>
      </trkpt>
      <trkpt lat="43.72511" lon="7.10576">
        <ele>326.60000610352</ele>
        <time>2018-12-08T14:18:00.000Z</time>
      </trkpt>
      <trkpt lat="43.72508" lon="7.10592">
        <ele>325.60000610352</ele>
        <time>2018-12-08T14:18:03.000Z</time>
      </trkpt>
      <trkpt lat="43.72508" lon="7.10598">
        <ele>325.39999389648</ele>
        <time>2018-12-08T14:18:04.000Z</time>
      </trkpt>
      <trkpt lat="43.72509" lon="7.10608">
        <ele>324.20001220703</ele>
        <time>2018-12-08T14:18:07.000Z</time>
      </trkpt>
      <trkpt lat="43.72516" lon="7.10613">
        <ele>323.20001220703</ele>
        <time>2018-12-08T14:18:10.000Z</time>
      </trkpt>
      <trkpt lat="43.7252" lon="7.10617">
        <ele>323</ele>
        <time>2018-12-08T14:18:12.000Z</time>
      </trkpt>
      <trkpt lat="43.72525" lon="7.1062">
        <ele>322.20001220703</ele>
        <time>2018-12-08T14:18:15.000Z</time>
      </trkpt>
      <trkpt lat="43.72526" lon="7.10621">
        <ele>321.79998779297</ele>
        <time>2018-12-08T14:18:16.000Z</time>
      </trkpt>
      <trkpt lat="43.72529" lon="7.10623">
        <ele>321</ele>
        <time>2018-12-08T14:18:18.000Z</time>
      </trkpt>
      <trkpt lat="43.72531" lon="7.10623">
        <ele>320.60000610352</ele>
        <time>2018-12-08T14:18:19.000Z</time>
      </trkpt>
      <trkpt lat="43.72532" lon="7.10626">
        <ele>319.39999389648</ele>
        <time>2018-12-08T14:18:21.000Z</time>
      </trkpt>
      <trkpt lat="43.7253" lon="7.10631">
        <ele>318.39999389648</ele>
        <time>2018-12-08T14:18:23.000Z</time>
      </trkpt>
      <trkpt lat="43.72525" lon="7.10642">
        <ele>317.20001220703</ele>
        <time>2018-12-08T14:18:26.000Z</time>
      </trkpt>
      <trkpt lat="43.72524" lon="7.10645">
        <ele>317</ele>
        <time>2018-12-08T14:18:27.000Z</time>
      </trkpt>
      <trkpt lat="43.72522" lon="7.1065">
        <ele>317</ele>
        <time>2018-12-08T14:18:29.000Z</time>
      </trkpt>
      <trkpt lat="43.72517" lon="7.10659">
        <ele>317</ele>
        <time>2018-12-08T14:18:32.000Z</time>
      </trkpt>
      <trkpt lat="43.72503" lon="7.10682">
        <ele>317.79998779297</ele>
        <time>2018-12-08T14:18:39.000Z</time>
      </trkpt>
      <trkpt lat="43.72489" lon="7.10697">
        <ele>317.79998779297</ele>
        <time>2018-12-08T14:18:44.000Z</time>
      </trkpt>
      <trkpt lat="43.72471" lon="7.10713">
        <ele>317.39999389648</ele>
        <time>2018-12-08T14:18:50.000Z</time>
      </trkpt>
      <trkpt lat="43.7247" lon="7.10717">
        <ele>317.60000610352</ele>
        <time>2018-12-08T14:18:51.000Z</time>
      </trkpt>
      <trkpt lat="43.7247" lon="7.10727">
        <ele>317.79998779297</ele>
        <time>2018-12-08T14:18:53.000Z</time>
      </trkpt>
      <trkpt lat="43.72477" lon="7.10746">
        <ele>317.60000610352</ele>
        <time>2018-12-08T14:18:57.000Z</time>
      </trkpt>
      <trkpt lat="43.72482" lon="7.10754">
        <ele>317.39999389648</ele>
        <time>2018-12-08T14:18:59.000Z</time>
      </trkpt>
      <trkpt lat="43.72492" lon="7.10771">
        <ele>317.20001220703</ele>
        <time>2018-12-08T14:19:03.000Z</time>
      </trkpt>
      <trkpt lat="43.72509" lon="7.10798">
        <ele>317.60000610352</ele>
        <time>2018-12-08T14:19:10.000Z</time>
      </trkpt>
      <trkpt lat="43.72531" lon="7.10834">
        <ele>317</ele>
        <time>2018-12-08T14:19:18.000Z</time>
      </trkpt>
      <trkpt lat="43.72563" lon="7.10888">
        <ele>316.60000610352</ele>
        <time>2018-12-08T14:19:29.000Z</time>
      </trkpt>
      <trkpt lat="43.7259" lon="7.10924">
        <ele>316.79998779297</ele>
        <time>2018-12-08T14:19:37.000Z</time>
      </trkpt>
      <trkpt lat="43.72613" lon="7.10947">
        <ele>317.39999389648</ele>
        <time>2018-12-08T14:19:44.000Z</time>
      </trkpt>
      <trkpt lat="43.72634" lon="7.10959">
        <ele>318.39999389648</ele>
        <time>2018-12-08T14:19:50.000Z</time>
      </trkpt>
      <trkpt lat="43.72637" lon="7.10961">
        <ele>318.39999389648</ele>
        <time>2018-12-08T14:19:51.000Z</time>
      </trkpt>
      <trkpt lat="43.72662" lon="7.10973">
        <ele>319.20001220703</ele>
        <time>2018-12-08T14:19:58.000Z</time>
      </trkpt>
      <trkpt lat="43.72667" lon="7.10979">
        <ele>319.39999389648</ele>
        <time>2018-12-08T14:20:00.000Z</time>
      </trkpt>
      <trkpt lat="43.72671" lon="7.10988">
        <ele>319.79998779297</ele>
        <time>2018-12-08T14:20:02.000Z</time>
      </trkpt>
      <trkpt lat="43.72673" lon="7.11016">
        <ele>320.39999389648</ele>
        <time>2018-12-08T14:20:08.000Z</time>
      </trkpt>
      <trkpt lat="43.7267" lon="7.1103">
        <ele>320.60000610352</ele>
        <time>2018-12-08T14:20:11.000Z</time>
      </trkpt>
      <trkpt lat="43.72667" lon="7.11044">
        <ele>320.79998779297</ele>
        <time>2018-12-08T14:20:14.000Z</time>
      </trkpt>
      <trkpt lat="43.72666" lon="7.11082">
        <ele>321.60000610352</ele>
        <time>2018-12-08T14:20:22.000Z</time>
      </trkpt>
      <trkpt lat="43.72668" lon="7.11086">
        <ele>321.60000610352</ele>
        <time>2018-12-08T14:20:23.000Z</time>
      </trkpt>
      <trkpt lat="43.72677" lon="7.11102">
        <ele>321.79998779297</ele>
        <time>2018-12-08T14:20:27.000Z</time>
      </trkpt>
      <trkpt lat="43.72702" lon="7.11124">
        <ele>322.20001220703</ele>
        <time>2018-12-08T14:20:35.000Z</time>
      </trkpt>
      <trkpt lat="43.72725" lon="7.1115">
        <ele>322.60000610352</ele>
        <time>2018-12-08T14:20:43.000Z</time>
      </trkpt>
      <trkpt lat="43.72727" lon="7.11153">
        <ele>322.60000610352</ele>
        <time>2018-12-08T14:20:44.000Z</time>
      </trkpt>
      <trkpt lat="43.72734" lon="7.11177">
        <ele>323.20001220703</ele>
        <time>2018-12-08T14:20:49.000Z</time>
      </trkpt>
      <trkpt lat="43.72743" lon="7.11204">
        <ele>323.60000610352</ele>
        <time>2018-12-08T14:20:55.000Z</time>
      </trkpt>
      <trkpt lat="43.72745" lon="7.11208">
        <ele>323.79998779297</ele>
        <time>2018-12-08T14:20:56.000Z</time>
      </trkpt>
      <trkpt lat="43.72753" lon="7.1124">
        <ele>324.20001220703</ele>
        <time>2018-12-08T14:21:03.000Z</time>
      </trkpt>
      <trkpt lat="43.72763" lon="7.11271">
        <ele>324.60000610352</ele>
        <time>2018-12-08T14:21:10.000Z</time>
      </trkpt>
      <trkpt lat="43.72764" lon="7.11275">
        <ele>324.79998779297</ele>
        <time>2018-12-08T14:21:11.000Z</time>
      </trkpt>
      <trkpt lat="43.72772" lon="7.11302">
        <ele>325.79998779297</ele>
        <time>2018-12-08T14:21:17.000Z</time>
      </trkpt>
      <trkpt lat="43.72774" lon="7.11307">
        <ele>325.79998779297</ele>
        <time>2018-12-08T14:21:18.000Z</time>
      </trkpt>
      <trkpt lat="43.72779" lon="7.11325">
        <ele>325.39999389648</ele>
        <time>2018-12-08T14:21:22.000Z</time>
      </trkpt>
      <trkpt lat="43.72794" lon="7.1135">
        <ele>326</ele>
        <time>2018-12-08T14:21:29.000Z</time>
      </trkpt>
      <trkpt lat="43.72812" lon="7.11362">
        <ele>326.60000610352</ele>
        <time>2018-12-08T14:21:35.000Z</time>
      </trkpt>
      <trkpt lat="43.72826" lon="7.11368">
        <ele>326.79998779297</ele>
        <time>2018-12-08T14:21:39.000Z</time>
      </trkpt>
      <trkpt lat="43.72843" lon="7.11375">
        <ele>327.20001220703</ele>
        <time>2018-12-08T14:21:44.000Z</time>
      </trkpt>
      <trkpt lat="43.72868" lon="7.11385">
        <ele>328</ele>
        <time>2018-12-08T14:21:51.000Z</time>
      </trkpt>
      <trkpt lat="43.72871" lon="7.11387">
        <ele>328</ele>
        <time>2018-12-08T14:21:52.000Z</time>
      </trkpt>
      <trkpt lat="43.72888" lon="7.11401">
        <ele>328.20001220703</ele>
        <time>2018-12-08T14:21:57.000Z</time>
      </trkpt>
      <trkpt lat="43.72898" lon="7.11424">
        <ele>328.39999389648</ele>
        <time>2018-12-08T14:22:02.000Z</time>
      </trkpt>
      <trkpt lat="43.72901" lon="7.11456">
        <ele>328.79998779297</ele>
        <time>2018-12-08T14:22:08.000Z</time>
      </trkpt>
      <trkpt lat="43.72901" lon="7.11461">
        <ele>329</ele>
        <time>2018-12-08T14:22:09.000Z</time>
      </trkpt>
      <trkpt lat="43.72893" lon="7.11503">
        <ele>329.79998779297</ele>
        <time>2018-12-08T14:22:17.000Z</time>
      </trkpt>
      <trkpt lat="43.72888" lon="7.11524">
        <ele>330</ele>
        <time>2018-12-08T14:22:21.000Z</time>
      </trkpt>
      <trkpt lat="43.72882" lon="7.11538">
        <ele>330.20001220703</ele>
        <time>2018-12-08T14:22:24.000Z</time>
      </trkpt>
      <trkpt lat="43.72866" lon="7.11561">
        <ele>330.60000610352</ele>
        <time>2018-12-08T14:22:30.000Z</time>
      </trkpt>
      <trkpt lat="43.72855" lon="7.11575">
        <ele>331</ele>
        <time>2018-12-08T14:22:34.000Z</time>
      </trkpt>
      <trkpt lat="43.7285" lon="7.11582">
        <ele>331.20001220703</ele>
        <time>2018-12-08T14:22:36.000Z</time>
      </trkpt>
      <trkpt lat="43.72839" lon="7.1161">
        <ele>331.60000610352</ele>
        <time>2018-12-08T14:22:42.000Z</time>
      </trkpt>
      <trkpt lat="43.72828" lon="7.11645">
        <ele>331.79998779297</ele>
        <time>2018-12-08T14:22:49.000Z</time>
      </trkpt>
      <trkpt lat="43.72819" lon="7.11662">
        <ele>332</ele>
        <time>2018-12-08T14:22:53.000Z</time>
      </trkpt>
      <trkpt lat="43.72817" lon="7.11667">
        <ele>332.20001220703</ele>
        <time>2018-12-08T14:22:54.000Z</time>
      </trkpt>
      <trkpt lat="43.72809" lon="7.11686">
        <ele>332.60000610352</ele>
        <time>2018-12-08T14:22:58.000Z</time>
      </trkpt>
      <trkpt lat="43.72807" lon="7.11712">
        <ele>333</ele>
        <time>2018-12-08T14:23:03.000Z</time>
      </trkpt>
      <trkpt lat="43.72807" lon="7.11716">
        <ele>333.20001220703</ele>
        <time>2018-12-08T14:23:04.000Z</time>
      </trkpt>
      <trkpt lat="43.72813" lon="7.11739">
        <ele>334</ele>
        <time>2018-12-08T14:23:09.000Z</time>
      </trkpt>
      <trkpt lat="43.7282" lon="7.11751">
        <ele>334.20001220703</ele>
        <time>2018-12-08T14:23:12.000Z</time>
      </trkpt>
      <trkpt lat="43.72828" lon="7.11762">
        <ele>334.39999389648</ele>
        <time>2018-12-08T14:23:15.000Z</time>
      </trkpt>
      <trkpt lat="43.72856" lon="7.11781">
        <ele>334.60000610352</ele>
        <time>2018-12-08T14:23:23.000Z</time>
      </trkpt>
      <trkpt lat="43.72897" lon="7.11806">
        <ele>334.60000610352</ele>
        <time>2018-12-08T14:23:33.000Z</time>
      </trkpt>
      <trkpt lat="43.72935" lon="7.11827">
        <ele>334.39999389648</ele>
        <time>2018-12-08T14:23:42.000Z</time>
      </trkpt>
      <trkpt lat="43.72973" lon="7.11846">
        <ele>333.79998779297</ele>
        <time>2018-12-08T14:23:50.000Z</time>
      </trkpt>
      <trkpt lat="43.73008" lon="7.11861">
        <ele>333.20001220703</ele>
        <time>2018-12-08T14:23:57.000Z</time>
      </trkpt>
      <trkpt lat="43.73038" lon="7.11862">
        <ele>333.20001220703</ele>
        <time>2018-12-08T14:24:03.000Z</time>
      </trkpt>
      <trkpt lat="43.73081" lon="7.11857">
        <ele>332.79998779297</ele>
        <time>2018-12-08T14:24:11.000Z</time>
      </trkpt>
      <trkpt lat="43.73118" lon="7.11848">
        <ele>332.39999389648</ele>
        <time>2018-12-08T14:24:18.000Z</time>
      </trkpt>
      <trkpt lat="43.73146" lon="7.11846">
        <ele>332.20001220703</ele>
        <time>2018-12-08T14:24:23.000Z</time>
      </trkpt>
      <trkpt lat="43.73152" lon="7.11849">
        <ele>332</ele>
        <time>2018-12-08T14:24:24.000Z</time>
      </trkpt>
      <trkpt lat="43.7317" lon="7.11868">
        <ele>331.60000610352</ele>
        <time>2018-12-08T14:24:28.000Z</time>
      </trkpt>
      <trkpt lat="43.73178" lon="7.11879">
        <ele>331.39999389648</ele>
        <time>2018-12-08T14:24:30.000Z</time>
      </trkpt>
      <trkpt lat="43.73196" lon="7.11908">
        <ele>331.20001220703</ele>
        <time>2018-12-08T14:24:35.000Z</time>
      </trkpt>
      <trkpt lat="43.73199" lon="7.11914">
        <ele>331.20001220703</ele>
        <time>2018-12-08T14:24:36.000Z</time>
      </trkpt>
      <trkpt lat="43.73215" lon="7.11935">
        <ele>330.79998779297</ele>
        <time>2018-12-08T14:24:40.000Z</time>
      </trkpt>
      <trkpt lat="43.73233" lon="7.11959">
        <ele>332</ele>
        <time>2018-12-08T14:24:45.000Z</time>
      </trkpt>
      <trkpt lat="43.73236" lon="7.11963">
        <ele>331.79998779297</ele>
        <time>2018-12-08T14:24:46.000Z</time>
      </trkpt>
      <trkpt lat="43.73258" lon="7.11987">
        <ele>331.20001220703</ele>
        <time>2018-12-08T14:24:51.000Z</time>
      </trkpt>
      <trkpt lat="43.7327" lon="7.12004">
        <ele>330.20001220703</ele>
        <time>2018-12-08T14:24:54.000Z</time>
      </trkpt>
      <trkpt lat="43.73275" lon="7.12019">
        <ele>329.79998779297</ele>
        <time>2018-12-08T14:24:56.000Z</time>
      </trkpt>
      <trkpt lat="43.73288" lon="7.12063">
        <ele>329.60000610352</ele>
        <time>2018-12-08T14:25:02.000Z</time>
      </trkpt>
      <trkpt lat="43.73291" lon="7.1207">
        <ele>329.60000610352</ele>
        <time>2018-12-08T14:25:03.000Z</time>
      </trkpt>
      <trkpt lat="43.73313" lon="7.12097">
        <ele>329.39999389648</ele>
        <time>2018-12-08T14:25:08.000Z</time>
      </trkpt>
      <trkpt lat="43.73341" lon="7.12128">
        <ele>329.20001220703</ele>
        <time>2018-12-08T14:25:14.000Z</time>
      </trkpt>
      <trkpt lat="43.7335" lon="7.12138">
        <ele>329</ele>
        <time>2018-12-08T14:25:16.000Z</time>
      </trkpt>
      <trkpt lat="43.73397" lon="7.12178">
        <ele>328.39999389648</ele>
        <time>2018-12-08T14:25:25.000Z</time>
      </trkpt>
      <trkpt lat="43.73402" lon="7.12183">
        <ele>328.20001220703</ele>
        <time>2018-12-08T14:25:26.000Z</time>
      </trkpt>
      <trkpt lat="43.73407" lon="7.12189">
        <ele>328</ele>
        <time>2018-12-08T14:25:27.000Z</time>
      </trkpt>
      <trkpt lat="43.73415" lon="7.12203">
        <ele>327.79998779297</ele>
        <time>2018-12-08T14:25:29.000Z</time>
      </trkpt>
      <trkpt lat="43.73418" lon="7.12211">
        <ele>327.79998779297</ele>
        <time>2018-12-08T14:25:30.000Z</time>
      </trkpt>
      <trkpt lat="43.73428" lon="7.1224">
        <ele>327.79998779297</ele>
        <time>2018-12-08T14:25:34.000Z</time>
      </trkpt>
      <trkpt lat="43.73431" lon="7.12247">
        <ele>327.79998779297</ele>
        <time>2018-12-08T14:25:35.000Z</time>
      </trkpt>
      <trkpt lat="43.73449" lon="7.1227">
        <ele>327.79998779297</ele>
        <time>2018-12-08T14:25:39.000Z</time>
      </trkpt>
      <trkpt lat="43.73454" lon="7.12275">
        <ele>328</ele>
        <time>2018-12-08T14:25:40.000Z</time>
      </trkpt>
      <trkpt lat="43.73497" lon="7.12311">
        <ele>327.39999389648</ele>
        <time>2018-12-08T14:25:48.000Z</time>
      </trkpt>
      <trkpt lat="43.73522" lon="7.12313">
        <ele>327.20001220703</ele>
        <time>2018-12-08T14:25:52.000Z</time>
      </trkpt>
      <trkpt lat="43.73528" lon="7.12313">
        <ele>327</ele>
        <time>2018-12-08T14:25:53.000Z</time>
      </trkpt>
      <trkpt lat="43.73548" lon="7.12314">
        <ele>326.39999389648</ele>
        <time>2018-12-08T14:25:56.000Z</time>
      </trkpt>
      <trkpt lat="43.73561" lon="7.1232">
        <ele>326.20001220703</ele>
        <time>2018-12-08T14:25:58.000Z</time>
      </trkpt>
      <trkpt lat="43.73571" lon="7.12331">
        <ele>325.79998779297</ele>
        <time>2018-12-08T14:26:00.000Z</time>
      </trkpt>
      <trkpt lat="43.73575" lon="7.12338">
        <ele>325.79998779297</ele>
        <time>2018-12-08T14:26:01.000Z</time>
      </trkpt>
      <trkpt lat="43.73582" lon="7.12353">
        <ele>325.60000610352</ele>
        <time>2018-12-08T14:26:03.000Z</time>
      </trkpt>
      <trkpt lat="43.73585" lon="7.1236">
        <ele>325.60000610352</ele>
        <time>2018-12-08T14:26:04.000Z</time>
      </trkpt>
      <trkpt lat="43.73594" lon="7.12373">
        <ele>325.60000610352</ele>
        <time>2018-12-08T14:26:06.000Z</time>
      </trkpt>
      <trkpt lat="43.73608" lon="7.12391">
        <ele>325.39999389648</ele>
        <time>2018-12-08T14:26:09.000Z</time>
      </trkpt>
      <trkpt lat="43.73619" lon="7.124">
        <ele>325.20001220703</ele>
        <time>2018-12-08T14:26:11.000Z</time>
      </trkpt>
      <trkpt lat="43.73632" lon="7.12408">
        <ele>324.79998779297</ele>
        <time>2018-12-08T14:26:13.000Z</time>
      </trkpt>
      <trkpt lat="43.73638" lon="7.12414">
        <ele>324.60000610352</ele>
        <time>2018-12-08T14:26:14.000Z</time>
      </trkpt>
      <trkpt lat="43.73648" lon="7.12429">
        <ele>324.20001220703</ele>
        <time>2018-12-08T14:26:16.000Z</time>
      </trkpt>
      <trkpt lat="43.7365" lon="7.12438">
        <ele>323.79998779297</ele>
        <time>2018-12-08T14:26:17.000Z</time>
      </trkpt>
      <trkpt lat="43.73653" lon="7.12457">
        <ele>323.39999389648</ele>
        <time>2018-12-08T14:26:19.000Z</time>
      </trkpt>
      <trkpt lat="43.73651" lon="7.12493">
        <ele>322.79998779297</ele>
        <time>2018-12-08T14:26:23.000Z</time>
      </trkpt>
      <trkpt lat="43.7365" lon="7.12501">
        <ele>322.79998779297</ele>
        <time>2018-12-08T14:26:24.000Z</time>
      </trkpt>
      <trkpt lat="43.7364" lon="7.12558">
        <ele>323.39999389648</ele>
        <time>2018-12-08T14:26:31.000Z</time>
      </trkpt>
      <trkpt lat="43.73639" lon="7.12566">
        <ele>323.39999389648</ele>
        <time>2018-12-08T14:26:32.000Z</time>
      </trkpt>
      <trkpt lat="43.73639" lon="7.12583">
        <ele>323.20001220703</ele>
        <time>2018-12-08T14:26:34.000Z</time>
      </trkpt>
      <trkpt lat="43.73642" lon="7.126">
        <ele>323.20001220703</ele>
        <time>2018-12-08T14:26:36.000Z</time>
      </trkpt>
      <trkpt lat="43.73657" lon="7.12667">
        <ele>322.60000610352</ele>
        <time>2018-12-08T14:26:44.000Z</time>
      </trkpt>
      <trkpt lat="43.73677" lon="7.12715">
        <ele>321.79998779297</ele>
        <time>2018-12-08T14:26:50.000Z</time>
      </trkpt>
      <trkpt lat="43.73685" lon="7.12728">
        <ele>321.60000610352</ele>
        <time>2018-12-08T14:26:52.000Z</time>
      </trkpt>
      <trkpt lat="43.73706" lon="7.1276">
        <ele>321.60000610352</ele>
        <time>2018-12-08T14:26:57.000Z</time>
      </trkpt>
      <trkpt lat="43.73736" lon="7.12818">
        <ele>321</ele>
        <time>2018-12-08T14:27:05.000Z</time>
      </trkpt>
      <trkpt lat="43.73748" lon="7.12851">
        <ele>320.60000610352</ele>
        <time>2018-12-08T14:27:09.000Z</time>
      </trkpt>
      <trkpt lat="43.73751" lon="7.12868">
        <ele>320.39999389648</ele>
        <time>2018-12-08T14:27:11.000Z</time>
      </trkpt>
      <trkpt lat="43.7376" lon="7.12946">
        <ele>320.20001220703</ele>
        <time>2018-12-08T14:27:20.000Z</time>
      </trkpt>
      <trkpt lat="43.73761" lon="7.12955">
        <ele>320</ele>
        <time>2018-12-08T14:27:21.000Z</time>
      </trkpt>
      <trkpt lat="43.73773" lon="7.13013">
        <ele>320</ele>
        <time>2018-12-08T14:27:28.000Z</time>
      </trkpt>
      <trkpt lat="43.73795" lon="7.13055">
        <ele>320</ele>
        <time>2018-12-08T14:27:34.000Z</time>
      </trkpt>
      <trkpt lat="43.73799" lon="7.13061">
        <ele>320</ele>
        <time>2018-12-08T14:27:35.000Z</time>
      </trkpt>
      <trkpt lat="43.73816" lon="7.13076">
        <ele>319.79998779297</ele>
        <time>2018-12-08T14:27:38.000Z</time>
      </trkpt>
      <trkpt lat="43.73834" lon="7.13082">
        <ele>319.60000610352</ele>
        <time>2018-12-08T14:27:41.000Z</time>
      </trkpt>
      <trkpt lat="43.73841" lon="7.13083">
        <ele>319.60000610352</ele>
        <time>2018-12-08T14:27:42.000Z</time>
      </trkpt>
      <trkpt lat="43.73867" lon="7.1309">
        <ele>319</ele>
        <time>2018-12-08T14:27:46.000Z</time>
      </trkpt>
      <trkpt lat="43.73879" lon="7.13098">
        <ele>318.79998779297</ele>
        <time>2018-12-08T14:27:48.000Z</time>
      </trkpt>
      <trkpt lat="43.73893" lon="7.13119">
        <ele>318.60000610352</ele>
        <time>2018-12-08T14:27:51.000Z</time>
      </trkpt>
      <trkpt lat="43.73896" lon="7.13127">
        <ele>318.39999389648</ele>
        <time>2018-12-08T14:27:52.000Z</time>
      </trkpt>
      <trkpt lat="43.73901" lon="7.13142">
        <ele>318.20001220703</ele>
        <time>2018-12-08T14:27:54.000Z</time>
      </trkpt>
      <trkpt lat="43.7391" lon="7.13164">
        <ele>318.20001220703</ele>
        <time>2018-12-08T14:27:57.000Z</time>
      </trkpt>
      <trkpt lat="43.73927" lon="7.13183">
        <ele>318.20001220703</ele>
        <time>2018-12-08T14:28:01.000Z</time>
      </trkpt>
      <trkpt lat="43.73939" lon="7.1319">
        <ele>318</ele>
        <time>2018-12-08T14:28:03.000Z</time>
      </trkpt>
      <trkpt lat="43.73967" lon="7.13204">
        <ele>318</ele>
        <time>2018-12-08T14:28:08.000Z</time>
      </trkpt>
      <trkpt lat="43.73972" lon="7.13206">
        <ele>317.79998779297</ele>
        <time>2018-12-08T14:28:09.000Z</time>
      </trkpt>
      <trkpt lat="43.73997" lon="7.13203">
        <ele>317.79998779297</ele>
        <time>2018-12-08T14:28:13.000Z</time>
      </trkpt>
      <trkpt lat="43.74003" lon="7.13201">
        <ele>317.79998779297</ele>
        <time>2018-12-08T14:28:14.000Z</time>
      </trkpt>
      <trkpt lat="43.74022" lon="7.13196">
        <ele>317.39999389648</ele>
        <time>2018-12-08T14:28:17.000Z</time>
      </trkpt>
      <trkpt lat="43.74036" lon="7.13195">
        <ele>317</ele>
        <time>2018-12-08T14:28:19.000Z</time>
      </trkpt>
      <trkpt lat="43.74055" lon="7.13201">
        <ele>316.79998779297</ele>
        <time>2018-12-08T14:28:22.000Z</time>
      </trkpt>
      <trkpt lat="43.74061" lon="7.13204">
        <ele>316.60000610352</ele>
        <time>2018-12-08T14:28:23.000Z</time>
      </trkpt>
      <trkpt lat="43.74105" lon="7.13219">
        <ele>316.79998779297</ele>
        <time>2018-12-08T14:28:30.000Z</time>
      </trkpt>
      <trkpt lat="43.74142" lon="7.13224">
        <ele>316.60000610352</ele>
        <time>2018-12-08T14:28:36.000Z</time>
      </trkpt>
      <trkpt lat="43.74148" lon="7.13225">
        <ele>316.39999389648</ele>
        <time>2018-12-08T14:28:37.000Z</time>
      </trkpt>
      <trkpt lat="43.74186" lon="7.13232">
        <ele>316</ele>
        <time>2018-12-08T14:28:43.000Z</time>
      </trkpt>
      <trkpt lat="43.74222" lon="7.13244">
        <ele>315.39999389648</ele>
        <time>2018-12-08T14:28:49.000Z</time>
      </trkpt>
      <trkpt lat="43.74235" lon="7.13249">
        <ele>315.20001220703</ele>
        <time>2018-12-08T14:28:51.000Z</time>
      </trkpt>
      <trkpt lat="43.74282" lon="7.13262">
        <ele>314.79998779297</ele>
        <time>2018-12-08T14:28:59.000Z</time>
      </trkpt>
      <trkpt lat="43.74304" lon="7.13253">
        <ele>314.60000610352</ele>
        <time>2018-12-08T14:29:03.000Z</time>
      </trkpt>
      <trkpt lat="43.74321" lon="7.1323">
        <ele>314.60000610352</ele>
        <time>2018-12-08T14:29:07.000Z</time>
      </trkpt>
      <trkpt lat="43.74326" lon="7.13215">
        <ele>314.39999389648</ele>
        <time>2018-12-08T14:29:09.000Z</time>
      </trkpt>
      <trkpt lat="43.74332" lon="7.1319">
        <ele>314.39999389648</ele>
        <time>2018-12-08T14:29:12.000Z</time>
      </trkpt>
      <trkpt lat="43.74334" lon="7.13181">
        <ele>314.39999389648</ele>
        <time>2018-12-08T14:29:13.000Z</time>
      </trkpt>
      <trkpt lat="43.74339" lon="7.13165">
        <ele>314</ele>
        <time>2018-12-08T14:29:15.000Z</time>
      </trkpt>
      <trkpt lat="43.74345" lon="7.13149">
        <ele>313.60000610352</ele>
        <time>2018-12-08T14:29:17.000Z</time>
      </trkpt>
      <trkpt lat="43.74349" lon="7.13142">
        <ele>313.39999389648</ele>
        <time>2018-12-08T14:29:18.000Z</time>
      </trkpt>
      <trkpt lat="43.74364" lon="7.13126">
        <ele>313.39999389648</ele>
        <time>2018-12-08T14:29:21.000Z</time>
      </trkpt>
      <trkpt lat="43.7437" lon="7.13123">
        <ele>313.20001220703</ele>
        <time>2018-12-08T14:29:22.000Z</time>
      </trkpt>
      <trkpt lat="43.74395" lon="7.13116">
        <ele>313</ele>
        <time>2018-12-08T14:29:26.000Z</time>
      </trkpt>
      <trkpt lat="43.74408" lon="7.13116">
        <ele>312.79998779297</ele>
        <time>2018-12-08T14:29:28.000Z</time>
      </trkpt>
      <trkpt lat="43.7442" lon="7.13113">
        <ele>312.60000610352</ele>
        <time>2018-12-08T14:29:30.000Z</time>
      </trkpt>
      <trkpt lat="43.74426" lon="7.1311">
        <ele>312.60000610352</ele>
        <time>2018-12-08T14:29:31.000Z</time>
      </trkpt>
      <trkpt lat="43.7445" lon="7.13097">
        <ele>312.20001220703</ele>
        <time>2018-12-08T14:29:35.000Z</time>
      </trkpt>
      <trkpt lat="43.74456" lon="7.13094">
        <ele>312.20001220703</ele>
        <time>2018-12-08T14:29:36.000Z</time>
      </trkpt>
      <trkpt lat="43.74481" lon="7.13087">
        <ele>312</ele>
        <time>2018-12-08T14:29:40.000Z</time>
      </trkpt>
      <trkpt lat="43.74488" lon="7.13086">
        <ele>311.79998779297</ele>
        <time>2018-12-08T14:29:41.000Z</time>
      </trkpt>
      <trkpt lat="43.74513" lon="7.13082">
        <ele>311.60000610352</ele>
        <time>2018-12-08T14:29:45.000Z</time>
      </trkpt>
      <trkpt lat="43.74519" lon="7.1308">
        <ele>311.39999389648</ele>
        <time>2018-12-08T14:29:46.000Z</time>
      </trkpt>
      <trkpt lat="43.74531" lon="7.13077">
        <ele>311.20001220703</ele>
        <time>2018-12-08T14:29:48.000Z</time>
      </trkpt>
      <trkpt lat="43.74549" lon="7.13075">
        <ele>310.79998779297</ele>
        <time>2018-12-08T14:29:51.000Z</time>
      </trkpt>
      <trkpt lat="43.7456" lon="7.13077">
        <ele>310.39999389648</ele>
        <time>2018-12-08T14:29:53.000Z</time>
      </trkpt>
      <trkpt lat="43.74566" lon="7.13079">
        <ele>310.20001220703</ele>
        <time>2018-12-08T14:29:54.000Z</time>
      </trkpt>
      <trkpt lat="43.74572" lon="7.13082">
        <ele>310.20001220703</ele>
        <time>2018-12-08T14:29:55.000Z</time>
      </trkpt>
      <trkpt lat="43.74611" lon="7.13106">
        <ele>310.79998779297</ele>
        <time>2018-12-08T14:30:02.000Z</time>
      </trkpt>
      <trkpt lat="43.7463" lon="7.1311">
        <ele>310.60000610352</ele>
        <time>2018-12-08T14:30:05.000Z</time>
      </trkpt>
      <trkpt lat="43.74642" lon="7.13107">
        <ele>310.39999389648</ele>
        <time>2018-12-08T14:30:07.000Z</time>
      </trkpt>
      <trkpt lat="43.74669" lon="7.1309">
        <ele>309.20001220703</ele>
        <time>2018-12-08T14:30:12.000Z</time>
      </trkpt>
      <trkpt lat="43.74678" lon="7.1308">
        <ele>309</ele>
        <time>2018-12-08T14:30:14.000Z</time>
      </trkpt>
      <trkpt lat="43.74702" lon="7.13053">
        <ele>308.60000610352</ele>
        <time>2018-12-08T14:30:19.000Z</time>
      </trkpt>
      <trkpt lat="43.74724" lon="7.1304">
        <ele>308.20001220703</ele>
        <time>2018-12-08T14:30:23.000Z</time>
      </trkpt>
      <trkpt lat="43.74729" lon="7.13038">
        <ele>308.20001220703</ele>
        <time>2018-12-08T14:30:24.000Z</time>
      </trkpt>
      <trkpt lat="43.74741" lon="7.13035">
        <ele>308</ele>
        <time>2018-12-08T14:30:26.000Z</time>
      </trkpt>
      <trkpt lat="43.74766" lon="7.1303">
        <ele>307.79998779297</ele>
        <time>2018-12-08T14:30:30.000Z</time>
      </trkpt>
      <trkpt lat="43.74809" lon="7.1302">
        <ele>307.20001220703</ele>
        <time>2018-12-08T14:30:37.000Z</time>
      </trkpt>
      <trkpt lat="43.74821" lon="7.13016">
        <ele>306.79998779297</ele>
        <time>2018-12-08T14:30:39.000Z</time>
      </trkpt>
      <trkpt lat="43.74851" lon="7.13001">
        <ele>306</ele>
        <time>2018-12-08T14:30:44.000Z</time>
      </trkpt>
      <trkpt lat="43.7487" lon="7.1299">
        <ele>305.79998779297</ele>
        <time>2018-12-08T14:30:47.000Z</time>
      </trkpt>
      <trkpt lat="43.7489" lon="7.12981">
        <ele>305.20001220703</ele>
        <time>2018-12-08T14:30:50.000Z</time>
      </trkpt>
      <trkpt lat="43.74897" lon="7.12981">
        <ele>305</ele>
        <time>2018-12-08T14:30:51.000Z</time>
      </trkpt>
      <trkpt lat="43.74909" lon="7.12989">
        <ele>304.60000610352</ele>
        <time>2018-12-08T14:30:53.000Z</time>
      </trkpt>
      <trkpt lat="43.74913" lon="7.12997">
        <ele>304.39999389648</ele>
        <time>2018-12-08T14:30:54.000Z</time>
      </trkpt>
      <trkpt lat="43.7492" lon="7.13022">
        <ele>303.60000610352</ele>
        <time>2018-12-08T14:30:57.000Z</time>
      </trkpt>
      <trkpt lat="43.74923" lon="7.13029">
        <ele>303.39999389648</ele>
        <time>2018-12-08T14:30:58.000Z</time>
      </trkpt>
      <trkpt lat="43.74934" lon="7.13063">
        <ele>304.60000610352</ele>
        <time>2018-12-08T14:31:03.000Z</time>
      </trkpt>
      <trkpt lat="43.74937" lon="7.13082">
        <ele>303.79998779297</ele>
        <time>2018-12-08T14:31:06.000Z</time>
      </trkpt>
      <trkpt lat="43.74936" lon="7.13095">
        <ele>303.79998779297</ele>
        <time>2018-12-08T14:31:08.000Z</time>
      </trkpt>
      <trkpt lat="43.74931" lon="7.13115">
        <ele>304.20001220703</ele>
        <time>2018-12-08T14:31:11.000Z</time>
      </trkpt>
      <trkpt lat="43.74928" lon="7.13121">
        <ele>304.20001220703</ele>
        <time>2018-12-08T14:31:12.000Z</time>
      </trkpt>
      <trkpt lat="43.74925" lon="7.13126">
        <ele>304.20001220703</ele>
        <time>2018-12-08T14:31:13.000Z</time>
      </trkpt>
      <trkpt lat="43.74907" lon="7.13138">
        <ele>304.60000610352</ele>
        <time>2018-12-08T14:31:17.000Z</time>
      </trkpt>
      <trkpt lat="43.74893" lon="7.13141">
        <ele>304.60000610352</ele>
        <time>2018-12-08T14:31:20.000Z</time>
      </trkpt>
      <trkpt lat="43.74883" lon="7.13142">
        <ele>304.79998779297</ele>
        <time>2018-12-08T14:31:22.000Z</time>
      </trkpt>
      <trkpt lat="43.74869" lon="7.13146">
        <ele>305</ele>
        <time>2018-12-08T14:31:25.000Z</time>
      </trkpt>
      <trkpt lat="43.74856" lon="7.13154">
        <ele>305.39999389648</ele>
        <time>2018-12-08T14:31:28.000Z</time>
      </trkpt>
      <trkpt lat="43.74847" lon="7.13162">
        <ele>305.60000610352</ele>
        <time>2018-12-08T14:31:30.000Z</time>
      </trkpt>
      <trkpt lat="43.74832" lon="7.13181">
        <ele>306</ele>
        <time>2018-12-08T14:31:34.000Z</time>
      </trkpt>
      <trkpt lat="43.74792" lon="7.13231">
        <ele>305.79998779297</ele>
        <time>2018-12-08T14:31:44.000Z</time>
      </trkpt>
      <trkpt lat="43.74773" lon="7.13268">
        <ele>306.20001220703</ele>
        <time>2018-12-08T14:31:50.000Z</time>
      </trkpt>
      <trkpt lat="43.74743" lon="7.13335">
        <ele>305.60000610352</ele>
        <time>2018-12-08T14:32:00.000Z</time>
      </trkpt>
      <trkpt lat="43.7474" lon="7.13342">
        <ele>305.60000610352</ele>
        <time>2018-12-08T14:32:01.000Z</time>
      </trkpt>
      <trkpt lat="43.7471" lon="7.13411">
        <ele>305.39999389648</ele>
        <time>2018-12-08T14:32:11.000Z</time>
      </trkpt>
      <trkpt lat="43.74702" lon="7.13424">
        <ele>305.20001220703</ele>
        <time>2018-12-08T14:32:13.000Z</time>
      </trkpt>
      <trkpt lat="43.74693" lon="7.13436">
        <ele>305</ele>
        <time>2018-12-08T14:32:15.000Z</time>
      </trkpt>
      <trkpt lat="43.74674" lon="7.13456">
        <ele>304.79998779297</ele>
        <time>2018-12-08T14:32:19.000Z</time>
      </trkpt>
      <trkpt lat="43.74664" lon="7.13468">
        <ele>304.60000610352</ele>
        <time>2018-12-08T14:32:21.000Z</time>
      </trkpt>
      <trkpt lat="43.7465" lon="7.13483">
        <ele>304.60000610352</ele>
        <time>2018-12-08T14:32:24.000Z</time>
      </trkpt>
      <trkpt lat="43.74612" lon="7.13514">
        <ele>304.60000610352</ele>
        <time>2018-12-08T14:32:31.000Z</time>
      </trkpt>
      <trkpt lat="43.74602" lon="7.13522">
        <ele>304.39999389648</ele>
        <time>2018-12-08T14:32:33.000Z</time>
      </trkpt>
      <trkpt lat="43.74593" lon="7.13533">
        <ele>304.39999389648</ele>
        <time>2018-12-08T14:32:35.000Z</time>
      </trkpt>
      <trkpt lat="43.74581" lon="7.13554">
        <ele>304.60000610352</ele>
        <time>2018-12-08T14:32:38.000Z</time>
      </trkpt>
      <trkpt lat="43.74574" lon="7.13568">
        <ele>304.39999389648</ele>
        <time>2018-12-08T14:32:40.000Z</time>
      </trkpt>
      <trkpt lat="43.74549" lon="7.1362">
        <ele>303.60000610352</ele>
        <time>2018-12-08T14:32:47.000Z</time>
      </trkpt>
      <trkpt lat="43.74532" lon="7.13656">
        <ele>303.39999389648</ele>
        <time>2018-12-08T14:32:52.000Z</time>
      </trkpt>
      <trkpt lat="43.74501" lon="7.1372">
        <ele>303</ele>
        <time>2018-12-08T14:33:01.000Z</time>
      </trkpt>
      <trkpt lat="43.74493" lon="7.13734">
        <ele>303</ele>
        <time>2018-12-08T14:33:03.000Z</time>
      </trkpt>
      <trkpt lat="43.7446" lon="7.13773">
        <ele>303</ele>
        <time>2018-12-08T14:33:10.000Z</time>
      </trkpt>
      <trkpt lat="43.74431" lon="7.13805">
        <ele>302.60000610352</ele>
        <time>2018-12-08T14:33:16.000Z</time>
      </trkpt>
      <trkpt lat="43.74423" lon="7.13817">
        <ele>302.39999389648</ele>
        <time>2018-12-08T14:33:18.000Z</time>
      </trkpt>
      <trkpt lat="43.74388" lon="7.13875">
        <ele>302</ele>
        <time>2018-12-08T14:33:27.000Z</time>
      </trkpt>
      <trkpt lat="43.74385" lon="7.13882">
        <ele>302</ele>
        <time>2018-12-08T14:33:28.000Z</time>
      </trkpt>
      <trkpt lat="43.74379" lon="7.13915">
        <ele>301.79998779297</ele>
        <time>2018-12-08T14:33:32.000Z</time>
      </trkpt>
      <trkpt lat="43.74376" lon="7.13941">
        <ele>301.60000610352</ele>
        <time>2018-12-08T14:33:35.000Z</time>
      </trkpt>
      <trkpt lat="43.74368" lon="7.14018">
        <ele>301.20001220703</ele>
        <time>2018-12-08T14:33:44.000Z</time>
      </trkpt>
      <trkpt lat="43.74363" lon="7.14095">
        <ele>301.20001220703</ele>
        <time>2018-12-08T14:33:53.000Z</time>
      </trkpt>
      <trkpt lat="43.74371" lon="7.14157">
        <ele>301</ele>
        <time>2018-12-08T14:34:00.000Z</time>
      </trkpt>
      <trkpt lat="43.74373" lon="7.14183">
        <ele>300.79998779297</ele>
        <time>2018-12-08T14:34:03.000Z</time>
      </trkpt>
      <trkpt lat="43.74369" lon="7.1421">
        <ele>300.39999389648</ele>
        <time>2018-12-08T14:34:06.000Z</time>
      </trkpt>
      <trkpt lat="43.74365" lon="7.14227">
        <ele>300.20001220703</ele>
        <time>2018-12-08T14:34:08.000Z</time>
      </trkpt>
      <trkpt lat="43.7436" lon="7.14243">
        <ele>300.20001220703</ele>
        <time>2018-12-08T14:34:10.000Z</time>
      </trkpt>
      <trkpt lat="43.74358" lon="7.14251">
        <ele>300.20001220703</ele>
        <time>2018-12-08T14:34:11.000Z</time>
      </trkpt>
      <trkpt lat="43.7435" lon="7.14299">
        <ele>300</ele>
        <time>2018-12-08T14:34:17.000Z</time>
      </trkpt>
      <trkpt lat="43.74351" lon="7.14356">
        <ele>300.20001220703</ele>
        <time>2018-12-08T14:34:24.000Z</time>
      </trkpt>
      <trkpt lat="43.74349" lon="7.14386">
        <ele>300</ele>
        <time>2018-12-08T14:34:28.000Z</time>
      </trkpt>
      <trkpt lat="43.74347" lon="7.14392">
        <ele>300</ele>
        <time>2018-12-08T14:34:29.000Z</time>
      </trkpt>
      <trkpt lat="43.74338" lon="7.1443">
        <ele>299.79998779297</ele>
        <time>2018-12-08T14:34:35.000Z</time>
      </trkpt>
      <trkpt lat="43.74335" lon="7.14435">
        <ele>299.79998779297</ele>
        <time>2018-12-08T14:34:36.000Z</time>
      </trkpt>
      <trkpt lat="43.74328" lon="7.14446">
        <ele>299.20001220703</ele>
        <time>2018-12-08T14:34:39.000Z</time>
      </trkpt>
      <trkpt lat="43.74327" lon="7.14452">
        <ele>299.20001220703</ele>
        <time>2018-12-08T14:34:40.000Z</time>
      </trkpt>
      <trkpt lat="43.74332" lon="7.14467">
        <ele>298.60000610352</ele>
        <time>2018-12-08T14:34:43.000Z</time>
      </trkpt>
      <trkpt lat="43.7434" lon="7.14468">
        <ele>298.20001220703</ele>
        <time>2018-12-08T14:34:45.000Z</time>
      </trkpt>
      <trkpt lat="43.74343" lon="7.14469">
        <ele>298.20001220703</ele>
        <time>2018-12-08T14:34:46.000Z</time>
      </trkpt>
      <trkpt lat="43.74346" lon="7.14473">
        <ele>298.60000610352</ele>
        <time>2018-12-08T14:34:48.000Z</time>
      </trkpt>
      <trkpt lat="43.74348" lon="7.14478">
        <ele>299.39999389648</ele>
        <time>2018-12-08T14:34:50.000Z</time>
      </trkpt>
      <trkpt lat="43.74347" lon="7.1448">
        <ele>299.60000610352</ele>
        <time>2018-12-08T14:34:54.000Z</time>
      </trkpt>
      <trkpt lat="43.74348" lon="7.1448">
        <ele>299.60000610352</ele>
        <time>2018-12-08T14:34:58.000Z</time>
      </trkpt>
      <trkpt lat="43.74348" lon="7.1448">
        <ele>299.39999389648</ele>
        <time>2018-12-08T14:35:05.000Z</time>
      </trkpt>
      <trkpt lat="43.74348" lon="7.14478">
        <ele>299.60000610352</ele>
        <time>2018-12-08T14:35:10.000Z</time>
      </trkpt>
      <trkpt lat="43.7435" lon="7.14481">
        <ele>299.79998779297</ele>
        <time>2018-12-08T14:35:17.000Z</time>
      </trkpt>
      <trkpt lat="43.7435" lon="7.14481">
        <ele>299.39999389648</ele>
        <time>2018-12-08T14:35:27.000Z</time>
      </trkpt>
      <trkpt lat="43.74349" lon="7.14481">
        <ele>299.20001220703</ele>
        <time>2018-12-08T14:35:33.000Z</time>
      </trkpt>
      <trkpt lat="43.74349" lon="7.14481">
        <ele>299.60000610352</ele>
        <time>2018-12-08T14:35:38.000Z</time>
      </trkpt>
      <trkpt lat="43.74349" lon="7.14481">
        <ele>299.79998779297</ele>
        <time>2018-12-08T14:35:39.000Z</time>
      </trkpt>
    </trkseg>
  </trk>
</gpx>